<?xml version="1.0" encoding="UTF-8"?>
<gpx version="1.1" creator="https://www.www-youtrack-es.amenigma.com" xsi:schemaLocation="http://www.topografix.com/GPX/1/1 http://www.topografix.com/GPX/1/1/gpx.xsd http://www.garmin.com/xmlschemas/GpxExtensions/v3 http://www.garmin.com/xmlschemas/GpxExtensionsv3.xsd http://www.garmin.com/xmlschemas/TrackPointExtension/v1 http://www.garmin.com/xmlschemas/TrackPointExtensionv1.xsd" xmlns:gpxtpx="http://www.garmin.com/xmlschemas/TrackPointExtension/v1" xmlns:gpxx="http://www.garmin.com/xmlschemas/GpxExtensions/v3" xmlns:xsi="http://www.w3.org/2001/XMLSchema-instance">
  <metadata>
    <link href="https://www.www-youtrack-es.amenigma.com">
      <text>YouTrack.es</text>
    </link>
    <time>2026-09-01T07:42:47Z</time>
  </metadata>
  <trk>
    <src>https://www.www-youtrack-es.amenigma.com</src>
    <link href="https://www.www-youtrack-es.amenigma.com/ruta/906-fosiles">
      <text>YouTrack.es</text>
    </link>
    <trkseg>
      <trkpt lat="37.417565" lon="-4.47285167">
        <ele>475.0</ele>
        <time>2018-05-29T09:53:53.059Z</time>
      </trkpt>
      <trkpt lat="37.41755" lon="-4.47280667">
        <ele>475.0</ele>
        <time>2018-05-29T09:53:54.079Z</time>
      </trkpt>
      <trkpt lat="37.41753833" lon="-4.47276">
        <ele>475.0</ele>
        <time>2018-05-29T09:53:55.061Z</time>
      </trkpt>
      <trkpt lat="37.41753833" lon="-4.47276">
        <ele>475.0</ele>
        <time>2018-05-29T09:53:56.072Z</time>
      </trkpt>
      <trkpt lat="37.41750833" lon="-4.47267167">
        <ele>474.0</ele>
        <time>2018-05-29T09:53:57.079Z</time>
      </trkpt>
      <trkpt lat="37.41749333" lon="-4.47262667">
        <ele>475.0</ele>
        <time>2018-05-29T09:53:58.086Z</time>
      </trkpt>
      <trkpt lat="37.41749333" lon="-4.47262667">
        <ele>475.0</ele>
        <time>2018-05-29T09:53:59.094Z</time>
      </trkpt>
      <trkpt lat="37.417465" lon="-4.472535">
        <ele>474.0</ele>
        <time>2018-05-29T09:54:00.069Z</time>
      </trkpt>
      <trkpt lat="37.41744833" lon="-4.47249167">
        <ele>474.0</ele>
        <time>2018-05-29T09:54:01.081Z</time>
      </trkpt>
      <trkpt lat="37.41744833" lon="-4.47249167">
        <ele>474.0</ele>
        <time>2018-05-29T09:54:02.058Z</time>
      </trkpt>
      <trkpt lat="37.41742" lon="-4.4724">
        <ele>474.0</ele>
        <time>2018-05-29T09:54:03.087Z</time>
      </trkpt>
      <trkpt lat="37.41742" lon="-4.4724">
        <ele>474.0</ele>
        <time>2018-05-29T09:54:04.075Z</time>
      </trkpt>
      <trkpt lat="37.41738833" lon="-4.472305">
        <ele>474.0</ele>
        <time>2018-05-29T09:54:05.096Z</time>
      </trkpt>
      <trkpt lat="37.41738833" lon="-4.472305">
        <ele>474.0</ele>
        <time>2018-05-29T09:54:06.065Z</time>
      </trkpt>
      <trkpt lat="37.41736167" lon="-4.472205">
        <ele>474.0</ele>
        <time>2018-05-29T09:54:07.089Z</time>
      </trkpt>
      <trkpt lat="37.41736167" lon="-4.472205">
        <ele>474.0</ele>
        <time>2018-05-29T09:54:08.070Z</time>
      </trkpt>
      <trkpt lat="37.417335" lon="-4.472105">
        <ele>474.0</ele>
        <time>2018-05-29T09:54:09.092Z</time>
      </trkpt>
      <trkpt lat="37.417335" lon="-4.472105">
        <ele>474.0</ele>
        <time>2018-05-29T09:54:10.061Z</time>
      </trkpt>
      <trkpt lat="37.417305" lon="-4.47200667">
        <ele>474.0</ele>
        <time>2018-05-29T09:54:11.084Z</time>
      </trkpt>
      <trkpt lat="37.417305" lon="-4.47200667">
        <ele>474.0</ele>
        <time>2018-05-29T09:54:12.060Z</time>
      </trkpt>
      <trkpt lat="37.417275" lon="-4.47191">
        <ele>474.0</ele>
        <time>2018-05-29T09:54:13.069Z</time>
      </trkpt>
      <trkpt lat="37.417275" lon="-4.47191">
        <ele>474.0</ele>
        <time>2018-05-29T09:54:14.079Z</time>
      </trkpt>
      <trkpt lat="37.41725667" lon="-4.47180667">
        <ele>474.0</ele>
        <time>2018-05-29T09:54:15.093Z</time>
      </trkpt>
      <trkpt lat="37.417245" lon="-4.471755">
        <ele>474.0</ele>
        <time>2018-05-29T09:54:16.081Z</time>
      </trkpt>
      <trkpt lat="37.417245" lon="-4.471755">
        <ele>474.0</ele>
        <time>2018-05-29T09:54:17.088Z</time>
      </trkpt>
      <trkpt lat="37.41721833" lon="-4.47165">
        <ele>474.0</ele>
        <time>2018-05-29T09:54:18.076Z</time>
      </trkpt>
      <trkpt lat="37.41721833" lon="-4.47165">
        <ele>474.0</ele>
        <time>2018-05-29T09:54:19.057Z</time>
      </trkpt>
      <trkpt lat="37.41719333" lon="-4.47154667">
        <ele>475.0</ele>
        <time>2018-05-29T09:54:20.076Z</time>
      </trkpt>
      <trkpt lat="37.41719333" lon="-4.47154667">
        <ele>475.0</ele>
        <time>2018-05-29T09:54:21.091Z</time>
      </trkpt>
      <trkpt lat="37.41717" lon="-4.47144167">
        <ele>475.0</ele>
        <time>2018-05-29T09:54:22.067Z</time>
      </trkpt>
      <trkpt lat="37.41716" lon="-4.47138833">
        <ele>475.0</ele>
        <time>2018-05-29T09:54:23.089Z</time>
      </trkpt>
      <trkpt lat="37.41716" lon="-4.47138833">
        <ele>475.0</ele>
        <time>2018-05-29T09:54:24.056Z</time>
      </trkpt>
      <trkpt lat="37.41714167" lon="-4.47128167">
        <ele>475.0</ele>
        <time>2018-05-29T09:54:25.062Z</time>
      </trkpt>
      <trkpt lat="37.41714167" lon="-4.47128167">
        <ele>475.0</ele>
        <time>2018-05-29T09:54:26.081Z</time>
      </trkpt>
      <trkpt lat="37.417125" lon="-4.471175">
        <ele>475.0</ele>
        <time>2018-05-29T09:54:27.096Z</time>
      </trkpt>
      <trkpt lat="37.41711667" lon="-4.47112167">
        <ele>475.0</ele>
        <time>2018-05-29T09:54:28.085Z</time>
      </trkpt>
      <trkpt lat="37.41711667" lon="-4.47112167">
        <ele>475.0</ele>
        <time>2018-05-29T09:54:29.092Z</time>
      </trkpt>
      <trkpt lat="37.41709833" lon="-4.47101333">
        <ele>476.0</ele>
        <time>2018-05-29T09:54:30.064Z</time>
      </trkpt>
      <trkpt lat="37.41709167" lon="-4.47096">
        <ele>476.0</ele>
        <time>2018-05-29T09:54:31.091Z</time>
      </trkpt>
      <trkpt lat="37.41709167" lon="-4.47096">
        <ele>476.0</ele>
        <time>2018-05-29T09:54:32.056Z</time>
      </trkpt>
      <trkpt lat="37.41708667" lon="-4.470855">
        <ele>477.0</ele>
        <time>2018-05-29T09:54:33.095Z</time>
      </trkpt>
      <trkpt lat="37.41708667" lon="-4.470855">
        <ele>477.0</ele>
        <time>2018-05-29T09:54:34.060Z</time>
      </trkpt>
      <trkpt lat="37.41708" lon="-4.47075333">
        <ele>478.0</ele>
        <time>2018-05-29T09:54:35.079Z</time>
      </trkpt>
      <trkpt lat="37.417075" lon="-4.47070333">
        <ele>478.0</ele>
        <time>2018-05-29T09:54:36.080Z</time>
      </trkpt>
      <trkpt lat="37.41707333" lon="-4.47065">
        <ele>478.0</ele>
        <time>2018-05-29T09:54:37.060Z</time>
      </trkpt>
      <trkpt lat="37.41707333" lon="-4.47065">
        <ele>478.0</ele>
        <time>2018-05-29T09:54:38.068Z</time>
      </trkpt>
      <trkpt lat="37.41706833" lon="-4.47053833">
        <ele>478.0</ele>
        <time>2018-05-29T09:54:39.076Z</time>
      </trkpt>
      <trkpt lat="37.41706833" lon="-4.47053833">
        <ele>478.0</ele>
        <time>2018-05-29T09:54:40.086Z</time>
      </trkpt>
      <trkpt lat="37.41706167" lon="-4.47042833">
        <ele>479.0</ele>
        <time>2018-05-29T09:54:41.083Z</time>
      </trkpt>
      <trkpt lat="37.41706167" lon="-4.47042833">
        <ele>479.0</ele>
        <time>2018-05-29T09:54:42.061Z</time>
      </trkpt>
      <trkpt lat="37.417065" lon="-4.47032333">
        <ele>479.0</ele>
        <time>2018-05-29T09:54:43.079Z</time>
      </trkpt>
      <trkpt lat="37.417065" lon="-4.47032333">
        <ele>479.0</ele>
        <time>2018-05-29T09:54:44.077Z</time>
      </trkpt>
      <trkpt lat="37.41706667" lon="-4.47021">
        <ele>480.0</ele>
        <time>2018-05-29T09:54:45.058Z</time>
      </trkpt>
      <trkpt lat="37.41706833" lon="-4.47014667">
        <ele>479.0</ele>
        <time>2018-05-29T09:54:46.084Z</time>
      </trkpt>
      <trkpt lat="37.41706833" lon="-4.47014667">
        <ele>479.0</ele>
        <time>2018-05-29T09:54:47.092Z</time>
      </trkpt>
      <trkpt lat="37.41708" lon="-4.47002333">
        <ele>479.0</ele>
        <time>2018-05-29T09:54:48.065Z</time>
      </trkpt>
      <trkpt lat="37.417085" lon="-4.46996333">
        <ele>480.0</ele>
        <time>2018-05-29T09:54:49.082Z</time>
      </trkpt>
      <trkpt lat="37.417085" lon="-4.46996333">
        <ele>480.0</ele>
        <time>2018-05-29T09:54:50.095Z</time>
      </trkpt>
      <trkpt lat="37.417095" lon="-4.46984167">
        <ele>480.0</ele>
        <time>2018-05-29T09:54:51.058Z</time>
      </trkpt>
      <trkpt lat="37.417095" lon="-4.46984167">
        <ele>480.0</ele>
        <time>2018-05-29T09:54:52.076Z</time>
      </trkpt>
      <trkpt lat="37.41710833" lon="-4.46972">
        <ele>480.0</ele>
        <time>2018-05-29T09:54:53.062Z</time>
      </trkpt>
      <trkpt lat="37.41710833" lon="-4.46972">
        <ele>480.0</ele>
        <time>2018-05-29T09:54:54.073Z</time>
      </trkpt>
      <trkpt lat="37.41712667" lon="-4.469595">
        <ele>480.0</ele>
        <time>2018-05-29T09:54:55.096Z</time>
      </trkpt>
      <trkpt lat="37.41712667" lon="-4.469595">
        <ele>480.0</ele>
        <time>2018-05-29T09:54:56.066Z</time>
      </trkpt>
      <trkpt lat="37.41715" lon="-4.46946833">
        <ele>480.0</ele>
        <time>2018-05-29T09:54:57.090Z</time>
      </trkpt>
      <trkpt lat="37.41715" lon="-4.46946833">
        <ele>480.0</ele>
        <time>2018-05-29T09:54:58.062Z</time>
      </trkpt>
      <trkpt lat="37.417175" lon="-4.46934167">
        <ele>480.0</ele>
        <time>2018-05-29T09:54:59.084Z</time>
      </trkpt>
      <trkpt lat="37.417175" lon="-4.46934167">
        <ele>480.0</ele>
        <time>2018-05-29T09:55:00.088Z</time>
      </trkpt>
      <trkpt lat="37.41719833" lon="-4.46921333">
        <ele>481.0</ele>
        <time>2018-05-29T09:55:01.074Z</time>
      </trkpt>
      <trkpt lat="37.41719833" lon="-4.46921333">
        <ele>481.0</ele>
        <time>2018-05-29T09:55:02.062Z</time>
      </trkpt>
      <trkpt lat="37.41723167" lon="-4.46908833">
        <ele>481.0</ele>
        <time>2018-05-29T09:55:03.069Z</time>
      </trkpt>
      <trkpt lat="37.41723167" lon="-4.46908833">
        <ele>481.0</ele>
        <time>2018-05-29T09:55:04.058Z</time>
      </trkpt>
      <trkpt lat="37.41726667" lon="-4.46896667">
        <ele>481.0</ele>
        <time>2018-05-29T09:55:05.071Z</time>
      </trkpt>
      <trkpt lat="37.41726667" lon="-4.46896667">
        <ele>481.0</ele>
        <time>2018-05-29T09:55:06.086Z</time>
      </trkpt>
      <trkpt lat="37.41729833" lon="-4.468845">
        <ele>481.0</ele>
        <time>2018-05-29T09:55:07.060Z</time>
      </trkpt>
      <trkpt lat="37.41729833" lon="-4.468845">
        <ele>481.0</ele>
        <time>2018-05-29T09:55:08.066Z</time>
      </trkpt>
      <trkpt lat="37.41733833" lon="-4.46872667">
        <ele>481.0</ele>
        <time>2018-05-29T09:55:09.086Z</time>
      </trkpt>
      <trkpt lat="37.41733833" lon="-4.46872667">
        <ele>481.0</ele>
        <time>2018-05-29T09:55:10.076Z</time>
      </trkpt>
      <trkpt lat="37.41738167" lon="-4.46860833">
        <ele>481.0</ele>
        <time>2018-05-29T09:55:11.061Z</time>
      </trkpt>
      <trkpt lat="37.41740167" lon="-4.46855">
        <ele>481.0</ele>
        <time>2018-05-29T09:55:12.080Z</time>
      </trkpt>
      <trkpt lat="37.41742167" lon="-4.46849167">
        <ele>481.0</ele>
        <time>2018-05-29T09:55:13.084Z</time>
      </trkpt>
      <trkpt lat="37.41742167" lon="-4.46849167">
        <ele>481.0</ele>
        <time>2018-05-29T09:55:14.064Z</time>
      </trkpt>
      <trkpt lat="37.417465" lon="-4.46838167">
        <ele>482.0</ele>
        <time>2018-05-29T09:55:15.079Z</time>
      </trkpt>
      <trkpt lat="37.417465" lon="-4.46838167">
        <ele>482.0</ele>
        <time>2018-05-29T09:55:16.056Z</time>
      </trkpt>
      <trkpt lat="37.41750833" lon="-4.46827667">
        <ele>482.0</ele>
        <time>2018-05-29T09:55:17.060Z</time>
      </trkpt>
      <trkpt lat="37.41750833" lon="-4.46827667">
        <ele>482.0</ele>
        <time>2018-05-29T09:55:18.093Z</time>
      </trkpt>
      <trkpt lat="37.41755667" lon="-4.468175">
        <ele>483.0</ele>
        <time>2018-05-29T09:55:19.087Z</time>
      </trkpt>
      <trkpt lat="37.41755667" lon="-4.468175">
        <ele>483.0</ele>
        <time>2018-05-29T09:55:20.080Z</time>
      </trkpt>
      <trkpt lat="37.41760333" lon="-4.468075">
        <ele>482.0</ele>
        <time>2018-05-29T09:55:21.064Z</time>
      </trkpt>
      <trkpt lat="37.41762833" lon="-4.46802833">
        <ele>482.0</ele>
        <time>2018-05-29T09:55:22.073Z</time>
      </trkpt>
      <trkpt lat="37.41762833" lon="-4.46802833">
        <ele>482.0</ele>
        <time>2018-05-29T09:55:23.079Z</time>
      </trkpt>
      <trkpt lat="37.41768167" lon="-4.46793333">
        <ele>482.0</ele>
        <time>2018-05-29T09:55:24.060Z</time>
      </trkpt>
      <trkpt lat="37.41770667" lon="-4.46788667">
        <ele>482.0</ele>
        <time>2018-05-29T09:55:25.261Z</time>
      </trkpt>
      <trkpt lat="37.41770667" lon="-4.46788667">
        <ele>482.0</ele>
        <time>2018-05-29T09:55:26.057Z</time>
      </trkpt>
      <trkpt lat="37.417755" lon="-4.46779667">
        <ele>482.0</ele>
        <time>2018-05-29T09:55:27.068Z</time>
      </trkpt>
      <trkpt lat="37.417755" lon="-4.46779667">
        <ele>482.0</ele>
        <time>2018-05-29T09:55:28.056Z</time>
      </trkpt>
      <trkpt lat="37.41780333" lon="-4.46771333">
        <ele>482.0</ele>
        <time>2018-05-29T09:55:29.082Z</time>
      </trkpt>
      <trkpt lat="37.41780333" lon="-4.46771333">
        <ele>482.0</ele>
        <time>2018-05-29T09:55:30.059Z</time>
      </trkpt>
      <trkpt lat="37.417855" lon="-4.46764">
        <ele>482.0</ele>
        <time>2018-05-29T09:55:31.082Z</time>
      </trkpt>
      <trkpt lat="37.41788" lon="-4.46760333">
        <ele>482.0</ele>
        <time>2018-05-29T09:55:32.077Z</time>
      </trkpt>
      <trkpt lat="37.41788" lon="-4.46760333">
        <ele>482.0</ele>
        <time>2018-05-29T09:55:33.088Z</time>
      </trkpt>
      <trkpt lat="37.41793" lon="-4.46753667">
        <ele>482.0</ele>
        <time>2018-05-29T09:55:34.064Z</time>
      </trkpt>
      <trkpt lat="37.41793" lon="-4.46753667">
        <ele>482.0</ele>
        <time>2018-05-29T09:55:35.091Z</time>
      </trkpt>
      <trkpt lat="37.41797833" lon="-4.46746667">
        <ele>482.0</ele>
        <time>2018-05-29T09:55:36.066Z</time>
      </trkpt>
      <trkpt lat="37.41800167" lon="-4.46743167">
        <ele>482.0</ele>
        <time>2018-05-29T09:55:37.091Z</time>
      </trkpt>
      <trkpt lat="37.41800167" lon="-4.46743167">
        <ele>482.0</ele>
        <time>2018-05-29T09:55:38.065Z</time>
      </trkpt>
      <trkpt lat="37.41804833" lon="-4.46735333">
        <ele>482.0</ele>
        <time>2018-05-29T09:55:39.069Z</time>
      </trkpt>
      <trkpt lat="37.41804833" lon="-4.46735333">
        <ele>482.0</ele>
        <time>2018-05-29T09:55:40.076Z</time>
      </trkpt>
      <trkpt lat="37.41809667" lon="-4.467275">
        <ele>482.0</ele>
        <time>2018-05-29T09:55:41.056Z</time>
      </trkpt>
      <trkpt lat="37.41812333" lon="-4.46723833">
        <ele>482.0</ele>
        <time>2018-05-29T09:55:42.095Z</time>
      </trkpt>
      <trkpt lat="37.41815167" lon="-4.46719833">
        <ele>482.0</ele>
        <time>2018-05-29T09:55:43.086Z</time>
      </trkpt>
      <trkpt lat="37.41815167" lon="-4.46719833">
        <ele>482.0</ele>
        <time>2018-05-29T09:55:44.093Z</time>
      </trkpt>
      <trkpt lat="37.41820833" lon="-4.46712">
        <ele>482.0</ele>
        <time>2018-05-29T09:55:45.070Z</time>
      </trkpt>
      <trkpt lat="37.418235" lon="-4.46708167">
        <ele>482.0</ele>
        <time>2018-05-29T09:55:46.063Z</time>
      </trkpt>
      <trkpt lat="37.418235" lon="-4.46708167">
        <ele>482.0</ele>
        <time>2018-05-29T09:55:47.074Z</time>
      </trkpt>
      <trkpt lat="37.41829" lon="-4.467">
        <ele>482.0</ele>
        <time>2018-05-29T09:55:48.057Z</time>
      </trkpt>
      <trkpt lat="37.41831833" lon="-4.46695667">
        <ele>482.0</ele>
        <time>2018-05-29T09:55:49.083Z</time>
      </trkpt>
      <trkpt lat="37.41831833" lon="-4.46695667">
        <ele>482.0</ele>
        <time>2018-05-29T09:55:50.090Z</time>
      </trkpt>
      <trkpt lat="37.41837167" lon="-4.46687">
        <ele>482.0</ele>
        <time>2018-05-29T09:55:51.089Z</time>
      </trkpt>
      <trkpt lat="37.41837167" lon="-4.46687">
        <ele>482.0</ele>
        <time>2018-05-29T09:55:52.070Z</time>
      </trkpt>
      <trkpt lat="37.41842333" lon="-4.46678833">
        <ele>482.0</ele>
        <time>2018-05-29T09:55:53.070Z</time>
      </trkpt>
      <trkpt lat="37.41842333" lon="-4.46678833">
        <ele>482.0</ele>
        <time>2018-05-29T09:55:54.059Z</time>
      </trkpt>
      <trkpt lat="37.41848" lon="-4.46670833">
        <ele>482.0</ele>
        <time>2018-05-29T09:55:55.075Z</time>
      </trkpt>
      <trkpt lat="37.41848" lon="-4.46670833">
        <ele>482.0</ele>
        <time>2018-05-29T09:55:56.081Z</time>
      </trkpt>
      <trkpt lat="37.41853833" lon="-4.46662167">
        <ele>482.0</ele>
        <time>2018-05-29T09:55:57.066Z</time>
      </trkpt>
      <trkpt lat="37.41853833" lon="-4.46662167">
        <ele>482.0</ele>
        <time>2018-05-29T09:55:58.073Z</time>
      </trkpt>
      <trkpt lat="37.41859667" lon="-4.46653833">
        <ele>483.0</ele>
        <time>2018-05-29T09:55:59.079Z</time>
      </trkpt>
      <trkpt lat="37.41859667" lon="-4.46653833">
        <ele>483.0</ele>
        <time>2018-05-29T09:56:00.076Z</time>
      </trkpt>
      <trkpt lat="37.41865667" lon="-4.46645167">
        <ele>483.0</ele>
        <time>2018-05-29T09:56:01.076Z</time>
      </trkpt>
      <trkpt lat="37.41865667" lon="-4.46645167">
        <ele>483.0</ele>
        <time>2018-05-29T09:56:02.085Z</time>
      </trkpt>
      <trkpt lat="37.41871333" lon="-4.466365">
        <ele>483.0</ele>
        <time>2018-05-29T09:56:03.060Z</time>
      </trkpt>
      <trkpt lat="37.41871333" lon="-4.466365">
        <ele>483.0</ele>
        <time>2018-05-29T09:56:04.068Z</time>
      </trkpt>
      <trkpt lat="37.41877333" lon="-4.46628">
        <ele>483.0</ele>
        <time>2018-05-29T09:56:05.074Z</time>
      </trkpt>
      <trkpt lat="37.41877333" lon="-4.46628">
        <ele>483.0</ele>
        <time>2018-05-29T09:56:06.090Z</time>
      </trkpt>
      <trkpt lat="37.41883167" lon="-4.46619167">
        <ele>483.0</ele>
        <time>2018-05-29T09:56:07.083Z</time>
      </trkpt>
      <trkpt lat="37.41883167" lon="-4.46619167">
        <ele>483.0</ele>
        <time>2018-05-29T09:56:08.067Z</time>
      </trkpt>
      <trkpt lat="37.41888667" lon="-4.46610167">
        <ele>484.0</ele>
        <time>2018-05-29T09:56:09.059Z</time>
      </trkpt>
      <trkpt lat="37.41888667" lon="-4.46610167">
        <ele>484.0</ele>
        <time>2018-05-29T09:56:10.069Z</time>
      </trkpt>
      <trkpt lat="37.41893833" lon="-4.46600667">
        <ele>484.0</ele>
        <time>2018-05-29T09:56:11.090Z</time>
      </trkpt>
      <trkpt lat="37.41893833" lon="-4.46600667">
        <ele>484.0</ele>
        <time>2018-05-29T09:56:12.079Z</time>
      </trkpt>
      <trkpt lat="37.41899" lon="-4.46591167">
        <ele>484.0</ele>
        <time>2018-05-29T09:56:13.063Z</time>
      </trkpt>
      <trkpt lat="37.41899" lon="-4.46591167">
        <ele>484.0</ele>
        <time>2018-05-29T09:56:14.076Z</time>
      </trkpt>
      <trkpt lat="37.41904167" lon="-4.465815">
        <ele>484.0</ele>
        <time>2018-05-29T09:56:15.095Z</time>
      </trkpt>
      <trkpt lat="37.41904167" lon="-4.465815">
        <ele>484.0</ele>
        <time>2018-05-29T09:56:16.077Z</time>
      </trkpt>
      <trkpt lat="37.41909" lon="-4.46571333">
        <ele>485.0</ele>
        <time>2018-05-29T09:56:17.091Z</time>
      </trkpt>
      <trkpt lat="37.41909" lon="-4.46571333">
        <ele>485.0</ele>
        <time>2018-05-29T09:56:18.065Z</time>
      </trkpt>
      <trkpt lat="37.41913333" lon="-4.46560667">
        <ele>485.0</ele>
        <time>2018-05-29T09:56:19.094Z</time>
      </trkpt>
      <trkpt lat="37.41913333" lon="-4.46560667">
        <ele>485.0</ele>
        <time>2018-05-29T09:56:20.060Z</time>
      </trkpt>
      <trkpt lat="37.41918" lon="-4.46549833">
        <ele>485.0</ele>
        <time>2018-05-29T09:56:21.060Z</time>
      </trkpt>
      <trkpt lat="37.41918" lon="-4.46549833">
        <ele>485.0</ele>
        <time>2018-05-29T09:56:22.056Z</time>
      </trkpt>
      <trkpt lat="37.41922667" lon="-4.46538833">
        <ele>485.0</ele>
        <time>2018-05-29T09:56:23.079Z</time>
      </trkpt>
      <trkpt lat="37.41922667" lon="-4.46538833">
        <ele>485.0</ele>
        <time>2018-05-29T09:56:24.056Z</time>
      </trkpt>
      <trkpt lat="37.41926833" lon="-4.465275">
        <ele>486.0</ele>
        <time>2018-05-29T09:56:25.076Z</time>
      </trkpt>
      <trkpt lat="37.41926833" lon="-4.465275">
        <ele>486.0</ele>
        <time>2018-05-29T09:56:26.086Z</time>
      </trkpt>
      <trkpt lat="37.41930667" lon="-4.46516167">
        <ele>486.0</ele>
        <time>2018-05-29T09:56:27.095Z</time>
      </trkpt>
      <trkpt lat="37.41930667" lon="-4.46516167">
        <ele>486.0</ele>
        <time>2018-05-29T09:56:28.062Z</time>
      </trkpt>
      <trkpt lat="37.41934" lon="-4.465045">
        <ele>486.0</ele>
        <time>2018-05-29T09:56:29.057Z</time>
      </trkpt>
      <trkpt lat="37.41935667" lon="-4.46498833">
        <ele>486.0</ele>
        <time>2018-05-29T09:56:30.075Z</time>
      </trkpt>
      <trkpt lat="37.41937667" lon="-4.46493">
        <ele>487.0</ele>
        <time>2018-05-29T09:56:31.063Z</time>
      </trkpt>
      <trkpt lat="37.41937667" lon="-4.46493">
        <ele>487.0</ele>
        <time>2018-05-29T09:56:32.080Z</time>
      </trkpt>
      <trkpt lat="37.41941" lon="-4.46481333">
        <ele>487.0</ele>
        <time>2018-05-29T09:56:33.058Z</time>
      </trkpt>
      <trkpt lat="37.419425" lon="-4.464755">
        <ele>487.0</ele>
        <time>2018-05-29T09:56:34.076Z</time>
      </trkpt>
      <trkpt lat="37.419425" lon="-4.464755">
        <ele>487.0</ele>
        <time>2018-05-29T09:56:35.091Z</time>
      </trkpt>
      <trkpt lat="37.41945333" lon="-4.46463833">
        <ele>488.0</ele>
        <time>2018-05-29T09:56:36.077Z</time>
      </trkpt>
      <trkpt lat="37.41946667" lon="-4.46458">
        <ele>488.0</ele>
        <time>2018-05-29T09:56:37.063Z</time>
      </trkpt>
      <trkpt lat="37.41947833" lon="-4.46452">
        <ele>488.0</ele>
        <time>2018-05-29T09:56:38.087Z</time>
      </trkpt>
      <trkpt lat="37.41947833" lon="-4.46452">
        <ele>488.0</ele>
        <time>2018-05-29T09:56:39.056Z</time>
      </trkpt>
      <trkpt lat="37.4195" lon="-4.4644">
        <ele>488.0</ele>
        <time>2018-05-29T09:56:40.088Z</time>
      </trkpt>
      <trkpt lat="37.4195" lon="-4.4644">
        <ele>488.0</ele>
        <time>2018-05-29T09:56:41.056Z</time>
      </trkpt>
      <trkpt lat="37.41952167" lon="-4.46427833">
        <ele>488.0</ele>
        <time>2018-05-29T09:56:42.069Z</time>
      </trkpt>
      <trkpt lat="37.41953" lon="-4.46421667">
        <ele>488.0</ele>
        <time>2018-05-29T09:56:43.086Z</time>
      </trkpt>
      <trkpt lat="37.41953" lon="-4.46421667">
        <ele>488.0</ele>
        <time>2018-05-29T09:56:44.058Z</time>
      </trkpt>
      <trkpt lat="37.419545" lon="-4.46409333">
        <ele>488.0</ele>
        <time>2018-05-29T09:56:45.077Z</time>
      </trkpt>
      <trkpt lat="37.419545" lon="-4.46409333">
        <ele>488.0</ele>
        <time>2018-05-29T09:56:46.090Z</time>
      </trkpt>
      <trkpt lat="37.41956" lon="-4.46396833">
        <ele>488.0</ele>
        <time>2018-05-29T09:56:47.061Z</time>
      </trkpt>
      <trkpt lat="37.41956" lon="-4.46396833">
        <ele>488.0</ele>
        <time>2018-05-29T09:56:48.068Z</time>
      </trkpt>
      <trkpt lat="37.41957167" lon="-4.46384333">
        <ele>488.0</ele>
        <time>2018-05-29T09:56:49.087Z</time>
      </trkpt>
      <trkpt lat="37.41957167" lon="-4.46384333">
        <ele>488.0</ele>
        <time>2018-05-29T09:56:50.093Z</time>
      </trkpt>
      <trkpt lat="37.41958" lon="-4.46371667">
        <ele>488.0</ele>
        <time>2018-05-29T09:56:51.078Z</time>
      </trkpt>
      <trkpt lat="37.41958" lon="-4.46371667">
        <ele>488.0</ele>
        <time>2018-05-29T09:56:52.089Z</time>
      </trkpt>
      <trkpt lat="37.419595" lon="-4.46358833">
        <ele>488.0</ele>
        <time>2018-05-29T09:56:53.063Z</time>
      </trkpt>
      <trkpt lat="37.419595" lon="-4.46358833">
        <ele>488.0</ele>
        <time>2018-05-29T09:56:54.078Z</time>
      </trkpt>
      <trkpt lat="37.41960833" lon="-4.46346">
        <ele>489.0</ele>
        <time>2018-05-29T09:56:55.059Z</time>
      </trkpt>
      <trkpt lat="37.41960833" lon="-4.46346">
        <ele>489.0</ele>
        <time>2018-05-29T09:56:56.078Z</time>
      </trkpt>
      <trkpt lat="37.41961667" lon="-4.46333333">
        <ele>489.0</ele>
        <time>2018-05-29T09:56:57.095Z</time>
      </trkpt>
      <trkpt lat="37.41961667" lon="-4.46333333">
        <ele>489.0</ele>
        <time>2018-05-29T09:56:58.078Z</time>
      </trkpt>
      <trkpt lat="37.41962667" lon="-4.46320833">
        <ele>489.0</ele>
        <time>2018-05-29T09:56:59.071Z</time>
      </trkpt>
      <trkpt lat="37.41962667" lon="-4.46320833">
        <ele>489.0</ele>
        <time>2018-05-29T09:57:00.066Z</time>
      </trkpt>
      <trkpt lat="37.41964167" lon="-4.46308167">
        <ele>489.0</ele>
        <time>2018-05-29T09:57:01.085Z</time>
      </trkpt>
      <trkpt lat="37.41964167" lon="-4.46308167">
        <ele>489.0</ele>
        <time>2018-05-29T09:57:02.093Z</time>
      </trkpt>
      <trkpt lat="37.41965333" lon="-4.46295333">
        <ele>489.0</ele>
        <time>2018-05-29T09:57:03.069Z</time>
      </trkpt>
      <trkpt lat="37.41965333" lon="-4.46295333">
        <ele>489.0</ele>
        <time>2018-05-29T09:57:04.078Z</time>
      </trkpt>
      <trkpt lat="37.419665" lon="-4.46282167">
        <ele>489.0</ele>
        <time>2018-05-29T09:57:05.061Z</time>
      </trkpt>
      <trkpt lat="37.419665" lon="-4.46282167">
        <ele>489.0</ele>
        <time>2018-05-29T09:57:06.067Z</time>
      </trkpt>
      <trkpt lat="37.41968" lon="-4.46268833">
        <ele>489.0</ele>
        <time>2018-05-29T09:57:07.079Z</time>
      </trkpt>
      <trkpt lat="37.41968" lon="-4.46268833">
        <ele>489.0</ele>
        <time>2018-05-29T09:57:08.094Z</time>
      </trkpt>
      <trkpt lat="37.41969167" lon="-4.46255667">
        <ele>489.0</ele>
        <time>2018-05-29T09:57:09.073Z</time>
      </trkpt>
      <trkpt lat="37.41969167" lon="-4.46255667">
        <ele>489.0</ele>
        <time>2018-05-29T09:57:10.081Z</time>
      </trkpt>
      <trkpt lat="37.41969833" lon="-4.46242333">
        <ele>489.0</ele>
        <time>2018-05-29T09:57:11.062Z</time>
      </trkpt>
      <trkpt lat="37.41969833" lon="-4.46242333">
        <ele>489.0</ele>
        <time>2018-05-29T09:57:12.084Z</time>
      </trkpt>
      <trkpt lat="37.41970667" lon="-4.46229333">
        <ele>489.0</ele>
        <time>2018-05-29T09:57:13.070Z</time>
      </trkpt>
      <trkpt lat="37.41970667" lon="-4.46229333">
        <ele>489.0</ele>
        <time>2018-05-29T09:57:14.078Z</time>
      </trkpt>
      <trkpt lat="37.41972167" lon="-4.46216167">
        <ele>489.0</ele>
        <time>2018-05-29T09:57:15.061Z</time>
      </trkpt>
      <trkpt lat="37.41972167" lon="-4.46216167">
        <ele>489.0</ele>
        <time>2018-05-29T09:57:16.068Z</time>
      </trkpt>
      <trkpt lat="37.41974" lon="-4.46203167">
        <ele>489.0</ele>
        <time>2018-05-29T09:57:17.085Z</time>
      </trkpt>
      <trkpt lat="37.41975" lon="-4.461965">
        <ele>490.0</ele>
        <time>2018-05-29T09:57:18.063Z</time>
      </trkpt>
      <trkpt lat="37.41975833" lon="-4.4619">
        <ele>490.0</ele>
        <time>2018-05-29T09:57:19.080Z</time>
      </trkpt>
      <trkpt lat="37.41975833" lon="-4.4619">
        <ele>490.0</ele>
        <time>2018-05-29T09:57:20.062Z</time>
      </trkpt>
      <trkpt lat="37.41977833" lon="-4.46176833">
        <ele>490.0</ele>
        <time>2018-05-29T09:57:21.079Z</time>
      </trkpt>
      <trkpt lat="37.41979" lon="-4.46170333">
        <ele>490.0</ele>
        <time>2018-05-29T09:57:22.077Z</time>
      </trkpt>
      <trkpt lat="37.41979" lon="-4.46170333">
        <ele>490.0</ele>
        <time>2018-05-29T09:57:23.095Z</time>
      </trkpt>
      <trkpt lat="37.41981667" lon="-4.46157">
        <ele>490.0</ele>
        <time>2018-05-29T09:57:24.073Z</time>
      </trkpt>
      <trkpt lat="37.41983167" lon="-4.461505">
        <ele>490.0</ele>
        <time>2018-05-29T09:57:25.096Z</time>
      </trkpt>
      <trkpt lat="37.41983167" lon="-4.461505">
        <ele>490.0</ele>
        <time>2018-05-29T09:57:26.061Z</time>
      </trkpt>
      <trkpt lat="37.41986167" lon="-4.461375">
        <ele>490.0</ele>
        <time>2018-05-29T09:57:27.061Z</time>
      </trkpt>
      <trkpt lat="37.41986167" lon="-4.461375">
        <ele>490.0</ele>
        <time>2018-05-29T09:57:28.073Z</time>
      </trkpt>
      <trkpt lat="37.41989333" lon="-4.46124833">
        <ele>491.0</ele>
        <time>2018-05-29T09:57:29.089Z</time>
      </trkpt>
      <trkpt lat="37.41989333" lon="-4.46124833">
        <ele>491.0</ele>
        <time>2018-05-29T09:57:30.095Z</time>
      </trkpt>
      <trkpt lat="37.41992833" lon="-4.46112333">
        <ele>491.0</ele>
        <time>2018-05-29T09:57:31.095Z</time>
      </trkpt>
      <trkpt lat="37.41992833" lon="-4.46112333">
        <ele>491.0</ele>
        <time>2018-05-29T09:57:32.080Z</time>
      </trkpt>
      <trkpt lat="37.41996667" lon="-4.46099833">
        <ele>491.0</ele>
        <time>2018-05-29T09:57:33.057Z</time>
      </trkpt>
      <trkpt lat="37.41996667" lon="-4.46099833">
        <ele>491.0</ele>
        <time>2018-05-29T09:57:34.077Z</time>
      </trkpt>
      <trkpt lat="37.42001333" lon="-4.46087833">
        <ele>492.0</ele>
        <time>2018-05-29T09:57:35.094Z</time>
      </trkpt>
      <trkpt lat="37.42003667" lon="-4.46082">
        <ele>492.0</ele>
        <time>2018-05-29T09:57:36.076Z</time>
      </trkpt>
      <trkpt lat="37.42006" lon="-4.46076333">
        <ele>492.0</ele>
        <time>2018-05-29T09:57:37.064Z</time>
      </trkpt>
      <trkpt lat="37.42006" lon="-4.46076333">
        <ele>492.0</ele>
        <time>2018-05-29T09:57:38.074Z</time>
      </trkpt>
      <trkpt lat="37.42010833" lon="-4.46065">
        <ele>492.0</ele>
        <time>2018-05-29T09:57:39.056Z</time>
      </trkpt>
      <trkpt lat="37.42010833" lon="-4.46065">
        <ele>492.0</ele>
        <time>2018-05-29T09:57:40.079Z</time>
      </trkpt>
      <trkpt lat="37.42015667" lon="-4.46053833">
        <ele>492.0</ele>
        <time>2018-05-29T09:57:41.060Z</time>
      </trkpt>
      <trkpt lat="37.42015667" lon="-4.46053833">
        <ele>492.0</ele>
        <time>2018-05-29T09:57:42.083Z</time>
      </trkpt>
      <trkpt lat="37.42020667" lon="-4.46042833">
        <ele>492.0</ele>
        <time>2018-05-29T09:57:43.071Z</time>
      </trkpt>
      <trkpt lat="37.42020667" lon="-4.46042833">
        <ele>492.0</ele>
        <time>2018-05-29T09:57:44.079Z</time>
      </trkpt>
      <trkpt lat="37.42026" lon="-4.46032167">
        <ele>492.0</ele>
        <time>2018-05-29T09:57:45.068Z</time>
      </trkpt>
      <trkpt lat="37.42026" lon="-4.46032167">
        <ele>492.0</ele>
        <time>2018-05-29T09:57:46.079Z</time>
      </trkpt>
      <trkpt lat="37.420315" lon="-4.46021833">
        <ele>492.0</ele>
        <time>2018-05-29T09:57:47.066Z</time>
      </trkpt>
      <trkpt lat="37.420315" lon="-4.46021833">
        <ele>492.0</ele>
        <time>2018-05-29T09:57:48.076Z</time>
      </trkpt>
      <trkpt lat="37.42037" lon="-4.46012">
        <ele>493.0</ele>
        <time>2018-05-29T09:57:49.078Z</time>
      </trkpt>
      <trkpt lat="37.42037" lon="-4.46012">
        <ele>493.0</ele>
        <time>2018-05-29T09:57:50.086Z</time>
      </trkpt>
      <trkpt lat="37.42043" lon="-4.46002167">
        <ele>493.0</ele>
        <time>2018-05-29T09:57:51.075Z</time>
      </trkpt>
      <trkpt lat="37.42046" lon="-4.459975">
        <ele>493.0</ele>
        <time>2018-05-29T09:57:52.079Z</time>
      </trkpt>
      <trkpt lat="37.42046" lon="-4.459975">
        <ele>493.0</ele>
        <time>2018-05-29T09:57:53.072Z</time>
      </trkpt>
      <trkpt lat="37.42051833" lon="-4.45987833">
        <ele>493.0</ele>
        <time>2018-05-29T09:57:54.091Z</time>
      </trkpt>
      <trkpt lat="37.42054833" lon="-4.45983167">
        <ele>493.0</ele>
        <time>2018-05-29T09:57:55.065Z</time>
      </trkpt>
      <trkpt lat="37.42054833" lon="-4.45983167">
        <ele>493.0</ele>
        <time>2018-05-29T09:57:56.072Z</time>
      </trkpt>
      <trkpt lat="37.42061" lon="-4.45974333">
        <ele>493.0</ele>
        <time>2018-05-29T09:57:57.060Z</time>
      </trkpt>
      <trkpt lat="37.42064333" lon="-4.45970167">
        <ele>493.0</ele>
        <time>2018-05-29T09:57:58.070Z</time>
      </trkpt>
      <trkpt lat="37.42064333" lon="-4.45970167">
        <ele>493.0</ele>
        <time>2018-05-29T09:57:59.079Z</time>
      </trkpt>
      <trkpt lat="37.42071167" lon="-4.459615">
        <ele>493.0</ele>
        <time>2018-05-29T09:58:00.067Z</time>
      </trkpt>
      <trkpt lat="37.42074333" lon="-4.45957">
        <ele>493.0</ele>
        <time>2018-05-29T09:58:01.074Z</time>
      </trkpt>
      <trkpt lat="37.42074333" lon="-4.45957">
        <ele>493.0</ele>
        <time>2018-05-29T09:58:02.081Z</time>
      </trkpt>
      <trkpt lat="37.420805" lon="-4.45948333">
        <ele>493.0</ele>
        <time>2018-05-29T09:58:03.068Z</time>
      </trkpt>
      <trkpt lat="37.420805" lon="-4.45948333">
        <ele>493.0</ele>
        <time>2018-05-29T09:58:04.088Z</time>
      </trkpt>
      <trkpt lat="37.42086833" lon="-4.459405">
        <ele>494.0</ele>
        <time>2018-05-29T09:58:05.060Z</time>
      </trkpt>
      <trkpt lat="37.42089833" lon="-4.45936667">
        <ele>494.0</ele>
        <time>2018-05-29T09:58:06.073Z</time>
      </trkpt>
      <trkpt lat="37.42092833" lon="-4.45932667">
        <ele>494.0</ele>
        <time>2018-05-29T09:58:07.086Z</time>
      </trkpt>
      <trkpt lat="37.42092833" lon="-4.45932667">
        <ele>494.0</ele>
        <time>2018-05-29T09:58:08.064Z</time>
      </trkpt>
      <trkpt lat="37.42099167" lon="-4.459255">
        <ele>494.0</ele>
        <time>2018-05-29T09:58:09.087Z</time>
      </trkpt>
      <trkpt lat="37.42099167" lon="-4.459255">
        <ele>494.0</ele>
        <time>2018-05-29T09:58:10.056Z</time>
      </trkpt>
      <trkpt lat="37.42105" lon="-4.45918167">
        <ele>494.0</ele>
        <time>2018-05-29T09:58:11.075Z</time>
      </trkpt>
      <trkpt lat="37.42105" lon="-4.45918167">
        <ele>494.0</ele>
        <time>2018-05-29T09:58:12.086Z</time>
      </trkpt>
      <trkpt lat="37.421105" lon="-4.45910667">
        <ele>494.0</ele>
        <time>2018-05-29T09:58:13.071Z</time>
      </trkpt>
      <trkpt lat="37.421105" lon="-4.45910667">
        <ele>494.0</ele>
        <time>2018-05-29T09:58:14.087Z</time>
      </trkpt>
      <trkpt lat="37.42116167" lon="-4.45903667">
        <ele>494.0</ele>
        <time>2018-05-29T09:58:15.079Z</time>
      </trkpt>
      <trkpt lat="37.42116167" lon="-4.45903667">
        <ele>494.0</ele>
        <time>2018-05-29T09:58:16.060Z</time>
      </trkpt>
      <trkpt lat="37.42121667" lon="-4.45896667">
        <ele>494.0</ele>
        <time>2018-05-29T09:58:17.092Z</time>
      </trkpt>
      <trkpt lat="37.42121667" lon="-4.45896667">
        <ele>494.0</ele>
        <time>2018-05-29T09:58:18.086Z</time>
      </trkpt>
      <trkpt lat="37.42127167" lon="-4.45890167">
        <ele>494.0</ele>
        <time>2018-05-29T09:58:19.079Z</time>
      </trkpt>
      <trkpt lat="37.42127167" lon="-4.45890167">
        <ele>494.0</ele>
        <time>2018-05-29T09:58:20.091Z</time>
      </trkpt>
      <trkpt lat="37.42132167" lon="-4.458835">
        <ele>494.0</ele>
        <time>2018-05-29T09:58:21.081Z</time>
      </trkpt>
      <trkpt lat="37.42132167" lon="-4.458835">
        <ele>494.0</ele>
        <time>2018-05-29T09:58:22.086Z</time>
      </trkpt>
      <trkpt lat="37.42137" lon="-4.45876833">
        <ele>494.0</ele>
        <time>2018-05-29T09:58:23.094Z</time>
      </trkpt>
      <trkpt lat="37.42137" lon="-4.45876833">
        <ele>494.0</ele>
        <time>2018-05-29T09:58:24.060Z</time>
      </trkpt>
      <trkpt lat="37.42141667" lon="-4.45870333">
        <ele>494.0</ele>
        <time>2018-05-29T09:58:25.069Z</time>
      </trkpt>
      <trkpt lat="37.42141667" lon="-4.45870333">
        <ele>494.0</ele>
        <time>2018-05-29T09:58:26.086Z</time>
      </trkpt>
      <trkpt lat="37.421465" lon="-4.45864833">
        <ele>494.0</ele>
        <time>2018-05-29T09:58:27.094Z</time>
      </trkpt>
      <trkpt lat="37.421465" lon="-4.45864833">
        <ele>494.0</ele>
        <time>2018-05-29T09:58:28.065Z</time>
      </trkpt>
      <trkpt lat="37.42151333" lon="-4.45859167">
        <ele>494.0</ele>
        <time>2018-05-29T09:58:29.079Z</time>
      </trkpt>
      <trkpt lat="37.42151333" lon="-4.45859167">
        <ele>494.0</ele>
        <time>2018-05-29T09:58:30.088Z</time>
      </trkpt>
      <trkpt lat="37.42155667" lon="-4.45853333">
        <ele>494.0</ele>
        <time>2018-05-29T09:58:31.076Z</time>
      </trkpt>
      <trkpt lat="37.42155667" lon="-4.45853333">
        <ele>494.0</ele>
        <time>2018-05-29T09:58:32.061Z</time>
      </trkpt>
      <trkpt lat="37.42158667" lon="-4.45847667">
        <ele>495.0</ele>
        <time>2018-05-29T09:58:33.057Z</time>
      </trkpt>
      <trkpt lat="37.42158833" lon="-4.45844333">
        <ele>495.0</ele>
        <time>2018-05-29T09:58:34.069Z</time>
      </trkpt>
      <trkpt lat="37.42158833" lon="-4.45844333">
        <ele>495.0</ele>
        <time>2018-05-29T09:58:35.080Z</time>
      </trkpt>
      <trkpt lat="37.42156333" lon="-4.45837">
        <ele>495.0</ele>
        <time>2018-05-29T09:58:36.085Z</time>
      </trkpt>
      <trkpt lat="37.421545" lon="-4.45833">
        <ele>495.0</ele>
        <time>2018-05-29T09:58:37.077Z</time>
      </trkpt>
      <trkpt lat="37.421545" lon="-4.45833">
        <ele>495.0</ele>
        <time>2018-05-29T09:58:38.091Z</time>
      </trkpt>
      <trkpt lat="37.421515" lon="-4.45823667">
        <ele>494.0</ele>
        <time>2018-05-29T09:58:39.073Z</time>
      </trkpt>
      <trkpt lat="37.42151167" lon="-4.45818833">
        <ele>493.0</ele>
        <time>2018-05-29T09:58:40.060Z</time>
      </trkpt>
      <trkpt lat="37.42151167" lon="-4.45818833">
        <ele>493.0</ele>
        <time>2018-05-29T09:58:41.065Z</time>
      </trkpt>
      <trkpt lat="37.421535" lon="-4.458105">
        <ele>493.0</ele>
        <time>2018-05-29T09:58:42.089Z</time>
      </trkpt>
      <trkpt lat="37.42155833" lon="-4.45806667">
        <ele>493.0</ele>
        <time>2018-05-29T09:58:43.062Z</time>
      </trkpt>
      <trkpt lat="37.42155833" lon="-4.45806667">
        <ele>493.0</ele>
        <time>2018-05-29T09:58:44.085Z</time>
      </trkpt>
      <trkpt lat="37.42160667" lon="-4.45799333">
        <ele>493.0</ele>
        <time>2018-05-29T09:58:45.087Z</time>
      </trkpt>
      <trkpt lat="37.42163" lon="-4.45795833">
        <ele>493.0</ele>
        <time>2018-05-29T09:58:46.061Z</time>
      </trkpt>
      <trkpt lat="37.42163" lon="-4.45795833">
        <ele>493.0</ele>
        <time>2018-05-29T09:58:47.085Z</time>
      </trkpt>
      <trkpt lat="37.42167667" lon="-4.45788833">
        <ele>493.0</ele>
        <time>2018-05-29T09:58:48.071Z</time>
      </trkpt>
      <trkpt lat="37.42169833" lon="-4.45785333">
        <ele>493.0</ele>
        <time>2018-05-29T09:58:49.093Z</time>
      </trkpt>
      <trkpt lat="37.42169833" lon="-4.45785333">
        <ele>493.0</ele>
        <time>2018-05-29T09:58:50.066Z</time>
      </trkpt>
      <trkpt lat="37.42174667" lon="-4.45778667">
        <ele>493.0</ele>
        <time>2018-05-29T09:58:51.093Z</time>
      </trkpt>
      <trkpt lat="37.42177167" lon="-4.45775833">
        <ele>493.0</ele>
        <time>2018-05-29T09:58:52.089Z</time>
      </trkpt>
      <trkpt lat="37.42177167" lon="-4.45775833">
        <ele>493.0</ele>
        <time>2018-05-29T09:58:53.057Z</time>
      </trkpt>
      <trkpt lat="37.42182667" lon="-4.45771167">
        <ele>493.0</ele>
        <time>2018-05-29T09:58:54.069Z</time>
      </trkpt>
      <trkpt lat="37.42186" lon="-4.45769667">
        <ele>493.0</ele>
        <time>2018-05-29T09:58:55.059Z</time>
      </trkpt>
      <trkpt lat="37.42186" lon="-4.45769667">
        <ele>493.0</ele>
        <time>2018-05-29T09:58:56.067Z</time>
      </trkpt>
      <trkpt lat="37.42193" lon="-4.45767833">
        <ele>494.0</ele>
        <time>2018-05-29T09:58:57.099Z</time>
      </trkpt>
      <trkpt lat="37.42193" lon="-4.45767833">
        <ele>494.0</ele>
        <time>2018-05-29T09:58:58.076Z</time>
      </trkpt>
      <trkpt lat="37.42199667" lon="-4.45767833">
        <ele>494.0</ele>
        <time>2018-05-29T09:58:59.093Z</time>
      </trkpt>
      <trkpt lat="37.42199667" lon="-4.45767833">
        <ele>494.0</ele>
        <time>2018-05-29T09:59:00.064Z</time>
      </trkpt>
      <trkpt lat="37.42206333" lon="-4.45769333">
        <ele>495.0</ele>
        <time>2018-05-29T09:59:01.087Z</time>
      </trkpt>
      <trkpt lat="37.42206333" lon="-4.45769333">
        <ele>495.0</ele>
        <time>2018-05-29T09:59:02.083Z</time>
      </trkpt>
      <trkpt lat="37.42212" lon="-4.45771833">
        <ele>496.0</ele>
        <time>2018-05-29T09:59:03.081Z</time>
      </trkpt>
      <trkpt lat="37.42212" lon="-4.45771833">
        <ele>496.0</ele>
        <time>2018-05-29T09:59:04.061Z</time>
      </trkpt>
      <trkpt lat="37.42217" lon="-4.45773833">
        <ele>496.0</ele>
        <time>2018-05-29T09:59:05.075Z</time>
      </trkpt>
      <trkpt lat="37.422195" lon="-4.45773167">
        <ele>496.0</ele>
        <time>2018-05-29T09:59:06.072Z</time>
      </trkpt>
      <trkpt lat="37.422195" lon="-4.45773167">
        <ele>496.0</ele>
        <time>2018-05-29T09:59:07.058Z</time>
      </trkpt>
      <trkpt lat="37.42224333" lon="-4.457685">
        <ele>497.0</ele>
        <time>2018-05-29T09:59:08.083Z</time>
      </trkpt>
      <trkpt lat="37.42224333" lon="-4.457685">
        <ele>497.0</ele>
        <time>2018-05-29T09:59:09.088Z</time>
      </trkpt>
      <trkpt lat="37.42229" lon="-4.45761833">
        <ele>497.0</ele>
        <time>2018-05-29T09:59:10.072Z</time>
      </trkpt>
      <trkpt lat="37.42231333" lon="-4.45758667">
        <ele>497.0</ele>
        <time>2018-05-29T09:59:11.075Z</time>
      </trkpt>
      <trkpt lat="37.42231333" lon="-4.45758667">
        <ele>497.0</ele>
        <time>2018-05-29T09:59:12.081Z</time>
      </trkpt>
      <trkpt lat="37.422365" lon="-4.45752667">
        <ele>497.0</ele>
        <time>2018-05-29T09:59:13.072Z</time>
      </trkpt>
      <trkpt lat="37.422365" lon="-4.45752667">
        <ele>497.0</ele>
        <time>2018-05-29T09:59:14.095Z</time>
      </trkpt>
      <trkpt lat="37.42241333" lon="-4.45746167">
        <ele>497.0</ele>
        <time>2018-05-29T09:59:15.073Z</time>
      </trkpt>
      <trkpt lat="37.42243833" lon="-4.45743">
        <ele>497.0</ele>
        <time>2018-05-29T09:59:16.068Z</time>
      </trkpt>
      <trkpt lat="37.42243833" lon="-4.45743">
        <ele>497.0</ele>
        <time>2018-05-29T09:59:17.095Z</time>
      </trkpt>
      <trkpt lat="37.42248833" lon="-4.457365">
        <ele>497.0</ele>
        <time>2018-05-29T09:59:18.079Z</time>
      </trkpt>
      <trkpt lat="37.42251333" lon="-4.45733167">
        <ele>497.0</ele>
        <time>2018-05-29T09:59:19.067Z</time>
      </trkpt>
      <trkpt lat="37.42251333" lon="-4.45733167">
        <ele>497.0</ele>
        <time>2018-05-29T09:59:20.089Z</time>
      </trkpt>
      <trkpt lat="37.42256333" lon="-4.45726667">
        <ele>497.0</ele>
        <time>2018-05-29T09:59:21.059Z</time>
      </trkpt>
      <trkpt lat="37.42256333" lon="-4.45726667">
        <ele>497.0</ele>
        <time>2018-05-29T09:59:22.065Z</time>
      </trkpt>
      <trkpt lat="37.42261333" lon="-4.45720333">
        <ele>497.0</ele>
        <time>2018-05-29T09:59:23.066Z</time>
      </trkpt>
      <trkpt lat="37.42264" lon="-4.45717">
        <ele>497.0</ele>
        <time>2018-05-29T09:59:24.074Z</time>
      </trkpt>
      <trkpt lat="37.42264" lon="-4.45717">
        <ele>497.0</ele>
        <time>2018-05-29T09:59:25.081Z</time>
      </trkpt>
      <trkpt lat="37.42269167" lon="-4.457105">
        <ele>497.0</ele>
        <time>2018-05-29T09:59:26.093Z</time>
      </trkpt>
      <trkpt lat="37.42269167" lon="-4.457105">
        <ele>497.0</ele>
        <time>2018-05-29T09:59:27.070Z</time>
      </trkpt>
      <trkpt lat="37.42274" lon="-4.457035">
        <ele>497.0</ele>
        <time>2018-05-29T09:59:28.061Z</time>
      </trkpt>
      <trkpt lat="37.42276333" lon="-4.457">
        <ele>497.0</ele>
        <time>2018-05-29T09:59:29.085Z</time>
      </trkpt>
      <trkpt lat="37.42276333" lon="-4.457">
        <ele>497.0</ele>
        <time>2018-05-29T09:59:30.068Z</time>
      </trkpt>
      <trkpt lat="37.42281167" lon="-4.45693167">
        <ele>497.0</ele>
        <time>2018-05-29T09:59:31.099Z</time>
      </trkpt>
      <trkpt lat="37.42281167" lon="-4.45693167">
        <ele>497.0</ele>
        <time>2018-05-29T09:59:32.058Z</time>
      </trkpt>
      <trkpt lat="37.42285667" lon="-4.45686">
        <ele>497.0</ele>
        <time>2018-05-29T09:59:33.069Z</time>
      </trkpt>
      <trkpt lat="37.42288" lon="-4.45682667">
        <ele>497.0</ele>
        <time>2018-05-29T09:59:34.059Z</time>
      </trkpt>
      <trkpt lat="37.42288" lon="-4.45682667">
        <ele>497.0</ele>
        <time>2018-05-29T09:59:35.076Z</time>
      </trkpt>
      <trkpt lat="37.422925" lon="-4.456755">
        <ele>497.0</ele>
        <time>2018-05-29T09:59:36.089Z</time>
      </trkpt>
      <trkpt lat="37.42294667" lon="-4.45671833">
        <ele>497.0</ele>
        <time>2018-05-29T09:59:37.090Z</time>
      </trkpt>
      <trkpt lat="37.42294667" lon="-4.45671833">
        <ele>497.0</ele>
        <time>2018-05-29T09:59:38.067Z</time>
      </trkpt>
      <trkpt lat="37.42299" lon="-4.45664833">
        <ele>497.0</ele>
        <time>2018-05-29T09:59:39.088Z</time>
      </trkpt>
      <trkpt lat="37.42299" lon="-4.45664833">
        <ele>497.0</ele>
        <time>2018-05-29T09:59:40.094Z</time>
      </trkpt>
      <trkpt lat="37.42303167" lon="-4.45657333">
        <ele>497.0</ele>
        <time>2018-05-29T09:59:41.059Z</time>
      </trkpt>
      <trkpt lat="37.42303167" lon="-4.45657333">
        <ele>497.0</ele>
        <time>2018-05-29T09:59:42.082Z</time>
      </trkpt>
      <trkpt lat="37.42307" lon="-4.45649667">
        <ele>497.0</ele>
        <time>2018-05-29T09:59:43.060Z</time>
      </trkpt>
      <trkpt lat="37.42309" lon="-4.45645667">
        <ele>497.0</ele>
        <time>2018-05-29T09:59:44.059Z</time>
      </trkpt>
      <trkpt lat="37.42309" lon="-4.45645667">
        <ele>497.0</ele>
        <time>2018-05-29T09:59:45.072Z</time>
      </trkpt>
      <trkpt lat="37.42313333" lon="-4.45637833">
        <ele>497.0</ele>
        <time>2018-05-29T09:59:46.079Z</time>
      </trkpt>
      <trkpt lat="37.42315167" lon="-4.45633833">
        <ele>497.0</ele>
        <time>2018-05-29T09:59:47.079Z</time>
      </trkpt>
      <trkpt lat="37.42315167" lon="-4.45633833">
        <ele>497.0</ele>
        <time>2018-05-29T09:59:48.088Z</time>
      </trkpt>
      <trkpt lat="37.42319333" lon="-4.45625833">
        <ele>497.0</ele>
        <time>2018-05-29T09:59:49.072Z</time>
      </trkpt>
      <trkpt lat="37.42321333" lon="-4.45622">
        <ele>497.0</ele>
        <time>2018-05-29T09:59:50.089Z</time>
      </trkpt>
      <trkpt lat="37.42321333" lon="-4.45622">
        <ele>497.0</ele>
        <time>2018-05-29T09:59:51.078Z</time>
      </trkpt>
      <trkpt lat="37.42325167" lon="-4.45613833">
        <ele>497.0</ele>
        <time>2018-05-29T09:59:52.094Z</time>
      </trkpt>
      <trkpt lat="37.42325167" lon="-4.45613833">
        <ele>497.0</ele>
        <time>2018-05-29T09:59:53.081Z</time>
      </trkpt>
      <trkpt lat="37.423285" lon="-4.45605333">
        <ele>497.0</ele>
        <time>2018-05-29T09:59:54.075Z</time>
      </trkpt>
      <trkpt lat="37.42330167" lon="-4.45600833">
        <ele>497.0</ele>
        <time>2018-05-29T09:59:55.073Z</time>
      </trkpt>
      <trkpt lat="37.42330167" lon="-4.45600833">
        <ele>497.0</ele>
        <time>2018-05-29T09:59:56.087Z</time>
      </trkpt>
      <trkpt lat="37.42333333" lon="-4.45591667">
        <ele>497.0</ele>
        <time>2018-05-29T09:59:57.058Z</time>
      </trkpt>
      <trkpt lat="37.42333333" lon="-4.45591667">
        <ele>497.0</ele>
        <time>2018-05-29T09:59:58.078Z</time>
      </trkpt>
      <trkpt lat="37.42336667" lon="-4.455825">
        <ele>497.0</ele>
        <time>2018-05-29T09:59:59.065Z</time>
      </trkpt>
      <trkpt lat="37.42336667" lon="-4.455825">
        <ele>497.0</ele>
        <time>2018-05-29T10:00:00.060Z</time>
      </trkpt>
      <trkpt lat="37.42340167" lon="-4.45573667">
        <ele>497.0</ele>
        <time>2018-05-29T10:00:01.079Z</time>
      </trkpt>
      <trkpt lat="37.42340167" lon="-4.45573667">
        <ele>497.0</ele>
        <time>2018-05-29T10:00:02.083Z</time>
      </trkpt>
      <trkpt lat="37.42343" lon="-4.455645">
        <ele>497.0</ele>
        <time>2018-05-29T10:00:03.071Z</time>
      </trkpt>
      <trkpt lat="37.42343" lon="-4.455645">
        <ele>497.0</ele>
        <time>2018-05-29T10:00:04.093Z</time>
      </trkpt>
      <trkpt lat="37.42346" lon="-4.45555333">
        <ele>497.0</ele>
        <time>2018-05-29T10:00:05.069Z</time>
      </trkpt>
      <trkpt lat="37.42346" lon="-4.45555333">
        <ele>497.0</ele>
        <time>2018-05-29T10:00:06.086Z</time>
      </trkpt>
      <trkpt lat="37.42348833" lon="-4.45546">
        <ele>498.0</ele>
        <time>2018-05-29T10:00:07.086Z</time>
      </trkpt>
      <trkpt lat="37.42348833" lon="-4.45546">
        <ele>498.0</ele>
        <time>2018-05-29T10:00:08.078Z</time>
      </trkpt>
      <trkpt lat="37.42352" lon="-4.455365">
        <ele>498.0</ele>
        <time>2018-05-29T10:00:09.088Z</time>
      </trkpt>
      <trkpt lat="37.42352" lon="-4.455365">
        <ele>498.0</ele>
        <time>2018-05-29T10:00:10.056Z</time>
      </trkpt>
      <trkpt lat="37.42354667" lon="-4.455265">
        <ele>498.0</ele>
        <time>2018-05-29T10:00:11.078Z</time>
      </trkpt>
      <trkpt lat="37.42355833" lon="-4.45521333">
        <ele>498.0</ele>
        <time>2018-05-29T10:00:12.064Z</time>
      </trkpt>
      <trkpt lat="37.42355833" lon="-4.45521333">
        <ele>498.0</ele>
        <time>2018-05-29T10:00:13.084Z</time>
      </trkpt>
      <trkpt lat="37.423575" lon="-4.45510667">
        <ele>498.0</ele>
        <time>2018-05-29T10:00:14.096Z</time>
      </trkpt>
      <trkpt lat="37.423585" lon="-4.45505333">
        <ele>498.0</ele>
        <time>2018-05-29T10:00:15.093Z</time>
      </trkpt>
      <trkpt lat="37.423585" lon="-4.45505333">
        <ele>498.0</ele>
        <time>2018-05-29T10:00:16.087Z</time>
      </trkpt>
      <trkpt lat="37.423605" lon="-4.45494667">
        <ele>499.0</ele>
        <time>2018-05-29T10:00:17.058Z</time>
      </trkpt>
      <trkpt lat="37.423605" lon="-4.45494667">
        <ele>499.0</ele>
        <time>2018-05-29T10:00:18.064Z</time>
      </trkpt>
      <trkpt lat="37.423625" lon="-4.45483833">
        <ele>499.0</ele>
        <time>2018-05-29T10:00:19.080Z</time>
      </trkpt>
      <trkpt lat="37.423625" lon="-4.45483833">
        <ele>499.0</ele>
        <time>2018-05-29T10:00:20.074Z</time>
      </trkpt>
      <trkpt lat="37.42364167" lon="-4.45473">
        <ele>499.0</ele>
        <time>2018-05-29T10:00:21.090Z</time>
      </trkpt>
      <trkpt lat="37.42365" lon="-4.454675">
        <ele>499.0</ele>
        <time>2018-05-29T10:00:22.069Z</time>
      </trkpt>
      <trkpt lat="37.423655" lon="-4.45462">
        <ele>499.0</ele>
        <time>2018-05-29T10:00:23.075Z</time>
      </trkpt>
      <trkpt lat="37.423655" lon="-4.45462">
        <ele>499.0</ele>
        <time>2018-05-29T10:00:24.088Z</time>
      </trkpt>
      <trkpt lat="37.42366167" lon="-4.45451">
        <ele>499.0</ele>
        <time>2018-05-29T10:00:25.059Z</time>
      </trkpt>
      <trkpt lat="37.423665" lon="-4.45445333">
        <ele>499.0</ele>
        <time>2018-05-29T10:00:26.079Z</time>
      </trkpt>
      <trkpt lat="37.423665" lon="-4.45445333">
        <ele>499.0</ele>
        <time>2018-05-29T10:00:27.088Z</time>
      </trkpt>
      <trkpt lat="37.42367333" lon="-4.45434">
        <ele>499.0</ele>
        <time>2018-05-29T10:00:28.058Z</time>
      </trkpt>
      <trkpt lat="37.42367667" lon="-4.45428333">
        <ele>499.0</ele>
        <time>2018-05-29T10:00:29.070Z</time>
      </trkpt>
      <trkpt lat="37.42367667" lon="-4.45428333">
        <ele>499.0</ele>
        <time>2018-05-29T10:00:30.080Z</time>
      </trkpt>
      <trkpt lat="37.42368167" lon="-4.45417">
        <ele>499.0</ele>
        <time>2018-05-29T10:00:31.092Z</time>
      </trkpt>
      <trkpt lat="37.42368167" lon="-4.45417">
        <ele>499.0</ele>
        <time>2018-05-29T10:00:32.060Z</time>
      </trkpt>
      <trkpt lat="37.42368333" lon="-4.45405833">
        <ele>500.0</ele>
        <time>2018-05-29T10:00:33.098Z</time>
      </trkpt>
      <trkpt lat="37.42368333" lon="-4.45405833">
        <ele>500.0</ele>
        <time>2018-05-29T10:00:34.069Z</time>
      </trkpt>
      <trkpt lat="37.42368167" lon="-4.45394667">
        <ele>500.0</ele>
        <time>2018-05-29T10:00:35.081Z</time>
      </trkpt>
      <trkpt lat="37.42368167" lon="-4.45394667">
        <ele>500.0</ele>
        <time>2018-05-29T10:00:36.087Z</time>
      </trkpt>
      <trkpt lat="37.42368167" lon="-4.45383833">
        <ele>500.0</ele>
        <time>2018-05-29T10:00:37.068Z</time>
      </trkpt>
      <trkpt lat="37.42368167" lon="-4.45383833">
        <ele>500.0</ele>
        <time>2018-05-29T10:00:38.085Z</time>
      </trkpt>
      <trkpt lat="37.42367833" lon="-4.45373">
        <ele>499.0</ele>
        <time>2018-05-29T10:00:39.089Z</time>
      </trkpt>
      <trkpt lat="37.42367833" lon="-4.45373">
        <ele>499.0</ele>
        <time>2018-05-29T10:00:40.067Z</time>
      </trkpt>
      <trkpt lat="37.42367167" lon="-4.45362167">
        <ele>500.0</ele>
        <time>2018-05-29T10:00:41.084Z</time>
      </trkpt>
      <trkpt lat="37.42366667" lon="-4.45356667">
        <ele>500.0</ele>
        <time>2018-05-29T10:00:42.064Z</time>
      </trkpt>
      <trkpt lat="37.42366667" lon="-4.45356667">
        <ele>500.0</ele>
        <time>2018-05-29T10:00:43.086Z</time>
      </trkpt>
      <trkpt lat="37.42365833" lon="-4.453455">
        <ele>499.0</ele>
        <time>2018-05-29T10:00:44.057Z</time>
      </trkpt>
      <trkpt lat="37.42365833" lon="-4.453455">
        <ele>499.0</ele>
        <time>2018-05-29T10:00:45.064Z</time>
      </trkpt>
      <trkpt lat="37.42364333" lon="-4.453345">
        <ele>498.0</ele>
        <time>2018-05-29T10:00:46.094Z</time>
      </trkpt>
      <trkpt lat="37.42364333" lon="-4.453345">
        <ele>498.0</ele>
        <time>2018-05-29T10:00:47.059Z</time>
      </trkpt>
      <trkpt lat="37.42362833" lon="-4.45323333">
        <ele>498.0</ele>
        <time>2018-05-29T10:00:48.070Z</time>
      </trkpt>
      <trkpt lat="37.42362" lon="-4.45317667">
        <ele>499.0</ele>
        <time>2018-05-29T10:00:49.068Z</time>
      </trkpt>
      <trkpt lat="37.42362" lon="-4.45317667">
        <ele>499.0</ele>
        <time>2018-05-29T10:00:50.079Z</time>
      </trkpt>
      <trkpt lat="37.4236" lon="-4.45306667">
        <ele>499.0</ele>
        <time>2018-05-29T10:00:51.093Z</time>
      </trkpt>
      <trkpt lat="37.42359167" lon="-4.45300833">
        <ele>499.0</ele>
        <time>2018-05-29T10:00:52.090Z</time>
      </trkpt>
      <trkpt lat="37.42359167" lon="-4.45300833">
        <ele>499.0</ele>
        <time>2018-05-29T10:00:53.084Z</time>
      </trkpt>
      <trkpt lat="37.42357" lon="-4.45289333">
        <ele>498.0</ele>
        <time>2018-05-29T10:00:54.070Z</time>
      </trkpt>
      <trkpt lat="37.42355833" lon="-4.452835">
        <ele>498.0</ele>
        <time>2018-05-29T10:00:55.090Z</time>
      </trkpt>
      <trkpt lat="37.42355833" lon="-4.452835">
        <ele>498.0</ele>
        <time>2018-05-29T10:00:56.060Z</time>
      </trkpt>
      <trkpt lat="37.42353333" lon="-4.45271833">
        <ele>499.0</ele>
        <time>2018-05-29T10:00:57.083Z</time>
      </trkpt>
      <trkpt lat="37.42353333" lon="-4.45271833">
        <ele>499.0</ele>
        <time>2018-05-29T10:00:58.085Z</time>
      </trkpt>
      <trkpt lat="37.42351" lon="-4.4526">
        <ele>501.0</ele>
        <time>2018-05-29T10:00:59.068Z</time>
      </trkpt>
      <trkpt lat="37.42351" lon="-4.4526">
        <ele>501.0</ele>
        <time>2018-05-29T10:01:00.089Z</time>
      </trkpt>
      <trkpt lat="37.423485" lon="-4.45249">
        <ele>502.0</ele>
        <time>2018-05-29T10:01:01.062Z</time>
      </trkpt>
      <trkpt lat="37.423485" lon="-4.45249">
        <ele>502.0</ele>
        <time>2018-05-29T10:01:02.056Z</time>
      </trkpt>
      <trkpt lat="37.42345833" lon="-4.45238167">
        <ele>501.0</ele>
        <time>2018-05-29T10:01:03.066Z</time>
      </trkpt>
      <trkpt lat="37.42345833" lon="-4.45238167">
        <ele>501.0</ele>
        <time>2018-05-29T10:01:04.095Z</time>
      </trkpt>
      <trkpt lat="37.423425" lon="-4.45227667">
        <ele>501.0</ele>
        <time>2018-05-29T10:01:05.066Z</time>
      </trkpt>
      <trkpt lat="37.423425" lon="-4.45227667">
        <ele>501.0</ele>
        <time>2018-05-29T10:01:06.077Z</time>
      </trkpt>
      <trkpt lat="37.423385" lon="-4.45217">
        <ele>501.0</ele>
        <time>2018-05-29T10:01:07.089Z</time>
      </trkpt>
      <trkpt lat="37.423365" lon="-4.452115">
        <ele>501.0</ele>
        <time>2018-05-29T10:01:08.075Z</time>
      </trkpt>
      <trkpt lat="37.423365" lon="-4.452115">
        <ele>501.0</ele>
        <time>2018-05-29T10:01:09.083Z</time>
      </trkpt>
      <trkpt lat="37.42332667" lon="-4.452005">
        <ele>501.0</ele>
        <time>2018-05-29T10:01:10.092Z</time>
      </trkpt>
      <trkpt lat="37.42330833" lon="-4.45195">
        <ele>501.0</ele>
        <time>2018-05-29T10:01:11.096Z</time>
      </trkpt>
      <trkpt lat="37.42330833" lon="-4.45195">
        <ele>501.0</ele>
        <time>2018-05-29T10:01:12.061Z</time>
      </trkpt>
      <trkpt lat="37.42326667" lon="-4.45184167">
        <ele>501.0</ele>
        <time>2018-05-29T10:01:13.093Z</time>
      </trkpt>
      <trkpt lat="37.42326667" lon="-4.45184167">
        <ele>501.0</ele>
        <time>2018-05-29T10:01:14.086Z</time>
      </trkpt>
      <trkpt lat="37.42322667" lon="-4.451735">
        <ele>501.0</ele>
        <time>2018-05-29T10:01:15.059Z</time>
      </trkpt>
      <trkpt lat="37.42320667" lon="-4.45168">
        <ele>501.0</ele>
        <time>2018-05-29T10:01:16.087Z</time>
      </trkpt>
      <trkpt lat="37.42320667" lon="-4.45168">
        <ele>501.0</ele>
        <time>2018-05-29T10:01:17.064Z</time>
      </trkpt>
      <trkpt lat="37.42316333" lon="-4.45157167">
        <ele>501.0</ele>
        <time>2018-05-29T10:01:18.088Z</time>
      </trkpt>
      <trkpt lat="37.42316333" lon="-4.45157167">
        <ele>501.0</ele>
        <time>2018-05-29T10:01:19.060Z</time>
      </trkpt>
      <trkpt lat="37.42312167" lon="-4.45145833">
        <ele>501.0</ele>
        <time>2018-05-29T10:01:20.069Z</time>
      </trkpt>
      <trkpt lat="37.42312167" lon="-4.45145833">
        <ele>501.0</ele>
        <time>2018-05-29T10:01:21.092Z</time>
      </trkpt>
      <trkpt lat="37.42308167" lon="-4.45134667">
        <ele>502.0</ele>
        <time>2018-05-29T10:01:22.062Z</time>
      </trkpt>
      <trkpt lat="37.42308167" lon="-4.45134667">
        <ele>502.0</ele>
        <time>2018-05-29T10:01:23.079Z</time>
      </trkpt>
      <trkpt lat="37.42304" lon="-4.45123333">
        <ele>502.0</ele>
        <time>2018-05-29T10:01:24.085Z</time>
      </trkpt>
      <trkpt lat="37.42304" lon="-4.45123333">
        <ele>502.0</ele>
        <time>2018-05-29T10:01:25.091Z</time>
      </trkpt>
      <trkpt lat="37.42299667" lon="-4.45112167">
        <ele>502.0</ele>
        <time>2018-05-29T10:01:26.079Z</time>
      </trkpt>
      <trkpt lat="37.42299667" lon="-4.45112167">
        <ele>502.0</ele>
        <time>2018-05-29T10:01:27.059Z</time>
      </trkpt>
      <trkpt lat="37.42295833" lon="-4.45101333">
        <ele>502.0</ele>
        <time>2018-05-29T10:01:28.076Z</time>
      </trkpt>
      <trkpt lat="37.42295833" lon="-4.45101333">
        <ele>502.0</ele>
        <time>2018-05-29T10:01:29.087Z</time>
      </trkpt>
      <trkpt lat="37.42291833" lon="-4.450905">
        <ele>502.0</ele>
        <time>2018-05-29T10:01:30.091Z</time>
      </trkpt>
      <trkpt lat="37.42291833" lon="-4.450905">
        <ele>502.0</ele>
        <time>2018-05-29T10:01:31.094Z</time>
      </trkpt>
      <trkpt lat="37.42288" lon="-4.45079833">
        <ele>502.0</ele>
        <time>2018-05-29T10:01:32.064Z</time>
      </trkpt>
      <trkpt lat="37.42286" lon="-4.450745">
        <ele>502.0</ele>
        <time>2018-05-29T10:01:33.089Z</time>
      </trkpt>
      <trkpt lat="37.42286" lon="-4.450745">
        <ele>502.0</ele>
        <time>2018-05-29T10:01:34.095Z</time>
      </trkpt>
      <trkpt lat="37.42281833" lon="-4.45063833">
        <ele>502.0</ele>
        <time>2018-05-29T10:01:35.075Z</time>
      </trkpt>
      <trkpt lat="37.42281833" lon="-4.45063833">
        <ele>502.0</ele>
        <time>2018-05-29T10:01:36.086Z</time>
      </trkpt>
      <trkpt lat="37.42277833" lon="-4.45053167">
        <ele>502.0</ele>
        <time>2018-05-29T10:01:37.057Z</time>
      </trkpt>
      <trkpt lat="37.42277833" lon="-4.45053167">
        <ele>502.0</ele>
        <time>2018-05-29T10:01:38.063Z</time>
      </trkpt>
      <trkpt lat="37.42274333" lon="-4.45042333">
        <ele>502.0</ele>
        <time>2018-05-29T10:01:39.074Z</time>
      </trkpt>
      <trkpt lat="37.42274333" lon="-4.45042333">
        <ele>502.0</ele>
        <time>2018-05-29T10:01:40.085Z</time>
      </trkpt>
      <trkpt lat="37.42270833" lon="-4.450315">
        <ele>502.0</ele>
        <time>2018-05-29T10:01:41.095Z</time>
      </trkpt>
      <trkpt lat="37.42270833" lon="-4.450315">
        <ele>502.0</ele>
        <time>2018-05-29T10:01:42.061Z</time>
      </trkpt>
      <trkpt lat="37.42267333" lon="-4.45020833">
        <ele>502.0</ele>
        <time>2018-05-29T10:01:43.078Z</time>
      </trkpt>
      <trkpt lat="37.42267333" lon="-4.45020833">
        <ele>502.0</ele>
        <time>2018-05-29T10:01:44.085Z</time>
      </trkpt>
      <trkpt lat="37.42264" lon="-4.45010167">
        <ele>502.0</ele>
        <time>2018-05-29T10:01:45.079Z</time>
      </trkpt>
      <trkpt lat="37.42264" lon="-4.45010167">
        <ele>502.0</ele>
        <time>2018-05-29T10:01:46.085Z</time>
      </trkpt>
      <trkpt lat="37.42261" lon="-4.44999667">
        <ele>503.0</ele>
        <time>2018-05-29T10:01:47.058Z</time>
      </trkpt>
      <trkpt lat="37.42259667" lon="-4.44994167">
        <ele>503.0</ele>
        <time>2018-05-29T10:01:48.060Z</time>
      </trkpt>
      <trkpt lat="37.42258333" lon="-4.44988833">
        <ele>503.0</ele>
        <time>2018-05-29T10:01:49.090Z</time>
      </trkpt>
      <trkpt lat="37.42258333" lon="-4.44988833">
        <ele>503.0</ele>
        <time>2018-05-29T10:01:50.061Z</time>
      </trkpt>
      <trkpt lat="37.42255333" lon="-4.44978333">
        <ele>503.0</ele>
        <time>2018-05-29T10:01:51.078Z</time>
      </trkpt>
      <trkpt lat="37.42253667" lon="-4.44973333">
        <ele>503.0</ele>
        <time>2018-05-29T10:01:52.092Z</time>
      </trkpt>
      <trkpt lat="37.42253667" lon="-4.44973333">
        <ele>503.0</ele>
        <time>2018-05-29T10:01:53.083Z</time>
      </trkpt>
      <trkpt lat="37.42251" lon="-4.44962833">
        <ele>503.0</ele>
        <time>2018-05-29T10:01:54.092Z</time>
      </trkpt>
      <trkpt lat="37.42251" lon="-4.44962833">
        <ele>503.0</ele>
        <time>2018-05-29T10:01:55.058Z</time>
      </trkpt>
      <trkpt lat="37.42248833" lon="-4.44952167">
        <ele>503.0</ele>
        <time>2018-05-29T10:01:56.086Z</time>
      </trkpt>
      <trkpt lat="37.42248833" lon="-4.44952167">
        <ele>503.0</ele>
        <time>2018-05-29T10:01:57.067Z</time>
      </trkpt>
      <trkpt lat="37.422465" lon="-4.449415">
        <ele>503.0</ele>
        <time>2018-05-29T10:01:58.081Z</time>
      </trkpt>
      <trkpt lat="37.422455" lon="-4.44936167">
        <ele>503.0</ele>
        <time>2018-05-29T10:01:59.079Z</time>
      </trkpt>
      <trkpt lat="37.422455" lon="-4.44936167">
        <ele>503.0</ele>
        <time>2018-05-29T10:02:00.075Z</time>
      </trkpt>
      <trkpt lat="37.42244333" lon="-4.44925">
        <ele>503.0</ele>
        <time>2018-05-29T10:02:01.057Z</time>
      </trkpt>
      <trkpt lat="37.42244333" lon="-4.44925">
        <ele>503.0</ele>
        <time>2018-05-29T10:02:02.064Z</time>
      </trkpt>
      <trkpt lat="37.42242833" lon="-4.44913667">
        <ele>503.0</ele>
        <time>2018-05-29T10:02:03.095Z</time>
      </trkpt>
      <trkpt lat="37.42242833" lon="-4.44913667">
        <ele>503.0</ele>
        <time>2018-05-29T10:02:04.060Z</time>
      </trkpt>
      <trkpt lat="37.42241" lon="-4.44902667">
        <ele>504.0</ele>
        <time>2018-05-29T10:02:05.076Z</time>
      </trkpt>
      <trkpt lat="37.42240333" lon="-4.44897167">
        <ele>504.0</ele>
        <time>2018-05-29T10:02:06.059Z</time>
      </trkpt>
      <trkpt lat="37.4224" lon="-4.44891667">
        <ele>504.0</ele>
        <time>2018-05-29T10:02:07.062Z</time>
      </trkpt>
      <trkpt lat="37.4224" lon="-4.44891667">
        <ele>504.0</ele>
        <time>2018-05-29T10:02:08.069Z</time>
      </trkpt>
      <trkpt lat="37.422395" lon="-4.448805">
        <ele>504.0</ele>
        <time>2018-05-29T10:02:09.080Z</time>
      </trkpt>
      <trkpt lat="37.42239167" lon="-4.44874833">
        <ele>504.0</ele>
        <time>2018-05-29T10:02:10.063Z</time>
      </trkpt>
      <trkpt lat="37.42239167" lon="-4.44874833">
        <ele>504.0</ele>
        <time>2018-05-29T10:02:11.071Z</time>
      </trkpt>
      <trkpt lat="37.42238333" lon="-4.44863333">
        <ele>504.0</ele>
        <time>2018-05-29T10:02:12.093Z</time>
      </trkpt>
      <trkpt lat="37.42238333" lon="-4.44857833">
        <ele>505.0</ele>
        <time>2018-05-29T10:02:13.075Z</time>
      </trkpt>
      <trkpt lat="37.42238333" lon="-4.44857833">
        <ele>505.0</ele>
        <time>2018-05-29T10:02:14.073Z</time>
      </trkpt>
      <trkpt lat="37.42238333" lon="-4.44846667">
        <ele>505.0</ele>
        <time>2018-05-29T10:02:15.087Z</time>
      </trkpt>
      <trkpt lat="37.42238333" lon="-4.44846667">
        <ele>505.0</ele>
        <time>2018-05-29T10:02:16.058Z</time>
      </trkpt>
      <trkpt lat="37.42238833" lon="-4.44835333">
        <ele>505.0</ele>
        <time>2018-05-29T10:02:17.072Z</time>
      </trkpt>
      <trkpt lat="37.42239" lon="-4.448295">
        <ele>505.0</ele>
        <time>2018-05-29T10:02:18.087Z</time>
      </trkpt>
      <trkpt lat="37.42239" lon="-4.448295">
        <ele>505.0</ele>
        <time>2018-05-29T10:02:19.094Z</time>
      </trkpt>
      <trkpt lat="37.42239333" lon="-4.44817833">
        <ele>506.0</ele>
        <time>2018-05-29T10:02:20.070Z</time>
      </trkpt>
      <trkpt lat="37.42239333" lon="-4.44817833">
        <ele>506.0</ele>
        <time>2018-05-29T10:02:21.082Z</time>
      </trkpt>
      <trkpt lat="37.4224" lon="-4.448065">
        <ele>506.0</ele>
        <time>2018-05-29T10:02:22.092Z</time>
      </trkpt>
      <trkpt lat="37.422405" lon="-4.44800667">
        <ele>506.0</ele>
        <time>2018-05-29T10:02:23.073Z</time>
      </trkpt>
      <trkpt lat="37.422405" lon="-4.44800667">
        <ele>506.0</ele>
        <time>2018-05-29T10:02:24.089Z</time>
      </trkpt>
      <trkpt lat="37.42241167" lon="-4.44789167">
        <ele>506.0</ele>
        <time>2018-05-29T10:02:25.060Z</time>
      </trkpt>
      <trkpt lat="37.42241167" lon="-4.44789167">
        <ele>506.0</ele>
        <time>2018-05-29T10:02:26.066Z</time>
      </trkpt>
      <trkpt lat="37.42242167" lon="-4.44777667">
        <ele>507.0</ele>
        <time>2018-05-29T10:02:27.063Z</time>
      </trkpt>
      <trkpt lat="37.42242167" lon="-4.44777667">
        <ele>507.0</ele>
        <time>2018-05-29T10:02:28.060Z</time>
      </trkpt>
      <trkpt lat="37.42243333" lon="-4.44766333">
        <ele>507.0</ele>
        <time>2018-05-29T10:02:29.069Z</time>
      </trkpt>
      <trkpt lat="37.42243333" lon="-4.44766333">
        <ele>507.0</ele>
        <time>2018-05-29T10:02:30.095Z</time>
      </trkpt>
      <trkpt lat="37.42244333" lon="-4.44755">
        <ele>507.0</ele>
        <time>2018-05-29T10:02:31.060Z</time>
      </trkpt>
      <trkpt lat="37.42244333" lon="-4.44755">
        <ele>507.0</ele>
        <time>2018-05-29T10:02:32.069Z</time>
      </trkpt>
      <trkpt lat="37.42245167" lon="-4.44743833">
        <ele>507.0</ele>
        <time>2018-05-29T10:02:33.089Z</time>
      </trkpt>
      <trkpt lat="37.422455" lon="-4.44738167">
        <ele>507.0</ele>
        <time>2018-05-29T10:02:34.073Z</time>
      </trkpt>
      <trkpt lat="37.422455" lon="-4.44738167">
        <ele>507.0</ele>
        <time>2018-05-29T10:02:35.058Z</time>
      </trkpt>
      <trkpt lat="37.42246333" lon="-4.44727333">
        <ele>507.0</ele>
        <time>2018-05-29T10:02:36.072Z</time>
      </trkpt>
      <trkpt lat="37.42246833" lon="-4.44722">
        <ele>507.0</ele>
        <time>2018-05-29T10:02:37.093Z</time>
      </trkpt>
      <trkpt lat="37.42246833" lon="-4.44722">
        <ele>507.0</ele>
        <time>2018-05-29T10:02:38.060Z</time>
      </trkpt>
      <trkpt lat="37.42247667" lon="-4.44711333">
        <ele>508.0</ele>
        <time>2018-05-29T10:02:39.070Z</time>
      </trkpt>
      <trkpt lat="37.42247667" lon="-4.44711333">
        <ele>508.0</ele>
        <time>2018-05-29T10:02:40.081Z</time>
      </trkpt>
      <trkpt lat="37.42248333" lon="-4.44700833">
        <ele>508.0</ele>
        <time>2018-05-29T10:02:41.066Z</time>
      </trkpt>
      <trkpt lat="37.42248333" lon="-4.44700833">
        <ele>508.0</ele>
        <time>2018-05-29T10:02:42.078Z</time>
      </trkpt>
      <trkpt lat="37.42249667" lon="-4.44689833">
        <ele>508.0</ele>
        <time>2018-05-29T10:02:43.071Z</time>
      </trkpt>
      <trkpt lat="37.42249667" lon="-4.44689833">
        <ele>508.0</ele>
        <time>2018-05-29T10:02:44.080Z</time>
      </trkpt>
      <trkpt lat="37.42251" lon="-4.44678667">
        <ele>508.0</ele>
        <time>2018-05-29T10:02:45.057Z</time>
      </trkpt>
      <trkpt lat="37.42251333" lon="-4.44673">
        <ele>508.0</ele>
        <time>2018-05-29T10:02:46.085Z</time>
      </trkpt>
      <trkpt lat="37.42251333" lon="-4.44673">
        <ele>508.0</ele>
        <time>2018-05-29T10:02:47.092Z</time>
      </trkpt>
      <trkpt lat="37.42252333" lon="-4.44662">
        <ele>508.0</ele>
        <time>2018-05-29T10:02:48.083Z</time>
      </trkpt>
      <trkpt lat="37.42252833" lon="-4.446565">
        <ele>509.0</ele>
        <time>2018-05-29T10:02:49.085Z</time>
      </trkpt>
      <trkpt lat="37.42252833" lon="-4.446565">
        <ele>509.0</ele>
        <time>2018-05-29T10:02:50.093Z</time>
      </trkpt>
      <trkpt lat="37.42253333" lon="-4.44645333">
        <ele>509.0</ele>
        <time>2018-05-29T10:02:51.074Z</time>
      </trkpt>
      <trkpt lat="37.42253833" lon="-4.44639833">
        <ele>509.0</ele>
        <time>2018-05-29T10:02:52.060Z</time>
      </trkpt>
      <trkpt lat="37.42254333" lon="-4.44634167">
        <ele>509.0</ele>
        <time>2018-05-29T10:02:53.062Z</time>
      </trkpt>
      <trkpt lat="37.42254333" lon="-4.44634167">
        <ele>509.0</ele>
        <time>2018-05-29T10:02:54.071Z</time>
      </trkpt>
      <trkpt lat="37.422555" lon="-4.44623167">
        <ele>509.0</ele>
        <time>2018-05-29T10:02:55.091Z</time>
      </trkpt>
      <trkpt lat="37.422555" lon="-4.44623167">
        <ele>509.0</ele>
        <time>2018-05-29T10:02:56.079Z</time>
      </trkpt>
      <trkpt lat="37.42256667" lon="-4.44612333">
        <ele>510.0</ele>
        <time>2018-05-29T10:02:57.093Z</time>
      </trkpt>
      <trkpt lat="37.42257333" lon="-4.44606833">
        <ele>510.0</ele>
        <time>2018-05-29T10:02:58.075Z</time>
      </trkpt>
      <trkpt lat="37.42257333" lon="-4.44606833">
        <ele>510.0</ele>
        <time>2018-05-29T10:02:59.081Z</time>
      </trkpt>
      <trkpt lat="37.42258833" lon="-4.44595833">
        <ele>510.0</ele>
        <time>2018-05-29T10:03:00.071Z</time>
      </trkpt>
      <trkpt lat="37.42259333" lon="-4.44590333">
        <ele>510.0</ele>
        <time>2018-05-29T10:03:01.069Z</time>
      </trkpt>
      <trkpt lat="37.42259667" lon="-4.44584833">
        <ele>510.0</ele>
        <time>2018-05-29T10:03:02.066Z</time>
      </trkpt>
      <trkpt lat="37.42259667" lon="-4.44584833">
        <ele>510.0</ele>
        <time>2018-05-29T10:03:03.088Z</time>
      </trkpt>
      <trkpt lat="37.422605" lon="-4.44574167">
        <ele>510.0</ele>
        <time>2018-05-29T10:03:04.064Z</time>
      </trkpt>
      <trkpt lat="37.422605" lon="-4.44574167">
        <ele>510.0</ele>
        <time>2018-05-29T10:03:05.080Z</time>
      </trkpt>
      <trkpt lat="37.422615" lon="-4.44563333">
        <ele>510.0</ele>
        <time>2018-05-29T10:03:06.079Z</time>
      </trkpt>
      <trkpt lat="37.422615" lon="-4.44563333">
        <ele>510.0</ele>
        <time>2018-05-29T10:03:07.066Z</time>
      </trkpt>
      <trkpt lat="37.42263" lon="-4.44552333">
        <ele>511.0</ele>
        <time>2018-05-29T10:03:08.085Z</time>
      </trkpt>
      <trkpt lat="37.42263" lon="-4.44552333">
        <ele>511.0</ele>
        <time>2018-05-29T10:03:09.077Z</time>
      </trkpt>
      <trkpt lat="37.42264833" lon="-4.44541167">
        <ele>511.0</ele>
        <time>2018-05-29T10:03:10.095Z</time>
      </trkpt>
      <trkpt lat="37.42264833" lon="-4.44541167">
        <ele>511.0</ele>
        <time>2018-05-29T10:03:11.068Z</time>
      </trkpt>
      <trkpt lat="37.42267167" lon="-4.44529667">
        <ele>511.0</ele>
        <time>2018-05-29T10:03:12.060Z</time>
      </trkpt>
      <trkpt lat="37.42267167" lon="-4.44529667">
        <ele>511.0</ele>
        <time>2018-05-29T10:03:13.079Z</time>
      </trkpt>
      <trkpt lat="37.42269333" lon="-4.44518167">
        <ele>511.0</ele>
        <time>2018-05-29T10:03:14.074Z</time>
      </trkpt>
      <trkpt lat="37.42269333" lon="-4.44518167">
        <ele>511.0</ele>
        <time>2018-05-29T10:03:15.085Z</time>
      </trkpt>
      <trkpt lat="37.42272" lon="-4.44506333">
        <ele>511.0</ele>
        <time>2018-05-29T10:03:16.063Z</time>
      </trkpt>
      <trkpt lat="37.42272" lon="-4.44506333">
        <ele>511.0</ele>
        <time>2018-05-29T10:03:17.077Z</time>
      </trkpt>
      <trkpt lat="37.42275" lon="-4.444945">
        <ele>511.0</ele>
        <time>2018-05-29T10:03:18.094Z</time>
      </trkpt>
      <trkpt lat="37.422765" lon="-4.44488667">
        <ele>511.0</ele>
        <time>2018-05-29T10:03:19.086Z</time>
      </trkpt>
      <trkpt lat="37.422765" lon="-4.44488667">
        <ele>511.0</ele>
        <time>2018-05-29T10:03:20.064Z</time>
      </trkpt>
      <trkpt lat="37.422795" lon="-4.44477167">
        <ele>511.0</ele>
        <time>2018-05-29T10:03:21.083Z</time>
      </trkpt>
      <trkpt lat="37.42281167" lon="-4.444715">
        <ele>511.0</ele>
        <time>2018-05-29T10:03:22.074Z</time>
      </trkpt>
      <trkpt lat="37.42281167" lon="-4.444715">
        <ele>511.0</ele>
        <time>2018-05-29T10:03:23.084Z</time>
      </trkpt>
      <trkpt lat="37.422845" lon="-4.44460167">
        <ele>511.0</ele>
        <time>2018-05-29T10:03:24.059Z</time>
      </trkpt>
      <trkpt lat="37.42286333" lon="-4.444545">
        <ele>511.0</ele>
        <time>2018-05-29T10:03:25.085Z</time>
      </trkpt>
      <trkpt lat="37.42286333" lon="-4.444545">
        <ele>511.0</ele>
        <time>2018-05-29T10:03:26.090Z</time>
      </trkpt>
      <trkpt lat="37.42290333" lon="-4.444435">
        <ele>511.0</ele>
        <time>2018-05-29T10:03:27.069Z</time>
      </trkpt>
      <trkpt lat="37.42290333" lon="-4.444435">
        <ele>511.0</ele>
        <time>2018-05-29T10:03:28.082Z</time>
      </trkpt>
      <trkpt lat="37.422945" lon="-4.444325">
        <ele>511.0</ele>
        <time>2018-05-29T10:03:29.090Z</time>
      </trkpt>
      <trkpt lat="37.422945" lon="-4.444325">
        <ele>511.0</ele>
        <time>2018-05-29T10:03:30.079Z</time>
      </trkpt>
      <trkpt lat="37.42298667" lon="-4.444215">
        <ele>511.0</ele>
        <time>2018-05-29T10:03:31.065Z</time>
      </trkpt>
      <trkpt lat="37.42298667" lon="-4.444215">
        <ele>511.0</ele>
        <time>2018-05-29T10:03:32.094Z</time>
      </trkpt>
      <trkpt lat="37.42303167" lon="-4.44410667">
        <ele>511.0</ele>
        <time>2018-05-29T10:03:33.073Z</time>
      </trkpt>
      <trkpt lat="37.42303167" lon="-4.44410667">
        <ele>511.0</ele>
        <time>2018-05-29T10:03:34.088Z</time>
      </trkpt>
      <trkpt lat="37.42308" lon="-4.44399833">
        <ele>512.0</ele>
        <time>2018-05-29T10:03:35.069Z</time>
      </trkpt>
      <trkpt lat="37.42308" lon="-4.44399833">
        <ele>512.0</ele>
        <time>2018-05-29T10:03:36.078Z</time>
      </trkpt>
      <trkpt lat="37.42312833" lon="-4.44389">
        <ele>512.0</ele>
        <time>2018-05-29T10:03:37.068Z</time>
      </trkpt>
      <trkpt lat="37.42312833" lon="-4.44389">
        <ele>512.0</ele>
        <time>2018-05-29T10:03:38.081Z</time>
      </trkpt>
      <trkpt lat="37.42318167" lon="-4.44378833">
        <ele>512.0</ele>
        <time>2018-05-29T10:03:39.057Z</time>
      </trkpt>
      <trkpt lat="37.42321" lon="-4.44373833">
        <ele>512.0</ele>
        <time>2018-05-29T10:03:40.075Z</time>
      </trkpt>
      <trkpt lat="37.42321" lon="-4.44373833">
        <ele>512.0</ele>
        <time>2018-05-29T10:03:41.083Z</time>
      </trkpt>
      <trkpt lat="37.423265" lon="-4.44363667">
        <ele>512.0</ele>
        <time>2018-05-29T10:03:42.087Z</time>
      </trkpt>
      <trkpt lat="37.423295" lon="-4.44358833">
        <ele>512.0</ele>
        <time>2018-05-29T10:03:43.084Z</time>
      </trkpt>
      <trkpt lat="37.423295" lon="-4.44358833">
        <ele>512.0</ele>
        <time>2018-05-29T10:03:44.094Z</time>
      </trkpt>
      <trkpt lat="37.42335667" lon="-4.44349167">
        <ele>512.0</ele>
        <time>2018-05-29T10:03:45.096Z</time>
      </trkpt>
      <trkpt lat="37.42335667" lon="-4.44349167">
        <ele>512.0</ele>
        <time>2018-05-29T10:03:46.092Z</time>
      </trkpt>
      <trkpt lat="37.42342333" lon="-4.443395">
        <ele>512.0</ele>
        <time>2018-05-29T10:03:47.071Z</time>
      </trkpt>
      <trkpt lat="37.42342333" lon="-4.443395">
        <ele>512.0</ele>
        <time>2018-05-29T10:03:48.082Z</time>
      </trkpt>
      <trkpt lat="37.42349" lon="-4.44329833">
        <ele>513.0</ele>
        <time>2018-05-29T10:03:49.057Z</time>
      </trkpt>
      <trkpt lat="37.42349" lon="-4.44329833">
        <ele>513.0</ele>
        <time>2018-05-29T10:03:50.064Z</time>
      </trkpt>
      <trkpt lat="37.423555" lon="-4.44320167">
        <ele>513.0</ele>
        <time>2018-05-29T10:03:51.077Z</time>
      </trkpt>
      <trkpt lat="37.42358833" lon="-4.443155">
        <ele>513.0</ele>
        <time>2018-05-29T10:03:52.060Z</time>
      </trkpt>
      <trkpt lat="37.42358833" lon="-4.443155">
        <ele>513.0</ele>
        <time>2018-05-29T10:03:53.081Z</time>
      </trkpt>
      <trkpt lat="37.42366" lon="-4.443065">
        <ele>513.0</ele>
        <time>2018-05-29T10:03:54.075Z</time>
      </trkpt>
      <trkpt lat="37.42369667" lon="-4.44302">
        <ele>513.0</ele>
        <time>2018-05-29T10:03:55.062Z</time>
      </trkpt>
      <trkpt lat="37.42369667" lon="-4.44302">
        <ele>513.0</ele>
        <time>2018-05-29T10:03:56.068Z</time>
      </trkpt>
      <trkpt lat="37.42377167" lon="-4.44293167">
        <ele>513.0</ele>
        <time>2018-05-29T10:03:57.093Z</time>
      </trkpt>
      <trkpt lat="37.42381" lon="-4.44289">
        <ele>513.0</ele>
        <time>2018-05-29T10:03:58.069Z</time>
      </trkpt>
      <trkpt lat="37.42381" lon="-4.44289">
        <ele>513.0</ele>
        <time>2018-05-29T10:03:59.081Z</time>
      </trkpt>
      <trkpt lat="37.42388833" lon="-4.44280667">
        <ele>513.0</ele>
        <time>2018-05-29T10:04:00.062Z</time>
      </trkpt>
      <trkpt lat="37.42392667" lon="-4.442765">
        <ele>513.0</ele>
        <time>2018-05-29T10:04:01.076Z</time>
      </trkpt>
      <trkpt lat="37.42392667" lon="-4.442765">
        <ele>513.0</ele>
        <time>2018-05-29T10:04:02.084Z</time>
      </trkpt>
      <trkpt lat="37.424005" lon="-4.44268333">
        <ele>513.0</ele>
        <time>2018-05-29T10:04:03.064Z</time>
      </trkpt>
      <trkpt lat="37.424005" lon="-4.44268333">
        <ele>513.0</ele>
        <time>2018-05-29T10:04:04.073Z</time>
      </trkpt>
      <trkpt lat="37.42408667" lon="-4.442605">
        <ele>513.0</ele>
        <time>2018-05-29T10:04:05.064Z</time>
      </trkpt>
      <trkpt lat="37.42408667" lon="-4.442605">
        <ele>513.0</ele>
        <time>2018-05-29T10:04:06.074Z</time>
      </trkpt>
      <trkpt lat="37.42416833" lon="-4.44252833">
        <ele>513.0</ele>
        <time>2018-05-29T10:04:07.090Z</time>
      </trkpt>
      <trkpt lat="37.42416833" lon="-4.44252833">
        <ele>513.0</ele>
        <time>2018-05-29T10:04:08.087Z</time>
      </trkpt>
      <trkpt lat="37.42425" lon="-4.44245">
        <ele>513.0</ele>
        <time>2018-05-29T10:04:09.067Z</time>
      </trkpt>
      <trkpt lat="37.42425" lon="-4.44245">
        <ele>513.0</ele>
        <time>2018-05-29T10:04:10.073Z</time>
      </trkpt>
      <trkpt lat="37.42433167" lon="-4.44236833">
        <ele>513.0</ele>
        <time>2018-05-29T10:04:11.096Z</time>
      </trkpt>
      <trkpt lat="37.42437333" lon="-4.44232667">
        <ele>513.0</ele>
        <time>2018-05-29T10:04:12.069Z</time>
      </trkpt>
      <trkpt lat="37.42437333" lon="-4.44232667">
        <ele>513.0</ele>
        <time>2018-05-29T10:04:13.081Z</time>
      </trkpt>
      <trkpt lat="37.42446" lon="-4.44224667">
        <ele>513.0</ele>
        <time>2018-05-29T10:04:14.070Z</time>
      </trkpt>
      <trkpt lat="37.42446" lon="-4.44224667">
        <ele>513.0</ele>
        <time>2018-05-29T10:04:15.080Z</time>
      </trkpt>
      <trkpt lat="37.42454667" lon="-4.44216333">
        <ele>513.0</ele>
        <time>2018-05-29T10:04:16.071Z</time>
      </trkpt>
      <trkpt lat="37.42454667" lon="-4.44216333">
        <ele>513.0</ele>
        <time>2018-05-29T10:04:17.080Z</time>
      </trkpt>
      <trkpt lat="37.42463333" lon="-4.442085">
        <ele>513.0</ele>
        <time>2018-05-29T10:04:18.083Z</time>
      </trkpt>
      <trkpt lat="37.424675" lon="-4.442045">
        <ele>513.0</ele>
        <time>2018-05-29T10:04:19.072Z</time>
      </trkpt>
      <trkpt lat="37.424675" lon="-4.442045">
        <ele>513.0</ele>
        <time>2018-05-29T10:04:20.079Z</time>
      </trkpt>
      <trkpt lat="37.42476167" lon="-4.44196667">
        <ele>513.0</ele>
        <time>2018-05-29T10:04:21.096Z</time>
      </trkpt>
      <trkpt lat="37.424805" lon="-4.441925">
        <ele>513.0</ele>
        <time>2018-05-29T10:04:22.072Z</time>
      </trkpt>
      <trkpt lat="37.424805" lon="-4.441925">
        <ele>513.0</ele>
        <time>2018-05-29T10:04:23.080Z</time>
      </trkpt>
      <trkpt lat="37.42489167" lon="-4.441845">
        <ele>513.0</ele>
        <time>2018-05-29T10:04:24.095Z</time>
      </trkpt>
      <trkpt lat="37.424935" lon="-4.44180167">
        <ele>513.0</ele>
        <time>2018-05-29T10:04:25.075Z</time>
      </trkpt>
      <trkpt lat="37.424935" lon="-4.44180167">
        <ele>513.0</ele>
        <time>2018-05-29T10:04:26.058Z</time>
      </trkpt>
      <trkpt lat="37.42501833" lon="-4.44171667">
        <ele>513.0</ele>
        <time>2018-05-29T10:04:27.072Z</time>
      </trkpt>
      <trkpt lat="37.42501833" lon="-4.44171667">
        <ele>513.0</ele>
        <time>2018-05-29T10:04:28.086Z</time>
      </trkpt>
      <trkpt lat="37.42510167" lon="-4.44163">
        <ele>513.0</ele>
        <time>2018-05-29T10:04:29.069Z</time>
      </trkpt>
      <trkpt lat="37.42510167" lon="-4.44163">
        <ele>513.0</ele>
        <time>2018-05-29T10:04:30.094Z</time>
      </trkpt>
      <trkpt lat="37.42518333" lon="-4.44153667">
        <ele>513.0</ele>
        <time>2018-05-29T10:04:31.077Z</time>
      </trkpt>
      <trkpt lat="37.42518333" lon="-4.44153667">
        <ele>513.0</ele>
        <time>2018-05-29T10:04:32.066Z</time>
      </trkpt>
      <trkpt lat="37.42526333" lon="-4.44144167">
        <ele>513.0</ele>
        <time>2018-05-29T10:04:33.089Z</time>
      </trkpt>
      <trkpt lat="37.425305" lon="-4.44139333">
        <ele>513.0</ele>
        <time>2018-05-29T10:04:34.072Z</time>
      </trkpt>
      <trkpt lat="37.42534667" lon="-4.441345">
        <ele>513.0</ele>
        <time>2018-05-29T10:04:35.070Z</time>
      </trkpt>
      <trkpt lat="37.42534667" lon="-4.441345">
        <ele>513.0</ele>
        <time>2018-05-29T10:04:36.084Z</time>
      </trkpt>
      <trkpt lat="37.42542333" lon="-4.44124167">
        <ele>513.0</ele>
        <time>2018-05-29T10:04:37.081Z</time>
      </trkpt>
      <trkpt lat="37.42542333" lon="-4.44124167">
        <ele>513.0</ele>
        <time>2018-05-29T10:04:38.067Z</time>
      </trkpt>
      <trkpt lat="37.42549667" lon="-4.44113333">
        <ele>513.0</ele>
        <time>2018-05-29T10:04:39.095Z</time>
      </trkpt>
      <trkpt lat="37.42553167" lon="-4.44107833">
        <ele>513.0</ele>
        <time>2018-05-29T10:04:40.070Z</time>
      </trkpt>
      <trkpt lat="37.42553167" lon="-4.44107833">
        <ele>513.0</ele>
        <time>2018-05-29T10:04:41.082Z</time>
      </trkpt>
      <trkpt lat="37.42560333" lon="-4.44096167">
        <ele>513.0</ele>
        <time>2018-05-29T10:04:42.073Z</time>
      </trkpt>
      <trkpt lat="37.42564" lon="-4.44090333">
        <ele>513.0</ele>
        <time>2018-05-29T10:04:43.094Z</time>
      </trkpt>
      <trkpt lat="37.42564" lon="-4.44090333">
        <ele>513.0</ele>
        <time>2018-05-29T10:04:44.061Z</time>
      </trkpt>
      <trkpt lat="37.42571167" lon="-4.44078333">
        <ele>512.0</ele>
        <time>2018-05-29T10:04:45.087Z</time>
      </trkpt>
      <trkpt lat="37.42571167" lon="-4.44078333">
        <ele>512.0</ele>
        <time>2018-05-29T10:04:46.060Z</time>
      </trkpt>
      <trkpt lat="37.42578" lon="-4.44066">
        <ele>512.0</ele>
        <time>2018-05-29T10:04:47.086Z</time>
      </trkpt>
      <trkpt lat="37.42578" lon="-4.44066">
        <ele>512.0</ele>
        <time>2018-05-29T10:04:48.091Z</time>
      </trkpt>
      <trkpt lat="37.42584167" lon="-4.44053333">
        <ele>512.0</ele>
        <time>2018-05-29T10:04:49.075Z</time>
      </trkpt>
      <trkpt lat="37.42584167" lon="-4.44053333">
        <ele>512.0</ele>
        <time>2018-05-29T10:04:50.087Z</time>
      </trkpt>
      <trkpt lat="37.42590167" lon="-4.44040667">
        <ele>512.0</ele>
        <time>2018-05-29T10:04:51.066Z</time>
      </trkpt>
      <trkpt lat="37.42590167" lon="-4.44040667">
        <ele>512.0</ele>
        <time>2018-05-29T10:04:52.080Z</time>
      </trkpt>
      <trkpt lat="37.42596" lon="-4.44027667">
        <ele>512.0</ele>
        <time>2018-05-29T10:04:53.080Z</time>
      </trkpt>
      <trkpt lat="37.42596" lon="-4.44027667">
        <ele>512.0</ele>
        <time>2018-05-29T10:04:54.060Z</time>
      </trkpt>
      <trkpt lat="37.42602167" lon="-4.44014333">
        <ele>512.0</ele>
        <time>2018-05-29T10:04:55.061Z</time>
      </trkpt>
      <trkpt lat="37.42602167" lon="-4.44014333">
        <ele>512.0</ele>
        <time>2018-05-29T10:04:56.080Z</time>
      </trkpt>
      <trkpt lat="37.42608667" lon="-4.44001">
        <ele>511.0</ele>
        <time>2018-05-29T10:04:57.091Z</time>
      </trkpt>
      <trkpt lat="37.42608667" lon="-4.44001">
        <ele>511.0</ele>
        <time>2018-05-29T10:04:58.060Z</time>
      </trkpt>
      <trkpt lat="37.42615167" lon="-4.43987333">
        <ele>511.0</ele>
        <time>2018-05-29T10:04:59.088Z</time>
      </trkpt>
      <trkpt lat="37.42615167" lon="-4.43987333">
        <ele>511.0</ele>
        <time>2018-05-29T10:05:00.060Z</time>
      </trkpt>
      <trkpt lat="37.426215" lon="-4.439735">
        <ele>511.0</ele>
        <time>2018-05-29T10:05:01.086Z</time>
      </trkpt>
      <trkpt lat="37.426215" lon="-4.439735">
        <ele>511.0</ele>
        <time>2018-05-29T10:05:02.067Z</time>
      </trkpt>
      <trkpt lat="37.42627667" lon="-4.43959667">
        <ele>511.0</ele>
        <time>2018-05-29T10:05:03.096Z</time>
      </trkpt>
      <trkpt lat="37.42630833" lon="-4.43952667">
        <ele>511.0</ele>
        <time>2018-05-29T10:05:04.096Z</time>
      </trkpt>
      <trkpt lat="37.42630833" lon="-4.43952667">
        <ele>511.0</ele>
        <time>2018-05-29T10:05:05.067Z</time>
      </trkpt>
      <trkpt lat="37.42636833" lon="-4.439385">
        <ele>510.0</ele>
        <time>2018-05-29T10:05:06.093Z</time>
      </trkpt>
      <trkpt lat="37.42636833" lon="-4.439385">
        <ele>510.0</ele>
        <time>2018-05-29T10:05:07.071Z</time>
      </trkpt>
      <trkpt lat="37.42643333" lon="-4.43924">
        <ele>510.0</ele>
        <time>2018-05-29T10:05:08.067Z</time>
      </trkpt>
      <trkpt lat="37.42643333" lon="-4.43924">
        <ele>510.0</ele>
        <time>2018-05-29T10:05:09.066Z</time>
      </trkpt>
      <trkpt lat="37.42650333" lon="-4.4391">
        <ele>510.0</ele>
        <time>2018-05-29T10:05:10.061Z</time>
      </trkpt>
      <trkpt lat="37.42650333" lon="-4.4391">
        <ele>510.0</ele>
        <time>2018-05-29T10:05:11.068Z</time>
      </trkpt>
      <trkpt lat="37.42657833" lon="-4.438965">
        <ele>510.0</ele>
        <time>2018-05-29T10:05:12.056Z</time>
      </trkpt>
      <trkpt lat="37.42661833" lon="-4.43890167">
        <ele>510.0</ele>
        <time>2018-05-29T10:05:13.066Z</time>
      </trkpt>
      <trkpt lat="37.42661833" lon="-4.43890167">
        <ele>510.0</ele>
        <time>2018-05-29T10:05:14.079Z</time>
      </trkpt>
      <trkpt lat="37.426695" lon="-4.43877167">
        <ele>510.0</ele>
        <time>2018-05-29T10:05:15.061Z</time>
      </trkpt>
      <trkpt lat="37.426695" lon="-4.43877167">
        <ele>510.0</ele>
        <time>2018-05-29T10:05:16.068Z</time>
      </trkpt>
      <trkpt lat="37.426775" lon="-4.43864667">
        <ele>510.0</ele>
        <time>2018-05-29T10:05:17.095Z</time>
      </trkpt>
      <trkpt lat="37.426815" lon="-4.438585">
        <ele>510.0</ele>
        <time>2018-05-29T10:05:18.086Z</time>
      </trkpt>
      <trkpt lat="37.426855" lon="-4.43852167">
        <ele>509.0</ele>
        <time>2018-05-29T10:05:19.066Z</time>
      </trkpt>
      <trkpt lat="37.426895" lon="-4.43846">
        <ele>509.0</ele>
        <time>2018-05-29T10:05:20.064Z</time>
      </trkpt>
      <trkpt lat="37.426895" lon="-4.43846">
        <ele>509.0</ele>
        <time>2018-05-29T10:05:21.078Z</time>
      </trkpt>
      <trkpt lat="37.42698" lon="-4.43834333">
        <ele>509.0</ele>
        <time>2018-05-29T10:05:22.095Z</time>
      </trkpt>
      <trkpt lat="37.42698" lon="-4.43834333">
        <ele>509.0</ele>
        <time>2018-05-29T10:05:23.061Z</time>
      </trkpt>
      <trkpt lat="37.42706" lon="-4.43823167">
        <ele>510.0</ele>
        <time>2018-05-29T10:05:24.079Z</time>
      </trkpt>
      <trkpt lat="37.42709833" lon="-4.43817833">
        <ele>510.0</ele>
        <time>2018-05-29T10:05:25.074Z</time>
      </trkpt>
      <trkpt lat="37.42709833" lon="-4.43817833">
        <ele>510.0</ele>
        <time>2018-05-29T10:05:26.064Z</time>
      </trkpt>
      <trkpt lat="37.427175" lon="-4.43806667">
        <ele>509.0</ele>
        <time>2018-05-29T10:05:27.071Z</time>
      </trkpt>
      <trkpt lat="37.42721333" lon="-4.43801167">
        <ele>509.0</ele>
        <time>2018-05-29T10:05:28.068Z</time>
      </trkpt>
      <trkpt lat="37.42721333" lon="-4.43801167">
        <ele>509.0</ele>
        <time>2018-05-29T10:05:29.081Z</time>
      </trkpt>
      <trkpt lat="37.42729" lon="-4.437905">
        <ele>510.0</ele>
        <time>2018-05-29T10:05:30.066Z</time>
      </trkpt>
      <trkpt lat="37.42729" lon="-4.437905">
        <ele>510.0</ele>
        <time>2018-05-29T10:05:31.072Z</time>
      </trkpt>
      <trkpt lat="37.42736333" lon="-4.43779833">
        <ele>510.0</ele>
        <time>2018-05-29T10:05:32.092Z</time>
      </trkpt>
      <trkpt lat="37.42736333" lon="-4.43779833">
        <ele>510.0</ele>
        <time>2018-05-29T10:05:33.059Z</time>
      </trkpt>
      <trkpt lat="37.42743667" lon="-4.43769333">
        <ele>510.0</ele>
        <time>2018-05-29T10:05:34.076Z</time>
      </trkpt>
      <trkpt lat="37.42743667" lon="-4.43769333">
        <ele>510.0</ele>
        <time>2018-05-29T10:05:35.084Z</time>
      </trkpt>
      <trkpt lat="37.42751" lon="-4.43758667">
        <ele>510.0</ele>
        <time>2018-05-29T10:05:36.061Z</time>
      </trkpt>
      <trkpt lat="37.42751" lon="-4.43758667">
        <ele>510.0</ele>
        <time>2018-05-29T10:05:37.077Z</time>
      </trkpt>
      <trkpt lat="37.42759167" lon="-4.43748667">
        <ele>509.0</ele>
        <time>2018-05-29T10:05:38.093Z</time>
      </trkpt>
      <trkpt lat="37.42759167" lon="-4.43748667">
        <ele>509.0</ele>
        <time>2018-05-29T10:05:39.061Z</time>
      </trkpt>
      <trkpt lat="37.42766833" lon="-4.43738333">
        <ele>509.0</ele>
        <time>2018-05-29T10:05:40.085Z</time>
      </trkpt>
      <trkpt lat="37.42770667" lon="-4.43733167">
        <ele>509.0</ele>
        <time>2018-05-29T10:05:41.074Z</time>
      </trkpt>
      <trkpt lat="37.42770667" lon="-4.43733167">
        <ele>509.0</ele>
        <time>2018-05-29T10:05:42.080Z</time>
      </trkpt>
      <trkpt lat="37.42779167" lon="-4.43723167">
        <ele>509.0</ele>
        <time>2018-05-29T10:05:43.068Z</time>
      </trkpt>
      <trkpt lat="37.42779167" lon="-4.43723167">
        <ele>509.0</ele>
        <time>2018-05-29T10:05:44.083Z</time>
      </trkpt>
      <trkpt lat="37.42787833" lon="-4.43713833">
        <ele>508.0</ele>
        <time>2018-05-29T10:05:45.071Z</time>
      </trkpt>
      <trkpt lat="37.42787833" lon="-4.43713833">
        <ele>508.0</ele>
        <time>2018-05-29T10:05:46.081Z</time>
      </trkpt>
      <trkpt lat="37.42796" lon="-4.43704667">
        <ele>508.0</ele>
        <time>2018-05-29T10:05:47.065Z</time>
      </trkpt>
      <trkpt lat="37.42796" lon="-4.43704667">
        <ele>508.0</ele>
        <time>2018-05-29T10:05:48.092Z</time>
      </trkpt>
      <trkpt lat="37.42805333" lon="-4.43695333">
        <ele>508.0</ele>
        <time>2018-05-29T10:05:49.075Z</time>
      </trkpt>
      <trkpt lat="37.42805333" lon="-4.43695333">
        <ele>508.0</ele>
        <time>2018-05-29T10:05:50.082Z</time>
      </trkpt>
      <trkpt lat="37.42815167" lon="-4.436865">
        <ele>508.0</ele>
        <time>2018-05-29T10:05:51.061Z</time>
      </trkpt>
      <trkpt lat="37.42819833" lon="-4.436825">
        <ele>508.0</ele>
        <time>2018-05-29T10:05:52.066Z</time>
      </trkpt>
      <trkpt lat="37.42819833" lon="-4.436825">
        <ele>508.0</ele>
        <time>2018-05-29T10:05:53.060Z</time>
      </trkpt>
      <trkpt lat="37.42829667" lon="-4.43674667">
        <ele>508.0</ele>
        <time>2018-05-29T10:05:54.088Z</time>
      </trkpt>
      <trkpt lat="37.42829667" lon="-4.43674667">
        <ele>508.0</ele>
        <time>2018-05-29T10:05:55.058Z</time>
      </trkpt>
      <trkpt lat="37.42839333" lon="-4.436675">
        <ele>508.0</ele>
        <time>2018-05-29T10:05:56.065Z</time>
      </trkpt>
      <trkpt lat="37.42839333" lon="-4.436675">
        <ele>508.0</ele>
        <time>2018-05-29T10:05:57.078Z</time>
      </trkpt>
      <trkpt lat="37.42849167" lon="-4.43660833">
        <ele>508.0</ele>
        <time>2018-05-29T10:05:58.064Z</time>
      </trkpt>
      <trkpt lat="37.42854" lon="-4.43657833">
        <ele>508.0</ele>
        <time>2018-05-29T10:05:59.097Z</time>
      </trkpt>
      <trkpt lat="37.42854" lon="-4.43657833">
        <ele>508.0</ele>
        <time>2018-05-29T10:06:00.065Z</time>
      </trkpt>
      <trkpt lat="37.42864" lon="-4.43652">
        <ele>508.0</ele>
        <time>2018-05-29T10:06:01.094Z</time>
      </trkpt>
      <trkpt lat="37.42864" lon="-4.43652">
        <ele>508.0</ele>
        <time>2018-05-29T10:06:02.065Z</time>
      </trkpt>
      <trkpt lat="37.42873833" lon="-4.43646">
        <ele>508.0</ele>
        <time>2018-05-29T10:06:03.087Z</time>
      </trkpt>
      <trkpt lat="37.42878833" lon="-4.43643">
        <ele>508.0</ele>
        <time>2018-05-29T10:06:04.065Z</time>
      </trkpt>
      <trkpt lat="37.42878833" lon="-4.43643">
        <ele>508.0</ele>
        <time>2018-05-29T10:06:05.077Z</time>
      </trkpt>
      <trkpt lat="37.42888" lon="-4.43637667">
        <ele>509.0</ele>
        <time>2018-05-29T10:06:06.056Z</time>
      </trkpt>
      <trkpt lat="37.42892167" lon="-4.436355">
        <ele>509.0</ele>
        <time>2018-05-29T10:06:07.098Z</time>
      </trkpt>
      <trkpt lat="37.42892167" lon="-4.436355">
        <ele>509.0</ele>
        <time>2018-05-29T10:06:08.088Z</time>
      </trkpt>
      <trkpt lat="37.42899667" lon="-4.43632167">
        <ele>509.0</ele>
        <time>2018-05-29T10:06:09.067Z</time>
      </trkpt>
      <trkpt lat="37.429035" lon="-4.436305">
        <ele>509.0</ele>
        <time>2018-05-29T10:06:10.063Z</time>
      </trkpt>
      <trkpt lat="37.429035" lon="-4.436305">
        <ele>509.0</ele>
        <time>2018-05-29T10:06:11.069Z</time>
      </trkpt>
      <trkpt lat="37.42909333" lon="-4.43626167">
        <ele>509.0</ele>
        <time>2018-05-29T10:06:12.060Z</time>
      </trkpt>
      <trkpt lat="37.4291" lon="-4.43623333">
        <ele>509.0</ele>
        <time>2018-05-29T10:06:13.085Z</time>
      </trkpt>
      <trkpt lat="37.4291" lon="-4.43623333">
        <ele>509.0</ele>
        <time>2018-05-29T10:06:14.060Z</time>
      </trkpt>
      <trkpt lat="37.42908" lon="-4.43618">
        <ele>509.0</ele>
        <time>2018-05-29T10:06:15.066Z</time>
      </trkpt>
      <trkpt lat="37.42908" lon="-4.43618">
        <ele>509.0</ele>
        <time>2018-05-29T10:06:16.082Z</time>
      </trkpt>
      <trkpt lat="37.42904" lon="-4.436145">
        <ele>509.0</ele>
        <time>2018-05-29T10:06:17.074Z</time>
      </trkpt>
      <trkpt lat="37.42903167" lon="-4.43613833">
        <ele>509.0</ele>
        <time>2018-05-29T10:06:18.071Z</time>
      </trkpt>
      <trkpt lat="37.42902833" lon="-4.43613667">
        <ele>509.0</ele>
        <time>2018-05-29T10:06:19.057Z</time>
      </trkpt>
      <trkpt lat="37.42902833" lon="-4.43613667">
        <ele>509.0</ele>
        <time>2018-05-29T10:06:20.065Z</time>
      </trkpt>
      <trkpt lat="37.42902333" lon="-4.436135">
        <ele>510.0</ele>
        <time>2018-05-29T10:06:21.072Z</time>
      </trkpt>
      <trkpt lat="37.42902333" lon="-4.436135">
        <ele>510.0</ele>
        <time>2018-05-29T10:06:22.065Z</time>
      </trkpt>
      <trkpt lat="37.42902333" lon="-4.436135">
        <ele>510.0</ele>
        <time>2018-05-29T10:06:23.093Z</time>
      </trkpt>
      <trkpt lat="37.42895167" lon="-4.43604667">
        <ele>512.0</ele>
        <time>2018-05-29T10:06:24.089Z</time>
      </trkpt>
      <trkpt lat="37.42895167" lon="-4.43604667">
        <ele>512.0</ele>
        <time>2018-05-29T10:06:25.092Z</time>
      </trkpt>
      <trkpt lat="37.42890167" lon="-4.43604333">
        <ele>512.0</ele>
        <time>2018-05-29T10:06:26.059Z</time>
      </trkpt>
      <trkpt lat="37.42890167" lon="-4.43604333">
        <ele>512.0</ele>
        <time>2018-05-29T10:06:27.065Z</time>
      </trkpt>
      <trkpt lat="37.428845" lon="-4.43605167">
        <ele>513.0</ele>
        <time>2018-05-29T10:06:28.083Z</time>
      </trkpt>
      <trkpt lat="37.42878833" lon="-4.43606833">
        <ele>514.0</ele>
        <time>2018-05-29T10:06:29.092Z</time>
      </trkpt>
      <trkpt lat="37.42878833" lon="-4.43606833">
        <ele>514.0</ele>
        <time>2018-05-29T10:06:30.058Z</time>
      </trkpt>
      <trkpt lat="37.42878833" lon="-4.43606833">
        <ele>514.0</ele>
        <time>2018-05-29T10:06:31.065Z</time>
      </trkpt>
      <trkpt lat="37.42873167" lon="-4.43608667">
        <ele>515.0</ele>
        <time>2018-05-29T10:06:32.071Z</time>
      </trkpt>
      <trkpt lat="37.428705" lon="-4.43609833">
        <ele>515.0</ele>
        <time>2018-05-29T10:06:33.080Z</time>
      </trkpt>
      <trkpt lat="37.428705" lon="-4.43609833">
        <ele>515.0</ele>
        <time>2018-05-29T10:06:34.086Z</time>
      </trkpt>
      <trkpt lat="37.42865" lon="-4.43611">
        <ele>516.0</ele>
        <time>2018-05-29T10:06:35.061Z</time>
      </trkpt>
      <trkpt lat="37.428625" lon="-4.43610333">
        <ele>517.0</ele>
        <time>2018-05-29T10:06:36.086Z</time>
      </trkpt>
      <trkpt lat="37.42857333" lon="-4.43607667">
        <ele>518.0</ele>
        <time>2018-05-29T10:06:37.096Z</time>
      </trkpt>
      <trkpt lat="37.42857333" lon="-4.43607667">
        <ele>518.0</ele>
        <time>2018-05-29T10:06:38.080Z</time>
      </trkpt>
      <trkpt lat="37.42854667" lon="-4.43605833">
        <ele>518.0</ele>
        <time>2018-05-29T10:06:39.066Z</time>
      </trkpt>
      <trkpt lat="37.42854667" lon="-4.43605833">
        <ele>518.0</ele>
        <time>2018-05-29T10:06:40.090Z</time>
      </trkpt>
      <trkpt lat="37.428495" lon="-4.43603167">
        <ele>519.0</ele>
        <time>2018-05-29T10:06:41.083Z</time>
      </trkpt>
      <trkpt lat="37.42846667" lon="-4.43602167">
        <ele>519.0</ele>
        <time>2018-05-29T10:06:42.066Z</time>
      </trkpt>
      <trkpt lat="37.42846667" lon="-4.43602167">
        <ele>519.0</ele>
        <time>2018-05-29T10:06:43.081Z</time>
      </trkpt>
      <trkpt lat="37.42838333" lon="-4.43598833">
        <ele>520.0</ele>
        <time>2018-05-29T10:06:44.095Z</time>
      </trkpt>
      <trkpt lat="37.42838333" lon="-4.43598833">
        <ele>520.0</ele>
        <time>2018-05-29T10:06:45.069Z</time>
      </trkpt>
      <trkpt lat="37.42838333" lon="-4.43598833">
        <ele>520.0</ele>
        <time>2018-05-29T10:06:46.079Z</time>
      </trkpt>
      <trkpt lat="37.42833" lon="-4.43595333">
        <ele>521.0</ele>
        <time>2018-05-29T10:06:47.065Z</time>
      </trkpt>
      <trkpt lat="37.42830667" lon="-4.43593333">
        <ele>522.0</ele>
        <time>2018-05-29T10:06:48.080Z</time>
      </trkpt>
      <trkpt lat="37.42830667" lon="-4.43593333">
        <ele>522.0</ele>
        <time>2018-05-29T10:06:49.092Z</time>
      </trkpt>
      <trkpt lat="37.42825833" lon="-4.43589167">
        <ele>522.0</ele>
        <time>2018-05-29T10:06:50.083Z</time>
      </trkpt>
      <trkpt lat="37.42823667" lon="-4.43587333">
        <ele>522.0</ele>
        <time>2018-05-29T10:06:51.082Z</time>
      </trkpt>
      <trkpt lat="37.428195" lon="-4.43584">
        <ele>523.0</ele>
        <time>2018-05-29T10:06:52.095Z</time>
      </trkpt>
      <trkpt lat="37.428195" lon="-4.43584">
        <ele>523.0</ele>
        <time>2018-05-29T10:06:53.067Z</time>
      </trkpt>
      <trkpt lat="37.42817333" lon="-4.43582333">
        <ele>524.0</ele>
        <time>2018-05-29T10:06:54.065Z</time>
      </trkpt>
      <trkpt lat="37.42817333" lon="-4.43582333">
        <ele>524.0</ele>
        <time>2018-05-29T10:06:55.081Z</time>
      </trkpt>
      <trkpt lat="37.42813833" lon="-4.435785">
        <ele>524.0</ele>
        <time>2018-05-29T10:06:56.078Z</time>
      </trkpt>
      <trkpt lat="37.42812167" lon="-4.435765">
        <ele>524.0</ele>
        <time>2018-05-29T10:06:57.085Z</time>
      </trkpt>
      <trkpt lat="37.42812167" lon="-4.435765">
        <ele>524.0</ele>
        <time>2018-05-29T10:06:58.092Z</time>
      </trkpt>
      <trkpt lat="37.428085" lon="-4.43571833">
        <ele>525.0</ele>
        <time>2018-05-29T10:06:59.083Z</time>
      </trkpt>
      <trkpt lat="37.428085" lon="-4.43571833">
        <ele>525.0</ele>
        <time>2018-05-29T10:07:00.090Z</time>
      </trkpt>
      <trkpt lat="37.42805167" lon="-4.435665">
        <ele>525.0</ele>
        <time>2018-05-29T10:07:01.069Z</time>
      </trkpt>
      <trkpt lat="37.42801833" lon="-4.43561167">
        <ele>525.0</ele>
        <time>2018-05-29T10:07:02.108Z</time>
      </trkpt>
      <trkpt lat="37.42801833" lon="-4.43561167">
        <ele>525.0</ele>
        <time>2018-05-29T10:07:03.084Z</time>
      </trkpt>
      <trkpt lat="37.42800333" lon="-4.435585">
        <ele>525.0</ele>
        <time>2018-05-29T10:07:04.079Z</time>
      </trkpt>
      <trkpt lat="37.42800333" lon="-4.435585">
        <ele>525.0</ele>
        <time>2018-05-29T10:07:05.086Z</time>
      </trkpt>
      <trkpt lat="37.42797" lon="-4.435535">
        <ele>525.0</ele>
        <time>2018-05-29T10:07:06.066Z</time>
      </trkpt>
      <trkpt lat="37.42794" lon="-4.43548333">
        <ele>525.0</ele>
        <time>2018-05-29T10:07:07.089Z</time>
      </trkpt>
      <trkpt lat="37.42794" lon="-4.43548333">
        <ele>525.0</ele>
        <time>2018-05-29T10:07:08.073Z</time>
      </trkpt>
      <trkpt lat="37.42792167" lon="-4.43545833">
        <ele>525.0</ele>
        <time>2018-05-29T10:07:09.084Z</time>
      </trkpt>
      <trkpt lat="37.42789" lon="-4.43540667">
        <ele>526.0</ele>
        <time>2018-05-29T10:07:10.091Z</time>
      </trkpt>
      <trkpt lat="37.42789" lon="-4.43540667">
        <ele>526.0</ele>
        <time>2018-05-29T10:07:11.082Z</time>
      </trkpt>
      <trkpt lat="37.42787333" lon="-4.43537833">
        <ele>526.0</ele>
        <time>2018-05-29T10:07:12.066Z</time>
      </trkpt>
      <trkpt lat="37.427835" lon="-4.435325">
        <ele>526.0</ele>
        <time>2018-05-29T10:07:13.086Z</time>
      </trkpt>
      <trkpt lat="37.427815" lon="-4.43529833">
        <ele>526.0</ele>
        <time>2018-05-29T10:07:14.091Z</time>
      </trkpt>
      <trkpt lat="37.427815" lon="-4.43529833">
        <ele>526.0</ele>
        <time>2018-05-29T10:07:15.070Z</time>
      </trkpt>
      <trkpt lat="37.427815" lon="-4.43529833">
        <ele>526.0</ele>
        <time>2018-05-29T10:07:16.091Z</time>
      </trkpt>
      <trkpt lat="37.42777" lon="-4.43524333">
        <ele>526.0</ele>
        <time>2018-05-29T10:07:17.093Z</time>
      </trkpt>
      <trkpt lat="37.42777" lon="-4.43524333">
        <ele>526.0</ele>
        <time>2018-05-29T10:07:18.082Z</time>
      </trkpt>
      <trkpt lat="37.42773" lon="-4.43518667">
        <ele>526.0</ele>
        <time>2018-05-29T10:07:19.068Z</time>
      </trkpt>
      <trkpt lat="37.42771" lon="-4.43515667">
        <ele>526.0</ele>
        <time>2018-05-29T10:07:20.074Z</time>
      </trkpt>
      <trkpt lat="37.42767667" lon="-4.43509">
        <ele>526.0</ele>
        <time>2018-05-29T10:07:21.091Z</time>
      </trkpt>
      <trkpt lat="37.42767667" lon="-4.43509">
        <ele>526.0</ele>
        <time>2018-05-29T10:07:22.077Z</time>
      </trkpt>
      <trkpt lat="37.42765333" lon="-4.43502">
        <ele>526.0</ele>
        <time>2018-05-29T10:07:23.107Z</time>
      </trkpt>
      <trkpt lat="37.42765333" lon="-4.43502">
        <ele>526.0</ele>
        <time>2018-05-29T10:07:24.082Z</time>
      </trkpt>
      <trkpt lat="37.42765333" lon="-4.43502">
        <ele>526.0</ele>
        <time>2018-05-29T10:07:25.090Z</time>
      </trkpt>
      <trkpt lat="37.42763167" lon="-4.43494333">
        <ele>526.0</ele>
        <time>2018-05-29T10:07:26.061Z</time>
      </trkpt>
      <trkpt lat="37.42763167" lon="-4.43494333">
        <ele>526.0</ele>
        <time>2018-05-29T10:07:27.090Z</time>
      </trkpt>
      <trkpt lat="37.42761167" lon="-4.43487">
        <ele>526.0</ele>
        <time>2018-05-29T10:07:28.097Z</time>
      </trkpt>
      <trkpt lat="37.4276" lon="-4.43483667">
        <ele>526.0</ele>
        <time>2018-05-29T10:07:29.077Z</time>
      </trkpt>
      <trkpt lat="37.42758667" lon="-4.43480167">
        <ele>526.0</ele>
        <time>2018-05-29T10:07:30.071Z</time>
      </trkpt>
      <trkpt lat="37.42755833" lon="-4.43473333">
        <ele>527.0</ele>
        <time>2018-05-29T10:07:31.096Z</time>
      </trkpt>
      <trkpt lat="37.42755833" lon="-4.43473333">
        <ele>527.0</ele>
        <time>2018-05-29T10:07:32.062Z</time>
      </trkpt>
      <trkpt lat="37.42755833" lon="-4.43473333">
        <ele>527.0</ele>
        <time>2018-05-29T10:07:33.069Z</time>
      </trkpt>
      <trkpt lat="37.427535" lon="-4.43465667">
        <ele>527.0</ele>
        <time>2018-05-29T10:07:34.087Z</time>
      </trkpt>
      <trkpt lat="37.427535" lon="-4.43465667">
        <ele>527.0</ele>
        <time>2018-05-29T10:07:35.094Z</time>
      </trkpt>
      <trkpt lat="37.42751167" lon="-4.43458667">
        <ele>527.0</ele>
        <time>2018-05-29T10:07:36.062Z</time>
      </trkpt>
      <trkpt lat="37.42751167" lon="-4.43458667">
        <ele>527.0</ele>
        <time>2018-05-29T10:07:37.069Z</time>
      </trkpt>
      <trkpt lat="37.42747833" lon="-4.43451833">
        <ele>527.0</ele>
        <time>2018-05-29T10:07:38.059Z</time>
      </trkpt>
      <trkpt lat="37.42746" lon="-4.434485">
        <ele>527.0</ele>
        <time>2018-05-29T10:07:39.082Z</time>
      </trkpt>
      <trkpt lat="37.42743" lon="-4.43441167">
        <ele>528.0</ele>
        <time>2018-05-29T10:07:40.110Z</time>
      </trkpt>
      <trkpt lat="37.42743" lon="-4.43441167">
        <ele>528.0</ele>
        <time>2018-05-29T10:07:41.084Z</time>
      </trkpt>
      <trkpt lat="37.42741833" lon="-4.43437167">
        <ele>528.0</ele>
        <time>2018-05-29T10:07:42.072Z</time>
      </trkpt>
      <trkpt lat="37.42740167" lon="-4.434295">
        <ele>528.0</ele>
        <time>2018-05-29T10:07:43.095Z</time>
      </trkpt>
      <trkpt lat="37.42740167" lon="-4.434295">
        <ele>528.0</ele>
        <time>2018-05-29T10:07:44.083Z</time>
      </trkpt>
      <trkpt lat="37.42739167" lon="-4.43422333">
        <ele>528.0</ele>
        <time>2018-05-29T10:07:45.089Z</time>
      </trkpt>
      <trkpt lat="37.42739167" lon="-4.43422333">
        <ele>528.0</ele>
        <time>2018-05-29T10:07:46.091Z</time>
      </trkpt>
      <trkpt lat="37.42739167" lon="-4.43422333">
        <ele>528.0</ele>
        <time>2018-05-29T10:07:47.057Z</time>
      </trkpt>
      <trkpt lat="37.427375" lon="-4.43415667">
        <ele>528.0</ele>
        <time>2018-05-29T10:07:48.085Z</time>
      </trkpt>
      <trkpt lat="37.427375" lon="-4.43415667">
        <ele>528.0</ele>
        <time>2018-05-29T10:07:49.092Z</time>
      </trkpt>
      <trkpt lat="37.42733" lon="-4.43410667">
        <ele>528.0</ele>
        <time>2018-05-29T10:07:50.080Z</time>
      </trkpt>
      <trkpt lat="37.427305" lon="-4.434085">
        <ele>528.0</ele>
        <time>2018-05-29T10:07:51.078Z</time>
      </trkpt>
      <trkpt lat="37.427265" lon="-4.43402667">
        <ele>528.0</ele>
        <time>2018-05-29T10:07:52.110Z</time>
      </trkpt>
      <trkpt lat="37.42724833" lon="-4.43399333">
        <ele>528.0</ele>
        <time>2018-05-29T10:07:53.088Z</time>
      </trkpt>
      <trkpt lat="37.42724833" lon="-4.43399333">
        <ele>528.0</ele>
        <time>2018-05-29T10:07:54.058Z</time>
      </trkpt>
      <trkpt lat="37.42724833" lon="-4.43399333">
        <ele>528.0</ele>
        <time>2018-05-29T10:07:55.064Z</time>
      </trkpt>
      <trkpt lat="37.42722" lon="-4.43392">
        <ele>528.0</ele>
        <time>2018-05-29T10:07:56.059Z</time>
      </trkpt>
      <trkpt lat="37.427205" lon="-4.43388333">
        <ele>528.0</ele>
        <time>2018-05-29T10:07:57.096Z</time>
      </trkpt>
      <trkpt lat="37.42719" lon="-4.43384667">
        <ele>528.0</ele>
        <time>2018-05-29T10:07:58.089Z</time>
      </trkpt>
      <trkpt lat="37.42719" lon="-4.43384667">
        <ele>528.0</ele>
        <time>2018-05-29T10:07:59.095Z</time>
      </trkpt>
      <trkpt lat="37.42715667" lon="-4.433775">
        <ele>529.0</ele>
        <time>2018-05-29T10:08:00.070Z</time>
      </trkpt>
      <trkpt lat="37.42715667" lon="-4.433775">
        <ele>529.0</ele>
        <time>2018-05-29T10:08:01.089Z</time>
      </trkpt>
      <trkpt lat="37.42711833" lon="-4.43370667">
        <ele>529.0</ele>
        <time>2018-05-29T10:08:02.086Z</time>
      </trkpt>
      <trkpt lat="37.42709667" lon="-4.43367167">
        <ele>529.0</ele>
        <time>2018-05-29T10:08:03.071Z</time>
      </trkpt>
      <trkpt lat="37.42705167" lon="-4.433605">
        <ele>529.0</ele>
        <time>2018-05-29T10:08:04.093Z</time>
      </trkpt>
      <trkpt lat="37.42705167" lon="-4.433605">
        <ele>529.0</ele>
        <time>2018-05-29T10:08:05.076Z</time>
      </trkpt>
      <trkpt lat="37.42702833" lon="-4.43357333">
        <ele>529.0</ele>
        <time>2018-05-29T10:08:06.056Z</time>
      </trkpt>
      <trkpt lat="37.42702833" lon="-4.43357333">
        <ele>529.0</ele>
        <time>2018-05-29T10:08:07.063Z</time>
      </trkpt>
      <trkpt lat="37.42699667" lon="-4.43349667">
        <ele>530.0</ele>
        <time>2018-05-29T10:08:08.082Z</time>
      </trkpt>
      <trkpt lat="37.42699667" lon="-4.43349667">
        <ele>530.0</ele>
        <time>2018-05-29T10:08:09.100Z</time>
      </trkpt>
      <trkpt lat="37.42698833" lon="-4.43341333">
        <ele>530.0</ele>
        <time>2018-05-29T10:08:10.092Z</time>
      </trkpt>
      <trkpt lat="37.42698833" lon="-4.43341333">
        <ele>530.0</ele>
        <time>2018-05-29T10:08:11.058Z</time>
      </trkpt>
      <trkpt lat="37.427" lon="-4.43333833">
        <ele>530.0</ele>
        <time>2018-05-29T10:08:12.083Z</time>
      </trkpt>
      <trkpt lat="37.42701" lon="-4.433265">
        <ele>530.0</ele>
        <time>2018-05-29T10:08:13.090Z</time>
      </trkpt>
      <trkpt lat="37.42701" lon="-4.43323">
        <ele>530.0</ele>
        <time>2018-05-29T10:08:14.097Z</time>
      </trkpt>
      <trkpt lat="37.42701" lon="-4.43323">
        <ele>530.0</ele>
        <time>2018-05-29T10:08:15.078Z</time>
      </trkpt>
      <trkpt lat="37.42701" lon="-4.43323">
        <ele>530.0</ele>
        <time>2018-05-29T10:08:16.087Z</time>
      </trkpt>
      <trkpt lat="37.42700667" lon="-4.43314833">
        <ele>530.0</ele>
        <time>2018-05-29T10:08:17.059Z</time>
      </trkpt>
      <trkpt lat="37.42700667" lon="-4.43314833">
        <ele>530.0</ele>
        <time>2018-05-29T10:08:18.066Z</time>
      </trkpt>
      <trkpt lat="37.42699667" lon="-4.433065">
        <ele>531.0</ele>
        <time>2018-05-29T10:08:19.088Z</time>
      </trkpt>
      <trkpt lat="37.426985" lon="-4.43298167">
        <ele>531.0</ele>
        <time>2018-05-29T10:08:20.250Z</time>
      </trkpt>
      <trkpt lat="37.426985" lon="-4.43298167">
        <ele>531.0</ele>
        <time>2018-05-29T10:08:21.088Z</time>
      </trkpt>
      <trkpt lat="37.42697667" lon="-4.43289833">
        <ele>531.0</ele>
        <time>2018-05-29T10:08:22.103Z</time>
      </trkpt>
      <trkpt lat="37.42697667" lon="-4.43289833">
        <ele>531.0</ele>
        <time>2018-05-29T10:08:23.086Z</time>
      </trkpt>
      <trkpt lat="37.42697667" lon="-4.43289833">
        <ele>531.0</ele>
        <time>2018-05-29T10:08:24.097Z</time>
      </trkpt>
      <trkpt lat="37.42696167" lon="-4.43282167">
        <ele>531.0</ele>
        <time>2018-05-29T10:08:25.077Z</time>
      </trkpt>
      <trkpt lat="37.42695167" lon="-4.43278333">
        <ele>531.0</ele>
        <time>2018-05-29T10:08:26.069Z</time>
      </trkpt>
      <trkpt lat="37.42695167" lon="-4.43278333">
        <ele>531.0</ele>
        <time>2018-05-29T10:08:27.082Z</time>
      </trkpt>
      <trkpt lat="37.42693667" lon="-4.432705">
        <ele>531.0</ele>
        <time>2018-05-29T10:08:28.059Z</time>
      </trkpt>
      <trkpt lat="37.42693667" lon="-4.432705">
        <ele>531.0</ele>
        <time>2018-05-29T10:08:29.066Z</time>
      </trkpt>
      <trkpt lat="37.42692167" lon="-4.43263167">
        <ele>531.0</ele>
        <time>2018-05-29T10:08:30.092Z</time>
      </trkpt>
      <trkpt lat="37.42692167" lon="-4.43263167">
        <ele>531.0</ele>
        <time>2018-05-29T10:08:31.091Z</time>
      </trkpt>
      <trkpt lat="37.42691167" lon="-4.43255833">
        <ele>531.0</ele>
        <time>2018-05-29T10:08:32.070Z</time>
      </trkpt>
      <trkpt lat="37.4269" lon="-4.432485">
        <ele>531.0</ele>
        <time>2018-05-29T10:08:33.092Z</time>
      </trkpt>
      <trkpt lat="37.4269" lon="-4.432485">
        <ele>531.0</ele>
        <time>2018-05-29T10:08:34.085Z</time>
      </trkpt>
      <trkpt lat="37.4269" lon="-4.432485">
        <ele>531.0</ele>
        <time>2018-05-29T10:08:35.091Z</time>
      </trkpt>
      <trkpt lat="37.42688667" lon="-4.43240667">
        <ele>531.0</ele>
        <time>2018-05-29T10:08:36.068Z</time>
      </trkpt>
      <trkpt lat="37.42688" lon="-4.432365">
        <ele>532.0</ele>
        <time>2018-05-29T10:08:37.061Z</time>
      </trkpt>
      <trkpt lat="37.42688" lon="-4.432365">
        <ele>532.0</ele>
        <time>2018-05-29T10:08:38.068Z</time>
      </trkpt>
      <trkpt lat="37.42686833" lon="-4.432285">
        <ele>532.0</ele>
        <time>2018-05-29T10:08:39.057Z</time>
      </trkpt>
      <trkpt lat="37.42686833" lon="-4.432285">
        <ele>532.0</ele>
        <time>2018-05-29T10:08:40.063Z</time>
      </trkpt>
      <trkpt lat="37.42685333" lon="-4.43216667">
        <ele>532.0</ele>
        <time>2018-05-29T10:08:41.089Z</time>
      </trkpt>
      <trkpt lat="37.42685333" lon="-4.43216667">
        <ele>532.0</ele>
        <time>2018-05-29T10:08:42.095Z</time>
      </trkpt>
      <trkpt lat="37.42685333" lon="-4.43216667">
        <ele>532.0</ele>
        <time>2018-05-29T10:08:43.061Z</time>
      </trkpt>
      <trkpt lat="37.426845" lon="-4.43208667">
        <ele>532.0</ele>
        <time>2018-05-29T10:08:44.092Z</time>
      </trkpt>
      <trkpt lat="37.42684333" lon="-4.43204333">
        <ele>532.0</ele>
        <time>2018-05-29T10:08:45.088Z</time>
      </trkpt>
      <trkpt lat="37.42684333" lon="-4.43204333">
        <ele>532.0</ele>
        <time>2018-05-29T10:08:46.092Z</time>
      </trkpt>
      <trkpt lat="37.42684333" lon="-4.43195833">
        <ele>532.0</ele>
        <time>2018-05-29T10:08:47.056Z</time>
      </trkpt>
      <trkpt lat="37.42684333" lon="-4.43195833">
        <ele>532.0</ele>
        <time>2018-05-29T10:08:48.062Z</time>
      </trkpt>
      <trkpt lat="37.42684667" lon="-4.43187333">
        <ele>532.0</ele>
        <time>2018-05-29T10:08:49.084Z</time>
      </trkpt>
      <trkpt lat="37.42684667" lon="-4.43187333">
        <ele>532.0</ele>
        <time>2018-05-29T10:08:50.062Z</time>
      </trkpt>
      <trkpt lat="37.42684833" lon="-4.43179167">
        <ele>533.0</ele>
        <time>2018-05-29T10:08:51.082Z</time>
      </trkpt>
      <trkpt lat="37.42684833" lon="-4.43179167">
        <ele>533.0</ele>
        <time>2018-05-29T10:08:52.088Z</time>
      </trkpt>
      <trkpt lat="37.42685333" lon="-4.43170833">
        <ele>533.0</ele>
        <time>2018-05-29T10:08:53.096Z</time>
      </trkpt>
      <trkpt lat="37.42685333" lon="-4.43170833">
        <ele>533.0</ele>
        <time>2018-05-29T10:08:54.063Z</time>
      </trkpt>
      <trkpt lat="37.42685833" lon="-4.43162333">
        <ele>533.0</ele>
        <time>2018-05-29T10:08:55.058Z</time>
      </trkpt>
      <trkpt lat="37.42685833" lon="-4.43162333">
        <ele>533.0</ele>
        <time>2018-05-29T10:08:56.065Z</time>
      </trkpt>
      <trkpt lat="37.42686" lon="-4.43154667">
        <ele>533.0</ele>
        <time>2018-05-29T10:08:57.056Z</time>
      </trkpt>
      <trkpt lat="37.42686167" lon="-4.43150833">
        <ele>533.0</ele>
        <time>2018-05-29T10:08:58.091Z</time>
      </trkpt>
      <trkpt lat="37.42686333" lon="-4.43143167">
        <ele>533.0</ele>
        <time>2018-05-29T10:08:59.096Z</time>
      </trkpt>
      <trkpt lat="37.42686333" lon="-4.43143167">
        <ele>533.0</ele>
        <time>2018-05-29T10:09:00.069Z</time>
      </trkpt>
      <trkpt lat="37.42686333" lon="-4.43143167">
        <ele>533.0</ele>
        <time>2018-05-29T10:09:01.096Z</time>
      </trkpt>
      <trkpt lat="37.426865" lon="-4.43135667">
        <ele>533.0</ele>
        <time>2018-05-29T10:09:02.083Z</time>
      </trkpt>
      <trkpt lat="37.42687" lon="-4.431285">
        <ele>533.0</ele>
        <time>2018-05-29T10:09:03.099Z</time>
      </trkpt>
      <trkpt lat="37.42687" lon="-4.431285">
        <ele>533.0</ele>
        <time>2018-05-29T10:09:04.078Z</time>
      </trkpt>
      <trkpt lat="37.42687" lon="-4.431285">
        <ele>533.0</ele>
        <time>2018-05-29T10:09:05.087Z</time>
      </trkpt>
      <trkpt lat="37.42687" lon="-4.43121333">
        <ele>534.0</ele>
        <time>2018-05-29T10:09:06.084Z</time>
      </trkpt>
      <trkpt lat="37.426865" lon="-4.43117667">
        <ele>534.0</ele>
        <time>2018-05-29T10:09:07.061Z</time>
      </trkpt>
      <trkpt lat="37.426865" lon="-4.43117667">
        <ele>534.0</ele>
        <time>2018-05-29T10:09:08.068Z</time>
      </trkpt>
      <trkpt lat="37.42686167" lon="-4.431105">
        <ele>534.0</ele>
        <time>2018-05-29T10:09:09.098Z</time>
      </trkpt>
      <trkpt lat="37.42685833" lon="-4.43106833">
        <ele>534.0</ele>
        <time>2018-05-29T10:09:10.087Z</time>
      </trkpt>
      <trkpt lat="37.426855" lon="-4.43103167">
        <ele>534.0</ele>
        <time>2018-05-29T10:09:11.072Z</time>
      </trkpt>
      <trkpt lat="37.42685167" lon="-4.430995">
        <ele>534.0</ele>
        <time>2018-05-29T10:09:12.069Z</time>
      </trkpt>
      <trkpt lat="37.42684833" lon="-4.43096167">
        <ele>534.0</ele>
        <time>2018-05-29T10:09:13.089Z</time>
      </trkpt>
      <trkpt lat="37.42684667" lon="-4.43088833">
        <ele>534.0</ele>
        <time>2018-05-29T10:09:14.100Z</time>
      </trkpt>
      <trkpt lat="37.42684667" lon="-4.43088833">
        <ele>534.0</ele>
        <time>2018-05-29T10:09:15.094Z</time>
      </trkpt>
      <trkpt lat="37.42684667" lon="-4.43088833">
        <ele>534.0</ele>
        <time>2018-05-29T10:09:16.070Z</time>
      </trkpt>
      <trkpt lat="37.42684167" lon="-4.43081167">
        <ele>534.0</ele>
        <time>2018-05-29T10:09:17.059Z</time>
      </trkpt>
      <trkpt lat="37.42683833" lon="-4.43074">
        <ele>535.0</ele>
        <time>2018-05-29T10:09:18.110Z</time>
      </trkpt>
      <trkpt lat="37.42683833" lon="-4.43074">
        <ele>535.0</ele>
        <time>2018-05-29T10:09:19.081Z</time>
      </trkpt>
      <trkpt lat="37.42683833" lon="-4.43074">
        <ele>535.0</ele>
        <time>2018-05-29T10:09:20.095Z</time>
      </trkpt>
      <trkpt lat="37.42683833" lon="-4.43066833">
        <ele>535.0</ele>
        <time>2018-05-29T10:09:21.081Z</time>
      </trkpt>
      <trkpt lat="37.42683833" lon="-4.43059167">
        <ele>535.0</ele>
        <time>2018-05-29T10:09:22.094Z</time>
      </trkpt>
      <trkpt lat="37.42683833" lon="-4.43059167">
        <ele>535.0</ele>
        <time>2018-05-29T10:09:23.083Z</time>
      </trkpt>
      <trkpt lat="37.42683667" lon="-4.43055333">
        <ele>535.0</ele>
        <time>2018-05-29T10:09:24.062Z</time>
      </trkpt>
      <trkpt lat="37.42683667" lon="-4.43055333">
        <ele>535.0</ele>
        <time>2018-05-29T10:09:25.083Z</time>
      </trkpt>
      <trkpt lat="37.42683" lon="-4.430475">
        <ele>535.0</ele>
        <time>2018-05-29T10:09:26.083Z</time>
      </trkpt>
      <trkpt lat="37.42683" lon="-4.430435">
        <ele>535.0</ele>
        <time>2018-05-29T10:09:27.093Z</time>
      </trkpt>
      <trkpt lat="37.42683" lon="-4.430435">
        <ele>535.0</ele>
        <time>2018-05-29T10:09:28.070Z</time>
      </trkpt>
      <trkpt lat="37.42682333" lon="-4.43036">
        <ele>535.0</ele>
        <time>2018-05-29T10:09:29.071Z</time>
      </trkpt>
      <trkpt lat="37.42681833" lon="-4.43032167">
        <ele>535.0</ele>
        <time>2018-05-29T10:09:30.062Z</time>
      </trkpt>
      <trkpt lat="37.42681833" lon="-4.43032167">
        <ele>535.0</ele>
        <time>2018-05-29T10:09:31.077Z</time>
      </trkpt>
      <trkpt lat="37.42680167" lon="-4.43022167">
        <ele>536.0</ele>
        <time>2018-05-29T10:09:32.096Z</time>
      </trkpt>
      <trkpt lat="37.42680167" lon="-4.43022167">
        <ele>536.0</ele>
        <time>2018-05-29T10:09:33.067Z</time>
      </trkpt>
      <trkpt lat="37.42680167" lon="-4.43022167">
        <ele>536.0</ele>
        <time>2018-05-29T10:09:34.064Z</time>
      </trkpt>
      <trkpt lat="37.42677833" lon="-4.43015833">
        <ele>536.0</ele>
        <time>2018-05-29T10:09:35.061Z</time>
      </trkpt>
      <trkpt lat="37.42676667" lon="-4.43012667">
        <ele>536.0</ele>
        <time>2018-05-29T10:09:36.085Z</time>
      </trkpt>
      <trkpt lat="37.42676667" lon="-4.43012667">
        <ele>536.0</ele>
        <time>2018-05-29T10:09:37.056Z</time>
      </trkpt>
      <trkpt lat="37.42675" lon="-4.43006">
        <ele>536.0</ele>
        <time>2018-05-29T10:09:38.082Z</time>
      </trkpt>
      <trkpt lat="37.42673333" lon="-4.42999333">
        <ele>536.0</ele>
        <time>2018-05-29T10:09:39.109Z</time>
      </trkpt>
      <trkpt lat="37.42673333" lon="-4.42999333">
        <ele>536.0</ele>
        <time>2018-05-29T10:09:40.091Z</time>
      </trkpt>
      <trkpt lat="37.42673333" lon="-4.42999333">
        <ele>536.0</ele>
        <time>2018-05-29T10:09:41.058Z</time>
      </trkpt>
      <trkpt lat="37.42673167" lon="-4.42992167">
        <ele>536.0</ele>
        <time>2018-05-29T10:09:42.085Z</time>
      </trkpt>
      <trkpt lat="37.42674" lon="-4.42988667">
        <ele>536.0</ele>
        <time>2018-05-29T10:09:43.094Z</time>
      </trkpt>
      <trkpt lat="37.42674" lon="-4.42988667">
        <ele>536.0</ele>
        <time>2018-05-29T10:09:44.060Z</time>
      </trkpt>
      <trkpt lat="37.42676667" lon="-4.42982">
        <ele>536.0</ele>
        <time>2018-05-29T10:09:45.085Z</time>
      </trkpt>
      <trkpt lat="37.42678167" lon="-4.429785">
        <ele>537.0</ele>
        <time>2018-05-29T10:09:46.057Z</time>
      </trkpt>
      <trkpt lat="37.42678167" lon="-4.429785">
        <ele>537.0</ele>
        <time>2018-05-29T10:09:47.066Z</time>
      </trkpt>
      <trkpt lat="37.42681" lon="-4.42971833">
        <ele>537.0</ele>
        <time>2018-05-29T10:09:48.066Z</time>
      </trkpt>
      <trkpt lat="37.42681" lon="-4.42971833">
        <ele>537.0</ele>
        <time>2018-05-29T10:09:49.086Z</time>
      </trkpt>
      <trkpt lat="37.42684333" lon="-4.42965167">
        <ele>537.0</ele>
        <time>2018-05-29T10:09:50.071Z</time>
      </trkpt>
      <trkpt lat="37.42684333" lon="-4.42965167">
        <ele>537.0</ele>
        <time>2018-05-29T10:09:51.090Z</time>
      </trkpt>
      <trkpt lat="37.42688" lon="-4.429585">
        <ele>537.0</ele>
        <time>2018-05-29T10:09:52.072Z</time>
      </trkpt>
      <trkpt lat="37.42691833" lon="-4.42951333">
        <ele>537.0</ele>
        <time>2018-05-29T10:09:53.106Z</time>
      </trkpt>
      <trkpt lat="37.42691833" lon="-4.42951333">
        <ele>537.0</ele>
        <time>2018-05-29T10:09:54.075Z</time>
      </trkpt>
      <trkpt lat="37.42691833" lon="-4.42951333">
        <ele>537.0</ele>
        <time>2018-05-29T10:09:55.085Z</time>
      </trkpt>
      <trkpt lat="37.426955" lon="-4.429445">
        <ele>537.0</ele>
        <time>2018-05-29T10:09:56.062Z</time>
      </trkpt>
      <trkpt lat="37.426955" lon="-4.429445">
        <ele>537.0</ele>
        <time>2018-05-29T10:09:57.068Z</time>
      </trkpt>
      <trkpt lat="37.42697833" lon="-4.42936667">
        <ele>537.0</ele>
        <time>2018-05-29T10:09:58.092Z</time>
      </trkpt>
      <trkpt lat="37.42697833" lon="-4.42936667">
        <ele>537.0</ele>
        <time>2018-05-29T10:09:59.072Z</time>
      </trkpt>
      <trkpt lat="37.42697" lon="-4.42928833">
        <ele>537.0</ele>
        <time>2018-05-29T10:10:00.071Z</time>
      </trkpt>
      <trkpt lat="37.42695" lon="-4.42921333">
        <ele>538.0</ele>
        <time>2018-05-29T10:10:01.090Z</time>
      </trkpt>
      <trkpt lat="37.42695" lon="-4.42921333">
        <ele>538.0</ele>
        <time>2018-05-29T10:10:02.071Z</time>
      </trkpt>
      <trkpt lat="37.42693833" lon="-4.429175">
        <ele>538.0</ele>
        <time>2018-05-29T10:10:03.063Z</time>
      </trkpt>
      <trkpt lat="37.42693833" lon="-4.429175">
        <ele>538.0</ele>
        <time>2018-05-29T10:10:04.071Z</time>
      </trkpt>
      <trkpt lat="37.42691833" lon="-4.42909833">
        <ele>538.0</ele>
        <time>2018-05-29T10:10:05.070Z</time>
      </trkpt>
      <trkpt lat="37.42690833" lon="-4.42906167">
        <ele>538.0</ele>
        <time>2018-05-29T10:10:06.062Z</time>
      </trkpt>
      <trkpt lat="37.42690833" lon="-4.42906167">
        <ele>538.0</ele>
        <time>2018-05-29T10:10:07.069Z</time>
      </trkpt>
      <trkpt lat="37.426885" lon="-4.42898833">
        <ele>537.0</ele>
        <time>2018-05-29T10:10:08.098Z</time>
      </trkpt>
      <trkpt lat="37.426885" lon="-4.42898833">
        <ele>537.0</ele>
        <time>2018-05-29T10:10:09.068Z</time>
      </trkpt>
      <trkpt lat="37.42684833" lon="-4.42891833">
        <ele>537.0</ele>
        <time>2018-05-29T10:10:10.059Z</time>
      </trkpt>
      <trkpt lat="37.42684833" lon="-4.42891833">
        <ele>537.0</ele>
        <time>2018-05-29T10:10:11.067Z</time>
      </trkpt>
      <trkpt lat="37.42680167" lon="-4.428865">
        <ele>538.0</ele>
        <time>2018-05-29T10:10:12.080Z</time>
      </trkpt>
      <trkpt lat="37.42675333" lon="-4.42884167">
        <ele>539.0</ele>
        <time>2018-05-29T10:10:13.092Z</time>
      </trkpt>
      <trkpt lat="37.42675333" lon="-4.42884167">
        <ele>539.0</ele>
        <time>2018-05-29T10:10:14.080Z</time>
      </trkpt>
      <trkpt lat="37.42672833" lon="-4.42883333">
        <ele>539.0</ele>
        <time>2018-05-29T10:10:15.061Z</time>
      </trkpt>
      <trkpt lat="37.42672833" lon="-4.42883333">
        <ele>539.0</ele>
        <time>2018-05-29T10:10:16.068Z</time>
      </trkpt>
      <trkpt lat="37.42667" lon="-4.42883833">
        <ele>540.0</ele>
        <time>2018-05-29T10:10:17.065Z</time>
      </trkpt>
      <trkpt lat="37.42663667" lon="-4.428845">
        <ele>540.0</ele>
        <time>2018-05-29T10:10:18.067Z</time>
      </trkpt>
      <trkpt lat="37.42660333" lon="-4.42885667">
        <ele>540.0</ele>
        <time>2018-05-29T10:10:19.068Z</time>
      </trkpt>
      <trkpt lat="37.42660333" lon="-4.42885667">
        <ele>540.0</ele>
        <time>2018-05-29T10:10:20.086Z</time>
      </trkpt>
      <trkpt lat="37.42653" lon="-4.42888833">
        <ele>540.0</ele>
        <time>2018-05-29T10:10:21.081Z</time>
      </trkpt>
      <trkpt lat="37.42645167" lon="-4.42891667">
        <ele>541.0</ele>
        <time>2018-05-29T10:10:22.101Z</time>
      </trkpt>
      <trkpt lat="37.42641" lon="-4.42892667">
        <ele>541.0</ele>
        <time>2018-05-29T10:10:23.101Z</time>
      </trkpt>
      <trkpt lat="37.42641" lon="-4.42892667">
        <ele>541.0</ele>
        <time>2018-05-29T10:10:24.081Z</time>
      </trkpt>
      <trkpt lat="37.42632" lon="-4.42894833">
        <ele>541.0</ele>
        <time>2018-05-29T10:10:25.090Z</time>
      </trkpt>
      <trkpt lat="37.42632" lon="-4.42894833">
        <ele>541.0</ele>
        <time>2018-05-29T10:10:26.079Z</time>
      </trkpt>
      <trkpt lat="37.42632" lon="-4.42894833">
        <ele>541.0</ele>
        <time>2018-05-29T10:10:27.086Z</time>
      </trkpt>
      <trkpt lat="37.42622167" lon="-4.42897333">
        <ele>540.0</ele>
        <time>2018-05-29T10:10:28.080Z</time>
      </trkpt>
      <trkpt lat="37.42622167" lon="-4.42897333">
        <ele>540.0</ele>
        <time>2018-05-29T10:10:29.090Z</time>
      </trkpt>
      <trkpt lat="37.42611167" lon="-4.42900833">
        <ele>540.0</ele>
        <time>2018-05-29T10:10:30.082Z</time>
      </trkpt>
      <trkpt lat="37.42598167" lon="-4.42904833">
        <ele>539.0</ele>
        <time>2018-05-29T10:10:31.093Z</time>
      </trkpt>
      <trkpt lat="37.42598167" lon="-4.42904833">
        <ele>539.0</ele>
        <time>2018-05-29T10:10:32.085Z</time>
      </trkpt>
      <trkpt lat="37.42591" lon="-4.42907">
        <ele>539.0</ele>
        <time>2018-05-29T10:10:33.067Z</time>
      </trkpt>
      <trkpt lat="37.425755" lon="-4.42912">
        <ele>537.0</ele>
        <time>2018-05-29T10:10:34.088Z</time>
      </trkpt>
      <trkpt lat="37.42567333" lon="-4.42915167">
        <ele>537.0</ele>
        <time>2018-05-29T10:10:35.097Z</time>
      </trkpt>
      <trkpt lat="37.42567333" lon="-4.42915167">
        <ele>537.0</ele>
        <time>2018-05-29T10:10:36.091Z</time>
      </trkpt>
      <trkpt lat="37.42567333" lon="-4.42915167">
        <ele>537.0</ele>
        <time>2018-05-29T10:10:37.057Z</time>
      </trkpt>
      <trkpt lat="37.42550167" lon="-4.42921667">
        <ele>536.0</ele>
        <time>2018-05-29T10:10:38.087Z</time>
      </trkpt>
      <trkpt lat="37.42532" lon="-4.42927833">
        <ele>535.0</ele>
        <time>2018-05-29T10:10:39.100Z</time>
      </trkpt>
      <trkpt lat="37.425225" lon="-4.42930667">
        <ele>535.0</ele>
        <time>2018-05-29T10:10:40.089Z</time>
      </trkpt>
      <trkpt lat="37.425225" lon="-4.42930667">
        <ele>535.0</ele>
        <time>2018-05-29T10:10:41.074Z</time>
      </trkpt>
      <trkpt lat="37.42513" lon="-4.42933667">
        <ele>534.0</ele>
        <time>2018-05-29T10:10:42.061Z</time>
      </trkpt>
      <trkpt lat="37.42513" lon="-4.42933667">
        <ele>534.0</ele>
        <time>2018-05-29T10:10:43.068Z</time>
      </trkpt>
      <trkpt lat="37.42493667" lon="-4.42938667">
        <ele>534.0</ele>
        <time>2018-05-29T10:10:44.087Z</time>
      </trkpt>
      <trkpt lat="37.42493667" lon="-4.42938667">
        <ele>534.0</ele>
        <time>2018-05-29T10:10:45.096Z</time>
      </trkpt>
      <trkpt lat="37.424745" lon="-4.42942333">
        <ele>533.0</ele>
        <time>2018-05-29T10:10:46.072Z</time>
      </trkpt>
      <trkpt lat="37.424745" lon="-4.42942333">
        <ele>533.0</ele>
        <time>2018-05-29T10:10:47.086Z</time>
      </trkpt>
      <trkpt lat="37.42456167" lon="-4.429445">
        <ele>532.0</ele>
        <time>2018-05-29T10:10:48.066Z</time>
      </trkpt>
      <trkpt lat="37.42456167" lon="-4.429445">
        <ele>532.0</ele>
        <time>2018-05-29T10:10:49.082Z</time>
      </trkpt>
      <trkpt lat="37.42437833" lon="-4.42941333">
        <ele>531.0</ele>
        <time>2018-05-29T10:10:50.072Z</time>
      </trkpt>
      <trkpt lat="37.42429333" lon="-4.42935833">
        <ele>530.0</ele>
        <time>2018-05-29T10:10:51.087Z</time>
      </trkpt>
      <trkpt lat="37.42429333" lon="-4.42935833">
        <ele>530.0</ele>
        <time>2018-05-29T10:10:52.096Z</time>
      </trkpt>
      <trkpt lat="37.42416" lon="-4.42918">
        <ele>529.0</ele>
        <time>2018-05-29T10:10:53.083Z</time>
      </trkpt>
      <trkpt lat="37.42411333" lon="-4.42907667">
        <ele>528.0</ele>
        <time>2018-05-29T10:10:54.070Z</time>
      </trkpt>
      <trkpt lat="37.42406833" lon="-4.42897167">
        <ele>528.0</ele>
        <time>2018-05-29T10:10:55.081Z</time>
      </trkpt>
      <trkpt lat="37.423975" lon="-4.428775">
        <ele>528.0</ele>
        <time>2018-05-29T10:10:56.090Z</time>
      </trkpt>
      <trkpt lat="37.423975" lon="-4.428775">
        <ele>528.0</ele>
        <time>2018-05-29T10:10:57.094Z</time>
      </trkpt>
      <trkpt lat="37.42393167" lon="-4.42868">
        <ele>528.0</ele>
        <time>2018-05-29T10:10:58.095Z</time>
      </trkpt>
      <trkpt lat="37.42386167" lon="-4.42850833">
        <ele>528.0</ele>
        <time>2018-05-29T10:10:59.085Z</time>
      </trkpt>
      <trkpt lat="37.42386167" lon="-4.42850833">
        <ele>528.0</ele>
        <time>2018-05-29T10:11:00.065Z</time>
      </trkpt>
      <trkpt lat="37.42383333" lon="-4.42843833">
        <ele>529.0</ele>
        <time>2018-05-29T10:11:01.140Z</time>
      </trkpt>
      <trkpt lat="37.42380833" lon="-4.42837833">
        <ele>529.0</ele>
        <time>2018-05-29T10:11:02.092Z</time>
      </trkpt>
      <trkpt lat="37.42380833" lon="-4.42837833">
        <ele>529.0</ele>
        <time>2018-05-29T10:11:03.094Z</time>
      </trkpt>
      <trkpt lat="37.42376333" lon="-4.42826833">
        <ele>528.0</ele>
        <time>2018-05-29T10:11:04.089Z</time>
      </trkpt>
      <trkpt lat="37.42376333" lon="-4.42826833">
        <ele>528.0</ele>
        <time>2018-05-29T10:11:05.090Z</time>
      </trkpt>
      <trkpt lat="37.42371333" lon="-4.42817833">
        <ele>528.0</ele>
        <time>2018-05-29T10:11:06.091Z</time>
      </trkpt>
      <trkpt lat="37.42371333" lon="-4.42817833">
        <ele>528.0</ele>
        <time>2018-05-29T10:11:07.092Z</time>
      </trkpt>
      <trkpt lat="37.42365333" lon="-4.42810167">
        <ele>528.0</ele>
        <time>2018-05-29T10:11:08.072Z</time>
      </trkpt>
      <trkpt lat="37.42365333" lon="-4.42810167">
        <ele>528.0</ele>
        <time>2018-05-29T10:11:09.068Z</time>
      </trkpt>
      <trkpt lat="37.42358833" lon="-4.42805333">
        <ele>528.0</ele>
        <time>2018-05-29T10:11:10.090Z</time>
      </trkpt>
      <trkpt lat="37.42358833" lon="-4.42805333">
        <ele>528.0</ele>
        <time>2018-05-29T10:11:11.095Z</time>
      </trkpt>
      <trkpt lat="37.42351833" lon="-4.42802667">
        <ele>528.0</ele>
        <time>2018-05-29T10:11:12.086Z</time>
      </trkpt>
      <trkpt lat="37.42344833" lon="-4.42801667">
        <ele>528.0</ele>
        <time>2018-05-29T10:11:13.093Z</time>
      </trkpt>
      <trkpt lat="37.42344833" lon="-4.42801667">
        <ele>528.0</ele>
        <time>2018-05-29T10:11:14.086Z</time>
      </trkpt>
      <trkpt lat="37.42339" lon="-4.42802167">
        <ele>528.0</ele>
        <time>2018-05-29T10:11:15.094Z</time>
      </trkpt>
      <trkpt lat="37.42339" lon="-4.42802167">
        <ele>528.0</ele>
        <time>2018-05-29T10:11:16.089Z</time>
      </trkpt>
      <trkpt lat="37.423365" lon="-4.42803">
        <ele>528.0</ele>
        <time>2018-05-29T10:11:17.095Z</time>
      </trkpt>
      <trkpt lat="37.423365" lon="-4.42803">
        <ele>528.0</ele>
        <time>2018-05-29T10:11:18.092Z</time>
      </trkpt>
      <trkpt lat="37.42335667" lon="-4.42800167">
        <ele>528.0</ele>
        <time>2018-05-29T10:11:19.092Z</time>
      </trkpt>
      <trkpt lat="37.423385" lon="-4.42799">
        <ele>529.0</ele>
        <time>2018-05-29T10:11:20.089Z</time>
      </trkpt>
      <trkpt lat="37.423385" lon="-4.42799">
        <ele>529.0</ele>
        <time>2018-05-29T10:11:21.091Z</time>
      </trkpt>
      <trkpt lat="37.42345" lon="-4.42798333">
        <ele>529.0</ele>
        <time>2018-05-29T10:11:22.089Z</time>
      </trkpt>
      <trkpt lat="37.42345" lon="-4.42798333">
        <ele>529.0</ele>
        <time>2018-05-29T10:11:23.069Z</time>
      </trkpt>
      <trkpt lat="37.42352333" lon="-4.42798333">
        <ele>528.0</ele>
        <time>2018-05-29T10:11:24.057Z</time>
      </trkpt>
      <trkpt lat="37.42352333" lon="-4.42798333">
        <ele>528.0</ele>
        <time>2018-05-29T10:11:25.060Z</time>
      </trkpt>
      <trkpt lat="37.42360167" lon="-4.42799667">
        <ele>528.0</ele>
        <time>2018-05-29T10:11:26.087Z</time>
      </trkpt>
      <trkpt lat="37.42360167" lon="-4.42799667">
        <ele>528.0</ele>
        <time>2018-05-29T10:11:27.092Z</time>
      </trkpt>
      <trkpt lat="37.42371833" lon="-4.428075">
        <ele>528.0</ele>
        <time>2018-05-29T10:11:28.093Z</time>
      </trkpt>
      <trkpt lat="37.42371833" lon="-4.428075">
        <ele>528.0</ele>
        <time>2018-05-29T10:11:29.087Z</time>
      </trkpt>
      <trkpt lat="37.42371833" lon="-4.428075">
        <ele>528.0</ele>
        <time>2018-05-29T10:11:30.091Z</time>
      </trkpt>
      <trkpt lat="37.42381" lon="-4.42821333">
        <ele>528.0</ele>
        <time>2018-05-29T10:11:31.094Z</time>
      </trkpt>
      <trkpt lat="37.42381" lon="-4.42821333">
        <ele>528.0</ele>
        <time>2018-05-29T10:11:32.061Z</time>
      </trkpt>
      <trkpt lat="37.42381" lon="-4.42821333">
        <ele>528.0</ele>
        <time>2018-05-29T10:11:33.066Z</time>
      </trkpt>
      <trkpt lat="37.423855" lon="-4.42832167">
        <ele>528.0</ele>
        <time>2018-05-29T10:11:34.091Z</time>
      </trkpt>
      <trkpt lat="37.423855" lon="-4.42832167">
        <ele>528.0</ele>
        <time>2018-05-29T10:11:35.094Z</time>
      </trkpt>
      <trkpt lat="37.4239" lon="-4.42843">
        <ele>528.0</ele>
        <time>2018-05-29T10:11:36.061Z</time>
      </trkpt>
      <trkpt lat="37.4239" lon="-4.42843">
        <ele>528.0</ele>
        <time>2018-05-29T10:11:37.094Z</time>
      </trkpt>
      <trkpt lat="37.42394833" lon="-4.42853833">
        <ele>528.0</ele>
        <time>2018-05-29T10:11:38.064Z</time>
      </trkpt>
      <trkpt lat="37.42394833" lon="-4.42853833">
        <ele>528.0</ele>
        <time>2018-05-29T10:11:39.071Z</time>
      </trkpt>
      <trkpt lat="37.42399667" lon="-4.42864667">
        <ele>528.0</ele>
        <time>2018-05-29T10:11:40.060Z</time>
      </trkpt>
      <trkpt lat="37.42402333" lon="-4.42870167">
        <ele>528.0</ele>
        <time>2018-05-29T10:11:41.090Z</time>
      </trkpt>
      <trkpt lat="37.42402333" lon="-4.42870167">
        <ele>528.0</ele>
        <time>2018-05-29T10:11:42.091Z</time>
      </trkpt>
      <trkpt lat="37.42407167" lon="-4.42881333">
        <ele>528.0</ele>
        <time>2018-05-29T10:11:43.092Z</time>
      </trkpt>
      <trkpt lat="37.42409667" lon="-4.42887">
        <ele>528.0</ele>
        <time>2018-05-29T10:11:44.091Z</time>
      </trkpt>
      <trkpt lat="37.42409667" lon="-4.42887">
        <ele>528.0</ele>
        <time>2018-05-29T10:11:45.093Z</time>
      </trkpt>
      <trkpt lat="37.42414833" lon="-4.42897833">
        <ele>528.0</ele>
        <time>2018-05-29T10:11:46.061Z</time>
      </trkpt>
      <trkpt lat="37.42414833" lon="-4.42897833">
        <ele>528.0</ele>
        <time>2018-05-29T10:11:47.063Z</time>
      </trkpt>
      <trkpt lat="37.42419833" lon="-4.42908667">
        <ele>528.0</ele>
        <time>2018-05-29T10:11:48.078Z</time>
      </trkpt>
      <trkpt lat="37.424245" lon="-4.429195">
        <ele>528.0</ele>
        <time>2018-05-29T10:11:49.103Z</time>
      </trkpt>
      <trkpt lat="37.424245" lon="-4.429195">
        <ele>528.0</ele>
        <time>2018-05-29T10:11:50.081Z</time>
      </trkpt>
      <trkpt lat="37.42430167" lon="-4.42928833">
        <ele>528.0</ele>
        <time>2018-05-29T10:11:51.094Z</time>
      </trkpt>
      <trkpt lat="37.42430167" lon="-4.42928833">
        <ele>528.0</ele>
        <time>2018-05-29T10:11:52.095Z</time>
      </trkpt>
      <trkpt lat="37.42436667" lon="-4.42935667">
        <ele>528.0</ele>
        <time>2018-05-29T10:11:53.081Z</time>
      </trkpt>
      <trkpt lat="37.42436667" lon="-4.42935667">
        <ele>528.0</ele>
        <time>2018-05-29T10:11:54.063Z</time>
      </trkpt>
      <trkpt lat="37.42443" lon="-4.42938">
        <ele>529.0</ele>
        <time>2018-05-29T10:11:55.093Z</time>
      </trkpt>
      <trkpt lat="37.42443" lon="-4.42938">
        <ele>529.0</ele>
        <time>2018-05-29T10:11:56.067Z</time>
      </trkpt>
      <trkpt lat="37.42443" lon="-4.42938">
        <ele>529.0</ele>
        <time>2018-05-29T10:11:57.088Z</time>
      </trkpt>
      <trkpt lat="37.42446833" lon="-4.42933833">
        <ele>529.0</ele>
        <time>2018-05-29T10:11:58.079Z</time>
      </trkpt>
      <trkpt lat="37.42446833" lon="-4.42927333">
        <ele>530.0</ele>
        <time>2018-05-29T10:11:59.088Z</time>
      </trkpt>
      <trkpt lat="37.42446833" lon="-4.42927333">
        <ele>530.0</ele>
        <time>2018-05-29T10:12:00.060Z</time>
      </trkpt>
      <trkpt lat="37.42446833" lon="-4.42927333">
        <ele>530.0</ele>
        <time>2018-05-29T10:12:01.067Z</time>
      </trkpt>
      <trkpt lat="37.42445833" lon="-4.42920333">
        <ele>530.0</ele>
        <time>2018-05-29T10:12:02.070Z</time>
      </trkpt>
      <trkpt lat="37.42445833" lon="-4.42920333">
        <ele>530.0</ele>
        <time>2018-05-29T10:12:03.091Z</time>
      </trkpt>
      <trkpt lat="37.42445" lon="-4.429135">
        <ele>531.0</ele>
        <time>2018-05-29T10:12:04.057Z</time>
      </trkpt>
      <trkpt lat="37.42445" lon="-4.429135">
        <ele>531.0</ele>
        <time>2018-05-29T10:12:05.064Z</time>
      </trkpt>
      <trkpt lat="37.42444167" lon="-4.42906667">
        <ele>531.0</ele>
        <time>2018-05-29T10:12:06.059Z</time>
      </trkpt>
      <trkpt lat="37.42444167" lon="-4.42906667">
        <ele>531.0</ele>
        <time>2018-05-29T10:12:07.066Z</time>
      </trkpt>
      <trkpt lat="37.42443167" lon="-4.429">
        <ele>531.0</ele>
        <time>2018-05-29T10:12:08.066Z</time>
      </trkpt>
      <trkpt lat="37.424425" lon="-4.42896667">
        <ele>531.0</ele>
        <time>2018-05-29T10:12:09.093Z</time>
      </trkpt>
      <trkpt lat="37.424425" lon="-4.42896667">
        <ele>531.0</ele>
        <time>2018-05-29T10:12:10.060Z</time>
      </trkpt>
      <trkpt lat="37.424395" lon="-4.42887">
        <ele>531.0</ele>
        <time>2018-05-29T10:12:11.096Z</time>
      </trkpt>
      <trkpt lat="37.424395" lon="-4.42887">
        <ele>531.0</ele>
        <time>2018-05-29T10:12:12.083Z</time>
      </trkpt>
      <trkpt lat="37.424395" lon="-4.42887">
        <ele>531.0</ele>
        <time>2018-05-29T10:12:13.091Z</time>
      </trkpt>
      <trkpt lat="37.42437667" lon="-4.42879833">
        <ele>532.0</ele>
        <time>2018-05-29T10:12:14.084Z</time>
      </trkpt>
      <trkpt lat="37.42436333" lon="-4.42872833">
        <ele>532.0</ele>
        <time>2018-05-29T10:12:15.112Z</time>
      </trkpt>
      <trkpt lat="37.42436333" lon="-4.42872833">
        <ele>532.0</ele>
        <time>2018-05-29T10:12:16.087Z</time>
      </trkpt>
      <trkpt lat="37.42436333" lon="-4.42872833">
        <ele>532.0</ele>
        <time>2018-05-29T10:12:17.066Z</time>
      </trkpt>
      <trkpt lat="37.42433833" lon="-4.42862667">
        <ele>533.0</ele>
        <time>2018-05-29T10:12:18.090Z</time>
      </trkpt>
      <trkpt lat="37.42433833" lon="-4.42862667">
        <ele>533.0</ele>
        <time>2018-05-29T10:12:19.095Z</time>
      </trkpt>
      <trkpt lat="37.42433833" lon="-4.42862667">
        <ele>533.0</ele>
        <time>2018-05-29T10:12:20.062Z</time>
      </trkpt>
      <trkpt lat="37.42432" lon="-4.42856167">
        <ele>533.0</ele>
        <time>2018-05-29T10:12:21.086Z</time>
      </trkpt>
      <trkpt lat="37.42430333" lon="-4.42849667">
        <ele>533.0</ele>
        <time>2018-05-29T10:12:22.093Z</time>
      </trkpt>
      <trkpt lat="37.42430333" lon="-4.42849667">
        <ele>533.0</ele>
        <time>2018-05-29T10:12:23.078Z</time>
      </trkpt>
      <trkpt lat="37.42428667" lon="-4.42843333">
        <ele>533.0</ele>
        <time>2018-05-29T10:12:24.102Z</time>
      </trkpt>
      <trkpt lat="37.42428667" lon="-4.42843333">
        <ele>533.0</ele>
        <time>2018-05-29T10:12:25.091Z</time>
      </trkpt>
      <trkpt lat="37.42428667" lon="-4.42843333">
        <ele>533.0</ele>
        <time>2018-05-29T10:12:26.057Z</time>
      </trkpt>
      <trkpt lat="37.42427167" lon="-4.42837">
        <ele>534.0</ele>
        <time>2018-05-29T10:12:27.064Z</time>
      </trkpt>
      <trkpt lat="37.42427167" lon="-4.42837">
        <ele>534.0</ele>
        <time>2018-05-29T10:12:28.071Z</time>
      </trkpt>
      <trkpt lat="37.42425667" lon="-4.42830667">
        <ele>534.0</ele>
        <time>2018-05-29T10:12:29.056Z</time>
      </trkpt>
      <trkpt lat="37.42425" lon="-4.42827333">
        <ele>534.0</ele>
        <time>2018-05-29T10:12:30.087Z</time>
      </trkpt>
      <trkpt lat="37.42423167" lon="-4.42821">
        <ele>534.0</ele>
        <time>2018-05-29T10:12:31.094Z</time>
      </trkpt>
      <trkpt lat="37.42423167" lon="-4.42821">
        <ele>534.0</ele>
        <time>2018-05-29T10:12:32.084Z</time>
      </trkpt>
      <trkpt lat="37.42422333" lon="-4.42818">
        <ele>534.0</ele>
        <time>2018-05-29T10:12:33.058Z</time>
      </trkpt>
      <trkpt lat="37.42422333" lon="-4.42818">
        <ele>534.0</ele>
        <time>2018-05-29T10:12:34.065Z</time>
      </trkpt>
      <trkpt lat="37.42420833" lon="-4.42812">
        <ele>535.0</ele>
        <time>2018-05-29T10:12:35.059Z</time>
      </trkpt>
      <trkpt lat="37.4242" lon="-4.42808667">
        <ele>535.0</ele>
        <time>2018-05-29T10:12:36.095Z</time>
      </trkpt>
      <trkpt lat="37.4242" lon="-4.42808667">
        <ele>535.0</ele>
        <time>2018-05-29T10:12:37.092Z</time>
      </trkpt>
      <trkpt lat="37.424185" lon="-4.428025">
        <ele>535.0</ele>
        <time>2018-05-29T10:12:38.060Z</time>
      </trkpt>
      <trkpt lat="37.424185" lon="-4.428025">
        <ele>535.0</ele>
        <time>2018-05-29T10:12:39.067Z</time>
      </trkpt>
      <trkpt lat="37.42416833" lon="-4.42796333">
        <ele>535.0</ele>
        <time>2018-05-29T10:12:40.062Z</time>
      </trkpt>
      <trkpt lat="37.42416833" lon="-4.42796333">
        <ele>535.0</ele>
        <time>2018-05-29T10:12:41.068Z</time>
      </trkpt>
      <trkpt lat="37.42414" lon="-4.42787167">
        <ele>535.0</ele>
        <time>2018-05-29T10:12:42.092Z</time>
      </trkpt>
      <trkpt lat="37.42414" lon="-4.42787167">
        <ele>535.0</ele>
        <time>2018-05-29T10:12:43.058Z</time>
      </trkpt>
      <trkpt lat="37.42414" lon="-4.42787167">
        <ele>535.0</ele>
        <time>2018-05-29T10:12:44.065Z</time>
      </trkpt>
      <trkpt lat="37.42412333" lon="-4.427805">
        <ele>535.0</ele>
        <time>2018-05-29T10:12:45.062Z</time>
      </trkpt>
      <trkpt lat="37.42412333" lon="-4.427805">
        <ele>535.0</ele>
        <time>2018-05-29T10:12:46.089Z</time>
      </trkpt>
      <trkpt lat="37.42411167" lon="-4.42773667">
        <ele>536.0</ele>
        <time>2018-05-29T10:12:47.072Z</time>
      </trkpt>
      <trkpt lat="37.42410667" lon="-4.42770167">
        <ele>536.0</ele>
        <time>2018-05-29T10:12:48.072Z</time>
      </trkpt>
      <trkpt lat="37.42410333" lon="-4.42766667">
        <ele>536.0</ele>
        <time>2018-05-29T10:12:49.064Z</time>
      </trkpt>
      <trkpt lat="37.42410333" lon="-4.42766667">
        <ele>536.0</ele>
        <time>2018-05-29T10:12:50.086Z</time>
      </trkpt>
      <trkpt lat="37.42409167" lon="-4.42759333">
        <ele>537.0</ele>
        <time>2018-05-29T10:12:51.076Z</time>
      </trkpt>
      <trkpt lat="37.42408833" lon="-4.427555">
        <ele>537.0</ele>
        <time>2018-05-29T10:12:52.058Z</time>
      </trkpt>
      <trkpt lat="37.42408833" lon="-4.42747667">
        <ele>538.0</ele>
        <time>2018-05-29T10:12:53.089Z</time>
      </trkpt>
      <trkpt lat="37.42408833" lon="-4.42747667">
        <ele>538.0</ele>
        <time>2018-05-29T10:12:54.061Z</time>
      </trkpt>
      <trkpt lat="37.42408833" lon="-4.42747667">
        <ele>538.0</ele>
        <time>2018-05-29T10:12:55.068Z</time>
      </trkpt>
      <trkpt lat="37.424095" lon="-4.427395">
        <ele>538.0</ele>
        <time>2018-05-29T10:12:56.074Z</time>
      </trkpt>
      <trkpt lat="37.42409667" lon="-4.42735167">
        <ele>538.0</ele>
        <time>2018-05-29T10:12:57.061Z</time>
      </trkpt>
      <trkpt lat="37.42409667" lon="-4.42735167">
        <ele>538.0</ele>
        <time>2018-05-29T10:12:58.068Z</time>
      </trkpt>
      <trkpt lat="37.4241" lon="-4.42727">
        <ele>538.0</ele>
        <time>2018-05-29T10:12:59.062Z</time>
      </trkpt>
      <trkpt lat="37.42411333" lon="-4.42718667">
        <ele>538.0</ele>
        <time>2018-05-29T10:13:00.093Z</time>
      </trkpt>
      <trkpt lat="37.42411333" lon="-4.42718667">
        <ele>538.0</ele>
        <time>2018-05-29T10:13:01.059Z</time>
      </trkpt>
      <trkpt lat="37.42411333" lon="-4.42718667">
        <ele>538.0</ele>
        <time>2018-05-29T10:13:02.068Z</time>
      </trkpt>
      <trkpt lat="37.42412167" lon="-4.42710667">
        <ele>538.0</ele>
        <time>2018-05-29T10:13:03.091Z</time>
      </trkpt>
      <trkpt lat="37.42412167" lon="-4.42710667">
        <ele>538.0</ele>
        <time>2018-05-29T10:13:04.058Z</time>
      </trkpt>
      <trkpt lat="37.42413" lon="-4.42703">
        <ele>539.0</ele>
        <time>2018-05-29T10:13:05.084Z</time>
      </trkpt>
      <trkpt lat="37.42413333" lon="-4.42699167">
        <ele>539.0</ele>
        <time>2018-05-29T10:13:06.094Z</time>
      </trkpt>
      <trkpt lat="37.42413333" lon="-4.42699167">
        <ele>539.0</ele>
        <time>2018-05-29T10:13:07.062Z</time>
      </trkpt>
      <trkpt lat="37.42413833" lon="-4.42691333">
        <ele>539.0</ele>
        <time>2018-05-29T10:13:08.085Z</time>
      </trkpt>
      <trkpt lat="37.42414" lon="-4.426875">
        <ele>539.0</ele>
        <time>2018-05-29T10:13:09.057Z</time>
      </trkpt>
      <trkpt lat="37.42414" lon="-4.426875">
        <ele>539.0</ele>
        <time>2018-05-29T10:13:10.064Z</time>
      </trkpt>
      <trkpt lat="37.42413833" lon="-4.42679833">
        <ele>539.0</ele>
        <time>2018-05-29T10:13:11.067Z</time>
      </trkpt>
      <trkpt lat="37.42413667" lon="-4.42676">
        <ele>539.0</ele>
        <time>2018-05-29T10:13:12.069Z</time>
      </trkpt>
      <trkpt lat="37.42413667" lon="-4.42676">
        <ele>539.0</ele>
        <time>2018-05-29T10:13:13.100Z</time>
      </trkpt>
      <trkpt lat="37.42412833" lon="-4.42668">
        <ele>540.0</ele>
        <time>2018-05-29T10:13:14.065Z</time>
      </trkpt>
      <trkpt lat="37.42412833" lon="-4.42668">
        <ele>540.0</ele>
        <time>2018-05-29T10:13:15.072Z</time>
      </trkpt>
      <trkpt lat="37.42411667" lon="-4.42660167">
        <ele>540.0</ele>
        <time>2018-05-29T10:13:16.072Z</time>
      </trkpt>
      <trkpt lat="37.42411" lon="-4.42656167">
        <ele>540.0</ele>
        <time>2018-05-29T10:13:17.091Z</time>
      </trkpt>
      <trkpt lat="37.42411" lon="-4.42656167">
        <ele>540.0</ele>
        <time>2018-05-29T10:13:18.058Z</time>
      </trkpt>
      <trkpt lat="37.42409333" lon="-4.426485">
        <ele>540.0</ele>
        <time>2018-05-29T10:13:19.092Z</time>
      </trkpt>
      <trkpt lat="37.42409333" lon="-4.426485">
        <ele>540.0</ele>
        <time>2018-05-29T10:13:20.058Z</time>
      </trkpt>
      <trkpt lat="37.42407333" lon="-4.42640667">
        <ele>540.0</ele>
        <time>2018-05-29T10:13:21.065Z</time>
      </trkpt>
      <trkpt lat="37.424065" lon="-4.42636667">
        <ele>540.0</ele>
        <time>2018-05-29T10:13:22.080Z</time>
      </trkpt>
      <trkpt lat="37.424065" lon="-4.42636667">
        <ele>540.0</ele>
        <time>2018-05-29T10:13:23.090Z</time>
      </trkpt>
      <trkpt lat="37.42404333" lon="-4.42628667">
        <ele>540.0</ele>
        <time>2018-05-29T10:13:24.084Z</time>
      </trkpt>
      <trkpt lat="37.42404333" lon="-4.42628667">
        <ele>540.0</ele>
        <time>2018-05-29T10:13:25.091Z</time>
      </trkpt>
      <trkpt lat="37.42402" lon="-4.42621">
        <ele>540.0</ele>
        <time>2018-05-29T10:13:26.081Z</time>
      </trkpt>
      <trkpt lat="37.42400833" lon="-4.426175">
        <ele>540.0</ele>
        <time>2018-05-29T10:13:27.091Z</time>
      </trkpt>
      <trkpt lat="37.42400833" lon="-4.426175">
        <ele>540.0</ele>
        <time>2018-05-29T10:13:28.058Z</time>
      </trkpt>
      <trkpt lat="37.42398833" lon="-4.42610667">
        <ele>541.0</ele>
        <time>2018-05-29T10:13:29.085Z</time>
      </trkpt>
      <trkpt lat="37.42397833" lon="-4.42607167">
        <ele>541.0</ele>
        <time>2018-05-29T10:13:30.095Z</time>
      </trkpt>
      <trkpt lat="37.42397833" lon="-4.42607167">
        <ele>541.0</ele>
        <time>2018-05-29T10:13:31.061Z</time>
      </trkpt>
      <trkpt lat="37.42395833" lon="-4.426">
        <ele>541.0</ele>
        <time>2018-05-29T10:13:32.061Z</time>
      </trkpt>
      <trkpt lat="37.423935" lon="-4.42593167">
        <ele>541.0</ele>
        <time>2018-05-29T10:13:33.088Z</time>
      </trkpt>
      <trkpt lat="37.423935" lon="-4.42593167">
        <ele>541.0</ele>
        <time>2018-05-29T10:13:34.066Z</time>
      </trkpt>
      <trkpt lat="37.423935" lon="-4.42593167">
        <ele>541.0</ele>
        <time>2018-05-29T10:13:35.085Z</time>
      </trkpt>
      <trkpt lat="37.42391" lon="-4.42586333">
        <ele>541.0</ele>
        <time>2018-05-29T10:13:36.086Z</time>
      </trkpt>
      <trkpt lat="37.42388833" lon="-4.42579">
        <ele>541.0</ele>
        <time>2018-05-29T10:13:37.100Z</time>
      </trkpt>
      <trkpt lat="37.42388833" lon="-4.42579">
        <ele>541.0</ele>
        <time>2018-05-29T10:13:38.083Z</time>
      </trkpt>
      <trkpt lat="37.42388833" lon="-4.42579">
        <ele>541.0</ele>
        <time>2018-05-29T10:13:39.089Z</time>
      </trkpt>
      <trkpt lat="37.42386833" lon="-4.42571667">
        <ele>542.0</ele>
        <time>2018-05-29T10:13:40.071Z</time>
      </trkpt>
      <trkpt lat="37.42385833" lon="-4.42568167">
        <ele>542.0</ele>
        <time>2018-05-29T10:13:41.066Z</time>
      </trkpt>
      <trkpt lat="37.42385833" lon="-4.42568167">
        <ele>542.0</ele>
        <time>2018-05-29T10:13:42.074Z</time>
      </trkpt>
      <trkpt lat="37.42384167" lon="-4.42561">
        <ele>542.0</ele>
        <time>2018-05-29T10:13:43.065Z</time>
      </trkpt>
      <trkpt lat="37.42384167" lon="-4.42561">
        <ele>542.0</ele>
        <time>2018-05-29T10:13:44.082Z</time>
      </trkpt>
      <trkpt lat="37.42382167" lon="-4.42554">
        <ele>543.0</ele>
        <time>2018-05-29T10:13:45.058Z</time>
      </trkpt>
      <trkpt lat="37.423815" lon="-4.42550167">
        <ele>543.0</ele>
        <time>2018-05-29T10:13:46.087Z</time>
      </trkpt>
      <trkpt lat="37.423815" lon="-4.42550167">
        <ele>543.0</ele>
        <time>2018-05-29T10:13:47.092Z</time>
      </trkpt>
      <trkpt lat="37.42379833" lon="-4.425425">
        <ele>543.0</ele>
        <time>2018-05-29T10:13:48.081Z</time>
      </trkpt>
      <trkpt lat="37.42378333" lon="-4.42534667">
        <ele>543.0</ele>
        <time>2018-05-29T10:13:49.093Z</time>
      </trkpt>
      <trkpt lat="37.42378333" lon="-4.42534667">
        <ele>543.0</ele>
        <time>2018-05-29T10:13:50.073Z</time>
      </trkpt>
      <trkpt lat="37.42376833" lon="-4.42526833">
        <ele>543.0</ele>
        <time>2018-05-29T10:13:51.090Z</time>
      </trkpt>
      <trkpt lat="37.42376833" lon="-4.42526833">
        <ele>543.0</ele>
        <time>2018-05-29T10:13:52.096Z</time>
      </trkpt>
      <trkpt lat="37.42376833" lon="-4.42526833">
        <ele>543.0</ele>
        <time>2018-05-29T10:13:53.083Z</time>
      </trkpt>
      <trkpt lat="37.42375333" lon="-4.42518833">
        <ele>543.0</ele>
        <time>2018-05-29T10:13:54.071Z</time>
      </trkpt>
      <trkpt lat="37.42374" lon="-4.425105">
        <ele>544.0</ele>
        <time>2018-05-29T10:13:55.089Z</time>
      </trkpt>
      <trkpt lat="37.42374" lon="-4.425105">
        <ele>544.0</ele>
        <time>2018-05-29T10:13:56.094Z</time>
      </trkpt>
      <trkpt lat="37.42374" lon="-4.425105">
        <ele>544.0</ele>
        <time>2018-05-29T10:13:57.061Z</time>
      </trkpt>
      <trkpt lat="37.42372833" lon="-4.42502167">
        <ele>544.0</ele>
        <time>2018-05-29T10:13:58.114Z</time>
      </trkpt>
      <trkpt lat="37.42372" lon="-4.42497833">
        <ele>544.0</ele>
        <time>2018-05-29T10:13:59.057Z</time>
      </trkpt>
      <trkpt lat="37.42371333" lon="-4.42493667">
        <ele>544.0</ele>
        <time>2018-05-29T10:14:00.091Z</time>
      </trkpt>
      <trkpt lat="37.42371333" lon="-4.42493667">
        <ele>544.0</ele>
        <time>2018-05-29T10:14:01.057Z</time>
      </trkpt>
      <trkpt lat="37.42369333" lon="-4.424805">
        <ele>544.0</ele>
        <time>2018-05-29T10:14:02.091Z</time>
      </trkpt>
      <trkpt lat="37.42369333" lon="-4.424805">
        <ele>544.0</ele>
        <time>2018-05-29T10:14:03.058Z</time>
      </trkpt>
      <trkpt lat="37.42369333" lon="-4.424805">
        <ele>544.0</ele>
        <time>2018-05-29T10:14:04.065Z</time>
      </trkpt>
      <trkpt lat="37.42368" lon="-4.42471833">
        <ele>545.0</ele>
        <time>2018-05-29T10:14:05.066Z</time>
      </trkpt>
      <trkpt lat="37.42367333" lon="-4.42467333">
        <ele>545.0</ele>
        <time>2018-05-29T10:14:06.060Z</time>
      </trkpt>
      <trkpt lat="37.42367333" lon="-4.42467333">
        <ele>545.0</ele>
        <time>2018-05-29T10:14:07.067Z</time>
      </trkpt>
      <trkpt lat="37.42365833" lon="-4.42458333">
        <ele>545.0</ele>
        <time>2018-05-29T10:14:08.087Z</time>
      </trkpt>
      <trkpt lat="37.42365" lon="-4.424495">
        <ele>545.0</ele>
        <time>2018-05-29T10:14:09.103Z</time>
      </trkpt>
      <trkpt lat="37.42365" lon="-4.424495">
        <ele>545.0</ele>
        <time>2018-05-29T10:14:10.082Z</time>
      </trkpt>
      <trkpt lat="37.42365" lon="-4.424495">
        <ele>545.0</ele>
        <time>2018-05-29T10:14:11.090Z</time>
      </trkpt>
      <trkpt lat="37.42364333" lon="-4.42441">
        <ele>546.0</ele>
        <time>2018-05-29T10:14:12.083Z</time>
      </trkpt>
      <trkpt lat="37.42364333" lon="-4.42441">
        <ele>546.0</ele>
        <time>2018-05-29T10:14:13.090Z</time>
      </trkpt>
      <trkpt lat="37.42363167" lon="-4.42432833">
        <ele>546.0</ele>
        <time>2018-05-29T10:14:14.084Z</time>
      </trkpt>
      <trkpt lat="37.42362667" lon="-4.42428667">
        <ele>546.0</ele>
        <time>2018-05-29T10:14:15.080Z</time>
      </trkpt>
      <trkpt lat="37.423615" lon="-4.424205">
        <ele>546.0</ele>
        <time>2018-05-29T10:14:16.115Z</time>
      </trkpt>
      <trkpt lat="37.423615" lon="-4.424205">
        <ele>546.0</ele>
        <time>2018-05-29T10:14:17.059Z</time>
      </trkpt>
      <trkpt lat="37.42361" lon="-4.42416667">
        <ele>547.0</ele>
        <time>2018-05-29T10:14:18.090Z</time>
      </trkpt>
      <trkpt lat="37.42361" lon="-4.42416667">
        <ele>547.0</ele>
        <time>2018-05-29T10:14:19.057Z</time>
      </trkpt>
      <trkpt lat="37.4236" lon="-4.424085">
        <ele>547.0</ele>
        <time>2018-05-29T10:14:20.083Z</time>
      </trkpt>
      <trkpt lat="37.4236" lon="-4.424085">
        <ele>547.0</ele>
        <time>2018-05-29T10:14:21.090Z</time>
      </trkpt>
      <trkpt lat="37.42358833" lon="-4.42400333">
        <ele>547.0</ele>
        <time>2018-05-29T10:14:22.071Z</time>
      </trkpt>
      <trkpt lat="37.42358167" lon="-4.423965">
        <ele>548.0</ele>
        <time>2018-05-29T10:14:23.070Z</time>
      </trkpt>
      <trkpt lat="37.42357667" lon="-4.42392667">
        <ele>548.0</ele>
        <time>2018-05-29T10:14:24.057Z</time>
      </trkpt>
      <trkpt lat="37.42357667" lon="-4.42392667">
        <ele>548.0</ele>
        <time>2018-05-29T10:14:25.064Z</time>
      </trkpt>
      <trkpt lat="37.42357" lon="-4.42384667">
        <ele>548.0</ele>
        <time>2018-05-29T10:14:26.083Z</time>
      </trkpt>
      <trkpt lat="37.42357" lon="-4.42384667">
        <ele>548.0</ele>
        <time>2018-05-29T10:14:27.090Z</time>
      </trkpt>
      <trkpt lat="37.42356" lon="-4.42376667">
        <ele>548.0</ele>
        <time>2018-05-29T10:14:28.075Z</time>
      </trkpt>
      <trkpt lat="37.42356" lon="-4.42376667">
        <ele>548.0</ele>
        <time>2018-05-29T10:14:29.084Z</time>
      </trkpt>
      <trkpt lat="37.42355333" lon="-4.42368833">
        <ele>549.0</ele>
        <time>2018-05-29T10:14:30.057Z</time>
      </trkpt>
      <trkpt lat="37.42355333" lon="-4.42368833">
        <ele>549.0</ele>
        <time>2018-05-29T10:14:31.064Z</time>
      </trkpt>
      <trkpt lat="37.42354333" lon="-4.42360667">
        <ele>549.0</ele>
        <time>2018-05-29T10:14:32.083Z</time>
      </trkpt>
      <trkpt lat="37.42354" lon="-4.423565">
        <ele>549.0</ele>
        <time>2018-05-29T10:14:33.095Z</time>
      </trkpt>
      <trkpt lat="37.42354" lon="-4.423565">
        <ele>549.0</ele>
        <time>2018-05-29T10:14:34.061Z</time>
      </trkpt>
      <trkpt lat="37.423525" lon="-4.42343833">
        <ele>549.0</ele>
        <time>2018-05-29T10:14:35.090Z</time>
      </trkpt>
      <trkpt lat="37.423525" lon="-4.42343833">
        <ele>549.0</ele>
        <time>2018-05-29T10:14:36.057Z</time>
      </trkpt>
      <trkpt lat="37.423525" lon="-4.42343833">
        <ele>549.0</ele>
        <time>2018-05-29T10:14:37.063Z</time>
      </trkpt>
      <trkpt lat="37.42351167" lon="-4.423355">
        <ele>549.0</ele>
        <time>2018-05-29T10:14:38.084Z</time>
      </trkpt>
      <trkpt lat="37.42351167" lon="-4.423355">
        <ele>549.0</ele>
        <time>2018-05-29T10:14:39.091Z</time>
      </trkpt>
      <trkpt lat="37.42350167" lon="-4.42327167">
        <ele>550.0</ele>
        <time>2018-05-29T10:14:40.068Z</time>
      </trkpt>
      <trkpt lat="37.42349667" lon="-4.42323333">
        <ele>550.0</ele>
        <time>2018-05-29T10:14:41.067Z</time>
      </trkpt>
      <trkpt lat="37.42349667" lon="-4.42323333">
        <ele>550.0</ele>
        <time>2018-05-29T10:14:42.090Z</time>
      </trkpt>
      <trkpt lat="37.42349" lon="-4.42315167">
        <ele>550.0</ele>
        <time>2018-05-29T10:14:43.084Z</time>
      </trkpt>
      <trkpt lat="37.42348333" lon="-4.42307">
        <ele>551.0</ele>
        <time>2018-05-29T10:14:44.112Z</time>
      </trkpt>
      <trkpt lat="37.42348333" lon="-4.42307">
        <ele>551.0</ele>
        <time>2018-05-29T10:14:45.094Z</time>
      </trkpt>
      <trkpt lat="37.42348333" lon="-4.42307">
        <ele>551.0</ele>
        <time>2018-05-29T10:14:46.060Z</time>
      </trkpt>
      <trkpt lat="37.42347333" lon="-4.42298833">
        <ele>551.0</ele>
        <time>2018-05-29T10:14:47.085Z</time>
      </trkpt>
      <trkpt lat="37.42347" lon="-4.42294833">
        <ele>551.0</ele>
        <time>2018-05-29T10:14:48.063Z</time>
      </trkpt>
      <trkpt lat="37.42347" lon="-4.42294833">
        <ele>551.0</ele>
        <time>2018-05-29T10:14:49.069Z</time>
      </trkpt>
      <trkpt lat="37.42346333" lon="-4.42282333">
        <ele>551.0</ele>
        <time>2018-05-29T10:14:50.092Z</time>
      </trkpt>
      <trkpt lat="37.42346333" lon="-4.42282333">
        <ele>551.0</ele>
        <time>2018-05-29T10:14:51.059Z</time>
      </trkpt>
      <trkpt lat="37.42346333" lon="-4.42282333">
        <ele>551.0</ele>
        <time>2018-05-29T10:14:52.068Z</time>
      </trkpt>
      <trkpt lat="37.42346167" lon="-4.42274667">
        <ele>552.0</ele>
        <time>2018-05-29T10:14:53.086Z</time>
      </trkpt>
      <trkpt lat="37.42345667" lon="-4.42270833">
        <ele>551.0</ele>
        <time>2018-05-29T10:14:54.060Z</time>
      </trkpt>
      <trkpt lat="37.42345667" lon="-4.42270833">
        <ele>551.0</ele>
        <time>2018-05-29T10:14:55.067Z</time>
      </trkpt>
      <trkpt lat="37.42344667" lon="-4.42259667">
        <ele>551.0</ele>
        <time>2018-05-29T10:14:56.094Z</time>
      </trkpt>
      <trkpt lat="37.42344333" lon="-4.42255833">
        <ele>551.0</ele>
        <time>2018-05-29T10:14:57.096Z</time>
      </trkpt>
      <trkpt lat="37.42344333" lon="-4.42255833">
        <ele>551.0</ele>
        <time>2018-05-29T10:14:58.061Z</time>
      </trkpt>
      <trkpt lat="37.42344333" lon="-4.42255833">
        <ele>551.0</ele>
        <time>2018-05-29T10:14:59.068Z</time>
      </trkpt>
      <trkpt lat="37.42343667" lon="-4.422485">
        <ele>552.0</ele>
        <time>2018-05-29T10:15:00.087Z</time>
      </trkpt>
      <trkpt lat="37.42343667" lon="-4.422485">
        <ele>552.0</ele>
        <time>2018-05-29T10:15:01.093Z</time>
      </trkpt>
      <trkpt lat="37.42342667" lon="-4.42241">
        <ele>552.0</ele>
        <time>2018-05-29T10:15:02.086Z</time>
      </trkpt>
      <trkpt lat="37.42342" lon="-4.422335">
        <ele>553.0</ele>
        <time>2018-05-29T10:15:03.092Z</time>
      </trkpt>
      <trkpt lat="37.42342" lon="-4.422335">
        <ele>553.0</ele>
        <time>2018-05-29T10:15:04.085Z</time>
      </trkpt>
      <trkpt lat="37.42341833" lon="-4.42229667">
        <ele>553.0</ele>
        <time>2018-05-29T10:15:05.063Z</time>
      </trkpt>
      <trkpt lat="37.42341833" lon="-4.42229667">
        <ele>553.0</ele>
        <time>2018-05-29T10:15:06.069Z</time>
      </trkpt>
      <trkpt lat="37.42341167" lon="-4.42222">
        <ele>553.0</ele>
        <time>2018-05-29T10:15:07.058Z</time>
      </trkpt>
      <trkpt lat="37.42340833" lon="-4.42218">
        <ele>553.0</ele>
        <time>2018-05-29T10:15:08.083Z</time>
      </trkpt>
      <trkpt lat="37.423405" lon="-4.42214">
        <ele>553.0</ele>
        <time>2018-05-29T10:15:09.060Z</time>
      </trkpt>
      <trkpt lat="37.423405" lon="-4.42214">
        <ele>553.0</ele>
        <time>2018-05-29T10:15:10.066Z</time>
      </trkpt>
      <trkpt lat="37.42339" lon="-4.422025">
        <ele>554.0</ele>
        <time>2018-05-29T10:15:11.094Z</time>
      </trkpt>
      <trkpt lat="37.42339" lon="-4.422025">
        <ele>554.0</ele>
        <time>2018-05-29T10:15:12.069Z</time>
      </trkpt>
      <trkpt lat="37.42339" lon="-4.422025">
        <ele>554.0</ele>
        <time>2018-05-29T10:15:13.103Z</time>
      </trkpt>
      <trkpt lat="37.42338667" lon="-4.42194667">
        <ele>554.0</ele>
        <time>2018-05-29T10:15:14.082Z</time>
      </trkpt>
      <trkpt lat="37.42338167" lon="-4.42186833">
        <ele>554.0</ele>
        <time>2018-05-29T10:15:15.113Z</time>
      </trkpt>
      <trkpt lat="37.42338167" lon="-4.42186833">
        <ele>554.0</ele>
        <time>2018-05-29T10:15:16.090Z</time>
      </trkpt>
      <trkpt lat="37.42338167" lon="-4.42186833">
        <ele>554.0</ele>
        <time>2018-05-29T10:15:17.056Z</time>
      </trkpt>
      <trkpt lat="37.42338167" lon="-4.42179167">
        <ele>554.0</ele>
        <time>2018-05-29T10:15:18.087Z</time>
      </trkpt>
      <trkpt lat="37.42338" lon="-4.42171667">
        <ele>554.0</ele>
        <time>2018-05-29T10:15:19.100Z</time>
      </trkpt>
      <trkpt lat="37.42338" lon="-4.42171667">
        <ele>554.0</ele>
        <time>2018-05-29T10:15:20.065Z</time>
      </trkpt>
      <trkpt lat="37.42337833" lon="-4.42167833">
        <ele>554.0</ele>
        <time>2018-05-29T10:15:21.061Z</time>
      </trkpt>
      <trkpt lat="37.42337833" lon="-4.42167833">
        <ele>554.0</ele>
        <time>2018-05-29T10:15:22.068Z</time>
      </trkpt>
      <trkpt lat="37.42337833" lon="-4.4216">
        <ele>555.0</ele>
        <time>2018-05-29T10:15:23.095Z</time>
      </trkpt>
      <trkpt lat="37.42337833" lon="-4.4216">
        <ele>555.0</ele>
        <time>2018-05-29T10:15:24.061Z</time>
      </trkpt>
      <trkpt lat="37.423375" lon="-4.42152333">
        <ele>555.0</ele>
        <time>2018-05-29T10:15:25.080Z</time>
      </trkpt>
      <trkpt lat="37.423375" lon="-4.42152333">
        <ele>555.0</ele>
        <time>2018-05-29T10:15:26.091Z</time>
      </trkpt>
      <trkpt lat="37.42337" lon="-4.42144667">
        <ele>555.0</ele>
        <time>2018-05-29T10:15:27.062Z</time>
      </trkpt>
      <trkpt lat="37.42337" lon="-4.42144667">
        <ele>555.0</ele>
        <time>2018-05-29T10:15:28.068Z</time>
      </trkpt>
      <trkpt lat="37.42336333" lon="-4.421375">
        <ele>555.0</ele>
        <time>2018-05-29T10:15:29.060Z</time>
      </trkpt>
      <trkpt lat="37.42335667" lon="-4.42134">
        <ele>555.0</ele>
        <time>2018-05-29T10:15:30.082Z</time>
      </trkpt>
      <trkpt lat="37.42334333" lon="-4.421265">
        <ele>556.0</ele>
        <time>2018-05-29T10:15:31.094Z</time>
      </trkpt>
      <trkpt lat="37.42334333" lon="-4.421265">
        <ele>556.0</ele>
        <time>2018-05-29T10:15:32.059Z</time>
      </trkpt>
      <trkpt lat="37.42334333" lon="-4.421265">
        <ele>556.0</ele>
        <time>2018-05-29T10:15:33.066Z</time>
      </trkpt>
      <trkpt lat="37.423335" lon="-4.42119">
        <ele>556.0</ele>
        <time>2018-05-29T10:15:34.094Z</time>
      </trkpt>
      <trkpt lat="37.423335" lon="-4.42119">
        <ele>556.0</ele>
        <time>2018-05-29T10:15:35.056Z</time>
      </trkpt>
      <trkpt lat="37.42332833" lon="-4.42111667">
        <ele>556.0</ele>
        <time>2018-05-29T10:15:36.074Z</time>
      </trkpt>
      <trkpt lat="37.42332833" lon="-4.42111667">
        <ele>556.0</ele>
        <time>2018-05-29T10:15:37.080Z</time>
      </trkpt>
      <trkpt lat="37.42332167" lon="-4.42104167">
        <ele>557.0</ele>
        <time>2018-05-29T10:15:38.071Z</time>
      </trkpt>
      <trkpt lat="37.42331833" lon="-4.42100333">
        <ele>557.0</ele>
        <time>2018-05-29T10:15:39.086Z</time>
      </trkpt>
      <trkpt lat="37.42331333" lon="-4.42093">
        <ele>557.0</ele>
        <time>2018-05-29T10:15:40.112Z</time>
      </trkpt>
      <trkpt lat="37.42331333" lon="-4.42093">
        <ele>557.0</ele>
        <time>2018-05-29T10:15:41.063Z</time>
      </trkpt>
      <trkpt lat="37.42331333" lon="-4.42093">
        <ele>557.0</ele>
        <time>2018-05-29T10:15:42.071Z</time>
      </trkpt>
      <trkpt lat="37.42330667" lon="-4.420855">
        <ele>557.0</ele>
        <time>2018-05-29T10:15:43.077Z</time>
      </trkpt>
      <trkpt lat="37.42330667" lon="-4.420855">
        <ele>557.0</ele>
        <time>2018-05-29T10:15:44.084Z</time>
      </trkpt>
      <trkpt lat="37.4233" lon="-4.42078167">
        <ele>558.0</ele>
        <time>2018-05-29T10:15:45.057Z</time>
      </trkpt>
      <trkpt lat="37.423295" lon="-4.42074333">
        <ele>558.0</ele>
        <time>2018-05-29T10:15:46.083Z</time>
      </trkpt>
      <trkpt lat="37.42329" lon="-4.42070667">
        <ele>558.0</ele>
        <time>2018-05-29T10:15:47.062Z</time>
      </trkpt>
      <trkpt lat="37.42329" lon="-4.42070667">
        <ele>558.0</ele>
        <time>2018-05-29T10:15:48.069Z</time>
      </trkpt>
      <trkpt lat="37.42328167" lon="-4.42063167">
        <ele>558.0</ele>
        <time>2018-05-29T10:15:49.094Z</time>
      </trkpt>
      <trkpt lat="37.42327667" lon="-4.42059333">
        <ele>558.0</ele>
        <time>2018-05-29T10:15:50.091Z</time>
      </trkpt>
      <trkpt lat="37.42327667" lon="-4.42059333">
        <ele>558.0</ele>
        <time>2018-05-29T10:15:51.057Z</time>
      </trkpt>
      <trkpt lat="37.42327167" lon="-4.42051667">
        <ele>559.0</ele>
        <time>2018-05-29T10:15:52.086Z</time>
      </trkpt>
      <trkpt lat="37.42327167" lon="-4.42047833">
        <ele>559.0</ele>
        <time>2018-05-29T10:15:53.095Z</time>
      </trkpt>
      <trkpt lat="37.42326667" lon="-4.42044">
        <ele>559.0</ele>
        <time>2018-05-29T10:15:54.066Z</time>
      </trkpt>
      <trkpt lat="37.42326667" lon="-4.42044">
        <ele>559.0</ele>
        <time>2018-05-29T10:15:55.087Z</time>
      </trkpt>
      <trkpt lat="37.42325167" lon="-4.42036167">
        <ele>559.0</ele>
        <time>2018-05-29T10:15:56.060Z</time>
      </trkpt>
      <trkpt lat="37.42325167" lon="-4.42036167">
        <ele>559.0</ele>
        <time>2018-05-29T10:15:57.066Z</time>
      </trkpt>
      <trkpt lat="37.42324667" lon="-4.42028">
        <ele>559.0</ele>
        <time>2018-05-29T10:15:58.094Z</time>
      </trkpt>
      <trkpt lat="37.42324667" lon="-4.42028">
        <ele>559.0</ele>
        <time>2018-05-29T10:15:59.063Z</time>
      </trkpt>
      <trkpt lat="37.42324" lon="-4.42019667">
        <ele>560.0</ele>
        <time>2018-05-29T10:16:00.087Z</time>
      </trkpt>
      <trkpt lat="37.42323333" lon="-4.42011333">
        <ele>560.0</ele>
        <time>2018-05-29T10:16:01.096Z</time>
      </trkpt>
      <trkpt lat="37.42323333" lon="-4.42011333">
        <ele>560.0</ele>
        <time>2018-05-29T10:16:02.081Z</time>
      </trkpt>
      <trkpt lat="37.42323333" lon="-4.42011333">
        <ele>560.0</ele>
        <time>2018-05-29T10:16:03.093Z</time>
      </trkpt>
      <trkpt lat="37.42322833" lon="-4.42003333">
        <ele>560.0</ele>
        <time>2018-05-29T10:16:04.064Z</time>
      </trkpt>
      <trkpt lat="37.42322833" lon="-4.42003333">
        <ele>560.0</ele>
        <time>2018-05-29T10:16:05.070Z</time>
      </trkpt>
      <trkpt lat="37.423225" lon="-4.41995333">
        <ele>560.0</ele>
        <time>2018-05-29T10:16:06.091Z</time>
      </trkpt>
      <trkpt lat="37.423225" lon="-4.41995333">
        <ele>560.0</ele>
        <time>2018-05-29T10:16:07.057Z</time>
      </trkpt>
      <trkpt lat="37.42321833" lon="-4.41987333">
        <ele>560.0</ele>
        <time>2018-05-29T10:16:08.082Z</time>
      </trkpt>
      <trkpt lat="37.42321167" lon="-4.419795">
        <ele>560.0</ele>
        <time>2018-05-29T10:16:09.092Z</time>
      </trkpt>
      <trkpt lat="37.42321167" lon="-4.419795">
        <ele>560.0</ele>
        <time>2018-05-29T10:16:10.091Z</time>
      </trkpt>
      <trkpt lat="37.42321" lon="-4.41975667">
        <ele>561.0</ele>
        <time>2018-05-29T10:16:11.083Z</time>
      </trkpt>
      <trkpt lat="37.42320667" lon="-4.41971833">
        <ele>561.0</ele>
        <time>2018-05-29T10:16:12.067Z</time>
      </trkpt>
      <trkpt lat="37.42320667" lon="-4.41971833">
        <ele>561.0</ele>
        <time>2018-05-29T10:16:13.079Z</time>
      </trkpt>
      <trkpt lat="37.42320333" lon="-4.41964167">
        <ele>561.0</ele>
        <time>2018-05-29T10:16:14.089Z</time>
      </trkpt>
      <trkpt lat="37.4232" lon="-4.41956667">
        <ele>561.0</ele>
        <time>2018-05-29T10:16:15.107Z</time>
      </trkpt>
      <trkpt lat="37.4232" lon="-4.41956667">
        <ele>561.0</ele>
        <time>2018-05-29T10:16:16.083Z</time>
      </trkpt>
      <trkpt lat="37.42319667" lon="-4.41949167">
        <ele>561.0</ele>
        <time>2018-05-29T10:16:17.098Z</time>
      </trkpt>
      <trkpt lat="37.42319667" lon="-4.41949167">
        <ele>561.0</ele>
        <time>2018-05-29T10:16:18.090Z</time>
      </trkpt>
      <trkpt lat="37.42319667" lon="-4.41949167">
        <ele>561.0</ele>
        <time>2018-05-29T10:16:19.056Z</time>
      </trkpt>
      <trkpt lat="37.423195" lon="-4.41941833">
        <ele>562.0</ele>
        <time>2018-05-29T10:16:20.081Z</time>
      </trkpt>
      <trkpt lat="37.423195" lon="-4.41941833">
        <ele>562.0</ele>
        <time>2018-05-29T10:16:21.091Z</time>
      </trkpt>
      <trkpt lat="37.423195" lon="-4.419345">
        <ele>562.0</ele>
        <time>2018-05-29T10:16:22.082Z</time>
      </trkpt>
      <trkpt lat="37.423195" lon="-4.419345">
        <ele>562.0</ele>
        <time>2018-05-29T10:16:23.088Z</time>
      </trkpt>
      <trkpt lat="37.42319333" lon="-4.41927">
        <ele>562.0</ele>
        <time>2018-05-29T10:16:24.064Z</time>
      </trkpt>
      <trkpt lat="37.42319333" lon="-4.41927">
        <ele>562.0</ele>
        <time>2018-05-29T10:16:25.071Z</time>
      </trkpt>
      <trkpt lat="37.423195" lon="-4.41919167">
        <ele>562.0</ele>
        <time>2018-05-29T10:16:26.057Z</time>
      </trkpt>
      <trkpt lat="37.423195" lon="-4.41919167">
        <ele>562.0</ele>
        <time>2018-05-29T10:16:27.089Z</time>
      </trkpt>
      <trkpt lat="37.42319" lon="-4.41911333">
        <ele>563.0</ele>
        <time>2018-05-29T10:16:28.090Z</time>
      </trkpt>
      <trkpt lat="37.42318667" lon="-4.419075">
        <ele>563.0</ele>
        <time>2018-05-29T10:16:29.065Z</time>
      </trkpt>
      <trkpt lat="37.423185" lon="-4.41903833">
        <ele>563.0</ele>
        <time>2018-05-29T10:16:30.065Z</time>
      </trkpt>
      <trkpt lat="37.423185" lon="-4.41903833">
        <ele>563.0</ele>
        <time>2018-05-29T10:16:31.071Z</time>
      </trkpt>
      <trkpt lat="37.42317667" lon="-4.41896333">
        <ele>563.0</ele>
        <time>2018-05-29T10:16:32.068Z</time>
      </trkpt>
      <trkpt lat="37.42317167" lon="-4.41892667">
        <ele>563.0</ele>
        <time>2018-05-29T10:16:33.091Z</time>
      </trkpt>
      <trkpt lat="37.42317167" lon="-4.41892667">
        <ele>563.0</ele>
        <time>2018-05-29T10:16:34.058Z</time>
      </trkpt>
      <trkpt lat="37.42316167" lon="-4.41885167">
        <ele>563.0</ele>
        <time>2018-05-29T10:16:35.095Z</time>
      </trkpt>
      <trkpt lat="37.42315833" lon="-4.41881333">
        <ele>563.0</ele>
        <time>2018-05-29T10:16:36.089Z</time>
      </trkpt>
      <trkpt lat="37.42315167" lon="-4.418735">
        <ele>563.0</ele>
        <time>2018-05-29T10:16:37.092Z</time>
      </trkpt>
      <trkpt lat="37.42315167" lon="-4.418735">
        <ele>563.0</ele>
        <time>2018-05-29T10:16:38.059Z</time>
      </trkpt>
      <trkpt lat="37.42315167" lon="-4.418735">
        <ele>563.0</ele>
        <time>2018-05-29T10:16:39.066Z</time>
      </trkpt>
      <trkpt lat="37.42314833" lon="-4.41865167">
        <ele>563.0</ele>
        <time>2018-05-29T10:16:40.084Z</time>
      </trkpt>
      <trkpt lat="37.42314667" lon="-4.41861">
        <ele>563.0</ele>
        <time>2018-05-29T10:16:41.093Z</time>
      </trkpt>
      <trkpt lat="37.42314667" lon="-4.41861">
        <ele>563.0</ele>
        <time>2018-05-29T10:16:42.059Z</time>
      </trkpt>
      <trkpt lat="37.42313667" lon="-4.418525">
        <ele>563.0</ele>
        <time>2018-05-29T10:16:43.087Z</time>
      </trkpt>
      <trkpt lat="37.42313667" lon="-4.418525">
        <ele>563.0</ele>
        <time>2018-05-29T10:16:44.092Z</time>
      </trkpt>
      <trkpt lat="37.42312167" lon="-4.41843833">
        <ele>563.0</ele>
        <time>2018-05-29T10:16:45.101Z</time>
      </trkpt>
      <trkpt lat="37.42311167" lon="-4.418395">
        <ele>563.0</ele>
        <time>2018-05-29T10:16:46.075Z</time>
      </trkpt>
      <trkpt lat="37.4231" lon="-4.41835333">
        <ele>563.0</ele>
        <time>2018-05-29T10:16:47.092Z</time>
      </trkpt>
      <trkpt lat="37.4231" lon="-4.41835333">
        <ele>563.0</ele>
        <time>2018-05-29T10:16:48.058Z</time>
      </trkpt>
      <trkpt lat="37.42307167" lon="-4.41826667">
        <ele>563.0</ele>
        <time>2018-05-29T10:16:49.071Z</time>
      </trkpt>
      <trkpt lat="37.42307167" lon="-4.41826667">
        <ele>563.0</ele>
        <time>2018-05-29T10:16:50.095Z</time>
      </trkpt>
      <trkpt lat="37.42303667" lon="-4.41818333">
        <ele>563.0</ele>
        <time>2018-05-29T10:16:51.061Z</time>
      </trkpt>
      <trkpt lat="37.42303667" lon="-4.41818333">
        <ele>563.0</ele>
        <time>2018-05-29T10:16:52.067Z</time>
      </trkpt>
      <trkpt lat="37.423" lon="-4.41809833">
        <ele>563.0</ele>
        <time>2018-05-29T10:16:53.072Z</time>
      </trkpt>
      <trkpt lat="37.42298" lon="-4.418055">
        <ele>563.0</ele>
        <time>2018-05-29T10:16:54.067Z</time>
      </trkpt>
      <trkpt lat="37.42298" lon="-4.418055">
        <ele>563.0</ele>
        <time>2018-05-29T10:16:55.080Z</time>
      </trkpt>
      <trkpt lat="37.42294" lon="-4.41797">
        <ele>563.0</ele>
        <time>2018-05-29T10:16:56.057Z</time>
      </trkpt>
      <trkpt lat="37.42292" lon="-4.417925">
        <ele>563.0</ele>
        <time>2018-05-29T10:16:57.076Z</time>
      </trkpt>
      <trkpt lat="37.42292" lon="-4.417925">
        <ele>563.0</ele>
        <time>2018-05-29T10:16:58.060Z</time>
      </trkpt>
      <trkpt lat="37.42285833" lon="-4.41779333">
        <ele>563.0</ele>
        <time>2018-05-29T10:16:59.086Z</time>
      </trkpt>
      <trkpt lat="37.42285833" lon="-4.41779333">
        <ele>563.0</ele>
        <time>2018-05-29T10:17:00.095Z</time>
      </trkpt>
      <trkpt lat="37.42285833" lon="-4.41779333">
        <ele>563.0</ele>
        <time>2018-05-29T10:17:01.059Z</time>
      </trkpt>
      <trkpt lat="37.42282667" lon="-4.41769833">
        <ele>563.0</ele>
        <time>2018-05-29T10:17:02.056Z</time>
      </trkpt>
      <trkpt lat="37.42282667" lon="-4.41769833">
        <ele>563.0</ele>
        <time>2018-05-29T10:17:03.063Z</time>
      </trkpt>
      <trkpt lat="37.42279833" lon="-4.41760167">
        <ele>563.0</ele>
        <time>2018-05-29T10:17:04.083Z</time>
      </trkpt>
      <trkpt lat="37.42279833" lon="-4.41760167">
        <ele>563.0</ele>
        <time>2018-05-29T10:17:05.093Z</time>
      </trkpt>
      <trkpt lat="37.42277167" lon="-4.41750333">
        <ele>563.0</ele>
        <time>2018-05-29T10:17:06.065Z</time>
      </trkpt>
      <trkpt lat="37.42277167" lon="-4.41750333">
        <ele>563.0</ele>
        <time>2018-05-29T10:17:07.092Z</time>
      </trkpt>
      <trkpt lat="37.422755" lon="-4.41740333">
        <ele>563.0</ele>
        <time>2018-05-29T10:17:08.083Z</time>
      </trkpt>
      <trkpt lat="37.42274833" lon="-4.41735167">
        <ele>563.0</ele>
        <time>2018-05-29T10:17:09.062Z</time>
      </trkpt>
      <trkpt lat="37.42274833" lon="-4.41735167">
        <ele>563.0</ele>
        <time>2018-05-29T10:17:10.068Z</time>
      </trkpt>
      <trkpt lat="37.422745" lon="-4.41725">
        <ele>563.0</ele>
        <time>2018-05-29T10:17:11.073Z</time>
      </trkpt>
      <trkpt lat="37.42274833" lon="-4.4172">
        <ele>563.0</ele>
        <time>2018-05-29T10:17:12.057Z</time>
      </trkpt>
      <trkpt lat="37.42274833" lon="-4.4172">
        <ele>563.0</ele>
        <time>2018-05-29T10:17:13.064Z</time>
      </trkpt>
      <trkpt lat="37.42274333" lon="-4.41709833">
        <ele>563.0</ele>
        <time>2018-05-29T10:17:14.093Z</time>
      </trkpt>
      <trkpt lat="37.42274333" lon="-4.41709833">
        <ele>563.0</ele>
        <time>2018-05-29T10:17:15.059Z</time>
      </trkpt>
      <trkpt lat="37.42273167" lon="-4.417">
        <ele>563.0</ele>
        <time>2018-05-29T10:17:16.110Z</time>
      </trkpt>
      <trkpt lat="37.42273167" lon="-4.417">
        <ele>563.0</ele>
        <time>2018-05-29T10:17:17.062Z</time>
      </trkpt>
      <trkpt lat="37.42271667" lon="-4.41689833">
        <ele>563.0</ele>
        <time>2018-05-29T10:17:18.080Z</time>
      </trkpt>
      <trkpt lat="37.42271667" lon="-4.41689833">
        <ele>563.0</ele>
        <time>2018-05-29T10:17:19.089Z</time>
      </trkpt>
      <trkpt lat="37.42270833" lon="-4.41679667">
        <ele>564.0</ele>
        <time>2018-05-29T10:17:20.092Z</time>
      </trkpt>
      <trkpt lat="37.422705" lon="-4.41674667">
        <ele>564.0</ele>
        <time>2018-05-29T10:17:21.081Z</time>
      </trkpt>
      <trkpt lat="37.422705" lon="-4.41674667">
        <ele>564.0</ele>
        <time>2018-05-29T10:17:22.089Z</time>
      </trkpt>
      <trkpt lat="37.42268333" lon="-4.41664833">
        <ele>564.0</ele>
        <time>2018-05-29T10:17:23.074Z</time>
      </trkpt>
      <trkpt lat="37.422655" lon="-4.41655167">
        <ele>564.0</ele>
        <time>2018-05-29T10:17:24.098Z</time>
      </trkpt>
      <trkpt lat="37.422655" lon="-4.41655167">
        <ele>564.0</ele>
        <time>2018-05-29T10:17:25.082Z</time>
      </trkpt>
      <trkpt lat="37.42264333" lon="-4.41650333">
        <ele>564.0</ele>
        <time>2018-05-29T10:17:26.084Z</time>
      </trkpt>
      <trkpt lat="37.42264333" lon="-4.41650333">
        <ele>564.0</ele>
        <time>2018-05-29T10:17:27.090Z</time>
      </trkpt>
      <trkpt lat="37.422625" lon="-4.41640667">
        <ele>564.0</ele>
        <time>2018-05-29T10:17:28.065Z</time>
      </trkpt>
      <trkpt lat="37.422625" lon="-4.41640667">
        <ele>564.0</ele>
        <time>2018-05-29T10:17:29.072Z</time>
      </trkpt>
      <trkpt lat="37.42261" lon="-4.416305">
        <ele>564.0</ele>
        <time>2018-05-29T10:17:30.087Z</time>
      </trkpt>
      <trkpt lat="37.42261" lon="-4.416305">
        <ele>564.0</ele>
        <time>2018-05-29T10:17:31.093Z</time>
      </trkpt>
      <trkpt lat="37.42259667" lon="-4.41620667">
        <ele>565.0</ele>
        <time>2018-05-29T10:17:32.083Z</time>
      </trkpt>
      <trkpt lat="37.42258167" lon="-4.41610667">
        <ele>565.0</ele>
        <time>2018-05-29T10:17:33.091Z</time>
      </trkpt>
      <trkpt lat="37.422575" lon="-4.41605667">
        <ele>565.0</ele>
        <time>2018-05-29T10:17:34.094Z</time>
      </trkpt>
      <trkpt lat="37.422575" lon="-4.41605667">
        <ele>565.0</ele>
        <time>2018-05-29T10:17:35.071Z</time>
      </trkpt>
      <trkpt lat="37.42256667" lon="-4.41600833">
        <ele>565.0</ele>
        <time>2018-05-29T10:17:36.093Z</time>
      </trkpt>
      <trkpt lat="37.422555" lon="-4.41591167">
        <ele>565.0</ele>
        <time>2018-05-29T10:17:37.091Z</time>
      </trkpt>
      <trkpt lat="37.422555" lon="-4.41591167">
        <ele>565.0</ele>
        <time>2018-05-29T10:17:38.083Z</time>
      </trkpt>
      <trkpt lat="37.42255167" lon="-4.41586167">
        <ele>566.0</ele>
        <time>2018-05-29T10:17:39.071Z</time>
      </trkpt>
      <trkpt lat="37.42255167" lon="-4.41586167">
        <ele>566.0</ele>
        <time>2018-05-29T10:17:40.089Z</time>
      </trkpt>
      <trkpt lat="37.422545" lon="-4.415765">
        <ele>566.0</ele>
        <time>2018-05-29T10:17:41.085Z</time>
      </trkpt>
      <trkpt lat="37.42254167" lon="-4.415715">
        <ele>566.0</ele>
        <time>2018-05-29T10:17:42.069Z</time>
      </trkpt>
      <trkpt lat="37.42254167" lon="-4.415715">
        <ele>566.0</ele>
        <time>2018-05-29T10:17:43.080Z</time>
      </trkpt>
      <trkpt lat="37.42253833" lon="-4.41561833">
        <ele>566.0</ele>
        <time>2018-05-29T10:17:44.064Z</time>
      </trkpt>
      <trkpt lat="37.42254167" lon="-4.41557">
        <ele>566.0</ele>
        <time>2018-05-29T10:17:45.070Z</time>
      </trkpt>
      <trkpt lat="37.42254167" lon="-4.41557">
        <ele>566.0</ele>
        <time>2018-05-29T10:17:46.095Z</time>
      </trkpt>
      <trkpt lat="37.42254833" lon="-4.415475">
        <ele>567.0</ele>
        <time>2018-05-29T10:17:47.080Z</time>
      </trkpt>
      <trkpt lat="37.422545" lon="-4.41538333">
        <ele>567.0</ele>
        <time>2018-05-29T10:17:48.092Z</time>
      </trkpt>
      <trkpt lat="37.422545" lon="-4.41538333">
        <ele>567.0</ele>
        <time>2018-05-29T10:17:49.062Z</time>
      </trkpt>
      <trkpt lat="37.42253833" lon="-4.415335">
        <ele>567.0</ele>
        <time>2018-05-29T10:17:50.082Z</time>
      </trkpt>
      <trkpt lat="37.42253833" lon="-4.415335">
        <ele>567.0</ele>
        <time>2018-05-29T10:17:51.091Z</time>
      </trkpt>
      <trkpt lat="37.42252167" lon="-4.41523333">
        <ele>567.0</ele>
        <time>2018-05-29T10:17:52.057Z</time>
      </trkpt>
      <trkpt lat="37.42252167" lon="-4.41523333">
        <ele>567.0</ele>
        <time>2018-05-29T10:17:53.085Z</time>
      </trkpt>
      <trkpt lat="37.42250833" lon="-4.41513333">
        <ele>567.0</ele>
        <time>2018-05-29T10:17:54.056Z</time>
      </trkpt>
      <trkpt lat="37.42250833" lon="-4.41513333">
        <ele>567.0</ele>
        <time>2018-05-29T10:17:55.062Z</time>
      </trkpt>
      <trkpt lat="37.4225" lon="-4.415045">
        <ele>567.0</ele>
        <time>2018-05-29T10:17:56.085Z</time>
      </trkpt>
      <trkpt lat="37.42249" lon="-4.41500667">
        <ele>567.0</ele>
        <time>2018-05-29T10:17:57.094Z</time>
      </trkpt>
      <trkpt lat="37.42249" lon="-4.41500667">
        <ele>567.0</ele>
        <time>2018-05-29T10:17:58.109Z</time>
      </trkpt>
      <trkpt lat="37.42246667" lon="-4.41493667">
        <ele>567.0</ele>
        <time>2018-05-29T10:17:59.072Z</time>
      </trkpt>
      <trkpt lat="37.42245667" lon="-4.4149">
        <ele>567.0</ele>
        <time>2018-05-29T10:18:00.067Z</time>
      </trkpt>
      <trkpt lat="37.42245667" lon="-4.4149">
        <ele>567.0</ele>
        <time>2018-05-29T10:18:01.079Z</time>
      </trkpt>
      <trkpt lat="37.42244" lon="-4.414825">
        <ele>568.0</ele>
        <time>2018-05-29T10:18:02.060Z</time>
      </trkpt>
      <trkpt lat="37.42243333" lon="-4.41478833">
        <ele>568.0</ele>
        <time>2018-05-29T10:18:03.067Z</time>
      </trkpt>
      <trkpt lat="37.42242833" lon="-4.41475">
        <ele>568.0</ele>
        <time>2018-05-29T10:18:04.080Z</time>
      </trkpt>
      <trkpt lat="37.42242833" lon="-4.41475">
        <ele>568.0</ele>
        <time>2018-05-29T10:18:05.092Z</time>
      </trkpt>
      <trkpt lat="37.422415" lon="-4.41467">
        <ele>569.0</ele>
        <time>2018-05-29T10:18:06.071Z</time>
      </trkpt>
      <trkpt lat="37.42240833" lon="-4.41462833">
        <ele>569.0</ele>
        <time>2018-05-29T10:18:07.057Z</time>
      </trkpt>
      <trkpt lat="37.42240833" lon="-4.41462833">
        <ele>569.0</ele>
        <time>2018-05-29T10:18:08.063Z</time>
      </trkpt>
      <trkpt lat="37.42239833" lon="-4.414545">
        <ele>570.0</ele>
        <time>2018-05-29T10:18:09.091Z</time>
      </trkpt>
      <trkpt lat="37.42239833" lon="-4.414545">
        <ele>570.0</ele>
        <time>2018-05-29T10:18:10.057Z</time>
      </trkpt>
      <trkpt lat="37.42239" lon="-4.41446167">
        <ele>570.0</ele>
        <time>2018-05-29T10:18:11.075Z</time>
      </trkpt>
      <trkpt lat="37.42239" lon="-4.41442">
        <ele>570.0</ele>
        <time>2018-05-29T10:18:12.088Z</time>
      </trkpt>
      <trkpt lat="37.42239" lon="-4.41442">
        <ele>570.0</ele>
        <time>2018-05-29T10:18:13.085Z</time>
      </trkpt>
      <trkpt lat="37.42238" lon="-4.414295">
        <ele>572.0</ele>
        <time>2018-05-29T10:18:14.093Z</time>
      </trkpt>
      <trkpt lat="37.42238" lon="-4.414295">
        <ele>572.0</ele>
        <time>2018-05-29T10:18:15.082Z</time>
      </trkpt>
      <trkpt lat="37.42238" lon="-4.414295">
        <ele>572.0</ele>
        <time>2018-05-29T10:18:16.089Z</time>
      </trkpt>
      <trkpt lat="37.42236833" lon="-4.41420833">
        <ele>572.0</ele>
        <time>2018-05-29T10:18:17.073Z</time>
      </trkpt>
      <trkpt lat="37.42235833" lon="-4.41412167">
        <ele>572.0</ele>
        <time>2018-05-29T10:18:18.093Z</time>
      </trkpt>
      <trkpt lat="37.42235833" lon="-4.41412167">
        <ele>572.0</ele>
        <time>2018-05-29T10:18:19.083Z</time>
      </trkpt>
      <trkpt lat="37.42235833" lon="-4.41412167">
        <ele>572.0</ele>
        <time>2018-05-29T10:18:20.089Z</time>
      </trkpt>
      <trkpt lat="37.42234667" lon="-4.41403333">
        <ele>572.0</ele>
        <time>2018-05-29T10:18:21.067Z</time>
      </trkpt>
      <trkpt lat="37.42234667" lon="-4.41403333">
        <ele>572.0</ele>
        <time>2018-05-29T10:18:22.081Z</time>
      </trkpt>
      <trkpt lat="37.42233" lon="-4.41394833">
        <ele>572.0</ele>
        <time>2018-05-29T10:18:23.062Z</time>
      </trkpt>
      <trkpt lat="37.42232" lon="-4.41390667">
        <ele>572.0</ele>
        <time>2018-05-29T10:18:24.064Z</time>
      </trkpt>
      <trkpt lat="37.42232" lon="-4.41390667">
        <ele>572.0</ele>
        <time>2018-05-29T10:18:25.071Z</time>
      </trkpt>
      <trkpt lat="37.42228833" lon="-4.41378667">
        <ele>573.0</ele>
        <time>2018-05-29T10:18:26.094Z</time>
      </trkpt>
      <trkpt lat="37.42228833" lon="-4.41378667">
        <ele>573.0</ele>
        <time>2018-05-29T10:18:27.060Z</time>
      </trkpt>
      <trkpt lat="37.42228833" lon="-4.41378667">
        <ele>573.0</ele>
        <time>2018-05-29T10:18:28.101Z</time>
      </trkpt>
      <trkpt lat="37.42225667" lon="-4.41371333">
        <ele>572.0</ele>
        <time>2018-05-29T10:18:29.073Z</time>
      </trkpt>
      <trkpt lat="37.42224167" lon="-4.413675">
        <ele>572.0</ele>
        <time>2018-05-29T10:18:30.059Z</time>
      </trkpt>
      <trkpt lat="37.42224167" lon="-4.413675">
        <ele>572.0</ele>
        <time>2018-05-29T10:18:31.066Z</time>
      </trkpt>
      <trkpt lat="37.42221167" lon="-4.413595">
        <ele>571.0</ele>
        <time>2018-05-29T10:18:32.081Z</time>
      </trkpt>
      <trkpt lat="37.42218" lon="-4.41352">
        <ele>571.0</ele>
        <time>2018-05-29T10:18:33.095Z</time>
      </trkpt>
      <trkpt lat="37.42218" lon="-4.41352">
        <ele>571.0</ele>
        <time>2018-05-29T10:18:34.087Z</time>
      </trkpt>
      <trkpt lat="37.42218" lon="-4.41352">
        <ele>571.0</ele>
        <time>2018-05-29T10:18:35.092Z</time>
      </trkpt>
      <trkpt lat="37.42214333" lon="-4.41344333">
        <ele>570.0</ele>
        <time>2018-05-29T10:18:36.092Z</time>
      </trkpt>
      <trkpt lat="37.42214333" lon="-4.41344333">
        <ele>570.0</ele>
        <time>2018-05-29T10:18:37.092Z</time>
      </trkpt>
      <trkpt lat="37.42210833" lon="-4.41336167">
        <ele>570.0</ele>
        <time>2018-05-29T10:18:38.091Z</time>
      </trkpt>
      <trkpt lat="37.42210833" lon="-4.41336167">
        <ele>570.0</ele>
        <time>2018-05-29T10:18:39.057Z</time>
      </trkpt>
      <trkpt lat="37.42207333" lon="-4.41328333">
        <ele>571.0</ele>
        <time>2018-05-29T10:18:40.084Z</time>
      </trkpt>
      <trkpt lat="37.42207333" lon="-4.41328333">
        <ele>571.0</ele>
        <time>2018-05-29T10:18:41.064Z</time>
      </trkpt>
      <trkpt lat="37.42204333" lon="-4.41320333">
        <ele>571.0</ele>
        <time>2018-05-29T10:18:42.061Z</time>
      </trkpt>
      <trkpt lat="37.42204333" lon="-4.41320333">
        <ele>571.0</ele>
        <time>2018-05-29T10:18:43.068Z</time>
      </trkpt>
      <trkpt lat="37.42201333" lon="-4.41312">
        <ele>571.0</ele>
        <time>2018-05-29T10:18:44.080Z</time>
      </trkpt>
      <trkpt lat="37.42201333" lon="-4.41312">
        <ele>571.0</ele>
        <time>2018-05-29T10:18:45.092Z</time>
      </trkpt>
      <trkpt lat="37.42198833" lon="-4.41303">
        <ele>571.0</ele>
        <time>2018-05-29T10:18:46.059Z</time>
      </trkpt>
      <trkpt lat="37.42198833" lon="-4.41303">
        <ele>571.0</ele>
        <time>2018-05-29T10:18:47.066Z</time>
      </trkpt>
      <trkpt lat="37.421965" lon="-4.41293833">
        <ele>571.0</ele>
        <time>2018-05-29T10:18:48.078Z</time>
      </trkpt>
      <trkpt lat="37.42192167" lon="-4.41286333">
        <ele>571.0</ele>
        <time>2018-05-29T10:18:49.089Z</time>
      </trkpt>
      <trkpt lat="37.42192167" lon="-4.41286333">
        <ele>571.0</ele>
        <time>2018-05-29T10:18:50.061Z</time>
      </trkpt>
      <trkpt lat="37.42189333" lon="-4.41283667">
        <ele>571.0</ele>
        <time>2018-05-29T10:18:51.080Z</time>
      </trkpt>
      <trkpt lat="37.42186" lon="-4.412805">
        <ele>571.0</ele>
        <time>2018-05-29T10:18:52.095Z</time>
      </trkpt>
      <trkpt lat="37.42186" lon="-4.412805">
        <ele>571.0</ele>
        <time>2018-05-29T10:18:53.087Z</time>
      </trkpt>
      <trkpt lat="37.421855" lon="-4.41279833">
        <ele>572.0</ele>
        <time>2018-05-29T10:18:54.084Z</time>
      </trkpt>
      <trkpt lat="37.421855" lon="-4.41279833">
        <ele>572.0</ele>
        <time>2018-05-29T10:18:55.091Z</time>
      </trkpt>
      <trkpt lat="37.42185333" lon="-4.41279833">
        <ele>572.0</ele>
        <time>2018-05-29T10:18:56.074Z</time>
      </trkpt>
      <trkpt lat="37.42185333" lon="-4.41279833">
        <ele>572.0</ele>
        <time>2018-05-29T10:18:57.057Z</time>
      </trkpt>
      <trkpt lat="37.42185333" lon="-4.41279833">
        <ele>572.0</ele>
        <time>2018-05-29T10:18:58.065Z</time>
      </trkpt>
      <trkpt lat="37.42185333" lon="-4.41279833">
        <ele>572.0</ele>
        <time>2018-05-29T10:18:59.072Z</time>
      </trkpt>
      <trkpt lat="37.42185333" lon="-4.41279833">
        <ele>572.0</ele>
        <time>2018-05-29T10:19:00.080Z</time>
      </trkpt>
      <trkpt lat="37.42185333" lon="-4.41279833">
        <ele>572.0</ele>
        <time>2018-05-29T10:19:01.087Z</time>
      </trkpt>
      <trkpt lat="37.42185333" lon="-4.41279833">
        <ele>572.0</ele>
        <time>2018-05-29T10:19:02.084Z</time>
      </trkpt>
      <trkpt lat="37.42185333" lon="-4.41279833">
        <ele>572.0</ele>
        <time>2018-05-29T10:19:03.093Z</time>
      </trkpt>
      <trkpt lat="37.42185333" lon="-4.41279833">
        <ele>572.0</ele>
        <time>2018-05-29T10:19:04.080Z</time>
      </trkpt>
      <trkpt lat="37.42185333" lon="-4.41279833">
        <ele>572.0</ele>
        <time>2018-05-29T10:19:05.057Z</time>
      </trkpt>
      <trkpt lat="37.42185333" lon="-4.41279833">
        <ele>572.0</ele>
        <time>2018-05-29T10:19:06.079Z</time>
      </trkpt>
      <trkpt lat="37.42185333" lon="-4.41279833">
        <ele>572.0</ele>
        <time>2018-05-29T10:19:07.084Z</time>
      </trkpt>
      <trkpt lat="37.42185333" lon="-4.41279833">
        <ele>572.0</ele>
        <time>2018-05-29T10:19:08.084Z</time>
      </trkpt>
      <trkpt lat="37.42185333" lon="-4.41279833">
        <ele>572.0</ele>
        <time>2018-05-29T10:19:09.080Z</time>
      </trkpt>
      <trkpt lat="37.42185333" lon="-4.41279833">
        <ele>572.0</ele>
        <time>2018-05-29T10:19:10.082Z</time>
      </trkpt>
      <trkpt lat="37.42185333" lon="-4.41279833">
        <ele>572.0</ele>
        <time>2018-05-29T10:19:11.084Z</time>
      </trkpt>
      <trkpt lat="37.42185333" lon="-4.41279833">
        <ele>572.0</ele>
        <time>2018-05-29T10:19:12.077Z</time>
      </trkpt>
      <trkpt lat="37.42184167" lon="-4.41277167">
        <ele>575.0</ele>
        <time>2018-05-29T10:19:13.081Z</time>
      </trkpt>
      <trkpt lat="37.421835" lon="-4.41275833">
        <ele>575.0</ele>
        <time>2018-05-29T10:19:14.059Z</time>
      </trkpt>
      <trkpt lat="37.421835" lon="-4.41275833">
        <ele>575.0</ele>
        <time>2018-05-29T10:19:15.079Z</time>
      </trkpt>
      <trkpt lat="37.42181667" lon="-4.41272833">
        <ele>575.0</ele>
        <time>2018-05-29T10:19:16.115Z</time>
      </trkpt>
      <trkpt lat="37.42181667" lon="-4.41272833">
        <ele>575.0</ele>
        <time>2018-05-29T10:19:17.087Z</time>
      </trkpt>
      <trkpt lat="37.42179" lon="-4.41270833">
        <ele>575.0</ele>
        <time>2018-05-29T10:19:18.061Z</time>
      </trkpt>
      <trkpt lat="37.42178" lon="-4.41269833">
        <ele>575.0</ele>
        <time>2018-05-29T10:19:19.063Z</time>
      </trkpt>
      <trkpt lat="37.42178" lon="-4.41269833">
        <ele>575.0</ele>
        <time>2018-05-29T10:19:20.079Z</time>
      </trkpt>
      <trkpt lat="37.42175833" lon="-4.41267667">
        <ele>576.0</ele>
        <time>2018-05-29T10:19:21.092Z</time>
      </trkpt>
      <trkpt lat="37.42175833" lon="-4.41267667">
        <ele>576.0</ele>
        <time>2018-05-29T10:19:22.073Z</time>
      </trkpt>
      <trkpt lat="37.42173167" lon="-4.412655">
        <ele>576.0</ele>
        <time>2018-05-29T10:19:23.085Z</time>
      </trkpt>
      <trkpt lat="37.42173167" lon="-4.412655">
        <ele>576.0</ele>
        <time>2018-05-29T10:19:24.072Z</time>
      </trkpt>
      <trkpt lat="37.4217" lon="-4.41263333">
        <ele>576.0</ele>
        <time>2018-05-29T10:19:25.081Z</time>
      </trkpt>
      <trkpt lat="37.4217" lon="-4.41263333">
        <ele>576.0</ele>
        <time>2018-05-29T10:19:26.074Z</time>
      </trkpt>
      <trkpt lat="37.42166667" lon="-4.41260667">
        <ele>577.0</ele>
        <time>2018-05-29T10:19:27.057Z</time>
      </trkpt>
      <trkpt lat="37.42166667" lon="-4.41260667">
        <ele>577.0</ele>
        <time>2018-05-29T10:19:28.079Z</time>
      </trkpt>
      <trkpt lat="37.42163333" lon="-4.41258">
        <ele>577.0</ele>
        <time>2018-05-29T10:19:29.089Z</time>
      </trkpt>
      <trkpt lat="37.42163333" lon="-4.41258">
        <ele>577.0</ele>
        <time>2018-05-29T10:19:30.085Z</time>
      </trkpt>
      <trkpt lat="37.42160667" lon="-4.412555">
        <ele>577.0</ele>
        <time>2018-05-29T10:19:31.097Z</time>
      </trkpt>
      <trkpt lat="37.42159667" lon="-4.41254333">
        <ele>577.0</ele>
        <time>2018-05-29T10:19:32.077Z</time>
      </trkpt>
      <trkpt lat="37.421585" lon="-4.41253333">
        <ele>577.0</ele>
        <time>2018-05-29T10:19:33.072Z</time>
      </trkpt>
      <trkpt lat="37.421585" lon="-4.41253333">
        <ele>577.0</ele>
        <time>2018-05-29T10:19:34.090Z</time>
      </trkpt>
      <trkpt lat="37.42155833" lon="-4.41251833">
        <ele>577.0</ele>
        <time>2018-05-29T10:19:35.063Z</time>
      </trkpt>
      <trkpt lat="37.42155833" lon="-4.41251833">
        <ele>577.0</ele>
        <time>2018-05-29T10:19:36.062Z</time>
      </trkpt>
      <trkpt lat="37.42152833" lon="-4.41250167">
        <ele>578.0</ele>
        <time>2018-05-29T10:19:37.077Z</time>
      </trkpt>
      <trkpt lat="37.421515" lon="-4.41249333">
        <ele>578.0</ele>
        <time>2018-05-29T10:19:38.062Z</time>
      </trkpt>
      <trkpt lat="37.421515" lon="-4.41249333">
        <ele>578.0</ele>
        <time>2018-05-29T10:19:39.094Z</time>
      </trkpt>
      <trkpt lat="37.42148833" lon="-4.412475">
        <ele>578.0</ele>
        <time>2018-05-29T10:19:40.063Z</time>
      </trkpt>
      <trkpt lat="37.42148833" lon="-4.412475">
        <ele>578.0</ele>
        <time>2018-05-29T10:19:41.088Z</time>
      </trkpt>
      <trkpt lat="37.42146" lon="-4.41245167">
        <ele>579.0</ele>
        <time>2018-05-29T10:19:42.062Z</time>
      </trkpt>
      <trkpt lat="37.42146" lon="-4.41245167">
        <ele>579.0</ele>
        <time>2018-05-29T10:19:43.079Z</time>
      </trkpt>
      <trkpt lat="37.42144" lon="-4.412425">
        <ele>579.0</ele>
        <time>2018-05-29T10:19:44.091Z</time>
      </trkpt>
      <trkpt lat="37.42143167" lon="-4.41241167">
        <ele>579.0</ele>
        <time>2018-05-29T10:19:45.088Z</time>
      </trkpt>
      <trkpt lat="37.42142333" lon="-4.41240333">
        <ele>580.0</ele>
        <time>2018-05-29T10:19:46.056Z</time>
      </trkpt>
      <trkpt lat="37.42142333" lon="-4.41240333">
        <ele>580.0</ele>
        <time>2018-05-29T10:19:47.090Z</time>
      </trkpt>
      <trkpt lat="37.42141667" lon="-4.41240333">
        <ele>580.0</ele>
        <time>2018-05-29T10:19:48.083Z</time>
      </trkpt>
      <trkpt lat="37.42141667" lon="-4.41240333">
        <ele>580.0</ele>
        <time>2018-05-29T10:19:49.057Z</time>
      </trkpt>
      <trkpt lat="37.42147667" lon="-4.41246">
        <ele>580.0</ele>
        <time>2018-05-29T10:19:50.057Z</time>
      </trkpt>
      <trkpt lat="37.42147667" lon="-4.41246">
        <ele>580.0</ele>
        <time>2018-05-29T10:19:51.093Z</time>
      </trkpt>
      <trkpt lat="37.42152167" lon="-4.41250167">
        <ele>580.0</ele>
        <time>2018-05-29T10:19:52.093Z</time>
      </trkpt>
      <trkpt lat="37.42154833" lon="-4.41252">
        <ele>580.0</ele>
        <time>2018-05-29T10:19:53.075Z</time>
      </trkpt>
      <trkpt lat="37.42157667" lon="-4.41254">
        <ele>580.0</ele>
        <time>2018-05-29T10:19:54.061Z</time>
      </trkpt>
      <trkpt lat="37.42157667" lon="-4.41254">
        <ele>580.0</ele>
        <time>2018-05-29T10:19:55.094Z</time>
      </trkpt>
      <trkpt lat="37.42163167" lon="-4.41258667">
        <ele>579.0</ele>
        <time>2018-05-29T10:19:56.064Z</time>
      </trkpt>
      <trkpt lat="37.42163167" lon="-4.41258667">
        <ele>579.0</ele>
        <time>2018-05-29T10:19:57.075Z</time>
      </trkpt>
      <trkpt lat="37.42169" lon="-4.412635">
        <ele>579.0</ele>
        <time>2018-05-29T10:19:58.061Z</time>
      </trkpt>
      <trkpt lat="37.42171833" lon="-4.41265667">
        <ele>579.0</ele>
        <time>2018-05-29T10:19:59.082Z</time>
      </trkpt>
      <trkpt lat="37.42171833" lon="-4.41265667">
        <ele>579.0</ele>
        <time>2018-05-29T10:20:00.088Z</time>
      </trkpt>
      <trkpt lat="37.42177833" lon="-4.41269667">
        <ele>578.0</ele>
        <time>2018-05-29T10:20:01.079Z</time>
      </trkpt>
      <trkpt lat="37.42180833" lon="-4.41272167">
        <ele>578.0</ele>
        <time>2018-05-29T10:20:02.063Z</time>
      </trkpt>
      <trkpt lat="37.42180833" lon="-4.41272167">
        <ele>578.0</ele>
        <time>2018-05-29T10:20:03.069Z</time>
      </trkpt>
      <trkpt lat="37.42186667" lon="-4.41277667">
        <ele>578.0</ele>
        <time>2018-05-29T10:20:04.070Z</time>
      </trkpt>
      <trkpt lat="37.42186667" lon="-4.41277667">
        <ele>578.0</ele>
        <time>2018-05-29T10:20:05.077Z</time>
      </trkpt>
      <trkpt lat="37.42190333" lon="-4.41281333">
        <ele>578.0</ele>
        <time>2018-05-29T10:20:06.061Z</time>
      </trkpt>
      <trkpt lat="37.42190333" lon="-4.41281333">
        <ele>578.0</ele>
        <time>2018-05-29T10:20:07.066Z</time>
      </trkpt>
      <trkpt lat="37.42192833" lon="-4.41284833">
        <ele>578.0</ele>
        <time>2018-05-29T10:20:08.062Z</time>
      </trkpt>
      <trkpt lat="37.42192833" lon="-4.41284833">
        <ele>578.0</ele>
        <time>2018-05-29T10:20:09.067Z</time>
      </trkpt>
      <trkpt lat="37.42196333" lon="-4.412875">
        <ele>578.0</ele>
        <time>2018-05-29T10:20:10.070Z</time>
      </trkpt>
      <trkpt lat="37.42196333" lon="-4.412875">
        <ele>578.0</ele>
        <time>2018-05-29T10:20:11.076Z</time>
      </trkpt>
      <trkpt lat="37.42197833" lon="-4.41290167">
        <ele>578.0</ele>
        <time>2018-05-29T10:20:12.093Z</time>
      </trkpt>
      <trkpt lat="37.42197833" lon="-4.41290167">
        <ele>578.0</ele>
        <time>2018-05-29T10:20:13.058Z</time>
      </trkpt>
      <trkpt lat="37.421955" lon="-4.41290667">
        <ele>579.0</ele>
        <time>2018-05-29T10:20:14.088Z</time>
      </trkpt>
      <trkpt lat="37.42194167" lon="-4.41289167">
        <ele>579.0</ele>
        <time>2018-05-29T10:20:15.066Z</time>
      </trkpt>
      <trkpt lat="37.42194167" lon="-4.41289167">
        <ele>579.0</ele>
        <time>2018-05-29T10:20:16.072Z</time>
      </trkpt>
      <trkpt lat="37.42190667" lon="-4.41285">
        <ele>580.0</ele>
        <time>2018-05-29T10:20:17.077Z</time>
      </trkpt>
      <trkpt lat="37.42188667" lon="-4.41283167">
        <ele>580.0</ele>
        <time>2018-05-29T10:20:18.078Z</time>
      </trkpt>
      <trkpt lat="37.42188667" lon="-4.41283167">
        <ele>580.0</ele>
        <time>2018-05-29T10:20:19.086Z</time>
      </trkpt>
      <trkpt lat="37.42184833" lon="-4.412805">
        <ele>580.0</ele>
        <time>2018-05-29T10:20:20.069Z</time>
      </trkpt>
      <trkpt lat="37.42184833" lon="-4.412805">
        <ele>580.0</ele>
        <time>2018-05-29T10:20:21.075Z</time>
      </trkpt>
      <trkpt lat="37.42179667" lon="-4.41280333">
        <ele>580.0</ele>
        <time>2018-05-29T10:20:22.059Z</time>
      </trkpt>
      <trkpt lat="37.42179667" lon="-4.41280333">
        <ele>580.0</ele>
        <time>2018-05-29T10:20:23.076Z</time>
      </trkpt>
      <trkpt lat="37.42172833" lon="-4.41281167">
        <ele>579.0</ele>
        <time>2018-05-29T10:20:24.071Z</time>
      </trkpt>
      <trkpt lat="37.42172833" lon="-4.41281167">
        <ele>579.0</ele>
        <time>2018-05-29T10:20:25.076Z</time>
      </trkpt>
      <trkpt lat="37.42165" lon="-4.41282333">
        <ele>578.0</ele>
        <time>2018-05-29T10:20:26.062Z</time>
      </trkpt>
      <trkpt lat="37.42165" lon="-4.41282333">
        <ele>578.0</ele>
        <time>2018-05-29T10:20:27.068Z</time>
      </trkpt>
      <trkpt lat="37.42157833" lon="-4.41281667">
        <ele>578.0</ele>
        <time>2018-05-29T10:20:28.061Z</time>
      </trkpt>
      <trkpt lat="37.42157833" lon="-4.41281667">
        <ele>578.0</ele>
        <time>2018-05-29T10:20:29.066Z</time>
      </trkpt>
      <trkpt lat="37.42151833" lon="-4.4128">
        <ele>578.0</ele>
        <time>2018-05-29T10:20:30.095Z</time>
      </trkpt>
      <trkpt lat="37.42151833" lon="-4.4128">
        <ele>578.0</ele>
        <time>2018-05-29T10:20:31.060Z</time>
      </trkpt>
      <trkpt lat="37.42146833" lon="-4.41279167">
        <ele>577.0</ele>
        <time>2018-05-29T10:20:32.084Z</time>
      </trkpt>
      <trkpt lat="37.42146833" lon="-4.41279167">
        <ele>577.0</ele>
        <time>2018-05-29T10:20:33.090Z</time>
      </trkpt>
      <trkpt lat="37.42142167" lon="-4.41278167">
        <ele>577.0</ele>
        <time>2018-05-29T10:20:34.072Z</time>
      </trkpt>
      <trkpt lat="37.42142167" lon="-4.41278167">
        <ele>577.0</ele>
        <time>2018-05-29T10:20:35.077Z</time>
      </trkpt>
      <trkpt lat="37.42138333" lon="-4.41276167">
        <ele>577.0</ele>
        <time>2018-05-29T10:20:36.093Z</time>
      </trkpt>
      <trkpt lat="37.421365" lon="-4.41275167">
        <ele>577.0</ele>
        <time>2018-05-29T10:20:37.091Z</time>
      </trkpt>
      <trkpt lat="37.42134667" lon="-4.41274">
        <ele>577.0</ele>
        <time>2018-05-29T10:20:38.069Z</time>
      </trkpt>
      <trkpt lat="37.42134667" lon="-4.41274">
        <ele>577.0</ele>
        <time>2018-05-29T10:20:39.075Z</time>
      </trkpt>
      <trkpt lat="37.421315" lon="-4.41271333">
        <ele>577.0</ele>
        <time>2018-05-29T10:20:40.061Z</time>
      </trkpt>
      <trkpt lat="37.4213" lon="-4.41269833">
        <ele>577.0</ele>
        <time>2018-05-29T10:20:41.077Z</time>
      </trkpt>
      <trkpt lat="37.4213" lon="-4.41269833">
        <ele>577.0</ele>
        <time>2018-05-29T10:20:42.087Z</time>
      </trkpt>
      <trkpt lat="37.42127" lon="-4.412665">
        <ele>577.0</ele>
        <time>2018-05-29T10:20:43.086Z</time>
      </trkpt>
      <trkpt lat="37.42125667" lon="-4.41264333">
        <ele>577.0</ele>
        <time>2018-05-29T10:20:44.086Z</time>
      </trkpt>
      <trkpt lat="37.42125667" lon="-4.41264333">
        <ele>577.0</ele>
        <time>2018-05-29T10:20:45.091Z</time>
      </trkpt>
      <trkpt lat="37.42123" lon="-4.41260167">
        <ele>577.0</ele>
        <time>2018-05-29T10:20:46.059Z</time>
      </trkpt>
      <trkpt lat="37.42123" lon="-4.41260167">
        <ele>577.0</ele>
        <time>2018-05-29T10:20:47.065Z</time>
      </trkpt>
      <trkpt lat="37.42120167" lon="-4.41256">
        <ele>577.0</ele>
        <time>2018-05-29T10:20:48.092Z</time>
      </trkpt>
      <trkpt lat="37.42120167" lon="-4.41256">
        <ele>577.0</ele>
        <time>2018-05-29T10:20:49.058Z</time>
      </trkpt>
      <trkpt lat="37.42118" lon="-4.41252833">
        <ele>577.0</ele>
        <time>2018-05-29T10:20:50.085Z</time>
      </trkpt>
      <trkpt lat="37.421175" lon="-4.41252">
        <ele>577.0</ele>
        <time>2018-05-29T10:20:51.070Z</time>
      </trkpt>
      <trkpt lat="37.421175" lon="-4.41252">
        <ele>577.0</ele>
        <time>2018-05-29T10:20:52.076Z</time>
      </trkpt>
      <trkpt lat="37.421175" lon="-4.41252333">
        <ele>577.0</ele>
        <time>2018-05-29T10:20:53.078Z</time>
      </trkpt>
      <trkpt lat="37.421175" lon="-4.41252333">
        <ele>577.0</ele>
        <time>2018-05-29T10:20:54.058Z</time>
      </trkpt>
      <trkpt lat="37.421175" lon="-4.41252333">
        <ele>577.0</ele>
        <time>2018-05-29T10:20:55.085Z</time>
      </trkpt>
      <trkpt lat="37.42110167" lon="-4.41246667">
        <ele>575.0</ele>
        <time>2018-05-29T10:20:56.073Z</time>
      </trkpt>
      <trkpt lat="37.42110167" lon="-4.41246667">
        <ele>575.0</ele>
        <time>2018-05-29T10:20:57.060Z</time>
      </trkpt>
      <trkpt lat="37.42103833" lon="-4.412465">
        <ele>574.0</ele>
        <time>2018-05-29T10:20:58.092Z</time>
      </trkpt>
      <trkpt lat="37.42103833" lon="-4.412465">
        <ele>574.0</ele>
        <time>2018-05-29T10:20:59.066Z</time>
      </trkpt>
      <trkpt lat="37.42103833" lon="-4.412465">
        <ele>574.0</ele>
        <time>2018-05-29T10:21:00.061Z</time>
      </trkpt>
      <trkpt lat="37.42082333" lon="-4.41229833">
        <ele>579.0</ele>
        <time>2018-05-29T10:21:01.070Z</time>
      </trkpt>
      <trkpt lat="37.420805" lon="-4.41229167">
        <ele>579.0</ele>
        <time>2018-05-29T10:21:02.077Z</time>
      </trkpt>
      <trkpt lat="37.420805" lon="-4.41229167">
        <ele>579.0</ele>
        <time>2018-05-29T10:21:03.060Z</time>
      </trkpt>
      <trkpt lat="37.42077" lon="-4.41228333">
        <ele>580.0</ele>
        <time>2018-05-29T10:21:04.056Z</time>
      </trkpt>
      <trkpt lat="37.42075167" lon="-4.41227333">
        <ele>580.0</ele>
        <time>2018-05-29T10:21:05.056Z</time>
      </trkpt>
      <trkpt lat="37.42075167" lon="-4.41227333">
        <ele>580.0</ele>
        <time>2018-05-29T10:21:06.062Z</time>
      </trkpt>
      <trkpt lat="37.42072167" lon="-4.41224333">
        <ele>581.0</ele>
        <time>2018-05-29T10:21:07.089Z</time>
      </trkpt>
      <trkpt lat="37.42072167" lon="-4.41224333">
        <ele>581.0</ele>
        <time>2018-05-29T10:21:08.094Z</time>
      </trkpt>
      <trkpt lat="37.42069833" lon="-4.41220833">
        <ele>582.0</ele>
        <time>2018-05-29T10:21:09.073Z</time>
      </trkpt>
      <trkpt lat="37.42069" lon="-4.41219333">
        <ele>582.0</ele>
        <time>2018-05-29T10:21:10.056Z</time>
      </trkpt>
      <trkpt lat="37.42068" lon="-4.41217833">
        <ele>582.0</ele>
        <time>2018-05-29T10:21:11.086Z</time>
      </trkpt>
      <trkpt lat="37.42068" lon="-4.41217833">
        <ele>582.0</ele>
        <time>2018-05-29T10:21:12.091Z</time>
      </trkpt>
      <trkpt lat="37.42066333" lon="-4.41215">
        <ele>583.0</ele>
        <time>2018-05-29T10:21:13.086Z</time>
      </trkpt>
      <trkpt lat="37.420655" lon="-4.412135">
        <ele>583.0</ele>
        <time>2018-05-29T10:21:14.064Z</time>
      </trkpt>
      <trkpt lat="37.420655" lon="-4.412135">
        <ele>583.0</ele>
        <time>2018-05-29T10:21:15.070Z</time>
      </trkpt>
      <trkpt lat="37.42064" lon="-4.41210167">
        <ele>584.0</ele>
        <time>2018-05-29T10:21:16.095Z</time>
      </trkpt>
      <trkpt lat="37.42064" lon="-4.41210167">
        <ele>584.0</ele>
        <time>2018-05-29T10:21:17.061Z</time>
      </trkpt>
      <trkpt lat="37.42062" lon="-4.41205167">
        <ele>585.0</ele>
        <time>2018-05-29T10:21:18.092Z</time>
      </trkpt>
      <trkpt lat="37.42062" lon="-4.41205167">
        <ele>585.0</ele>
        <time>2018-05-29T10:21:19.057Z</time>
      </trkpt>
      <trkpt lat="37.42060167" lon="-4.41201667">
        <ele>586.0</ele>
        <time>2018-05-29T10:21:20.076Z</time>
      </trkpt>
      <trkpt lat="37.42060167" lon="-4.41201667">
        <ele>586.0</ele>
        <time>2018-05-29T10:21:21.082Z</time>
      </trkpt>
      <trkpt lat="37.42057833" lon="-4.41200333">
        <ele>586.0</ele>
        <time>2018-05-29T10:21:22.080Z</time>
      </trkpt>
      <trkpt lat="37.42056667" lon="-4.411995">
        <ele>587.0</ele>
        <time>2018-05-29T10:21:23.062Z</time>
      </trkpt>
      <trkpt lat="37.42056667" lon="-4.411995">
        <ele>587.0</ele>
        <time>2018-05-29T10:21:24.068Z</time>
      </trkpt>
      <trkpt lat="37.42055167" lon="-4.41197333">
        <ele>587.0</ele>
        <time>2018-05-29T10:21:25.060Z</time>
      </trkpt>
      <trkpt lat="37.42054667" lon="-4.41195833">
        <ele>587.0</ele>
        <time>2018-05-29T10:21:26.061Z</time>
      </trkpt>
      <trkpt lat="37.42054667" lon="-4.41195833">
        <ele>587.0</ele>
        <time>2018-05-29T10:21:27.066Z</time>
      </trkpt>
      <trkpt lat="37.42054167" lon="-4.41192833">
        <ele>587.0</ele>
        <time>2018-05-29T10:21:28.072Z</time>
      </trkpt>
      <trkpt lat="37.42053667" lon="-4.411915">
        <ele>587.0</ele>
        <time>2018-05-29T10:21:29.058Z</time>
      </trkpt>
      <trkpt lat="37.42053667" lon="-4.411915">
        <ele>587.0</ele>
        <time>2018-05-29T10:21:30.063Z</time>
      </trkpt>
      <trkpt lat="37.42052333" lon="-4.41189667">
        <ele>587.0</ele>
        <time>2018-05-29T10:21:31.090Z</time>
      </trkpt>
      <trkpt lat="37.42052333" lon="-4.41189667">
        <ele>587.0</ele>
        <time>2018-05-29T10:21:32.095Z</time>
      </trkpt>
      <trkpt lat="37.42050667" lon="-4.41188167">
        <ele>588.0</ele>
        <time>2018-05-29T10:21:33.080Z</time>
      </trkpt>
      <trkpt lat="37.42050667" lon="-4.41188167">
        <ele>588.0</ele>
        <time>2018-05-29T10:21:34.087Z</time>
      </trkpt>
      <trkpt lat="37.42049333" lon="-4.41186">
        <ele>588.0</ele>
        <time>2018-05-29T10:21:35.065Z</time>
      </trkpt>
      <trkpt lat="37.42049333" lon="-4.41186">
        <ele>588.0</ele>
        <time>2018-05-29T10:21:36.070Z</time>
      </trkpt>
      <trkpt lat="37.42048" lon="-4.41183667">
        <ele>589.0</ele>
        <time>2018-05-29T10:21:37.065Z</time>
      </trkpt>
      <trkpt lat="37.42048" lon="-4.41183667">
        <ele>589.0</ele>
        <time>2018-05-29T10:21:38.071Z</time>
      </trkpt>
      <trkpt lat="37.42046333" lon="-4.41181667">
        <ele>589.0</ele>
        <time>2018-05-29T10:21:39.092Z</time>
      </trkpt>
      <trkpt lat="37.42046333" lon="-4.41181667">
        <ele>589.0</ele>
        <time>2018-05-29T10:21:40.057Z</time>
      </trkpt>
      <trkpt lat="37.420445" lon="-4.41180667">
        <ele>589.0</ele>
        <time>2018-05-29T10:21:41.086Z</time>
      </trkpt>
      <trkpt lat="37.420445" lon="-4.41180667">
        <ele>589.0</ele>
        <time>2018-05-29T10:21:42.093Z</time>
      </trkpt>
      <trkpt lat="37.42042333" lon="-4.41181">
        <ele>589.0</ele>
        <time>2018-05-29T10:21:43.071Z</time>
      </trkpt>
      <trkpt lat="37.42042333" lon="-4.41181">
        <ele>589.0</ele>
        <time>2018-05-29T10:21:44.076Z</time>
      </trkpt>
      <trkpt lat="37.42039833" lon="-4.411815">
        <ele>591.0</ele>
        <time>2018-05-29T10:21:45.056Z</time>
      </trkpt>
      <trkpt lat="37.42039833" lon="-4.411815">
        <ele>591.0</ele>
        <time>2018-05-29T10:21:46.062Z</time>
      </trkpt>
      <trkpt lat="37.42037167" lon="-4.41182833">
        <ele>592.0</ele>
        <time>2018-05-29T10:21:47.083Z</time>
      </trkpt>
      <trkpt lat="37.42037167" lon="-4.41182833">
        <ele>592.0</ele>
        <time>2018-05-29T10:21:48.090Z</time>
      </trkpt>
      <trkpt lat="37.42034167" lon="-4.41183167">
        <ele>592.0</ele>
        <time>2018-05-29T10:21:49.081Z</time>
      </trkpt>
      <trkpt lat="37.42033" lon="-4.41183">
        <ele>592.0</ele>
        <time>2018-05-29T10:21:50.071Z</time>
      </trkpt>
      <trkpt lat="37.42033" lon="-4.41183">
        <ele>592.0</ele>
        <time>2018-05-29T10:21:51.076Z</time>
      </trkpt>
      <trkpt lat="37.420305" lon="-4.41182333">
        <ele>593.0</ele>
        <time>2018-05-29T10:21:52.059Z</time>
      </trkpt>
      <trkpt lat="37.420305" lon="-4.41182333">
        <ele>593.0</ele>
        <time>2018-05-29T10:21:53.080Z</time>
      </trkpt>
      <trkpt lat="37.42028" lon="-4.41180833">
        <ele>593.0</ele>
        <time>2018-05-29T10:21:54.066Z</time>
      </trkpt>
      <trkpt lat="37.42028" lon="-4.41180833">
        <ele>593.0</ele>
        <time>2018-05-29T10:21:55.071Z</time>
      </trkpt>
      <trkpt lat="37.42026333" lon="-4.41178167">
        <ele>593.0</ele>
        <time>2018-05-29T10:21:56.089Z</time>
      </trkpt>
      <trkpt lat="37.42025667" lon="-4.41176833">
        <ele>594.0</ele>
        <time>2018-05-29T10:21:57.074Z</time>
      </trkpt>
      <trkpt lat="37.42025167" lon="-4.411755">
        <ele>594.0</ele>
        <time>2018-05-29T10:21:58.058Z</time>
      </trkpt>
      <trkpt lat="37.42025167" lon="-4.411755">
        <ele>594.0</ele>
        <time>2018-05-29T10:21:59.064Z</time>
      </trkpt>
      <trkpt lat="37.42024" lon="-4.41172667">
        <ele>594.0</ele>
        <time>2018-05-29T10:22:00.085Z</time>
      </trkpt>
      <trkpt lat="37.42024" lon="-4.41172667">
        <ele>594.0</ele>
        <time>2018-05-29T10:22:01.091Z</time>
      </trkpt>
      <trkpt lat="37.42022333" lon="-4.4117">
        <ele>595.0</ele>
        <time>2018-05-29T10:22:02.076Z</time>
      </trkpt>
      <trkpt lat="37.42022333" lon="-4.4117">
        <ele>595.0</ele>
        <time>2018-05-29T10:22:03.083Z</time>
      </trkpt>
      <trkpt lat="37.42021333" lon="-4.41166667">
        <ele>595.0</ele>
        <time>2018-05-29T10:22:04.064Z</time>
      </trkpt>
      <trkpt lat="37.42021167" lon="-4.41165">
        <ele>595.0</ele>
        <time>2018-05-29T10:22:05.085Z</time>
      </trkpt>
      <trkpt lat="37.42021167" lon="-4.41165">
        <ele>595.0</ele>
        <time>2018-05-29T10:22:06.093Z</time>
      </trkpt>
      <trkpt lat="37.420205" lon="-4.41162167">
        <ele>595.0</ele>
        <time>2018-05-29T10:22:07.088Z</time>
      </trkpt>
      <trkpt lat="37.420205" lon="-4.41162167">
        <ele>595.0</ele>
        <time>2018-05-29T10:22:08.093Z</time>
      </trkpt>
      <trkpt lat="37.42020167" lon="-4.411595">
        <ele>596.0</ele>
        <time>2018-05-29T10:22:09.083Z</time>
      </trkpt>
      <trkpt lat="37.42020167" lon="-4.411595">
        <ele>596.0</ele>
        <time>2018-05-29T10:22:10.091Z</time>
      </trkpt>
      <trkpt lat="37.420195" lon="-4.41156333">
        <ele>596.0</ele>
        <time>2018-05-29T10:22:11.077Z</time>
      </trkpt>
      <trkpt lat="37.420195" lon="-4.41156333">
        <ele>596.0</ele>
        <time>2018-05-29T10:22:12.083Z</time>
      </trkpt>
      <trkpt lat="37.42018" lon="-4.41153833">
        <ele>596.0</ele>
        <time>2018-05-29T10:22:13.059Z</time>
      </trkpt>
      <trkpt lat="37.42018" lon="-4.41153833">
        <ele>596.0</ele>
        <time>2018-05-29T10:22:14.065Z</time>
      </trkpt>
      <trkpt lat="37.42016" lon="-4.41151833">
        <ele>597.0</ele>
        <time>2018-05-29T10:22:15.064Z</time>
      </trkpt>
      <trkpt lat="37.42016" lon="-4.41151833">
        <ele>597.0</ele>
        <time>2018-05-29T10:22:16.078Z</time>
      </trkpt>
      <trkpt lat="37.420135" lon="-4.41151">
        <ele>597.0</ele>
        <time>2018-05-29T10:22:17.071Z</time>
      </trkpt>
      <trkpt lat="37.420135" lon="-4.41151">
        <ele>597.0</ele>
        <time>2018-05-29T10:22:18.078Z</time>
      </trkpt>
      <trkpt lat="37.42011333" lon="-4.4115">
        <ele>597.0</ele>
        <time>2018-05-29T10:22:19.082Z</time>
      </trkpt>
      <trkpt lat="37.42010333" lon="-4.41149167">
        <ele>597.0</ele>
        <time>2018-05-29T10:22:20.067Z</time>
      </trkpt>
      <trkpt lat="37.42010333" lon="-4.41149167">
        <ele>597.0</ele>
        <time>2018-05-29T10:22:21.072Z</time>
      </trkpt>
      <trkpt lat="37.42008667" lon="-4.41147">
        <ele>598.0</ele>
        <time>2018-05-29T10:22:22.095Z</time>
      </trkpt>
      <trkpt lat="37.42008667" lon="-4.41147">
        <ele>598.0</ele>
        <time>2018-05-29T10:22:23.061Z</time>
      </trkpt>
      <trkpt lat="37.42007333" lon="-4.41144167">
        <ele>598.0</ele>
        <time>2018-05-29T10:22:24.056Z</time>
      </trkpt>
      <trkpt lat="37.42007333" lon="-4.41144167">
        <ele>598.0</ele>
        <time>2018-05-29T10:22:25.063Z</time>
      </trkpt>
      <trkpt lat="37.42006" lon="-4.411415">
        <ele>598.0</ele>
        <time>2018-05-29T10:22:26.087Z</time>
      </trkpt>
      <trkpt lat="37.42006" lon="-4.411415">
        <ele>598.0</ele>
        <time>2018-05-29T10:22:27.093Z</time>
      </trkpt>
      <trkpt lat="37.42004333" lon="-4.41138833">
        <ele>598.0</ele>
        <time>2018-05-29T10:22:28.077Z</time>
      </trkpt>
      <trkpt lat="37.420035" lon="-4.41137667">
        <ele>599.0</ele>
        <time>2018-05-29T10:22:29.056Z</time>
      </trkpt>
      <trkpt lat="37.420035" lon="-4.41137667">
        <ele>599.0</ele>
        <time>2018-05-29T10:22:30.063Z</time>
      </trkpt>
      <trkpt lat="37.42001167" lon="-4.41135667">
        <ele>599.0</ele>
        <time>2018-05-29T10:22:31.095Z</time>
      </trkpt>
      <trkpt lat="37.42001167" lon="-4.41135667">
        <ele>599.0</ele>
        <time>2018-05-29T10:22:32.061Z</time>
      </trkpt>
      <trkpt lat="37.41999667" lon="-4.41133167">
        <ele>600.0</ele>
        <time>2018-05-29T10:22:33.078Z</time>
      </trkpt>
      <trkpt lat="37.41998833" lon="-4.41132">
        <ele>600.0</ele>
        <time>2018-05-29T10:22:34.057Z</time>
      </trkpt>
      <trkpt lat="37.41998" lon="-4.41130833">
        <ele>600.0</ele>
        <time>2018-05-29T10:22:35.086Z</time>
      </trkpt>
      <trkpt lat="37.41998" lon="-4.41130833">
        <ele>600.0</ele>
        <time>2018-05-29T10:22:36.093Z</time>
      </trkpt>
      <trkpt lat="37.419965" lon="-4.41128167">
        <ele>600.0</ele>
        <time>2018-05-29T10:22:37.083Z</time>
      </trkpt>
      <trkpt lat="37.419965" lon="-4.41128167">
        <ele>600.0</ele>
        <time>2018-05-29T10:22:38.091Z</time>
      </trkpt>
      <trkpt lat="37.41994667" lon="-4.41125667">
        <ele>601.0</ele>
        <time>2018-05-29T10:22:39.081Z</time>
      </trkpt>
      <trkpt lat="37.41994667" lon="-4.41125667">
        <ele>601.0</ele>
        <time>2018-05-29T10:22:40.091Z</time>
      </trkpt>
      <trkpt lat="37.41993333" lon="-4.41122667">
        <ele>602.0</ele>
        <time>2018-05-29T10:22:41.081Z</time>
      </trkpt>
      <trkpt lat="37.41993333" lon="-4.41122667">
        <ele>602.0</ele>
        <time>2018-05-29T10:22:42.091Z</time>
      </trkpt>
      <trkpt lat="37.41992667" lon="-4.41119833">
        <ele>602.0</ele>
        <time>2018-05-29T10:22:43.077Z</time>
      </trkpt>
      <trkpt lat="37.41992667" lon="-4.41119833">
        <ele>602.0</ele>
        <time>2018-05-29T10:22:44.084Z</time>
      </trkpt>
      <trkpt lat="37.41992167" lon="-4.41117167">
        <ele>602.0</ele>
        <time>2018-05-29T10:22:45.075Z</time>
      </trkpt>
      <trkpt lat="37.41992167" lon="-4.41117167">
        <ele>602.0</ele>
        <time>2018-05-29T10:22:46.082Z</time>
      </trkpt>
      <trkpt lat="37.419915" lon="-4.411145">
        <ele>603.0</ele>
        <time>2018-05-29T10:22:47.090Z</time>
      </trkpt>
      <trkpt lat="37.41990833" lon="-4.41113333">
        <ele>603.0</ele>
        <time>2018-05-29T10:22:48.077Z</time>
      </trkpt>
      <trkpt lat="37.41990833" lon="-4.41113333">
        <ele>603.0</ele>
        <time>2018-05-29T10:22:49.083Z</time>
      </trkpt>
      <trkpt lat="37.41988833" lon="-4.41111833">
        <ele>603.0</ele>
        <time>2018-05-29T10:22:50.073Z</time>
      </trkpt>
      <trkpt lat="37.41988833" lon="-4.41111833">
        <ele>603.0</ele>
        <time>2018-05-29T10:22:51.080Z</time>
      </trkpt>
      <trkpt lat="37.41986667" lon="-4.4111">
        <ele>604.0</ele>
        <time>2018-05-29T10:22:52.068Z</time>
      </trkpt>
      <trkpt lat="37.41985667" lon="-4.41109">
        <ele>604.0</ele>
        <time>2018-05-29T10:22:53.067Z</time>
      </trkpt>
      <trkpt lat="37.41985667" lon="-4.41109">
        <ele>604.0</ele>
        <time>2018-05-29T10:22:54.077Z</time>
      </trkpt>
      <trkpt lat="37.41984667" lon="-4.41105833">
        <ele>604.0</ele>
        <time>2018-05-29T10:22:55.064Z</time>
      </trkpt>
      <trkpt lat="37.41984667" lon="-4.41105833">
        <ele>604.0</ele>
        <time>2018-05-29T10:22:56.071Z</time>
      </trkpt>
      <trkpt lat="37.41984" lon="-4.41103">
        <ele>604.0</ele>
        <time>2018-05-29T10:22:57.069Z</time>
      </trkpt>
      <trkpt lat="37.41984" lon="-4.41103">
        <ele>604.0</ele>
        <time>2018-05-29T10:22:58.076Z</time>
      </trkpt>
      <trkpt lat="37.41983833" lon="-4.410995">
        <ele>605.0</ele>
        <time>2018-05-29T10:22:59.067Z</time>
      </trkpt>
      <trkpt lat="37.41983833" lon="-4.410995">
        <ele>605.0</ele>
        <time>2018-05-29T10:23:00.073Z</time>
      </trkpt>
      <trkpt lat="37.41984167" lon="-4.41096333">
        <ele>605.0</ele>
        <time>2018-05-29T10:23:01.064Z</time>
      </trkpt>
      <trkpt lat="37.41984833" lon="-4.41095">
        <ele>605.0</ele>
        <time>2018-05-29T10:23:02.087Z</time>
      </trkpt>
      <trkpt lat="37.41984833" lon="-4.41095">
        <ele>605.0</ele>
        <time>2018-05-29T10:23:03.093Z</time>
      </trkpt>
      <trkpt lat="37.41987" lon="-4.41092333">
        <ele>605.0</ele>
        <time>2018-05-29T10:23:04.078Z</time>
      </trkpt>
      <trkpt lat="37.41988167" lon="-4.41091333">
        <ele>605.0</ele>
        <time>2018-05-29T10:23:05.066Z</time>
      </trkpt>
      <trkpt lat="37.41988167" lon="-4.41091333">
        <ele>605.0</ele>
        <time>2018-05-29T10:23:06.072Z</time>
      </trkpt>
      <trkpt lat="37.41990833" lon="-4.41089167">
        <ele>605.0</ele>
        <time>2018-05-29T10:23:07.071Z</time>
      </trkpt>
      <trkpt lat="37.41990833" lon="-4.41089167">
        <ele>605.0</ele>
        <time>2018-05-29T10:23:08.076Z</time>
      </trkpt>
      <trkpt lat="37.41993167" lon="-4.410865">
        <ele>606.0</ele>
        <time>2018-05-29T10:23:09.068Z</time>
      </trkpt>
      <trkpt lat="37.41993167" lon="-4.410865">
        <ele>606.0</ele>
        <time>2018-05-29T10:23:10.074Z</time>
      </trkpt>
      <trkpt lat="37.41995167" lon="-4.410835">
        <ele>606.0</ele>
        <time>2018-05-29T10:23:11.062Z</time>
      </trkpt>
      <trkpt lat="37.41995167" lon="-4.410835">
        <ele>606.0</ele>
        <time>2018-05-29T10:23:12.068Z</time>
      </trkpt>
      <trkpt lat="37.41996667" lon="-4.410805">
        <ele>606.0</ele>
        <time>2018-05-29T10:23:13.073Z</time>
      </trkpt>
      <trkpt lat="37.41996667" lon="-4.410805">
        <ele>606.0</ele>
        <time>2018-05-29T10:23:14.079Z</time>
      </trkpt>
      <trkpt lat="37.41997833" lon="-4.410775">
        <ele>606.0</ele>
        <time>2018-05-29T10:23:15.070Z</time>
      </trkpt>
      <trkpt lat="37.41998667" lon="-4.41076167">
        <ele>606.0</ele>
        <time>2018-05-29T10:23:16.077Z</time>
      </trkpt>
      <trkpt lat="37.41998667" lon="-4.41076167">
        <ele>606.0</ele>
        <time>2018-05-29T10:23:17.083Z</time>
      </trkpt>
      <trkpt lat="37.420005" lon="-4.41073667">
        <ele>607.0</ele>
        <time>2018-05-29T10:23:18.066Z</time>
      </trkpt>
      <trkpt lat="37.420005" lon="-4.41073667">
        <ele>607.0</ele>
        <time>2018-05-29T10:23:19.072Z</time>
      </trkpt>
      <trkpt lat="37.42002167" lon="-4.41070833">
        <ele>607.0</ele>
        <time>2018-05-29T10:23:20.090Z</time>
      </trkpt>
      <trkpt lat="37.42002167" lon="-4.41070833">
        <ele>607.0</ele>
        <time>2018-05-29T10:23:21.056Z</time>
      </trkpt>
      <trkpt lat="37.42003833" lon="-4.41068">
        <ele>607.0</ele>
        <time>2018-05-29T10:23:22.079Z</time>
      </trkpt>
      <trkpt lat="37.420045" lon="-4.410665">
        <ele>608.0</ele>
        <time>2018-05-29T10:23:23.056Z</time>
      </trkpt>
      <trkpt lat="37.420045" lon="-4.410665">
        <ele>608.0</ele>
        <time>2018-05-29T10:23:24.063Z</time>
      </trkpt>
      <trkpt lat="37.42006" lon="-4.41063667">
        <ele>608.0</ele>
        <time>2018-05-29T10:23:25.090Z</time>
      </trkpt>
      <trkpt lat="37.42006667" lon="-4.41062333">
        <ele>608.0</ele>
        <time>2018-05-29T10:23:26.057Z</time>
      </trkpt>
      <trkpt lat="37.42006667" lon="-4.41062333">
        <ele>608.0</ele>
        <time>2018-05-29T10:23:27.062Z</time>
      </trkpt>
      <trkpt lat="37.42007833" lon="-4.41059333">
        <ele>608.0</ele>
        <time>2018-05-29T10:23:28.085Z</time>
      </trkpt>
      <trkpt lat="37.42008333" lon="-4.41057667">
        <ele>609.0</ele>
        <time>2018-05-29T10:23:29.073Z</time>
      </trkpt>
      <trkpt lat="37.42009" lon="-4.41056">
        <ele>609.0</ele>
        <time>2018-05-29T10:23:30.056Z</time>
      </trkpt>
      <trkpt lat="37.42009" lon="-4.41056">
        <ele>609.0</ele>
        <time>2018-05-29T10:23:31.062Z</time>
      </trkpt>
      <trkpt lat="37.42010333" lon="-4.41052833">
        <ele>609.0</ele>
        <time>2018-05-29T10:23:32.069Z</time>
      </trkpt>
      <trkpt lat="37.42010333" lon="-4.41052833">
        <ele>609.0</ele>
        <time>2018-05-29T10:23:33.075Z</time>
      </trkpt>
      <trkpt lat="37.42011667" lon="-4.41049667">
        <ele>610.0</ele>
        <time>2018-05-29T10:23:34.056Z</time>
      </trkpt>
      <trkpt lat="37.42012" lon="-4.41048">
        <ele>610.0</ele>
        <time>2018-05-29T10:23:35.078Z</time>
      </trkpt>
      <trkpt lat="37.42012" lon="-4.41048">
        <ele>610.0</ele>
        <time>2018-05-29T10:23:36.084Z</time>
      </trkpt>
      <trkpt lat="37.42012333" lon="-4.410445">
        <ele>610.0</ele>
        <time>2018-05-29T10:23:37.077Z</time>
      </trkpt>
      <trkpt lat="37.420125" lon="-4.41042833">
        <ele>611.0</ele>
        <time>2018-05-29T10:23:38.069Z</time>
      </trkpt>
      <trkpt lat="37.420125" lon="-4.41042833">
        <ele>611.0</ele>
        <time>2018-05-29T10:23:39.075Z</time>
      </trkpt>
      <trkpt lat="37.42012833" lon="-4.41039667">
        <ele>611.0</ele>
        <time>2018-05-29T10:23:40.058Z</time>
      </trkpt>
      <trkpt lat="37.42012833" lon="-4.41039667">
        <ele>611.0</ele>
        <time>2018-05-29T10:23:41.089Z</time>
      </trkpt>
      <trkpt lat="37.42012" lon="-4.410365">
        <ele>611.0</ele>
        <time>2018-05-29T10:23:42.073Z</time>
      </trkpt>
      <trkpt lat="37.420115" lon="-4.41034833">
        <ele>611.0</ele>
        <time>2018-05-29T10:23:43.095Z</time>
      </trkpt>
      <trkpt lat="37.420115" lon="-4.41034833">
        <ele>611.0</ele>
        <time>2018-05-29T10:23:44.061Z</time>
      </trkpt>
      <trkpt lat="37.420105" lon="-4.41032">
        <ele>612.0</ele>
        <time>2018-05-29T10:23:45.086Z</time>
      </trkpt>
      <trkpt lat="37.420105" lon="-4.41032">
        <ele>612.0</ele>
        <time>2018-05-29T10:23:46.093Z</time>
      </trkpt>
      <trkpt lat="37.420085" lon="-4.4103">
        <ele>612.0</ele>
        <time>2018-05-29T10:23:47.079Z</time>
      </trkpt>
      <trkpt lat="37.420085" lon="-4.4103">
        <ele>612.0</ele>
        <time>2018-05-29T10:23:48.086Z</time>
      </trkpt>
      <trkpt lat="37.420055" lon="-4.41029">
        <ele>612.0</ele>
        <time>2018-05-29T10:23:49.071Z</time>
      </trkpt>
      <trkpt lat="37.420055" lon="-4.41029">
        <ele>612.0</ele>
        <time>2018-05-29T10:23:50.078Z</time>
      </trkpt>
      <trkpt lat="37.42002833" lon="-4.41028833">
        <ele>613.0</ele>
        <time>2018-05-29T10:23:51.075Z</time>
      </trkpt>
      <trkpt lat="37.42001333" lon="-4.41029">
        <ele>613.0</ele>
        <time>2018-05-29T10:23:52.059Z</time>
      </trkpt>
      <trkpt lat="37.41999667" lon="-4.41029167">
        <ele>613.0</ele>
        <time>2018-05-29T10:23:53.094Z</time>
      </trkpt>
      <trkpt lat="37.41999667" lon="-4.41029167">
        <ele>613.0</ele>
        <time>2018-05-29T10:23:54.078Z</time>
      </trkpt>
      <trkpt lat="37.41996667" lon="-4.41029167">
        <ele>613.0</ele>
        <time>2018-05-29T10:23:55.083Z</time>
      </trkpt>
      <trkpt lat="37.41995167" lon="-4.41029167">
        <ele>613.0</ele>
        <time>2018-05-29T10:23:56.083Z</time>
      </trkpt>
      <trkpt lat="37.41995167" lon="-4.41029167">
        <ele>613.0</ele>
        <time>2018-05-29T10:23:57.089Z</time>
      </trkpt>
      <trkpt lat="37.41992167" lon="-4.41029333">
        <ele>614.0</ele>
        <time>2018-05-29T10:23:58.094Z</time>
      </trkpt>
      <trkpt lat="37.41990833" lon="-4.41029167">
        <ele>614.0</ele>
        <time>2018-05-29T10:23:59.073Z</time>
      </trkpt>
      <trkpt lat="37.41990833" lon="-4.41029167">
        <ele>614.0</ele>
        <time>2018-05-29T10:24:00.078Z</time>
      </trkpt>
      <trkpt lat="37.41987833" lon="-4.41029333">
        <ele>614.0</ele>
        <time>2018-05-29T10:24:01.064Z</time>
      </trkpt>
      <trkpt lat="37.41987833" lon="-4.41029333">
        <ele>614.0</ele>
        <time>2018-05-29T10:24:02.071Z</time>
      </trkpt>
      <trkpt lat="37.41984167" lon="-4.4103">
        <ele>615.0</ele>
        <time>2018-05-29T10:24:03.061Z</time>
      </trkpt>
      <trkpt lat="37.41982167" lon="-4.41030333">
        <ele>615.0</ele>
        <time>2018-05-29T10:24:04.061Z</time>
      </trkpt>
      <trkpt lat="37.41982167" lon="-4.41030333">
        <ele>615.0</ele>
        <time>2018-05-29T10:24:05.067Z</time>
      </trkpt>
      <trkpt lat="37.41978167" lon="-4.41031">
        <ele>615.0</ele>
        <time>2018-05-29T10:24:06.085Z</time>
      </trkpt>
      <trkpt lat="37.41978167" lon="-4.41031">
        <ele>615.0</ele>
        <time>2018-05-29T10:24:07.092Z</time>
      </trkpt>
      <trkpt lat="37.41974167" lon="-4.410315">
        <ele>615.0</ele>
        <time>2018-05-29T10:24:08.075Z</time>
      </trkpt>
      <trkpt lat="37.41972167" lon="-4.41031667">
        <ele>616.0</ele>
        <time>2018-05-29T10:24:09.074Z</time>
      </trkpt>
      <trkpt lat="37.41972167" lon="-4.41031667">
        <ele>616.0</ele>
        <time>2018-05-29T10:24:10.081Z</time>
      </trkpt>
      <trkpt lat="37.41968333" lon="-4.41032167">
        <ele>616.0</ele>
        <time>2018-05-29T10:24:11.076Z</time>
      </trkpt>
      <trkpt lat="37.41968333" lon="-4.41032167">
        <ele>616.0</ele>
        <time>2018-05-29T10:24:12.081Z</time>
      </trkpt>
      <trkpt lat="37.41964333" lon="-4.41032667">
        <ele>616.0</ele>
        <time>2018-05-29T10:24:13.079Z</time>
      </trkpt>
      <trkpt lat="37.41962167" lon="-4.41033167">
        <ele>616.0</ele>
        <time>2018-05-29T10:24:14.070Z</time>
      </trkpt>
      <trkpt lat="37.41962167" lon="-4.41033167">
        <ele>616.0</ele>
        <time>2018-05-29T10:24:15.076Z</time>
      </trkpt>
      <trkpt lat="37.419575" lon="-4.410345">
        <ele>616.0</ele>
        <time>2018-05-29T10:24:16.073Z</time>
      </trkpt>
      <trkpt lat="37.419575" lon="-4.410345">
        <ele>616.0</ele>
        <time>2018-05-29T10:24:17.063Z</time>
      </trkpt>
      <trkpt lat="37.419515" lon="-4.41035833">
        <ele>616.0</ele>
        <time>2018-05-29T10:24:18.094Z</time>
      </trkpt>
      <trkpt lat="37.419515" lon="-4.41035833">
        <ele>616.0</ele>
        <time>2018-05-29T10:24:19.059Z</time>
      </trkpt>
      <trkpt lat="37.41944667" lon="-4.41037667">
        <ele>615.0</ele>
        <time>2018-05-29T10:24:20.090Z</time>
      </trkpt>
      <trkpt lat="37.41941333" lon="-4.41039167">
        <ele>615.0</ele>
        <time>2018-05-29T10:24:21.087Z</time>
      </trkpt>
      <trkpt lat="37.41941333" lon="-4.41039167">
        <ele>615.0</ele>
        <time>2018-05-29T10:24:22.094Z</time>
      </trkpt>
      <trkpt lat="37.41935167" lon="-4.41043">
        <ele>615.0</ele>
        <time>2018-05-29T10:24:23.075Z</time>
      </trkpt>
      <trkpt lat="37.41932667" lon="-4.41045167">
        <ele>614.0</ele>
        <time>2018-05-29T10:24:24.056Z</time>
      </trkpt>
      <trkpt lat="37.41932667" lon="-4.41045167">
        <ele>614.0</ele>
        <time>2018-05-29T10:24:25.062Z</time>
      </trkpt>
      <trkpt lat="37.41928667" lon="-4.41048833">
        <ele>615.0</ele>
        <time>2018-05-29T10:24:26.058Z</time>
      </trkpt>
      <trkpt lat="37.41927" lon="-4.41051">
        <ele>615.0</ele>
        <time>2018-05-29T10:24:27.076Z</time>
      </trkpt>
      <trkpt lat="37.41927" lon="-4.41051">
        <ele>615.0</ele>
        <time>2018-05-29T10:24:28.081Z</time>
      </trkpt>
      <trkpt lat="37.41924167" lon="-4.410545">
        <ele>615.0</ele>
        <time>2018-05-29T10:24:29.076Z</time>
      </trkpt>
      <trkpt lat="37.41923" lon="-4.41055833">
        <ele>616.0</ele>
        <time>2018-05-29T10:24:30.068Z</time>
      </trkpt>
      <trkpt lat="37.41923" lon="-4.41055833">
        <ele>616.0</ele>
        <time>2018-05-29T10:24:31.073Z</time>
      </trkpt>
      <trkpt lat="37.41920333" lon="-4.41058833">
        <ele>616.0</ele>
        <time>2018-05-29T10:24:32.062Z</time>
      </trkpt>
      <trkpt lat="37.41919167" lon="-4.410605">
        <ele>616.0</ele>
        <time>2018-05-29T10:24:33.093Z</time>
      </trkpt>
      <trkpt lat="37.41919167" lon="-4.410605">
        <ele>616.0</ele>
        <time>2018-05-29T10:24:34.058Z</time>
      </trkpt>
      <trkpt lat="37.419165" lon="-4.410635">
        <ele>617.0</ele>
        <time>2018-05-29T10:24:35.093Z</time>
      </trkpt>
      <trkpt lat="37.419165" lon="-4.410635">
        <ele>617.0</ele>
        <time>2018-05-29T10:24:36.058Z</time>
      </trkpt>
      <trkpt lat="37.41913833" lon="-4.41066333">
        <ele>617.0</ele>
        <time>2018-05-29T10:24:37.057Z</time>
      </trkpt>
      <trkpt lat="37.41912333" lon="-4.41067833">
        <ele>617.0</ele>
        <time>2018-05-29T10:24:38.080Z</time>
      </trkpt>
      <trkpt lat="37.41912333" lon="-4.41067833">
        <ele>617.0</ele>
        <time>2018-05-29T10:24:39.096Z</time>
      </trkpt>
      <trkpt lat="37.419095" lon="-4.41070833">
        <ele>617.0</ele>
        <time>2018-05-29T10:24:40.066Z</time>
      </trkpt>
      <trkpt lat="37.41907833" lon="-4.41072167">
        <ele>618.0</ele>
        <time>2018-05-29T10:24:41.057Z</time>
      </trkpt>
      <trkpt lat="37.41906333" lon="-4.41074">
        <ele>618.0</ele>
        <time>2018-05-29T10:24:42.075Z</time>
      </trkpt>
      <trkpt lat="37.41906333" lon="-4.41074">
        <ele>618.0</ele>
        <time>2018-05-29T10:24:43.081Z</time>
      </trkpt>
      <trkpt lat="37.41902667" lon="-4.41078">
        <ele>618.0</ele>
        <time>2018-05-29T10:24:44.072Z</time>
      </trkpt>
      <trkpt lat="37.41902667" lon="-4.41078">
        <ele>618.0</ele>
        <time>2018-05-29T10:24:45.077Z</time>
      </trkpt>
      <trkpt lat="37.41899167" lon="-4.41082667">
        <ele>618.0</ele>
        <time>2018-05-29T10:24:46.064Z</time>
      </trkpt>
      <trkpt lat="37.41899167" lon="-4.41082667">
        <ele>618.0</ele>
        <time>2018-05-29T10:24:47.070Z</time>
      </trkpt>
      <trkpt lat="37.41895333" lon="-4.41087">
        <ele>618.0</ele>
        <time>2018-05-29T10:24:48.091Z</time>
      </trkpt>
      <trkpt lat="37.41895333" lon="-4.41087">
        <ele>618.0</ele>
        <time>2018-05-29T10:24:49.058Z</time>
      </trkpt>
      <trkpt lat="37.41891667" lon="-4.41091667">
        <ele>619.0</ele>
        <time>2018-05-29T10:24:50.089Z</time>
      </trkpt>
      <trkpt lat="37.41891667" lon="-4.41091667">
        <ele>619.0</ele>
        <time>2018-05-29T10:24:51.094Z</time>
      </trkpt>
      <trkpt lat="37.41888667" lon="-4.410965">
        <ele>619.0</ele>
        <time>2018-05-29T10:24:52.077Z</time>
      </trkpt>
      <trkpt lat="37.41888667" lon="-4.410965">
        <ele>619.0</ele>
        <time>2018-05-29T10:24:53.062Z</time>
      </trkpt>
      <trkpt lat="37.418855" lon="-4.41100667">
        <ele>619.0</ele>
        <time>2018-05-29T10:24:54.092Z</time>
      </trkpt>
      <trkpt lat="37.418855" lon="-4.41100667">
        <ele>619.0</ele>
        <time>2018-05-29T10:24:55.058Z</time>
      </trkpt>
      <trkpt lat="37.41882833" lon="-4.41104667">
        <ele>619.0</ele>
        <time>2018-05-29T10:24:56.079Z</time>
      </trkpt>
      <trkpt lat="37.418815" lon="-4.411065">
        <ele>619.0</ele>
        <time>2018-05-29T10:24:57.058Z</time>
      </trkpt>
      <trkpt lat="37.418815" lon="-4.411065">
        <ele>619.0</ele>
        <time>2018-05-29T10:24:58.064Z</time>
      </trkpt>
      <trkpt lat="37.41878833" lon="-4.41110333">
        <ele>620.0</ele>
        <time>2018-05-29T10:24:59.092Z</time>
      </trkpt>
      <trkpt lat="37.41878833" lon="-4.41110333">
        <ele>620.0</ele>
        <time>2018-05-29T10:25:00.058Z</time>
      </trkpt>
      <trkpt lat="37.41876167" lon="-4.411135">
        <ele>620.0</ele>
        <time>2018-05-29T10:25:01.066Z</time>
      </trkpt>
      <trkpt lat="37.41875167" lon="-4.41115333">
        <ele>620.0</ele>
        <time>2018-05-29T10:25:02.056Z</time>
      </trkpt>
      <trkpt lat="37.41875167" lon="-4.41115333">
        <ele>620.0</ele>
        <time>2018-05-29T10:25:03.063Z</time>
      </trkpt>
      <trkpt lat="37.41873" lon="-4.41118833">
        <ele>621.0</ele>
        <time>2018-05-29T10:25:04.066Z</time>
      </trkpt>
      <trkpt lat="37.41871667" lon="-4.41120667">
        <ele>621.0</ele>
        <time>2018-05-29T10:25:05.087Z</time>
      </trkpt>
      <trkpt lat="37.41871667" lon="-4.41120667">
        <ele>621.0</ele>
        <time>2018-05-29T10:25:06.092Z</time>
      </trkpt>
      <trkpt lat="37.41869333" lon="-4.41123833">
        <ele>622.0</ele>
        <time>2018-05-29T10:25:07.079Z</time>
      </trkpt>
      <trkpt lat="37.41868333" lon="-4.41125167">
        <ele>622.0</ele>
        <time>2018-05-29T10:25:08.077Z</time>
      </trkpt>
      <trkpt lat="37.41868333" lon="-4.41125167">
        <ele>622.0</ele>
        <time>2018-05-29T10:25:09.083Z</time>
      </trkpt>
      <trkpt lat="37.41866" lon="-4.41128167">
        <ele>622.0</ele>
        <time>2018-05-29T10:25:10.068Z</time>
      </trkpt>
      <trkpt lat="37.41864833" lon="-4.4113">
        <ele>622.0</ele>
        <time>2018-05-29T10:25:11.094Z</time>
      </trkpt>
      <trkpt lat="37.41864833" lon="-4.4113">
        <ele>622.0</ele>
        <time>2018-05-29T10:25:12.060Z</time>
      </trkpt>
      <trkpt lat="37.41862667" lon="-4.41133167">
        <ele>623.0</ele>
        <time>2018-05-29T10:25:13.061Z</time>
      </trkpt>
      <trkpt lat="37.41862667" lon="-4.41133167">
        <ele>623.0</ele>
        <time>2018-05-29T10:25:14.065Z</time>
      </trkpt>
      <trkpt lat="37.41860333" lon="-4.41136667">
        <ele>623.0</ele>
        <time>2018-05-29T10:25:15.073Z</time>
      </trkpt>
      <trkpt lat="37.41860333" lon="-4.41136667">
        <ele>623.0</ele>
        <time>2018-05-29T10:25:16.078Z</time>
      </trkpt>
      <trkpt lat="37.41858333" lon="-4.411405">
        <ele>624.0</ele>
        <time>2018-05-29T10:25:17.068Z</time>
      </trkpt>
      <trkpt lat="37.41857333" lon="-4.41142333">
        <ele>624.0</ele>
        <time>2018-05-29T10:25:18.089Z</time>
      </trkpt>
      <trkpt lat="37.41857333" lon="-4.41142333">
        <ele>624.0</ele>
        <time>2018-05-29T10:25:19.096Z</time>
      </trkpt>
      <trkpt lat="37.41855" lon="-4.41146167">
        <ele>624.0</ele>
        <time>2018-05-29T10:25:20.082Z</time>
      </trkpt>
      <trkpt lat="37.41855" lon="-4.41146167">
        <ele>624.0</ele>
        <time>2018-05-29T10:25:21.088Z</time>
      </trkpt>
      <trkpt lat="37.418525" lon="-4.41149667">
        <ele>625.0</ele>
        <time>2018-05-29T10:25:22.072Z</time>
      </trkpt>
      <trkpt lat="37.41851333" lon="-4.411515">
        <ele>625.0</ele>
        <time>2018-05-29T10:25:23.073Z</time>
      </trkpt>
      <trkpt lat="37.41851333" lon="-4.411515">
        <ele>625.0</ele>
        <time>2018-05-29T10:25:24.080Z</time>
      </trkpt>
      <trkpt lat="37.41848167" lon="-4.41154333">
        <ele>625.0</ele>
        <time>2018-05-29T10:25:25.068Z</time>
      </trkpt>
      <trkpt lat="37.41846667" lon="-4.41155833">
        <ele>626.0</ele>
        <time>2018-05-29T10:25:26.066Z</time>
      </trkpt>
      <trkpt lat="37.41846667" lon="-4.41155833">
        <ele>626.0</ele>
        <time>2018-05-29T10:25:27.071Z</time>
      </trkpt>
      <trkpt lat="37.41844" lon="-4.41158833">
        <ele>626.0</ele>
        <time>2018-05-29T10:25:28.056Z</time>
      </trkpt>
      <trkpt lat="37.418425" lon="-4.411605">
        <ele>626.0</ele>
        <time>2018-05-29T10:25:29.077Z</time>
      </trkpt>
      <trkpt lat="37.418425" lon="-4.411605">
        <ele>626.0</ele>
        <time>2018-05-29T10:25:30.083Z</time>
      </trkpt>
      <trkpt lat="37.4184" lon="-4.41164333">
        <ele>627.0</ele>
        <time>2018-05-29T10:25:31.072Z</time>
      </trkpt>
      <trkpt lat="37.41838833" lon="-4.41165833">
        <ele>627.0</ele>
        <time>2018-05-29T10:25:32.065Z</time>
      </trkpt>
      <trkpt lat="37.41838833" lon="-4.41165833">
        <ele>627.0</ele>
        <time>2018-05-29T10:25:33.072Z</time>
      </trkpt>
      <trkpt lat="37.41836167" lon="-4.41169">
        <ele>628.0</ele>
        <time>2018-05-29T10:25:34.067Z</time>
      </trkpt>
      <trkpt lat="37.418345" lon="-4.41170333">
        <ele>628.0</ele>
        <time>2018-05-29T10:25:35.093Z</time>
      </trkpt>
      <trkpt lat="37.418345" lon="-4.41170333">
        <ele>628.0</ele>
        <time>2018-05-29T10:25:36.058Z</time>
      </trkpt>
      <trkpt lat="37.41831" lon="-4.41172167">
        <ele>628.0</ele>
        <time>2018-05-29T10:25:37.056Z</time>
      </trkpt>
      <trkpt lat="37.41831" lon="-4.41172167">
        <ele>628.0</ele>
        <time>2018-05-29T10:25:38.063Z</time>
      </trkpt>
      <trkpt lat="37.41827167" lon="-4.41173167">
        <ele>629.0</ele>
        <time>2018-05-29T10:25:39.086Z</time>
      </trkpt>
      <trkpt lat="37.41827167" lon="-4.41173167">
        <ele>629.0</ele>
        <time>2018-05-29T10:25:40.094Z</time>
      </trkpt>
      <trkpt lat="37.41823333" lon="-4.41174">
        <ele>629.0</ele>
        <time>2018-05-29T10:25:41.081Z</time>
      </trkpt>
      <trkpt lat="37.41823333" lon="-4.41174">
        <ele>629.0</ele>
        <time>2018-05-29T10:25:42.087Z</time>
      </trkpt>
      <trkpt lat="37.41819167" lon="-4.41175667">
        <ele>629.0</ele>
        <time>2018-05-29T10:25:43.081Z</time>
      </trkpt>
      <trkpt lat="37.41817" lon="-4.41176333">
        <ele>629.0</ele>
        <time>2018-05-29T10:25:44.076Z</time>
      </trkpt>
      <trkpt lat="37.41817" lon="-4.41176333">
        <ele>629.0</ele>
        <time>2018-05-29T10:25:45.082Z</time>
      </trkpt>
      <trkpt lat="37.418125" lon="-4.41177667">
        <ele>629.0</ele>
        <time>2018-05-29T10:25:46.067Z</time>
      </trkpt>
      <trkpt lat="37.418125" lon="-4.41177667">
        <ele>629.0</ele>
        <time>2018-05-29T10:25:47.072Z</time>
      </trkpt>
      <trkpt lat="37.41808167" lon="-4.41180667">
        <ele>629.0</ele>
        <time>2018-05-29T10:25:48.092Z</time>
      </trkpt>
      <trkpt lat="37.41806" lon="-4.41182333">
        <ele>629.0</ele>
        <time>2018-05-29T10:25:49.082Z</time>
      </trkpt>
      <trkpt lat="37.41806" lon="-4.41182333">
        <ele>629.0</ele>
        <time>2018-05-29T10:25:50.090Z</time>
      </trkpt>
      <trkpt lat="37.418015" lon="-4.411855">
        <ele>629.0</ele>
        <time>2018-05-29T10:25:51.078Z</time>
      </trkpt>
      <trkpt lat="37.418015" lon="-4.411855">
        <ele>629.0</ele>
        <time>2018-05-29T10:25:52.083Z</time>
      </trkpt>
      <trkpt lat="37.41796333" lon="-4.41188">
        <ele>629.0</ele>
        <time>2018-05-29T10:25:53.077Z</time>
      </trkpt>
      <trkpt lat="37.41794" lon="-4.41189167">
        <ele>629.0</ele>
        <time>2018-05-29T10:25:54.076Z</time>
      </trkpt>
      <trkpt lat="37.41794" lon="-4.41189167">
        <ele>629.0</ele>
        <time>2018-05-29T10:25:55.082Z</time>
      </trkpt>
      <trkpt lat="37.417895" lon="-4.41190667">
        <ele>629.0</ele>
        <time>2018-05-29T10:25:56.069Z</time>
      </trkpt>
      <trkpt lat="37.417895" lon="-4.41190667">
        <ele>629.0</ele>
        <time>2018-05-29T10:25:57.076Z</time>
      </trkpt>
      <trkpt lat="37.41785167" lon="-4.41193167">
        <ele>630.0</ele>
        <time>2018-05-29T10:25:58.092Z</time>
      </trkpt>
      <trkpt lat="37.41783167" lon="-4.41194333">
        <ele>630.0</ele>
        <time>2018-05-29T10:25:59.076Z</time>
      </trkpt>
      <trkpt lat="37.41783167" lon="-4.41194333">
        <ele>630.0</ele>
        <time>2018-05-29T10:26:00.082Z</time>
      </trkpt>
      <trkpt lat="37.41778833" lon="-4.41196333">
        <ele>630.0</ele>
        <time>2018-05-29T10:26:01.076Z</time>
      </trkpt>
      <trkpt lat="37.41776667" lon="-4.41197333">
        <ele>630.0</ele>
        <time>2018-05-29T10:26:02.065Z</time>
      </trkpt>
      <trkpt lat="37.41776667" lon="-4.41197333">
        <ele>630.0</ele>
        <time>2018-05-29T10:26:03.071Z</time>
      </trkpt>
      <trkpt lat="37.41772167" lon="-4.41199833">
        <ele>630.0</ele>
        <time>2018-05-29T10:26:04.065Z</time>
      </trkpt>
      <trkpt lat="37.41769833" lon="-4.41201">
        <ele>630.0</ele>
        <time>2018-05-29T10:26:05.058Z</time>
      </trkpt>
      <trkpt lat="37.41769833" lon="-4.41201">
        <ele>630.0</ele>
        <time>2018-05-29T10:26:06.065Z</time>
      </trkpt>
      <trkpt lat="37.41765667" lon="-4.41203">
        <ele>630.0</ele>
        <time>2018-05-29T10:26:07.085Z</time>
      </trkpt>
      <trkpt lat="37.41765667" lon="-4.41203">
        <ele>630.0</ele>
        <time>2018-05-29T10:26:08.091Z</time>
      </trkpt>
      <trkpt lat="37.41761667" lon="-4.41205">
        <ele>630.0</ele>
        <time>2018-05-29T10:26:09.087Z</time>
      </trkpt>
      <trkpt lat="37.41761667" lon="-4.41205">
        <ele>630.0</ele>
        <time>2018-05-29T10:26:10.093Z</time>
      </trkpt>
      <trkpt lat="37.41757333" lon="-4.41207">
        <ele>630.0</ele>
        <time>2018-05-29T10:26:11.070Z</time>
      </trkpt>
      <trkpt lat="37.41757333" lon="-4.41207">
        <ele>630.0</ele>
        <time>2018-05-29T10:26:12.075Z</time>
      </trkpt>
      <trkpt lat="37.41753" lon="-4.41209">
        <ele>630.0</ele>
        <time>2018-05-29T10:26:13.080Z</time>
      </trkpt>
      <trkpt lat="37.41750833" lon="-4.41209833">
        <ele>631.0</ele>
        <time>2018-05-29T10:26:14.056Z</time>
      </trkpt>
      <trkpt lat="37.41750833" lon="-4.41209833">
        <ele>631.0</ele>
        <time>2018-05-29T10:26:15.061Z</time>
      </trkpt>
      <trkpt lat="37.41747167" lon="-4.41211">
        <ele>631.0</ele>
        <time>2018-05-29T10:26:16.082Z</time>
      </trkpt>
      <trkpt lat="37.41745167" lon="-4.412115">
        <ele>631.0</ele>
        <time>2018-05-29T10:26:17.091Z</time>
      </trkpt>
      <trkpt lat="37.41745167" lon="-4.412115">
        <ele>631.0</ele>
        <time>2018-05-29T10:26:18.056Z</time>
      </trkpt>
      <trkpt lat="37.41741333" lon="-4.41212333">
        <ele>632.0</ele>
        <time>2018-05-29T10:26:19.078Z</time>
      </trkpt>
      <trkpt lat="37.41741333" lon="-4.41212333">
        <ele>632.0</ele>
        <time>2018-05-29T10:26:20.084Z</time>
      </trkpt>
      <trkpt lat="37.417375" lon="-4.41213833">
        <ele>632.0</ele>
        <time>2018-05-29T10:26:21.083Z</time>
      </trkpt>
      <trkpt lat="37.417375" lon="-4.41213833">
        <ele>632.0</ele>
        <time>2018-05-29T10:26:22.091Z</time>
      </trkpt>
      <trkpt lat="37.417335" lon="-4.41215333">
        <ele>633.0</ele>
        <time>2018-05-29T10:26:23.080Z</time>
      </trkpt>
      <trkpt lat="37.417335" lon="-4.41215333">
        <ele>633.0</ele>
        <time>2018-05-29T10:26:24.087Z</time>
      </trkpt>
      <trkpt lat="37.41730333" lon="-4.41216833">
        <ele>633.0</ele>
        <time>2018-05-29T10:26:25.080Z</time>
      </trkpt>
      <trkpt lat="37.41730333" lon="-4.41216833">
        <ele>633.0</ele>
        <time>2018-05-29T10:26:26.085Z</time>
      </trkpt>
      <trkpt lat="37.41726833" lon="-4.41218667">
        <ele>633.0</ele>
        <time>2018-05-29T10:26:27.079Z</time>
      </trkpt>
      <trkpt lat="37.41726833" lon="-4.41218667">
        <ele>633.0</ele>
        <time>2018-05-29T10:26:28.085Z</time>
      </trkpt>
      <trkpt lat="37.41723167" lon="-4.41221167">
        <ele>633.0</ele>
        <time>2018-05-29T10:26:29.071Z</time>
      </trkpt>
      <trkpt lat="37.41721333" lon="-4.41222167">
        <ele>634.0</ele>
        <time>2018-05-29T10:26:30.064Z</time>
      </trkpt>
      <trkpt lat="37.41721333" lon="-4.41222167">
        <ele>634.0</ele>
        <time>2018-05-29T10:26:31.070Z</time>
      </trkpt>
      <trkpt lat="37.41717667" lon="-4.41224">
        <ele>634.0</ele>
        <time>2018-05-29T10:26:32.094Z</time>
      </trkpt>
      <trkpt lat="37.41717667" lon="-4.41224">
        <ele>634.0</ele>
        <time>2018-05-29T10:26:33.060Z</time>
      </trkpt>
      <trkpt lat="37.41714167" lon="-4.41225">
        <ele>636.0</ele>
        <time>2018-05-29T10:26:34.091Z</time>
      </trkpt>
      <trkpt lat="37.417125" lon="-4.41225833">
        <ele>636.0</ele>
        <time>2018-05-29T10:26:35.061Z</time>
      </trkpt>
      <trkpt lat="37.417125" lon="-4.41225833">
        <ele>636.0</ele>
        <time>2018-05-29T10:26:36.066Z</time>
      </trkpt>
      <trkpt lat="37.41708833" lon="-4.41227167">
        <ele>637.0</ele>
        <time>2018-05-29T10:26:37.094Z</time>
      </trkpt>
      <trkpt lat="37.41707" lon="-4.41228">
        <ele>638.0</ele>
        <time>2018-05-29T10:26:38.091Z</time>
      </trkpt>
      <trkpt lat="37.41707" lon="-4.41228">
        <ele>638.0</ele>
        <time>2018-05-29T10:26:39.075Z</time>
      </trkpt>
      <trkpt lat="37.41703167" lon="-4.412295">
        <ele>638.0</ele>
        <time>2018-05-29T10:26:40.061Z</time>
      </trkpt>
      <trkpt lat="37.41701167" lon="-4.412305">
        <ele>638.0</ele>
        <time>2018-05-29T10:26:41.058Z</time>
      </trkpt>
      <trkpt lat="37.41701167" lon="-4.412305">
        <ele>638.0</ele>
        <time>2018-05-29T10:26:42.064Z</time>
      </trkpt>
      <trkpt lat="37.41696833" lon="-4.41232667">
        <ele>639.0</ele>
        <time>2018-05-29T10:26:43.080Z</time>
      </trkpt>
      <trkpt lat="37.41696833" lon="-4.41232667">
        <ele>639.0</ele>
        <time>2018-05-29T10:26:44.090Z</time>
      </trkpt>
      <trkpt lat="37.41692667" lon="-4.41234833">
        <ele>639.0</ele>
        <time>2018-05-29T10:26:45.071Z</time>
      </trkpt>
      <trkpt lat="37.41692667" lon="-4.41234833">
        <ele>639.0</ele>
        <time>2018-05-29T10:26:46.076Z</time>
      </trkpt>
      <trkpt lat="37.41688333" lon="-4.41236833">
        <ele>639.0</ele>
        <time>2018-05-29T10:26:47.066Z</time>
      </trkpt>
      <trkpt lat="37.41688333" lon="-4.41236833">
        <ele>639.0</ele>
        <time>2018-05-29T10:26:48.072Z</time>
      </trkpt>
      <trkpt lat="37.41684167" lon="-4.41239167">
        <ele>639.0</ele>
        <time>2018-05-29T10:26:49.068Z</time>
      </trkpt>
      <trkpt lat="37.41684167" lon="-4.41239167">
        <ele>639.0</ele>
        <time>2018-05-29T10:26:50.074Z</time>
      </trkpt>
      <trkpt lat="37.41679833" lon="-4.41240833">
        <ele>640.0</ele>
        <time>2018-05-29T10:26:51.074Z</time>
      </trkpt>
      <trkpt lat="37.41679833" lon="-4.41240833">
        <ele>640.0</ele>
        <time>2018-05-29T10:26:52.079Z</time>
      </trkpt>
      <trkpt lat="37.416755" lon="-4.41243">
        <ele>639.0</ele>
        <time>2018-05-29T10:26:53.079Z</time>
      </trkpt>
      <trkpt lat="37.416735" lon="-4.41244333">
        <ele>639.0</ele>
        <time>2018-05-29T10:26:54.086Z</time>
      </trkpt>
      <trkpt lat="37.416735" lon="-4.41244333">
        <ele>639.0</ele>
        <time>2018-05-29T10:26:55.093Z</time>
      </trkpt>
      <trkpt lat="37.41669333" lon="-4.41247833">
        <ele>640.0</ele>
        <time>2018-05-29T10:26:56.088Z</time>
      </trkpt>
      <trkpt lat="37.41667333" lon="-4.41249333">
        <ele>640.0</ele>
        <time>2018-05-29T10:26:57.074Z</time>
      </trkpt>
      <trkpt lat="37.41667333" lon="-4.41249333">
        <ele>640.0</ele>
        <time>2018-05-29T10:26:58.079Z</time>
      </trkpt>
      <trkpt lat="37.416635" lon="-4.41252333">
        <ele>640.0</ele>
        <time>2018-05-29T10:26:59.078Z</time>
      </trkpt>
      <trkpt lat="37.416635" lon="-4.41252333">
        <ele>640.0</ele>
        <time>2018-05-29T10:27:00.084Z</time>
      </trkpt>
      <trkpt lat="37.416595" lon="-4.41254833">
        <ele>641.0</ele>
        <time>2018-05-29T10:27:01.079Z</time>
      </trkpt>
      <trkpt lat="37.416595" lon="-4.41254833">
        <ele>641.0</ele>
        <time>2018-05-29T10:27:02.091Z</time>
      </trkpt>
      <trkpt lat="37.416555" lon="-4.41256833">
        <ele>641.0</ele>
        <time>2018-05-29T10:27:03.094Z</time>
      </trkpt>
      <trkpt lat="37.41653667" lon="-4.41258">
        <ele>641.0</ele>
        <time>2018-05-29T10:27:04.079Z</time>
      </trkpt>
      <trkpt lat="37.41653667" lon="-4.41258">
        <ele>641.0</ele>
        <time>2018-05-29T10:27:05.084Z</time>
      </trkpt>
      <trkpt lat="37.41650333" lon="-4.41260333">
        <ele>642.0</ele>
        <time>2018-05-29T10:27:06.074Z</time>
      </trkpt>
      <trkpt lat="37.41650333" lon="-4.41260333">
        <ele>642.0</ele>
        <time>2018-05-29T10:27:07.080Z</time>
      </trkpt>
      <trkpt lat="37.41647667" lon="-4.412635">
        <ele>642.0</ele>
        <time>2018-05-29T10:27:08.088Z</time>
      </trkpt>
      <trkpt lat="37.41647667" lon="-4.412635">
        <ele>642.0</ele>
        <time>2018-05-29T10:27:09.094Z</time>
      </trkpt>
      <trkpt lat="37.41645333" lon="-4.41266">
        <ele>642.0</ele>
        <time>2018-05-29T10:27:10.060Z</time>
      </trkpt>
      <trkpt lat="37.41644167" lon="-4.412675">
        <ele>642.0</ele>
        <time>2018-05-29T10:27:11.079Z</time>
      </trkpt>
      <trkpt lat="37.41644167" lon="-4.412675">
        <ele>642.0</ele>
        <time>2018-05-29T10:27:12.085Z</time>
      </trkpt>
      <trkpt lat="37.41642167" lon="-4.41271333">
        <ele>643.0</ele>
        <time>2018-05-29T10:27:13.076Z</time>
      </trkpt>
      <trkpt lat="37.416415" lon="-4.41273333">
        <ele>643.0</ele>
        <time>2018-05-29T10:27:14.070Z</time>
      </trkpt>
      <trkpt lat="37.416415" lon="-4.41273333">
        <ele>643.0</ele>
        <time>2018-05-29T10:27:15.075Z</time>
      </trkpt>
      <trkpt lat="37.416395" lon="-4.41276167">
        <ele>644.0</ele>
        <time>2018-05-29T10:27:16.056Z</time>
      </trkpt>
      <trkpt lat="37.41638333" lon="-4.412775">
        <ele>644.0</ele>
        <time>2018-05-29T10:27:17.062Z</time>
      </trkpt>
      <trkpt lat="37.41638333" lon="-4.412775">
        <ele>644.0</ele>
        <time>2018-05-29T10:27:18.067Z</time>
      </trkpt>
      <trkpt lat="37.41636167" lon="-4.41280333">
        <ele>644.0</ele>
        <time>2018-05-29T10:27:19.068Z</time>
      </trkpt>
      <trkpt lat="37.41635167" lon="-4.41281833">
        <ele>644.0</ele>
        <time>2018-05-29T10:27:20.058Z</time>
      </trkpt>
      <trkpt lat="37.41635167" lon="-4.41281833">
        <ele>644.0</ele>
        <time>2018-05-29T10:27:21.064Z</time>
      </trkpt>
      <trkpt lat="37.41633167" lon="-4.41284833">
        <ele>645.0</ele>
        <time>2018-05-29T10:27:22.064Z</time>
      </trkpt>
      <trkpt lat="37.41632167" lon="-4.41286167">
        <ele>645.0</ele>
        <time>2018-05-29T10:27:23.093Z</time>
      </trkpt>
      <trkpt lat="37.41632167" lon="-4.41286167">
        <ele>645.0</ele>
        <time>2018-05-29T10:27:24.059Z</time>
      </trkpt>
      <trkpt lat="37.4163" lon="-4.41288833">
        <ele>646.0</ele>
        <time>2018-05-29T10:27:25.095Z</time>
      </trkpt>
      <trkpt lat="37.41629167" lon="-4.41290167">
        <ele>646.0</ele>
        <time>2018-05-29T10:27:26.056Z</time>
      </trkpt>
      <trkpt lat="37.41629167" lon="-4.41290167">
        <ele>646.0</ele>
        <time>2018-05-29T10:27:27.063Z</time>
      </trkpt>
      <trkpt lat="37.41627667" lon="-4.41292667">
        <ele>647.0</ele>
        <time>2018-05-29T10:27:28.087Z</time>
      </trkpt>
      <trkpt lat="37.41626667" lon="-4.41294">
        <ele>648.0</ele>
        <time>2018-05-29T10:27:29.079Z</time>
      </trkpt>
      <trkpt lat="37.41626667" lon="-4.41294">
        <ele>648.0</ele>
        <time>2018-05-29T10:27:30.091Z</time>
      </trkpt>
      <trkpt lat="37.41624833" lon="-4.41296667">
        <ele>648.0</ele>
        <time>2018-05-29T10:27:31.074Z</time>
      </trkpt>
      <trkpt lat="37.41623833" lon="-4.41298333">
        <ele>648.0</ele>
        <time>2018-05-29T10:27:32.065Z</time>
      </trkpt>
      <trkpt lat="37.41623833" lon="-4.41298333">
        <ele>648.0</ele>
        <time>2018-05-29T10:27:33.071Z</time>
      </trkpt>
      <trkpt lat="37.41621667" lon="-4.41300833">
        <ele>649.0</ele>
        <time>2018-05-29T10:27:34.065Z</time>
      </trkpt>
      <trkpt lat="37.41620667" lon="-4.41302167">
        <ele>649.0</ele>
        <time>2018-05-29T10:27:35.090Z</time>
      </trkpt>
      <trkpt lat="37.41620667" lon="-4.41302167">
        <ele>649.0</ele>
        <time>2018-05-29T10:27:36.095Z</time>
      </trkpt>
      <trkpt lat="37.416185" lon="-4.41304833">
        <ele>649.0</ele>
        <time>2018-05-29T10:27:37.080Z</time>
      </trkpt>
      <trkpt lat="37.416185" lon="-4.41304833">
        <ele>649.0</ele>
        <time>2018-05-29T10:27:38.090Z</time>
      </trkpt>
      <trkpt lat="37.41615833" lon="-4.41307167">
        <ele>650.0</ele>
        <time>2018-05-29T10:27:39.068Z</time>
      </trkpt>
      <trkpt lat="37.416145" lon="-4.41308333">
        <ele>650.0</ele>
        <time>2018-05-29T10:27:40.059Z</time>
      </trkpt>
      <trkpt lat="37.416145" lon="-4.41308333">
        <ele>650.0</ele>
        <time>2018-05-29T10:27:41.066Z</time>
      </trkpt>
      <trkpt lat="37.41612167" lon="-4.41311">
        <ele>650.0</ele>
        <time>2018-05-29T10:27:42.093Z</time>
      </trkpt>
      <trkpt lat="37.41612167" lon="-4.41311">
        <ele>650.0</ele>
        <time>2018-05-29T10:27:43.059Z</time>
      </trkpt>
      <trkpt lat="37.41609333" lon="-4.41313167">
        <ele>651.0</ele>
        <time>2018-05-29T10:27:44.090Z</time>
      </trkpt>
      <trkpt lat="37.41609333" lon="-4.41313167">
        <ele>651.0</ele>
        <time>2018-05-29T10:27:45.057Z</time>
      </trkpt>
      <trkpt lat="37.416065" lon="-4.413155">
        <ele>651.0</ele>
        <time>2018-05-29T10:27:46.083Z</time>
      </trkpt>
      <trkpt lat="37.416065" lon="-4.413155">
        <ele>651.0</ele>
        <time>2018-05-29T10:27:47.095Z</time>
      </trkpt>
      <trkpt lat="37.416035" lon="-4.41317667">
        <ele>651.0</ele>
        <time>2018-05-29T10:27:48.093Z</time>
      </trkpt>
      <trkpt lat="37.416035" lon="-4.41317667">
        <ele>651.0</ele>
        <time>2018-05-29T10:27:49.059Z</time>
      </trkpt>
      <trkpt lat="37.41600667" lon="-4.41319667">
        <ele>651.0</ele>
        <time>2018-05-29T10:27:50.085Z</time>
      </trkpt>
      <trkpt lat="37.41600667" lon="-4.41319667">
        <ele>651.0</ele>
        <time>2018-05-29T10:27:51.092Z</time>
      </trkpt>
      <trkpt lat="37.41598167" lon="-4.41321667">
        <ele>652.0</ele>
        <time>2018-05-29T10:27:52.073Z</time>
      </trkpt>
      <trkpt lat="37.41598167" lon="-4.41321667">
        <ele>652.0</ele>
        <time>2018-05-29T10:27:53.092Z</time>
      </trkpt>
      <trkpt lat="37.41595167" lon="-4.413235">
        <ele>652.0</ele>
        <time>2018-05-29T10:27:54.089Z</time>
      </trkpt>
      <trkpt lat="37.41595167" lon="-4.413235">
        <ele>652.0</ele>
        <time>2018-05-29T10:27:55.095Z</time>
      </trkpt>
      <trkpt lat="37.41592333" lon="-4.41325333">
        <ele>652.0</ele>
        <time>2018-05-29T10:27:56.078Z</time>
      </trkpt>
      <trkpt lat="37.41592333" lon="-4.41325333">
        <ele>652.0</ele>
        <time>2018-05-29T10:27:57.084Z</time>
      </trkpt>
      <trkpt lat="37.41589333" lon="-4.41327">
        <ele>652.0</ele>
        <time>2018-05-29T10:27:58.070Z</time>
      </trkpt>
      <trkpt lat="37.41589333" lon="-4.41327">
        <ele>652.0</ele>
        <time>2018-05-29T10:27:59.077Z</time>
      </trkpt>
      <trkpt lat="37.41586333" lon="-4.41328667">
        <ele>652.0</ele>
        <time>2018-05-29T10:28:00.066Z</time>
      </trkpt>
      <trkpt lat="37.41586333" lon="-4.41328667">
        <ele>652.0</ele>
        <time>2018-05-29T10:28:01.072Z</time>
      </trkpt>
      <trkpt lat="37.41583333" lon="-4.41330333">
        <ele>653.0</ele>
        <time>2018-05-29T10:28:02.087Z</time>
      </trkpt>
      <trkpt lat="37.41583333" lon="-4.41330333">
        <ele>653.0</ele>
        <time>2018-05-29T10:28:03.094Z</time>
      </trkpt>
      <trkpt lat="37.415805" lon="-4.41331">
        <ele>653.0</ele>
        <time>2018-05-29T10:28:04.090Z</time>
      </trkpt>
      <trkpt lat="37.41579" lon="-4.413315">
        <ele>654.0</ele>
        <time>2018-05-29T10:28:05.069Z</time>
      </trkpt>
      <trkpt lat="37.41579" lon="-4.413315">
        <ele>654.0</ele>
        <time>2018-05-29T10:28:06.075Z</time>
      </trkpt>
      <trkpt lat="37.41575833" lon="-4.41332667">
        <ele>654.0</ele>
        <time>2018-05-29T10:28:07.068Z</time>
      </trkpt>
      <trkpt lat="37.41574333" lon="-4.41333">
        <ele>654.0</ele>
        <time>2018-05-29T10:28:08.066Z</time>
      </trkpt>
      <trkpt lat="37.41572833" lon="-4.41333333">
        <ele>654.0</ele>
        <time>2018-05-29T10:28:09.087Z</time>
      </trkpt>
      <trkpt lat="37.41572833" lon="-4.41333333">
        <ele>654.0</ele>
        <time>2018-05-29T10:28:10.094Z</time>
      </trkpt>
      <trkpt lat="37.4157" lon="-4.41333667">
        <ele>655.0</ele>
        <time>2018-05-29T10:28:11.071Z</time>
      </trkpt>
      <trkpt lat="37.4157" lon="-4.41333667">
        <ele>655.0</ele>
        <time>2018-05-29T10:28:12.076Z</time>
      </trkpt>
      <trkpt lat="37.41567167" lon="-4.41334">
        <ele>655.0</ele>
        <time>2018-05-29T10:28:13.074Z</time>
      </trkpt>
      <trkpt lat="37.41567167" lon="-4.41334">
        <ele>655.0</ele>
        <time>2018-05-29T10:28:14.081Z</time>
      </trkpt>
      <trkpt lat="37.41564333" lon="-4.41333833">
        <ele>656.0</ele>
        <time>2018-05-29T10:28:15.074Z</time>
      </trkpt>
      <trkpt lat="37.41562833" lon="-4.41333667">
        <ele>656.0</ele>
        <time>2018-05-29T10:28:16.073Z</time>
      </trkpt>
      <trkpt lat="37.41561333" lon="-4.41333167">
        <ele>657.0</ele>
        <time>2018-05-29T10:28:17.064Z</time>
      </trkpt>
      <trkpt lat="37.41561333" lon="-4.41333167">
        <ele>657.0</ele>
        <time>2018-05-29T10:28:18.071Z</time>
      </trkpt>
      <trkpt lat="37.41558667" lon="-4.41332167">
        <ele>657.0</ele>
        <time>2018-05-29T10:28:19.076Z</time>
      </trkpt>
      <trkpt lat="37.415575" lon="-4.413315">
        <ele>658.0</ele>
        <time>2018-05-29T10:28:20.059Z</time>
      </trkpt>
      <trkpt lat="37.415575" lon="-4.413315">
        <ele>658.0</ele>
        <time>2018-05-29T10:28:21.065Z</time>
      </trkpt>
      <trkpt lat="37.41555" lon="-4.41329667">
        <ele>658.0</ele>
        <time>2018-05-29T10:28:22.075Z</time>
      </trkpt>
      <trkpt lat="37.41555" lon="-4.41329667">
        <ele>658.0</ele>
        <time>2018-05-29T10:28:23.081Z</time>
      </trkpt>
      <trkpt lat="37.41553" lon="-4.41327167">
        <ele>658.0</ele>
        <time>2018-05-29T10:28:24.077Z</time>
      </trkpt>
      <trkpt lat="37.41553" lon="-4.41327167">
        <ele>658.0</ele>
        <time>2018-05-29T10:28:25.083Z</time>
      </trkpt>
      <trkpt lat="37.41552667" lon="-4.413235">
        <ele>658.0</ele>
        <time>2018-05-29T10:28:26.079Z</time>
      </trkpt>
      <trkpt lat="37.41552667" lon="-4.413235">
        <ele>658.0</ele>
        <time>2018-05-29T10:28:27.084Z</time>
      </trkpt>
      <trkpt lat="37.41554167" lon="-4.4132">
        <ele>659.0</ele>
        <time>2018-05-29T10:28:28.064Z</time>
      </trkpt>
      <trkpt lat="37.41554833" lon="-4.41318333">
        <ele>659.0</ele>
        <time>2018-05-29T10:28:29.056Z</time>
      </trkpt>
      <trkpt lat="37.41554833" lon="-4.41318333">
        <ele>659.0</ele>
        <time>2018-05-29T10:28:30.062Z</time>
      </trkpt>
      <trkpt lat="37.415565" lon="-4.41315">
        <ele>659.0</ele>
        <time>2018-05-29T10:28:31.076Z</time>
      </trkpt>
      <trkpt lat="37.415565" lon="-4.41315">
        <ele>659.0</ele>
        <time>2018-05-29T10:28:32.082Z</time>
      </trkpt>
      <trkpt lat="37.41557833" lon="-4.41311667">
        <ele>659.0</ele>
        <time>2018-05-29T10:28:33.071Z</time>
      </trkpt>
      <trkpt lat="37.41558333" lon="-4.41309833">
        <ele>659.0</ele>
        <time>2018-05-29T10:28:34.091Z</time>
      </trkpt>
      <trkpt lat="37.41559167" lon="-4.41308">
        <ele>659.0</ele>
        <time>2018-05-29T10:28:35.090Z</time>
      </trkpt>
      <trkpt lat="37.41559167" lon="-4.41308">
        <ele>659.0</ele>
        <time>2018-05-29T10:28:36.056Z</time>
      </trkpt>
      <trkpt lat="37.41559667" lon="-4.41304333">
        <ele>659.0</ele>
        <time>2018-05-29T10:28:37.074Z</time>
      </trkpt>
      <trkpt lat="37.41560167" lon="-4.41302667">
        <ele>659.0</ele>
        <time>2018-05-29T10:28:38.058Z</time>
      </trkpt>
      <trkpt lat="37.41560167" lon="-4.41302667">
        <ele>659.0</ele>
        <time>2018-05-29T10:28:39.065Z</time>
      </trkpt>
      <trkpt lat="37.415605" lon="-4.41299167">
        <ele>659.0</ele>
        <time>2018-05-29T10:28:40.064Z</time>
      </trkpt>
      <trkpt lat="37.41560667" lon="-4.41297167">
        <ele>659.0</ele>
        <time>2018-05-29T10:28:41.094Z</time>
      </trkpt>
      <trkpt lat="37.41560667" lon="-4.41297167">
        <ele>659.0</ele>
        <time>2018-05-29T10:28:42.060Z</time>
      </trkpt>
      <trkpt lat="37.41561" lon="-4.41293167">
        <ele>660.0</ele>
        <time>2018-05-29T10:28:43.090Z</time>
      </trkpt>
      <trkpt lat="37.41561167" lon="-4.41291167">
        <ele>660.0</ele>
        <time>2018-05-29T10:28:44.072Z</time>
      </trkpt>
      <trkpt lat="37.415615" lon="-4.41289167">
        <ele>660.0</ele>
        <time>2018-05-29T10:28:45.060Z</time>
      </trkpt>
      <trkpt lat="37.415615" lon="-4.41289167">
        <ele>660.0</ele>
        <time>2018-05-29T10:28:46.070Z</time>
      </trkpt>
      <trkpt lat="37.41562" lon="-4.41285167">
        <ele>660.0</ele>
        <time>2018-05-29T10:28:47.063Z</time>
      </trkpt>
      <trkpt lat="37.41562" lon="-4.41285167">
        <ele>660.0</ele>
        <time>2018-05-29T10:28:48.069Z</time>
      </trkpt>
      <trkpt lat="37.41562833" lon="-4.41281667">
        <ele>660.0</ele>
        <time>2018-05-29T10:28:49.074Z</time>
      </trkpt>
      <trkpt lat="37.41562833" lon="-4.41281667">
        <ele>660.0</ele>
        <time>2018-05-29T10:28:50.059Z</time>
      </trkpt>
      <trkpt lat="37.41563667" lon="-4.41278">
        <ele>660.0</ele>
        <time>2018-05-29T10:28:51.056Z</time>
      </trkpt>
      <trkpt lat="37.41563667" lon="-4.41278">
        <ele>660.0</ele>
        <time>2018-05-29T10:28:52.062Z</time>
      </trkpt>
      <trkpt lat="37.41564" lon="-4.41274333">
        <ele>660.0</ele>
        <time>2018-05-29T10:28:53.078Z</time>
      </trkpt>
      <trkpt lat="37.41564" lon="-4.41274333">
        <ele>660.0</ele>
        <time>2018-05-29T10:28:54.057Z</time>
      </trkpt>
      <trkpt lat="37.415645" lon="-4.412705">
        <ele>661.0</ele>
        <time>2018-05-29T10:28:55.079Z</time>
      </trkpt>
      <trkpt lat="37.41564667" lon="-4.41268667">
        <ele>661.0</ele>
        <time>2018-05-29T10:28:56.062Z</time>
      </trkpt>
      <trkpt lat="37.41564667" lon="-4.41268667">
        <ele>661.0</ele>
        <time>2018-05-29T10:28:57.067Z</time>
      </trkpt>
      <trkpt lat="37.41565167" lon="-4.41265167">
        <ele>661.0</ele>
        <time>2018-05-29T10:28:58.064Z</time>
      </trkpt>
      <trkpt lat="37.415655" lon="-4.412635">
        <ele>661.0</ele>
        <time>2018-05-29T10:28:59.061Z</time>
      </trkpt>
      <trkpt lat="37.41565833" lon="-4.41261833">
        <ele>661.0</ele>
        <time>2018-05-29T10:29:00.084Z</time>
      </trkpt>
      <trkpt lat="37.41565833" lon="-4.41261833">
        <ele>661.0</ele>
        <time>2018-05-29T10:29:01.093Z</time>
      </trkpt>
      <trkpt lat="37.41566333" lon="-4.41258333">
        <ele>661.0</ele>
        <time>2018-05-29T10:29:02.094Z</time>
      </trkpt>
      <trkpt lat="37.41566333" lon="-4.41258333">
        <ele>661.0</ele>
        <time>2018-05-29T10:29:03.059Z</time>
      </trkpt>
      <trkpt lat="37.41566833" lon="-4.41254833">
        <ele>661.0</ele>
        <time>2018-05-29T10:29:04.093Z</time>
      </trkpt>
      <trkpt lat="37.41567" lon="-4.41253167">
        <ele>662.0</ele>
        <time>2018-05-29T10:29:05.081Z</time>
      </trkpt>
      <trkpt lat="37.41567" lon="-4.41253167">
        <ele>662.0</ele>
        <time>2018-05-29T10:29:06.087Z</time>
      </trkpt>
      <trkpt lat="37.41567833" lon="-4.4125">
        <ele>662.0</ele>
        <time>2018-05-29T10:29:07.064Z</time>
      </trkpt>
      <trkpt lat="37.41567833" lon="-4.4125">
        <ele>662.0</ele>
        <time>2018-05-29T10:29:08.069Z</time>
      </trkpt>
      <trkpt lat="37.41569167" lon="-4.41246833">
        <ele>662.0</ele>
        <time>2018-05-29T10:29:09.063Z</time>
      </trkpt>
      <trkpt lat="37.41569167" lon="-4.41246833">
        <ele>662.0</ele>
        <time>2018-05-29T10:29:10.068Z</time>
      </trkpt>
      <trkpt lat="37.41571167" lon="-4.412445">
        <ele>663.0</ele>
        <time>2018-05-29T10:29:11.063Z</time>
      </trkpt>
      <trkpt lat="37.41571167" lon="-4.412445">
        <ele>663.0</ele>
        <time>2018-05-29T10:29:12.068Z</time>
      </trkpt>
      <trkpt lat="37.41573" lon="-4.41242167">
        <ele>663.0</ele>
        <time>2018-05-29T10:29:13.088Z</time>
      </trkpt>
      <trkpt lat="37.41573" lon="-4.41242167">
        <ele>663.0</ele>
        <time>2018-05-29T10:29:14.094Z</time>
      </trkpt>
      <trkpt lat="37.41574333" lon="-4.41239167">
        <ele>663.0</ele>
        <time>2018-05-29T10:29:15.068Z</time>
      </trkpt>
      <trkpt lat="37.41574333" lon="-4.41239167">
        <ele>663.0</ele>
        <time>2018-05-29T10:29:16.073Z</time>
      </trkpt>
      <trkpt lat="37.41575167" lon="-4.41235833">
        <ele>664.0</ele>
        <time>2018-05-29T10:29:17.058Z</time>
      </trkpt>
      <trkpt lat="37.41575167" lon="-4.41235833">
        <ele>664.0</ele>
        <time>2018-05-29T10:29:18.063Z</time>
      </trkpt>
      <trkpt lat="37.41575833" lon="-4.41232333">
        <ele>664.0</ele>
        <time>2018-05-29T10:29:19.090Z</time>
      </trkpt>
      <trkpt lat="37.41576167" lon="-4.41230667">
        <ele>664.0</ele>
        <time>2018-05-29T10:29:20.075Z</time>
      </trkpt>
      <trkpt lat="37.41576167" lon="-4.41230667">
        <ele>664.0</ele>
        <time>2018-05-29T10:29:21.081Z</time>
      </trkpt>
      <trkpt lat="37.415775" lon="-4.41227667">
        <ele>664.0</ele>
        <time>2018-05-29T10:29:22.080Z</time>
      </trkpt>
      <trkpt lat="37.41578333" lon="-4.41226167">
        <ele>664.0</ele>
        <time>2018-05-29T10:29:23.076Z</time>
      </trkpt>
      <trkpt lat="37.41578333" lon="-4.41226167">
        <ele>664.0</ele>
        <time>2018-05-29T10:29:24.083Z</time>
      </trkpt>
      <trkpt lat="37.4158" lon="-4.41223667">
        <ele>664.0</ele>
        <time>2018-05-29T10:29:25.079Z</time>
      </trkpt>
      <trkpt lat="37.41580667" lon="-4.41222333">
        <ele>665.0</ele>
        <time>2018-05-29T10:29:26.079Z</time>
      </trkpt>
      <trkpt lat="37.41580667" lon="-4.41222333">
        <ele>665.0</ele>
        <time>2018-05-29T10:29:27.084Z</time>
      </trkpt>
      <trkpt lat="37.41581833" lon="-4.412195">
        <ele>665.0</ele>
        <time>2018-05-29T10:29:28.072Z</time>
      </trkpt>
      <trkpt lat="37.41582333" lon="-4.41218">
        <ele>665.0</ele>
        <time>2018-05-29T10:29:29.056Z</time>
      </trkpt>
      <trkpt lat="37.41582333" lon="-4.41218">
        <ele>665.0</ele>
        <time>2018-05-29T10:29:30.062Z</time>
      </trkpt>
      <trkpt lat="37.41583167" lon="-4.41214667">
        <ele>665.0</ele>
        <time>2018-05-29T10:29:31.061Z</time>
      </trkpt>
      <trkpt lat="37.41583667" lon="-4.41213167">
        <ele>665.0</ele>
        <time>2018-05-29T10:29:32.087Z</time>
      </trkpt>
      <trkpt lat="37.41583667" lon="-4.41213167">
        <ele>665.0</ele>
        <time>2018-05-29T10:29:33.093Z</time>
      </trkpt>
      <trkpt lat="37.41584833" lon="-4.41210333">
        <ele>666.0</ele>
        <time>2018-05-29T10:29:34.056Z</time>
      </trkpt>
      <trkpt lat="37.41585333" lon="-4.41209">
        <ele>666.0</ele>
        <time>2018-05-29T10:29:35.056Z</time>
      </trkpt>
      <trkpt lat="37.41585333" lon="-4.41209">
        <ele>666.0</ele>
        <time>2018-05-29T10:29:36.061Z</time>
      </trkpt>
      <trkpt lat="37.415865" lon="-4.41206167">
        <ele>666.0</ele>
        <time>2018-05-29T10:29:37.083Z</time>
      </trkpt>
      <trkpt lat="37.415865" lon="-4.41206167">
        <ele>666.0</ele>
        <time>2018-05-29T10:29:38.092Z</time>
      </trkpt>
      <trkpt lat="37.41587833" lon="-4.41203333">
        <ele>666.0</ele>
        <time>2018-05-29T10:29:39.076Z</time>
      </trkpt>
      <trkpt lat="37.41587833" lon="-4.41203333">
        <ele>666.0</ele>
        <time>2018-05-29T10:29:40.081Z</time>
      </trkpt>
      <trkpt lat="37.41588667" lon="-4.41200333">
        <ele>666.0</ele>
        <time>2018-05-29T10:29:41.084Z</time>
      </trkpt>
      <trkpt lat="37.41588667" lon="-4.41200333">
        <ele>666.0</ele>
        <time>2018-05-29T10:29:42.092Z</time>
      </trkpt>
      <trkpt lat="37.41589833" lon="-4.41197167">
        <ele>667.0</ele>
        <time>2018-05-29T10:29:43.070Z</time>
      </trkpt>
      <trkpt lat="37.41590167" lon="-4.41195667">
        <ele>667.0</ele>
        <time>2018-05-29T10:29:44.085Z</time>
      </trkpt>
      <trkpt lat="37.41590167" lon="-4.41195667">
        <ele>667.0</ele>
        <time>2018-05-29T10:29:45.091Z</time>
      </trkpt>
      <trkpt lat="37.415915" lon="-4.41192833">
        <ele>667.0</ele>
        <time>2018-05-29T10:29:46.085Z</time>
      </trkpt>
      <trkpt lat="37.415915" lon="-4.41192833">
        <ele>667.0</ele>
        <time>2018-05-29T10:29:47.091Z</time>
      </trkpt>
      <trkpt lat="37.41592667" lon="-4.41189833">
        <ele>667.0</ele>
        <time>2018-05-29T10:29:48.070Z</time>
      </trkpt>
      <trkpt lat="37.41592667" lon="-4.41189833">
        <ele>667.0</ele>
        <time>2018-05-29T10:29:49.076Z</time>
      </trkpt>
      <trkpt lat="37.41594" lon="-4.41187333">
        <ele>667.0</ele>
        <time>2018-05-29T10:29:50.062Z</time>
      </trkpt>
      <trkpt lat="37.415945" lon="-4.41185833">
        <ele>668.0</ele>
        <time>2018-05-29T10:29:51.077Z</time>
      </trkpt>
      <trkpt lat="37.415945" lon="-4.41185833">
        <ele>668.0</ele>
        <time>2018-05-29T10:29:52.082Z</time>
      </trkpt>
      <trkpt lat="37.415955" lon="-4.41183167">
        <ele>668.0</ele>
        <time>2018-05-29T10:29:53.083Z</time>
      </trkpt>
      <trkpt lat="37.415955" lon="-4.41183167">
        <ele>668.0</ele>
        <time>2018-05-29T10:29:54.079Z</time>
      </trkpt>
      <trkpt lat="37.41596833" lon="-4.41180667">
        <ele>668.0</ele>
        <time>2018-05-29T10:29:55.067Z</time>
      </trkpt>
      <trkpt lat="37.41596833" lon="-4.41180667">
        <ele>668.0</ele>
        <time>2018-05-29T10:29:56.073Z</time>
      </trkpt>
      <trkpt lat="37.41598" lon="-4.41177833">
        <ele>668.0</ele>
        <time>2018-05-29T10:29:57.089Z</time>
      </trkpt>
      <trkpt lat="37.41598" lon="-4.41177833">
        <ele>668.0</ele>
        <time>2018-05-29T10:29:58.095Z</time>
      </trkpt>
      <trkpt lat="37.41598667" lon="-4.41175">
        <ele>669.0</ele>
        <time>2018-05-29T10:29:59.069Z</time>
      </trkpt>
      <trkpt lat="37.41598667" lon="-4.41175">
        <ele>669.0</ele>
        <time>2018-05-29T10:30:00.079Z</time>
      </trkpt>
      <trkpt lat="37.415995" lon="-4.41171833">
        <ele>669.0</ele>
        <time>2018-05-29T10:30:01.066Z</time>
      </trkpt>
      <trkpt lat="37.415995" lon="-4.41171833">
        <ele>669.0</ele>
        <time>2018-05-29T10:30:02.072Z</time>
      </trkpt>
      <trkpt lat="37.41599667" lon="-4.411685">
        <ele>669.0</ele>
        <time>2018-05-29T10:30:03.092Z</time>
      </trkpt>
      <trkpt lat="37.41599833" lon="-4.41167">
        <ele>670.0</ele>
        <time>2018-05-29T10:30:04.067Z</time>
      </trkpt>
      <trkpt lat="37.41600167" lon="-4.411655">
        <ele>670.0</ele>
        <time>2018-05-29T10:30:05.087Z</time>
      </trkpt>
      <trkpt lat="37.41600167" lon="-4.411655">
        <ele>670.0</ele>
        <time>2018-05-29T10:30:06.093Z</time>
      </trkpt>
      <trkpt lat="37.41600667" lon="-4.41162333">
        <ele>670.0</ele>
        <time>2018-05-29T10:30:07.070Z</time>
      </trkpt>
      <trkpt lat="37.41600667" lon="-4.41162333">
        <ele>670.0</ele>
        <time>2018-05-29T10:30:08.075Z</time>
      </trkpt>
      <trkpt lat="37.41601833" lon="-4.411595">
        <ele>670.0</ele>
        <time>2018-05-29T10:30:09.079Z</time>
      </trkpt>
      <trkpt lat="37.41601833" lon="-4.411595">
        <ele>670.0</ele>
        <time>2018-05-29T10:30:10.084Z</time>
      </trkpt>
      <trkpt lat="37.41603" lon="-4.411565">
        <ele>671.0</ele>
        <time>2018-05-29T10:30:11.071Z</time>
      </trkpt>
      <trkpt lat="37.41603" lon="-4.411565">
        <ele>671.0</ele>
        <time>2018-05-29T10:30:12.077Z</time>
      </trkpt>
      <trkpt lat="37.41603833" lon="-4.41153167">
        <ele>671.0</ele>
        <time>2018-05-29T10:30:13.091Z</time>
      </trkpt>
      <trkpt lat="37.41603833" lon="-4.41153167">
        <ele>671.0</ele>
        <time>2018-05-29T10:30:14.058Z</time>
      </trkpt>
      <trkpt lat="37.41604667" lon="-4.41149833">
        <ele>671.0</ele>
        <time>2018-05-29T10:30:15.081Z</time>
      </trkpt>
      <trkpt lat="37.41604667" lon="-4.41149833">
        <ele>671.0</ele>
        <time>2018-05-29T10:30:16.089Z</time>
      </trkpt>
      <trkpt lat="37.416055" lon="-4.411465">
        <ele>671.0</ele>
        <time>2018-05-29T10:30:17.073Z</time>
      </trkpt>
      <trkpt lat="37.416055" lon="-4.411465">
        <ele>671.0</ele>
        <time>2018-05-29T10:30:18.078Z</time>
      </trkpt>
      <trkpt lat="37.41607" lon="-4.41143667">
        <ele>671.0</ele>
        <time>2018-05-29T10:30:19.094Z</time>
      </trkpt>
      <trkpt lat="37.41607" lon="-4.41143667">
        <ele>671.0</ele>
        <time>2018-05-29T10:30:20.059Z</time>
      </trkpt>
      <trkpt lat="37.41608167" lon="-4.41140167">
        <ele>672.0</ele>
        <time>2018-05-29T10:30:21.081Z</time>
      </trkpt>
      <trkpt lat="37.41608167" lon="-4.41140167">
        <ele>672.0</ele>
        <time>2018-05-29T10:30:22.092Z</time>
      </trkpt>
      <trkpt lat="37.416095" lon="-4.41136833">
        <ele>672.0</ele>
        <time>2018-05-29T10:30:23.069Z</time>
      </trkpt>
      <trkpt lat="37.416095" lon="-4.41136833">
        <ele>672.0</ele>
        <time>2018-05-29T10:30:24.076Z</time>
      </trkpt>
      <trkpt lat="37.41610667" lon="-4.41133167">
        <ele>672.0</ele>
        <time>2018-05-29T10:30:25.062Z</time>
      </trkpt>
      <trkpt lat="37.41610667" lon="-4.41133167">
        <ele>672.0</ele>
        <time>2018-05-29T10:30:26.067Z</time>
      </trkpt>
      <trkpt lat="37.41611667" lon="-4.41129667">
        <ele>672.0</ele>
        <time>2018-05-29T10:30:27.086Z</time>
      </trkpt>
      <trkpt lat="37.41611667" lon="-4.41129667">
        <ele>672.0</ele>
        <time>2018-05-29T10:30:28.092Z</time>
      </trkpt>
      <trkpt lat="37.41613167" lon="-4.41126167">
        <ele>672.0</ele>
        <time>2018-05-29T10:30:29.076Z</time>
      </trkpt>
      <trkpt lat="37.41613167" lon="-4.41126167">
        <ele>672.0</ele>
        <time>2018-05-29T10:30:30.081Z</time>
      </trkpt>
      <trkpt lat="37.41614833" lon="-4.41122833">
        <ele>672.0</ele>
        <time>2018-05-29T10:30:31.071Z</time>
      </trkpt>
      <trkpt lat="37.41614833" lon="-4.41122833">
        <ele>672.0</ele>
        <time>2018-05-29T10:30:32.077Z</time>
      </trkpt>
      <trkpt lat="37.416165" lon="-4.41119833">
        <ele>672.0</ele>
        <time>2018-05-29T10:30:33.094Z</time>
      </trkpt>
      <trkpt lat="37.416165" lon="-4.41119833">
        <ele>672.0</ele>
        <time>2018-05-29T10:30:34.059Z</time>
      </trkpt>
      <trkpt lat="37.41617333" lon="-4.41116667">
        <ele>673.0</ele>
        <time>2018-05-29T10:30:35.077Z</time>
      </trkpt>
      <trkpt lat="37.41617333" lon="-4.41116667">
        <ele>673.0</ele>
        <time>2018-05-29T10:30:36.083Z</time>
      </trkpt>
      <trkpt lat="37.41618667" lon="-4.411135">
        <ele>673.0</ele>
        <time>2018-05-29T10:30:37.081Z</time>
      </trkpt>
      <trkpt lat="37.41618667" lon="-4.411135">
        <ele>673.0</ele>
        <time>2018-05-29T10:30:38.088Z</time>
      </trkpt>
      <trkpt lat="37.4162" lon="-4.41110667">
        <ele>673.0</ele>
        <time>2018-05-29T10:30:39.078Z</time>
      </trkpt>
      <trkpt lat="37.41620667" lon="-4.41109333">
        <ele>673.0</ele>
        <time>2018-05-29T10:30:40.082Z</time>
      </trkpt>
      <trkpt lat="37.416215" lon="-4.41108">
        <ele>673.0</ele>
        <time>2018-05-29T10:30:41.063Z</time>
      </trkpt>
      <trkpt lat="37.416215" lon="-4.41108">
        <ele>673.0</ele>
        <time>2018-05-29T10:30:42.069Z</time>
      </trkpt>
      <trkpt lat="37.416225" lon="-4.41104833">
        <ele>673.0</ele>
        <time>2018-05-29T10:30:43.091Z</time>
      </trkpt>
      <trkpt lat="37.416225" lon="-4.41104833">
        <ele>673.0</ele>
        <time>2018-05-29T10:30:44.056Z</time>
      </trkpt>
      <trkpt lat="37.41624333" lon="-4.411025">
        <ele>674.0</ele>
        <time>2018-05-29T10:30:45.077Z</time>
      </trkpt>
      <trkpt lat="37.41624333" lon="-4.411025">
        <ele>674.0</ele>
        <time>2018-05-29T10:30:46.083Z</time>
      </trkpt>
      <trkpt lat="37.41626167" lon="-4.41099667">
        <ele>674.0</ele>
        <time>2018-05-29T10:30:47.090Z</time>
      </trkpt>
      <trkpt lat="37.41626167" lon="-4.41099667">
        <ele>674.0</ele>
        <time>2018-05-29T10:30:48.056Z</time>
      </trkpt>
      <trkpt lat="37.41627333" lon="-4.41096333">
        <ele>675.0</ele>
        <time>2018-05-29T10:30:49.085Z</time>
      </trkpt>
      <trkpt lat="37.41627333" lon="-4.41096333">
        <ele>675.0</ele>
        <time>2018-05-29T10:30:50.092Z</time>
      </trkpt>
      <trkpt lat="37.41628" lon="-4.41093333">
        <ele>675.0</ele>
        <time>2018-05-29T10:30:51.093Z</time>
      </trkpt>
      <trkpt lat="37.41628" lon="-4.41093333">
        <ele>675.0</ele>
        <time>2018-05-29T10:30:52.058Z</time>
      </trkpt>
      <trkpt lat="37.416285" lon="-4.41090667">
        <ele>675.0</ele>
        <time>2018-05-29T10:30:53.072Z</time>
      </trkpt>
      <trkpt lat="37.416285" lon="-4.41090667">
        <ele>675.0</ele>
        <time>2018-05-29T10:30:54.083Z</time>
      </trkpt>
      <trkpt lat="37.41629833" lon="-4.41088167">
        <ele>676.0</ele>
        <time>2018-05-29T10:30:55.068Z</time>
      </trkpt>
      <trkpt lat="37.41629833" lon="-4.41088167">
        <ele>676.0</ele>
        <time>2018-05-29T10:30:56.073Z</time>
      </trkpt>
      <trkpt lat="37.41630833" lon="-4.410855">
        <ele>676.0</ele>
        <time>2018-05-29T10:30:57.058Z</time>
      </trkpt>
      <trkpt lat="37.41630833" lon="-4.410855">
        <ele>676.0</ele>
        <time>2018-05-29T10:30:58.063Z</time>
      </trkpt>
      <trkpt lat="37.41632167" lon="-4.41082667">
        <ele>676.0</ele>
        <time>2018-05-29T10:30:59.069Z</time>
      </trkpt>
      <trkpt lat="37.41632167" lon="-4.41082667">
        <ele>676.0</ele>
        <time>2018-05-29T10:31:00.075Z</time>
      </trkpt>
      <trkpt lat="37.41633333" lon="-4.41079833">
        <ele>677.0</ele>
        <time>2018-05-29T10:31:01.056Z</time>
      </trkpt>
      <trkpt lat="37.41633333" lon="-4.41079833">
        <ele>677.0</ele>
        <time>2018-05-29T10:31:02.061Z</time>
      </trkpt>
      <trkpt lat="37.41634667" lon="-4.410775">
        <ele>677.0</ele>
        <time>2018-05-29T10:31:03.080Z</time>
      </trkpt>
      <trkpt lat="37.41634667" lon="-4.410775">
        <ele>677.0</ele>
        <time>2018-05-29T10:31:04.088Z</time>
      </trkpt>
      <trkpt lat="37.41636" lon="-4.41075167">
        <ele>677.0</ele>
        <time>2018-05-29T10:31:05.071Z</time>
      </trkpt>
      <trkpt lat="37.41636" lon="-4.41075167">
        <ele>677.0</ele>
        <time>2018-05-29T10:31:06.077Z</time>
      </trkpt>
      <trkpt lat="37.416375" lon="-4.41073">
        <ele>678.0</ele>
        <time>2018-05-29T10:31:07.083Z</time>
      </trkpt>
      <trkpt lat="37.416375" lon="-4.41073">
        <ele>678.0</ele>
        <time>2018-05-29T10:31:08.091Z</time>
      </trkpt>
      <trkpt lat="37.41638833" lon="-4.410705">
        <ele>678.0</ele>
        <time>2018-05-29T10:31:09.072Z</time>
      </trkpt>
      <trkpt lat="37.41639333" lon="-4.41069167">
        <ele>678.0</ele>
        <time>2018-05-29T10:31:10.084Z</time>
      </trkpt>
      <trkpt lat="37.41639333" lon="-4.41069167">
        <ele>678.0</ele>
        <time>2018-05-29T10:31:11.090Z</time>
      </trkpt>
      <trkpt lat="37.4164" lon="-4.41066333">
        <ele>679.0</ele>
        <time>2018-05-29T10:31:12.078Z</time>
      </trkpt>
      <trkpt lat="37.4164" lon="-4.41066333">
        <ele>679.0</ele>
        <time>2018-05-29T10:31:13.086Z</time>
      </trkpt>
      <trkpt lat="37.416415" lon="-4.41064333">
        <ele>679.0</ele>
        <time>2018-05-29T10:31:14.064Z</time>
      </trkpt>
      <trkpt lat="37.416415" lon="-4.41064333">
        <ele>679.0</ele>
        <time>2018-05-29T10:31:15.069Z</time>
      </trkpt>
      <trkpt lat="37.41642833" lon="-4.41062">
        <ele>680.0</ele>
        <time>2018-05-29T10:31:16.056Z</time>
      </trkpt>
      <trkpt lat="37.41643167" lon="-4.41060667">
        <ele>680.0</ele>
        <time>2018-05-29T10:31:17.072Z</time>
      </trkpt>
      <trkpt lat="37.41643167" lon="-4.41060667">
        <ele>680.0</ele>
        <time>2018-05-29T10:31:18.077Z</time>
      </trkpt>
      <trkpt lat="37.41644333" lon="-4.41058">
        <ele>681.0</ele>
        <time>2018-05-29T10:31:19.091Z</time>
      </trkpt>
      <trkpt lat="37.41644333" lon="-4.41058">
        <ele>681.0</ele>
        <time>2018-05-29T10:31:20.057Z</time>
      </trkpt>
      <trkpt lat="37.41645333" lon="-4.41055167">
        <ele>681.0</ele>
        <time>2018-05-29T10:31:21.081Z</time>
      </trkpt>
      <trkpt lat="37.41645333" lon="-4.41055167">
        <ele>681.0</ele>
        <time>2018-05-29T10:31:22.089Z</time>
      </trkpt>
      <trkpt lat="37.41646" lon="-4.41052167">
        <ele>682.0</ele>
        <time>2018-05-29T10:31:23.073Z</time>
      </trkpt>
      <trkpt lat="37.41646" lon="-4.41052167">
        <ele>682.0</ele>
        <time>2018-05-29T10:31:24.079Z</time>
      </trkpt>
      <trkpt lat="37.41646167" lon="-4.41049">
        <ele>682.0</ele>
        <time>2018-05-29T10:31:25.086Z</time>
      </trkpt>
      <trkpt lat="37.41646167" lon="-4.41049">
        <ele>682.0</ele>
        <time>2018-05-29T10:31:26.091Z</time>
      </trkpt>
      <trkpt lat="37.41645333" lon="-4.41045667">
        <ele>683.0</ele>
        <time>2018-05-29T10:31:27.064Z</time>
      </trkpt>
      <trkpt lat="37.41645333" lon="-4.41045667">
        <ele>683.0</ele>
        <time>2018-05-29T10:31:28.076Z</time>
      </trkpt>
      <trkpt lat="37.41644" lon="-4.41043">
        <ele>683.0</ele>
        <time>2018-05-29T10:31:29.067Z</time>
      </trkpt>
      <trkpt lat="37.41644" lon="-4.41043">
        <ele>683.0</ele>
        <time>2018-05-29T10:31:30.072Z</time>
      </trkpt>
      <trkpt lat="37.41643" lon="-4.41040167">
        <ele>683.0</ele>
        <time>2018-05-29T10:31:31.057Z</time>
      </trkpt>
      <trkpt lat="37.41643" lon="-4.41040167">
        <ele>683.0</ele>
        <time>2018-05-29T10:31:32.062Z</time>
      </trkpt>
      <trkpt lat="37.41642333" lon="-4.41037">
        <ele>683.0</ele>
        <time>2018-05-29T10:31:33.091Z</time>
      </trkpt>
      <trkpt lat="37.41642333" lon="-4.41035333">
        <ele>684.0</ele>
        <time>2018-05-29T10:31:34.076Z</time>
      </trkpt>
      <trkpt lat="37.41642167" lon="-4.410335">
        <ele>684.0</ele>
        <time>2018-05-29T10:31:35.056Z</time>
      </trkpt>
      <trkpt lat="37.41642167" lon="-4.410335">
        <ele>684.0</ele>
        <time>2018-05-29T10:31:36.062Z</time>
      </trkpt>
      <trkpt lat="37.41641833" lon="-4.41030167">
        <ele>684.0</ele>
        <time>2018-05-29T10:31:37.077Z</time>
      </trkpt>
      <trkpt lat="37.41641833" lon="-4.41030167">
        <ele>684.0</ele>
        <time>2018-05-29T10:31:38.083Z</time>
      </trkpt>
      <trkpt lat="37.41641667" lon="-4.41026833">
        <ele>684.0</ele>
        <time>2018-05-29T10:31:39.068Z</time>
      </trkpt>
      <trkpt lat="37.41641667" lon="-4.41026833">
        <ele>684.0</ele>
        <time>2018-05-29T10:31:40.073Z</time>
      </trkpt>
      <trkpt lat="37.41641333" lon="-4.410235">
        <ele>685.0</ele>
        <time>2018-05-29T10:31:41.089Z</time>
      </trkpt>
      <trkpt lat="37.41641" lon="-4.41022167">
        <ele>685.0</ele>
        <time>2018-05-29T10:31:42.068Z</time>
      </trkpt>
      <trkpt lat="37.41641" lon="-4.41022167">
        <ele>685.0</ele>
        <time>2018-05-29T10:31:43.074Z</time>
      </trkpt>
      <trkpt lat="37.41640333" lon="-4.41019667">
        <ele>686.0</ele>
        <time>2018-05-29T10:31:44.086Z</time>
      </trkpt>
      <trkpt lat="37.41640333" lon="-4.41018">
        <ele>686.0</ele>
        <time>2018-05-29T10:31:45.066Z</time>
      </trkpt>
      <trkpt lat="37.41640333" lon="-4.41018">
        <ele>686.0</ele>
        <time>2018-05-29T10:31:46.071Z</time>
      </trkpt>
      <trkpt lat="37.41640167" lon="-4.41014833">
        <ele>687.0</ele>
        <time>2018-05-29T10:31:47.095Z</time>
      </trkpt>
      <trkpt lat="37.41640167" lon="-4.41014833">
        <ele>687.0</ele>
        <time>2018-05-29T10:31:48.062Z</time>
      </trkpt>
      <trkpt lat="37.41640167" lon="-4.41012">
        <ele>687.0</ele>
        <time>2018-05-29T10:31:49.086Z</time>
      </trkpt>
      <trkpt lat="37.41640167" lon="-4.41012">
        <ele>687.0</ele>
        <time>2018-05-29T10:31:50.091Z</time>
      </trkpt>
      <trkpt lat="37.41640833" lon="-4.41009">
        <ele>688.0</ele>
        <time>2018-05-29T10:31:51.064Z</time>
      </trkpt>
      <trkpt lat="37.41640833" lon="-4.41009">
        <ele>688.0</ele>
        <time>2018-05-29T10:31:52.069Z</time>
      </trkpt>
      <trkpt lat="37.41641667" lon="-4.41006">
        <ele>688.0</ele>
        <time>2018-05-29T10:31:53.059Z</time>
      </trkpt>
      <trkpt lat="37.41641667" lon="-4.41006">
        <ele>688.0</ele>
        <time>2018-05-29T10:31:54.074Z</time>
      </trkpt>
      <trkpt lat="37.41643167" lon="-4.41003167">
        <ele>689.0</ele>
        <time>2018-05-29T10:31:55.056Z</time>
      </trkpt>
      <trkpt lat="37.41643167" lon="-4.41003167">
        <ele>689.0</ele>
        <time>2018-05-29T10:31:56.062Z</time>
      </trkpt>
      <trkpt lat="37.41644833" lon="-4.41000167">
        <ele>689.0</ele>
        <time>2018-05-29T10:31:57.078Z</time>
      </trkpt>
      <trkpt lat="37.41644833" lon="-4.41000167">
        <ele>689.0</ele>
        <time>2018-05-29T10:31:58.084Z</time>
      </trkpt>
      <trkpt lat="37.41646167" lon="-4.40997333">
        <ele>689.0</ele>
        <time>2018-05-29T10:31:59.095Z</time>
      </trkpt>
      <trkpt lat="37.41646167" lon="-4.40997333">
        <ele>689.0</ele>
        <time>2018-05-29T10:32:00.061Z</time>
      </trkpt>
      <trkpt lat="37.41647333" lon="-4.40994333">
        <ele>690.0</ele>
        <time>2018-05-29T10:32:01.082Z</time>
      </trkpt>
      <trkpt lat="37.41647833" lon="-4.40992833">
        <ele>690.0</ele>
        <time>2018-05-29T10:32:02.070Z</time>
      </trkpt>
      <trkpt lat="37.41647833" lon="-4.40992833">
        <ele>690.0</ele>
        <time>2018-05-29T10:32:03.076Z</time>
      </trkpt>
      <trkpt lat="37.416485" lon="-4.40989667">
        <ele>690.0</ele>
        <time>2018-05-29T10:32:04.059Z</time>
      </trkpt>
      <trkpt lat="37.416485" lon="-4.40987833">
        <ele>690.0</ele>
        <time>2018-05-29T10:32:05.074Z</time>
      </trkpt>
      <trkpt lat="37.416485" lon="-4.40987833">
        <ele>690.0</ele>
        <time>2018-05-29T10:32:06.080Z</time>
      </trkpt>
      <trkpt lat="37.41648167" lon="-4.40985333">
        <ele>691.0</ele>
        <time>2018-05-29T10:32:07.058Z</time>
      </trkpt>
      <trkpt lat="37.41648" lon="-4.40984167">
        <ele>691.0</ele>
        <time>2018-05-29T10:32:08.093Z</time>
      </trkpt>
      <trkpt lat="37.41648" lon="-4.40984167">
        <ele>691.0</ele>
        <time>2018-05-29T10:32:09.058Z</time>
      </trkpt>
      <trkpt lat="37.41648" lon="-4.409815">
        <ele>692.0</ele>
        <time>2018-05-29T10:32:10.063Z</time>
      </trkpt>
      <trkpt lat="37.41648167" lon="-4.40980167">
        <ele>692.0</ele>
        <time>2018-05-29T10:32:11.084Z</time>
      </trkpt>
      <trkpt lat="37.41648167" lon="-4.40980167">
        <ele>692.0</ele>
        <time>2018-05-29T10:32:12.089Z</time>
      </trkpt>
      <trkpt lat="37.41648833" lon="-4.40977333">
        <ele>692.0</ele>
        <time>2018-05-29T10:32:13.087Z</time>
      </trkpt>
      <trkpt lat="37.41649" lon="-4.40975667">
        <ele>692.0</ele>
        <time>2018-05-29T10:32:14.065Z</time>
      </trkpt>
      <trkpt lat="37.41649" lon="-4.40973833">
        <ele>692.0</ele>
        <time>2018-05-29T10:32:15.091Z</time>
      </trkpt>
      <trkpt lat="37.41649" lon="-4.40973833">
        <ele>692.0</ele>
        <time>2018-05-29T10:32:16.069Z</time>
      </trkpt>
      <trkpt lat="37.41648833" lon="-4.40970667">
        <ele>693.0</ele>
        <time>2018-05-29T10:32:17.062Z</time>
      </trkpt>
      <trkpt lat="37.41648833" lon="-4.40969167">
        <ele>693.0</ele>
        <time>2018-05-29T10:32:18.086Z</time>
      </trkpt>
      <trkpt lat="37.41648833" lon="-4.40969167">
        <ele>693.0</ele>
        <time>2018-05-29T10:32:19.094Z</time>
      </trkpt>
      <trkpt lat="37.416485" lon="-4.40965667">
        <ele>694.0</ele>
        <time>2018-05-29T10:32:20.086Z</time>
      </trkpt>
      <trkpt lat="37.416485" lon="-4.40965667">
        <ele>694.0</ele>
        <time>2018-05-29T10:32:21.092Z</time>
      </trkpt>
      <trkpt lat="37.41648667" lon="-4.40962333">
        <ele>694.0</ele>
        <time>2018-05-29T10:32:22.060Z</time>
      </trkpt>
      <trkpt lat="37.41648833" lon="-4.40960667">
        <ele>694.0</ele>
        <time>2018-05-29T10:32:23.079Z</time>
      </trkpt>
      <trkpt lat="37.41648833" lon="-4.40960667">
        <ele>694.0</ele>
        <time>2018-05-29T10:32:24.086Z</time>
      </trkpt>
      <trkpt lat="37.41649667" lon="-4.40957333">
        <ele>695.0</ele>
        <time>2018-05-29T10:32:25.072Z</time>
      </trkpt>
      <trkpt lat="37.41650167" lon="-4.40955833">
        <ele>695.0</ele>
        <time>2018-05-29T10:32:26.076Z</time>
      </trkpt>
      <trkpt lat="37.41650167" lon="-4.40955833">
        <ele>695.0</ele>
        <time>2018-05-29T10:32:27.082Z</time>
      </trkpt>
      <trkpt lat="37.41651333" lon="-4.40952833">
        <ele>695.0</ele>
        <time>2018-05-29T10:32:28.069Z</time>
      </trkpt>
      <trkpt lat="37.41652" lon="-4.409515">
        <ele>695.0</ele>
        <time>2018-05-29T10:32:29.091Z</time>
      </trkpt>
      <trkpt lat="37.41652" lon="-4.409515">
        <ele>695.0</ele>
        <time>2018-05-29T10:32:30.056Z</time>
      </trkpt>
      <trkpt lat="37.41653167" lon="-4.40948833">
        <ele>696.0</ele>
        <time>2018-05-29T10:32:31.079Z</time>
      </trkpt>
      <trkpt lat="37.41653833" lon="-4.40947333">
        <ele>696.0</ele>
        <time>2018-05-29T10:32:32.064Z</time>
      </trkpt>
      <trkpt lat="37.41654167" lon="-4.40945833">
        <ele>696.0</ele>
        <time>2018-05-29T10:32:33.092Z</time>
      </trkpt>
      <trkpt lat="37.41654167" lon="-4.40945833">
        <ele>696.0</ele>
        <time>2018-05-29T10:32:34.059Z</time>
      </trkpt>
      <trkpt lat="37.41655167" lon="-4.40943">
        <ele>697.0</ele>
        <time>2018-05-29T10:32:35.087Z</time>
      </trkpt>
      <trkpt lat="37.41655167" lon="-4.40943">
        <ele>697.0</ele>
        <time>2018-05-29T10:32:36.092Z</time>
      </trkpt>
      <trkpt lat="37.416555" lon="-4.40939667">
        <ele>697.0</ele>
        <time>2018-05-29T10:32:37.086Z</time>
      </trkpt>
      <trkpt lat="37.41655667" lon="-4.40938167">
        <ele>698.0</ele>
        <time>2018-05-29T10:32:38.093Z</time>
      </trkpt>
      <trkpt lat="37.41655667" lon="-4.40938167">
        <ele>698.0</ele>
        <time>2018-05-29T10:32:39.059Z</time>
      </trkpt>
      <trkpt lat="37.41656167" lon="-4.40934667">
        <ele>698.0</ele>
        <time>2018-05-29T10:32:40.075Z</time>
      </trkpt>
      <trkpt lat="37.41656333" lon="-4.40933167">
        <ele>698.0</ele>
        <time>2018-05-29T10:32:41.065Z</time>
      </trkpt>
      <trkpt lat="37.41656333" lon="-4.40933167">
        <ele>698.0</ele>
        <time>2018-05-29T10:32:42.071Z</time>
      </trkpt>
      <trkpt lat="37.41656833" lon="-4.40930333">
        <ele>698.0</ele>
        <time>2018-05-29T10:32:43.064Z</time>
      </trkpt>
      <trkpt lat="37.41657167" lon="-4.40928833">
        <ele>699.0</ele>
        <time>2018-05-29T10:32:44.086Z</time>
      </trkpt>
      <trkpt lat="37.416575" lon="-4.40927167">
        <ele>699.0</ele>
        <time>2018-05-29T10:32:45.060Z</time>
      </trkpt>
      <trkpt lat="37.416575" lon="-4.40927167">
        <ele>699.0</ele>
        <time>2018-05-29T10:32:46.066Z</time>
      </trkpt>
      <trkpt lat="37.41658167" lon="-4.40923833">
        <ele>699.0</ele>
        <time>2018-05-29T10:32:47.057Z</time>
      </trkpt>
      <trkpt lat="37.41658167" lon="-4.40923833">
        <ele>699.0</ele>
        <time>2018-05-29T10:32:48.063Z</time>
      </trkpt>
      <trkpt lat="37.41659" lon="-4.40920667">
        <ele>699.0</ele>
        <time>2018-05-29T10:32:49.084Z</time>
      </trkpt>
      <trkpt lat="37.41659" lon="-4.40920667">
        <ele>699.0</ele>
        <time>2018-05-29T10:32:50.095Z</time>
      </trkpt>
      <trkpt lat="37.41659333" lon="-4.409175">
        <ele>700.0</ele>
        <time>2018-05-29T10:32:51.088Z</time>
      </trkpt>
      <trkpt lat="37.41659333" lon="-4.409175">
        <ele>700.0</ele>
        <time>2018-05-29T10:32:52.094Z</time>
      </trkpt>
      <trkpt lat="37.41659667" lon="-4.40914333">
        <ele>700.0</ele>
        <time>2018-05-29T10:32:53.091Z</time>
      </trkpt>
      <trkpt lat="37.41659667" lon="-4.40914333">
        <ele>700.0</ele>
        <time>2018-05-29T10:32:54.080Z</time>
      </trkpt>
      <trkpt lat="37.41660167" lon="-4.40910667">
        <ele>700.0</ele>
        <time>2018-05-29T10:32:55.071Z</time>
      </trkpt>
      <trkpt lat="37.416605" lon="-4.40908833">
        <ele>700.0</ele>
        <time>2018-05-29T10:32:56.088Z</time>
      </trkpt>
      <trkpt lat="37.41660833" lon="-4.40907167">
        <ele>701.0</ele>
        <time>2018-05-29T10:32:57.073Z</time>
      </trkpt>
      <trkpt lat="37.41661" lon="-4.40905333">
        <ele>701.0</ele>
        <time>2018-05-29T10:32:58.056Z</time>
      </trkpt>
      <trkpt lat="37.41661" lon="-4.40905333">
        <ele>701.0</ele>
        <time>2018-05-29T10:32:59.062Z</time>
      </trkpt>
      <trkpt lat="37.416615" lon="-4.40901833">
        <ele>701.0</ele>
        <time>2018-05-29T10:33:00.080Z</time>
      </trkpt>
      <trkpt lat="37.416615" lon="-4.40901833">
        <ele>701.0</ele>
        <time>2018-05-29T10:33:01.085Z</time>
      </trkpt>
      <trkpt lat="37.41662167" lon="-4.40898667">
        <ele>701.0</ele>
        <time>2018-05-29T10:33:02.079Z</time>
      </trkpt>
      <trkpt lat="37.41662167" lon="-4.40898667">
        <ele>701.0</ele>
        <time>2018-05-29T10:33:03.085Z</time>
      </trkpt>
      <trkpt lat="37.41662833" lon="-4.408955">
        <ele>702.0</ele>
        <time>2018-05-29T10:33:04.062Z</time>
      </trkpt>
      <trkpt lat="37.41663167" lon="-4.40893833">
        <ele>702.0</ele>
        <time>2018-05-29T10:33:05.080Z</time>
      </trkpt>
      <trkpt lat="37.41663167" lon="-4.40893833">
        <ele>702.0</ele>
        <time>2018-05-29T10:33:06.086Z</time>
      </trkpt>
      <trkpt lat="37.41663833" lon="-4.40890667">
        <ele>702.0</ele>
        <time>2018-05-29T10:33:07.069Z</time>
      </trkpt>
      <trkpt lat="37.41663833" lon="-4.40890667">
        <ele>702.0</ele>
        <time>2018-05-29T10:33:08.075Z</time>
      </trkpt>
      <trkpt lat="37.41664167" lon="-4.40887667">
        <ele>703.0</ele>
        <time>2018-05-29T10:33:09.076Z</time>
      </trkpt>
      <trkpt lat="37.41664167" lon="-4.40887667">
        <ele>703.0</ele>
        <time>2018-05-29T10:33:10.081Z</time>
      </trkpt>
      <trkpt lat="37.41664833" lon="-4.408845">
        <ele>703.0</ele>
        <time>2018-05-29T10:33:11.056Z</time>
      </trkpt>
      <trkpt lat="37.41664833" lon="-4.408845">
        <ele>703.0</ele>
        <time>2018-05-29T10:33:12.062Z</time>
      </trkpt>
      <trkpt lat="37.41665167" lon="-4.40881">
        <ele>704.0</ele>
        <time>2018-05-29T10:33:13.077Z</time>
      </trkpt>
      <trkpt lat="37.41665167" lon="-4.40881">
        <ele>704.0</ele>
        <time>2018-05-29T10:33:14.083Z</time>
      </trkpt>
      <trkpt lat="37.41665833" lon="-4.408775">
        <ele>704.0</ele>
        <time>2018-05-29T10:33:15.072Z</time>
      </trkpt>
      <trkpt lat="37.41665833" lon="-4.408775">
        <ele>704.0</ele>
        <time>2018-05-29T10:33:16.078Z</time>
      </trkpt>
      <trkpt lat="37.41666833" lon="-4.40874">
        <ele>704.0</ele>
        <time>2018-05-29T10:33:17.064Z</time>
      </trkpt>
      <trkpt lat="37.41666833" lon="-4.40874">
        <ele>704.0</ele>
        <time>2018-05-29T10:33:18.071Z</time>
      </trkpt>
      <trkpt lat="37.416675" lon="-4.40870833">
        <ele>704.0</ele>
        <time>2018-05-29T10:33:19.066Z</time>
      </trkpt>
      <trkpt lat="37.416675" lon="-4.40870833">
        <ele>704.0</ele>
        <time>2018-05-29T10:33:20.072Z</time>
      </trkpt>
      <trkpt lat="37.41667667" lon="-4.40867333">
        <ele>705.0</ele>
        <time>2018-05-29T10:33:21.093Z</time>
      </trkpt>
      <trkpt lat="37.41667667" lon="-4.40867333">
        <ele>705.0</ele>
        <time>2018-05-29T10:33:22.059Z</time>
      </trkpt>
      <trkpt lat="37.41667833" lon="-4.40864167">
        <ele>705.0</ele>
        <time>2018-05-29T10:33:23.087Z</time>
      </trkpt>
      <trkpt lat="37.41667833" lon="-4.40864167">
        <ele>705.0</ele>
        <time>2018-05-29T10:33:24.056Z</time>
      </trkpt>
      <trkpt lat="37.41667667" lon="-4.40861167">
        <ele>705.0</ele>
        <time>2018-05-29T10:33:25.090Z</time>
      </trkpt>
      <trkpt lat="37.41667667" lon="-4.40861167">
        <ele>705.0</ele>
        <time>2018-05-29T10:33:26.056Z</time>
      </trkpt>
      <trkpt lat="37.41667667" lon="-4.40858">
        <ele>706.0</ele>
        <time>2018-05-29T10:33:27.086Z</time>
      </trkpt>
      <trkpt lat="37.41667667" lon="-4.40858">
        <ele>706.0</ele>
        <time>2018-05-29T10:33:28.095Z</time>
      </trkpt>
      <trkpt lat="37.41667833" lon="-4.40854667">
        <ele>706.0</ele>
        <time>2018-05-29T10:33:29.081Z</time>
      </trkpt>
      <trkpt lat="37.41667833" lon="-4.40854667">
        <ele>706.0</ele>
        <time>2018-05-29T10:33:30.092Z</time>
      </trkpt>
      <trkpt lat="37.41667333" lon="-4.40851333">
        <ele>707.0</ele>
        <time>2018-05-29T10:33:31.086Z</time>
      </trkpt>
      <trkpt lat="37.41667333" lon="-4.40851333">
        <ele>707.0</ele>
        <time>2018-05-29T10:33:32.092Z</time>
      </trkpt>
      <trkpt lat="37.416675" lon="-4.40848167">
        <ele>707.0</ele>
        <time>2018-05-29T10:33:33.087Z</time>
      </trkpt>
      <trkpt lat="37.416675" lon="-4.40848167">
        <ele>707.0</ele>
        <time>2018-05-29T10:33:34.093Z</time>
      </trkpt>
      <trkpt lat="37.41667667" lon="-4.40844833">
        <ele>708.0</ele>
        <time>2018-05-29T10:33:35.072Z</time>
      </trkpt>
      <trkpt lat="37.41667667" lon="-4.40844833">
        <ele>708.0</ele>
        <time>2018-05-29T10:33:36.078Z</time>
      </trkpt>
      <trkpt lat="37.41667833" lon="-4.40841333">
        <ele>708.0</ele>
        <time>2018-05-29T10:33:37.068Z</time>
      </trkpt>
      <trkpt lat="37.41667833" lon="-4.40841333">
        <ele>708.0</ele>
        <time>2018-05-29T10:33:38.073Z</time>
      </trkpt>
      <trkpt lat="37.41668333" lon="-4.40837833">
        <ele>709.0</ele>
        <time>2018-05-29T10:33:39.067Z</time>
      </trkpt>
      <trkpt lat="37.41668333" lon="-4.40837833">
        <ele>709.0</ele>
        <time>2018-05-29T10:33:40.073Z</time>
      </trkpt>
      <trkpt lat="37.41669167" lon="-4.40835">
        <ele>709.0</ele>
        <time>2018-05-29T10:33:41.067Z</time>
      </trkpt>
      <trkpt lat="37.41669167" lon="-4.40835">
        <ele>709.0</ele>
        <time>2018-05-29T10:33:42.073Z</time>
      </trkpt>
      <trkpt lat="37.41669333" lon="-4.40831667">
        <ele>710.0</ele>
        <time>2018-05-29T10:33:43.078Z</time>
      </trkpt>
      <trkpt lat="37.41669333" lon="-4.40831667">
        <ele>710.0</ele>
        <time>2018-05-29T10:33:44.084Z</time>
      </trkpt>
      <trkpt lat="37.4167" lon="-4.40828333">
        <ele>710.0</ele>
        <time>2018-05-29T10:33:45.071Z</time>
      </trkpt>
      <trkpt lat="37.4167" lon="-4.40828333">
        <ele>710.0</ele>
        <time>2018-05-29T10:33:46.077Z</time>
      </trkpt>
      <trkpt lat="37.41670333" lon="-4.40824833">
        <ele>711.0</ele>
        <time>2018-05-29T10:33:47.068Z</time>
      </trkpt>
      <trkpt lat="37.41670333" lon="-4.40824833">
        <ele>711.0</ele>
        <time>2018-05-29T10:33:48.074Z</time>
      </trkpt>
      <trkpt lat="37.41670833" lon="-4.408215">
        <ele>711.0</ele>
        <time>2018-05-29T10:33:49.088Z</time>
      </trkpt>
      <trkpt lat="37.41670833" lon="-4.408215">
        <ele>711.0</ele>
        <time>2018-05-29T10:33:50.095Z</time>
      </trkpt>
      <trkpt lat="37.41671" lon="-4.40818167">
        <ele>712.0</ele>
        <time>2018-05-29T10:33:51.092Z</time>
      </trkpt>
      <trkpt lat="37.41671333" lon="-4.40816667">
        <ele>712.0</ele>
        <time>2018-05-29T10:33:52.056Z</time>
      </trkpt>
      <trkpt lat="37.41671333" lon="-4.40816667">
        <ele>712.0</ele>
        <time>2018-05-29T10:33:53.071Z</time>
      </trkpt>
      <trkpt lat="37.41671167" lon="-4.408135">
        <ele>713.0</ele>
        <time>2018-05-29T10:33:54.061Z</time>
      </trkpt>
      <trkpt lat="37.41671167" lon="-4.408135">
        <ele>713.0</ele>
        <time>2018-05-29T10:33:55.067Z</time>
      </trkpt>
      <trkpt lat="37.41670833" lon="-4.40810667">
        <ele>713.0</ele>
        <time>2018-05-29T10:33:56.057Z</time>
      </trkpt>
      <trkpt lat="37.41670833" lon="-4.40810667">
        <ele>713.0</ele>
        <time>2018-05-29T10:33:57.063Z</time>
      </trkpt>
      <trkpt lat="37.41670667" lon="-4.40807833">
        <ele>714.0</ele>
        <time>2018-05-29T10:33:58.056Z</time>
      </trkpt>
      <trkpt lat="37.41670833" lon="-4.40806167">
        <ele>714.0</ele>
        <time>2018-05-29T10:33:59.061Z</time>
      </trkpt>
      <trkpt lat="37.41670833" lon="-4.40806167">
        <ele>714.0</ele>
        <time>2018-05-29T10:34:00.067Z</time>
      </trkpt>
      <trkpt lat="37.41671333" lon="-4.40803167">
        <ele>715.0</ele>
        <time>2018-05-29T10:34:01.057Z</time>
      </trkpt>
      <trkpt lat="37.416715" lon="-4.408015">
        <ele>715.0</ele>
        <time>2018-05-29T10:34:02.079Z</time>
      </trkpt>
      <trkpt lat="37.416715" lon="-4.408015">
        <ele>715.0</ele>
        <time>2018-05-29T10:34:03.085Z</time>
      </trkpt>
      <trkpt lat="37.416715" lon="-4.40798667">
        <ele>716.0</ele>
        <time>2018-05-29T10:34:04.078Z</time>
      </trkpt>
      <trkpt lat="37.41671167" lon="-4.40797167">
        <ele>716.0</ele>
        <time>2018-05-29T10:34:05.057Z</time>
      </trkpt>
      <trkpt lat="37.41671167" lon="-4.40797167">
        <ele>716.0</ele>
        <time>2018-05-29T10:34:06.063Z</time>
      </trkpt>
      <trkpt lat="37.41670833" lon="-4.40794">
        <ele>717.0</ele>
        <time>2018-05-29T10:34:07.092Z</time>
      </trkpt>
      <trkpt lat="37.41670833" lon="-4.40794">
        <ele>717.0</ele>
        <time>2018-05-29T10:34:08.058Z</time>
      </trkpt>
      <trkpt lat="37.41670833" lon="-4.40790833">
        <ele>717.0</ele>
        <time>2018-05-29T10:34:09.059Z</time>
      </trkpt>
      <trkpt lat="37.41670833" lon="-4.40790833">
        <ele>717.0</ele>
        <time>2018-05-29T10:34:10.064Z</time>
      </trkpt>
      <trkpt lat="37.41671" lon="-4.407875">
        <ele>718.0</ele>
        <time>2018-05-29T10:34:11.056Z</time>
      </trkpt>
      <trkpt lat="37.41671" lon="-4.407875">
        <ele>718.0</ele>
        <time>2018-05-29T10:34:12.062Z</time>
      </trkpt>
      <trkpt lat="37.41670667" lon="-4.40783833">
        <ele>718.0</ele>
        <time>2018-05-29T10:34:13.093Z</time>
      </trkpt>
      <trkpt lat="37.41670667" lon="-4.40782">
        <ele>719.0</ele>
        <time>2018-05-29T10:34:14.075Z</time>
      </trkpt>
      <trkpt lat="37.41670667" lon="-4.40782">
        <ele>719.0</ele>
        <time>2018-05-29T10:34:15.080Z</time>
      </trkpt>
      <trkpt lat="37.416705" lon="-4.40778167">
        <ele>719.0</ele>
        <time>2018-05-29T10:34:16.074Z</time>
      </trkpt>
      <trkpt lat="37.41670333" lon="-4.407765">
        <ele>719.0</ele>
        <time>2018-05-29T10:34:17.058Z</time>
      </trkpt>
      <trkpt lat="37.41670333" lon="-4.407765">
        <ele>719.0</ele>
        <time>2018-05-29T10:34:18.063Z</time>
      </trkpt>
      <trkpt lat="37.41670667" lon="-4.407735">
        <ele>720.0</ele>
        <time>2018-05-29T10:34:19.059Z</time>
      </trkpt>
      <trkpt lat="37.416705" lon="-4.40771833">
        <ele>720.0</ele>
        <time>2018-05-29T10:34:20.083Z</time>
      </trkpt>
      <trkpt lat="37.416705" lon="-4.40771833">
        <ele>720.0</ele>
        <time>2018-05-29T10:34:21.093Z</time>
      </trkpt>
      <trkpt lat="37.41670667" lon="-4.40768667">
        <ele>720.0</ele>
        <time>2018-05-29T10:34:22.081Z</time>
      </trkpt>
      <trkpt lat="37.41670667" lon="-4.40767167">
        <ele>721.0</ele>
        <time>2018-05-29T10:34:23.072Z</time>
      </trkpt>
      <trkpt lat="37.41670667" lon="-4.40767167">
        <ele>721.0</ele>
        <time>2018-05-29T10:34:24.078Z</time>
      </trkpt>
      <trkpt lat="37.41670833" lon="-4.40764167">
        <ele>721.0</ele>
        <time>2018-05-29T10:34:25.072Z</time>
      </trkpt>
      <trkpt lat="37.41670833" lon="-4.40764167">
        <ele>721.0</ele>
        <time>2018-05-29T10:34:26.077Z</time>
      </trkpt>
      <trkpt lat="37.41671" lon="-4.40761">
        <ele>721.0</ele>
        <time>2018-05-29T10:34:27.067Z</time>
      </trkpt>
      <trkpt lat="37.41671" lon="-4.40761">
        <ele>721.0</ele>
        <time>2018-05-29T10:34:28.073Z</time>
      </trkpt>
      <trkpt lat="37.41671833" lon="-4.40758333">
        <ele>721.0</ele>
        <time>2018-05-29T10:34:29.078Z</time>
      </trkpt>
      <trkpt lat="37.41671833" lon="-4.40758333">
        <ele>721.0</ele>
        <time>2018-05-29T10:34:30.083Z</time>
      </trkpt>
      <trkpt lat="37.41671833" lon="-4.40755">
        <ele>721.0</ele>
        <time>2018-05-29T10:34:31.071Z</time>
      </trkpt>
      <trkpt lat="37.41671833" lon="-4.407535">
        <ele>722.0</ele>
        <time>2018-05-29T10:34:32.056Z</time>
      </trkpt>
      <trkpt lat="37.41671833" lon="-4.407535">
        <ele>722.0</ele>
        <time>2018-05-29T10:34:33.061Z</time>
      </trkpt>
      <trkpt lat="37.41672167" lon="-4.40750333">
        <ele>722.0</ele>
        <time>2018-05-29T10:34:34.090Z</time>
      </trkpt>
      <trkpt lat="37.41672167" lon="-4.40750333">
        <ele>722.0</ele>
        <time>2018-05-29T10:34:35.095Z</time>
      </trkpt>
      <trkpt lat="37.41672667" lon="-4.40747333">
        <ele>722.0</ele>
        <time>2018-05-29T10:34:36.094Z</time>
      </trkpt>
      <trkpt lat="37.41672667" lon="-4.40747333">
        <ele>722.0</ele>
        <time>2018-05-29T10:34:37.059Z</time>
      </trkpt>
      <trkpt lat="37.41672667" lon="-4.40744">
        <ele>723.0</ele>
        <time>2018-05-29T10:34:38.090Z</time>
      </trkpt>
      <trkpt lat="37.41672667" lon="-4.40744">
        <ele>723.0</ele>
        <time>2018-05-29T10:34:39.095Z</time>
      </trkpt>
      <trkpt lat="37.41672167" lon="-4.40741">
        <ele>723.0</ele>
        <time>2018-05-29T10:34:40.075Z</time>
      </trkpt>
      <trkpt lat="37.41672167" lon="-4.407395">
        <ele>723.0</ele>
        <time>2018-05-29T10:34:41.061Z</time>
      </trkpt>
      <trkpt lat="37.41672167" lon="-4.407395">
        <ele>723.0</ele>
        <time>2018-05-29T10:34:42.067Z</time>
      </trkpt>
      <trkpt lat="37.41672" lon="-4.407365">
        <ele>723.0</ele>
        <time>2018-05-29T10:34:43.064Z</time>
      </trkpt>
      <trkpt lat="37.41672" lon="-4.407365">
        <ele>723.0</ele>
        <time>2018-05-29T10:34:44.070Z</time>
      </trkpt>
      <trkpt lat="37.41671833" lon="-4.40733667">
        <ele>724.0</ele>
        <time>2018-05-29T10:34:45.067Z</time>
      </trkpt>
      <trkpt lat="37.41671833" lon="-4.40733667">
        <ele>724.0</ele>
        <time>2018-05-29T10:34:46.074Z</time>
      </trkpt>
      <trkpt lat="37.416715" lon="-4.40730667">
        <ele>724.0</ele>
        <time>2018-05-29T10:34:47.065Z</time>
      </trkpt>
      <trkpt lat="37.416715" lon="-4.40730667">
        <ele>724.0</ele>
        <time>2018-05-29T10:34:48.071Z</time>
      </trkpt>
      <trkpt lat="37.41671167" lon="-4.40727667">
        <ele>725.0</ele>
        <time>2018-05-29T10:34:49.090Z</time>
      </trkpt>
      <trkpt lat="37.41671167" lon="-4.40727667">
        <ele>725.0</ele>
        <time>2018-05-29T10:34:50.056Z</time>
      </trkpt>
      <trkpt lat="37.41671" lon="-4.407245">
        <ele>725.0</ele>
        <time>2018-05-29T10:34:51.080Z</time>
      </trkpt>
      <trkpt lat="37.41671" lon="-4.407245">
        <ele>725.0</ele>
        <time>2018-05-29T10:34:52.089Z</time>
      </trkpt>
      <trkpt lat="37.41671" lon="-4.40721167">
        <ele>725.0</ele>
        <time>2018-05-29T10:34:53.092Z</time>
      </trkpt>
      <trkpt lat="37.41671" lon="-4.40721167">
        <ele>725.0</ele>
        <time>2018-05-29T10:34:54.079Z</time>
      </trkpt>
      <trkpt lat="37.416705" lon="-4.40717833">
        <ele>726.0</ele>
        <time>2018-05-29T10:34:55.064Z</time>
      </trkpt>
      <trkpt lat="37.41670167" lon="-4.40716167">
        <ele>726.0</ele>
        <time>2018-05-29T10:34:56.087Z</time>
      </trkpt>
      <trkpt lat="37.41670167" lon="-4.40716167">
        <ele>726.0</ele>
        <time>2018-05-29T10:34:57.094Z</time>
      </trkpt>
      <trkpt lat="37.416695" lon="-4.40712833">
        <ele>726.0</ele>
        <time>2018-05-29T10:34:58.091Z</time>
      </trkpt>
      <trkpt lat="37.41669333" lon="-4.40711333">
        <ele>726.0</ele>
        <time>2018-05-29T10:34:59.086Z</time>
      </trkpt>
      <trkpt lat="37.41669333" lon="-4.40711333">
        <ele>726.0</ele>
        <time>2018-05-29T10:35:00.093Z</time>
      </trkpt>
      <trkpt lat="37.41669333" lon="-4.40708">
        <ele>726.0</ele>
        <time>2018-05-29T10:35:01.086Z</time>
      </trkpt>
      <trkpt lat="37.41669167" lon="-4.40706333">
        <ele>727.0</ele>
        <time>2018-05-29T10:35:02.087Z</time>
      </trkpt>
      <trkpt lat="37.41669167" lon="-4.40706333">
        <ele>727.0</ele>
        <time>2018-05-29T10:35:03.095Z</time>
      </trkpt>
      <trkpt lat="37.41669" lon="-4.40703">
        <ele>727.0</ele>
        <time>2018-05-29T10:35:04.059Z</time>
      </trkpt>
      <trkpt lat="37.41668833" lon="-4.40701167">
        <ele>727.0</ele>
        <time>2018-05-29T10:35:05.065Z</time>
      </trkpt>
      <trkpt lat="37.41668833" lon="-4.40701167">
        <ele>727.0</ele>
        <time>2018-05-29T10:35:06.072Z</time>
      </trkpt>
      <trkpt lat="37.41668333" lon="-4.40697833">
        <ele>727.0</ele>
        <time>2018-05-29T10:35:07.088Z</time>
      </trkpt>
      <trkpt lat="37.41668333" lon="-4.40697833">
        <ele>727.0</ele>
        <time>2018-05-29T10:35:08.095Z</time>
      </trkpt>
      <trkpt lat="37.41668" lon="-4.40694167">
        <ele>728.0</ele>
        <time>2018-05-29T10:35:09.087Z</time>
      </trkpt>
      <trkpt lat="37.41668" lon="-4.40694167">
        <ele>728.0</ele>
        <time>2018-05-29T10:35:10.093Z</time>
      </trkpt>
      <trkpt lat="37.416675" lon="-4.40690833">
        <ele>728.0</ele>
        <time>2018-05-29T10:35:11.082Z</time>
      </trkpt>
      <trkpt lat="37.416675" lon="-4.40690833">
        <ele>728.0</ele>
        <time>2018-05-29T10:35:12.093Z</time>
      </trkpt>
      <trkpt lat="37.41667" lon="-4.40687333">
        <ele>728.0</ele>
        <time>2018-05-29T10:35:13.079Z</time>
      </trkpt>
      <trkpt lat="37.41666833" lon="-4.406855">
        <ele>729.0</ele>
        <time>2018-05-29T10:35:14.063Z</time>
      </trkpt>
      <trkpt lat="37.41666833" lon="-4.406855">
        <ele>729.0</ele>
        <time>2018-05-29T10:35:15.070Z</time>
      </trkpt>
      <trkpt lat="37.41666167" lon="-4.40682">
        <ele>729.0</ele>
        <time>2018-05-29T10:35:16.063Z</time>
      </trkpt>
      <trkpt lat="37.41666" lon="-4.40680333">
        <ele>729.0</ele>
        <time>2018-05-29T10:35:17.065Z</time>
      </trkpt>
      <trkpt lat="37.41665667" lon="-4.40678667">
        <ele>730.0</ele>
        <time>2018-05-29T10:35:18.092Z</time>
      </trkpt>
      <trkpt lat="37.41665667" lon="-4.40678667">
        <ele>730.0</ele>
        <time>2018-05-29T10:35:19.058Z</time>
      </trkpt>
      <trkpt lat="37.41665167" lon="-4.40675">
        <ele>730.0</ele>
        <time>2018-05-29T10:35:20.082Z</time>
      </trkpt>
      <trkpt lat="37.41665167" lon="-4.40673333">
        <ele>730.0</ele>
        <time>2018-05-29T10:35:21.080Z</time>
      </trkpt>
      <trkpt lat="37.41665167" lon="-4.40673333">
        <ele>730.0</ele>
        <time>2018-05-29T10:35:22.087Z</time>
      </trkpt>
      <trkpt lat="37.41664833" lon="-4.40669667">
        <ele>730.0</ele>
        <time>2018-05-29T10:35:23.081Z</time>
      </trkpt>
      <trkpt lat="37.41664833" lon="-4.40669667">
        <ele>730.0</ele>
        <time>2018-05-29T10:35:24.091Z</time>
      </trkpt>
      <trkpt lat="37.41664167" lon="-4.40666">
        <ele>730.0</ele>
        <time>2018-05-29T10:35:25.080Z</time>
      </trkpt>
      <trkpt lat="37.41663833" lon="-4.40664167">
        <ele>731.0</ele>
        <time>2018-05-29T10:35:26.067Z</time>
      </trkpt>
      <trkpt lat="37.41663833" lon="-4.40664167">
        <ele>731.0</ele>
        <time>2018-05-29T10:35:27.073Z</time>
      </trkpt>
      <trkpt lat="37.416635" lon="-4.406605">
        <ele>731.0</ele>
        <time>2018-05-29T10:35:28.075Z</time>
      </trkpt>
      <trkpt lat="37.41663167" lon="-4.40658667">
        <ele>731.0</ele>
        <time>2018-05-29T10:35:29.063Z</time>
      </trkpt>
      <trkpt lat="37.41663167" lon="-4.40658667">
        <ele>731.0</ele>
        <time>2018-05-29T10:35:30.069Z</time>
      </trkpt>
      <trkpt lat="37.41662667" lon="-4.40655333">
        <ele>731.0</ele>
        <time>2018-05-29T10:35:31.062Z</time>
      </trkpt>
      <trkpt lat="37.41662333" lon="-4.406535">
        <ele>732.0</ele>
        <time>2018-05-29T10:35:32.061Z</time>
      </trkpt>
      <trkpt lat="37.41662333" lon="-4.406535">
        <ele>732.0</ele>
        <time>2018-05-29T10:35:33.068Z</time>
      </trkpt>
      <trkpt lat="37.41661833" lon="-4.40649667">
        <ele>732.0</ele>
        <time>2018-05-29T10:35:34.068Z</time>
      </trkpt>
      <trkpt lat="37.41661833" lon="-4.40649667">
        <ele>732.0</ele>
        <time>2018-05-29T10:35:35.073Z</time>
      </trkpt>
      <trkpt lat="37.41661333" lon="-4.406455">
        <ele>732.0</ele>
        <time>2018-05-29T10:35:36.069Z</time>
      </trkpt>
      <trkpt lat="37.41661" lon="-4.40643667">
        <ele>732.0</ele>
        <time>2018-05-29T10:35:37.094Z</time>
      </trkpt>
      <trkpt lat="37.41660667" lon="-4.40641833">
        <ele>732.0</ele>
        <time>2018-05-29T10:35:38.095Z</time>
      </trkpt>
      <trkpt lat="37.41660667" lon="-4.40641833">
        <ele>732.0</ele>
        <time>2018-05-29T10:35:39.061Z</time>
      </trkpt>
      <trkpt lat="37.41660333" lon="-4.40637833">
        <ele>733.0</ele>
        <time>2018-05-29T10:35:40.064Z</time>
      </trkpt>
      <trkpt lat="37.41660167" lon="-4.40636">
        <ele>733.0</ele>
        <time>2018-05-29T10:35:41.087Z</time>
      </trkpt>
      <trkpt lat="37.41659667" lon="-4.40634">
        <ele>733.0</ele>
        <time>2018-05-29T10:35:42.083Z</time>
      </trkpt>
      <trkpt lat="37.41659667" lon="-4.40634">
        <ele>733.0</ele>
        <time>2018-05-29T10:35:43.095Z</time>
      </trkpt>
      <trkpt lat="37.41659" lon="-4.40630167">
        <ele>733.0</ele>
        <time>2018-05-29T10:35:44.094Z</time>
      </trkpt>
      <trkpt lat="37.41659" lon="-4.40630167">
        <ele>733.0</ele>
        <time>2018-05-29T10:35:45.060Z</time>
      </trkpt>
      <trkpt lat="37.41658333" lon="-4.40626333">
        <ele>734.0</ele>
        <time>2018-05-29T10:35:46.095Z</time>
      </trkpt>
      <trkpt lat="37.41658" lon="-4.40624333">
        <ele>734.0</ele>
        <time>2018-05-29T10:35:47.056Z</time>
      </trkpt>
      <trkpt lat="37.41658" lon="-4.40624333">
        <ele>734.0</ele>
        <time>2018-05-29T10:35:48.062Z</time>
      </trkpt>
      <trkpt lat="37.41657333" lon="-4.40621">
        <ele>734.0</ele>
        <time>2018-05-29T10:35:49.056Z</time>
      </trkpt>
      <trkpt lat="37.41657333" lon="-4.40621">
        <ele>734.0</ele>
        <time>2018-05-29T10:35:50.061Z</time>
      </trkpt>
      <trkpt lat="37.416565" lon="-4.40617333">
        <ele>735.0</ele>
        <time>2018-05-29T10:35:51.057Z</time>
      </trkpt>
      <trkpt lat="37.41656" lon="-4.40615667">
        <ele>735.0</ele>
        <time>2018-05-29T10:35:52.094Z</time>
      </trkpt>
      <trkpt lat="37.41656" lon="-4.40615667">
        <ele>735.0</ele>
        <time>2018-05-29T10:35:53.058Z</time>
      </trkpt>
      <trkpt lat="37.41655" lon="-4.40612">
        <ele>735.0</ele>
        <time>2018-05-29T10:35:54.059Z</time>
      </trkpt>
      <trkpt lat="37.41655" lon="-4.40612">
        <ele>735.0</ele>
        <time>2018-05-29T10:35:55.065Z</time>
      </trkpt>
      <trkpt lat="37.41654" lon="-4.40608167">
        <ele>735.0</ele>
        <time>2018-05-29T10:35:56.094Z</time>
      </trkpt>
      <trkpt lat="37.41654" lon="-4.40608167">
        <ele>735.0</ele>
        <time>2018-05-29T10:35:57.066Z</time>
      </trkpt>
      <trkpt lat="37.41653167" lon="-4.406045">
        <ele>736.0</ele>
        <time>2018-05-29T10:35:58.095Z</time>
      </trkpt>
      <trkpt lat="37.41653167" lon="-4.406045">
        <ele>736.0</ele>
        <time>2018-05-29T10:35:59.061Z</time>
      </trkpt>
      <trkpt lat="37.41652333" lon="-4.40600833">
        <ele>736.0</ele>
        <time>2018-05-29T10:36:00.090Z</time>
      </trkpt>
      <trkpt lat="37.41652333" lon="-4.40600833">
        <ele>736.0</ele>
        <time>2018-05-29T10:36:01.056Z</time>
      </trkpt>
      <trkpt lat="37.41651333" lon="-4.405975">
        <ele>737.0</ele>
        <time>2018-05-29T10:36:02.094Z</time>
      </trkpt>
      <trkpt lat="37.41651333" lon="-4.405975">
        <ele>737.0</ele>
        <time>2018-05-29T10:36:03.060Z</time>
      </trkpt>
      <trkpt lat="37.416505" lon="-4.40594667">
        <ele>738.0</ele>
        <time>2018-05-29T10:36:04.094Z</time>
      </trkpt>
      <trkpt lat="37.416505" lon="-4.40594667">
        <ele>738.0</ele>
        <time>2018-05-29T10:36:05.061Z</time>
      </trkpt>
      <trkpt lat="37.41648833" lon="-4.40592">
        <ele>738.0</ele>
        <time>2018-05-29T10:36:06.079Z</time>
      </trkpt>
      <trkpt lat="37.41648" lon="-4.40590333">
        <ele>738.0</ele>
        <time>2018-05-29T10:36:07.062Z</time>
      </trkpt>
      <trkpt lat="37.41648" lon="-4.40590333">
        <ele>738.0</ele>
        <time>2018-05-29T10:36:08.068Z</time>
      </trkpt>
      <trkpt lat="37.41646833" lon="-4.40586667">
        <ele>739.0</ele>
        <time>2018-05-29T10:36:09.075Z</time>
      </trkpt>
      <trkpt lat="37.41646833" lon="-4.40586667">
        <ele>739.0</ele>
        <time>2018-05-29T10:36:10.081Z</time>
      </trkpt>
      <trkpt lat="37.41645667" lon="-4.40583">
        <ele>739.0</ele>
        <time>2018-05-29T10:36:11.071Z</time>
      </trkpt>
      <trkpt lat="37.41645333" lon="-4.40581333">
        <ele>740.0</ele>
        <time>2018-05-29T10:36:12.076Z</time>
      </trkpt>
      <trkpt lat="37.41645333" lon="-4.40581333">
        <ele>740.0</ele>
        <time>2018-05-29T10:36:13.082Z</time>
      </trkpt>
      <trkpt lat="37.416445" lon="-4.40578">
        <ele>740.0</ele>
        <time>2018-05-29T10:36:14.072Z</time>
      </trkpt>
      <trkpt lat="37.416445" lon="-4.40578">
        <ele>740.0</ele>
        <time>2018-05-29T10:36:15.077Z</time>
      </trkpt>
      <trkpt lat="37.41643333" lon="-4.40574667">
        <ele>740.0</ele>
        <time>2018-05-29T10:36:16.077Z</time>
      </trkpt>
      <trkpt lat="37.41642833" lon="-4.40572833">
        <ele>741.0</ele>
        <time>2018-05-29T10:36:17.077Z</time>
      </trkpt>
      <trkpt lat="37.41642833" lon="-4.40572833">
        <ele>741.0</ele>
        <time>2018-05-29T10:36:18.090Z</time>
      </trkpt>
      <trkpt lat="37.41641667" lon="-4.40568667">
        <ele>741.0</ele>
        <time>2018-05-29T10:36:19.086Z</time>
      </trkpt>
      <trkpt lat="37.41641167" lon="-4.40567">
        <ele>741.0</ele>
        <time>2018-05-29T10:36:20.075Z</time>
      </trkpt>
      <trkpt lat="37.41641167" lon="-4.40567">
        <ele>741.0</ele>
        <time>2018-05-29T10:36:21.081Z</time>
      </trkpt>
      <trkpt lat="37.4164" lon="-4.40563667">
        <ele>742.0</ele>
        <time>2018-05-29T10:36:22.080Z</time>
      </trkpt>
      <trkpt lat="37.41639167" lon="-4.40562">
        <ele>742.0</ele>
        <time>2018-05-29T10:36:23.078Z</time>
      </trkpt>
      <trkpt lat="37.41639167" lon="-4.40562">
        <ele>742.0</ele>
        <time>2018-05-29T10:36:24.084Z</time>
      </trkpt>
      <trkpt lat="37.41637833" lon="-4.40559">
        <ele>742.0</ele>
        <time>2018-05-29T10:36:25.076Z</time>
      </trkpt>
      <trkpt lat="37.41637833" lon="-4.40559">
        <ele>742.0</ele>
        <time>2018-05-29T10:36:26.085Z</time>
      </trkpt>
      <trkpt lat="37.41636333" lon="-4.40556333">
        <ele>743.0</ele>
        <time>2018-05-29T10:36:27.067Z</time>
      </trkpt>
      <trkpt lat="37.416355" lon="-4.40555">
        <ele>743.0</ele>
        <time>2018-05-29T10:36:28.062Z</time>
      </trkpt>
      <trkpt lat="37.41634667" lon="-4.405535">
        <ele>743.0</ele>
        <time>2018-05-29T10:36:29.089Z</time>
      </trkpt>
      <trkpt lat="37.41634667" lon="-4.405535">
        <ele>743.0</ele>
        <time>2018-05-29T10:36:30.095Z</time>
      </trkpt>
      <trkpt lat="37.41632833" lon="-4.40550333">
        <ele>744.0</ele>
        <time>2018-05-29T10:36:31.092Z</time>
      </trkpt>
      <trkpt lat="37.41632833" lon="-4.40550333">
        <ele>744.0</ele>
        <time>2018-05-29T10:36:32.058Z</time>
      </trkpt>
      <trkpt lat="37.41631167" lon="-4.40547">
        <ele>744.0</ele>
        <time>2018-05-29T10:36:33.079Z</time>
      </trkpt>
      <trkpt lat="37.41631167" lon="-4.40547">
        <ele>744.0</ele>
        <time>2018-05-29T10:36:34.085Z</time>
      </trkpt>
      <trkpt lat="37.416295" lon="-4.405435">
        <ele>744.0</ele>
        <time>2018-05-29T10:36:35.070Z</time>
      </trkpt>
      <trkpt lat="37.416295" lon="-4.405435">
        <ele>744.0</ele>
        <time>2018-05-29T10:36:36.075Z</time>
      </trkpt>
      <trkpt lat="37.416285" lon="-4.40540333">
        <ele>745.0</ele>
        <time>2018-05-29T10:36:37.066Z</time>
      </trkpt>
      <trkpt lat="37.416285" lon="-4.40540333">
        <ele>745.0</ele>
        <time>2018-05-29T10:36:38.075Z</time>
      </trkpt>
      <trkpt lat="37.416275" lon="-4.40537167">
        <ele>745.0</ele>
        <time>2018-05-29T10:36:39.075Z</time>
      </trkpt>
      <trkpt lat="37.416275" lon="-4.40537167">
        <ele>745.0</ele>
        <time>2018-05-29T10:36:40.081Z</time>
      </trkpt>
      <trkpt lat="37.416265" lon="-4.40533333">
        <ele>745.0</ele>
        <time>2018-05-29T10:36:41.074Z</time>
      </trkpt>
      <trkpt lat="37.416265" lon="-4.40533333">
        <ele>745.0</ele>
        <time>2018-05-29T10:36:42.081Z</time>
      </trkpt>
      <trkpt lat="37.41625333" lon="-4.40529333">
        <ele>745.0</ele>
        <time>2018-05-29T10:36:43.076Z</time>
      </trkpt>
      <trkpt lat="37.41625333" lon="-4.40529333">
        <ele>745.0</ele>
        <time>2018-05-29T10:36:44.082Z</time>
      </trkpt>
      <trkpt lat="37.41624" lon="-4.405255">
        <ele>746.0</ele>
        <time>2018-05-29T10:36:45.076Z</time>
      </trkpt>
      <trkpt lat="37.41624" lon="-4.405255">
        <ele>746.0</ele>
        <time>2018-05-29T10:36:46.095Z</time>
      </trkpt>
      <trkpt lat="37.41622333" lon="-4.405215">
        <ele>746.0</ele>
        <time>2018-05-29T10:36:47.084Z</time>
      </trkpt>
      <trkpt lat="37.41622333" lon="-4.405215">
        <ele>746.0</ele>
        <time>2018-05-29T10:36:48.091Z</time>
      </trkpt>
      <trkpt lat="37.41620333" lon="-4.405175">
        <ele>747.0</ele>
        <time>2018-05-29T10:36:49.085Z</time>
      </trkpt>
      <trkpt lat="37.416195" lon="-4.40515667">
        <ele>747.0</ele>
        <time>2018-05-29T10:36:50.086Z</time>
      </trkpt>
      <trkpt lat="37.416195" lon="-4.40515667">
        <ele>747.0</ele>
        <time>2018-05-29T10:36:51.093Z</time>
      </trkpt>
      <trkpt lat="37.41617833" lon="-4.40512167">
        <ele>747.0</ele>
        <time>2018-05-29T10:36:52.076Z</time>
      </trkpt>
      <trkpt lat="37.41617833" lon="-4.40512167">
        <ele>747.0</ele>
        <time>2018-05-29T10:36:53.095Z</time>
      </trkpt>
      <trkpt lat="37.41616333" lon="-4.405085">
        <ele>747.0</ele>
        <time>2018-05-29T10:36:54.060Z</time>
      </trkpt>
      <trkpt lat="37.41616333" lon="-4.405085">
        <ele>747.0</ele>
        <time>2018-05-29T10:36:55.066Z</time>
      </trkpt>
      <trkpt lat="37.41614833" lon="-4.40505167">
        <ele>747.0</ele>
        <time>2018-05-29T10:36:56.056Z</time>
      </trkpt>
      <trkpt lat="37.41614167" lon="-4.405035">
        <ele>748.0</ele>
        <time>2018-05-29T10:36:57.089Z</time>
      </trkpt>
      <trkpt lat="37.41614167" lon="-4.405035">
        <ele>748.0</ele>
        <time>2018-05-29T10:36:58.056Z</time>
      </trkpt>
      <trkpt lat="37.41613667" lon="-4.405">
        <ele>748.0</ele>
        <time>2018-05-29T10:36:59.082Z</time>
      </trkpt>
      <trkpt lat="37.41613667" lon="-4.405">
        <ele>748.0</ele>
        <time>2018-05-29T10:37:00.056Z</time>
      </trkpt>
      <trkpt lat="37.41614" lon="-4.40496">
        <ele>748.0</ele>
        <time>2018-05-29T10:37:01.086Z</time>
      </trkpt>
      <trkpt lat="37.41614" lon="-4.40496">
        <ele>748.0</ele>
        <time>2018-05-29T10:37:02.056Z</time>
      </trkpt>
      <trkpt lat="37.41615333" lon="-4.404925">
        <ele>749.0</ele>
        <time>2018-05-29T10:37:03.083Z</time>
      </trkpt>
      <trkpt lat="37.41615333" lon="-4.404925">
        <ele>749.0</ele>
        <time>2018-05-29T10:37:04.092Z</time>
      </trkpt>
      <trkpt lat="37.41616833" lon="-4.40489333">
        <ele>749.0</ele>
        <time>2018-05-29T10:37:05.080Z</time>
      </trkpt>
      <trkpt lat="37.41616833" lon="-4.40489333">
        <ele>749.0</ele>
        <time>2018-05-29T10:37:06.091Z</time>
      </trkpt>
      <trkpt lat="37.416185" lon="-4.40484667">
        <ele>749.0</ele>
        <time>2018-05-29T10:37:07.084Z</time>
      </trkpt>
      <trkpt lat="37.416185" lon="-4.40484667">
        <ele>749.0</ele>
        <time>2018-05-29T10:37:08.057Z</time>
      </trkpt>
      <trkpt lat="37.41619" lon="-4.404785">
        <ele>749.0</ele>
        <time>2018-05-29T10:37:09.093Z</time>
      </trkpt>
      <trkpt lat="37.41618667" lon="-4.404755">
        <ele>749.0</ele>
        <time>2018-05-29T10:37:10.085Z</time>
      </trkpt>
      <trkpt lat="37.41618667" lon="-4.404755">
        <ele>749.0</ele>
        <time>2018-05-29T10:37:11.093Z</time>
      </trkpt>
      <trkpt lat="37.41616667" lon="-4.40470333">
        <ele>749.0</ele>
        <time>2018-05-29T10:37:12.094Z</time>
      </trkpt>
      <trkpt lat="37.41616667" lon="-4.40470333">
        <ele>749.0</ele>
        <time>2018-05-29T10:37:13.060Z</time>
      </trkpt>
      <trkpt lat="37.41613833" lon="-4.404665">
        <ele>749.0</ele>
        <time>2018-05-29T10:37:14.063Z</time>
      </trkpt>
      <trkpt lat="37.416125" lon="-4.40465">
        <ele>749.0</ele>
        <time>2018-05-29T10:37:15.058Z</time>
      </trkpt>
      <trkpt lat="37.416125" lon="-4.40465">
        <ele>749.0</ele>
        <time>2018-05-29T10:37:16.063Z</time>
      </trkpt>
      <trkpt lat="37.416105" lon="-4.404615">
        <ele>750.0</ele>
        <time>2018-05-29T10:37:17.093Z</time>
      </trkpt>
      <trkpt lat="37.416105" lon="-4.404615">
        <ele>750.0</ele>
        <time>2018-05-29T10:37:18.058Z</time>
      </trkpt>
      <trkpt lat="37.41608667" lon="-4.40457667">
        <ele>750.0</ele>
        <time>2018-05-29T10:37:19.060Z</time>
      </trkpt>
      <trkpt lat="37.41608167" lon="-4.40455667">
        <ele>750.0</ele>
        <time>2018-05-29T10:37:20.078Z</time>
      </trkpt>
      <trkpt lat="37.41608167" lon="-4.40455667">
        <ele>750.0</ele>
        <time>2018-05-29T10:37:21.083Z</time>
      </trkpt>
      <trkpt lat="37.41607" lon="-4.40451">
        <ele>751.0</ele>
        <time>2018-05-29T10:37:22.085Z</time>
      </trkpt>
      <trkpt lat="37.41607" lon="-4.40451">
        <ele>751.0</ele>
        <time>2018-05-29T10:37:23.057Z</time>
      </trkpt>
      <trkpt lat="37.41605667" lon="-4.40446833">
        <ele>751.0</ele>
        <time>2018-05-29T10:37:24.076Z</time>
      </trkpt>
      <trkpt lat="37.41605167" lon="-4.404445">
        <ele>751.0</ele>
        <time>2018-05-29T10:37:25.071Z</time>
      </trkpt>
      <trkpt lat="37.41604667" lon="-4.40442333">
        <ele>751.0</ele>
        <time>2018-05-29T10:37:26.093Z</time>
      </trkpt>
      <trkpt lat="37.41604667" lon="-4.40442333">
        <ele>751.0</ele>
        <time>2018-05-29T10:37:27.059Z</time>
      </trkpt>
      <trkpt lat="37.41603" lon="-4.40438333">
        <ele>752.0</ele>
        <time>2018-05-29T10:37:28.086Z</time>
      </trkpt>
      <trkpt lat="37.41602" lon="-4.404365">
        <ele>752.0</ele>
        <time>2018-05-29T10:37:29.086Z</time>
      </trkpt>
      <trkpt lat="37.41602" lon="-4.404365">
        <ele>752.0</ele>
        <time>2018-05-29T10:37:30.094Z</time>
      </trkpt>
      <trkpt lat="37.41600167" lon="-4.40433">
        <ele>753.0</ele>
        <time>2018-05-29T10:37:31.067Z</time>
      </trkpt>
      <trkpt lat="37.41599333" lon="-4.40431333">
        <ele>753.0</ele>
        <time>2018-05-29T10:37:32.065Z</time>
      </trkpt>
      <trkpt lat="37.41599333" lon="-4.40431333">
        <ele>753.0</ele>
        <time>2018-05-29T10:37:33.071Z</time>
      </trkpt>
      <trkpt lat="37.415975" lon="-4.40428167">
        <ele>753.0</ele>
        <time>2018-05-29T10:37:34.091Z</time>
      </trkpt>
      <trkpt lat="37.415975" lon="-4.40428167">
        <ele>753.0</ele>
        <time>2018-05-29T10:37:35.056Z</time>
      </trkpt>
      <trkpt lat="37.41595667" lon="-4.40424667">
        <ele>754.0</ele>
        <time>2018-05-29T10:37:36.090Z</time>
      </trkpt>
      <trkpt lat="37.41595667" lon="-4.40424667">
        <ele>754.0</ele>
        <time>2018-05-29T10:37:37.056Z</time>
      </trkpt>
      <trkpt lat="37.41594167" lon="-4.40421">
        <ele>754.0</ele>
        <time>2018-05-29T10:37:38.086Z</time>
      </trkpt>
      <trkpt lat="37.415935" lon="-4.40419167">
        <ele>755.0</ele>
        <time>2018-05-29T10:37:39.072Z</time>
      </trkpt>
      <trkpt lat="37.415935" lon="-4.40419167">
        <ele>755.0</ele>
        <time>2018-05-29T10:37:40.077Z</time>
      </trkpt>
      <trkpt lat="37.41591833" lon="-4.404155">
        <ele>755.0</ele>
        <time>2018-05-29T10:37:41.068Z</time>
      </trkpt>
      <trkpt lat="37.41591833" lon="-4.404155">
        <ele>755.0</ele>
        <time>2018-05-29T10:37:42.073Z</time>
      </trkpt>
      <trkpt lat="37.41590333" lon="-4.404115">
        <ele>755.0</ele>
        <time>2018-05-29T10:37:43.079Z</time>
      </trkpt>
      <trkpt lat="37.41590333" lon="-4.404115">
        <ele>755.0</ele>
        <time>2018-05-29T10:37:44.084Z</time>
      </trkpt>
      <trkpt lat="37.41589" lon="-4.40407833">
        <ele>755.0</ele>
        <time>2018-05-29T10:37:45.070Z</time>
      </trkpt>
      <trkpt lat="37.41589" lon="-4.40407833">
        <ele>755.0</ele>
        <time>2018-05-29T10:37:46.076Z</time>
      </trkpt>
      <trkpt lat="37.41588167" lon="-4.40404">
        <ele>756.0</ele>
        <time>2018-05-29T10:37:47.072Z</time>
      </trkpt>
      <trkpt lat="37.41588167" lon="-4.40404">
        <ele>756.0</ele>
        <time>2018-05-29T10:37:48.078Z</time>
      </trkpt>
      <trkpt lat="37.41587333" lon="-4.40399667">
        <ele>756.0</ele>
        <time>2018-05-29T10:37:49.058Z</time>
      </trkpt>
      <trkpt lat="37.41587333" lon="-4.40399667">
        <ele>756.0</ele>
        <time>2018-05-29T10:37:50.063Z</time>
      </trkpt>
      <trkpt lat="37.41586833" lon="-4.40395333">
        <ele>756.0</ele>
        <time>2018-05-29T10:37:51.090Z</time>
      </trkpt>
      <trkpt lat="37.415865" lon="-4.40393167">
        <ele>756.0</ele>
        <time>2018-05-29T10:37:52.086Z</time>
      </trkpt>
      <trkpt lat="37.41586" lon="-4.40391167">
        <ele>757.0</ele>
        <time>2018-05-29T10:37:53.058Z</time>
      </trkpt>
      <trkpt lat="37.41586" lon="-4.40391167">
        <ele>757.0</ele>
        <time>2018-05-29T10:37:54.078Z</time>
      </trkpt>
      <trkpt lat="37.41585" lon="-4.403885">
        <ele>757.0</ele>
        <time>2018-05-29T10:37:55.061Z</time>
      </trkpt>
      <trkpt lat="37.41584167" lon="-4.40387">
        <ele>757.0</ele>
        <time>2018-05-29T10:37:56.084Z</time>
      </trkpt>
      <trkpt lat="37.41584167" lon="-4.40387">
        <ele>757.0</ele>
        <time>2018-05-29T10:37:57.094Z</time>
      </trkpt>
      <trkpt lat="37.41582667" lon="-4.40384">
        <ele>757.0</ele>
        <time>2018-05-29T10:37:58.096Z</time>
      </trkpt>
      <trkpt lat="37.415825" lon="-4.40382167">
        <ele>758.0</ele>
        <time>2018-05-29T10:37:59.071Z</time>
      </trkpt>
      <trkpt lat="37.415825" lon="-4.40382167">
        <ele>758.0</ele>
        <time>2018-05-29T10:38:00.076Z</time>
      </trkpt>
      <trkpt lat="37.41582" lon="-4.403785">
        <ele>758.0</ele>
        <time>2018-05-29T10:38:01.089Z</time>
      </trkpt>
      <trkpt lat="37.41581333" lon="-4.40376833">
        <ele>758.0</ele>
        <time>2018-05-29T10:38:02.070Z</time>
      </trkpt>
      <trkpt lat="37.41581333" lon="-4.40376833">
        <ele>758.0</ele>
        <time>2018-05-29T10:38:03.075Z</time>
      </trkpt>
      <trkpt lat="37.4158" lon="-4.40373833">
        <ele>758.0</ele>
        <time>2018-05-29T10:38:04.062Z</time>
      </trkpt>
      <trkpt lat="37.415795" lon="-4.40372333">
        <ele>758.0</ele>
        <time>2018-05-29T10:38:05.094Z</time>
      </trkpt>
      <trkpt lat="37.415795" lon="-4.40372333">
        <ele>758.0</ele>
        <time>2018-05-29T10:38:06.060Z</time>
      </trkpt>
      <trkpt lat="37.41578167" lon="-4.40369333">
        <ele>759.0</ele>
        <time>2018-05-29T10:38:07.090Z</time>
      </trkpt>
      <trkpt lat="37.415775" lon="-4.40367667">
        <ele>759.0</ele>
        <time>2018-05-29T10:38:08.081Z</time>
      </trkpt>
      <trkpt lat="37.415775" lon="-4.40367667">
        <ele>759.0</ele>
        <time>2018-05-29T10:38:09.089Z</time>
      </trkpt>
      <trkpt lat="37.41576333" lon="-4.40364667">
        <ele>759.0</ele>
        <time>2018-05-29T10:38:10.069Z</time>
      </trkpt>
      <trkpt lat="37.41575833" lon="-4.40363167">
        <ele>759.0</ele>
        <time>2018-05-29T10:38:11.091Z</time>
      </trkpt>
      <trkpt lat="37.41575833" lon="-4.40363167">
        <ele>759.0</ele>
        <time>2018-05-29T10:38:12.058Z</time>
      </trkpt>
      <trkpt lat="37.41574667" lon="-4.40360333">
        <ele>759.0</ele>
        <time>2018-05-29T10:38:13.088Z</time>
      </trkpt>
      <trkpt lat="37.41574667" lon="-4.40360333">
        <ele>759.0</ele>
        <time>2018-05-29T10:38:14.095Z</time>
      </trkpt>
      <trkpt lat="37.41573" lon="-4.40357">
        <ele>760.0</ele>
        <time>2018-05-29T10:38:15.061Z</time>
      </trkpt>
      <trkpt lat="37.41573" lon="-4.40357">
        <ele>760.0</ele>
        <time>2018-05-29T10:38:16.067Z</time>
      </trkpt>
      <trkpt lat="37.41571667" lon="-4.403535">
        <ele>760.0</ele>
        <time>2018-05-29T10:38:17.086Z</time>
      </trkpt>
      <trkpt lat="37.41571667" lon="-4.403535">
        <ele>760.0</ele>
        <time>2018-05-29T10:38:18.094Z</time>
      </trkpt>
      <trkpt lat="37.41570833" lon="-4.40350167">
        <ele>760.0</ele>
        <time>2018-05-29T10:38:19.076Z</time>
      </trkpt>
      <trkpt lat="37.415705" lon="-4.403485">
        <ele>760.0</ele>
        <time>2018-05-29T10:38:20.077Z</time>
      </trkpt>
      <trkpt lat="37.415705" lon="-4.403485">
        <ele>760.0</ele>
        <time>2018-05-29T10:38:21.090Z</time>
      </trkpt>
      <trkpt lat="37.41569667" lon="-4.403445">
        <ele>761.0</ele>
        <time>2018-05-29T10:38:22.068Z</time>
      </trkpt>
      <trkpt lat="37.41569667" lon="-4.403425">
        <ele>761.0</ele>
        <time>2018-05-29T10:38:23.060Z</time>
      </trkpt>
      <trkpt lat="37.41569667" lon="-4.403425">
        <ele>761.0</ele>
        <time>2018-05-29T10:38:24.066Z</time>
      </trkpt>
      <trkpt lat="37.41569167" lon="-4.40338333">
        <ele>761.0</ele>
        <time>2018-05-29T10:38:25.090Z</time>
      </trkpt>
      <trkpt lat="37.41569167" lon="-4.40338333">
        <ele>761.0</ele>
        <time>2018-05-29T10:38:26.057Z</time>
      </trkpt>
      <trkpt lat="37.415685" lon="-4.403345">
        <ele>762.0</ele>
        <time>2018-05-29T10:38:27.085Z</time>
      </trkpt>
      <trkpt lat="37.41568167" lon="-4.40332833">
        <ele>762.0</ele>
        <time>2018-05-29T10:38:28.073Z</time>
      </trkpt>
      <trkpt lat="37.41568167" lon="-4.40332833">
        <ele>762.0</ele>
        <time>2018-05-29T10:38:29.079Z</time>
      </trkpt>
      <trkpt lat="37.41567" lon="-4.40329333">
        <ele>762.0</ele>
        <time>2018-05-29T10:38:30.071Z</time>
      </trkpt>
      <trkpt lat="37.41567" lon="-4.40329333">
        <ele>762.0</ele>
        <time>2018-05-29T10:38:31.076Z</time>
      </trkpt>
      <trkpt lat="37.41565667" lon="-4.40326167">
        <ele>763.0</ele>
        <time>2018-05-29T10:38:32.075Z</time>
      </trkpt>
      <trkpt lat="37.41565667" lon="-4.40326167">
        <ele>763.0</ele>
        <time>2018-05-29T10:38:33.081Z</time>
      </trkpt>
      <trkpt lat="37.41564" lon="-4.40322833">
        <ele>763.0</ele>
        <time>2018-05-29T10:38:34.066Z</time>
      </trkpt>
      <trkpt lat="37.41563167" lon="-4.40321167">
        <ele>763.0</ele>
        <time>2018-05-29T10:38:35.064Z</time>
      </trkpt>
      <trkpt lat="37.41563167" lon="-4.40321167">
        <ele>763.0</ele>
        <time>2018-05-29T10:38:36.093Z</time>
      </trkpt>
      <trkpt lat="37.41561667" lon="-4.40317667">
        <ele>763.0</ele>
        <time>2018-05-29T10:38:37.094Z</time>
      </trkpt>
      <trkpt lat="37.41561667" lon="-4.40317667">
        <ele>763.0</ele>
        <time>2018-05-29T10:38:38.059Z</time>
      </trkpt>
      <trkpt lat="37.415605" lon="-4.40313667">
        <ele>763.0</ele>
        <time>2018-05-29T10:38:39.058Z</time>
      </trkpt>
      <trkpt lat="37.41560167" lon="-4.403115">
        <ele>764.0</ele>
        <time>2018-05-29T10:38:40.080Z</time>
      </trkpt>
      <trkpt lat="37.41559833" lon="-4.40309333">
        <ele>764.0</ele>
        <time>2018-05-29T10:38:41.059Z</time>
      </trkpt>
      <trkpt lat="37.41559833" lon="-4.40309333">
        <ele>764.0</ele>
        <time>2018-05-29T10:38:42.064Z</time>
      </trkpt>
      <trkpt lat="37.41559333" lon="-4.40305167">
        <ele>764.0</ele>
        <time>2018-05-29T10:38:43.092Z</time>
      </trkpt>
      <trkpt lat="37.41559333" lon="-4.40305167">
        <ele>764.0</ele>
        <time>2018-05-29T10:38:44.058Z</time>
      </trkpt>
      <trkpt lat="37.41558333" lon="-4.40301167">
        <ele>764.0</ele>
        <time>2018-05-29T10:38:45.082Z</time>
      </trkpt>
      <trkpt lat="37.41557833" lon="-4.40299333">
        <ele>765.0</ele>
        <time>2018-05-29T10:38:46.080Z</time>
      </trkpt>
      <trkpt lat="37.41557333" lon="-4.402975">
        <ele>765.0</ele>
        <time>2018-05-29T10:38:47.063Z</time>
      </trkpt>
      <trkpt lat="37.41557333" lon="-4.402975">
        <ele>765.0</ele>
        <time>2018-05-29T10:38:48.069Z</time>
      </trkpt>
      <trkpt lat="37.415565" lon="-4.40293667">
        <ele>765.0</ele>
        <time>2018-05-29T10:38:49.062Z</time>
      </trkpt>
      <trkpt lat="37.41555833" lon="-4.402915">
        <ele>765.0</ele>
        <time>2018-05-29T10:38:50.090Z</time>
      </trkpt>
      <trkpt lat="37.41555833" lon="-4.402915">
        <ele>765.0</ele>
        <time>2018-05-29T10:38:51.056Z</time>
      </trkpt>
      <trkpt lat="37.41555" lon="-4.40286833">
        <ele>765.0</ele>
        <time>2018-05-29T10:38:52.086Z</time>
      </trkpt>
      <trkpt lat="37.415545" lon="-4.40284833">
        <ele>765.0</ele>
        <time>2018-05-29T10:38:53.093Z</time>
      </trkpt>
      <trkpt lat="37.415545" lon="-4.40284833">
        <ele>765.0</ele>
        <time>2018-05-29T10:38:54.089Z</time>
      </trkpt>
      <trkpt lat="37.41553833" lon="-4.402815">
        <ele>766.0</ele>
        <time>2018-05-29T10:38:55.078Z</time>
      </trkpt>
      <trkpt lat="37.41553833" lon="-4.402815">
        <ele>766.0</ele>
        <time>2018-05-29T10:38:56.085Z</time>
      </trkpt>
      <trkpt lat="37.41552833" lon="-4.40277667">
        <ele>766.0</ele>
        <time>2018-05-29T10:38:57.080Z</time>
      </trkpt>
      <trkpt lat="37.41552833" lon="-4.40277667">
        <ele>766.0</ele>
        <time>2018-05-29T10:38:58.086Z</time>
      </trkpt>
      <trkpt lat="37.41551833" lon="-4.40273">
        <ele>766.0</ele>
        <time>2018-05-29T10:38:59.075Z</time>
      </trkpt>
      <trkpt lat="37.41551833" lon="-4.40273">
        <ele>766.0</ele>
        <time>2018-05-29T10:39:00.082Z</time>
      </trkpt>
      <trkpt lat="37.41551167" lon="-4.40268">
        <ele>767.0</ele>
        <time>2018-05-29T10:39:01.081Z</time>
      </trkpt>
      <trkpt lat="37.41551167" lon="-4.40268">
        <ele>767.0</ele>
        <time>2018-05-29T10:39:02.086Z</time>
      </trkpt>
      <trkpt lat="37.4155" lon="-4.40263333">
        <ele>767.0</ele>
        <time>2018-05-29T10:39:03.072Z</time>
      </trkpt>
      <trkpt lat="37.4155" lon="-4.40263333">
        <ele>767.0</ele>
        <time>2018-05-29T10:39:04.078Z</time>
      </trkpt>
      <trkpt lat="37.41549" lon="-4.40258833">
        <ele>767.0</ele>
        <time>2018-05-29T10:39:05.084Z</time>
      </trkpt>
      <trkpt lat="37.41549" lon="-4.40258833">
        <ele>767.0</ele>
        <time>2018-05-29T10:39:06.093Z</time>
      </trkpt>
      <trkpt lat="37.41548167" lon="-4.40254667">
        <ele>767.0</ele>
        <time>2018-05-29T10:39:07.079Z</time>
      </trkpt>
      <trkpt lat="37.41548167" lon="-4.40254667">
        <ele>767.0</ele>
        <time>2018-05-29T10:39:08.084Z</time>
      </trkpt>
      <trkpt lat="37.415475" lon="-4.40250167">
        <ele>767.0</ele>
        <time>2018-05-29T10:39:09.083Z</time>
      </trkpt>
      <trkpt lat="37.415475" lon="-4.40250167">
        <ele>767.0</ele>
        <time>2018-05-29T10:39:10.094Z</time>
      </trkpt>
      <trkpt lat="37.41547" lon="-4.40245333">
        <ele>767.0</ele>
        <time>2018-05-29T10:39:11.088Z</time>
      </trkpt>
      <trkpt lat="37.41547" lon="-4.40245333">
        <ele>767.0</ele>
        <time>2018-05-29T10:39:12.094Z</time>
      </trkpt>
      <trkpt lat="37.41546333" lon="-4.40240167">
        <ele>767.0</ele>
        <time>2018-05-29T10:39:13.057Z</time>
      </trkpt>
      <trkpt lat="37.41546167" lon="-4.402375">
        <ele>767.0</ele>
        <time>2018-05-29T10:39:14.086Z</time>
      </trkpt>
      <trkpt lat="37.41546167" lon="-4.402375">
        <ele>767.0</ele>
        <time>2018-05-29T10:39:15.093Z</time>
      </trkpt>
      <trkpt lat="37.415455" lon="-4.40232167">
        <ele>768.0</ele>
        <time>2018-05-29T10:39:16.085Z</time>
      </trkpt>
      <trkpt lat="37.41545167" lon="-4.40229667">
        <ele>768.0</ele>
        <time>2018-05-29T10:39:17.089Z</time>
      </trkpt>
      <trkpt lat="37.41545167" lon="-4.40229667">
        <ele>768.0</ele>
        <time>2018-05-29T10:39:18.095Z</time>
      </trkpt>
      <trkpt lat="37.415445" lon="-4.402245">
        <ele>768.0</ele>
        <time>2018-05-29T10:39:19.083Z</time>
      </trkpt>
      <trkpt lat="37.415445" lon="-4.402245">
        <ele>768.0</ele>
        <time>2018-05-29T10:39:20.094Z</time>
      </trkpt>
      <trkpt lat="37.41544" lon="-4.402195">
        <ele>768.0</ele>
        <time>2018-05-29T10:39:21.061Z</time>
      </trkpt>
      <trkpt lat="37.41544" lon="-4.402195">
        <ele>768.0</ele>
        <time>2018-05-29T10:39:22.067Z</time>
      </trkpt>
      <trkpt lat="37.41543667" lon="-4.40214">
        <ele>768.0</ele>
        <time>2018-05-29T10:39:23.056Z</time>
      </trkpt>
      <trkpt lat="37.41543667" lon="-4.40214">
        <ele>768.0</ele>
        <time>2018-05-29T10:39:24.063Z</time>
      </trkpt>
      <trkpt lat="37.41543167" lon="-4.40208833">
        <ele>768.0</ele>
        <time>2018-05-29T10:39:25.071Z</time>
      </trkpt>
      <trkpt lat="37.41543" lon="-4.40206167">
        <ele>768.0</ele>
        <time>2018-05-29T10:39:26.067Z</time>
      </trkpt>
      <trkpt lat="37.41543" lon="-4.40206167">
        <ele>768.0</ele>
        <time>2018-05-29T10:39:27.074Z</time>
      </trkpt>
      <trkpt lat="37.41542" lon="-4.40200833">
        <ele>768.0</ele>
        <time>2018-05-29T10:39:28.066Z</time>
      </trkpt>
      <trkpt lat="37.41541" lon="-4.401985">
        <ele>768.0</ele>
        <time>2018-05-29T10:39:29.092Z</time>
      </trkpt>
      <trkpt lat="37.41541" lon="-4.401985">
        <ele>768.0</ele>
        <time>2018-05-29T10:39:30.058Z</time>
      </trkpt>
      <trkpt lat="37.41539" lon="-4.40193667">
        <ele>768.0</ele>
        <time>2018-05-29T10:39:31.082Z</time>
      </trkpt>
      <trkpt lat="37.41539" lon="-4.40193667">
        <ele>768.0</ele>
        <time>2018-05-29T10:39:32.093Z</time>
      </trkpt>
      <trkpt lat="37.415365" lon="-4.40187667">
        <ele>768.0</ele>
        <time>2018-05-29T10:39:33.080Z</time>
      </trkpt>
      <trkpt lat="37.415365" lon="-4.40187667">
        <ele>768.0</ele>
        <time>2018-05-29T10:39:34.086Z</time>
      </trkpt>
      <trkpt lat="37.415335" lon="-4.40181">
        <ele>768.0</ele>
        <time>2018-05-29T10:39:35.088Z</time>
      </trkpt>
      <trkpt lat="37.415335" lon="-4.40181">
        <ele>768.0</ele>
        <time>2018-05-29T10:39:36.094Z</time>
      </trkpt>
      <trkpt lat="37.41531" lon="-4.40175333">
        <ele>768.0</ele>
        <time>2018-05-29T10:39:37.082Z</time>
      </trkpt>
      <trkpt lat="37.41530167" lon="-4.401725">
        <ele>768.0</ele>
        <time>2018-05-29T10:39:38.067Z</time>
      </trkpt>
      <trkpt lat="37.41530167" lon="-4.401725">
        <ele>768.0</ele>
        <time>2018-05-29T10:39:39.073Z</time>
      </trkpt>
      <trkpt lat="37.41528833" lon="-4.401665">
        <ele>768.0</ele>
        <time>2018-05-29T10:39:40.070Z</time>
      </trkpt>
      <trkpt lat="37.41528333" lon="-4.401635">
        <ele>768.0</ele>
        <time>2018-05-29T10:39:41.072Z</time>
      </trkpt>
      <trkpt lat="37.41528333" lon="-4.401635">
        <ele>768.0</ele>
        <time>2018-05-29T10:39:42.079Z</time>
      </trkpt>
      <trkpt lat="37.41528" lon="-4.401575">
        <ele>768.0</ele>
        <time>2018-05-29T10:39:43.069Z</time>
      </trkpt>
      <trkpt lat="37.41528" lon="-4.401575">
        <ele>768.0</ele>
        <time>2018-05-29T10:39:44.074Z</time>
      </trkpt>
      <trkpt lat="37.41527" lon="-4.40151">
        <ele>768.0</ele>
        <time>2018-05-29T10:39:45.061Z</time>
      </trkpt>
      <trkpt lat="37.41527" lon="-4.40151">
        <ele>768.0</ele>
        <time>2018-05-29T10:39:46.068Z</time>
      </trkpt>
      <trkpt lat="37.41526" lon="-4.40144333">
        <ele>768.0</ele>
        <time>2018-05-29T10:39:47.077Z</time>
      </trkpt>
      <trkpt lat="37.41526" lon="-4.40144333">
        <ele>768.0</ele>
        <time>2018-05-29T10:39:48.070Z</time>
      </trkpt>
      <trkpt lat="37.41525" lon="-4.40137833">
        <ele>768.0</ele>
        <time>2018-05-29T10:39:49.066Z</time>
      </trkpt>
      <trkpt lat="37.41525" lon="-4.40137833">
        <ele>768.0</ele>
        <time>2018-05-29T10:39:50.073Z</time>
      </trkpt>
      <trkpt lat="37.41524833" lon="-4.40132">
        <ele>769.0</ele>
        <time>2018-05-29T10:39:51.094Z</time>
      </trkpt>
      <trkpt lat="37.41524833" lon="-4.40132">
        <ele>769.0</ele>
        <time>2018-05-29T10:39:52.061Z</time>
      </trkpt>
      <trkpt lat="37.41524667" lon="-4.40127">
        <ele>769.0</ele>
        <time>2018-05-29T10:39:53.063Z</time>
      </trkpt>
      <trkpt lat="37.41524833" lon="-4.40124833">
        <ele>769.0</ele>
        <time>2018-05-29T10:39:54.072Z</time>
      </trkpt>
      <trkpt lat="37.41524833" lon="-4.40124833">
        <ele>769.0</ele>
        <time>2018-05-29T10:39:55.078Z</time>
      </trkpt>
      <trkpt lat="37.415255" lon="-4.4012">
        <ele>769.0</ele>
        <time>2018-05-29T10:39:56.065Z</time>
      </trkpt>
      <trkpt lat="37.415255" lon="-4.4012">
        <ele>769.0</ele>
        <time>2018-05-29T10:39:57.072Z</time>
      </trkpt>
      <trkpt lat="37.41526" lon="-4.40113833">
        <ele>769.0</ele>
        <time>2018-05-29T10:39:58.094Z</time>
      </trkpt>
      <trkpt lat="37.41525833" lon="-4.401105">
        <ele>769.0</ele>
        <time>2018-05-29T10:39:59.080Z</time>
      </trkpt>
      <trkpt lat="37.41525833" lon="-4.401105">
        <ele>769.0</ele>
        <time>2018-05-29T10:40:00.085Z</time>
      </trkpt>
      <trkpt lat="37.41524667" lon="-4.40104">
        <ele>769.0</ele>
        <time>2018-05-29T10:40:01.086Z</time>
      </trkpt>
      <trkpt lat="37.41524667" lon="-4.40104">
        <ele>769.0</ele>
        <time>2018-05-29T10:40:02.095Z</time>
      </trkpt>
      <trkpt lat="37.41522833" lon="-4.40097833">
        <ele>769.0</ele>
        <time>2018-05-29T10:40:03.088Z</time>
      </trkpt>
      <trkpt lat="37.41522833" lon="-4.40097833">
        <ele>769.0</ele>
        <time>2018-05-29T10:40:04.094Z</time>
      </trkpt>
      <trkpt lat="37.41522" lon="-4.40091333">
        <ele>770.0</ele>
        <time>2018-05-29T10:40:05.082Z</time>
      </trkpt>
      <trkpt lat="37.41522" lon="-4.40088167">
        <ele>770.0</ele>
        <time>2018-05-29T10:40:06.088Z</time>
      </trkpt>
      <trkpt lat="37.41522" lon="-4.40088167">
        <ele>770.0</ele>
        <time>2018-05-29T10:40:07.095Z</time>
      </trkpt>
      <trkpt lat="37.41523" lon="-4.40082167">
        <ele>770.0</ele>
        <time>2018-05-29T10:40:08.082Z</time>
      </trkpt>
      <trkpt lat="37.41523" lon="-4.40082167">
        <ele>770.0</ele>
        <time>2018-05-29T10:40:09.094Z</time>
      </trkpt>
      <trkpt lat="37.415255" lon="-4.40077">
        <ele>770.0</ele>
        <time>2018-05-29T10:40:10.077Z</time>
      </trkpt>
      <trkpt lat="37.41527" lon="-4.40074667">
        <ele>770.0</ele>
        <time>2018-05-29T10:40:11.086Z</time>
      </trkpt>
      <trkpt lat="37.41527" lon="-4.40074667">
        <ele>770.0</ele>
        <time>2018-05-29T10:40:12.094Z</time>
      </trkpt>
      <trkpt lat="37.41529667" lon="-4.40069333">
        <ele>770.0</ele>
        <time>2018-05-29T10:40:13.083Z</time>
      </trkpt>
      <trkpt lat="37.41529667" lon="-4.40069333">
        <ele>770.0</ele>
        <time>2018-05-29T10:40:14.090Z</time>
      </trkpt>
      <trkpt lat="37.41529333" lon="-4.40063167">
        <ele>770.0</ele>
        <time>2018-05-29T10:40:15.081Z</time>
      </trkpt>
      <trkpt lat="37.41529333" lon="-4.40063167">
        <ele>770.0</ele>
        <time>2018-05-29T10:40:16.086Z</time>
      </trkpt>
      <trkpt lat="37.41526667" lon="-4.40058167">
        <ele>770.0</ele>
        <time>2018-05-29T10:40:17.092Z</time>
      </trkpt>
      <trkpt lat="37.41526667" lon="-4.40058167">
        <ele>770.0</ele>
        <time>2018-05-29T10:40:18.058Z</time>
      </trkpt>
      <trkpt lat="37.41523667" lon="-4.400535">
        <ele>770.0</ele>
        <time>2018-05-29T10:40:19.078Z</time>
      </trkpt>
      <trkpt lat="37.41523667" lon="-4.400535">
        <ele>770.0</ele>
        <time>2018-05-29T10:40:20.059Z</time>
      </trkpt>
      <trkpt lat="37.41522167" lon="-4.40047167">
        <ele>770.0</ele>
        <time>2018-05-29T10:40:21.089Z</time>
      </trkpt>
      <trkpt lat="37.41522167" lon="-4.40047167">
        <ele>770.0</ele>
        <time>2018-05-29T10:40:22.056Z</time>
      </trkpt>
      <trkpt lat="37.41522167" lon="-4.40041">
        <ele>770.0</ele>
        <time>2018-05-29T10:40:23.086Z</time>
      </trkpt>
      <trkpt lat="37.41522667" lon="-4.400375">
        <ele>770.0</ele>
        <time>2018-05-29T10:40:24.067Z</time>
      </trkpt>
      <trkpt lat="37.41522667" lon="-4.400375">
        <ele>770.0</ele>
        <time>2018-05-29T10:40:25.073Z</time>
      </trkpt>
      <trkpt lat="37.41524333" lon="-4.40031">
        <ele>770.0</ele>
        <time>2018-05-29T10:40:26.061Z</time>
      </trkpt>
      <trkpt lat="37.41524333" lon="-4.40031">
        <ele>770.0</ele>
        <time>2018-05-29T10:40:27.068Z</time>
      </trkpt>
      <trkpt lat="37.41524833" lon="-4.40025167">
        <ele>771.0</ele>
        <time>2018-05-29T10:40:28.095Z</time>
      </trkpt>
      <trkpt lat="37.415245" lon="-4.40022333">
        <ele>771.0</ele>
        <time>2018-05-29T10:40:29.085Z</time>
      </trkpt>
      <trkpt lat="37.415245" lon="-4.40022333">
        <ele>771.0</ele>
        <time>2018-05-29T10:40:30.094Z</time>
      </trkpt>
      <trkpt lat="37.41523333" lon="-4.40017667">
        <ele>771.0</ele>
        <time>2018-05-29T10:40:31.080Z</time>
      </trkpt>
      <trkpt lat="37.41523333" lon="-4.40017667">
        <ele>771.0</ele>
        <time>2018-05-29T10:40:32.085Z</time>
      </trkpt>
      <trkpt lat="37.41522333" lon="-4.40013167">
        <ele>771.0</ele>
        <time>2018-05-29T10:40:33.066Z</time>
      </trkpt>
      <trkpt lat="37.41522333" lon="-4.40013167">
        <ele>771.0</ele>
        <time>2018-05-29T10:40:34.073Z</time>
      </trkpt>
      <trkpt lat="37.415215" lon="-4.40008333">
        <ele>771.0</ele>
        <time>2018-05-29T10:40:35.062Z</time>
      </trkpt>
      <trkpt lat="37.415215" lon="-4.40008333">
        <ele>771.0</ele>
        <time>2018-05-29T10:40:36.068Z</time>
      </trkpt>
      <trkpt lat="37.41519833" lon="-4.40003333">
        <ele>771.0</ele>
        <time>2018-05-29T10:40:37.096Z</time>
      </trkpt>
      <trkpt lat="37.41519833" lon="-4.40003333">
        <ele>771.0</ele>
        <time>2018-05-29T10:40:38.061Z</time>
      </trkpt>
      <trkpt lat="37.415175" lon="-4.39997667">
        <ele>771.0</ele>
        <time>2018-05-29T10:40:39.088Z</time>
      </trkpt>
      <trkpt lat="37.415175" lon="-4.39997667">
        <ele>771.0</ele>
        <time>2018-05-29T10:40:40.095Z</time>
      </trkpt>
      <trkpt lat="37.415155" lon="-4.399915">
        <ele>771.0</ele>
        <time>2018-05-29T10:40:41.086Z</time>
      </trkpt>
      <trkpt lat="37.415155" lon="-4.399915">
        <ele>771.0</ele>
        <time>2018-05-29T10:40:42.094Z</time>
      </trkpt>
      <trkpt lat="37.415125" lon="-4.39985">
        <ele>770.0</ele>
        <time>2018-05-29T10:40:43.089Z</time>
      </trkpt>
      <trkpt lat="37.415125" lon="-4.39985">
        <ele>770.0</ele>
        <time>2018-05-29T10:40:44.095Z</time>
      </trkpt>
      <trkpt lat="37.41508167" lon="-4.399815">
        <ele>770.0</ele>
        <time>2018-05-29T10:40:45.062Z</time>
      </trkpt>
      <trkpt lat="37.41508167" lon="-4.399815">
        <ele>770.0</ele>
        <time>2018-05-29T10:40:46.067Z</time>
      </trkpt>
      <trkpt lat="37.41504167" lon="-4.39977667">
        <ele>769.0</ele>
        <time>2018-05-29T10:40:47.066Z</time>
      </trkpt>
      <trkpt lat="37.41504167" lon="-4.39977667">
        <ele>769.0</ele>
        <time>2018-05-29T10:40:48.071Z</time>
      </trkpt>
      <trkpt lat="37.414995" lon="-4.39973333">
        <ele>769.0</ele>
        <time>2018-05-29T10:40:49.070Z</time>
      </trkpt>
      <trkpt lat="37.414995" lon="-4.39973333">
        <ele>769.0</ele>
        <time>2018-05-29T10:40:50.073Z</time>
      </trkpt>
      <trkpt lat="37.41492833" lon="-4.39969333">
        <ele>769.0</ele>
        <time>2018-05-29T10:40:51.074Z</time>
      </trkpt>
      <trkpt lat="37.41492833" lon="-4.39969333">
        <ele>769.0</ele>
        <time>2018-05-29T10:40:52.080Z</time>
      </trkpt>
      <trkpt lat="37.41487667" lon="-4.39969167">
        <ele>769.0</ele>
        <time>2018-05-29T10:40:53.086Z</time>
      </trkpt>
      <trkpt lat="37.41487667" lon="-4.39969167">
        <ele>769.0</ele>
        <time>2018-05-29T10:40:54.069Z</time>
      </trkpt>
      <trkpt lat="37.41483667" lon="-4.39969833">
        <ele>769.0</ele>
        <time>2018-05-29T10:40:55.072Z</time>
      </trkpt>
      <trkpt lat="37.41483667" lon="-4.39969833">
        <ele>769.0</ele>
        <time>2018-05-29T10:40:56.077Z</time>
      </trkpt>
      <trkpt lat="37.41478667" lon="-4.39971167">
        <ele>768.0</ele>
        <time>2018-05-29T10:40:57.076Z</time>
      </trkpt>
      <trkpt lat="37.41476833" lon="-4.39971833">
        <ele>768.0</ele>
        <time>2018-05-29T10:40:58.076Z</time>
      </trkpt>
      <trkpt lat="37.414755" lon="-4.39972833">
        <ele>768.0</ele>
        <time>2018-05-29T10:40:59.069Z</time>
      </trkpt>
      <trkpt lat="37.414755" lon="-4.39972833">
        <ele>768.0</ele>
        <time>2018-05-29T10:41:00.075Z</time>
      </trkpt>
      <trkpt lat="37.414735" lon="-4.39975167">
        <ele>767.0</ele>
        <time>2018-05-29T10:41:01.068Z</time>
      </trkpt>
      <trkpt lat="37.414735" lon="-4.39975167">
        <ele>767.0</ele>
        <time>2018-05-29T10:41:02.074Z</time>
      </trkpt>
      <trkpt lat="37.41470667" lon="-4.39976167">
        <ele>767.0</ele>
        <time>2018-05-29T10:41:03.058Z</time>
      </trkpt>
      <trkpt lat="37.41470667" lon="-4.39976167">
        <ele>767.0</ele>
        <time>2018-05-29T10:41:04.064Z</time>
      </trkpt>
      <trkpt lat="37.41467167" lon="-4.39975833">
        <ele>767.0</ele>
        <time>2018-05-29T10:41:05.082Z</time>
      </trkpt>
      <trkpt lat="37.41467167" lon="-4.39975833">
        <ele>767.0</ele>
        <time>2018-05-29T10:41:06.070Z</time>
      </trkpt>
      <trkpt lat="37.41462667" lon="-4.39976167">
        <ele>767.0</ele>
        <time>2018-05-29T10:41:07.057Z</time>
      </trkpt>
      <trkpt lat="37.41462667" lon="-4.39976167">
        <ele>767.0</ele>
        <time>2018-05-29T10:41:08.064Z</time>
      </trkpt>
      <trkpt lat="37.41457833" lon="-4.39979167">
        <ele>767.0</ele>
        <time>2018-05-29T10:41:09.075Z</time>
      </trkpt>
      <trkpt lat="37.41457833" lon="-4.39979167">
        <ele>767.0</ele>
        <time>2018-05-29T10:41:10.082Z</time>
      </trkpt>
      <trkpt lat="37.41453667" lon="-4.39984">
        <ele>767.0</ele>
        <time>2018-05-29T10:41:11.076Z</time>
      </trkpt>
      <trkpt lat="37.41453667" lon="-4.39984">
        <ele>767.0</ele>
        <time>2018-05-29T10:41:12.064Z</time>
      </trkpt>
      <trkpt lat="37.414495" lon="-4.39989833">
        <ele>766.0</ele>
        <time>2018-05-29T10:41:13.087Z</time>
      </trkpt>
      <trkpt lat="37.414495" lon="-4.39989833">
        <ele>766.0</ele>
        <time>2018-05-29T10:41:14.092Z</time>
      </trkpt>
      <trkpt lat="37.41444833" lon="-4.399965">
        <ele>765.0</ele>
        <time>2018-05-29T10:41:15.060Z</time>
      </trkpt>
      <trkpt lat="37.41444833" lon="-4.399965">
        <ele>765.0</ele>
        <time>2018-05-29T10:41:16.066Z</time>
      </trkpt>
      <trkpt lat="37.41437" lon="-4.40003">
        <ele>764.0</ele>
        <time>2018-05-29T10:41:17.087Z</time>
      </trkpt>
      <trkpt lat="37.41437" lon="-4.40003">
        <ele>764.0</ele>
        <time>2018-05-29T10:41:18.092Z</time>
      </trkpt>
      <trkpt lat="37.41427667" lon="-4.40007">
        <ele>764.0</ele>
        <time>2018-05-29T10:41:19.065Z</time>
      </trkpt>
      <trkpt lat="37.41423333" lon="-4.40008">
        <ele>764.0</ele>
        <time>2018-05-29T10:41:20.094Z</time>
      </trkpt>
      <trkpt lat="37.41423333" lon="-4.40008">
        <ele>764.0</ele>
        <time>2018-05-29T10:41:21.060Z</time>
      </trkpt>
      <trkpt lat="37.41416333" lon="-4.40009667">
        <ele>763.0</ele>
        <time>2018-05-29T10:41:22.068Z</time>
      </trkpt>
      <trkpt lat="37.41416333" lon="-4.40009667">
        <ele>763.0</ele>
        <time>2018-05-29T10:41:23.073Z</time>
      </trkpt>
      <trkpt lat="37.41411667" lon="-4.4001">
        <ele>764.0</ele>
        <time>2018-05-29T10:41:24.094Z</time>
      </trkpt>
      <trkpt lat="37.41411667" lon="-4.4001">
        <ele>764.0</ele>
        <time>2018-05-29T10:41:25.070Z</time>
      </trkpt>
      <trkpt lat="37.41408667" lon="-4.40010167">
        <ele>764.0</ele>
        <time>2018-05-29T10:41:26.079Z</time>
      </trkpt>
      <trkpt lat="37.41408667" lon="-4.40010167">
        <ele>764.0</ele>
        <time>2018-05-29T10:41:27.084Z</time>
      </trkpt>
      <trkpt lat="37.41405667" lon="-4.40010667">
        <ele>764.0</ele>
        <time>2018-05-29T10:41:28.063Z</time>
      </trkpt>
      <trkpt lat="37.41404167" lon="-4.40011167">
        <ele>765.0</ele>
        <time>2018-05-29T10:41:29.096Z</time>
      </trkpt>
      <trkpt lat="37.41404167" lon="-4.40011167">
        <ele>765.0</ele>
        <time>2018-05-29T10:41:30.061Z</time>
      </trkpt>
      <trkpt lat="37.41401333" lon="-4.400125">
        <ele>765.0</ele>
        <time>2018-05-29T10:41:31.077Z</time>
      </trkpt>
      <trkpt lat="37.41401333" lon="-4.400125">
        <ele>765.0</ele>
        <time>2018-05-29T10:41:32.083Z</time>
      </trkpt>
      <trkpt lat="37.41398333" lon="-4.40013167">
        <ele>766.0</ele>
        <time>2018-05-29T10:41:33.084Z</time>
      </trkpt>
      <trkpt lat="37.41398333" lon="-4.40013167">
        <ele>766.0</ele>
        <time>2018-05-29T10:41:34.093Z</time>
      </trkpt>
      <trkpt lat="37.41395667" lon="-4.40013">
        <ele>766.0</ele>
        <time>2018-05-29T10:41:35.059Z</time>
      </trkpt>
      <trkpt lat="37.41395667" lon="-4.40013">
        <ele>766.0</ele>
        <time>2018-05-29T10:41:36.073Z</time>
      </trkpt>
      <trkpt lat="37.41391833" lon="-4.40012333">
        <ele>767.0</ele>
        <time>2018-05-29T10:41:37.086Z</time>
      </trkpt>
      <trkpt lat="37.41391833" lon="-4.40012333">
        <ele>767.0</ele>
        <time>2018-05-29T10:41:38.094Z</time>
      </trkpt>
      <trkpt lat="37.41388" lon="-4.40012333">
        <ele>767.0</ele>
        <time>2018-05-29T10:41:39.063Z</time>
      </trkpt>
      <trkpt lat="37.41388" lon="-4.40012333">
        <ele>767.0</ele>
        <time>2018-05-29T10:41:40.073Z</time>
      </trkpt>
      <trkpt lat="37.41384667" lon="-4.40012">
        <ele>768.0</ele>
        <time>2018-05-29T10:41:41.090Z</time>
      </trkpt>
      <trkpt lat="37.41384667" lon="-4.40012">
        <ele>768.0</ele>
        <time>2018-05-29T10:41:42.056Z</time>
      </trkpt>
      <trkpt lat="37.41381" lon="-4.40011833">
        <ele>768.0</ele>
        <time>2018-05-29T10:41:43.062Z</time>
      </trkpt>
      <trkpt lat="37.41379" lon="-4.400115">
        <ele>768.0</ele>
        <time>2018-05-29T10:41:44.089Z</time>
      </trkpt>
      <trkpt lat="37.41379" lon="-4.400115">
        <ele>768.0</ele>
        <time>2018-05-29T10:41:45.095Z</time>
      </trkpt>
      <trkpt lat="37.41375833" lon="-4.400105">
        <ele>768.0</ele>
        <time>2018-05-29T10:41:46.067Z</time>
      </trkpt>
      <trkpt lat="37.41374333" lon="-4.4001">
        <ele>768.0</ele>
        <time>2018-05-29T10:41:47.076Z</time>
      </trkpt>
      <trkpt lat="37.41374333" lon="-4.4001">
        <ele>768.0</ele>
        <time>2018-05-29T10:41:48.082Z</time>
      </trkpt>
      <trkpt lat="37.41371333" lon="-4.40008833">
        <ele>767.0</ele>
        <time>2018-05-29T10:41:49.057Z</time>
      </trkpt>
      <trkpt lat="37.41369833" lon="-4.40008167">
        <ele>767.0</ele>
        <time>2018-05-29T10:41:50.058Z</time>
      </trkpt>
      <trkpt lat="37.41369833" lon="-4.40008167">
        <ele>767.0</ele>
        <time>2018-05-29T10:41:51.064Z</time>
      </trkpt>
      <trkpt lat="37.41366667" lon="-4.40006667">
        <ele>767.0</ele>
        <time>2018-05-29T10:41:52.076Z</time>
      </trkpt>
      <trkpt lat="37.41366667" lon="-4.40006667">
        <ele>767.0</ele>
        <time>2018-05-29T10:41:53.094Z</time>
      </trkpt>
      <trkpt lat="37.413635" lon="-4.40005333">
        <ele>767.0</ele>
        <time>2018-05-29T10:41:54.087Z</time>
      </trkpt>
      <trkpt lat="37.413635" lon="-4.40005333">
        <ele>767.0</ele>
        <time>2018-05-29T10:41:55.094Z</time>
      </trkpt>
      <trkpt lat="37.41360167" lon="-4.400035">
        <ele>767.0</ele>
        <time>2018-05-29T10:41:56.074Z</time>
      </trkpt>
      <trkpt lat="37.41360167" lon="-4.400035">
        <ele>767.0</ele>
        <time>2018-05-29T10:41:57.080Z</time>
      </trkpt>
      <trkpt lat="37.413565" lon="-4.40002167">
        <ele>767.0</ele>
        <time>2018-05-29T10:41:58.087Z</time>
      </trkpt>
      <trkpt lat="37.413565" lon="-4.40002167">
        <ele>767.0</ele>
        <time>2018-05-29T10:41:59.092Z</time>
      </trkpt>
      <trkpt lat="37.41352833" lon="-4.40001833">
        <ele>767.0</ele>
        <time>2018-05-29T10:42:00.059Z</time>
      </trkpt>
      <trkpt lat="37.41352833" lon="-4.40001833">
        <ele>767.0</ele>
        <time>2018-05-29T10:42:01.065Z</time>
      </trkpt>
      <trkpt lat="37.41348833" lon="-4.400025">
        <ele>767.0</ele>
        <time>2018-05-29T10:42:02.082Z</time>
      </trkpt>
      <trkpt lat="37.41347167" lon="-4.40002833">
        <ele>767.0</ele>
        <time>2018-05-29T10:42:03.066Z</time>
      </trkpt>
      <trkpt lat="37.413455" lon="-4.400035">
        <ele>767.0</ele>
        <time>2018-05-29T10:42:04.077Z</time>
      </trkpt>
      <trkpt lat="37.41343833" lon="-4.40004">
        <ele>767.0</ele>
        <time>2018-05-29T10:42:05.065Z</time>
      </trkpt>
      <trkpt lat="37.41343833" lon="-4.40004">
        <ele>767.0</ele>
        <time>2018-05-29T10:42:06.071Z</time>
      </trkpt>
      <trkpt lat="37.41340333" lon="-4.40005333">
        <ele>767.0</ele>
        <time>2018-05-29T10:42:07.059Z</time>
      </trkpt>
      <trkpt lat="37.41340333" lon="-4.40005333">
        <ele>767.0</ele>
        <time>2018-05-29T10:42:08.064Z</time>
      </trkpt>
      <trkpt lat="37.41336667" lon="-4.40006333">
        <ele>767.0</ele>
        <time>2018-05-29T10:42:09.079Z</time>
      </trkpt>
      <trkpt lat="37.41336667" lon="-4.40006333">
        <ele>767.0</ele>
        <time>2018-05-29T10:42:10.085Z</time>
      </trkpt>
      <trkpt lat="37.41334167" lon="-4.40006833">
        <ele>768.0</ele>
        <time>2018-05-29T10:42:11.066Z</time>
      </trkpt>
      <trkpt lat="37.41334167" lon="-4.40006833">
        <ele>768.0</ele>
        <time>2018-05-29T10:42:12.071Z</time>
      </trkpt>
      <trkpt lat="37.41333833" lon="-4.40007">
        <ele>768.0</ele>
        <time>2018-05-29T10:42:13.093Z</time>
      </trkpt>
      <trkpt lat="37.41333833" lon="-4.40007">
        <ele>768.0</ele>
        <time>2018-05-29T10:42:14.070Z</time>
      </trkpt>
      <trkpt lat="37.41333833" lon="-4.40007">
        <ele>768.0</ele>
        <time>2018-05-29T10:42:15.070Z</time>
      </trkpt>
      <trkpt lat="37.41348" lon="-4.40004833">
        <ele>772.0</ele>
        <time>2018-05-29T10:42:16.077Z</time>
      </trkpt>
      <trkpt lat="37.41348" lon="-4.40004833">
        <ele>772.0</ele>
        <time>2018-05-29T10:42:17.095Z</time>
      </trkpt>
      <trkpt lat="37.41353167" lon="-4.40003333">
        <ele>772.0</ele>
        <time>2018-05-29T10:42:18.064Z</time>
      </trkpt>
      <trkpt lat="37.41355667" lon="-4.40002667">
        <ele>772.0</ele>
        <time>2018-05-29T10:42:19.068Z</time>
      </trkpt>
      <trkpt lat="37.41355667" lon="-4.40002667">
        <ele>772.0</ele>
        <time>2018-05-29T10:42:20.082Z</time>
      </trkpt>
      <trkpt lat="37.41359333" lon="-4.40001833">
        <ele>772.0</ele>
        <time>2018-05-29T10:42:21.093Z</time>
      </trkpt>
      <trkpt lat="37.41359333" lon="-4.40001833">
        <ele>772.0</ele>
        <time>2018-05-29T10:42:22.060Z</time>
      </trkpt>
      <trkpt lat="37.41362833" lon="-4.40002333">
        <ele>772.0</ele>
        <time>2018-05-29T10:42:23.061Z</time>
      </trkpt>
      <trkpt lat="37.41362833" lon="-4.40002333">
        <ele>772.0</ele>
        <time>2018-05-29T10:42:24.070Z</time>
      </trkpt>
      <trkpt lat="37.41365" lon="-4.40000833">
        <ele>772.0</ele>
        <time>2018-05-29T10:42:25.079Z</time>
      </trkpt>
      <trkpt lat="37.41365333" lon="-4.39999333">
        <ele>772.0</ele>
        <time>2018-05-29T10:42:26.065Z</time>
      </trkpt>
      <trkpt lat="37.41365333" lon="-4.39999333">
        <ele>772.0</ele>
        <time>2018-05-29T10:42:27.069Z</time>
      </trkpt>
      <trkpt lat="37.41365833" lon="-4.39996">
        <ele>772.0</ele>
        <time>2018-05-29T10:42:28.061Z</time>
      </trkpt>
      <trkpt lat="37.41365833" lon="-4.39996">
        <ele>772.0</ele>
        <time>2018-05-29T10:42:29.069Z</time>
      </trkpt>
      <trkpt lat="37.41367" lon="-4.39993667">
        <ele>771.0</ele>
        <time>2018-05-29T10:42:30.088Z</time>
      </trkpt>
      <trkpt lat="37.41367667" lon="-4.39992333">
        <ele>771.0</ele>
        <time>2018-05-29T10:42:31.060Z</time>
      </trkpt>
      <trkpt lat="37.41368667" lon="-4.39991">
        <ele>771.0</ele>
        <time>2018-05-29T10:42:32.073Z</time>
      </trkpt>
      <trkpt lat="37.41368667" lon="-4.39991">
        <ele>771.0</ele>
        <time>2018-05-29T10:42:33.083Z</time>
      </trkpt>
      <trkpt lat="37.41370833" lon="-4.39987667">
        <ele>771.0</ele>
        <time>2018-05-29T10:42:34.060Z</time>
      </trkpt>
      <trkpt lat="37.41370833" lon="-4.39987667">
        <ele>771.0</ele>
        <time>2018-05-29T10:42:35.068Z</time>
      </trkpt>
      <trkpt lat="37.41373" lon="-4.39983833">
        <ele>771.0</ele>
        <time>2018-05-29T10:42:36.061Z</time>
      </trkpt>
      <trkpt lat="37.41374167" lon="-4.399825">
        <ele>771.0</ele>
        <time>2018-05-29T10:42:37.094Z</time>
      </trkpt>
      <trkpt lat="37.41375167" lon="-4.39981333">
        <ele>771.0</ele>
        <time>2018-05-29T10:42:38.066Z</time>
      </trkpt>
      <trkpt lat="37.41375167" lon="-4.39981333">
        <ele>771.0</ele>
        <time>2018-05-29T10:42:39.075Z</time>
      </trkpt>
      <trkpt lat="37.41376667" lon="-4.39978667">
        <ele>771.0</ele>
        <time>2018-05-29T10:42:40.061Z</time>
      </trkpt>
      <trkpt lat="37.413775" lon="-4.399775">
        <ele>771.0</ele>
        <time>2018-05-29T10:42:41.070Z</time>
      </trkpt>
      <trkpt lat="37.413775" lon="-4.399775">
        <ele>771.0</ele>
        <time>2018-05-29T10:42:42.077Z</time>
      </trkpt>
      <trkpt lat="37.41379167" lon="-4.39975333">
        <ele>770.0</ele>
        <time>2018-05-29T10:42:43.089Z</time>
      </trkpt>
      <trkpt lat="37.41379167" lon="-4.39975333">
        <ele>770.0</ele>
        <time>2018-05-29T10:42:44.058Z</time>
      </trkpt>
      <trkpt lat="37.41380333" lon="-4.399725">
        <ele>770.0</ele>
        <time>2018-05-29T10:42:45.066Z</time>
      </trkpt>
      <trkpt lat="37.41380333" lon="-4.399725">
        <ele>770.0</ele>
        <time>2018-05-29T10:42:46.072Z</time>
      </trkpt>
      <trkpt lat="37.41382333" lon="-4.39969833">
        <ele>770.0</ele>
        <time>2018-05-29T10:42:47.067Z</time>
      </trkpt>
      <trkpt lat="37.41382333" lon="-4.39969833">
        <ele>770.0</ele>
        <time>2018-05-29T10:42:48.073Z</time>
      </trkpt>
      <trkpt lat="37.41384833" lon="-4.399675">
        <ele>770.0</ele>
        <time>2018-05-29T10:42:49.062Z</time>
      </trkpt>
      <trkpt lat="37.41386" lon="-4.39966333">
        <ele>770.0</ele>
        <time>2018-05-29T10:42:50.076Z</time>
      </trkpt>
      <trkpt lat="37.41386" lon="-4.39966333">
        <ele>770.0</ele>
        <time>2018-05-29T10:42:51.083Z</time>
      </trkpt>
      <trkpt lat="37.41388833" lon="-4.39964333">
        <ele>770.0</ele>
        <time>2018-05-29T10:42:52.092Z</time>
      </trkpt>
      <trkpt lat="37.41388833" lon="-4.39964333">
        <ele>770.0</ele>
        <time>2018-05-29T10:42:53.080Z</time>
      </trkpt>
      <trkpt lat="37.413915" lon="-4.39963167">
        <ele>770.0</ele>
        <time>2018-05-29T10:42:54.091Z</time>
      </trkpt>
      <trkpt lat="37.413915" lon="-4.39963167">
        <ele>770.0</ele>
        <time>2018-05-29T10:42:55.057Z</time>
      </trkpt>
      <trkpt lat="37.413935" lon="-4.39960833">
        <ele>769.0</ele>
        <time>2018-05-29T10:42:56.077Z</time>
      </trkpt>
      <trkpt lat="37.413935" lon="-4.39960833">
        <ele>769.0</ele>
        <time>2018-05-29T10:42:57.083Z</time>
      </trkpt>
      <trkpt lat="37.41394833" lon="-4.39958">
        <ele>769.0</ele>
        <time>2018-05-29T10:42:58.062Z</time>
      </trkpt>
      <trkpt lat="37.41394833" lon="-4.39958">
        <ele>769.0</ele>
        <time>2018-05-29T10:42:59.070Z</time>
      </trkpt>
      <trkpt lat="37.41395667" lon="-4.39954667">
        <ele>769.0</ele>
        <time>2018-05-29T10:43:00.087Z</time>
      </trkpt>
      <trkpt lat="37.41395333" lon="-4.39953">
        <ele>769.0</ele>
        <time>2018-05-29T10:43:01.059Z</time>
      </trkpt>
      <trkpt lat="37.41394833" lon="-4.39951167">
        <ele>769.0</ele>
        <time>2018-05-29T10:43:02.071Z</time>
      </trkpt>
      <trkpt lat="37.41394833" lon="-4.39951167">
        <ele>769.0</ele>
        <time>2018-05-29T10:43:03.078Z</time>
      </trkpt>
      <trkpt lat="37.41394667" lon="-4.399465">
        <ele>770.0</ele>
        <time>2018-05-29T10:43:04.058Z</time>
      </trkpt>
      <trkpt lat="37.41395167" lon="-4.39944667">
        <ele>770.0</ele>
        <time>2018-05-29T10:43:05.069Z</time>
      </trkpt>
      <trkpt lat="37.41395167" lon="-4.39944667">
        <ele>770.0</ele>
        <time>2018-05-29T10:43:06.075Z</time>
      </trkpt>
      <trkpt lat="37.413955" lon="-4.39940833">
        <ele>769.0</ele>
        <time>2018-05-29T10:43:07.068Z</time>
      </trkpt>
      <trkpt lat="37.41395167" lon="-4.39938667">
        <ele>769.0</ele>
        <time>2018-05-29T10:43:08.075Z</time>
      </trkpt>
      <trkpt lat="37.41395167" lon="-4.39938667">
        <ele>769.0</ele>
        <time>2018-05-29T10:43:09.082Z</time>
      </trkpt>
      <trkpt lat="37.41395333" lon="-4.39934667">
        <ele>769.0</ele>
        <time>2018-05-29T10:43:10.076Z</time>
      </trkpt>
      <trkpt lat="37.41395333" lon="-4.39934667">
        <ele>769.0</ele>
        <time>2018-05-29T10:43:11.084Z</time>
      </trkpt>
      <trkpt lat="37.413965" lon="-4.39930333">
        <ele>769.0</ele>
        <time>2018-05-29T10:43:12.092Z</time>
      </trkpt>
      <trkpt lat="37.413965" lon="-4.39930333">
        <ele>769.0</ele>
        <time>2018-05-29T10:43:13.059Z</time>
      </trkpt>
      <trkpt lat="37.41396667" lon="-4.39925833">
        <ele>768.0</ele>
        <time>2018-05-29T10:43:14.064Z</time>
      </trkpt>
      <trkpt lat="37.41396667" lon="-4.39925833">
        <ele>768.0</ele>
        <time>2018-05-29T10:43:15.070Z</time>
      </trkpt>
      <trkpt lat="37.41398" lon="-4.39922167">
        <ele>768.0</ele>
        <time>2018-05-29T10:43:16.077Z</time>
      </trkpt>
      <trkpt lat="37.41399" lon="-4.39921167">
        <ele>768.0</ele>
        <time>2018-05-29T10:43:17.057Z</time>
      </trkpt>
      <trkpt lat="37.41399" lon="-4.39921167">
        <ele>768.0</ele>
        <time>2018-05-29T10:43:18.081Z</time>
      </trkpt>
      <trkpt lat="37.41401" lon="-4.39919333">
        <ele>768.0</ele>
        <time>2018-05-29T10:43:19.077Z</time>
      </trkpt>
      <trkpt lat="37.41401" lon="-4.39919333">
        <ele>768.0</ele>
        <time>2018-05-29T10:43:20.083Z</time>
      </trkpt>
      <trkpt lat="37.41403167" lon="-4.39916667">
        <ele>768.0</ele>
        <time>2018-05-29T10:43:21.058Z</time>
      </trkpt>
      <trkpt lat="37.41403167" lon="-4.39916667">
        <ele>768.0</ele>
        <time>2018-05-29T10:43:22.069Z</time>
      </trkpt>
      <trkpt lat="37.41405" lon="-4.39913667">
        <ele>768.0</ele>
        <time>2018-05-29T10:43:23.070Z</time>
      </trkpt>
      <trkpt lat="37.41405" lon="-4.39913667">
        <ele>768.0</ele>
        <time>2018-05-29T10:43:24.075Z</time>
      </trkpt>
      <trkpt lat="37.414065" lon="-4.39910167">
        <ele>768.0</ele>
        <time>2018-05-29T10:43:25.087Z</time>
      </trkpt>
      <trkpt lat="37.414075" lon="-4.399085">
        <ele>768.0</ele>
        <time>2018-05-29T10:43:26.066Z</time>
      </trkpt>
      <trkpt lat="37.414075" lon="-4.399085">
        <ele>768.0</ele>
        <time>2018-05-29T10:43:27.069Z</time>
      </trkpt>
      <trkpt lat="37.414095" lon="-4.39906167">
        <ele>768.0</ele>
        <time>2018-05-29T10:43:28.067Z</time>
      </trkpt>
      <trkpt lat="37.414095" lon="-4.39906167">
        <ele>768.0</ele>
        <time>2018-05-29T10:43:29.073Z</time>
      </trkpt>
      <trkpt lat="37.41412" lon="-4.399045">
        <ele>767.0</ele>
        <time>2018-05-29T10:43:30.087Z</time>
      </trkpt>
      <trkpt lat="37.41412" lon="-4.399045">
        <ele>767.0</ele>
        <time>2018-05-29T10:43:31.056Z</time>
      </trkpt>
      <trkpt lat="37.41413333" lon="-4.39901667">
        <ele>767.0</ele>
        <time>2018-05-29T10:43:32.086Z</time>
      </trkpt>
      <trkpt lat="37.41413333" lon="-4.39901667">
        <ele>767.0</ele>
        <time>2018-05-29T10:43:33.093Z</time>
      </trkpt>
      <trkpt lat="37.414145" lon="-4.39898667">
        <ele>767.0</ele>
        <time>2018-05-29T10:43:34.064Z</time>
      </trkpt>
      <trkpt lat="37.414145" lon="-4.39898667">
        <ele>767.0</ele>
        <time>2018-05-29T10:43:35.073Z</time>
      </trkpt>
      <trkpt lat="37.41415833" lon="-4.39894833">
        <ele>766.0</ele>
        <time>2018-05-29T10:43:36.058Z</time>
      </trkpt>
      <trkpt lat="37.41415833" lon="-4.39894833">
        <ele>766.0</ele>
        <time>2018-05-29T10:43:37.064Z</time>
      </trkpt>
      <trkpt lat="37.414175" lon="-4.39890667">
        <ele>766.0</ele>
        <time>2018-05-29T10:43:38.079Z</time>
      </trkpt>
      <trkpt lat="37.414175" lon="-4.39890667">
        <ele>766.0</ele>
        <time>2018-05-29T10:43:39.085Z</time>
      </trkpt>
      <trkpt lat="37.41418" lon="-4.39886333">
        <ele>766.0</ele>
        <time>2018-05-29T10:43:40.093Z</time>
      </trkpt>
      <trkpt lat="37.41418" lon="-4.39886333">
        <ele>766.0</ele>
        <time>2018-05-29T10:43:41.060Z</time>
      </trkpt>
      <trkpt lat="37.41419167" lon="-4.39883667">
        <ele>765.0</ele>
        <time>2018-05-29T10:43:42.073Z</time>
      </trkpt>
      <trkpt lat="37.4142" lon="-4.398825">
        <ele>765.0</ele>
        <time>2018-05-29T10:43:43.091Z</time>
      </trkpt>
      <trkpt lat="37.4142" lon="-4.398825">
        <ele>765.0</ele>
        <time>2018-05-29T10:43:44.059Z</time>
      </trkpt>
      <trkpt lat="37.41422333" lon="-4.39880833">
        <ele>765.0</ele>
        <time>2018-05-29T10:43:45.072Z</time>
      </trkpt>
      <trkpt lat="37.41422333" lon="-4.39880833">
        <ele>765.0</ele>
        <time>2018-05-29T10:43:46.079Z</time>
      </trkpt>
      <trkpt lat="37.41424833" lon="-4.39879333">
        <ele>765.0</ele>
        <time>2018-05-29T10:43:47.066Z</time>
      </trkpt>
      <trkpt lat="37.41424833" lon="-4.39879333">
        <ele>765.0</ele>
        <time>2018-05-29T10:43:48.073Z</time>
      </trkpt>
      <trkpt lat="37.41427167" lon="-4.39877833">
        <ele>765.0</ele>
        <time>2018-05-29T10:43:49.091Z</time>
      </trkpt>
      <trkpt lat="37.41428667" lon="-4.398775">
        <ele>765.0</ele>
        <time>2018-05-29T10:43:50.086Z</time>
      </trkpt>
      <trkpt lat="37.41428667" lon="-4.398775">
        <ele>765.0</ele>
        <time>2018-05-29T10:43:51.094Z</time>
      </trkpt>
      <trkpt lat="37.41431333" lon="-4.39877">
        <ele>765.0</ele>
        <time>2018-05-29T10:43:52.061Z</time>
      </trkpt>
      <trkpt lat="37.41431333" lon="-4.39877">
        <ele>765.0</ele>
        <time>2018-05-29T10:43:53.073Z</time>
      </trkpt>
      <trkpt lat="37.41433667" lon="-4.39876">
        <ele>765.0</ele>
        <time>2018-05-29T10:43:54.092Z</time>
      </trkpt>
      <trkpt lat="37.41433667" lon="-4.39876">
        <ele>765.0</ele>
        <time>2018-05-29T10:43:55.059Z</time>
      </trkpt>
      <trkpt lat="37.41436333" lon="-4.39875667">
        <ele>765.0</ele>
        <time>2018-05-29T10:43:56.071Z</time>
      </trkpt>
      <trkpt lat="37.41436333" lon="-4.39875667">
        <ele>765.0</ele>
        <time>2018-05-29T10:43:57.076Z</time>
      </trkpt>
      <trkpt lat="37.41439667" lon="-4.39875167">
        <ele>765.0</ele>
        <time>2018-05-29T10:43:58.066Z</time>
      </trkpt>
      <trkpt lat="37.41439667" lon="-4.39875167">
        <ele>765.0</ele>
        <time>2018-05-29T10:43:59.072Z</time>
      </trkpt>
      <trkpt lat="37.41442667" lon="-4.39874833">
        <ele>765.0</ele>
        <time>2018-05-29T10:44:00.083Z</time>
      </trkpt>
      <trkpt lat="37.41444" lon="-4.39874333">
        <ele>765.0</ele>
        <time>2018-05-29T10:44:01.078Z</time>
      </trkpt>
      <trkpt lat="37.41444" lon="-4.39874333">
        <ele>765.0</ele>
        <time>2018-05-29T10:44:02.083Z</time>
      </trkpt>
      <trkpt lat="37.41447333" lon="-4.39873667">
        <ele>765.0</ele>
        <time>2018-05-29T10:44:03.058Z</time>
      </trkpt>
      <trkpt lat="37.41447333" lon="-4.39873667">
        <ele>765.0</ele>
        <time>2018-05-29T10:44:04.063Z</time>
      </trkpt>
      <trkpt lat="37.41449833" lon="-4.39872833">
        <ele>765.0</ele>
        <time>2018-05-29T10:44:05.080Z</time>
      </trkpt>
      <trkpt lat="37.41449833" lon="-4.39872833">
        <ele>765.0</ele>
        <time>2018-05-29T10:44:06.062Z</time>
      </trkpt>
      <trkpt lat="37.41452333" lon="-4.39871833">
        <ele>765.0</ele>
        <time>2018-05-29T10:44:07.081Z</time>
      </trkpt>
      <trkpt lat="37.41453833" lon="-4.39871667">
        <ele>765.0</ele>
        <time>2018-05-29T10:44:08.089Z</time>
      </trkpt>
      <trkpt lat="37.41453833" lon="-4.39871667">
        <ele>765.0</ele>
        <time>2018-05-29T10:44:09.057Z</time>
      </trkpt>
      <trkpt lat="37.41456833" lon="-4.39870833">
        <ele>765.0</ele>
        <time>2018-05-29T10:44:10.093Z</time>
      </trkpt>
      <trkpt lat="37.41458333" lon="-4.39870333">
        <ele>765.0</ele>
        <time>2018-05-29T10:44:11.081Z</time>
      </trkpt>
      <trkpt lat="37.41458333" lon="-4.39870333">
        <ele>765.0</ele>
        <time>2018-05-29T10:44:12.056Z</time>
      </trkpt>
      <trkpt lat="37.41460833" lon="-4.398695">
        <ele>765.0</ele>
        <time>2018-05-29T10:44:13.089Z</time>
      </trkpt>
      <trkpt lat="37.41460833" lon="-4.398695">
        <ele>765.0</ele>
        <time>2018-05-29T10:44:14.058Z</time>
      </trkpt>
      <trkpt lat="37.41461833" lon="-4.39869667">
        <ele>765.0</ele>
        <time>2018-05-29T10:44:15.085Z</time>
      </trkpt>
      <trkpt lat="37.41461833" lon="-4.39869667">
        <ele>765.0</ele>
        <time>2018-05-29T10:44:16.091Z</time>
      </trkpt>
      <trkpt lat="37.41461833" lon="-4.39869167">
        <ele>764.0</ele>
        <time>2018-05-29T10:44:17.085Z</time>
      </trkpt>
      <trkpt lat="37.41462333" lon="-4.39868667">
        <ele>765.0</ele>
        <time>2018-05-29T10:44:18.075Z</time>
      </trkpt>
      <trkpt lat="37.41462333" lon="-4.39868667">
        <ele>765.0</ele>
        <time>2018-05-29T10:44:19.082Z</time>
      </trkpt>
      <trkpt lat="37.41463167" lon="-4.39867333">
        <ele>765.0</ele>
        <time>2018-05-29T10:44:20.065Z</time>
      </trkpt>
      <trkpt lat="37.414635" lon="-4.398665">
        <ele>765.0</ele>
        <time>2018-05-29T10:44:21.088Z</time>
      </trkpt>
      <trkpt lat="37.414635" lon="-4.398665">
        <ele>765.0</ele>
        <time>2018-05-29T10:44:22.058Z</time>
      </trkpt>
      <trkpt lat="37.41464667" lon="-4.39865833">
        <ele>765.0</ele>
        <time>2018-05-29T10:44:23.088Z</time>
      </trkpt>
      <trkpt lat="37.41465167" lon="-4.39865667">
        <ele>765.0</ele>
        <time>2018-05-29T10:44:24.085Z</time>
      </trkpt>
      <trkpt lat="37.41465167" lon="-4.39865667">
        <ele>765.0</ele>
        <time>2018-05-29T10:44:25.056Z</time>
      </trkpt>
      <trkpt lat="37.41466" lon="-4.39865">
        <ele>765.0</ele>
        <time>2018-05-29T10:44:26.083Z</time>
      </trkpt>
      <trkpt lat="37.41466" lon="-4.39865">
        <ele>765.0</ele>
        <time>2018-05-29T10:44:27.092Z</time>
      </trkpt>
      <trkpt lat="37.414665" lon="-4.39863167">
        <ele>764.0</ele>
        <time>2018-05-29T10:44:28.078Z</time>
      </trkpt>
      <trkpt lat="37.41466333" lon="-4.39862167">
        <ele>764.0</ele>
        <time>2018-05-29T10:44:29.062Z</time>
      </trkpt>
      <trkpt lat="37.41466333" lon="-4.39862167">
        <ele>764.0</ele>
        <time>2018-05-29T10:44:30.077Z</time>
      </trkpt>
      <trkpt lat="37.41465333" lon="-4.398585">
        <ele>764.0</ele>
        <time>2018-05-29T10:44:31.062Z</time>
      </trkpt>
      <trkpt lat="37.41464667" lon="-4.39855667">
        <ele>763.0</ele>
        <time>2018-05-29T10:44:32.093Z</time>
      </trkpt>
      <trkpt lat="37.41464667" lon="-4.39855667">
        <ele>763.0</ele>
        <time>2018-05-29T10:44:33.061Z</time>
      </trkpt>
      <trkpt lat="37.41463167" lon="-4.39848167">
        <ele>762.0</ele>
        <time>2018-05-29T10:44:34.058Z</time>
      </trkpt>
      <trkpt lat="37.41462667" lon="-4.39843833">
        <ele>762.0</ele>
        <time>2018-05-29T10:44:35.072Z</time>
      </trkpt>
      <trkpt lat="37.41462667" lon="-4.39843833">
        <ele>762.0</ele>
        <time>2018-05-29T10:44:36.079Z</time>
      </trkpt>
      <trkpt lat="37.41462833" lon="-4.39834">
        <ele>761.0</ele>
        <time>2018-05-29T10:44:37.065Z</time>
      </trkpt>
      <trkpt lat="37.41462833" lon="-4.39834">
        <ele>761.0</ele>
        <time>2018-05-29T10:44:38.072Z</time>
      </trkpt>
      <trkpt lat="37.41464167" lon="-4.39823">
        <ele>760.0</ele>
        <time>2018-05-29T10:44:39.061Z</time>
      </trkpt>
      <trkpt lat="37.41465333" lon="-4.39817333">
        <ele>760.0</ele>
        <time>2018-05-29T10:44:40.088Z</time>
      </trkpt>
      <trkpt lat="37.41465333" lon="-4.39817333">
        <ele>760.0</ele>
        <time>2018-05-29T10:44:41.056Z</time>
      </trkpt>
      <trkpt lat="37.41468167" lon="-4.398065">
        <ele>759.0</ele>
        <time>2018-05-29T10:44:42.068Z</time>
      </trkpt>
      <trkpt lat="37.41470167" lon="-4.39801">
        <ele>758.0</ele>
        <time>2018-05-29T10:44:43.090Z</time>
      </trkpt>
      <trkpt lat="37.41472333" lon="-4.39795667">
        <ele>758.0</ele>
        <time>2018-05-29T10:44:44.090Z</time>
      </trkpt>
      <trkpt lat="37.41472333" lon="-4.39795667">
        <ele>758.0</ele>
        <time>2018-05-29T10:44:45.058Z</time>
      </trkpt>
      <trkpt lat="37.41478333" lon="-4.39785667">
        <ele>757.0</ele>
        <time>2018-05-29T10:44:46.069Z</time>
      </trkpt>
      <trkpt lat="37.41478333" lon="-4.39785667">
        <ele>757.0</ele>
        <time>2018-05-29T10:44:47.076Z</time>
      </trkpt>
      <trkpt lat="37.41483667" lon="-4.39777333">
        <ele>756.0</ele>
        <time>2018-05-29T10:44:48.082Z</time>
      </trkpt>
      <trkpt lat="37.41483667" lon="-4.39777333">
        <ele>756.0</ele>
        <time>2018-05-29T10:44:49.096Z</time>
      </trkpt>
      <trkpt lat="37.414885" lon="-4.39769167">
        <ele>755.0</ele>
        <time>2018-05-29T10:44:50.094Z</time>
      </trkpt>
      <trkpt lat="37.414885" lon="-4.39769167">
        <ele>755.0</ele>
        <time>2018-05-29T10:44:51.061Z</time>
      </trkpt>
      <trkpt lat="37.414945" lon="-4.39760167">
        <ele>754.0</ele>
        <time>2018-05-29T10:44:52.095Z</time>
      </trkpt>
      <trkpt lat="37.414945" lon="-4.39760167">
        <ele>754.0</ele>
        <time>2018-05-29T10:44:53.080Z</time>
      </trkpt>
      <trkpt lat="37.41499" lon="-4.39754">
        <ele>753.0</ele>
        <time>2018-05-29T10:44:54.076Z</time>
      </trkpt>
      <trkpt lat="37.41500833" lon="-4.397515">
        <ele>752.0</ele>
        <time>2018-05-29T10:44:55.070Z</time>
      </trkpt>
      <trkpt lat="37.41502333" lon="-4.39748333">
        <ele>752.0</ele>
        <time>2018-05-29T10:44:56.065Z</time>
      </trkpt>
      <trkpt lat="37.41503167" lon="-4.39744667">
        <ele>751.0</ele>
        <time>2018-05-29T10:44:57.095Z</time>
      </trkpt>
      <trkpt lat="37.41503167" lon="-4.39744667">
        <ele>751.0</ele>
        <time>2018-05-29T10:44:58.063Z</time>
      </trkpt>
      <trkpt lat="37.41504167" lon="-4.39737667">
        <ele>750.0</ele>
        <time>2018-05-29T10:44:59.058Z</time>
      </trkpt>
      <trkpt lat="37.41504167" lon="-4.39737667">
        <ele>750.0</ele>
        <time>2018-05-29T10:45:00.065Z</time>
      </trkpt>
      <trkpt lat="37.41506833" lon="-4.3973">
        <ele>749.0</ele>
        <time>2018-05-29T10:45:01.073Z</time>
      </trkpt>
      <trkpt lat="37.41508167" lon="-4.39726833">
        <ele>749.0</ele>
        <time>2018-05-29T10:45:02.085Z</time>
      </trkpt>
      <trkpt lat="37.41508167" lon="-4.39726833">
        <ele>749.0</ele>
        <time>2018-05-29T10:45:03.091Z</time>
      </trkpt>
      <trkpt lat="37.41511667" lon="-4.39720167">
        <ele>747.0</ele>
        <time>2018-05-29T10:45:04.092Z</time>
      </trkpt>
      <trkpt lat="37.41513833" lon="-4.39716667">
        <ele>747.0</ele>
        <time>2018-05-29T10:45:05.086Z</time>
      </trkpt>
      <trkpt lat="37.41513833" lon="-4.39716667">
        <ele>747.0</ele>
        <time>2018-05-29T10:45:06.058Z</time>
      </trkpt>
      <trkpt lat="37.41517667" lon="-4.39709833">
        <ele>746.0</ele>
        <time>2018-05-29T10:45:07.095Z</time>
      </trkpt>
      <trkpt lat="37.415195" lon="-4.39706667">
        <ele>745.0</ele>
        <time>2018-05-29T10:45:08.077Z</time>
      </trkpt>
      <trkpt lat="37.415195" lon="-4.39706667">
        <ele>745.0</ele>
        <time>2018-05-29T10:45:09.084Z</time>
      </trkpt>
      <trkpt lat="37.415235" lon="-4.396995">
        <ele>745.0</ele>
        <time>2018-05-29T10:45:10.078Z</time>
      </trkpt>
      <trkpt lat="37.415235" lon="-4.396995">
        <ele>745.0</ele>
        <time>2018-05-29T10:45:11.084Z</time>
      </trkpt>
      <trkpt lat="37.415275" lon="-4.39692167">
        <ele>745.0</ele>
        <time>2018-05-29T10:45:12.087Z</time>
      </trkpt>
      <trkpt lat="37.4153" lon="-4.39688333">
        <ele>744.0</ele>
        <time>2018-05-29T10:45:13.082Z</time>
      </trkpt>
      <trkpt lat="37.41532167" lon="-4.39684667">
        <ele>744.0</ele>
        <time>2018-05-29T10:45:14.066Z</time>
      </trkpt>
      <trkpt lat="37.41534167" lon="-4.39681">
        <ele>744.0</ele>
        <time>2018-05-29T10:45:15.075Z</time>
      </trkpt>
      <trkpt lat="37.41534167" lon="-4.39681">
        <ele>744.0</ele>
        <time>2018-05-29T10:45:16.080Z</time>
      </trkpt>
      <trkpt lat="37.4154" lon="-4.39673333">
        <ele>743.0</ele>
        <time>2018-05-29T10:45:17.075Z</time>
      </trkpt>
      <trkpt lat="37.4154" lon="-4.39673333">
        <ele>743.0</ele>
        <time>2018-05-29T10:45:18.082Z</time>
      </trkpt>
      <trkpt lat="37.41545333" lon="-4.39667">
        <ele>743.0</ele>
        <time>2018-05-29T10:45:19.095Z</time>
      </trkpt>
      <trkpt lat="37.41548333" lon="-4.39663833">
        <ele>742.0</ele>
        <time>2018-05-29T10:45:20.083Z</time>
      </trkpt>
      <trkpt lat="37.41548333" lon="-4.39663833">
        <ele>742.0</ele>
        <time>2018-05-29T10:45:21.093Z</time>
      </trkpt>
      <trkpt lat="37.41553333" lon="-4.39657667">
        <ele>742.0</ele>
        <time>2018-05-29T10:45:22.094Z</time>
      </trkpt>
      <trkpt lat="37.41555667" lon="-4.39654833">
        <ele>741.0</ele>
        <time>2018-05-29T10:45:23.093Z</time>
      </trkpt>
      <trkpt lat="37.41555667" lon="-4.39654833">
        <ele>741.0</ele>
        <time>2018-05-29T10:45:24.059Z</time>
      </trkpt>
      <trkpt lat="37.41560333" lon="-4.39648667">
        <ele>741.0</ele>
        <time>2018-05-29T10:45:25.084Z</time>
      </trkpt>
      <trkpt lat="37.41563167" lon="-4.396455">
        <ele>740.0</ele>
        <time>2018-05-29T10:45:26.072Z</time>
      </trkpt>
      <trkpt lat="37.41563167" lon="-4.396455">
        <ele>740.0</ele>
        <time>2018-05-29T10:45:27.079Z</time>
      </trkpt>
      <trkpt lat="37.41568167" lon="-4.39639667">
        <ele>740.0</ele>
        <time>2018-05-29T10:45:28.072Z</time>
      </trkpt>
      <trkpt lat="37.41568167" lon="-4.39639667">
        <ele>740.0</ele>
        <time>2018-05-29T10:45:29.078Z</time>
      </trkpt>
      <trkpt lat="37.415725" lon="-4.39632833">
        <ele>739.0</ele>
        <time>2018-05-29T10:45:30.063Z</time>
      </trkpt>
      <trkpt lat="37.415725" lon="-4.39632833">
        <ele>739.0</ele>
        <time>2018-05-29T10:45:31.069Z</time>
      </trkpt>
      <trkpt lat="37.41578667" lon="-4.39624667">
        <ele>739.0</ele>
        <time>2018-05-29T10:45:32.066Z</time>
      </trkpt>
      <trkpt lat="37.41578667" lon="-4.39624667">
        <ele>739.0</ele>
        <time>2018-05-29T10:45:33.073Z</time>
      </trkpt>
      <trkpt lat="37.41584167" lon="-4.39616667">
        <ele>738.0</ele>
        <time>2018-05-29T10:45:34.067Z</time>
      </trkpt>
      <trkpt lat="37.41587167" lon="-4.39612667">
        <ele>738.0</ele>
        <time>2018-05-29T10:45:35.075Z</time>
      </trkpt>
      <trkpt lat="37.41587167" lon="-4.39612667">
        <ele>738.0</ele>
        <time>2018-05-29T10:45:36.082Z</time>
      </trkpt>
      <trkpt lat="37.41592333" lon="-4.39604">
        <ele>737.0</ele>
        <time>2018-05-29T10:45:37.057Z</time>
      </trkpt>
      <trkpt lat="37.41592333" lon="-4.39604">
        <ele>737.0</ele>
        <time>2018-05-29T10:45:38.064Z</time>
      </trkpt>
      <trkpt lat="37.415965" lon="-4.39596167">
        <ele>737.0</ele>
        <time>2018-05-29T10:45:39.063Z</time>
      </trkpt>
      <trkpt lat="37.41598833" lon="-4.395925">
        <ele>737.0</ele>
        <time>2018-05-29T10:45:40.087Z</time>
      </trkpt>
      <trkpt lat="37.41598833" lon="-4.395925">
        <ele>737.0</ele>
        <time>2018-05-29T10:45:41.095Z</time>
      </trkpt>
      <trkpt lat="37.41602333" lon="-4.39585667">
        <ele>736.0</ele>
        <time>2018-05-29T10:45:42.088Z</time>
      </trkpt>
      <trkpt lat="37.416035" lon="-4.39582833">
        <ele>736.0</ele>
        <time>2018-05-29T10:45:43.076Z</time>
      </trkpt>
      <trkpt lat="37.416035" lon="-4.39582833">
        <ele>736.0</ele>
        <time>2018-05-29T10:45:44.083Z</time>
      </trkpt>
      <trkpt lat="37.41606167" lon="-4.39575667">
        <ele>735.0</ele>
        <time>2018-05-29T10:45:45.068Z</time>
      </trkpt>
      <trkpt lat="37.41606167" lon="-4.39575667">
        <ele>735.0</ele>
        <time>2018-05-29T10:45:46.074Z</time>
      </trkpt>
      <trkpt lat="37.41609333" lon="-4.39567333">
        <ele>734.0</ele>
        <time>2018-05-29T10:45:47.065Z</time>
      </trkpt>
      <trkpt lat="37.41609333" lon="-4.39567333">
        <ele>734.0</ele>
        <time>2018-05-29T10:45:48.095Z</time>
      </trkpt>
      <trkpt lat="37.41612833" lon="-4.39561167">
        <ele>733.0</ele>
        <time>2018-05-29T10:45:49.077Z</time>
      </trkpt>
      <trkpt lat="37.41615" lon="-4.39558667">
        <ele>733.0</ele>
        <time>2018-05-29T10:45:50.072Z</time>
      </trkpt>
      <trkpt lat="37.41615" lon="-4.39558667">
        <ele>733.0</ele>
        <time>2018-05-29T10:45:51.078Z</time>
      </trkpt>
      <trkpt lat="37.41620167" lon="-4.39552167">
        <ele>732.0</ele>
        <time>2018-05-29T10:45:52.073Z</time>
      </trkpt>
      <trkpt lat="37.41620167" lon="-4.39552167">
        <ele>732.0</ele>
        <time>2018-05-29T10:45:53.095Z</time>
      </trkpt>
      <trkpt lat="37.41625667" lon="-4.395465">
        <ele>731.0</ele>
        <time>2018-05-29T10:45:54.080Z</time>
      </trkpt>
      <trkpt lat="37.416285" lon="-4.39543667">
        <ele>731.0</ele>
        <time>2018-05-29T10:45:55.069Z</time>
      </trkpt>
      <trkpt lat="37.41631833" lon="-4.3954">
        <ele>731.0</ele>
        <time>2018-05-29T10:45:56.058Z</time>
      </trkpt>
      <trkpt lat="37.41631833" lon="-4.3954">
        <ele>731.0</ele>
        <time>2018-05-29T10:45:57.064Z</time>
      </trkpt>
      <trkpt lat="37.41637167" lon="-4.39532167">
        <ele>730.0</ele>
        <time>2018-05-29T10:45:58.090Z</time>
      </trkpt>
      <trkpt lat="37.41637167" lon="-4.39532167">
        <ele>730.0</ele>
        <time>2018-05-29T10:45:59.058Z</time>
      </trkpt>
      <trkpt lat="37.41641" lon="-4.39523667">
        <ele>730.0</ele>
        <time>2018-05-29T10:46:00.095Z</time>
      </trkpt>
      <trkpt lat="37.41641" lon="-4.39523667">
        <ele>730.0</ele>
        <time>2018-05-29T10:46:01.062Z</time>
      </trkpt>
      <trkpt lat="37.41643667" lon="-4.395135">
        <ele>730.0</ele>
        <time>2018-05-29T10:46:02.087Z</time>
      </trkpt>
      <trkpt lat="37.41643667" lon="-4.395135">
        <ele>730.0</ele>
        <time>2018-05-29T10:46:03.095Z</time>
      </trkpt>
      <trkpt lat="37.41646167" lon="-4.39503">
        <ele>729.0</ele>
        <time>2018-05-29T10:46:04.083Z</time>
      </trkpt>
      <trkpt lat="37.41646167" lon="-4.39503">
        <ele>729.0</ele>
        <time>2018-05-29T10:46:05.059Z</time>
      </trkpt>
      <trkpt lat="37.41648333" lon="-4.39492667">
        <ele>729.0</ele>
        <time>2018-05-29T10:46:06.094Z</time>
      </trkpt>
      <trkpt lat="37.41648333" lon="-4.39492667">
        <ele>729.0</ele>
        <time>2018-05-29T10:46:07.061Z</time>
      </trkpt>
      <trkpt lat="37.41650333" lon="-4.39483167">
        <ele>729.0</ele>
        <time>2018-05-29T10:46:08.090Z</time>
      </trkpt>
      <trkpt lat="37.41650333" lon="-4.39483167">
        <ele>729.0</ele>
        <time>2018-05-29T10:46:09.058Z</time>
      </trkpt>
      <trkpt lat="37.41652" lon="-4.394755">
        <ele>730.0</ele>
        <time>2018-05-29T10:46:10.080Z</time>
      </trkpt>
      <trkpt lat="37.41652" lon="-4.394755">
        <ele>730.0</ele>
        <time>2018-05-29T10:46:11.085Z</time>
      </trkpt>
      <trkpt lat="37.41653833" lon="-4.39469167">
        <ele>730.0</ele>
        <time>2018-05-29T10:46:12.090Z</time>
      </trkpt>
      <trkpt lat="37.41653833" lon="-4.39469167">
        <ele>730.0</ele>
        <time>2018-05-29T10:46:13.056Z</time>
      </trkpt>
      <trkpt lat="37.41654833" lon="-4.39467333">
        <ele>731.0</ele>
        <time>2018-05-29T10:46:14.056Z</time>
      </trkpt>
      <trkpt lat="37.41654833" lon="-4.39467333">
        <ele>731.0</ele>
        <time>2018-05-29T10:46:15.068Z</time>
      </trkpt>
      <trkpt lat="37.41654667" lon="-4.394675">
        <ele>731.0</ele>
        <time>2018-05-29T10:46:16.060Z</time>
      </trkpt>
      <trkpt lat="37.41654667" lon="-4.394675">
        <ele>731.0</ele>
        <time>2018-05-29T10:46:17.068Z</time>
      </trkpt>
      <trkpt lat="37.41654667" lon="-4.394675">
        <ele>731.0</ele>
        <time>2018-05-29T10:46:18.074Z</time>
      </trkpt>
      <trkpt lat="37.41654667" lon="-4.394675">
        <ele>731.0</ele>
        <time>2018-05-29T10:46:19.081Z</time>
      </trkpt>
      <trkpt lat="37.41654667" lon="-4.394675">
        <ele>731.0</ele>
        <time>2018-05-29T10:46:20.066Z</time>
      </trkpt>
      <trkpt lat="37.41654667" lon="-4.394675">
        <ele>731.0</ele>
        <time>2018-05-29T10:46:21.093Z</time>
      </trkpt>
      <trkpt lat="37.41654667" lon="-4.394675">
        <ele>731.0</ele>
        <time>2018-05-29T10:46:22.094Z</time>
      </trkpt>
      <trkpt lat="37.41654667" lon="-4.394675">
        <ele>731.0</ele>
        <time>2018-05-29T10:46:23.087Z</time>
      </trkpt>
      <trkpt lat="37.41654667" lon="-4.394675">
        <ele>731.0</ele>
        <time>2018-05-29T10:46:24.067Z</time>
      </trkpt>
      <trkpt lat="37.41654667" lon="-4.394675">
        <ele>731.0</ele>
        <time>2018-05-29T10:46:25.093Z</time>
      </trkpt>
      <trkpt lat="37.41653" lon="-4.39467167">
        <ele>731.0</ele>
        <time>2018-05-29T10:46:26.094Z</time>
      </trkpt>
      <trkpt lat="37.41653" lon="-4.39467167">
        <ele>731.0</ele>
        <time>2018-05-29T10:46:27.093Z</time>
      </trkpt>
      <trkpt lat="37.41652" lon="-4.394615">
        <ele>731.0</ele>
        <time>2018-05-29T10:46:28.079Z</time>
      </trkpt>
      <trkpt lat="37.41652" lon="-4.394615">
        <ele>731.0</ele>
        <time>2018-05-29T10:46:29.065Z</time>
      </trkpt>
      <trkpt lat="37.41651667" lon="-4.394555">
        <ele>731.0</ele>
        <time>2018-05-29T10:46:30.090Z</time>
      </trkpt>
      <trkpt lat="37.41651667" lon="-4.394555">
        <ele>731.0</ele>
        <time>2018-05-29T10:46:31.056Z</time>
      </trkpt>
      <trkpt lat="37.41651333" lon="-4.39450667">
        <ele>731.0</ele>
        <time>2018-05-29T10:46:32.083Z</time>
      </trkpt>
      <trkpt lat="37.41651333" lon="-4.39450667">
        <ele>731.0</ele>
        <time>2018-05-29T10:46:33.089Z</time>
      </trkpt>
      <trkpt lat="37.41650667" lon="-4.39446">
        <ele>731.0</ele>
        <time>2018-05-29T10:46:34.085Z</time>
      </trkpt>
      <trkpt lat="37.41650167" lon="-4.39443333">
        <ele>730.0</ele>
        <time>2018-05-29T10:46:35.086Z</time>
      </trkpt>
      <trkpt lat="37.41650167" lon="-4.39443333">
        <ele>730.0</ele>
        <time>2018-05-29T10:46:36.092Z</time>
      </trkpt>
      <trkpt lat="37.41649" lon="-4.39437667">
        <ele>731.0</ele>
        <time>2018-05-29T10:46:37.085Z</time>
      </trkpt>
      <trkpt lat="37.41649" lon="-4.39437667">
        <ele>731.0</ele>
        <time>2018-05-29T10:46:38.090Z</time>
      </trkpt>
      <trkpt lat="37.41647333" lon="-4.394315">
        <ele>730.0</ele>
        <time>2018-05-29T10:46:39.083Z</time>
      </trkpt>
      <trkpt lat="37.41647333" lon="-4.394315">
        <ele>730.0</ele>
        <time>2018-05-29T10:46:40.089Z</time>
      </trkpt>
      <trkpt lat="37.41645833" lon="-4.39424167">
        <ele>730.0</ele>
        <time>2018-05-29T10:46:41.073Z</time>
      </trkpt>
      <trkpt lat="37.41645833" lon="-4.39424167">
        <ele>730.0</ele>
        <time>2018-05-29T10:46:42.082Z</time>
      </trkpt>
      <trkpt lat="37.41644333" lon="-4.39417167">
        <ele>731.0</ele>
        <time>2018-05-29T10:46:43.067Z</time>
      </trkpt>
      <trkpt lat="37.41644333" lon="-4.39417167">
        <ele>731.0</ele>
        <time>2018-05-29T10:46:44.082Z</time>
      </trkpt>
      <trkpt lat="37.41643" lon="-4.39410667">
        <ele>731.0</ele>
        <time>2018-05-29T10:46:45.072Z</time>
      </trkpt>
      <trkpt lat="37.41643" lon="-4.39410667">
        <ele>731.0</ele>
        <time>2018-05-29T10:46:46.081Z</time>
      </trkpt>
      <trkpt lat="37.41641667" lon="-4.39404667">
        <ele>731.0</ele>
        <time>2018-05-29T10:46:47.072Z</time>
      </trkpt>
      <trkpt lat="37.41640833" lon="-4.39401833">
        <ele>731.0</ele>
        <time>2018-05-29T10:46:48.066Z</time>
      </trkpt>
      <trkpt lat="37.41640833" lon="-4.39401833">
        <ele>731.0</ele>
        <time>2018-05-29T10:46:49.073Z</time>
      </trkpt>
      <trkpt lat="37.41639333" lon="-4.39396833">
        <ele>732.0</ele>
        <time>2018-05-29T10:46:50.072Z</time>
      </trkpt>
      <trkpt lat="37.416385" lon="-4.39394167">
        <ele>732.0</ele>
        <time>2018-05-29T10:46:51.059Z</time>
      </trkpt>
      <trkpt lat="37.416385" lon="-4.39394167">
        <ele>732.0</ele>
        <time>2018-05-29T10:46:52.066Z</time>
      </trkpt>
      <trkpt lat="37.41636833" lon="-4.39389167">
        <ele>732.0</ele>
        <time>2018-05-29T10:46:53.089Z</time>
      </trkpt>
      <trkpt lat="37.41636833" lon="-4.39389167">
        <ele>732.0</ele>
        <time>2018-05-29T10:46:54.056Z</time>
      </trkpt>
      <trkpt lat="37.41635333" lon="-4.39383667">
        <ele>733.0</ele>
        <time>2018-05-29T10:46:55.065Z</time>
      </trkpt>
      <trkpt lat="37.416345" lon="-4.39381167">
        <ele>733.0</ele>
        <time>2018-05-29T10:46:56.088Z</time>
      </trkpt>
      <trkpt lat="37.416345" lon="-4.39381167">
        <ele>733.0</ele>
        <time>2018-05-29T10:46:57.095Z</time>
      </trkpt>
      <trkpt lat="37.41632833" lon="-4.39375167">
        <ele>733.0</ele>
        <time>2018-05-29T10:46:58.093Z</time>
      </trkpt>
      <trkpt lat="37.41632833" lon="-4.39375167">
        <ele>733.0</ele>
        <time>2018-05-29T10:46:59.058Z</time>
      </trkpt>
      <trkpt lat="37.41631333" lon="-4.39369333">
        <ele>733.0</ele>
        <time>2018-05-29T10:47:00.088Z</time>
      </trkpt>
      <trkpt lat="37.41631333" lon="-4.39369333">
        <ele>733.0</ele>
        <time>2018-05-29T10:47:01.094Z</time>
      </trkpt>
      <trkpt lat="37.41629667" lon="-4.39363167">
        <ele>733.0</ele>
        <time>2018-05-29T10:47:02.090Z</time>
      </trkpt>
      <trkpt lat="37.41629667" lon="-4.39363167">
        <ele>733.0</ele>
        <time>2018-05-29T10:47:03.056Z</time>
      </trkpt>
      <trkpt lat="37.41628333" lon="-4.39356333">
        <ele>734.0</ele>
        <time>2018-05-29T10:47:04.081Z</time>
      </trkpt>
      <trkpt lat="37.41627167" lon="-4.39352667">
        <ele>734.0</ele>
        <time>2018-05-29T10:47:05.068Z</time>
      </trkpt>
      <trkpt lat="37.41627167" lon="-4.39352667">
        <ele>734.0</ele>
        <time>2018-05-29T10:47:06.082Z</time>
      </trkpt>
      <trkpt lat="37.416235" lon="-4.39342667">
        <ele>734.0</ele>
        <time>2018-05-29T10:47:07.072Z</time>
      </trkpt>
      <trkpt lat="37.416235" lon="-4.39342667">
        <ele>734.0</ele>
        <time>2018-05-29T10:47:08.082Z</time>
      </trkpt>
      <trkpt lat="37.4162" lon="-4.393315">
        <ele>733.0</ele>
        <time>2018-05-29T10:47:09.088Z</time>
      </trkpt>
      <trkpt lat="37.4162" lon="-4.393315">
        <ele>733.0</ele>
        <time>2018-05-29T10:47:10.095Z</time>
      </trkpt>
      <trkpt lat="37.41616667" lon="-4.393215">
        <ele>733.0</ele>
        <time>2018-05-29T10:47:11.094Z</time>
      </trkpt>
      <trkpt lat="37.41615" lon="-4.39316667">
        <ele>731.0</ele>
        <time>2018-05-29T10:47:12.095Z</time>
      </trkpt>
      <trkpt lat="37.41615" lon="-4.39316667">
        <ele>731.0</ele>
        <time>2018-05-29T10:47:13.060Z</time>
      </trkpt>
      <trkpt lat="37.41612333" lon="-4.39307333">
        <ele>730.0</ele>
        <time>2018-05-29T10:47:14.095Z</time>
      </trkpt>
      <trkpt lat="37.41612333" lon="-4.39307333">
        <ele>730.0</ele>
        <time>2018-05-29T10:47:15.060Z</time>
      </trkpt>
      <trkpt lat="37.41609667" lon="-4.39297333">
        <ele>728.0</ele>
        <time>2018-05-29T10:47:16.091Z</time>
      </trkpt>
      <trkpt lat="37.41609667" lon="-4.39297333">
        <ele>728.0</ele>
        <time>2018-05-29T10:47:17.056Z</time>
      </trkpt>
      <trkpt lat="37.41607167" lon="-4.39287">
        <ele>726.0</ele>
        <time>2018-05-29T10:47:18.091Z</time>
      </trkpt>
      <trkpt lat="37.41607167" lon="-4.39287">
        <ele>726.0</ele>
        <time>2018-05-29T10:47:19.057Z</time>
      </trkpt>
      <trkpt lat="37.41602833" lon="-4.39275333">
        <ele>724.0</ele>
        <time>2018-05-29T10:47:20.095Z</time>
      </trkpt>
      <trkpt lat="37.41602833" lon="-4.39275333">
        <ele>724.0</ele>
        <time>2018-05-29T10:47:21.061Z</time>
      </trkpt>
      <trkpt lat="37.41595667" lon="-4.392635">
        <ele>723.0</ele>
        <time>2018-05-29T10:47:22.059Z</time>
      </trkpt>
      <trkpt lat="37.41595667" lon="-4.392635">
        <ele>723.0</ele>
        <time>2018-05-29T10:47:23.064Z</time>
      </trkpt>
      <trkpt lat="37.41588833" lon="-4.39253167">
        <ele>721.0</ele>
        <time>2018-05-29T10:47:24.095Z</time>
      </trkpt>
      <trkpt lat="37.41588833" lon="-4.39253167">
        <ele>721.0</ele>
        <time>2018-05-29T10:47:25.060Z</time>
      </trkpt>
      <trkpt lat="37.41583" lon="-4.39244167">
        <ele>720.0</ele>
        <time>2018-05-29T10:47:26.093Z</time>
      </trkpt>
      <trkpt lat="37.41580167" lon="-4.392405">
        <ele>720.0</ele>
        <time>2018-05-29T10:47:27.082Z</time>
      </trkpt>
      <trkpt lat="37.41580167" lon="-4.392405">
        <ele>720.0</ele>
        <time>2018-05-29T10:47:28.088Z</time>
      </trkpt>
      <trkpt lat="37.41574333" lon="-4.39234333">
        <ele>719.0</ele>
        <time>2018-05-29T10:47:29.069Z</time>
      </trkpt>
      <trkpt lat="37.41571167" lon="-4.39231167">
        <ele>718.0</ele>
        <time>2018-05-29T10:47:30.093Z</time>
      </trkpt>
      <trkpt lat="37.41571167" lon="-4.39231167">
        <ele>718.0</ele>
        <time>2018-05-29T10:47:31.059Z</time>
      </trkpt>
      <trkpt lat="37.41566" lon="-4.39225833">
        <ele>717.0</ele>
        <time>2018-05-29T10:47:32.062Z</time>
      </trkpt>
      <trkpt lat="37.41566" lon="-4.39225833">
        <ele>717.0</ele>
        <time>2018-05-29T10:47:33.068Z</time>
      </trkpt>
      <trkpt lat="37.41561833" lon="-4.39222167">
        <ele>716.0</ele>
        <time>2018-05-29T10:47:34.059Z</time>
      </trkpt>
      <trkpt lat="37.41561833" lon="-4.39222167">
        <ele>716.0</ele>
        <time>2018-05-29T10:47:35.066Z</time>
      </trkpt>
      <trkpt lat="37.41557667" lon="-4.39221">
        <ele>715.0</ele>
        <time>2018-05-29T10:47:36.064Z</time>
      </trkpt>
      <trkpt lat="37.41557667" lon="-4.39221">
        <ele>715.0</ele>
        <time>2018-05-29T10:47:37.069Z</time>
      </trkpt>
      <trkpt lat="37.41552333" lon="-4.39223333">
        <ele>714.0</ele>
        <time>2018-05-29T10:47:38.064Z</time>
      </trkpt>
      <trkpt lat="37.41552333" lon="-4.39223333">
        <ele>714.0</ele>
        <time>2018-05-29T10:47:39.070Z</time>
      </trkpt>
      <trkpt lat="37.41547333" lon="-4.39226667">
        <ele>713.0</ele>
        <time>2018-05-29T10:47:40.093Z</time>
      </trkpt>
      <trkpt lat="37.41545" lon="-4.39227833">
        <ele>712.0</ele>
        <time>2018-05-29T10:47:41.067Z</time>
      </trkpt>
      <trkpt lat="37.41543" lon="-4.392285">
        <ele>712.0</ele>
        <time>2018-05-29T10:47:42.064Z</time>
      </trkpt>
      <trkpt lat="37.41543" lon="-4.392285">
        <ele>712.0</ele>
        <time>2018-05-29T10:47:43.069Z</time>
      </trkpt>
      <trkpt lat="37.41538833" lon="-4.392285">
        <ele>712.0</ele>
        <time>2018-05-29T10:47:44.061Z</time>
      </trkpt>
      <trkpt lat="37.415375" lon="-4.39227833">
        <ele>711.0</ele>
        <time>2018-05-29T10:47:45.086Z</time>
      </trkpt>
      <trkpt lat="37.415375" lon="-4.39227833">
        <ele>711.0</ele>
        <time>2018-05-29T10:47:46.092Z</time>
      </trkpt>
      <trkpt lat="37.41535167" lon="-4.39226667">
        <ele>711.0</ele>
        <time>2018-05-29T10:47:47.058Z</time>
      </trkpt>
      <trkpt lat="37.41534" lon="-4.39226333">
        <ele>711.0</ele>
        <time>2018-05-29T10:47:48.085Z</time>
      </trkpt>
      <trkpt lat="37.41534" lon="-4.39226333">
        <ele>711.0</ele>
        <time>2018-05-29T10:47:49.092Z</time>
      </trkpt>
      <trkpt lat="37.41529833" lon="-4.39227833">
        <ele>710.0</ele>
        <time>2018-05-29T10:47:50.077Z</time>
      </trkpt>
      <trkpt lat="37.41527667" lon="-4.39228667">
        <ele>709.0</ele>
        <time>2018-05-29T10:47:51.092Z</time>
      </trkpt>
      <trkpt lat="37.41527667" lon="-4.39228667">
        <ele>709.0</ele>
        <time>2018-05-29T10:47:52.057Z</time>
      </trkpt>
      <trkpt lat="37.41523333" lon="-4.39228167">
        <ele>708.0</ele>
        <time>2018-05-29T10:47:53.058Z</time>
      </trkpt>
      <trkpt lat="37.41521167" lon="-4.39227333">
        <ele>708.0</ele>
        <time>2018-05-29T10:47:54.057Z</time>
      </trkpt>
      <trkpt lat="37.41521167" lon="-4.39227333">
        <ele>708.0</ele>
        <time>2018-05-29T10:47:55.064Z</time>
      </trkpt>
      <trkpt lat="37.41516167" lon="-4.39226167">
        <ele>706.0</ele>
        <time>2018-05-29T10:47:56.086Z</time>
      </trkpt>
      <trkpt lat="37.415135" lon="-4.39226333">
        <ele>705.0</ele>
        <time>2018-05-29T10:47:57.078Z</time>
      </trkpt>
      <trkpt lat="37.415135" lon="-4.39226333">
        <ele>705.0</ele>
        <time>2018-05-29T10:47:58.085Z</time>
      </trkpt>
      <trkpt lat="37.41508167" lon="-4.39229833">
        <ele>704.0</ele>
        <time>2018-05-29T10:47:59.069Z</time>
      </trkpt>
      <trkpt lat="37.41508167" lon="-4.39229833">
        <ele>704.0</ele>
        <time>2018-05-29T10:48:00.078Z</time>
      </trkpt>
      <trkpt lat="37.41503167" lon="-4.39233">
        <ele>703.0</ele>
        <time>2018-05-29T10:48:01.065Z</time>
      </trkpt>
      <trkpt lat="37.415005" lon="-4.392325">
        <ele>702.0</ele>
        <time>2018-05-29T10:48:02.087Z</time>
      </trkpt>
      <trkpt lat="37.415005" lon="-4.392325">
        <ele>702.0</ele>
        <time>2018-05-29T10:48:03.093Z</time>
      </trkpt>
      <trkpt lat="37.41496333" lon="-4.392285">
        <ele>701.0</ele>
        <time>2018-05-29T10:48:04.077Z</time>
      </trkpt>
      <trkpt lat="37.41496333" lon="-4.392285">
        <ele>701.0</ele>
        <time>2018-05-29T10:48:05.083Z</time>
      </trkpt>
      <trkpt lat="37.41491667" lon="-4.392245">
        <ele>700.0</ele>
        <time>2018-05-29T10:48:06.077Z</time>
      </trkpt>
      <trkpt lat="37.41491667" lon="-4.392245">
        <ele>700.0</ele>
        <time>2018-05-29T10:48:07.084Z</time>
      </trkpt>
      <trkpt lat="37.414865" lon="-4.392215">
        <ele>698.0</ele>
        <time>2018-05-29T10:48:08.076Z</time>
      </trkpt>
      <trkpt lat="37.414865" lon="-4.392215">
        <ele>698.0</ele>
        <time>2018-05-29T10:48:09.082Z</time>
      </trkpt>
      <trkpt lat="37.414805" lon="-4.39221333">
        <ele>697.0</ele>
        <time>2018-05-29T10:48:10.074Z</time>
      </trkpt>
      <trkpt lat="37.414805" lon="-4.39221333">
        <ele>697.0</ele>
        <time>2018-05-29T10:48:11.082Z</time>
      </trkpt>
      <trkpt lat="37.414735" lon="-4.39222667">
        <ele>695.0</ele>
        <time>2018-05-29T10:48:12.073Z</time>
      </trkpt>
      <trkpt lat="37.414735" lon="-4.39222667">
        <ele>695.0</ele>
        <time>2018-05-29T10:48:13.080Z</time>
      </trkpt>
      <trkpt lat="37.414665" lon="-4.39223833">
        <ele>694.0</ele>
        <time>2018-05-29T10:48:14.086Z</time>
      </trkpt>
      <trkpt lat="37.41463333" lon="-4.39224667">
        <ele>693.0</ele>
        <time>2018-05-29T10:48:15.078Z</time>
      </trkpt>
      <trkpt lat="37.41463333" lon="-4.39224667">
        <ele>693.0</ele>
        <time>2018-05-29T10:48:16.085Z</time>
      </trkpt>
      <trkpt lat="37.41456333" lon="-4.39226333">
        <ele>691.0</ele>
        <time>2018-05-29T10:48:17.072Z</time>
      </trkpt>
      <trkpt lat="37.414525" lon="-4.39227167">
        <ele>690.0</ele>
        <time>2018-05-29T10:48:18.063Z</time>
      </trkpt>
      <trkpt lat="37.414525" lon="-4.39227167">
        <ele>690.0</ele>
        <time>2018-05-29T10:48:19.068Z</time>
      </trkpt>
      <trkpt lat="37.41444333" lon="-4.39228833">
        <ele>688.0</ele>
        <time>2018-05-29T10:48:20.086Z</time>
      </trkpt>
      <trkpt lat="37.41444333" lon="-4.39228833">
        <ele>688.0</ele>
        <time>2018-05-29T10:48:21.092Z</time>
      </trkpt>
      <trkpt lat="37.41436667" lon="-4.39230833">
        <ele>686.0</ele>
        <time>2018-05-29T10:48:22.079Z</time>
      </trkpt>
      <trkpt lat="37.41436667" lon="-4.39230833">
        <ele>686.0</ele>
        <time>2018-05-29T10:48:23.085Z</time>
      </trkpt>
      <trkpt lat="37.41429667" lon="-4.39232333">
        <ele>684.0</ele>
        <time>2018-05-29T10:48:24.077Z</time>
      </trkpt>
      <trkpt lat="37.41429667" lon="-4.39232333">
        <ele>684.0</ele>
        <time>2018-05-29T10:48:25.083Z</time>
      </trkpt>
      <trkpt lat="37.41425167" lon="-4.39233167">
        <ele>684.0</ele>
        <time>2018-05-29T10:48:26.074Z</time>
      </trkpt>
      <trkpt lat="37.41425167" lon="-4.39233167">
        <ele>684.0</ele>
        <time>2018-05-29T10:48:27.082Z</time>
      </trkpt>
      <trkpt lat="37.41420333" lon="-4.39234333">
        <ele>683.0</ele>
        <time>2018-05-29T10:48:28.084Z</time>
      </trkpt>
      <trkpt lat="37.41420333" lon="-4.39234333">
        <ele>683.0</ele>
        <time>2018-05-29T10:48:29.091Z</time>
      </trkpt>
      <trkpt lat="37.41413667" lon="-4.39235833">
        <ele>682.0</ele>
        <time>2018-05-29T10:48:30.093Z</time>
      </trkpt>
      <trkpt lat="37.41413667" lon="-4.39235833">
        <ele>682.0</ele>
        <time>2018-05-29T10:48:31.059Z</time>
      </trkpt>
      <trkpt lat="37.41406167" lon="-4.39237667">
        <ele>681.0</ele>
        <time>2018-05-29T10:48:32.092Z</time>
      </trkpt>
      <trkpt lat="37.41406167" lon="-4.39237667">
        <ele>681.0</ele>
        <time>2018-05-29T10:48:33.058Z</time>
      </trkpt>
      <trkpt lat="37.41398333" lon="-4.39239333">
        <ele>679.0</ele>
        <time>2018-05-29T10:48:34.092Z</time>
      </trkpt>
      <trkpt lat="37.41398333" lon="-4.39239333">
        <ele>679.0</ele>
        <time>2018-05-29T10:48:35.058Z</time>
      </trkpt>
      <trkpt lat="37.41391833" lon="-4.392405">
        <ele>677.0</ele>
        <time>2018-05-29T10:48:36.056Z</time>
      </trkpt>
      <trkpt lat="37.41391833" lon="-4.392405">
        <ele>677.0</ele>
        <time>2018-05-29T10:48:37.062Z</time>
      </trkpt>
      <trkpt lat="37.41386333" lon="-4.392415">
        <ele>676.0</ele>
        <time>2018-05-29T10:48:38.084Z</time>
      </trkpt>
      <trkpt lat="37.41384" lon="-4.39242">
        <ele>676.0</ele>
        <time>2018-05-29T10:48:39.071Z</time>
      </trkpt>
      <trkpt lat="37.41384" lon="-4.39242">
        <ele>676.0</ele>
        <time>2018-05-29T10:48:40.082Z</time>
      </trkpt>
      <trkpt lat="37.41379333" lon="-4.3924">
        <ele>674.0</ele>
        <time>2018-05-29T10:48:41.074Z</time>
      </trkpt>
      <trkpt lat="37.41377667" lon="-4.39236333">
        <ele>674.0</ele>
        <time>2018-05-29T10:48:42.081Z</time>
      </trkpt>
      <trkpt lat="37.41377667" lon="-4.39236333">
        <ele>674.0</ele>
        <time>2018-05-29T10:48:43.087Z</time>
      </trkpt>
      <trkpt lat="37.413755" lon="-4.3923">
        <ele>673.0</ele>
        <time>2018-05-29T10:48:44.087Z</time>
      </trkpt>
      <trkpt lat="37.41374833" lon="-4.39227833">
        <ele>672.0</ele>
        <time>2018-05-29T10:48:45.090Z</time>
      </trkpt>
      <trkpt lat="37.41374833" lon="-4.39227833">
        <ele>672.0</ele>
        <time>2018-05-29T10:48:46.095Z</time>
      </trkpt>
      <trkpt lat="37.413745" lon="-4.39223">
        <ele>671.0</ele>
        <time>2018-05-29T10:48:47.083Z</time>
      </trkpt>
      <trkpt lat="37.41374167" lon="-4.39220167">
        <ele>670.0</ele>
        <time>2018-05-29T10:48:48.075Z</time>
      </trkpt>
      <trkpt lat="37.41374167" lon="-4.39220167">
        <ele>670.0</ele>
        <time>2018-05-29T10:48:49.082Z</time>
      </trkpt>
      <trkpt lat="37.41372667" lon="-4.39214167">
        <ele>669.0</ele>
        <time>2018-05-29T10:48:50.075Z</time>
      </trkpt>
      <trkpt lat="37.41372667" lon="-4.39214167">
        <ele>669.0</ele>
        <time>2018-05-29T10:48:51.084Z</time>
      </trkpt>
      <trkpt lat="37.4137" lon="-4.392095">
        <ele>668.0</ele>
        <time>2018-05-29T10:48:52.077Z</time>
      </trkpt>
      <trkpt lat="37.4137" lon="-4.392095">
        <ele>668.0</ele>
        <time>2018-05-29T10:48:53.093Z</time>
      </trkpt>
      <trkpt lat="37.413655" lon="-4.39208">
        <ele>667.0</ele>
        <time>2018-05-29T10:48:54.064Z</time>
      </trkpt>
      <trkpt lat="37.413655" lon="-4.39208">
        <ele>667.0</ele>
        <time>2018-05-29T10:48:55.070Z</time>
      </trkpt>
      <trkpt lat="37.41361" lon="-4.39208667">
        <ele>666.0</ele>
        <time>2018-05-29T10:48:56.060Z</time>
      </trkpt>
      <trkpt lat="37.41361" lon="-4.39208667">
        <ele>666.0</ele>
        <time>2018-05-29T10:48:57.067Z</time>
      </trkpt>
      <trkpt lat="37.413565" lon="-4.39212833">
        <ele>665.0</ele>
        <time>2018-05-29T10:48:58.057Z</time>
      </trkpt>
      <trkpt lat="37.413565" lon="-4.39212833">
        <ele>665.0</ele>
        <time>2018-05-29T10:48:59.063Z</time>
      </trkpt>
      <trkpt lat="37.41349667" lon="-4.39216167">
        <ele>665.0</ele>
        <time>2018-05-29T10:49:00.084Z</time>
      </trkpt>
      <trkpt lat="37.41349667" lon="-4.39216167">
        <ele>665.0</ele>
        <time>2018-05-29T10:49:01.089Z</time>
      </trkpt>
      <trkpt lat="37.41343833" lon="-4.39219">
        <ele>664.0</ele>
        <time>2018-05-29T10:49:02.079Z</time>
      </trkpt>
      <trkpt lat="37.41343833" lon="-4.39219">
        <ele>664.0</ele>
        <time>2018-05-29T10:49:03.086Z</time>
      </trkpt>
      <trkpt lat="37.41339667" lon="-4.39223833">
        <ele>662.0</ele>
        <time>2018-05-29T10:49:04.071Z</time>
      </trkpt>
      <trkpt lat="37.41339667" lon="-4.39223833">
        <ele>662.0</ele>
        <time>2018-05-29T10:49:05.082Z</time>
      </trkpt>
      <trkpt lat="37.41333833" lon="-4.39227667">
        <ele>661.0</ele>
        <time>2018-05-29T10:49:06.080Z</time>
      </trkpt>
      <trkpt lat="37.41333833" lon="-4.39227667">
        <ele>661.0</ele>
        <time>2018-05-29T10:49:07.085Z</time>
      </trkpt>
      <trkpt lat="37.41327833" lon="-4.392305">
        <ele>659.0</ele>
        <time>2018-05-29T10:49:08.076Z</time>
      </trkpt>
      <trkpt lat="37.41325" lon="-4.39231667">
        <ele>658.0</ele>
        <time>2018-05-29T10:49:09.062Z</time>
      </trkpt>
      <trkpt lat="37.41325" lon="-4.39231667">
        <ele>658.0</ele>
        <time>2018-05-29T10:49:10.068Z</time>
      </trkpt>
      <trkpt lat="37.41320167" lon="-4.39235667">
        <ele>657.0</ele>
        <time>2018-05-29T10:49:11.062Z</time>
      </trkpt>
      <trkpt lat="37.41318833" lon="-4.39238333">
        <ele>656.0</ele>
        <time>2018-05-29T10:49:12.061Z</time>
      </trkpt>
      <trkpt lat="37.41318833" lon="-4.39238333">
        <ele>656.0</ele>
        <time>2018-05-29T10:49:13.067Z</time>
      </trkpt>
      <trkpt lat="37.41315167" lon="-4.39244167">
        <ele>655.0</ele>
        <time>2018-05-29T10:49:14.068Z</time>
      </trkpt>
      <trkpt lat="37.413125" lon="-4.39246833">
        <ele>654.0</ele>
        <time>2018-05-29T10:49:15.058Z</time>
      </trkpt>
      <trkpt lat="37.413125" lon="-4.39246833">
        <ele>654.0</ele>
        <time>2018-05-29T10:49:16.063Z</time>
      </trkpt>
      <trkpt lat="37.413085" lon="-4.39253167">
        <ele>653.0</ele>
        <time>2018-05-29T10:49:17.085Z</time>
      </trkpt>
      <trkpt lat="37.413085" lon="-4.39253167">
        <ele>653.0</ele>
        <time>2018-05-29T10:49:18.091Z</time>
      </trkpt>
      <trkpt lat="37.41305167" lon="-4.392585">
        <ele>652.0</ele>
        <time>2018-05-29T10:49:19.084Z</time>
      </trkpt>
      <trkpt lat="37.41305167" lon="-4.392585">
        <ele>652.0</ele>
        <time>2018-05-29T10:49:20.090Z</time>
      </trkpt>
      <trkpt lat="37.41303833" lon="-4.39263833">
        <ele>652.0</ele>
        <time>2018-05-29T10:49:21.070Z</time>
      </trkpt>
      <trkpt lat="37.41303333" lon="-4.39267167">
        <ele>651.0</ele>
        <time>2018-05-29T10:49:22.084Z</time>
      </trkpt>
      <trkpt lat="37.41303333" lon="-4.39267167">
        <ele>651.0</ele>
        <time>2018-05-29T10:49:23.090Z</time>
      </trkpt>
      <trkpt lat="37.41301" lon="-4.39272833">
        <ele>651.0</ele>
        <time>2018-05-29T10:49:24.080Z</time>
      </trkpt>
      <trkpt lat="37.41301" lon="-4.39272833">
        <ele>651.0</ele>
        <time>2018-05-29T10:49:25.086Z</time>
      </trkpt>
      <trkpt lat="37.412955" lon="-4.392785">
        <ele>650.0</ele>
        <time>2018-05-29T10:49:26.093Z</time>
      </trkpt>
      <trkpt lat="37.41292" lon="-4.39282333">
        <ele>650.0</ele>
        <time>2018-05-29T10:49:27.092Z</time>
      </trkpt>
      <trkpt lat="37.41292" lon="-4.39282333">
        <ele>650.0</ele>
        <time>2018-05-29T10:49:28.058Z</time>
      </trkpt>
      <trkpt lat="37.41286167" lon="-4.392885">
        <ele>649.0</ele>
        <time>2018-05-29T10:49:29.081Z</time>
      </trkpt>
      <trkpt lat="37.41284333" lon="-4.39290667">
        <ele>649.0</ele>
        <time>2018-05-29T10:49:30.084Z</time>
      </trkpt>
      <trkpt lat="37.41284333" lon="-4.39290667">
        <ele>649.0</ele>
        <time>2018-05-29T10:49:31.094Z</time>
      </trkpt>
      <trkpt lat="37.41280833" lon="-4.39292667">
        <ele>649.0</ele>
        <time>2018-05-29T10:49:32.070Z</time>
      </trkpt>
      <trkpt lat="37.41278833" lon="-4.39293">
        <ele>649.0</ele>
        <time>2018-05-29T10:49:33.084Z</time>
      </trkpt>
      <trkpt lat="37.41278833" lon="-4.39293">
        <ele>649.0</ele>
        <time>2018-05-29T10:49:34.089Z</time>
      </trkpt>
      <trkpt lat="37.41274333" lon="-4.39292667">
        <ele>648.0</ele>
        <time>2018-05-29T10:49:35.061Z</time>
      </trkpt>
      <trkpt lat="37.41272" lon="-4.39292667">
        <ele>648.0</ele>
        <time>2018-05-29T10:49:36.081Z</time>
      </trkpt>
      <trkpt lat="37.41272" lon="-4.39292667">
        <ele>648.0</ele>
        <time>2018-05-29T10:49:37.086Z</time>
      </trkpt>
      <trkpt lat="37.41267833" lon="-4.39293667">
        <ele>648.0</ele>
        <time>2018-05-29T10:49:38.065Z</time>
      </trkpt>
      <trkpt lat="37.41265833" lon="-4.39295">
        <ele>647.0</ele>
        <time>2018-05-29T10:49:39.068Z</time>
      </trkpt>
      <trkpt lat="37.41264" lon="-4.39297167">
        <ele>647.0</ele>
        <time>2018-05-29T10:49:40.062Z</time>
      </trkpt>
      <trkpt lat="37.41264" lon="-4.39297167">
        <ele>647.0</ele>
        <time>2018-05-29T10:49:41.068Z</time>
      </trkpt>
      <trkpt lat="37.412605" lon="-4.39300833">
        <ele>647.0</ele>
        <time>2018-05-29T10:49:42.066Z</time>
      </trkpt>
      <trkpt lat="37.412605" lon="-4.39300833">
        <ele>647.0</ele>
        <time>2018-05-29T10:49:43.071Z</time>
      </trkpt>
      <trkpt lat="37.41258833" lon="-4.39305">
        <ele>647.0</ele>
        <time>2018-05-29T10:49:44.062Z</time>
      </trkpt>
      <trkpt lat="37.41258833" lon="-4.39305">
        <ele>647.0</ele>
        <time>2018-05-29T10:49:45.069Z</time>
      </trkpt>
      <trkpt lat="37.41256833" lon="-4.39309833">
        <ele>647.0</ele>
        <time>2018-05-29T10:49:46.073Z</time>
      </trkpt>
      <trkpt lat="37.41256833" lon="-4.39309833">
        <ele>647.0</ele>
        <time>2018-05-29T10:49:47.080Z</time>
      </trkpt>
      <trkpt lat="37.412555" lon="-4.39314667">
        <ele>648.0</ele>
        <time>2018-05-29T10:49:48.062Z</time>
      </trkpt>
      <trkpt lat="37.412555" lon="-4.39314667">
        <ele>648.0</ele>
        <time>2018-05-29T10:49:49.067Z</time>
      </trkpt>
      <trkpt lat="37.41254833" lon="-4.39320167">
        <ele>650.0</ele>
        <time>2018-05-29T10:49:50.061Z</time>
      </trkpt>
      <trkpt lat="37.41254833" lon="-4.39320167">
        <ele>650.0</ele>
        <time>2018-05-29T10:49:51.066Z</time>
      </trkpt>
      <trkpt lat="37.412545" lon="-4.393255">
        <ele>651.0</ele>
        <time>2018-05-29T10:49:52.094Z</time>
      </trkpt>
      <trkpt lat="37.412545" lon="-4.393255">
        <ele>651.0</ele>
        <time>2018-05-29T10:49:53.093Z</time>
      </trkpt>
      <trkpt lat="37.41253167" lon="-4.39329833">
        <ele>652.0</ele>
        <time>2018-05-29T10:49:54.057Z</time>
      </trkpt>
      <trkpt lat="37.41253167" lon="-4.39329833">
        <ele>652.0</ele>
        <time>2018-05-29T10:49:55.062Z</time>
      </trkpt>
      <trkpt lat="37.41251667" lon="-4.39333167">
        <ele>653.0</ele>
        <time>2018-05-29T10:49:56.094Z</time>
      </trkpt>
      <trkpt lat="37.41251167" lon="-4.39334667">
        <ele>653.0</ele>
        <time>2018-05-29T10:49:57.087Z</time>
      </trkpt>
      <trkpt lat="37.41250833" lon="-4.39336">
        <ele>654.0</ele>
        <time>2018-05-29T10:49:58.071Z</time>
      </trkpt>
      <trkpt lat="37.41250833" lon="-4.39336">
        <ele>654.0</ele>
        <time>2018-05-29T10:49:59.079Z</time>
      </trkpt>
      <trkpt lat="37.41250833" lon="-4.39338667">
        <ele>655.0</ele>
        <time>2018-05-29T10:50:00.065Z</time>
      </trkpt>
      <trkpt lat="37.41250833" lon="-4.39338667">
        <ele>655.0</ele>
        <time>2018-05-29T10:50:01.071Z</time>
      </trkpt>
      <trkpt lat="37.41251" lon="-4.39341">
        <ele>654.0</ele>
        <time>2018-05-29T10:50:02.074Z</time>
      </trkpt>
      <trkpt lat="37.41251167" lon="-4.39340833">
        <ele>654.0</ele>
        <time>2018-05-29T10:50:03.069Z</time>
      </trkpt>
      <trkpt lat="37.41251167" lon="-4.39340833">
        <ele>654.0</ele>
        <time>2018-05-29T10:50:04.076Z</time>
      </trkpt>
      <trkpt lat="37.41251167" lon="-4.39340833">
        <ele>654.0</ele>
        <time>2018-05-29T10:50:05.074Z</time>
      </trkpt>
      <trkpt lat="37.41251833" lon="-4.39337667">
        <ele>643.0</ele>
        <time>2018-05-29T10:50:06.088Z</time>
      </trkpt>
      <trkpt lat="37.41251833" lon="-4.39337667">
        <ele>643.0</ele>
        <time>2018-05-29T10:50:07.080Z</time>
      </trkpt>
      <trkpt lat="37.41251667" lon="-4.39336333">
        <ele>643.0</ele>
        <time>2018-05-29T10:50:08.059Z</time>
      </trkpt>
      <trkpt lat="37.41251667" lon="-4.39336167">
        <ele>643.0</ele>
        <time>2018-05-29T10:50:09.076Z</time>
      </trkpt>
      <trkpt lat="37.41251667" lon="-4.39336167">
        <ele>643.0</ele>
        <time>2018-05-29T10:50:10.069Z</time>
      </trkpt>
      <trkpt lat="37.41250333" lon="-4.39346167">
        <ele>645.0</ele>
        <time>2018-05-29T10:50:11.080Z</time>
      </trkpt>
      <trkpt lat="37.41250333" lon="-4.39346167">
        <ele>645.0</ele>
        <time>2018-05-29T10:50:12.071Z</time>
      </trkpt>
      <trkpt lat="37.41249833" lon="-4.39349833">
        <ele>645.0</ele>
        <time>2018-05-29T10:50:13.069Z</time>
      </trkpt>
      <trkpt lat="37.41249833" lon="-4.39349833">
        <ele>645.0</ele>
        <time>2018-05-29T10:50:14.088Z</time>
      </trkpt>
      <trkpt lat="37.41249667" lon="-4.39353667">
        <ele>646.0</ele>
        <time>2018-05-29T10:50:15.066Z</time>
      </trkpt>
      <trkpt lat="37.41249667" lon="-4.39353667">
        <ele>646.0</ele>
        <time>2018-05-29T10:50:16.083Z</time>
      </trkpt>
      <trkpt lat="37.41248833" lon="-4.393575">
        <ele>646.0</ele>
        <time>2018-05-29T10:50:17.058Z</time>
      </trkpt>
      <trkpt lat="37.41248833" lon="-4.393575">
        <ele>646.0</ele>
        <time>2018-05-29T10:50:18.079Z</time>
      </trkpt>
      <trkpt lat="37.41247833" lon="-4.39361167">
        <ele>647.0</ele>
        <time>2018-05-29T10:50:19.057Z</time>
      </trkpt>
      <trkpt lat="37.41247833" lon="-4.39361167">
        <ele>647.0</ele>
        <time>2018-05-29T10:50:20.057Z</time>
      </trkpt>
      <trkpt lat="37.412475" lon="-4.39365333">
        <ele>647.0</ele>
        <time>2018-05-29T10:50:21.076Z</time>
      </trkpt>
      <trkpt lat="37.412475" lon="-4.39365333">
        <ele>647.0</ele>
        <time>2018-05-29T10:50:22.064Z</time>
      </trkpt>
      <trkpt lat="37.41247167" lon="-4.39369167">
        <ele>648.0</ele>
        <time>2018-05-29T10:50:23.076Z</time>
      </trkpt>
      <trkpt lat="37.41247167" lon="-4.39369167">
        <ele>648.0</ele>
        <time>2018-05-29T10:50:24.089Z</time>
      </trkpt>
      <trkpt lat="37.41247" lon="-4.39373833">
        <ele>649.0</ele>
        <time>2018-05-29T10:50:25.064Z</time>
      </trkpt>
      <trkpt lat="37.41246667" lon="-4.39375667">
        <ele>649.0</ele>
        <time>2018-05-29T10:50:26.097Z</time>
      </trkpt>
      <trkpt lat="37.41246667" lon="-4.39375667">
        <ele>649.0</ele>
        <time>2018-05-29T10:50:27.072Z</time>
      </trkpt>
      <trkpt lat="37.41246" lon="-4.393795">
        <ele>650.0</ele>
        <time>2018-05-29T10:50:28.068Z</time>
      </trkpt>
      <trkpt lat="37.41246" lon="-4.393795">
        <ele>650.0</ele>
        <time>2018-05-29T10:50:29.086Z</time>
      </trkpt>
      <trkpt lat="37.41245167" lon="-4.39383333">
        <ele>651.0</ele>
        <time>2018-05-29T10:50:30.079Z</time>
      </trkpt>
      <trkpt lat="37.41245167" lon="-4.39383333">
        <ele>651.0</ele>
        <time>2018-05-29T10:50:31.062Z</time>
      </trkpt>
      <trkpt lat="37.41243167" lon="-4.393865">
        <ele>652.0</ele>
        <time>2018-05-29T10:50:32.091Z</time>
      </trkpt>
      <trkpt lat="37.41243167" lon="-4.393865">
        <ele>652.0</ele>
        <time>2018-05-29T10:50:33.061Z</time>
      </trkpt>
      <trkpt lat="37.41240667" lon="-4.39388833">
        <ele>653.0</ele>
        <time>2018-05-29T10:50:34.060Z</time>
      </trkpt>
      <trkpt lat="37.41238833" lon="-4.39389">
        <ele>653.0</ele>
        <time>2018-05-29T10:50:35.080Z</time>
      </trkpt>
      <trkpt lat="37.41238833" lon="-4.39389">
        <ele>653.0</ele>
        <time>2018-05-29T10:50:36.083Z</time>
      </trkpt>
      <trkpt lat="37.41235833" lon="-4.393885">
        <ele>654.0</ele>
        <time>2018-05-29T10:50:37.057Z</time>
      </trkpt>
      <trkpt lat="37.41235833" lon="-4.393885">
        <ele>654.0</ele>
        <time>2018-05-29T10:50:38.081Z</time>
      </trkpt>
      <trkpt lat="37.41233333" lon="-4.39387833">
        <ele>654.0</ele>
        <time>2018-05-29T10:50:39.077Z</time>
      </trkpt>
      <trkpt lat="37.41231833" lon="-4.39386833">
        <ele>654.0</ele>
        <time>2018-05-29T10:50:40.075Z</time>
      </trkpt>
      <trkpt lat="37.41231833" lon="-4.39386833">
        <ele>654.0</ele>
        <time>2018-05-29T10:50:41.089Z</time>
      </trkpt>
      <trkpt lat="37.41229167" lon="-4.393835">
        <ele>655.0</ele>
        <time>2018-05-29T10:50:42.062Z</time>
      </trkpt>
      <trkpt lat="37.41229167" lon="-4.393835">
        <ele>655.0</ele>
        <time>2018-05-29T10:50:43.094Z</time>
      </trkpt>
      <trkpt lat="37.41227167" lon="-4.3938">
        <ele>656.0</ele>
        <time>2018-05-29T10:50:44.076Z</time>
      </trkpt>
      <trkpt lat="37.41226333" lon="-4.39378167">
        <ele>656.0</ele>
        <time>2018-05-29T10:50:45.067Z</time>
      </trkpt>
      <trkpt lat="37.41226333" lon="-4.39378167">
        <ele>656.0</ele>
        <time>2018-05-29T10:50:46.064Z</time>
      </trkpt>
      <trkpt lat="37.41224833" lon="-4.39375167">
        <ele>657.0</ele>
        <time>2018-05-29T10:50:47.066Z</time>
      </trkpt>
      <trkpt lat="37.41224833" lon="-4.39375167">
        <ele>657.0</ele>
        <time>2018-05-29T10:50:48.088Z</time>
      </trkpt>
      <trkpt lat="37.412245" lon="-4.393735">
        <ele>658.0</ele>
        <time>2018-05-29T10:50:49.060Z</time>
      </trkpt>
      <trkpt lat="37.41224" lon="-4.393725">
        <ele>658.0</ele>
        <time>2018-05-29T10:50:50.084Z</time>
      </trkpt>
      <trkpt lat="37.41224" lon="-4.393725">
        <ele>658.0</ele>
        <time>2018-05-29T10:50:51.078Z</time>
      </trkpt>
      <trkpt lat="37.41222667" lon="-4.39369667">
        <ele>659.0</ele>
        <time>2018-05-29T10:50:52.093Z</time>
      </trkpt>
      <trkpt lat="37.41222667" lon="-4.39369667">
        <ele>659.0</ele>
        <time>2018-05-29T10:50:53.082Z</time>
      </trkpt>
      <trkpt lat="37.41221333" lon="-4.39367">
        <ele>659.0</ele>
        <time>2018-05-29T10:50:54.061Z</time>
      </trkpt>
      <trkpt lat="37.412205" lon="-4.39365667">
        <ele>660.0</ele>
        <time>2018-05-29T10:50:55.093Z</time>
      </trkpt>
      <trkpt lat="37.412205" lon="-4.39365667">
        <ele>660.0</ele>
        <time>2018-05-29T10:50:56.068Z</time>
      </trkpt>
      <trkpt lat="37.412185" lon="-4.39362667">
        <ele>661.0</ele>
        <time>2018-05-29T10:50:57.090Z</time>
      </trkpt>
      <trkpt lat="37.412185" lon="-4.39362667">
        <ele>661.0</ele>
        <time>2018-05-29T10:50:58.081Z</time>
      </trkpt>
      <trkpt lat="37.41216333" lon="-4.3936">
        <ele>662.0</ele>
        <time>2018-05-29T10:50:59.061Z</time>
      </trkpt>
      <trkpt lat="37.41215333" lon="-4.39358833">
        <ele>662.0</ele>
        <time>2018-05-29T10:51:00.060Z</time>
      </trkpt>
      <trkpt lat="37.41214167" lon="-4.39357833">
        <ele>662.0</ele>
        <time>2018-05-29T10:51:01.059Z</time>
      </trkpt>
      <trkpt lat="37.41214167" lon="-4.39357833">
        <ele>662.0</ele>
        <time>2018-05-29T10:51:02.093Z</time>
      </trkpt>
      <trkpt lat="37.41211833" lon="-4.39355833">
        <ele>663.0</ele>
        <time>2018-05-29T10:51:03.070Z</time>
      </trkpt>
      <trkpt lat="37.41211833" lon="-4.39355833">
        <ele>663.0</ele>
        <time>2018-05-29T10:51:04.083Z</time>
      </trkpt>
      <trkpt lat="37.41209167" lon="-4.39354167">
        <ele>664.0</ele>
        <time>2018-05-29T10:51:05.070Z</time>
      </trkpt>
      <trkpt lat="37.41209167" lon="-4.39354167">
        <ele>664.0</ele>
        <time>2018-05-29T10:51:06.081Z</time>
      </trkpt>
      <trkpt lat="37.412065" lon="-4.39352333">
        <ele>664.0</ele>
        <time>2018-05-29T10:51:07.077Z</time>
      </trkpt>
      <trkpt lat="37.412065" lon="-4.39352333">
        <ele>664.0</ele>
        <time>2018-05-29T10:51:08.092Z</time>
      </trkpt>
      <trkpt lat="37.412045" lon="-4.39351167">
        <ele>665.0</ele>
        <time>2018-05-29T10:51:09.066Z</time>
      </trkpt>
      <trkpt lat="37.412045" lon="-4.39351167">
        <ele>665.0</ele>
        <time>2018-05-29T10:51:10.070Z</time>
      </trkpt>
      <trkpt lat="37.41202667" lon="-4.39350667">
        <ele>666.0</ele>
        <time>2018-05-29T10:51:11.086Z</time>
      </trkpt>
      <trkpt lat="37.41202667" lon="-4.39350667">
        <ele>666.0</ele>
        <time>2018-05-29T10:51:12.059Z</time>
      </trkpt>
      <trkpt lat="37.41201" lon="-4.39350333">
        <ele>667.0</ele>
        <time>2018-05-29T10:51:13.075Z</time>
      </trkpt>
      <trkpt lat="37.41201" lon="-4.39350333">
        <ele>667.0</ele>
        <time>2018-05-29T10:51:14.080Z</time>
      </trkpt>
      <trkpt lat="37.41198333" lon="-4.39350667">
        <ele>667.0</ele>
        <time>2018-05-29T10:51:15.093Z</time>
      </trkpt>
      <trkpt lat="37.41196667" lon="-4.39351167">
        <ele>668.0</ele>
        <time>2018-05-29T10:51:16.072Z</time>
      </trkpt>
      <trkpt lat="37.41196667" lon="-4.39351167">
        <ele>668.0</ele>
        <time>2018-05-29T10:51:17.067Z</time>
      </trkpt>
      <trkpt lat="37.41193833" lon="-4.39352">
        <ele>669.0</ele>
        <time>2018-05-29T10:51:18.083Z</time>
      </trkpt>
      <trkpt lat="37.41193833" lon="-4.39352">
        <ele>669.0</ele>
        <time>2018-05-29T10:51:19.076Z</time>
      </trkpt>
      <trkpt lat="37.41191" lon="-4.39351833">
        <ele>669.0</ele>
        <time>2018-05-29T10:51:20.088Z</time>
      </trkpt>
      <trkpt lat="37.41191" lon="-4.39351833">
        <ele>669.0</ele>
        <time>2018-05-29T10:51:21.094Z</time>
      </trkpt>
      <trkpt lat="37.41188167" lon="-4.39351833">
        <ele>670.0</ele>
        <time>2018-05-29T10:51:22.084Z</time>
      </trkpt>
      <trkpt lat="37.41188167" lon="-4.39351833">
        <ele>670.0</ele>
        <time>2018-05-29T10:51:23.076Z</time>
      </trkpt>
      <trkpt lat="37.411855" lon="-4.39352667">
        <ele>671.0</ele>
        <time>2018-05-29T10:51:24.094Z</time>
      </trkpt>
      <trkpt lat="37.411855" lon="-4.39352667">
        <ele>671.0</ele>
        <time>2018-05-29T10:51:25.067Z</time>
      </trkpt>
      <trkpt lat="37.41183167" lon="-4.39353167">
        <ele>672.0</ele>
        <time>2018-05-29T10:51:26.087Z</time>
      </trkpt>
      <trkpt lat="37.41183167" lon="-4.39353167">
        <ele>672.0</ele>
        <time>2018-05-29T10:51:27.059Z</time>
      </trkpt>
      <trkpt lat="37.41181" lon="-4.39353">
        <ele>673.0</ele>
        <time>2018-05-29T10:51:28.076Z</time>
      </trkpt>
      <trkpt lat="37.41181" lon="-4.39353">
        <ele>673.0</ele>
        <time>2018-05-29T10:51:29.061Z</time>
      </trkpt>
      <trkpt lat="37.411785" lon="-4.393535">
        <ele>673.0</ele>
        <time>2018-05-29T10:51:30.084Z</time>
      </trkpt>
      <trkpt lat="37.41177333" lon="-4.393535">
        <ele>674.0</ele>
        <time>2018-05-29T10:51:31.072Z</time>
      </trkpt>
      <trkpt lat="37.41177333" lon="-4.393535">
        <ele>674.0</ele>
        <time>2018-05-29T10:51:32.057Z</time>
      </trkpt>
      <trkpt lat="37.41174667" lon="-4.39353833">
        <ele>674.0</ele>
        <time>2018-05-29T10:51:33.073Z</time>
      </trkpt>
      <trkpt lat="37.41173167" lon="-4.39353833">
        <ele>675.0</ele>
        <time>2018-05-29T10:51:34.083Z</time>
      </trkpt>
      <trkpt lat="37.41173167" lon="-4.39353833">
        <ele>675.0</ele>
        <time>2018-05-29T10:51:35.063Z</time>
      </trkpt>
      <trkpt lat="37.41170667" lon="-4.39354">
        <ele>675.0</ele>
        <time>2018-05-29T10:51:36.078Z</time>
      </trkpt>
      <trkpt lat="37.41169333" lon="-4.39354167">
        <ele>675.0</ele>
        <time>2018-05-29T10:51:37.080Z</time>
      </trkpt>
      <trkpt lat="37.41169333" lon="-4.39354167">
        <ele>675.0</ele>
        <time>2018-05-29T10:51:38.070Z</time>
      </trkpt>
      <trkpt lat="37.41166833" lon="-4.39355">
        <ele>676.0</ele>
        <time>2018-05-29T10:51:39.094Z</time>
      </trkpt>
      <trkpt lat="37.41166833" lon="-4.39355">
        <ele>676.0</ele>
        <time>2018-05-29T10:51:40.067Z</time>
      </trkpt>
      <trkpt lat="37.41164" lon="-4.393545">
        <ele>676.0</ele>
        <time>2018-05-29T10:51:41.091Z</time>
      </trkpt>
      <trkpt lat="37.41162667" lon="-4.393545">
        <ele>676.0</ele>
        <time>2018-05-29T10:51:42.077Z</time>
      </trkpt>
      <trkpt lat="37.411615" lon="-4.39354833">
        <ele>676.0</ele>
        <time>2018-05-29T10:51:43.060Z</time>
      </trkpt>
      <trkpt lat="37.411615" lon="-4.39354833">
        <ele>676.0</ele>
        <time>2018-05-29T10:51:44.085Z</time>
      </trkpt>
      <trkpt lat="37.41158833" lon="-4.39355167">
        <ele>676.0</ele>
        <time>2018-05-29T10:51:45.070Z</time>
      </trkpt>
      <trkpt lat="37.411575" lon="-4.39355167">
        <ele>677.0</ele>
        <time>2018-05-29T10:51:46.086Z</time>
      </trkpt>
      <trkpt lat="37.411575" lon="-4.39355167">
        <ele>677.0</ele>
        <time>2018-05-29T10:51:47.061Z</time>
      </trkpt>
      <trkpt lat="37.41154833" lon="-4.393555">
        <ele>677.0</ele>
        <time>2018-05-29T10:51:48.073Z</time>
      </trkpt>
      <trkpt lat="37.41153667" lon="-4.393555">
        <ele>677.0</ele>
        <time>2018-05-29T10:51:49.073Z</time>
      </trkpt>
      <trkpt lat="37.41153667" lon="-4.393555">
        <ele>677.0</ele>
        <time>2018-05-29T10:51:50.063Z</time>
      </trkpt>
      <trkpt lat="37.41151167" lon="-4.39355667">
        <ele>677.0</ele>
        <time>2018-05-29T10:51:51.090Z</time>
      </trkpt>
      <trkpt lat="37.41151167" lon="-4.39355667">
        <ele>677.0</ele>
        <time>2018-05-29T10:51:52.069Z</time>
      </trkpt>
      <trkpt lat="37.41148333" lon="-4.39355667">
        <ele>678.0</ele>
        <time>2018-05-29T10:51:53.085Z</time>
      </trkpt>
      <trkpt lat="37.41148333" lon="-4.39355667">
        <ele>678.0</ele>
        <time>2018-05-29T10:51:54.080Z</time>
      </trkpt>
      <trkpt lat="37.41146" lon="-4.39355">
        <ele>678.0</ele>
        <time>2018-05-29T10:51:55.060Z</time>
      </trkpt>
      <trkpt lat="37.41146" lon="-4.39355">
        <ele>678.0</ele>
        <time>2018-05-29T10:51:56.082Z</time>
      </trkpt>
      <trkpt lat="37.41143333" lon="-4.39354167">
        <ele>678.0</ele>
        <time>2018-05-29T10:51:57.060Z</time>
      </trkpt>
      <trkpt lat="37.41143333" lon="-4.39354167">
        <ele>678.0</ele>
        <time>2018-05-29T10:51:58.082Z</time>
      </trkpt>
      <trkpt lat="37.41140333" lon="-4.39354167">
        <ele>678.0</ele>
        <time>2018-05-29T10:51:59.097Z</time>
      </trkpt>
      <trkpt lat="37.41140333" lon="-4.39354167">
        <ele>678.0</ele>
        <time>2018-05-29T10:52:00.090Z</time>
      </trkpt>
      <trkpt lat="37.41137667" lon="-4.393545">
        <ele>678.0</ele>
        <time>2018-05-29T10:52:01.083Z</time>
      </trkpt>
      <trkpt lat="37.41137667" lon="-4.393545">
        <ele>678.0</ele>
        <time>2018-05-29T10:52:02.079Z</time>
      </trkpt>
      <trkpt lat="37.41135167" lon="-4.39355667">
        <ele>678.0</ele>
        <time>2018-05-29T10:52:03.100Z</time>
      </trkpt>
      <trkpt lat="37.41135167" lon="-4.39355667">
        <ele>678.0</ele>
        <time>2018-05-29T10:52:04.091Z</time>
      </trkpt>
      <trkpt lat="37.41132667" lon="-4.39356833">
        <ele>679.0</ele>
        <time>2018-05-29T10:52:05.071Z</time>
      </trkpt>
      <trkpt lat="37.41132667" lon="-4.39356833">
        <ele>679.0</ele>
        <time>2018-05-29T10:52:06.064Z</time>
      </trkpt>
      <trkpt lat="37.41130167" lon="-4.39357667">
        <ele>679.0</ele>
        <time>2018-05-29T10:52:07.095Z</time>
      </trkpt>
      <trkpt lat="37.41130167" lon="-4.39357667">
        <ele>679.0</ele>
        <time>2018-05-29T10:52:08.084Z</time>
      </trkpt>
      <trkpt lat="37.411275" lon="-4.39358167">
        <ele>679.0</ele>
        <time>2018-05-29T10:52:09.064Z</time>
      </trkpt>
      <trkpt lat="37.411275" lon="-4.39358167">
        <ele>679.0</ele>
        <time>2018-05-29T10:52:10.060Z</time>
      </trkpt>
      <trkpt lat="37.41125" lon="-4.39358833">
        <ele>679.0</ele>
        <time>2018-05-29T10:52:11.078Z</time>
      </trkpt>
      <trkpt lat="37.41125" lon="-4.39358833">
        <ele>679.0</ele>
        <time>2018-05-29T10:52:12.064Z</time>
      </trkpt>
      <trkpt lat="37.41122667" lon="-4.3936">
        <ele>679.0</ele>
        <time>2018-05-29T10:52:13.079Z</time>
      </trkpt>
      <trkpt lat="37.41122667" lon="-4.3936">
        <ele>679.0</ele>
        <time>2018-05-29T10:52:14.076Z</time>
      </trkpt>
      <trkpt lat="37.41119833" lon="-4.393615">
        <ele>680.0</ele>
        <time>2018-05-29T10:52:15.096Z</time>
      </trkpt>
      <trkpt lat="37.41119833" lon="-4.393615">
        <ele>680.0</ele>
        <time>2018-05-29T10:52:16.082Z</time>
      </trkpt>
      <trkpt lat="37.41116333" lon="-4.39363167">
        <ele>680.0</ele>
        <time>2018-05-29T10:52:17.060Z</time>
      </trkpt>
      <trkpt lat="37.41114167" lon="-4.39364167">
        <ele>679.0</ele>
        <time>2018-05-29T10:52:18.094Z</time>
      </trkpt>
      <trkpt lat="37.41114167" lon="-4.39364167">
        <ele>679.0</ele>
        <time>2018-05-29T10:52:19.065Z</time>
      </trkpt>
      <trkpt lat="37.41109667" lon="-4.393665">
        <ele>679.0</ele>
        <time>2018-05-29T10:52:20.080Z</time>
      </trkpt>
      <trkpt lat="37.41107667" lon="-4.39367833">
        <ele>680.0</ele>
        <time>2018-05-29T10:52:21.095Z</time>
      </trkpt>
      <trkpt lat="37.41107667" lon="-4.39367833">
        <ele>680.0</ele>
        <time>2018-05-29T10:52:22.072Z</time>
      </trkpt>
      <trkpt lat="37.41103833" lon="-4.39370333">
        <ele>679.0</ele>
        <time>2018-05-29T10:52:23.058Z</time>
      </trkpt>
      <trkpt lat="37.41102" lon="-4.39372167">
        <ele>679.0</ele>
        <time>2018-05-29T10:52:24.078Z</time>
      </trkpt>
      <trkpt lat="37.41102" lon="-4.39372167">
        <ele>679.0</ele>
        <time>2018-05-29T10:52:25.084Z</time>
      </trkpt>
      <trkpt lat="37.41098667" lon="-4.39376333">
        <ele>680.0</ele>
        <time>2018-05-29T10:52:26.056Z</time>
      </trkpt>
      <trkpt lat="37.41098667" lon="-4.39376333">
        <ele>680.0</ele>
        <time>2018-05-29T10:52:27.081Z</time>
      </trkpt>
      <trkpt lat="37.410955" lon="-4.393795">
        <ele>680.0</ele>
        <time>2018-05-29T10:52:28.056Z</time>
      </trkpt>
      <trkpt lat="37.410955" lon="-4.393795">
        <ele>680.0</ele>
        <time>2018-05-29T10:52:29.087Z</time>
      </trkpt>
      <trkpt lat="37.41093333" lon="-4.39382">
        <ele>680.0</ele>
        <time>2018-05-29T10:52:30.059Z</time>
      </trkpt>
      <trkpt lat="37.41092167" lon="-4.39382833">
        <ele>680.0</ele>
        <time>2018-05-29T10:52:31.065Z</time>
      </trkpt>
      <trkpt lat="37.41092167" lon="-4.39382833">
        <ele>680.0</ele>
        <time>2018-05-29T10:52:32.090Z</time>
      </trkpt>
      <trkpt lat="37.410895" lon="-4.393855">
        <ele>680.0</ele>
        <time>2018-05-29T10:52:33.074Z</time>
      </trkpt>
      <trkpt lat="37.410895" lon="-4.393855">
        <ele>680.0</ele>
        <time>2018-05-29T10:52:34.075Z</time>
      </trkpt>
      <trkpt lat="37.41086833" lon="-4.393885">
        <ele>680.0</ele>
        <time>2018-05-29T10:52:35.100Z</time>
      </trkpt>
      <trkpt lat="37.410855" lon="-4.39389">
        <ele>680.0</ele>
        <time>2018-05-29T10:52:36.100Z</time>
      </trkpt>
      <trkpt lat="37.41084" lon="-4.39389">
        <ele>680.0</ele>
        <time>2018-05-29T10:52:37.071Z</time>
      </trkpt>
      <trkpt lat="37.41081833" lon="-4.39389">
        <ele>680.0</ele>
        <time>2018-05-29T10:52:38.084Z</time>
      </trkpt>
      <trkpt lat="37.41081833" lon="-4.39389">
        <ele>680.0</ele>
        <time>2018-05-29T10:52:39.070Z</time>
      </trkpt>
      <trkpt lat="37.41076167" lon="-4.3939">
        <ele>680.0</ele>
        <time>2018-05-29T10:52:40.087Z</time>
      </trkpt>
      <trkpt lat="37.41073167" lon="-4.39391">
        <ele>680.0</ele>
        <time>2018-05-29T10:52:41.068Z</time>
      </trkpt>
      <trkpt lat="37.41073167" lon="-4.39391">
        <ele>680.0</ele>
        <time>2018-05-29T10:52:42.063Z</time>
      </trkpt>
      <trkpt lat="37.41068333" lon="-4.39393833">
        <ele>680.0</ele>
        <time>2018-05-29T10:52:43.082Z</time>
      </trkpt>
      <trkpt lat="37.41066167" lon="-4.39395333">
        <ele>680.0</ele>
        <time>2018-05-29T10:52:44.090Z</time>
      </trkpt>
      <trkpt lat="37.41066167" lon="-4.39395333">
        <ele>680.0</ele>
        <time>2018-05-29T10:52:45.071Z</time>
      </trkpt>
      <trkpt lat="37.41062" lon="-4.393985">
        <ele>680.0</ele>
        <time>2018-05-29T10:52:46.056Z</time>
      </trkpt>
      <trkpt lat="37.41062" lon="-4.393985">
        <ele>680.0</ele>
        <time>2018-05-29T10:52:47.068Z</time>
      </trkpt>
      <trkpt lat="37.41057667" lon="-4.394015">
        <ele>680.0</ele>
        <time>2018-05-29T10:52:48.058Z</time>
      </trkpt>
      <trkpt lat="37.41057667" lon="-4.394015">
        <ele>680.0</ele>
        <time>2018-05-29T10:52:49.083Z</time>
      </trkpt>
      <trkpt lat="37.410535" lon="-4.39404333">
        <ele>680.0</ele>
        <time>2018-05-29T10:52:50.057Z</time>
      </trkpt>
      <trkpt lat="37.410515" lon="-4.39405667">
        <ele>680.0</ele>
        <time>2018-05-29T10:52:51.095Z</time>
      </trkpt>
      <trkpt lat="37.410515" lon="-4.39405667">
        <ele>680.0</ele>
        <time>2018-05-29T10:52:52.083Z</time>
      </trkpt>
      <trkpt lat="37.41047667" lon="-4.39408333">
        <ele>681.0</ele>
        <time>2018-05-29T10:52:53.074Z</time>
      </trkpt>
      <trkpt lat="37.41047667" lon="-4.39408333">
        <ele>681.0</ele>
        <time>2018-05-29T10:52:54.061Z</time>
      </trkpt>
      <trkpt lat="37.410435" lon="-4.39411167">
        <ele>681.0</ele>
        <time>2018-05-29T10:52:55.085Z</time>
      </trkpt>
      <trkpt lat="37.410435" lon="-4.39411167">
        <ele>681.0</ele>
        <time>2018-05-29T10:52:56.094Z</time>
      </trkpt>
      <trkpt lat="37.41039333" lon="-4.39414333">
        <ele>681.0</ele>
        <time>2018-05-29T10:52:57.085Z</time>
      </trkpt>
      <trkpt lat="37.41039333" lon="-4.39414333">
        <ele>681.0</ele>
        <time>2018-05-29T10:52:58.078Z</time>
      </trkpt>
      <trkpt lat="37.410355" lon="-4.39417333">
        <ele>681.0</ele>
        <time>2018-05-29T10:52:59.062Z</time>
      </trkpt>
      <trkpt lat="37.410355" lon="-4.39417333">
        <ele>681.0</ele>
        <time>2018-05-29T10:53:00.065Z</time>
      </trkpt>
      <trkpt lat="37.41031833" lon="-4.39419667">
        <ele>682.0</ele>
        <time>2018-05-29T10:53:01.082Z</time>
      </trkpt>
      <trkpt lat="37.41031833" lon="-4.39419667">
        <ele>682.0</ele>
        <time>2018-05-29T10:53:02.061Z</time>
      </trkpt>
      <trkpt lat="37.41028333" lon="-4.39421833">
        <ele>682.0</ele>
        <time>2018-05-29T10:53:03.078Z</time>
      </trkpt>
      <trkpt lat="37.41028333" lon="-4.39421833">
        <ele>682.0</ele>
        <time>2018-05-29T10:53:04.071Z</time>
      </trkpt>
      <trkpt lat="37.41024667" lon="-4.39423833">
        <ele>683.0</ele>
        <time>2018-05-29T10:53:05.085Z</time>
      </trkpt>
      <trkpt lat="37.41024667" lon="-4.39423833">
        <ele>683.0</ele>
        <time>2018-05-29T10:53:06.074Z</time>
      </trkpt>
      <trkpt lat="37.41020667" lon="-4.394255">
        <ele>684.0</ele>
        <time>2018-05-29T10:53:07.093Z</time>
      </trkpt>
      <trkpt lat="37.41020667" lon="-4.394255">
        <ele>684.0</ele>
        <time>2018-05-29T10:53:08.071Z</time>
      </trkpt>
      <trkpt lat="37.41016167" lon="-4.39427167">
        <ele>685.0</ele>
        <time>2018-05-29T10:53:09.092Z</time>
      </trkpt>
      <trkpt lat="37.41016167" lon="-4.39427167">
        <ele>685.0</ele>
        <time>2018-05-29T10:53:10.069Z</time>
      </trkpt>
      <trkpt lat="37.41011667" lon="-4.39429333">
        <ele>686.0</ele>
        <time>2018-05-29T10:53:11.087Z</time>
      </trkpt>
      <trkpt lat="37.41011667" lon="-4.39429333">
        <ele>686.0</ele>
        <time>2018-05-29T10:53:12.064Z</time>
      </trkpt>
      <trkpt lat="37.41007667" lon="-4.39431833">
        <ele>687.0</ele>
        <time>2018-05-29T10:53:13.083Z</time>
      </trkpt>
      <trkpt lat="37.41007667" lon="-4.39431833">
        <ele>687.0</ele>
        <time>2018-05-29T10:53:14.093Z</time>
      </trkpt>
      <trkpt lat="37.41004167" lon="-4.394345">
        <ele>688.0</ele>
        <time>2018-05-29T10:53:15.080Z</time>
      </trkpt>
      <trkpt lat="37.41002333" lon="-4.39435667">
        <ele>688.0</ele>
        <time>2018-05-29T10:53:16.088Z</time>
      </trkpt>
      <trkpt lat="37.41002333" lon="-4.39435667">
        <ele>688.0</ele>
        <time>2018-05-29T10:53:17.057Z</time>
      </trkpt>
      <trkpt lat="37.409995" lon="-4.39438833">
        <ele>689.0</ele>
        <time>2018-05-29T10:53:18.071Z</time>
      </trkpt>
      <trkpt lat="37.40998167" lon="-4.394405">
        <ele>690.0</ele>
        <time>2018-05-29T10:53:19.071Z</time>
      </trkpt>
      <trkpt lat="37.40998167" lon="-4.394405">
        <ele>690.0</ele>
        <time>2018-05-29T10:53:20.093Z</time>
      </trkpt>
      <trkpt lat="37.40995333" lon="-4.39443333">
        <ele>691.0</ele>
        <time>2018-05-29T10:53:21.079Z</time>
      </trkpt>
      <trkpt lat="37.40994167" lon="-4.39444">
        <ele>691.0</ele>
        <time>2018-05-29T10:53:22.056Z</time>
      </trkpt>
      <trkpt lat="37.40994167" lon="-4.39444">
        <ele>691.0</ele>
        <time>2018-05-29T10:53:23.090Z</time>
      </trkpt>
      <trkpt lat="37.40991833" lon="-4.39446167">
        <ele>692.0</ele>
        <time>2018-05-29T10:53:24.079Z</time>
      </trkpt>
      <trkpt lat="37.40990667" lon="-4.39447167">
        <ele>693.0</ele>
        <time>2018-05-29T10:53:25.060Z</time>
      </trkpt>
      <trkpt lat="37.40990667" lon="-4.39447167">
        <ele>693.0</ele>
        <time>2018-05-29T10:53:26.095Z</time>
      </trkpt>
      <trkpt lat="37.409885" lon="-4.39449667">
        <ele>693.0</ele>
        <time>2018-05-29T10:53:27.073Z</time>
      </trkpt>
      <trkpt lat="37.40987333" lon="-4.39450833">
        <ele>693.0</ele>
        <time>2018-05-29T10:53:28.062Z</time>
      </trkpt>
      <trkpt lat="37.40987333" lon="-4.39450833">
        <ele>693.0</ele>
        <time>2018-05-29T10:53:29.061Z</time>
      </trkpt>
      <trkpt lat="37.40985167" lon="-4.39453167">
        <ele>694.0</ele>
        <time>2018-05-29T10:53:30.077Z</time>
      </trkpt>
      <trkpt lat="37.40984333" lon="-4.39454167">
        <ele>694.0</ele>
        <time>2018-05-29T10:53:31.099Z</time>
      </trkpt>
      <trkpt lat="37.40984333" lon="-4.39454167">
        <ele>694.0</ele>
        <time>2018-05-29T10:53:32.094Z</time>
      </trkpt>
      <trkpt lat="37.409825" lon="-4.39456667">
        <ele>695.0</ele>
        <time>2018-05-29T10:53:33.075Z</time>
      </trkpt>
      <trkpt lat="37.40981833" lon="-4.39458167">
        <ele>695.0</ele>
        <time>2018-05-29T10:53:34.066Z</time>
      </trkpt>
      <trkpt lat="37.40981833" lon="-4.39458167">
        <ele>695.0</ele>
        <time>2018-05-29T10:53:35.081Z</time>
      </trkpt>
      <trkpt lat="37.40980167" lon="-4.39460667">
        <ele>695.0</ele>
        <time>2018-05-29T10:53:36.063Z</time>
      </trkpt>
      <trkpt lat="37.40979" lon="-4.394615">
        <ele>696.0</ele>
        <time>2018-05-29T10:53:37.070Z</time>
      </trkpt>
      <trkpt lat="37.40979" lon="-4.394615">
        <ele>696.0</ele>
        <time>2018-05-29T10:53:38.081Z</time>
      </trkpt>
      <trkpt lat="37.40977" lon="-4.39463833">
        <ele>695.0</ele>
        <time>2018-05-29T10:53:39.094Z</time>
      </trkpt>
      <trkpt lat="37.40977" lon="-4.39463833">
        <ele>695.0</ele>
        <time>2018-05-29T10:53:40.058Z</time>
      </trkpt>
      <trkpt lat="37.40975" lon="-4.39465833">
        <ele>696.0</ele>
        <time>2018-05-29T10:53:41.079Z</time>
      </trkpt>
      <trkpt lat="37.40975" lon="-4.39465833">
        <ele>696.0</ele>
        <time>2018-05-29T10:53:42.064Z</time>
      </trkpt>
      <trkpt lat="37.40972333" lon="-4.39468167">
        <ele>696.0</ele>
        <time>2018-05-29T10:53:43.082Z</time>
      </trkpt>
      <trkpt lat="37.40972333" lon="-4.39468167">
        <ele>696.0</ele>
        <time>2018-05-29T10:53:44.063Z</time>
      </trkpt>
      <trkpt lat="37.40969" lon="-4.39471667">
        <ele>695.0</ele>
        <time>2018-05-29T10:53:45.087Z</time>
      </trkpt>
      <trkpt lat="37.40969" lon="-4.39471667">
        <ele>695.0</ele>
        <time>2018-05-29T10:53:46.072Z</time>
      </trkpt>
      <trkpt lat="37.40963667" lon="-4.39474667">
        <ele>695.0</ele>
        <time>2018-05-29T10:53:47.093Z</time>
      </trkpt>
      <trkpt lat="37.40961167" lon="-4.39476">
        <ele>694.0</ele>
        <time>2018-05-29T10:53:48.081Z</time>
      </trkpt>
      <trkpt lat="37.40961167" lon="-4.39476">
        <ele>694.0</ele>
        <time>2018-05-29T10:53:49.081Z</time>
      </trkpt>
      <trkpt lat="37.409565" lon="-4.39481">
        <ele>694.0</ele>
        <time>2018-05-29T10:53:50.061Z</time>
      </trkpt>
      <trkpt lat="37.409565" lon="-4.39481">
        <ele>694.0</ele>
        <time>2018-05-29T10:53:51.090Z</time>
      </trkpt>
      <trkpt lat="37.40954833" lon="-4.39489333">
        <ele>693.0</ele>
        <time>2018-05-29T10:53:52.085Z</time>
      </trkpt>
      <trkpt lat="37.40954833" lon="-4.39489333">
        <ele>693.0</ele>
        <time>2018-05-29T10:53:53.061Z</time>
      </trkpt>
      <trkpt lat="37.409535" lon="-4.39498167">
        <ele>694.0</ele>
        <time>2018-05-29T10:53:54.091Z</time>
      </trkpt>
      <trkpt lat="37.40952833" lon="-4.39503167">
        <ele>694.0</ele>
        <time>2018-05-29T10:53:55.083Z</time>
      </trkpt>
      <trkpt lat="37.40952833" lon="-4.39503167">
        <ele>694.0</ele>
        <time>2018-05-29T10:53:56.092Z</time>
      </trkpt>
      <trkpt lat="37.409505" lon="-4.395125">
        <ele>694.0</ele>
        <time>2018-05-29T10:53:57.082Z</time>
      </trkpt>
      <trkpt lat="37.409505" lon="-4.395125">
        <ele>694.0</ele>
        <time>2018-05-29T10:53:58.068Z</time>
      </trkpt>
      <trkpt lat="37.40947833" lon="-4.39520667">
        <ele>694.0</ele>
        <time>2018-05-29T10:53:59.088Z</time>
      </trkpt>
      <trkpt lat="37.409465" lon="-4.395245">
        <ele>694.0</ele>
        <time>2018-05-29T10:54:00.057Z</time>
      </trkpt>
      <trkpt lat="37.409465" lon="-4.395245">
        <ele>694.0</ele>
        <time>2018-05-29T10:54:01.065Z</time>
      </trkpt>
      <trkpt lat="37.40943833" lon="-4.39531167">
        <ele>694.0</ele>
        <time>2018-05-29T10:54:02.078Z</time>
      </trkpt>
      <trkpt lat="37.40943833" lon="-4.39531167">
        <ele>694.0</ele>
        <time>2018-05-29T10:54:03.071Z</time>
      </trkpt>
      <trkpt lat="37.40942333" lon="-4.39536333">
        <ele>694.0</ele>
        <time>2018-05-29T10:54:04.092Z</time>
      </trkpt>
      <trkpt lat="37.40942" lon="-4.395385">
        <ele>694.0</ele>
        <time>2018-05-29T10:54:05.092Z</time>
      </trkpt>
      <trkpt lat="37.40942" lon="-4.395385">
        <ele>694.0</ele>
        <time>2018-05-29T10:54:06.092Z</time>
      </trkpt>
      <trkpt lat="37.409415" lon="-4.395425">
        <ele>695.0</ele>
        <time>2018-05-29T10:54:07.073Z</time>
      </trkpt>
      <trkpt lat="37.409415" lon="-4.395425">
        <ele>695.0</ele>
        <time>2018-05-29T10:54:08.090Z</time>
      </trkpt>
      <trkpt lat="37.40940667" lon="-4.395465">
        <ele>695.0</ele>
        <time>2018-05-29T10:54:09.069Z</time>
      </trkpt>
      <trkpt lat="37.40940667" lon="-4.395465">
        <ele>695.0</ele>
        <time>2018-05-29T10:54:10.063Z</time>
      </trkpt>
      <trkpt lat="37.40939167" lon="-4.39550167">
        <ele>695.0</ele>
        <time>2018-05-29T10:54:11.059Z</time>
      </trkpt>
      <trkpt lat="37.40938" lon="-4.39551667">
        <ele>695.0</ele>
        <time>2018-05-29T10:54:12.088Z</time>
      </trkpt>
      <trkpt lat="37.409365" lon="-4.39553">
        <ele>695.0</ele>
        <time>2018-05-29T10:54:13.067Z</time>
      </trkpt>
      <trkpt lat="37.409365" lon="-4.39553">
        <ele>695.0</ele>
        <time>2018-05-29T10:54:14.088Z</time>
      </trkpt>
      <trkpt lat="37.409315" lon="-4.39554">
        <ele>694.0</ele>
        <time>2018-05-29T10:54:15.057Z</time>
      </trkpt>
      <trkpt lat="37.40929167" lon="-4.39553667">
        <ele>695.0</ele>
        <time>2018-05-29T10:54:16.087Z</time>
      </trkpt>
      <trkpt lat="37.40929167" lon="-4.39553667">
        <ele>695.0</ele>
        <time>2018-05-29T10:54:17.061Z</time>
      </trkpt>
      <trkpt lat="37.40925" lon="-4.39552167">
        <ele>695.0</ele>
        <time>2018-05-29T10:54:18.085Z</time>
      </trkpt>
      <trkpt lat="37.40923" lon="-4.39551667">
        <ele>695.0</ele>
        <time>2018-05-29T10:54:19.059Z</time>
      </trkpt>
      <trkpt lat="37.40923" lon="-4.39551667">
        <ele>695.0</ele>
        <time>2018-05-29T10:54:20.064Z</time>
      </trkpt>
      <trkpt lat="37.409185" lon="-4.3955">
        <ele>695.0</ele>
        <time>2018-05-29T10:54:21.088Z</time>
      </trkpt>
      <trkpt lat="37.40916167" lon="-4.39549333">
        <ele>695.0</ele>
        <time>2018-05-29T10:54:22.084Z</time>
      </trkpt>
      <trkpt lat="37.40916167" lon="-4.39549333">
        <ele>695.0</ele>
        <time>2018-05-29T10:54:23.062Z</time>
      </trkpt>
      <trkpt lat="37.40911333" lon="-4.39548833">
        <ele>695.0</ele>
        <time>2018-05-29T10:54:24.075Z</time>
      </trkpt>
      <trkpt lat="37.40908833" lon="-4.39548833">
        <ele>695.0</ele>
        <time>2018-05-29T10:54:25.099Z</time>
      </trkpt>
      <trkpt lat="37.40908833" lon="-4.39548833">
        <ele>695.0</ele>
        <time>2018-05-29T10:54:26.080Z</time>
      </trkpt>
      <trkpt lat="37.409045" lon="-4.39549333">
        <ele>696.0</ele>
        <time>2018-05-29T10:54:27.093Z</time>
      </trkpt>
      <trkpt lat="37.409045" lon="-4.39549333">
        <ele>696.0</ele>
        <time>2018-05-29T10:54:28.073Z</time>
      </trkpt>
      <trkpt lat="37.409005" lon="-4.39551333">
        <ele>696.0</ele>
        <time>2018-05-29T10:54:29.088Z</time>
      </trkpt>
      <trkpt lat="37.40898667" lon="-4.39552333">
        <ele>697.0</ele>
        <time>2018-05-29T10:54:30.065Z</time>
      </trkpt>
      <trkpt lat="37.40898667" lon="-4.39552333">
        <ele>697.0</ele>
        <time>2018-05-29T10:54:31.089Z</time>
      </trkpt>
      <trkpt lat="37.40895333" lon="-4.39554667">
        <ele>697.0</ele>
        <time>2018-05-29T10:54:32.064Z</time>
      </trkpt>
      <trkpt lat="37.40895333" lon="-4.39554667">
        <ele>697.0</ele>
        <time>2018-05-29T10:54:33.083Z</time>
      </trkpt>
      <trkpt lat="37.40891667" lon="-4.39556667">
        <ele>698.0</ele>
        <time>2018-05-29T10:54:34.060Z</time>
      </trkpt>
      <trkpt lat="37.40891667" lon="-4.39556667">
        <ele>698.0</ele>
        <time>2018-05-29T10:54:35.092Z</time>
      </trkpt>
      <trkpt lat="37.40888167" lon="-4.39558333">
        <ele>698.0</ele>
        <time>2018-05-29T10:54:36.077Z</time>
      </trkpt>
      <trkpt lat="37.408865" lon="-4.39559833">
        <ele>698.0</ele>
        <time>2018-05-29T10:54:37.065Z</time>
      </trkpt>
      <trkpt lat="37.408865" lon="-4.39559833">
        <ele>698.0</ele>
        <time>2018-05-29T10:54:38.092Z</time>
      </trkpt>
      <trkpt lat="37.408825" lon="-4.39562167">
        <ele>699.0</ele>
        <time>2018-05-29T10:54:39.072Z</time>
      </trkpt>
      <trkpt lat="37.408825" lon="-4.39562167">
        <ele>699.0</ele>
        <time>2018-05-29T10:54:40.058Z</time>
      </trkpt>
      <trkpt lat="37.40879833" lon="-4.39564833">
        <ele>700.0</ele>
        <time>2018-05-29T10:54:41.078Z</time>
      </trkpt>
      <trkpt lat="37.408785" lon="-4.39566167">
        <ele>700.0</ele>
        <time>2018-05-29T10:54:42.060Z</time>
      </trkpt>
      <trkpt lat="37.408785" lon="-4.39566167">
        <ele>700.0</ele>
        <time>2018-05-29T10:54:43.073Z</time>
      </trkpt>
      <trkpt lat="37.40876167" lon="-4.39569">
        <ele>701.0</ele>
        <time>2018-05-29T10:54:44.092Z</time>
      </trkpt>
      <trkpt lat="37.40876167" lon="-4.39569">
        <ele>701.0</ele>
        <time>2018-05-29T10:54:45.082Z</time>
      </trkpt>
      <trkpt lat="37.40874167" lon="-4.39571833">
        <ele>701.0</ele>
        <time>2018-05-29T10:54:46.062Z</time>
      </trkpt>
      <trkpt lat="37.40874167" lon="-4.39571833">
        <ele>701.0</ele>
        <time>2018-05-29T10:54:47.063Z</time>
      </trkpt>
      <trkpt lat="37.40872167" lon="-4.39575">
        <ele>702.0</ele>
        <time>2018-05-29T10:54:48.080Z</time>
      </trkpt>
      <trkpt lat="37.40872167" lon="-4.39575">
        <ele>702.0</ele>
        <time>2018-05-29T10:54:49.063Z</time>
      </trkpt>
      <trkpt lat="37.40870167" lon="-4.39578833">
        <ele>702.0</ele>
        <time>2018-05-29T10:54:50.087Z</time>
      </trkpt>
      <trkpt lat="37.40870167" lon="-4.39578833">
        <ele>702.0</ele>
        <time>2018-05-29T10:54:51.086Z</time>
      </trkpt>
      <trkpt lat="37.408685" lon="-4.39582833">
        <ele>703.0</ele>
        <time>2018-05-29T10:54:52.060Z</time>
      </trkpt>
      <trkpt lat="37.408685" lon="-4.39582833">
        <ele>703.0</ele>
        <time>2018-05-29T10:54:53.086Z</time>
      </trkpt>
      <trkpt lat="37.40867333" lon="-4.39588">
        <ele>703.0</ele>
        <time>2018-05-29T10:54:54.080Z</time>
      </trkpt>
      <trkpt lat="37.40867333" lon="-4.39591333">
        <ele>703.0</ele>
        <time>2018-05-29T10:54:55.081Z</time>
      </trkpt>
      <trkpt lat="37.40867333" lon="-4.39591333">
        <ele>703.0</ele>
        <time>2018-05-29T10:54:56.092Z</time>
      </trkpt>
      <trkpt lat="37.408685" lon="-4.39596833">
        <ele>703.0</ele>
        <time>2018-05-29T10:54:57.074Z</time>
      </trkpt>
      <trkpt lat="37.40869" lon="-4.39599">
        <ele>704.0</ele>
        <time>2018-05-29T10:54:58.073Z</time>
      </trkpt>
      <trkpt lat="37.40869" lon="-4.39599">
        <ele>704.0</ele>
        <time>2018-05-29T10:54:59.059Z</time>
      </trkpt>
      <trkpt lat="37.40869333" lon="-4.39602">
        <ele>704.0</ele>
        <time>2018-05-29T10:55:00.080Z</time>
      </trkpt>
      <trkpt lat="37.40869333" lon="-4.39602">
        <ele>704.0</ele>
        <time>2018-05-29T10:55:01.066Z</time>
      </trkpt>
      <trkpt lat="37.40869833" lon="-4.39605333">
        <ele>704.0</ele>
        <time>2018-05-29T10:55:02.080Z</time>
      </trkpt>
      <trkpt lat="37.40869833" lon="-4.39605333">
        <ele>704.0</ele>
        <time>2018-05-29T10:55:03.087Z</time>
      </trkpt>
      <trkpt lat="37.40870667" lon="-4.396095">
        <ele>705.0</ele>
        <time>2018-05-29T10:55:04.070Z</time>
      </trkpt>
      <trkpt lat="37.40870667" lon="-4.396095">
        <ele>705.0</ele>
        <time>2018-05-29T10:55:05.092Z</time>
      </trkpt>
      <trkpt lat="37.40871333" lon="-4.39612833">
        <ele>706.0</ele>
        <time>2018-05-29T10:55:06.066Z</time>
      </trkpt>
      <trkpt lat="37.408715" lon="-4.39614167">
        <ele>706.0</ele>
        <time>2018-05-29T10:55:07.067Z</time>
      </trkpt>
      <trkpt lat="37.408715" lon="-4.39615833">
        <ele>706.0</ele>
        <time>2018-05-29T10:55:08.079Z</time>
      </trkpt>
      <trkpt lat="37.408715" lon="-4.39615833">
        <ele>706.0</ele>
        <time>2018-05-29T10:55:09.087Z</time>
      </trkpt>
      <trkpt lat="37.40871833" lon="-4.39618833">
        <ele>706.0</ele>
        <time>2018-05-29T10:55:10.065Z</time>
      </trkpt>
      <trkpt lat="37.40872" lon="-4.396205">
        <ele>706.0</ele>
        <time>2018-05-29T10:55:11.058Z</time>
      </trkpt>
      <trkpt lat="37.40872" lon="-4.396205">
        <ele>706.0</ele>
        <time>2018-05-29T10:55:12.095Z</time>
      </trkpt>
      <trkpt lat="37.40872833" lon="-4.39623667">
        <ele>707.0</ele>
        <time>2018-05-29T10:55:13.079Z</time>
      </trkpt>
      <trkpt lat="37.40872833" lon="-4.39623667">
        <ele>707.0</ele>
        <time>2018-05-29T10:55:14.069Z</time>
      </trkpt>
      <trkpt lat="37.40873333" lon="-4.39627">
        <ele>707.0</ele>
        <time>2018-05-29T10:55:15.089Z</time>
      </trkpt>
      <trkpt lat="37.40874" lon="-4.39628667">
        <ele>707.0</ele>
        <time>2018-05-29T10:55:16.078Z</time>
      </trkpt>
      <trkpt lat="37.40874" lon="-4.39628667">
        <ele>707.0</ele>
        <time>2018-05-29T10:55:17.080Z</time>
      </trkpt>
      <trkpt lat="37.40875833" lon="-4.39631667">
        <ele>708.0</ele>
        <time>2018-05-29T10:55:18.097Z</time>
      </trkpt>
      <trkpt lat="37.40876667" lon="-4.39633167">
        <ele>709.0</ele>
        <time>2018-05-29T10:55:19.070Z</time>
      </trkpt>
      <trkpt lat="37.40876667" lon="-4.39633167">
        <ele>709.0</ele>
        <time>2018-05-29T10:55:20.085Z</time>
      </trkpt>
      <trkpt lat="37.40877167" lon="-4.39636667">
        <ele>710.0</ele>
        <time>2018-05-29T10:55:21.056Z</time>
      </trkpt>
      <trkpt lat="37.40877" lon="-4.39638167">
        <ele>710.0</ele>
        <time>2018-05-29T10:55:22.082Z</time>
      </trkpt>
      <trkpt lat="37.40876833" lon="-4.39639667">
        <ele>710.0</ele>
        <time>2018-05-29T10:55:23.080Z</time>
      </trkpt>
      <trkpt lat="37.40876833" lon="-4.39639667">
        <ele>710.0</ele>
        <time>2018-05-29T10:55:24.064Z</time>
      </trkpt>
      <trkpt lat="37.40876" lon="-4.39643333">
        <ele>711.0</ele>
        <time>2018-05-29T10:55:25.080Z</time>
      </trkpt>
      <trkpt lat="37.40876" lon="-4.39643333">
        <ele>711.0</ele>
        <time>2018-05-29T10:55:26.074Z</time>
      </trkpt>
      <trkpt lat="37.40874333" lon="-4.396475">
        <ele>711.0</ele>
        <time>2018-05-29T10:55:27.097Z</time>
      </trkpt>
      <trkpt lat="37.40874333" lon="-4.396475">
        <ele>711.0</ele>
        <time>2018-05-29T10:55:28.076Z</time>
      </trkpt>
      <trkpt lat="37.40872" lon="-4.396525">
        <ele>711.0</ele>
        <time>2018-05-29T10:55:29.058Z</time>
      </trkpt>
      <trkpt lat="37.40871" lon="-4.39655667">
        <ele>711.0</ele>
        <time>2018-05-29T10:55:30.072Z</time>
      </trkpt>
      <trkpt lat="37.4087" lon="-4.39658833">
        <ele>711.0</ele>
        <time>2018-05-29T10:55:31.085Z</time>
      </trkpt>
      <trkpt lat="37.4087" lon="-4.39658833">
        <ele>711.0</ele>
        <time>2018-05-29T10:55:32.082Z</time>
      </trkpt>
      <trkpt lat="37.40867667" lon="-4.39665833">
        <ele>710.0</ele>
        <time>2018-05-29T10:55:33.092Z</time>
      </trkpt>
      <trkpt lat="37.40866167" lon="-4.396695">
        <ele>710.0</ele>
        <time>2018-05-29T10:55:34.093Z</time>
      </trkpt>
      <trkpt lat="37.408645" lon="-4.396735">
        <ele>710.0</ele>
        <time>2018-05-29T10:55:35.068Z</time>
      </trkpt>
      <trkpt lat="37.408645" lon="-4.396735">
        <ele>710.0</ele>
        <time>2018-05-29T10:55:36.065Z</time>
      </trkpt>
      <trkpt lat="37.408605" lon="-4.39683167">
        <ele>710.0</ele>
        <time>2018-05-29T10:55:37.080Z</time>
      </trkpt>
      <trkpt lat="37.408605" lon="-4.39683167">
        <ele>710.0</ele>
        <time>2018-05-29T10:55:38.092Z</time>
      </trkpt>
      <trkpt lat="37.40856667" lon="-4.39694">
        <ele>709.0</ele>
        <time>2018-05-29T10:55:39.071Z</time>
      </trkpt>
      <trkpt lat="37.40856667" lon="-4.39694">
        <ele>709.0</ele>
        <time>2018-05-29T10:55:40.091Z</time>
      </trkpt>
      <trkpt lat="37.40854" lon="-4.397045">
        <ele>709.0</ele>
        <time>2018-05-29T10:55:41.069Z</time>
      </trkpt>
      <trkpt lat="37.40854" lon="-4.397045">
        <ele>709.0</ele>
        <time>2018-05-29T10:55:42.072Z</time>
      </trkpt>
      <trkpt lat="37.40852" lon="-4.39714">
        <ele>709.0</ele>
        <time>2018-05-29T10:55:43.060Z</time>
      </trkpt>
      <trkpt lat="37.40852" lon="-4.39714">
        <ele>709.0</ele>
        <time>2018-05-29T10:55:44.063Z</time>
      </trkpt>
      <trkpt lat="37.40850333" lon="-4.39722167">
        <ele>709.0</ele>
        <time>2018-05-29T10:55:45.060Z</time>
      </trkpt>
      <trkpt lat="37.40849333" lon="-4.39726167">
        <ele>709.0</ele>
        <time>2018-05-29T10:55:46.070Z</time>
      </trkpt>
      <trkpt lat="37.40849333" lon="-4.39726167">
        <ele>709.0</ele>
        <time>2018-05-29T10:55:47.062Z</time>
      </trkpt>
      <trkpt lat="37.40847667" lon="-4.39734167">
        <ele>709.0</ele>
        <time>2018-05-29T10:55:48.086Z</time>
      </trkpt>
      <trkpt lat="37.40846667" lon="-4.39738333">
        <ele>709.0</ele>
        <time>2018-05-29T10:55:49.081Z</time>
      </trkpt>
      <trkpt lat="37.40846667" lon="-4.39738333">
        <ele>709.0</ele>
        <time>2018-05-29T10:55:50.091Z</time>
      </trkpt>
      <trkpt lat="37.40844667" lon="-4.39746833">
        <ele>708.0</ele>
        <time>2018-05-29T10:55:51.066Z</time>
      </trkpt>
      <trkpt lat="37.40844667" lon="-4.39746833">
        <ele>708.0</ele>
        <time>2018-05-29T10:55:52.084Z</time>
      </trkpt>
      <trkpt lat="37.40842833" lon="-4.39755667">
        <ele>708.0</ele>
        <time>2018-05-29T10:55:53.080Z</time>
      </trkpt>
      <trkpt lat="37.40841833" lon="-4.397605">
        <ele>707.0</ele>
        <time>2018-05-29T10:55:54.070Z</time>
      </trkpt>
      <trkpt lat="37.40840833" lon="-4.39765333">
        <ele>707.0</ele>
        <time>2018-05-29T10:55:55.068Z</time>
      </trkpt>
      <trkpt lat="37.40840833" lon="-4.39765333">
        <ele>707.0</ele>
        <time>2018-05-29T10:55:56.081Z</time>
      </trkpt>
      <trkpt lat="37.40838833" lon="-4.39776667">
        <ele>706.0</ele>
        <time>2018-05-29T10:55:57.094Z</time>
      </trkpt>
      <trkpt lat="37.40837667" lon="-4.39782667">
        <ele>706.0</ele>
        <time>2018-05-29T10:55:58.093Z</time>
      </trkpt>
      <trkpt lat="37.40837667" lon="-4.39782667">
        <ele>706.0</ele>
        <time>2018-05-29T10:55:59.086Z</time>
      </trkpt>
      <trkpt lat="37.40835167" lon="-4.39795">
        <ele>706.0</ele>
        <time>2018-05-29T10:56:00.068Z</time>
      </trkpt>
      <trkpt lat="37.40834" lon="-4.39801167">
        <ele>706.0</ele>
        <time>2018-05-29T10:56:01.063Z</time>
      </trkpt>
      <trkpt lat="37.40834" lon="-4.39801167">
        <ele>706.0</ele>
        <time>2018-05-29T10:56:02.064Z</time>
      </trkpt>
      <trkpt lat="37.40831" lon="-4.39812333">
        <ele>705.0</ele>
        <time>2018-05-29T10:56:03.080Z</time>
      </trkpt>
      <trkpt lat="37.40831" lon="-4.39812333">
        <ele>705.0</ele>
        <time>2018-05-29T10:56:04.095Z</time>
      </trkpt>
      <trkpt lat="37.40826" lon="-4.39819167">
        <ele>704.0</ele>
        <time>2018-05-29T10:56:05.073Z</time>
      </trkpt>
      <trkpt lat="37.40826" lon="-4.39819167">
        <ele>704.0</ele>
        <time>2018-05-29T10:56:06.062Z</time>
      </trkpt>
      <trkpt lat="37.40818833" lon="-4.39822">
        <ele>703.0</ele>
        <time>2018-05-29T10:56:07.083Z</time>
      </trkpt>
      <trkpt lat="37.40818833" lon="-4.39822">
        <ele>703.0</ele>
        <time>2018-05-29T10:56:08.064Z</time>
      </trkpt>
      <trkpt lat="37.40811667" lon="-4.39823167">
        <ele>702.0</ele>
        <time>2018-05-29T10:56:09.077Z</time>
      </trkpt>
      <trkpt lat="37.408075" lon="-4.398235">
        <ele>701.0</ele>
        <time>2018-05-29T10:56:10.078Z</time>
      </trkpt>
      <trkpt lat="37.408075" lon="-4.398235">
        <ele>701.0</ele>
        <time>2018-05-29T10:56:11.072Z</time>
      </trkpt>
      <trkpt lat="37.40799333" lon="-4.39822">
        <ele>700.0</ele>
        <time>2018-05-29T10:56:12.083Z</time>
      </trkpt>
      <trkpt lat="37.40795167" lon="-4.398205">
        <ele>700.0</ele>
        <time>2018-05-29T10:56:13.073Z</time>
      </trkpt>
      <trkpt lat="37.40795167" lon="-4.398205">
        <ele>700.0</ele>
        <time>2018-05-29T10:56:14.073Z</time>
      </trkpt>
      <trkpt lat="37.40785833" lon="-4.39817333">
        <ele>699.0</ele>
        <time>2018-05-29T10:56:15.090Z</time>
      </trkpt>
      <trkpt lat="37.40780833" lon="-4.39816667">
        <ele>698.0</ele>
        <time>2018-05-29T10:56:16.090Z</time>
      </trkpt>
      <trkpt lat="37.40780833" lon="-4.39816667">
        <ele>698.0</ele>
        <time>2018-05-29T10:56:17.071Z</time>
      </trkpt>
      <trkpt lat="37.40770667" lon="-4.39818833">
        <ele>696.0</ele>
        <time>2018-05-29T10:56:18.064Z</time>
      </trkpt>
      <trkpt lat="37.40770667" lon="-4.39818833">
        <ele>696.0</ele>
        <time>2018-05-29T10:56:19.080Z</time>
      </trkpt>
      <trkpt lat="37.40762333" lon="-4.398265">
        <ele>695.0</ele>
        <time>2018-05-29T10:56:20.060Z</time>
      </trkpt>
      <trkpt lat="37.40762333" lon="-4.398265">
        <ele>695.0</ele>
        <time>2018-05-29T10:56:21.065Z</time>
      </trkpt>
      <trkpt lat="37.40755" lon="-4.39835333">
        <ele>693.0</ele>
        <time>2018-05-29T10:56:22.080Z</time>
      </trkpt>
      <trkpt lat="37.40751333" lon="-4.3984">
        <ele>693.0</ele>
        <time>2018-05-29T10:56:23.075Z</time>
      </trkpt>
      <trkpt lat="37.40751333" lon="-4.3984">
        <ele>693.0</ele>
        <time>2018-05-29T10:56:24.094Z</time>
      </trkpt>
      <trkpt lat="37.40743333" lon="-4.39848333">
        <ele>691.0</ele>
        <time>2018-05-29T10:56:25.074Z</time>
      </trkpt>
      <trkpt lat="37.40743333" lon="-4.39848333">
        <ele>691.0</ele>
        <time>2018-05-29T10:56:26.095Z</time>
      </trkpt>
      <trkpt lat="37.40734333" lon="-4.39854833">
        <ele>689.0</ele>
        <time>2018-05-29T10:56:27.069Z</time>
      </trkpt>
      <trkpt lat="37.40734333" lon="-4.39854833">
        <ele>689.0</ele>
        <time>2018-05-29T10:56:28.062Z</time>
      </trkpt>
      <trkpt lat="37.40724" lon="-4.39861667">
        <ele>686.0</ele>
        <time>2018-05-29T10:56:29.075Z</time>
      </trkpt>
      <trkpt lat="37.40724" lon="-4.39861667">
        <ele>686.0</ele>
        <time>2018-05-29T10:56:30.086Z</time>
      </trkpt>
      <trkpt lat="37.407125" lon="-4.39869">
        <ele>683.0</ele>
        <time>2018-05-29T10:56:31.074Z</time>
      </trkpt>
      <trkpt lat="37.407125" lon="-4.39869">
        <ele>683.0</ele>
        <time>2018-05-29T10:56:32.094Z</time>
      </trkpt>
      <trkpt lat="37.407005" lon="-4.39875667">
        <ele>681.0</ele>
        <time>2018-05-29T10:56:33.074Z</time>
      </trkpt>
      <trkpt lat="37.407005" lon="-4.39875667">
        <ele>681.0</ele>
        <time>2018-05-29T10:56:34.067Z</time>
      </trkpt>
      <trkpt lat="37.40688" lon="-4.39880833">
        <ele>679.0</ele>
        <time>2018-05-29T10:56:35.083Z</time>
      </trkpt>
      <trkpt lat="37.40688" lon="-4.39880833">
        <ele>679.0</ele>
        <time>2018-05-29T10:56:36.073Z</time>
      </trkpt>
      <trkpt lat="37.40675333" lon="-4.39886333">
        <ele>676.0</ele>
        <time>2018-05-29T10:56:37.089Z</time>
      </trkpt>
      <trkpt lat="37.40675333" lon="-4.39886333">
        <ele>676.0</ele>
        <time>2018-05-29T10:56:38.085Z</time>
      </trkpt>
      <trkpt lat="37.406615" lon="-4.39890833">
        <ele>674.0</ele>
        <time>2018-05-29T10:56:39.066Z</time>
      </trkpt>
      <trkpt lat="37.406615" lon="-4.39890833">
        <ele>674.0</ele>
        <time>2018-05-29T10:56:40.088Z</time>
      </trkpt>
      <trkpt lat="37.40647167" lon="-4.39895333">
        <ele>673.0</ele>
        <time>2018-05-29T10:56:41.064Z</time>
      </trkpt>
      <trkpt lat="37.40647167" lon="-4.39895333">
        <ele>673.0</ele>
        <time>2018-05-29T10:56:42.092Z</time>
      </trkpt>
      <trkpt lat="37.40633833" lon="-4.39897333">
        <ele>671.0</ele>
        <time>2018-05-29T10:56:43.074Z</time>
      </trkpt>
      <trkpt lat="37.40633833" lon="-4.39897333">
        <ele>671.0</ele>
        <time>2018-05-29T10:56:44.064Z</time>
      </trkpt>
      <trkpt lat="37.40621667" lon="-4.39897167">
        <ele>670.0</ele>
        <time>2018-05-29T10:56:45.096Z</time>
      </trkpt>
      <trkpt lat="37.40621667" lon="-4.39897167">
        <ele>670.0</ele>
        <time>2018-05-29T10:56:46.072Z</time>
      </trkpt>
      <trkpt lat="37.40610667" lon="-4.398975">
        <ele>669.0</ele>
        <time>2018-05-29T10:56:47.085Z</time>
      </trkpt>
      <trkpt lat="37.40610667" lon="-4.398975">
        <ele>669.0</ele>
        <time>2018-05-29T10:56:48.075Z</time>
      </trkpt>
      <trkpt lat="37.406025" lon="-4.398985">
        <ele>669.0</ele>
        <time>2018-05-29T10:56:49.092Z</time>
      </trkpt>
      <trkpt lat="37.406025" lon="-4.398985">
        <ele>669.0</ele>
        <time>2018-05-29T10:56:50.072Z</time>
      </trkpt>
      <trkpt lat="37.405955" lon="-4.39900167">
        <ele>669.0</ele>
        <time>2018-05-29T10:56:51.091Z</time>
      </trkpt>
      <trkpt lat="37.405955" lon="-4.39900167">
        <ele>669.0</ele>
        <time>2018-05-29T10:56:52.081Z</time>
      </trkpt>
      <trkpt lat="37.4059" lon="-4.39904667">
        <ele>669.0</ele>
        <time>2018-05-29T10:56:53.111Z</time>
      </trkpt>
      <trkpt lat="37.4059" lon="-4.39904667">
        <ele>669.0</ele>
        <time>2018-05-29T10:56:54.063Z</time>
      </trkpt>
      <trkpt lat="37.40583833" lon="-4.39909167">
        <ele>668.0</ele>
        <time>2018-05-29T10:56:55.082Z</time>
      </trkpt>
      <trkpt lat="37.40583833" lon="-4.39909167">
        <ele>668.0</ele>
        <time>2018-05-29T10:56:56.087Z</time>
      </trkpt>
      <trkpt lat="37.40578" lon="-4.399135">
        <ele>667.0</ele>
        <time>2018-05-29T10:56:57.058Z</time>
      </trkpt>
      <trkpt lat="37.40574833" lon="-4.39915833">
        <ele>666.0</ele>
        <time>2018-05-29T10:56:58.067Z</time>
      </trkpt>
      <trkpt lat="37.40571833" lon="-4.39918167">
        <ele>665.0</ele>
        <time>2018-05-29T10:56:59.091Z</time>
      </trkpt>
      <trkpt lat="37.40571833" lon="-4.39918167">
        <ele>665.0</ele>
        <time>2018-05-29T10:57:00.072Z</time>
      </trkpt>
      <trkpt lat="37.40566" lon="-4.39922667">
        <ele>664.0</ele>
        <time>2018-05-29T10:57:01.056Z</time>
      </trkpt>
      <trkpt lat="37.40566" lon="-4.39922667">
        <ele>664.0</ele>
        <time>2018-05-29T10:57:02.092Z</time>
      </trkpt>
      <trkpt lat="37.40559333" lon="-4.399265">
        <ele>663.0</ele>
        <time>2018-05-29T10:57:03.070Z</time>
      </trkpt>
      <trkpt lat="37.40559333" lon="-4.399265">
        <ele>663.0</ele>
        <time>2018-05-29T10:57:04.094Z</time>
      </trkpt>
      <trkpt lat="37.40551833" lon="-4.39931333">
        <ele>661.0</ele>
        <time>2018-05-29T10:57:05.081Z</time>
      </trkpt>
      <trkpt lat="37.40551833" lon="-4.39931333">
        <ele>661.0</ele>
        <time>2018-05-29T10:57:06.068Z</time>
      </trkpt>
      <trkpt lat="37.40544333" lon="-4.399375">
        <ele>660.0</ele>
        <time>2018-05-29T10:57:07.088Z</time>
      </trkpt>
      <trkpt lat="37.40544333" lon="-4.399375">
        <ele>660.0</ele>
        <time>2018-05-29T10:57:08.074Z</time>
      </trkpt>
      <trkpt lat="37.40537333" lon="-4.39945">
        <ele>658.0</ele>
        <time>2018-05-29T10:57:09.056Z</time>
      </trkpt>
      <trkpt lat="37.40537333" lon="-4.39945">
        <ele>658.0</ele>
        <time>2018-05-29T10:57:10.094Z</time>
      </trkpt>
      <trkpt lat="37.40531667" lon="-4.39955">
        <ele>656.0</ele>
        <time>2018-05-29T10:57:11.069Z</time>
      </trkpt>
      <trkpt lat="37.40531667" lon="-4.39955">
        <ele>656.0</ele>
        <time>2018-05-29T10:57:12.062Z</time>
      </trkpt>
      <trkpt lat="37.40523667" lon="-4.39963333">
        <ele>656.0</ele>
        <time>2018-05-29T10:57:13.084Z</time>
      </trkpt>
      <trkpt lat="37.40523667" lon="-4.39963333">
        <ele>656.0</ele>
        <time>2018-05-29T10:57:14.064Z</time>
      </trkpt>
      <trkpt lat="37.40513333" lon="-4.39969667">
        <ele>656.0</ele>
        <time>2018-05-29T10:57:15.074Z</time>
      </trkpt>
      <trkpt lat="37.40508333" lon="-4.39972833">
        <ele>656.0</ele>
        <time>2018-05-29T10:57:16.080Z</time>
      </trkpt>
      <trkpt lat="37.40508333" lon="-4.39972833">
        <ele>656.0</ele>
        <time>2018-05-29T10:57:17.068Z</time>
      </trkpt>
      <trkpt lat="37.404985" lon="-4.39980167">
        <ele>655.0</ele>
        <time>2018-05-29T10:57:18.060Z</time>
      </trkpt>
      <trkpt lat="37.40493667" lon="-4.39983833">
        <ele>655.0</ele>
        <time>2018-05-29T10:57:19.081Z</time>
      </trkpt>
      <trkpt lat="37.40493667" lon="-4.39983833">
        <ele>655.0</ele>
        <time>2018-05-29T10:57:20.072Z</time>
      </trkpt>
      <trkpt lat="37.40484833" lon="-4.399915">
        <ele>655.0</ele>
        <time>2018-05-29T10:57:21.088Z</time>
      </trkpt>
      <trkpt lat="37.40484833" lon="-4.399915">
        <ele>655.0</ele>
        <time>2018-05-29T10:57:22.073Z</time>
      </trkpt>
      <trkpt lat="37.40476667" lon="-4.39999833">
        <ele>654.0</ele>
        <time>2018-05-29T10:57:23.093Z</time>
      </trkpt>
      <trkpt lat="37.40476667" lon="-4.39999833">
        <ele>654.0</ele>
        <time>2018-05-29T10:57:24.070Z</time>
      </trkpt>
      <trkpt lat="37.4047" lon="-4.40007833">
        <ele>653.0</ele>
        <time>2018-05-29T10:57:25.083Z</time>
      </trkpt>
      <trkpt lat="37.4047" lon="-4.40007833">
        <ele>653.0</ele>
        <time>2018-05-29T10:57:26.063Z</time>
      </trkpt>
      <trkpt lat="37.404675" lon="-4.40018167">
        <ele>653.0</ele>
        <time>2018-05-29T10:57:27.072Z</time>
      </trkpt>
      <trkpt lat="37.404675" lon="-4.40018167">
        <ele>653.0</ele>
        <time>2018-05-29T10:57:28.092Z</time>
      </trkpt>
      <trkpt lat="37.40466333" lon="-4.40029333">
        <ele>652.0</ele>
        <time>2018-05-29T10:57:29.077Z</time>
      </trkpt>
      <trkpt lat="37.40466333" lon="-4.40029333">
        <ele>652.0</ele>
        <time>2018-05-29T10:57:30.078Z</time>
      </trkpt>
      <trkpt lat="37.40464667" lon="-4.40038833">
        <ele>651.0</ele>
        <time>2018-05-29T10:57:31.284Z</time>
      </trkpt>
      <trkpt lat="37.40464667" lon="-4.40038833">
        <ele>651.0</ele>
        <time>2018-05-29T10:57:32.092Z</time>
      </trkpt>
      <trkpt lat="37.40461" lon="-4.40046">
        <ele>650.0</ele>
        <time>2018-05-29T10:57:33.074Z</time>
      </trkpt>
      <trkpt lat="37.40457167" lon="-4.40047833">
        <ele>649.0</ele>
        <time>2018-05-29T10:57:34.070Z</time>
      </trkpt>
      <trkpt lat="37.40453167" lon="-4.40049833">
        <ele>649.0</ele>
        <time>2018-05-29T10:57:35.056Z</time>
      </trkpt>
      <trkpt lat="37.40453167" lon="-4.40049833">
        <ele>649.0</ele>
        <time>2018-05-29T10:57:36.062Z</time>
      </trkpt>
      <trkpt lat="37.40443833" lon="-4.40056333">
        <ele>647.0</ele>
        <time>2018-05-29T10:57:37.078Z</time>
      </trkpt>
      <trkpt lat="37.40443833" lon="-4.40056333">
        <ele>647.0</ele>
        <time>2018-05-29T10:57:38.061Z</time>
      </trkpt>
      <trkpt lat="37.40433833" lon="-4.40063833">
        <ele>646.0</ele>
        <time>2018-05-29T10:57:39.070Z</time>
      </trkpt>
      <trkpt lat="37.40433833" lon="-4.40063833">
        <ele>646.0</ele>
        <time>2018-05-29T10:57:40.092Z</time>
      </trkpt>
      <trkpt lat="37.40425" lon="-4.40071">
        <ele>645.0</ele>
        <time>2018-05-29T10:57:41.068Z</time>
      </trkpt>
      <trkpt lat="37.40425" lon="-4.40071">
        <ele>645.0</ele>
        <time>2018-05-29T10:57:42.064Z</time>
      </trkpt>
      <trkpt lat="37.40417" lon="-4.400775">
        <ele>644.0</ele>
        <time>2018-05-29T10:57:43.093Z</time>
      </trkpt>
      <trkpt lat="37.40417" lon="-4.400775">
        <ele>644.0</ele>
        <time>2018-05-29T10:57:44.084Z</time>
      </trkpt>
      <trkpt lat="37.40411833" lon="-4.40082833">
        <ele>643.0</ele>
        <time>2018-05-29T10:57:45.058Z</time>
      </trkpt>
      <trkpt lat="37.40410333" lon="-4.40086167">
        <ele>643.0</ele>
        <time>2018-05-29T10:57:46.073Z</time>
      </trkpt>
      <trkpt lat="37.40410333" lon="-4.40086167">
        <ele>643.0</ele>
        <time>2018-05-29T10:57:47.068Z</time>
      </trkpt>
      <trkpt lat="37.40409667" lon="-4.40093833">
        <ele>642.0</ele>
        <time>2018-05-29T10:57:48.095Z</time>
      </trkpt>
      <trkpt lat="37.40409667" lon="-4.40098">
        <ele>642.0</ele>
        <time>2018-05-29T10:57:49.082Z</time>
      </trkpt>
      <trkpt lat="37.40409833" lon="-4.40102333">
        <ele>642.0</ele>
        <time>2018-05-29T10:57:50.085Z</time>
      </trkpt>
      <trkpt lat="37.40409833" lon="-4.40102333">
        <ele>642.0</ele>
        <time>2018-05-29T10:57:51.073Z</time>
      </trkpt>
      <trkpt lat="37.40409833" lon="-4.40110833">
        <ele>642.0</ele>
        <time>2018-05-29T10:57:52.093Z</time>
      </trkpt>
      <trkpt lat="37.40409833" lon="-4.40110833">
        <ele>642.0</ele>
        <time>2018-05-29T10:57:53.063Z</time>
      </trkpt>
      <trkpt lat="37.40410167" lon="-4.40121">
        <ele>641.0</ele>
        <time>2018-05-29T10:57:54.093Z</time>
      </trkpt>
      <trkpt lat="37.40411167" lon="-4.401265">
        <ele>641.0</ele>
        <time>2018-05-29T10:57:55.086Z</time>
      </trkpt>
      <trkpt lat="37.40411167" lon="-4.401265">
        <ele>641.0</ele>
        <time>2018-05-29T10:57:56.068Z</time>
      </trkpt>
      <trkpt lat="37.40415167" lon="-4.40136833">
        <ele>640.0</ele>
        <time>2018-05-29T10:57:57.087Z</time>
      </trkpt>
      <trkpt lat="37.40417333" lon="-4.401415">
        <ele>639.0</ele>
        <time>2018-05-29T10:57:58.092Z</time>
      </trkpt>
      <trkpt lat="37.40417333" lon="-4.401415">
        <ele>639.0</ele>
        <time>2018-05-29T10:57:59.067Z</time>
      </trkpt>
      <trkpt lat="37.404185" lon="-4.40150167">
        <ele>639.0</ele>
        <time>2018-05-29T10:58:00.060Z</time>
      </trkpt>
      <trkpt lat="37.40417167" lon="-4.40152833">
        <ele>639.0</ele>
        <time>2018-05-29T10:58:01.063Z</time>
      </trkpt>
      <trkpt lat="37.40417167" lon="-4.40152833">
        <ele>639.0</ele>
        <time>2018-05-29T10:58:02.076Z</time>
      </trkpt>
      <trkpt lat="37.40413667" lon="-4.401585">
        <ele>639.0</ele>
        <time>2018-05-29T10:58:03.099Z</time>
      </trkpt>
      <trkpt lat="37.40412333" lon="-4.401625">
        <ele>639.0</ele>
        <time>2018-05-29T10:58:04.079Z</time>
      </trkpt>
      <trkpt lat="37.40412333" lon="-4.401625">
        <ele>639.0</ele>
        <time>2018-05-29T10:58:05.071Z</time>
      </trkpt>
      <trkpt lat="37.40411667" lon="-4.401715">
        <ele>639.0</ele>
        <time>2018-05-29T10:58:06.089Z</time>
      </trkpt>
      <trkpt lat="37.40411667" lon="-4.401715">
        <ele>639.0</ele>
        <time>2018-05-29T10:58:07.071Z</time>
      </trkpt>
      <trkpt lat="37.40411333" lon="-4.40181167">
        <ele>639.0</ele>
        <time>2018-05-29T10:58:08.092Z</time>
      </trkpt>
      <trkpt lat="37.40411333" lon="-4.40181167">
        <ele>639.0</ele>
        <time>2018-05-29T10:58:09.068Z</time>
      </trkpt>
      <trkpt lat="37.40410833" lon="-4.401915">
        <ele>639.0</ele>
        <time>2018-05-29T10:58:10.087Z</time>
      </trkpt>
      <trkpt lat="37.40410833" lon="-4.401915">
        <ele>639.0</ele>
        <time>2018-05-29T10:58:11.071Z</time>
      </trkpt>
      <trkpt lat="37.40410667" lon="-4.402025">
        <ele>639.0</ele>
        <time>2018-05-29T10:58:12.091Z</time>
      </trkpt>
      <trkpt lat="37.40410667" lon="-4.402025">
        <ele>639.0</ele>
        <time>2018-05-29T10:58:13.074Z</time>
      </trkpt>
      <trkpt lat="37.40410333" lon="-4.40213333">
        <ele>639.0</ele>
        <time>2018-05-29T10:58:14.066Z</time>
      </trkpt>
      <trkpt lat="37.40410333" lon="-4.40213333">
        <ele>639.0</ele>
        <time>2018-05-29T10:58:15.083Z</time>
      </trkpt>
      <trkpt lat="37.40409667" lon="-4.402245">
        <ele>639.0</ele>
        <time>2018-05-29T10:58:16.094Z</time>
      </trkpt>
      <trkpt lat="37.40409667" lon="-4.402245">
        <ele>639.0</ele>
        <time>2018-05-29T10:58:17.082Z</time>
      </trkpt>
      <trkpt lat="37.40409" lon="-4.40236333">
        <ele>639.0</ele>
        <time>2018-05-29T10:58:18.071Z</time>
      </trkpt>
      <trkpt lat="37.40408833" lon="-4.402425">
        <ele>639.0</ele>
        <time>2018-05-29T10:58:19.057Z</time>
      </trkpt>
      <trkpt lat="37.40408833" lon="-4.402425">
        <ele>639.0</ele>
        <time>2018-05-29T10:58:20.088Z</time>
      </trkpt>
      <trkpt lat="37.40408333" lon="-4.40255333">
        <ele>639.0</ele>
        <time>2018-05-29T10:58:21.070Z</time>
      </trkpt>
      <trkpt lat="37.40408333" lon="-4.40261667">
        <ele>639.0</ele>
        <time>2018-05-29T10:58:22.080Z</time>
      </trkpt>
      <trkpt lat="37.40408333" lon="-4.40261667">
        <ele>639.0</ele>
        <time>2018-05-29T10:58:23.059Z</time>
      </trkpt>
      <trkpt lat="37.40408333" lon="-4.40274667">
        <ele>639.0</ele>
        <time>2018-05-29T10:58:24.072Z</time>
      </trkpt>
      <trkpt lat="37.40408333" lon="-4.40274667">
        <ele>639.0</ele>
        <time>2018-05-29T10:58:25.061Z</time>
      </trkpt>
      <trkpt lat="37.40409" lon="-4.40287333">
        <ele>638.0</ele>
        <time>2018-05-29T10:58:26.078Z</time>
      </trkpt>
      <trkpt lat="37.40409" lon="-4.40287333">
        <ele>638.0</ele>
        <time>2018-05-29T10:58:27.092Z</time>
      </trkpt>
      <trkpt lat="37.404105" lon="-4.40300333">
        <ele>638.0</ele>
        <time>2018-05-29T10:58:28.078Z</time>
      </trkpt>
      <trkpt lat="37.404105" lon="-4.40300333">
        <ele>638.0</ele>
        <time>2018-05-29T10:58:29.074Z</time>
      </trkpt>
      <trkpt lat="37.40410833" lon="-4.40314167">
        <ele>637.0</ele>
        <time>2018-05-29T10:58:30.066Z</time>
      </trkpt>
      <trkpt lat="37.40410833" lon="-4.40314167">
        <ele>637.0</ele>
        <time>2018-05-29T10:58:31.090Z</time>
      </trkpt>
      <trkpt lat="37.40411333" lon="-4.403285">
        <ele>636.0</ele>
        <time>2018-05-29T10:58:32.065Z</time>
      </trkpt>
      <trkpt lat="37.40411333" lon="-4.403285">
        <ele>636.0</ele>
        <time>2018-05-29T10:58:33.063Z</time>
      </trkpt>
      <trkpt lat="37.40411333" lon="-4.40342333">
        <ele>636.0</ele>
        <time>2018-05-29T10:58:34.084Z</time>
      </trkpt>
      <trkpt lat="37.40411333" lon="-4.40342333">
        <ele>636.0</ele>
        <time>2018-05-29T10:58:35.090Z</time>
      </trkpt>
      <trkpt lat="37.40410333" lon="-4.40356167">
        <ele>635.0</ele>
        <time>2018-05-29T10:58:36.065Z</time>
      </trkpt>
      <trkpt lat="37.40410333" lon="-4.40356167">
        <ele>635.0</ele>
        <time>2018-05-29T10:58:37.081Z</time>
      </trkpt>
      <trkpt lat="37.4041" lon="-4.403685">
        <ele>635.0</ele>
        <time>2018-05-29T10:58:38.056Z</time>
      </trkpt>
      <trkpt lat="37.4041" lon="-4.403685">
        <ele>635.0</ele>
        <time>2018-05-29T10:58:39.090Z</time>
      </trkpt>
      <trkpt lat="37.40409833" lon="-4.40380833">
        <ele>634.0</ele>
        <time>2018-05-29T10:58:40.078Z</time>
      </trkpt>
      <trkpt lat="37.40409833" lon="-4.40380833">
        <ele>634.0</ele>
        <time>2018-05-29T10:58:41.066Z</time>
      </trkpt>
      <trkpt lat="37.40409667" lon="-4.40393333">
        <ele>634.0</ele>
        <time>2018-05-29T10:58:42.084Z</time>
      </trkpt>
      <trkpt lat="37.40409667" lon="-4.40393333">
        <ele>634.0</ele>
        <time>2018-05-29T10:58:43.085Z</time>
      </trkpt>
      <trkpt lat="37.4041" lon="-4.40405833">
        <ele>633.0</ele>
        <time>2018-05-29T10:58:44.058Z</time>
      </trkpt>
      <trkpt lat="37.4041" lon="-4.40405833">
        <ele>633.0</ele>
        <time>2018-05-29T10:58:45.089Z</time>
      </trkpt>
      <trkpt lat="37.4041" lon="-4.40418">
        <ele>633.0</ele>
        <time>2018-05-29T10:58:46.060Z</time>
      </trkpt>
      <trkpt lat="37.4041" lon="-4.40418">
        <ele>633.0</ele>
        <time>2018-05-29T10:58:47.081Z</time>
      </trkpt>
      <trkpt lat="37.40407167" lon="-4.40429">
        <ele>632.0</ele>
        <time>2018-05-29T10:58:48.058Z</time>
      </trkpt>
      <trkpt lat="37.404045" lon="-4.40433">
        <ele>632.0</ele>
        <time>2018-05-29T10:58:49.061Z</time>
      </trkpt>
      <trkpt lat="37.404045" lon="-4.40433">
        <ele>632.0</ele>
        <time>2018-05-29T10:58:50.089Z</time>
      </trkpt>
      <trkpt lat="37.40401333" lon="-4.40442333">
        <ele>632.0</ele>
        <time>2018-05-29T10:58:51.070Z</time>
      </trkpt>
      <trkpt lat="37.40401333" lon="-4.40442333">
        <ele>632.0</ele>
        <time>2018-05-29T10:58:52.092Z</time>
      </trkpt>
      <trkpt lat="37.40401167" lon="-4.40452333">
        <ele>631.0</ele>
        <time>2018-05-29T10:58:53.077Z</time>
      </trkpt>
      <trkpt lat="37.40401667" lon="-4.404575">
        <ele>631.0</ele>
        <time>2018-05-29T10:58:54.071Z</time>
      </trkpt>
      <trkpt lat="37.40401667" lon="-4.404575">
        <ele>631.0</ele>
        <time>2018-05-29T10:58:55.066Z</time>
      </trkpt>
      <trkpt lat="37.40401833" lon="-4.404675">
        <ele>631.0</ele>
        <time>2018-05-29T10:58:56.095Z</time>
      </trkpt>
      <trkpt lat="37.40401833" lon="-4.404675">
        <ele>631.0</ele>
        <time>2018-05-29T10:58:57.078Z</time>
      </trkpt>
      <trkpt lat="37.40402" lon="-4.40478">
        <ele>630.0</ele>
        <time>2018-05-29T10:58:58.056Z</time>
      </trkpt>
      <trkpt lat="37.40402" lon="-4.40478">
        <ele>630.0</ele>
        <time>2018-05-29T10:58:59.078Z</time>
      </trkpt>
      <trkpt lat="37.40402333" lon="-4.40489">
        <ele>630.0</ele>
        <time>2018-05-29T10:59:00.093Z</time>
      </trkpt>
      <trkpt lat="37.40402167" lon="-4.40494333">
        <ele>630.0</ele>
        <time>2018-05-29T10:59:01.088Z</time>
      </trkpt>
      <trkpt lat="37.40402167" lon="-4.40494333">
        <ele>630.0</ele>
        <time>2018-05-29T10:59:02.076Z</time>
      </trkpt>
      <trkpt lat="37.40401167" lon="-4.405055">
        <ele>629.0</ele>
        <time>2018-05-29T10:59:03.091Z</time>
      </trkpt>
      <trkpt lat="37.40401167" lon="-4.405055">
        <ele>629.0</ele>
        <time>2018-05-29T10:59:04.087Z</time>
      </trkpt>
      <trkpt lat="37.40396833" lon="-4.40514833">
        <ele>628.0</ele>
        <time>2018-05-29T10:59:05.060Z</time>
      </trkpt>
      <trkpt lat="37.40396833" lon="-4.40514833">
        <ele>628.0</ele>
        <time>2018-05-29T10:59:06.088Z</time>
      </trkpt>
      <trkpt lat="37.40388167" lon="-4.4052">
        <ele>628.0</ele>
        <time>2018-05-29T10:59:07.064Z</time>
      </trkpt>
      <trkpt lat="37.40388167" lon="-4.4052">
        <ele>628.0</ele>
        <time>2018-05-29T10:59:08.075Z</time>
      </trkpt>
      <trkpt lat="37.40381667" lon="-4.40526667">
        <ele>628.0</ele>
        <time>2018-05-29T10:59:09.093Z</time>
      </trkpt>
      <trkpt lat="37.40380667" lon="-4.40531167">
        <ele>628.0</ele>
        <time>2018-05-29T10:59:10.090Z</time>
      </trkpt>
      <trkpt lat="37.40380667" lon="-4.40531167">
        <ele>628.0</ele>
        <time>2018-05-29T10:59:11.065Z</time>
      </trkpt>
      <trkpt lat="37.40380833" lon="-4.40539333">
        <ele>628.0</ele>
        <time>2018-05-29T10:59:12.090Z</time>
      </trkpt>
      <trkpt lat="37.403805" lon="-4.40543667">
        <ele>628.0</ele>
        <time>2018-05-29T10:59:13.080Z</time>
      </trkpt>
      <trkpt lat="37.403805" lon="-4.40543667">
        <ele>628.0</ele>
        <time>2018-05-29T10:59:14.094Z</time>
      </trkpt>
      <trkpt lat="37.40380167" lon="-4.40552167">
        <ele>628.0</ele>
        <time>2018-05-29T10:59:15.075Z</time>
      </trkpt>
      <trkpt lat="37.40379833" lon="-4.405555">
        <ele>628.0</ele>
        <time>2018-05-29T10:59:16.082Z</time>
      </trkpt>
      <trkpt lat="37.40379833" lon="-4.405555">
        <ele>628.0</ele>
        <time>2018-05-29T10:59:17.086Z</time>
      </trkpt>
      <trkpt lat="37.40379333" lon="-4.40562667">
        <ele>628.0</ele>
        <time>2018-05-29T10:59:18.067Z</time>
      </trkpt>
      <trkpt lat="37.40379167" lon="-4.40566667">
        <ele>627.0</ele>
        <time>2018-05-29T10:59:19.088Z</time>
      </trkpt>
      <trkpt lat="37.40379167" lon="-4.40566667">
        <ele>627.0</ele>
        <time>2018-05-29T10:59:20.092Z</time>
      </trkpt>
      <trkpt lat="37.40379" lon="-4.40575667">
        <ele>627.0</ele>
        <time>2018-05-29T10:59:21.074Z</time>
      </trkpt>
      <trkpt lat="37.40379167" lon="-4.4058">
        <ele>627.0</ele>
        <time>2018-05-29T10:59:22.059Z</time>
      </trkpt>
      <trkpt lat="37.40379167" lon="-4.4058">
        <ele>627.0</ele>
        <time>2018-05-29T10:59:23.072Z</time>
      </trkpt>
      <trkpt lat="37.40378833" lon="-4.405885">
        <ele>626.0</ele>
        <time>2018-05-29T10:59:24.060Z</time>
      </trkpt>
      <trkpt lat="37.403785" lon="-4.40593">
        <ele>626.0</ele>
        <time>2018-05-29T10:59:25.074Z</time>
      </trkpt>
      <trkpt lat="37.40378167" lon="-4.40597667">
        <ele>626.0</ele>
        <time>2018-05-29T10:59:26.089Z</time>
      </trkpt>
      <trkpt lat="37.40378167" lon="-4.40597667">
        <ele>626.0</ele>
        <time>2018-05-29T10:59:27.081Z</time>
      </trkpt>
      <trkpt lat="37.40377833" lon="-4.40607167">
        <ele>626.0</ele>
        <time>2018-05-29T10:59:28.056Z</time>
      </trkpt>
      <trkpt lat="37.40377833" lon="-4.40607167">
        <ele>626.0</ele>
        <time>2018-05-29T10:59:29.081Z</time>
      </trkpt>
      <trkpt lat="37.40380167" lon="-4.40614167">
        <ele>625.0</ele>
        <time>2018-05-29T10:59:30.059Z</time>
      </trkpt>
      <trkpt lat="37.40382833" lon="-4.40616167">
        <ele>625.0</ele>
        <time>2018-05-29T10:59:31.075Z</time>
      </trkpt>
      <trkpt lat="37.40382833" lon="-4.40616167">
        <ele>625.0</ele>
        <time>2018-05-29T10:59:32.066Z</time>
      </trkpt>
      <trkpt lat="37.40387167" lon="-4.406205">
        <ele>626.0</ele>
        <time>2018-05-29T10:59:33.083Z</time>
      </trkpt>
      <trkpt lat="37.40387167" lon="-4.406205">
        <ele>626.0</ele>
        <time>2018-05-29T10:59:34.092Z</time>
      </trkpt>
      <trkpt lat="37.40388333" lon="-4.40627833">
        <ele>626.0</ele>
        <time>2018-05-29T10:59:35.075Z</time>
      </trkpt>
      <trkpt lat="37.403885" lon="-4.40632167">
        <ele>626.0</ele>
        <time>2018-05-29T10:59:36.063Z</time>
      </trkpt>
      <trkpt lat="37.403885" lon="-4.40632167">
        <ele>626.0</ele>
        <time>2018-05-29T10:59:37.066Z</time>
      </trkpt>
      <trkpt lat="37.40389167" lon="-4.40641667">
        <ele>625.0</ele>
        <time>2018-05-29T10:59:38.095Z</time>
      </trkpt>
      <trkpt lat="37.40389167" lon="-4.40641667">
        <ele>625.0</ele>
        <time>2018-05-29T10:59:39.076Z</time>
      </trkpt>
      <trkpt lat="37.40389167" lon="-4.40651167">
        <ele>625.0</ele>
        <time>2018-05-29T10:59:40.095Z</time>
      </trkpt>
      <trkpt lat="37.40389167" lon="-4.40651167">
        <ele>625.0</ele>
        <time>2018-05-29T10:59:41.068Z</time>
      </trkpt>
      <trkpt lat="37.40388667" lon="-4.40658833">
        <ele>625.0</ele>
        <time>2018-05-29T10:59:42.083Z</time>
      </trkpt>
      <trkpt lat="37.40388333" lon="-4.40662667">
        <ele>625.0</ele>
        <time>2018-05-29T10:59:43.080Z</time>
      </trkpt>
      <trkpt lat="37.40388333" lon="-4.40662667">
        <ele>625.0</ele>
        <time>2018-05-29T10:59:44.095Z</time>
      </trkpt>
      <trkpt lat="37.403875" lon="-4.40669667">
        <ele>624.0</ele>
        <time>2018-05-29T10:59:45.099Z</time>
      </trkpt>
      <trkpt lat="37.403875" lon="-4.40669667">
        <ele>624.0</ele>
        <time>2018-05-29T10:59:46.072Z</time>
      </trkpt>
      <trkpt lat="37.40387167" lon="-4.40671667">
        <ele>623.0</ele>
        <time>2018-05-29T10:59:47.091Z</time>
      </trkpt>
      <trkpt lat="37.40387333" lon="-4.40671833">
        <ele>623.0</ele>
        <time>2018-05-29T10:59:48.077Z</time>
      </trkpt>
      <trkpt lat="37.40387333" lon="-4.40671833">
        <ele>623.0</ele>
        <time>2018-05-29T10:59:49.071Z</time>
      </trkpt>
      <trkpt lat="37.40387333" lon="-4.40671833">
        <ele>623.0</ele>
        <time>2018-05-29T10:59:50.086Z</time>
      </trkpt>
      <trkpt lat="37.40384" lon="-4.40673333">
        <ele>626.0</ele>
        <time>2018-05-29T10:59:51.074Z</time>
      </trkpt>
      <trkpt lat="37.40384" lon="-4.40673333">
        <ele>626.0</ele>
        <time>2018-05-29T10:59:52.062Z</time>
      </trkpt>
      <trkpt lat="37.40380667" lon="-4.406765">
        <ele>626.0</ele>
        <time>2018-05-29T10:59:53.061Z</time>
      </trkpt>
      <trkpt lat="37.40380667" lon="-4.406765">
        <ele>626.0</ele>
        <time>2018-05-29T10:59:54.077Z</time>
      </trkpt>
      <trkpt lat="37.40378833" lon="-4.40682833">
        <ele>626.0</ele>
        <time>2018-05-29T10:59:55.079Z</time>
      </trkpt>
      <trkpt lat="37.40379" lon="-4.40687">
        <ele>626.0</ele>
        <time>2018-05-29T10:59:56.076Z</time>
      </trkpt>
      <trkpt lat="37.40379167" lon="-4.40691333">
        <ele>626.0</ele>
        <time>2018-05-29T10:59:57.073Z</time>
      </trkpt>
      <trkpt lat="37.40379167" lon="-4.40691333">
        <ele>626.0</ele>
        <time>2018-05-29T10:59:58.079Z</time>
      </trkpt>
      <trkpt lat="37.40379333" lon="-4.40701667">
        <ele>625.0</ele>
        <time>2018-05-29T10:59:59.073Z</time>
      </trkpt>
      <trkpt lat="37.40379333" lon="-4.40707">
        <ele>625.0</ele>
        <time>2018-05-29T11:00:00.057Z</time>
      </trkpt>
      <trkpt lat="37.40379333" lon="-4.40707">
        <ele>625.0</ele>
        <time>2018-05-29T11:00:01.063Z</time>
      </trkpt>
      <trkpt lat="37.40378833" lon="-4.40717167">
        <ele>624.0</ele>
        <time>2018-05-29T11:00:02.090Z</time>
      </trkpt>
      <trkpt lat="37.40378333" lon="-4.40721667">
        <ele>624.0</ele>
        <time>2018-05-29T11:00:03.082Z</time>
      </trkpt>
      <trkpt lat="37.40378333" lon="-4.40721667">
        <ele>624.0</ele>
        <time>2018-05-29T11:00:04.088Z</time>
      </trkpt>
      <trkpt lat="37.40377167" lon="-4.40731167">
        <ele>624.0</ele>
        <time>2018-05-29T11:00:05.093Z</time>
      </trkpt>
      <trkpt lat="37.40376333" lon="-4.40736167">
        <ele>624.0</ele>
        <time>2018-05-29T11:00:06.082Z</time>
      </trkpt>
      <trkpt lat="37.40376333" lon="-4.40736167">
        <ele>624.0</ele>
        <time>2018-05-29T11:00:07.088Z</time>
      </trkpt>
      <trkpt lat="37.403735" lon="-4.40746">
        <ele>624.0</ele>
        <time>2018-05-29T11:00:08.072Z</time>
      </trkpt>
      <trkpt lat="37.40371667" lon="-4.4075">
        <ele>624.0</ele>
        <time>2018-05-29T11:00:09.067Z</time>
      </trkpt>
      <trkpt lat="37.40371667" lon="-4.4075">
        <ele>624.0</ele>
        <time>2018-05-29T11:00:10.073Z</time>
      </trkpt>
      <trkpt lat="37.40367" lon="-4.407565">
        <ele>624.0</ele>
        <time>2018-05-29T11:00:11.076Z</time>
      </trkpt>
      <trkpt lat="37.40364167" lon="-4.407595">
        <ele>624.0</ele>
        <time>2018-05-29T11:00:12.069Z</time>
      </trkpt>
      <trkpt lat="37.40364167" lon="-4.407595">
        <ele>624.0</ele>
        <time>2018-05-29T11:00:13.077Z</time>
      </trkpt>
      <trkpt lat="37.40359667" lon="-4.40765333">
        <ele>623.0</ele>
        <time>2018-05-29T11:00:14.078Z</time>
      </trkpt>
      <trkpt lat="37.40359667" lon="-4.40765333">
        <ele>623.0</ele>
        <time>2018-05-29T11:00:15.056Z</time>
      </trkpt>
      <trkpt lat="37.40357833" lon="-4.40770667">
        <ele>624.0</ele>
        <time>2018-05-29T11:00:16.090Z</time>
      </trkpt>
      <trkpt lat="37.40357833" lon="-4.40770667">
        <ele>624.0</ele>
        <time>2018-05-29T11:00:17.059Z</time>
      </trkpt>
      <trkpt lat="37.40359" lon="-4.40776833">
        <ele>624.0</ele>
        <time>2018-05-29T11:00:18.091Z</time>
      </trkpt>
      <trkpt lat="37.40360667" lon="-4.40780167">
        <ele>624.0</ele>
        <time>2018-05-29T11:00:19.084Z</time>
      </trkpt>
      <trkpt lat="37.40360667" lon="-4.40780167">
        <ele>624.0</ele>
        <time>2018-05-29T11:00:20.094Z</time>
      </trkpt>
      <trkpt lat="37.40363833" lon="-4.40787667">
        <ele>624.0</ele>
        <time>2018-05-29T11:00:21.057Z</time>
      </trkpt>
      <trkpt lat="37.40363833" lon="-4.40787667">
        <ele>624.0</ele>
        <time>2018-05-29T11:00:22.065Z</time>
      </trkpt>
      <trkpt lat="37.403675" lon="-4.40796">
        <ele>624.0</ele>
        <time>2018-05-29T11:00:23.088Z</time>
      </trkpt>
      <trkpt lat="37.40369167" lon="-4.40800167">
        <ele>624.0</ele>
        <time>2018-05-29T11:00:24.090Z</time>
      </trkpt>
      <trkpt lat="37.40369167" lon="-4.40800167">
        <ele>624.0</ele>
        <time>2018-05-29T11:00:25.059Z</time>
      </trkpt>
      <trkpt lat="37.40372833" lon="-4.40809">
        <ele>624.0</ele>
        <time>2018-05-29T11:00:26.076Z</time>
      </trkpt>
      <trkpt lat="37.40372833" lon="-4.40809">
        <ele>624.0</ele>
        <time>2018-05-29T11:00:27.087Z</time>
      </trkpt>
      <trkpt lat="37.40376667" lon="-4.40818167">
        <ele>623.0</ele>
        <time>2018-05-29T11:00:28.063Z</time>
      </trkpt>
      <trkpt lat="37.40376667" lon="-4.40818167">
        <ele>623.0</ele>
        <time>2018-05-29T11:00:29.071Z</time>
      </trkpt>
      <trkpt lat="37.40380833" lon="-4.40828">
        <ele>623.0</ele>
        <time>2018-05-29T11:00:30.090Z</time>
      </trkpt>
      <trkpt lat="37.40380833" lon="-4.40828">
        <ele>623.0</ele>
        <time>2018-05-29T11:00:31.058Z</time>
      </trkpt>
      <trkpt lat="37.40385167" lon="-4.40838167">
        <ele>623.0</ele>
        <time>2018-05-29T11:00:32.102Z</time>
      </trkpt>
      <trkpt lat="37.403875" lon="-4.408435">
        <ele>622.0</ele>
        <time>2018-05-29T11:00:33.072Z</time>
      </trkpt>
      <trkpt lat="37.403875" lon="-4.408435">
        <ele>622.0</ele>
        <time>2018-05-29T11:00:34.081Z</time>
      </trkpt>
      <trkpt lat="37.40392333" lon="-4.40854333">
        <ele>622.0</ele>
        <time>2018-05-29T11:00:35.077Z</time>
      </trkpt>
      <trkpt lat="37.40394833" lon="-4.4086">
        <ele>622.0</ele>
        <time>2018-05-29T11:00:36.093Z</time>
      </trkpt>
      <trkpt lat="37.40394833" lon="-4.4086">
        <ele>622.0</ele>
        <time>2018-05-29T11:00:37.062Z</time>
      </trkpt>
      <trkpt lat="37.40399667" lon="-4.408715">
        <ele>622.0</ele>
        <time>2018-05-29T11:00:38.095Z</time>
      </trkpt>
      <trkpt lat="37.40402167" lon="-4.408775">
        <ele>621.0</ele>
        <time>2018-05-29T11:00:39.087Z</time>
      </trkpt>
      <trkpt lat="37.40404667" lon="-4.40883333">
        <ele>621.0</ele>
        <time>2018-05-29T11:00:40.091Z</time>
      </trkpt>
      <trkpt lat="37.40404667" lon="-4.40883333">
        <ele>621.0</ele>
        <time>2018-05-29T11:00:41.058Z</time>
      </trkpt>
      <trkpt lat="37.40409667" lon="-4.408955">
        <ele>621.0</ele>
        <time>2018-05-29T11:00:42.089Z</time>
      </trkpt>
      <trkpt lat="37.40409667" lon="-4.408955">
        <ele>621.0</ele>
        <time>2018-05-29T11:00:43.057Z</time>
      </trkpt>
      <trkpt lat="37.40414667" lon="-4.40908">
        <ele>621.0</ele>
        <time>2018-05-29T11:00:44.082Z</time>
      </trkpt>
      <trkpt lat="37.404175" lon="-4.40914167">
        <ele>620.0</ele>
        <time>2018-05-29T11:00:45.064Z</time>
      </trkpt>
      <trkpt lat="37.404175" lon="-4.40914167">
        <ele>620.0</ele>
        <time>2018-05-29T11:00:46.071Z</time>
      </trkpt>
      <trkpt lat="37.40422833" lon="-4.40926833">
        <ele>620.0</ele>
        <time>2018-05-29T11:00:47.057Z</time>
      </trkpt>
      <trkpt lat="37.404255" lon="-4.40933167">
        <ele>620.0</ele>
        <time>2018-05-29T11:00:48.087Z</time>
      </trkpt>
      <trkpt lat="37.404255" lon="-4.40933167">
        <ele>620.0</ele>
        <time>2018-05-29T11:00:49.095Z</time>
      </trkpt>
      <trkpt lat="37.40431167" lon="-4.40946167">
        <ele>620.0</ele>
        <time>2018-05-29T11:00:50.088Z</time>
      </trkpt>
      <trkpt lat="37.40431167" lon="-4.40946167">
        <ele>620.0</ele>
        <time>2018-05-29T11:00:51.095Z</time>
      </trkpt>
      <trkpt lat="37.404365" lon="-4.40959">
        <ele>619.0</ele>
        <time>2018-05-29T11:00:52.057Z</time>
      </trkpt>
      <trkpt lat="37.404365" lon="-4.40959">
        <ele>619.0</ele>
        <time>2018-05-29T11:00:53.078Z</time>
      </trkpt>
      <trkpt lat="37.40441833" lon="-4.40971667">
        <ele>619.0</ele>
        <time>2018-05-29T11:00:54.077Z</time>
      </trkpt>
      <trkpt lat="37.40441833" lon="-4.40971667">
        <ele>619.0</ele>
        <time>2018-05-29T11:00:55.085Z</time>
      </trkpt>
      <trkpt lat="37.40447167" lon="-4.40984333">
        <ele>619.0</ele>
        <time>2018-05-29T11:00:56.084Z</time>
      </trkpt>
      <trkpt lat="37.40449833" lon="-4.40990667">
        <ele>619.0</ele>
        <time>2018-05-29T11:00:57.080Z</time>
      </trkpt>
      <trkpt lat="37.40449833" lon="-4.40990667">
        <ele>619.0</ele>
        <time>2018-05-29T11:00:58.089Z</time>
      </trkpt>
      <trkpt lat="37.404555" lon="-4.41003167">
        <ele>618.0</ele>
        <time>2018-05-29T11:00:59.060Z</time>
      </trkpt>
      <trkpt lat="37.404555" lon="-4.41003167">
        <ele>618.0</ele>
        <time>2018-05-29T11:01:00.068Z</time>
      </trkpt>
      <trkpt lat="37.40461" lon="-4.41015667">
        <ele>618.0</ele>
        <time>2018-05-29T11:01:01.095Z</time>
      </trkpt>
      <trkpt lat="37.40461" lon="-4.41015667">
        <ele>618.0</ele>
        <time>2018-05-29T11:01:02.062Z</time>
      </trkpt>
      <trkpt lat="37.40466167" lon="-4.41027833">
        <ele>618.0</ele>
        <time>2018-05-29T11:01:03.081Z</time>
      </trkpt>
      <trkpt lat="37.40468667" lon="-4.41034">
        <ele>617.0</ele>
        <time>2018-05-29T11:01:04.091Z</time>
      </trkpt>
      <trkpt lat="37.40468667" lon="-4.41034">
        <ele>617.0</ele>
        <time>2018-05-29T11:01:05.057Z</time>
      </trkpt>
      <trkpt lat="37.40473833" lon="-4.41046167">
        <ele>617.0</ele>
        <time>2018-05-29T11:01:06.093Z</time>
      </trkpt>
      <trkpt lat="37.40473833" lon="-4.41046167">
        <ele>617.0</ele>
        <time>2018-05-29T11:01:07.059Z</time>
      </trkpt>
      <trkpt lat="37.40478833" lon="-4.41058167">
        <ele>617.0</ele>
        <time>2018-05-29T11:01:08.069Z</time>
      </trkpt>
      <trkpt lat="37.40481167" lon="-4.41064333">
        <ele>617.0</ele>
        <time>2018-05-29T11:01:09.094Z</time>
      </trkpt>
      <trkpt lat="37.40481167" lon="-4.41064333">
        <ele>617.0</ele>
        <time>2018-05-29T11:01:10.060Z</time>
      </trkpt>
      <trkpt lat="37.40486333" lon="-4.41076">
        <ele>617.0</ele>
        <time>2018-05-29T11:01:11.071Z</time>
      </trkpt>
      <trkpt lat="37.40486333" lon="-4.41076">
        <ele>617.0</ele>
        <time>2018-05-29T11:01:12.078Z</time>
      </trkpt>
      <trkpt lat="37.404915" lon="-4.41088167">
        <ele>616.0</ele>
        <time>2018-05-29T11:01:13.059Z</time>
      </trkpt>
      <trkpt lat="37.404915" lon="-4.41088167">
        <ele>616.0</ele>
        <time>2018-05-29T11:01:14.065Z</time>
      </trkpt>
      <trkpt lat="37.404965" lon="-4.411005">
        <ele>616.0</ele>
        <time>2018-05-29T11:01:15.083Z</time>
      </trkpt>
      <trkpt lat="37.404965" lon="-4.411005">
        <ele>616.0</ele>
        <time>2018-05-29T11:01:16.056Z</time>
      </trkpt>
      <trkpt lat="37.40501833" lon="-4.41112333">
        <ele>616.0</ele>
        <time>2018-05-29T11:01:17.090Z</time>
      </trkpt>
      <trkpt lat="37.40501833" lon="-4.41112333">
        <ele>616.0</ele>
        <time>2018-05-29T11:01:18.057Z</time>
      </trkpt>
      <trkpt lat="37.40506833" lon="-4.411245">
        <ele>615.0</ele>
        <time>2018-05-29T11:01:19.078Z</time>
      </trkpt>
      <trkpt lat="37.40506833" lon="-4.411245">
        <ele>615.0</ele>
        <time>2018-05-29T11:01:20.087Z</time>
      </trkpt>
      <trkpt lat="37.40512" lon="-4.411365">
        <ele>615.0</ele>
        <time>2018-05-29T11:01:21.067Z</time>
      </trkpt>
      <trkpt lat="37.40512" lon="-4.411365">
        <ele>615.0</ele>
        <time>2018-05-29T11:01:22.073Z</time>
      </trkpt>
      <trkpt lat="37.40517167" lon="-4.41148333">
        <ele>615.0</ele>
        <time>2018-05-29T11:01:23.082Z</time>
      </trkpt>
      <trkpt lat="37.40517167" lon="-4.41148333">
        <ele>615.0</ele>
        <time>2018-05-29T11:01:24.088Z</time>
      </trkpt>
      <trkpt lat="37.40522333" lon="-4.41159833">
        <ele>615.0</ele>
        <time>2018-05-29T11:01:25.091Z</time>
      </trkpt>
      <trkpt lat="37.40522333" lon="-4.41159833">
        <ele>615.0</ele>
        <time>2018-05-29T11:01:26.057Z</time>
      </trkpt>
      <trkpt lat="37.40527333" lon="-4.41171833">
        <ele>615.0</ele>
        <time>2018-05-29T11:01:27.071Z</time>
      </trkpt>
      <trkpt lat="37.40527333" lon="-4.41171833">
        <ele>615.0</ele>
        <time>2018-05-29T11:01:28.062Z</time>
      </trkpt>
      <trkpt lat="37.405325" lon="-4.41183333">
        <ele>615.0</ele>
        <time>2018-05-29T11:01:29.065Z</time>
      </trkpt>
      <trkpt lat="37.405325" lon="-4.41183333">
        <ele>615.0</ele>
        <time>2018-05-29T11:01:30.073Z</time>
      </trkpt>
      <trkpt lat="37.40537667" lon="-4.41194833">
        <ele>615.0</ele>
        <time>2018-05-29T11:01:31.083Z</time>
      </trkpt>
      <trkpt lat="37.40537667" lon="-4.41194833">
        <ele>615.0</ele>
        <time>2018-05-29T11:01:32.094Z</time>
      </trkpt>
      <trkpt lat="37.40542667" lon="-4.41206667">
        <ele>614.0</ele>
        <time>2018-05-29T11:01:33.059Z</time>
      </trkpt>
      <trkpt lat="37.40542667" lon="-4.41206667">
        <ele>614.0</ele>
        <time>2018-05-29T11:01:34.066Z</time>
      </trkpt>
      <trkpt lat="37.405475" lon="-4.41218667">
        <ele>614.0</ele>
        <time>2018-05-29T11:01:35.074Z</time>
      </trkpt>
      <trkpt lat="37.405475" lon="-4.41218667">
        <ele>614.0</ele>
        <time>2018-05-29T11:01:36.082Z</time>
      </trkpt>
      <trkpt lat="37.40552667" lon="-4.412305">
        <ele>614.0</ele>
        <time>2018-05-29T11:01:37.082Z</time>
      </trkpt>
      <trkpt lat="37.40552667" lon="-4.412305">
        <ele>614.0</ele>
        <time>2018-05-29T11:01:38.089Z</time>
      </trkpt>
      <trkpt lat="37.40557667" lon="-4.41242333">
        <ele>614.0</ele>
        <time>2018-05-29T11:01:39.071Z</time>
      </trkpt>
      <trkpt lat="37.40557667" lon="-4.41242333">
        <ele>614.0</ele>
        <time>2018-05-29T11:01:40.077Z</time>
      </trkpt>
      <trkpt lat="37.40562667" lon="-4.41254">
        <ele>613.0</ele>
        <time>2018-05-29T11:01:41.089Z</time>
      </trkpt>
      <trkpt lat="37.40562667" lon="-4.41254">
        <ele>613.0</ele>
        <time>2018-05-29T11:01:42.058Z</time>
      </trkpt>
      <trkpt lat="37.40567333" lon="-4.41265667">
        <ele>613.0</ele>
        <time>2018-05-29T11:01:43.089Z</time>
      </trkpt>
      <trkpt lat="37.40569833" lon="-4.41271667">
        <ele>613.0</ele>
        <time>2018-05-29T11:01:44.080Z</time>
      </trkpt>
      <trkpt lat="37.40572333" lon="-4.41277333">
        <ele>613.0</ele>
        <time>2018-05-29T11:01:45.087Z</time>
      </trkpt>
      <trkpt lat="37.40572333" lon="-4.41277333">
        <ele>613.0</ele>
        <time>2018-05-29T11:01:46.094Z</time>
      </trkpt>
      <trkpt lat="37.405775" lon="-4.41289">
        <ele>613.0</ele>
        <time>2018-05-29T11:01:47.090Z</time>
      </trkpt>
      <trkpt lat="37.405775" lon="-4.41289">
        <ele>613.0</ele>
        <time>2018-05-29T11:01:48.056Z</time>
      </trkpt>
      <trkpt lat="37.40582333" lon="-4.41301">
        <ele>613.0</ele>
        <time>2018-05-29T11:01:49.066Z</time>
      </trkpt>
      <trkpt lat="37.40584833" lon="-4.41307">
        <ele>613.0</ele>
        <time>2018-05-29T11:01:50.063Z</time>
      </trkpt>
      <trkpt lat="37.40587333" lon="-4.41313167">
        <ele>613.0</ele>
        <time>2018-05-29T11:01:51.071Z</time>
      </trkpt>
      <trkpt lat="37.4059" lon="-4.41319167">
        <ele>613.0</ele>
        <time>2018-05-29T11:01:52.081Z</time>
      </trkpt>
      <trkpt lat="37.4059" lon="-4.41319167">
        <ele>613.0</ele>
        <time>2018-05-29T11:01:53.056Z</time>
      </trkpt>
      <trkpt lat="37.40595167" lon="-4.41331167">
        <ele>613.0</ele>
        <time>2018-05-29T11:01:54.073Z</time>
      </trkpt>
      <trkpt lat="37.40597667" lon="-4.41337333">
        <ele>612.0</ele>
        <time>2018-05-29T11:01:55.082Z</time>
      </trkpt>
      <trkpt lat="37.40597667" lon="-4.41337333">
        <ele>612.0</ele>
        <time>2018-05-29T11:01:56.056Z</time>
      </trkpt>
      <trkpt lat="37.40602667" lon="-4.4135">
        <ele>612.0</ele>
        <time>2018-05-29T11:01:57.085Z</time>
      </trkpt>
      <trkpt lat="37.40602667" lon="-4.4135">
        <ele>612.0</ele>
        <time>2018-05-29T11:01:58.070Z</time>
      </trkpt>
      <trkpt lat="37.40608" lon="-4.413625">
        <ele>612.0</ele>
        <time>2018-05-29T11:01:59.080Z</time>
      </trkpt>
      <trkpt lat="37.40608" lon="-4.413625">
        <ele>612.0</ele>
        <time>2018-05-29T11:02:00.087Z</time>
      </trkpt>
      <trkpt lat="37.40613167" lon="-4.41375333">
        <ele>612.0</ele>
        <time>2018-05-29T11:02:01.061Z</time>
      </trkpt>
      <trkpt lat="37.40613167" lon="-4.41375333">
        <ele>612.0</ele>
        <time>2018-05-29T11:02:02.068Z</time>
      </trkpt>
      <trkpt lat="37.40618" lon="-4.41388333">
        <ele>612.0</ele>
        <time>2018-05-29T11:02:03.082Z</time>
      </trkpt>
      <trkpt lat="37.40618" lon="-4.41388333">
        <ele>612.0</ele>
        <time>2018-05-29T11:02:04.094Z</time>
      </trkpt>
      <trkpt lat="37.40623833" lon="-4.41400833">
        <ele>611.0</ele>
        <time>2018-05-29T11:02:05.086Z</time>
      </trkpt>
      <trkpt lat="37.40623833" lon="-4.41400833">
        <ele>611.0</ele>
        <time>2018-05-29T11:02:06.094Z</time>
      </trkpt>
      <trkpt lat="37.40629667" lon="-4.41413167">
        <ele>611.0</ele>
        <time>2018-05-29T11:02:07.077Z</time>
      </trkpt>
      <trkpt lat="37.40632667" lon="-4.414195">
        <ele>611.0</ele>
        <time>2018-05-29T11:02:08.079Z</time>
      </trkpt>
      <trkpt lat="37.40632667" lon="-4.414195">
        <ele>611.0</ele>
        <time>2018-05-29T11:02:09.084Z</time>
      </trkpt>
      <trkpt lat="37.40639" lon="-4.414325">
        <ele>611.0</ele>
        <time>2018-05-29T11:02:10.058Z</time>
      </trkpt>
      <trkpt lat="37.40639" lon="-4.414325">
        <ele>611.0</ele>
        <time>2018-05-29T11:02:11.063Z</time>
      </trkpt>
      <trkpt lat="37.40646" lon="-4.41445167">
        <ele>610.0</ele>
        <time>2018-05-29T11:02:12.068Z</time>
      </trkpt>
      <trkpt lat="37.40646" lon="-4.41445167">
        <ele>610.0</ele>
        <time>2018-05-29T11:02:13.074Z</time>
      </trkpt>
      <trkpt lat="37.40654333" lon="-4.41457333">
        <ele>610.0</ele>
        <time>2018-05-29T11:02:14.084Z</time>
      </trkpt>
      <trkpt lat="37.40658667" lon="-4.414635">
        <ele>610.0</ele>
        <time>2018-05-29T11:02:15.057Z</time>
      </trkpt>
      <trkpt lat="37.40658667" lon="-4.414635">
        <ele>610.0</ele>
        <time>2018-05-29T11:02:16.065Z</time>
      </trkpt>
      <trkpt lat="37.40667167" lon="-4.41476333">
        <ele>610.0</ele>
        <time>2018-05-29T11:02:17.073Z</time>
      </trkpt>
      <trkpt lat="37.40671333" lon="-4.41483167">
        <ele>610.0</ele>
        <time>2018-05-29T11:02:18.066Z</time>
      </trkpt>
      <trkpt lat="37.40671333" lon="-4.41483167">
        <ele>610.0</ele>
        <time>2018-05-29T11:02:19.072Z</time>
      </trkpt>
      <trkpt lat="37.4068" lon="-4.41496667">
        <ele>609.0</ele>
        <time>2018-05-29T11:02:20.083Z</time>
      </trkpt>
      <trkpt lat="37.406845" lon="-4.41503333">
        <ele>609.0</ele>
        <time>2018-05-29T11:02:21.066Z</time>
      </trkpt>
      <trkpt lat="37.406845" lon="-4.41503333">
        <ele>609.0</ele>
        <time>2018-05-29T11:02:22.074Z</time>
      </trkpt>
      <trkpt lat="37.40694" lon="-4.41516833">
        <ele>609.0</ele>
        <time>2018-05-29T11:02:23.083Z</time>
      </trkpt>
      <trkpt lat="37.40698667" lon="-4.41524">
        <ele>608.0</ele>
        <time>2018-05-29T11:02:24.067Z</time>
      </trkpt>
      <trkpt lat="37.40698667" lon="-4.41524">
        <ele>608.0</ele>
        <time>2018-05-29T11:02:25.074Z</time>
      </trkpt>
      <trkpt lat="37.407085" lon="-4.41538333">
        <ele>608.0</ele>
        <time>2018-05-29T11:02:26.086Z</time>
      </trkpt>
      <trkpt lat="37.407135" lon="-4.41545333">
        <ele>608.0</ele>
        <time>2018-05-29T11:02:27.058Z</time>
      </trkpt>
      <trkpt lat="37.407135" lon="-4.41545333">
        <ele>608.0</ele>
        <time>2018-05-29T11:02:28.064Z</time>
      </trkpt>
      <trkpt lat="37.40723667" lon="-4.41559333">
        <ele>608.0</ele>
        <time>2018-05-29T11:02:29.089Z</time>
      </trkpt>
      <trkpt lat="37.40723667" lon="-4.41559333">
        <ele>608.0</ele>
        <time>2018-05-29T11:02:30.095Z</time>
      </trkpt>
      <trkpt lat="37.407335" lon="-4.41574">
        <ele>607.0</ele>
        <time>2018-05-29T11:02:31.078Z</time>
      </trkpt>
      <trkpt lat="37.40738333" lon="-4.41581333">
        <ele>607.0</ele>
        <time>2018-05-29T11:02:32.086Z</time>
      </trkpt>
      <trkpt lat="37.40743333" lon="-4.41588667">
        <ele>607.0</ele>
        <time>2018-05-29T11:02:33.057Z</time>
      </trkpt>
      <trkpt lat="37.40743333" lon="-4.41588667">
        <ele>607.0</ele>
        <time>2018-05-29T11:02:34.082Z</time>
      </trkpt>
      <trkpt lat="37.40753333" lon="-4.41603833">
        <ele>606.0</ele>
        <time>2018-05-29T11:02:35.058Z</time>
      </trkpt>
      <trkpt lat="37.40758167" lon="-4.41611667">
        <ele>606.0</ele>
        <time>2018-05-29T11:02:36.076Z</time>
      </trkpt>
      <trkpt lat="37.40758167" lon="-4.41611667">
        <ele>606.0</ele>
        <time>2018-05-29T11:02:37.083Z</time>
      </trkpt>
      <trkpt lat="37.40767167" lon="-4.41627167">
        <ele>606.0</ele>
        <time>2018-05-29T11:02:38.058Z</time>
      </trkpt>
      <trkpt lat="37.40771667" lon="-4.41634833">
        <ele>605.0</ele>
        <time>2018-05-29T11:02:39.093Z</time>
      </trkpt>
      <trkpt lat="37.40771667" lon="-4.41634833">
        <ele>605.0</ele>
        <time>2018-05-29T11:02:40.058Z</time>
      </trkpt>
      <trkpt lat="37.40780667" lon="-4.4165">
        <ele>605.0</ele>
        <time>2018-05-29T11:02:41.080Z</time>
      </trkpt>
      <trkpt lat="37.40780667" lon="-4.4165">
        <ele>605.0</ele>
        <time>2018-05-29T11:02:42.087Z</time>
      </trkpt>
      <trkpt lat="37.407895" lon="-4.41665333">
        <ele>604.0</ele>
        <time>2018-05-29T11:02:43.086Z</time>
      </trkpt>
      <trkpt lat="37.407895" lon="-4.41665333">
        <ele>604.0</ele>
        <time>2018-05-29T11:02:44.094Z</time>
      </trkpt>
      <trkpt lat="37.40798333" lon="-4.41680833">
        <ele>604.0</ele>
        <time>2018-05-29T11:02:45.059Z</time>
      </trkpt>
      <trkpt lat="37.40798333" lon="-4.41680833">
        <ele>604.0</ele>
        <time>2018-05-29T11:02:46.062Z</time>
      </trkpt>
      <trkpt lat="37.40806833" lon="-4.416965">
        <ele>602.0</ele>
        <time>2018-05-29T11:02:47.069Z</time>
      </trkpt>
      <trkpt lat="37.40806833" lon="-4.416965">
        <ele>602.0</ele>
        <time>2018-05-29T11:02:48.086Z</time>
      </trkpt>
      <trkpt lat="37.40815333" lon="-4.41712833">
        <ele>602.0</ele>
        <time>2018-05-29T11:02:49.065Z</time>
      </trkpt>
      <trkpt lat="37.40815333" lon="-4.41712833">
        <ele>602.0</ele>
        <time>2018-05-29T11:02:50.072Z</time>
      </trkpt>
      <trkpt lat="37.40823833" lon="-4.41729167">
        <ele>601.0</ele>
        <time>2018-05-29T11:02:51.086Z</time>
      </trkpt>
      <trkpt lat="37.40823833" lon="-4.41729167">
        <ele>601.0</ele>
        <time>2018-05-29T11:02:52.060Z</time>
      </trkpt>
      <trkpt lat="37.40832333" lon="-4.417455">
        <ele>601.0</ele>
        <time>2018-05-29T11:02:53.070Z</time>
      </trkpt>
      <trkpt lat="37.40832333" lon="-4.417455">
        <ele>601.0</ele>
        <time>2018-05-29T11:02:54.078Z</time>
      </trkpt>
      <trkpt lat="37.40841167" lon="-4.41762">
        <ele>600.0</ele>
        <time>2018-05-29T11:02:55.090Z</time>
      </trkpt>
      <trkpt lat="37.40841167" lon="-4.41762">
        <ele>600.0</ele>
        <time>2018-05-29T11:02:56.060Z</time>
      </trkpt>
      <trkpt lat="37.40849833" lon="-4.41778667">
        <ele>599.0</ele>
        <time>2018-05-29T11:02:57.069Z</time>
      </trkpt>
      <trkpt lat="37.40849833" lon="-4.41778667">
        <ele>599.0</ele>
        <time>2018-05-29T11:02:58.075Z</time>
      </trkpt>
      <trkpt lat="37.40858667" lon="-4.41795333">
        <ele>599.0</ele>
        <time>2018-05-29T11:02:59.088Z</time>
      </trkpt>
      <trkpt lat="37.40863167" lon="-4.41804">
        <ele>598.0</ele>
        <time>2018-05-29T11:03:00.088Z</time>
      </trkpt>
      <trkpt lat="37.40863167" lon="-4.41804">
        <ele>598.0</ele>
        <time>2018-05-29T11:03:01.095Z</time>
      </trkpt>
      <trkpt lat="37.40872167" lon="-4.41821333">
        <ele>598.0</ele>
        <time>2018-05-29T11:03:02.062Z</time>
      </trkpt>
      <trkpt lat="37.40872167" lon="-4.41821333">
        <ele>598.0</ele>
        <time>2018-05-29T11:03:03.067Z</time>
      </trkpt>
      <trkpt lat="37.40881167" lon="-4.41839">
        <ele>597.0</ele>
        <time>2018-05-29T11:03:04.080Z</time>
      </trkpt>
      <trkpt lat="37.40881167" lon="-4.41839">
        <ele>597.0</ele>
        <time>2018-05-29T11:03:05.085Z</time>
      </trkpt>
      <trkpt lat="37.40889833" lon="-4.41856833">
        <ele>597.0</ele>
        <time>2018-05-29T11:03:06.057Z</time>
      </trkpt>
      <trkpt lat="37.40889833" lon="-4.41856833">
        <ele>597.0</ele>
        <time>2018-05-29T11:03:07.064Z</time>
      </trkpt>
      <trkpt lat="37.40899" lon="-4.418745">
        <ele>596.0</ele>
        <time>2018-05-29T11:03:08.082Z</time>
      </trkpt>
      <trkpt lat="37.40899" lon="-4.418745">
        <ele>596.0</ele>
        <time>2018-05-29T11:03:09.087Z</time>
      </trkpt>
      <trkpt lat="37.40908333" lon="-4.41892167">
        <ele>595.0</ele>
        <time>2018-05-29T11:03:10.062Z</time>
      </trkpt>
      <trkpt lat="37.40908333" lon="-4.41892167">
        <ele>595.0</ele>
        <time>2018-05-29T11:03:11.067Z</time>
      </trkpt>
      <trkpt lat="37.40917667" lon="-4.41909667">
        <ele>595.0</ele>
        <time>2018-05-29T11:03:12.060Z</time>
      </trkpt>
      <trkpt lat="37.40917667" lon="-4.41909667">
        <ele>595.0</ele>
        <time>2018-05-29T11:03:13.065Z</time>
      </trkpt>
      <trkpt lat="37.40926833" lon="-4.41927333">
        <ele>594.0</ele>
        <time>2018-05-29T11:03:14.076Z</time>
      </trkpt>
      <trkpt lat="37.40926833" lon="-4.41927333">
        <ele>594.0</ele>
        <time>2018-05-29T11:03:15.081Z</time>
      </trkpt>
      <trkpt lat="37.40936167" lon="-4.41945167">
        <ele>593.0</ele>
        <time>2018-05-29T11:03:16.071Z</time>
      </trkpt>
      <trkpt lat="37.40936167" lon="-4.41945167">
        <ele>593.0</ele>
        <time>2018-05-29T11:03:17.077Z</time>
      </trkpt>
      <trkpt lat="37.40945167" lon="-4.41962833">
        <ele>592.0</ele>
        <time>2018-05-29T11:03:18.085Z</time>
      </trkpt>
      <trkpt lat="37.40945167" lon="-4.41962833">
        <ele>592.0</ele>
        <time>2018-05-29T11:03:19.095Z</time>
      </trkpt>
      <trkpt lat="37.40954333" lon="-4.41980333">
        <ele>592.0</ele>
        <time>2018-05-29T11:03:20.086Z</time>
      </trkpt>
      <trkpt lat="37.40959" lon="-4.41989">
        <ele>591.0</ele>
        <time>2018-05-29T11:03:21.065Z</time>
      </trkpt>
      <trkpt lat="37.40959" lon="-4.41989">
        <ele>591.0</ele>
        <time>2018-05-29T11:03:22.071Z</time>
      </trkpt>
      <trkpt lat="37.40968167" lon="-4.42006333">
        <ele>591.0</ele>
        <time>2018-05-29T11:03:23.058Z</time>
      </trkpt>
      <trkpt lat="37.40968167" lon="-4.42006333">
        <ele>591.0</ele>
        <time>2018-05-29T11:03:24.064Z</time>
      </trkpt>
      <trkpt lat="37.40977167" lon="-4.420235">
        <ele>590.0</ele>
        <time>2018-05-29T11:03:25.083Z</time>
      </trkpt>
      <trkpt lat="37.40981667" lon="-4.42032167">
        <ele>590.0</ele>
        <time>2018-05-29T11:03:26.058Z</time>
      </trkpt>
      <trkpt lat="37.40986" lon="-4.42040833">
        <ele>590.0</ele>
        <time>2018-05-29T11:03:27.066Z</time>
      </trkpt>
      <trkpt lat="37.40986" lon="-4.42040833">
        <ele>590.0</ele>
        <time>2018-05-29T11:03:28.072Z</time>
      </trkpt>
      <trkpt lat="37.40994667" lon="-4.42057833">
        <ele>589.0</ele>
        <time>2018-05-29T11:03:29.076Z</time>
      </trkpt>
      <trkpt lat="37.40994667" lon="-4.42057833">
        <ele>589.0</ele>
        <time>2018-05-29T11:03:30.084Z</time>
      </trkpt>
      <trkpt lat="37.41003167" lon="-4.420745">
        <ele>589.0</ele>
        <time>2018-05-29T11:03:31.056Z</time>
      </trkpt>
      <trkpt lat="37.41003167" lon="-4.420745">
        <ele>589.0</ele>
        <time>2018-05-29T11:03:32.080Z</time>
      </trkpt>
      <trkpt lat="37.410115" lon="-4.42091">
        <ele>589.0</ele>
        <time>2018-05-29T11:03:33.093Z</time>
      </trkpt>
      <trkpt lat="37.410115" lon="-4.42091">
        <ele>589.0</ele>
        <time>2018-05-29T11:03:34.058Z</time>
      </trkpt>
      <trkpt lat="37.4102" lon="-4.421075">
        <ele>588.0</ele>
        <time>2018-05-29T11:03:35.072Z</time>
      </trkpt>
      <trkpt lat="37.4102" lon="-4.421075">
        <ele>588.0</ele>
        <time>2018-05-29T11:03:36.078Z</time>
      </trkpt>
      <trkpt lat="37.410285" lon="-4.42124167">
        <ele>588.0</ele>
        <time>2018-05-29T11:03:37.086Z</time>
      </trkpt>
      <trkpt lat="37.410285" lon="-4.42124167">
        <ele>588.0</ele>
        <time>2018-05-29T11:03:38.092Z</time>
      </trkpt>
      <trkpt lat="37.41037333" lon="-4.42140333">
        <ele>587.0</ele>
        <time>2018-05-29T11:03:39.059Z</time>
      </trkpt>
      <trkpt lat="37.41037333" lon="-4.42140333">
        <ele>587.0</ele>
        <time>2018-05-29T11:03:40.065Z</time>
      </trkpt>
      <trkpt lat="37.41046" lon="-4.42156333">
        <ele>587.0</ele>
        <time>2018-05-29T11:03:41.070Z</time>
      </trkpt>
      <trkpt lat="37.4105" lon="-4.421645">
        <ele>587.0</ele>
        <time>2018-05-29T11:03:42.078Z</time>
      </trkpt>
      <trkpt lat="37.4105" lon="-4.421645">
        <ele>587.0</ele>
        <time>2018-05-29T11:03:43.085Z</time>
      </trkpt>
      <trkpt lat="37.41058333" lon="-4.42180667">
        <ele>586.0</ele>
        <time>2018-05-29T11:03:44.072Z</time>
      </trkpt>
      <trkpt lat="37.410625" lon="-4.421885">
        <ele>586.0</ele>
        <time>2018-05-29T11:03:45.087Z</time>
      </trkpt>
      <trkpt lat="37.410625" lon="-4.421885">
        <ele>586.0</ele>
        <time>2018-05-29T11:03:46.056Z</time>
      </trkpt>
      <trkpt lat="37.410705" lon="-4.42204333">
        <ele>586.0</ele>
        <time>2018-05-29T11:03:47.074Z</time>
      </trkpt>
      <trkpt lat="37.410745" lon="-4.42212333">
        <ele>585.0</ele>
        <time>2018-05-29T11:03:48.082Z</time>
      </trkpt>
      <trkpt lat="37.410745" lon="-4.42212333">
        <ele>585.0</ele>
        <time>2018-05-29T11:03:49.088Z</time>
      </trkpt>
      <trkpt lat="37.41082333" lon="-4.42228167">
        <ele>585.0</ele>
        <time>2018-05-29T11:03:50.070Z</time>
      </trkpt>
      <trkpt lat="37.41086333" lon="-4.42236">
        <ele>585.0</ele>
        <time>2018-05-29T11:03:51.079Z</time>
      </trkpt>
      <trkpt lat="37.41086333" lon="-4.42236">
        <ele>585.0</ele>
        <time>2018-05-29T11:03:52.085Z</time>
      </trkpt>
      <trkpt lat="37.410945" lon="-4.42252">
        <ele>585.0</ele>
        <time>2018-05-29T11:03:53.080Z</time>
      </trkpt>
      <trkpt lat="37.41098667" lon="-4.42259667">
        <ele>584.0</ele>
        <time>2018-05-29T11:03:54.066Z</time>
      </trkpt>
      <trkpt lat="37.41098667" lon="-4.42259667">
        <ele>584.0</ele>
        <time>2018-05-29T11:03:55.072Z</time>
      </trkpt>
      <trkpt lat="37.41106667" lon="-4.422755">
        <ele>584.0</ele>
        <time>2018-05-29T11:03:56.086Z</time>
      </trkpt>
      <trkpt lat="37.41110833" lon="-4.422835">
        <ele>584.0</ele>
        <time>2018-05-29T11:03:57.062Z</time>
      </trkpt>
      <trkpt lat="37.41110833" lon="-4.422835">
        <ele>584.0</ele>
        <time>2018-05-29T11:03:58.069Z</time>
      </trkpt>
      <trkpt lat="37.41119" lon="-4.42299167">
        <ele>584.0</ele>
        <time>2018-05-29T11:03:59.059Z</time>
      </trkpt>
      <trkpt lat="37.41122667" lon="-4.42306667">
        <ele>583.0</ele>
        <time>2018-05-29T11:04:00.065Z</time>
      </trkpt>
      <trkpt lat="37.41122667" lon="-4.42306667">
        <ele>583.0</ele>
        <time>2018-05-29T11:04:01.071Z</time>
      </trkpt>
      <trkpt lat="37.41129333" lon="-4.4232">
        <ele>583.0</ele>
        <time>2018-05-29T11:04:02.086Z</time>
      </trkpt>
      <trkpt lat="37.41129333" lon="-4.4232">
        <ele>583.0</ele>
        <time>2018-05-29T11:04:03.094Z</time>
      </trkpt>
      <trkpt lat="37.41135" lon="-4.423305">
        <ele>583.0</ele>
        <time>2018-05-29T11:04:04.089Z</time>
      </trkpt>
      <trkpt lat="37.41135" lon="-4.423305">
        <ele>583.0</ele>
        <time>2018-05-29T11:04:05.056Z</time>
      </trkpt>
      <trkpt lat="37.41139167" lon="-4.42338833">
        <ele>582.0</ele>
        <time>2018-05-29T11:04:06.084Z</time>
      </trkpt>
      <trkpt lat="37.41139167" lon="-4.42338833">
        <ele>582.0</ele>
        <time>2018-05-29T11:04:07.093Z</time>
      </trkpt>
      <trkpt lat="37.411425" lon="-4.42345">
        <ele>582.0</ele>
        <time>2018-05-29T11:04:08.061Z</time>
      </trkpt>
      <trkpt lat="37.41143667" lon="-4.42347333">
        <ele>582.0</ele>
        <time>2018-05-29T11:04:09.060Z</time>
      </trkpt>
      <trkpt lat="37.41143667" lon="-4.42347333">
        <ele>582.0</ele>
        <time>2018-05-29T11:04:10.066Z</time>
      </trkpt>
      <trkpt lat="37.41147" lon="-4.423505">
        <ele>582.0</ele>
        <time>2018-05-29T11:04:11.083Z</time>
      </trkpt>
      <trkpt lat="37.41147" lon="-4.423505">
        <ele>582.0</ele>
        <time>2018-05-29T11:04:12.057Z</time>
      </trkpt>
      <trkpt lat="37.41151333" lon="-4.42353333">
        <ele>582.0</ele>
        <time>2018-05-29T11:04:13.058Z</time>
      </trkpt>
      <trkpt lat="37.41151333" lon="-4.42353333">
        <ele>582.0</ele>
        <time>2018-05-29T11:04:14.071Z</time>
      </trkpt>
      <trkpt lat="37.41154167" lon="-4.42357">
        <ele>582.0</ele>
        <time>2018-05-29T11:04:15.080Z</time>
      </trkpt>
      <trkpt lat="37.41154167" lon="-4.42357">
        <ele>582.0</ele>
        <time>2018-05-29T11:04:16.085Z</time>
      </trkpt>
      <trkpt lat="37.41154" lon="-4.423615">
        <ele>582.0</ele>
        <time>2018-05-29T11:04:17.091Z</time>
      </trkpt>
      <trkpt lat="37.41154" lon="-4.423615">
        <ele>582.0</ele>
        <time>2018-05-29T11:04:18.058Z</time>
      </trkpt>
      <trkpt lat="37.41151" lon="-4.42363833">
        <ele>582.0</ele>
        <time>2018-05-29T11:04:19.081Z</time>
      </trkpt>
      <trkpt lat="37.41151" lon="-4.42363833">
        <ele>582.0</ele>
        <time>2018-05-29T11:04:20.087Z</time>
      </trkpt>
      <trkpt lat="37.41145833" lon="-4.42364333">
        <ele>582.0</ele>
        <time>2018-05-29T11:04:21.077Z</time>
      </trkpt>
      <trkpt lat="37.41145833" lon="-4.42364333">
        <ele>582.0</ele>
        <time>2018-05-29T11:04:22.083Z</time>
      </trkpt>
      <trkpt lat="37.41139" lon="-4.423655">
        <ele>582.0</ele>
        <time>2018-05-29T11:04:23.124Z</time>
      </trkpt>
      <trkpt lat="37.41139" lon="-4.423655">
        <ele>582.0</ele>
        <time>2018-05-29T11:04:24.088Z</time>
      </trkpt>
      <trkpt lat="37.41130333" lon="-4.42367667">
        <ele>581.0</ele>
        <time>2018-05-29T11:04:25.062Z</time>
      </trkpt>
      <trkpt lat="37.41125833" lon="-4.4237">
        <ele>581.0</ele>
        <time>2018-05-29T11:04:26.073Z</time>
      </trkpt>
      <trkpt lat="37.41125833" lon="-4.4237">
        <ele>581.0</ele>
        <time>2018-05-29T11:04:27.079Z</time>
      </trkpt>
      <trkpt lat="37.411165" lon="-4.42377667">
        <ele>581.0</ele>
        <time>2018-05-29T11:04:28.090Z</time>
      </trkpt>
      <trkpt lat="37.411165" lon="-4.42377667">
        <ele>581.0</ele>
        <time>2018-05-29T11:04:29.072Z</time>
      </trkpt>
      <trkpt lat="37.41106333" lon="-4.42386167">
        <ele>581.0</ele>
        <time>2018-05-29T11:04:30.070Z</time>
      </trkpt>
      <trkpt lat="37.41106333" lon="-4.42386167">
        <ele>581.0</ele>
        <time>2018-05-29T11:04:31.076Z</time>
      </trkpt>
      <trkpt lat="37.41095333" lon="-4.42395167">
        <ele>580.0</ele>
        <time>2018-05-29T11:04:32.090Z</time>
      </trkpt>
      <trkpt lat="37.410895" lon="-4.424">
        <ele>580.0</ele>
        <time>2018-05-29T11:04:33.087Z</time>
      </trkpt>
      <trkpt lat="37.410895" lon="-4.424">
        <ele>580.0</ele>
        <time>2018-05-29T11:04:34.056Z</time>
      </trkpt>
      <trkpt lat="37.41078" lon="-4.42410833">
        <ele>579.0</ele>
        <time>2018-05-29T11:04:35.066Z</time>
      </trkpt>
      <trkpt lat="37.41072167" lon="-4.42416167">
        <ele>579.0</ele>
        <time>2018-05-29T11:04:36.079Z</time>
      </trkpt>
      <trkpt lat="37.41072167" lon="-4.42416167">
        <ele>579.0</ele>
        <time>2018-05-29T11:04:37.086Z</time>
      </trkpt>
      <trkpt lat="37.41059667" lon="-4.42426167">
        <ele>578.0</ele>
        <time>2018-05-29T11:04:38.071Z</time>
      </trkpt>
      <trkpt lat="37.41052833" lon="-4.42430667">
        <ele>577.0</ele>
        <time>2018-05-29T11:04:39.066Z</time>
      </trkpt>
      <trkpt lat="37.41052833" lon="-4.42430667">
        <ele>577.0</ele>
        <time>2018-05-29T11:04:40.072Z</time>
      </trkpt>
      <trkpt lat="37.41040167" lon="-4.42440667">
        <ele>577.0</ele>
        <time>2018-05-29T11:04:41.084Z</time>
      </trkpt>
      <trkpt lat="37.410345" lon="-4.42447167">
        <ele>577.0</ele>
        <time>2018-05-29T11:04:42.059Z</time>
      </trkpt>
      <trkpt lat="37.410345" lon="-4.42447167">
        <ele>577.0</ele>
        <time>2018-05-29T11:04:43.065Z</time>
      </trkpt>
      <trkpt lat="37.41026833" lon="-4.42460667">
        <ele>577.0</ele>
        <time>2018-05-29T11:04:44.093Z</time>
      </trkpt>
      <trkpt lat="37.41024333" lon="-4.424675">
        <ele>577.0</ele>
        <time>2018-05-29T11:04:45.060Z</time>
      </trkpt>
      <trkpt lat="37.41024333" lon="-4.424675">
        <ele>577.0</ele>
        <time>2018-05-29T11:04:46.067Z</time>
      </trkpt>
      <trkpt lat="37.41019833" lon="-4.42480333">
        <ele>577.0</ele>
        <time>2018-05-29T11:04:47.079Z</time>
      </trkpt>
      <trkpt lat="37.41018" lon="-4.42486">
        <ele>577.0</ele>
        <time>2018-05-29T11:04:48.091Z</time>
      </trkpt>
      <trkpt lat="37.41018" lon="-4.42486">
        <ele>577.0</ele>
        <time>2018-05-29T11:04:49.058Z</time>
      </trkpt>
      <trkpt lat="37.41014167" lon="-4.424965">
        <ele>579.0</ele>
        <time>2018-05-29T11:04:50.072Z</time>
      </trkpt>
      <trkpt lat="37.41014167" lon="-4.424965">
        <ele>579.0</ele>
        <time>2018-05-29T11:04:51.077Z</time>
      </trkpt>
      <trkpt lat="37.410105" lon="-4.42505333">
        <ele>579.0</ele>
        <time>2018-05-29T11:04:52.093Z</time>
      </trkpt>
      <trkpt lat="37.410105" lon="-4.42505333">
        <ele>579.0</ele>
        <time>2018-05-29T11:04:53.081Z</time>
      </trkpt>
      <trkpt lat="37.41007333" lon="-4.42512667">
        <ele>580.0</ele>
        <time>2018-05-29T11:04:54.062Z</time>
      </trkpt>
      <trkpt lat="37.41007333" lon="-4.42512667">
        <ele>580.0</ele>
        <time>2018-05-29T11:04:55.067Z</time>
      </trkpt>
      <trkpt lat="37.41004" lon="-4.42519667">
        <ele>581.0</ele>
        <time>2018-05-29T11:04:56.079Z</time>
      </trkpt>
      <trkpt lat="37.41002167" lon="-4.42523">
        <ele>581.0</ele>
        <time>2018-05-29T11:04:57.062Z</time>
      </trkpt>
      <trkpt lat="37.41002167" lon="-4.42523">
        <ele>581.0</ele>
        <time>2018-05-29T11:04:58.069Z</time>
      </trkpt>
      <trkpt lat="37.40998833" lon="-4.42529333">
        <ele>582.0</ele>
        <time>2018-05-29T11:04:59.088Z</time>
      </trkpt>
      <trkpt lat="37.40998833" lon="-4.42529333">
        <ele>582.0</ele>
        <time>2018-05-29T11:05:00.057Z</time>
      </trkpt>
      <trkpt lat="37.40995833" lon="-4.42535667">
        <ele>583.0</ele>
        <time>2018-05-29T11:05:01.057Z</time>
      </trkpt>
      <trkpt lat="37.40995833" lon="-4.42535667">
        <ele>583.0</ele>
        <time>2018-05-29T11:05:02.063Z</time>
      </trkpt>
      <trkpt lat="37.40992833" lon="-4.42540833">
        <ele>584.0</ele>
        <time>2018-05-29T11:05:03.074Z</time>
      </trkpt>
      <trkpt lat="37.40992833" lon="-4.42540833">
        <ele>584.0</ele>
        <time>2018-05-29T11:05:04.079Z</time>
      </trkpt>
      <trkpt lat="37.4099" lon="-4.425455">
        <ele>584.0</ele>
        <time>2018-05-29T11:05:05.089Z</time>
      </trkpt>
      <trkpt lat="37.4099" lon="-4.425455">
        <ele>584.0</ele>
        <time>2018-05-29T11:05:06.059Z</time>
      </trkpt>
      <trkpt lat="37.40987" lon="-4.42549833">
        <ele>585.0</ele>
        <time>2018-05-29T11:05:07.059Z</time>
      </trkpt>
      <trkpt lat="37.40987" lon="-4.42549833">
        <ele>585.0</ele>
        <time>2018-05-29T11:05:08.066Z</time>
      </trkpt>
      <trkpt lat="37.40984167" lon="-4.42554167">
        <ele>585.0</ele>
        <time>2018-05-29T11:05:09.086Z</time>
      </trkpt>
      <trkpt lat="37.40984167" lon="-4.42554167">
        <ele>585.0</ele>
        <time>2018-05-29T11:05:10.095Z</time>
      </trkpt>
      <trkpt lat="37.409815" lon="-4.42558667">
        <ele>586.0</ele>
        <time>2018-05-29T11:05:11.071Z</time>
      </trkpt>
      <trkpt lat="37.409815" lon="-4.42558667">
        <ele>586.0</ele>
        <time>2018-05-29T11:05:12.077Z</time>
      </trkpt>
      <trkpt lat="37.40978833" lon="-4.42562833">
        <ele>586.0</ele>
        <time>2018-05-29T11:05:13.095Z</time>
      </trkpt>
      <trkpt lat="37.40978833" lon="-4.42562833">
        <ele>586.0</ele>
        <time>2018-05-29T11:05:14.062Z</time>
      </trkpt>
      <trkpt lat="37.40976333" lon="-4.42566667">
        <ele>587.0</ele>
        <time>2018-05-29T11:05:15.081Z</time>
      </trkpt>
      <trkpt lat="37.40976333" lon="-4.42566667">
        <ele>587.0</ele>
        <time>2018-05-29T11:05:16.087Z</time>
      </trkpt>
      <trkpt lat="37.40973667" lon="-4.42570167">
        <ele>588.0</ele>
        <time>2018-05-29T11:05:17.074Z</time>
      </trkpt>
      <trkpt lat="37.40972167" lon="-4.42571667">
        <ele>588.0</ele>
        <time>2018-05-29T11:05:18.069Z</time>
      </trkpt>
      <trkpt lat="37.40972167" lon="-4.42571667">
        <ele>588.0</ele>
        <time>2018-05-29T11:05:19.076Z</time>
      </trkpt>
      <trkpt lat="37.409695" lon="-4.42575333">
        <ele>589.0</ele>
        <time>2018-05-29T11:05:20.088Z</time>
      </trkpt>
      <trkpt lat="37.40968167" lon="-4.42577167">
        <ele>589.0</ele>
        <time>2018-05-29T11:05:21.065Z</time>
      </trkpt>
      <trkpt lat="37.40968167" lon="-4.42577167">
        <ele>589.0</ele>
        <time>2018-05-29T11:05:22.071Z</time>
      </trkpt>
      <trkpt lat="37.40965833" lon="-4.42581">
        <ele>590.0</ele>
        <time>2018-05-29T11:05:23.086Z</time>
      </trkpt>
      <trkpt lat="37.40964333" lon="-4.42583">
        <ele>590.0</ele>
        <time>2018-05-29T11:05:24.060Z</time>
      </trkpt>
      <trkpt lat="37.40964333" lon="-4.42583">
        <ele>590.0</ele>
        <time>2018-05-29T11:05:25.066Z</time>
      </trkpt>
      <trkpt lat="37.40961833" lon="-4.42587167">
        <ele>590.0</ele>
        <time>2018-05-29T11:05:26.081Z</time>
      </trkpt>
      <trkpt lat="37.409605" lon="-4.42588833">
        <ele>591.0</ele>
        <time>2018-05-29T11:05:27.068Z</time>
      </trkpt>
      <trkpt lat="37.409605" lon="-4.42588833">
        <ele>591.0</ele>
        <time>2018-05-29T11:05:28.074Z</time>
      </trkpt>
      <trkpt lat="37.40958" lon="-4.42592167">
        <ele>591.0</ele>
        <time>2018-05-29T11:05:29.062Z</time>
      </trkpt>
      <trkpt lat="37.40958" lon="-4.42592167">
        <ele>591.0</ele>
        <time>2018-05-29T11:05:30.068Z</time>
      </trkpt>
      <trkpt lat="37.40955833" lon="-4.42595833">
        <ele>592.0</ele>
        <time>2018-05-29T11:05:31.061Z</time>
      </trkpt>
      <trkpt lat="37.40955833" lon="-4.42595833">
        <ele>592.0</ele>
        <time>2018-05-29T11:05:32.067Z</time>
      </trkpt>
      <trkpt lat="37.40953667" lon="-4.42599333">
        <ele>592.0</ele>
        <time>2018-05-29T11:05:33.075Z</time>
      </trkpt>
      <trkpt lat="37.40953667" lon="-4.42599333">
        <ele>592.0</ele>
        <time>2018-05-29T11:05:34.081Z</time>
      </trkpt>
      <trkpt lat="37.40951167" lon="-4.426025">
        <ele>593.0</ele>
        <time>2018-05-29T11:05:35.070Z</time>
      </trkpt>
      <trkpt lat="37.40951167" lon="-4.426025">
        <ele>593.0</ele>
        <time>2018-05-29T11:05:36.076Z</time>
      </trkpt>
      <trkpt lat="37.40948833" lon="-4.42606333">
        <ele>593.0</ele>
        <time>2018-05-29T11:05:37.085Z</time>
      </trkpt>
      <trkpt lat="37.40948833" lon="-4.42606333">
        <ele>593.0</ele>
        <time>2018-05-29T11:05:38.092Z</time>
      </trkpt>
      <trkpt lat="37.40946333" lon="-4.4261">
        <ele>594.0</ele>
        <time>2018-05-29T11:05:39.091Z</time>
      </trkpt>
      <trkpt lat="37.40946333" lon="-4.4261">
        <ele>594.0</ele>
        <time>2018-05-29T11:05:40.057Z</time>
      </trkpt>
      <trkpt lat="37.40944" lon="-4.42613833">
        <ele>595.0</ele>
        <time>2018-05-29T11:05:41.085Z</time>
      </trkpt>
      <trkpt lat="37.40943" lon="-4.42615833">
        <ele>595.0</ele>
        <time>2018-05-29T11:05:42.070Z</time>
      </trkpt>
      <trkpt lat="37.40943" lon="-4.42615833">
        <ele>595.0</ele>
        <time>2018-05-29T11:05:43.075Z</time>
      </trkpt>
      <trkpt lat="37.409405" lon="-4.42619167">
        <ele>595.0</ele>
        <time>2018-05-29T11:05:44.085Z</time>
      </trkpt>
      <trkpt lat="37.40939167" lon="-4.42620667">
        <ele>595.0</ele>
        <time>2018-05-29T11:05:45.066Z</time>
      </trkpt>
      <trkpt lat="37.40939167" lon="-4.42620667">
        <ele>595.0</ele>
        <time>2018-05-29T11:05:46.072Z</time>
      </trkpt>
      <trkpt lat="37.40936833" lon="-4.42624167">
        <ele>596.0</ele>
        <time>2018-05-29T11:05:47.082Z</time>
      </trkpt>
      <trkpt lat="37.40936833" lon="-4.42624167">
        <ele>596.0</ele>
        <time>2018-05-29T11:05:48.094Z</time>
      </trkpt>
      <trkpt lat="37.40935" lon="-4.42628">
        <ele>596.0</ele>
        <time>2018-05-29T11:05:49.077Z</time>
      </trkpt>
      <trkpt lat="37.40935" lon="-4.42628">
        <ele>596.0</ele>
        <time>2018-05-29T11:05:50.083Z</time>
      </trkpt>
      <trkpt lat="37.409325" lon="-4.42631333">
        <ele>596.0</ele>
        <time>2018-05-29T11:05:51.091Z</time>
      </trkpt>
      <trkpt lat="37.409325" lon="-4.42631333">
        <ele>596.0</ele>
        <time>2018-05-29T11:05:52.057Z</time>
      </trkpt>
      <trkpt lat="37.40929333" lon="-4.42633167">
        <ele>597.0</ele>
        <time>2018-05-29T11:05:53.082Z</time>
      </trkpt>
      <trkpt lat="37.40929333" lon="-4.42633167">
        <ele>597.0</ele>
        <time>2018-05-29T11:05:54.090Z</time>
      </trkpt>
      <trkpt lat="37.409265" lon="-4.42636333">
        <ele>598.0</ele>
        <time>2018-05-29T11:05:55.060Z</time>
      </trkpt>
      <trkpt lat="37.409265" lon="-4.42636333">
        <ele>598.0</ele>
        <time>2018-05-29T11:05:56.067Z</time>
      </trkpt>
      <trkpt lat="37.40924167" lon="-4.42640167">
        <ele>598.0</ele>
        <time>2018-05-29T11:05:57.089Z</time>
      </trkpt>
      <trkpt lat="37.40924167" lon="-4.42640167">
        <ele>598.0</ele>
        <time>2018-05-29T11:05:58.077Z</time>
      </trkpt>
      <trkpt lat="37.40921833" lon="-4.42644">
        <ele>599.0</ele>
        <time>2018-05-29T11:05:59.089Z</time>
      </trkpt>
      <trkpt lat="37.40920667" lon="-4.42645833">
        <ele>599.0</ele>
        <time>2018-05-29T11:06:00.085Z</time>
      </trkpt>
      <trkpt lat="37.40920667" lon="-4.42645833">
        <ele>599.0</ele>
        <time>2018-05-29T11:06:01.093Z</time>
      </trkpt>
      <trkpt lat="37.40918" lon="-4.42648833">
        <ele>599.0</ele>
        <time>2018-05-29T11:06:02.086Z</time>
      </trkpt>
      <trkpt lat="37.40916333" lon="-4.42650333">
        <ele>599.0</ele>
        <time>2018-05-29T11:06:03.078Z</time>
      </trkpt>
      <trkpt lat="37.40916333" lon="-4.42650333">
        <ele>599.0</ele>
        <time>2018-05-29T11:06:04.084Z</time>
      </trkpt>
      <trkpt lat="37.40913167" lon="-4.42653167">
        <ele>599.0</ele>
        <time>2018-05-29T11:06:05.083Z</time>
      </trkpt>
      <trkpt lat="37.40911333" lon="-4.42654833">
        <ele>599.0</ele>
        <time>2018-05-29T11:06:06.083Z</time>
      </trkpt>
      <trkpt lat="37.40911333" lon="-4.42654833">
        <ele>599.0</ele>
        <time>2018-05-29T11:06:07.092Z</time>
      </trkpt>
      <trkpt lat="37.40908" lon="-4.426585">
        <ele>600.0</ele>
        <time>2018-05-29T11:06:08.061Z</time>
      </trkpt>
      <trkpt lat="37.40906333" lon="-4.42660167">
        <ele>600.0</ele>
        <time>2018-05-29T11:06:09.059Z</time>
      </trkpt>
      <trkpt lat="37.40906333" lon="-4.42660167">
        <ele>600.0</ele>
        <time>2018-05-29T11:06:10.065Z</time>
      </trkpt>
      <trkpt lat="37.40902667" lon="-4.42663333">
        <ele>600.0</ele>
        <time>2018-05-29T11:06:11.057Z</time>
      </trkpt>
      <trkpt lat="37.40902667" lon="-4.42663333">
        <ele>600.0</ele>
        <time>2018-05-29T11:06:12.069Z</time>
      </trkpt>
      <trkpt lat="37.40899167" lon="-4.42666833">
        <ele>600.0</ele>
        <time>2018-05-29T11:06:13.069Z</time>
      </trkpt>
      <trkpt lat="37.40897333" lon="-4.42668667">
        <ele>600.0</ele>
        <time>2018-05-29T11:06:14.071Z</time>
      </trkpt>
      <trkpt lat="37.40897333" lon="-4.42668667">
        <ele>600.0</ele>
        <time>2018-05-29T11:06:15.079Z</time>
      </trkpt>
      <trkpt lat="37.40893667" lon="-4.42671667">
        <ele>601.0</ele>
        <time>2018-05-29T11:06:16.078Z</time>
      </trkpt>
      <trkpt lat="37.40893667" lon="-4.42671667">
        <ele>601.0</ele>
        <time>2018-05-29T11:06:17.086Z</time>
      </trkpt>
      <trkpt lat="37.40890167" lon="-4.42675">
        <ele>601.0</ele>
        <time>2018-05-29T11:06:18.057Z</time>
      </trkpt>
      <trkpt lat="37.40890167" lon="-4.42675">
        <ele>601.0</ele>
        <time>2018-05-29T11:06:19.063Z</time>
      </trkpt>
      <trkpt lat="37.408865" lon="-4.42678167">
        <ele>602.0</ele>
        <time>2018-05-29T11:06:20.056Z</time>
      </trkpt>
      <trkpt lat="37.40884833" lon="-4.42679833">
        <ele>602.0</ele>
        <time>2018-05-29T11:06:21.087Z</time>
      </trkpt>
      <trkpt lat="37.40884833" lon="-4.42679833">
        <ele>602.0</ele>
        <time>2018-05-29T11:06:22.057Z</time>
      </trkpt>
      <trkpt lat="37.408815" lon="-4.426835">
        <ele>602.0</ele>
        <time>2018-05-29T11:06:23.061Z</time>
      </trkpt>
      <trkpt lat="37.408815" lon="-4.426835">
        <ele>602.0</ele>
        <time>2018-05-29T11:06:24.067Z</time>
      </trkpt>
      <trkpt lat="37.40878167" lon="-4.42687333">
        <ele>603.0</ele>
        <time>2018-05-29T11:06:25.069Z</time>
      </trkpt>
      <trkpt lat="37.40878167" lon="-4.42687333">
        <ele>603.0</ele>
        <time>2018-05-29T11:06:26.083Z</time>
      </trkpt>
      <trkpt lat="37.40875" lon="-4.42691167">
        <ele>603.0</ele>
        <time>2018-05-29T11:06:27.089Z</time>
      </trkpt>
      <trkpt lat="37.40875" lon="-4.42691167">
        <ele>603.0</ele>
        <time>2018-05-29T11:06:28.095Z</time>
      </trkpt>
      <trkpt lat="37.40871333" lon="-4.426945">
        <ele>603.0</ele>
        <time>2018-05-29T11:06:29.059Z</time>
      </trkpt>
      <trkpt lat="37.40869667" lon="-4.42696333">
        <ele>603.0</ele>
        <time>2018-05-29T11:06:30.059Z</time>
      </trkpt>
      <trkpt lat="37.40869667" lon="-4.42696333">
        <ele>603.0</ele>
        <time>2018-05-29T11:06:31.065Z</time>
      </trkpt>
      <trkpt lat="37.40866167" lon="-4.42700167">
        <ele>604.0</ele>
        <time>2018-05-29T11:06:32.069Z</time>
      </trkpt>
      <trkpt lat="37.408645" lon="-4.42702">
        <ele>604.0</ele>
        <time>2018-05-29T11:06:33.073Z</time>
      </trkpt>
      <trkpt lat="37.408645" lon="-4.42702">
        <ele>604.0</ele>
        <time>2018-05-29T11:06:34.079Z</time>
      </trkpt>
      <trkpt lat="37.40860833" lon="-4.42705333">
        <ele>603.0</ele>
        <time>2018-05-29T11:06:35.092Z</time>
      </trkpt>
      <trkpt lat="37.40860833" lon="-4.42705333">
        <ele>603.0</ele>
        <time>2018-05-29T11:06:36.057Z</time>
      </trkpt>
      <trkpt lat="37.408575" lon="-4.42708833">
        <ele>604.0</ele>
        <time>2018-05-29T11:06:37.057Z</time>
      </trkpt>
      <trkpt lat="37.408575" lon="-4.42708833">
        <ele>604.0</ele>
        <time>2018-05-29T11:06:38.064Z</time>
      </trkpt>
      <trkpt lat="37.40854333" lon="-4.42712833">
        <ele>604.0</ele>
        <time>2018-05-29T11:06:39.092Z</time>
      </trkpt>
      <trkpt lat="37.40854333" lon="-4.42712833">
        <ele>604.0</ele>
        <time>2018-05-29T11:06:40.087Z</time>
      </trkpt>
      <trkpt lat="37.40850833" lon="-4.427165">
        <ele>604.0</ele>
        <time>2018-05-29T11:06:41.095Z</time>
      </trkpt>
      <trkpt lat="37.40850833" lon="-4.427165">
        <ele>604.0</ele>
        <time>2018-05-29T11:06:42.061Z</time>
      </trkpt>
      <trkpt lat="37.40847333" lon="-4.4272">
        <ele>605.0</ele>
        <time>2018-05-29T11:06:43.069Z</time>
      </trkpt>
      <trkpt lat="37.40847333" lon="-4.4272">
        <ele>605.0</ele>
        <time>2018-05-29T11:06:44.075Z</time>
      </trkpt>
      <trkpt lat="37.40844" lon="-4.42723333">
        <ele>605.0</ele>
        <time>2018-05-29T11:06:45.068Z</time>
      </trkpt>
      <trkpt lat="37.40844" lon="-4.42723333">
        <ele>605.0</ele>
        <time>2018-05-29T11:06:46.074Z</time>
      </trkpt>
      <trkpt lat="37.40840833" lon="-4.42726333">
        <ele>605.0</ele>
        <time>2018-05-29T11:06:47.082Z</time>
      </trkpt>
      <trkpt lat="37.40840833" lon="-4.42726333">
        <ele>605.0</ele>
        <time>2018-05-29T11:06:48.087Z</time>
      </trkpt>
      <trkpt lat="37.40837333" lon="-4.427295">
        <ele>606.0</ele>
        <time>2018-05-29T11:06:49.092Z</time>
      </trkpt>
      <trkpt lat="37.40835667" lon="-4.42731">
        <ele>606.0</ele>
        <time>2018-05-29T11:06:50.084Z</time>
      </trkpt>
      <trkpt lat="37.40835667" lon="-4.42731">
        <ele>606.0</ele>
        <time>2018-05-29T11:06:51.093Z</time>
      </trkpt>
      <trkpt lat="37.408325" lon="-4.42734333">
        <ele>606.0</ele>
        <time>2018-05-29T11:06:52.081Z</time>
      </trkpt>
      <trkpt lat="37.408325" lon="-4.42734333">
        <ele>606.0</ele>
        <time>2018-05-29T11:06:53.074Z</time>
      </trkpt>
      <trkpt lat="37.40829167" lon="-4.42737833">
        <ele>607.0</ele>
        <time>2018-05-29T11:06:54.090Z</time>
      </trkpt>
      <trkpt lat="37.40829167" lon="-4.42737833">
        <ele>607.0</ele>
        <time>2018-05-29T11:06:55.095Z</time>
      </trkpt>
      <trkpt lat="37.40825833" lon="-4.42740667">
        <ele>607.0</ele>
        <time>2018-05-29T11:06:56.089Z</time>
      </trkpt>
      <trkpt lat="37.40824167" lon="-4.42742333">
        <ele>607.0</ele>
        <time>2018-05-29T11:06:57.086Z</time>
      </trkpt>
      <trkpt lat="37.40824167" lon="-4.42742333">
        <ele>607.0</ele>
        <time>2018-05-29T11:06:58.093Z</time>
      </trkpt>
      <trkpt lat="37.40820667" lon="-4.427455">
        <ele>607.0</ele>
        <time>2018-05-29T11:06:59.080Z</time>
      </trkpt>
      <trkpt lat="37.40820667" lon="-4.427455">
        <ele>607.0</ele>
        <time>2018-05-29T11:07:00.085Z</time>
      </trkpt>
      <trkpt lat="37.40817167" lon="-4.42748667">
        <ele>607.0</ele>
        <time>2018-05-29T11:07:01.086Z</time>
      </trkpt>
      <trkpt lat="37.40815333" lon="-4.4275">
        <ele>607.0</ele>
        <time>2018-05-29T11:07:02.079Z</time>
      </trkpt>
      <trkpt lat="37.408135" lon="-4.427515">
        <ele>608.0</ele>
        <time>2018-05-29T11:07:03.074Z</time>
      </trkpt>
      <trkpt lat="37.408135" lon="-4.427515">
        <ele>608.0</ele>
        <time>2018-05-29T11:07:04.080Z</time>
      </trkpt>
      <trkpt lat="37.40809667" lon="-4.42754333">
        <ele>608.0</ele>
        <time>2018-05-29T11:07:05.075Z</time>
      </trkpt>
      <trkpt lat="37.40808" lon="-4.42756">
        <ele>608.0</ele>
        <time>2018-05-29T11:07:06.059Z</time>
      </trkpt>
      <trkpt lat="37.40806167" lon="-4.42757333">
        <ele>608.0</ele>
        <time>2018-05-29T11:07:07.069Z</time>
      </trkpt>
      <trkpt lat="37.40806167" lon="-4.42757333">
        <ele>608.0</ele>
        <time>2018-05-29T11:07:08.075Z</time>
      </trkpt>
      <trkpt lat="37.40802167" lon="-4.4276">
        <ele>609.0</ele>
        <time>2018-05-29T11:07:09.089Z</time>
      </trkpt>
      <trkpt lat="37.40802167" lon="-4.4276">
        <ele>609.0</ele>
        <time>2018-05-29T11:07:10.057Z</time>
      </trkpt>
      <trkpt lat="37.40798833" lon="-4.427635">
        <ele>609.0</ele>
        <time>2018-05-29T11:07:11.094Z</time>
      </trkpt>
      <trkpt lat="37.40798833" lon="-4.427635">
        <ele>609.0</ele>
        <time>2018-05-29T11:07:12.060Z</time>
      </trkpt>
      <trkpt lat="37.40795333" lon="-4.42766667">
        <ele>609.0</ele>
        <time>2018-05-29T11:07:13.068Z</time>
      </trkpt>
      <trkpt lat="37.40795333" lon="-4.42766667">
        <ele>609.0</ele>
        <time>2018-05-29T11:07:14.074Z</time>
      </trkpt>
      <trkpt lat="37.40791333" lon="-4.42769">
        <ele>609.0</ele>
        <time>2018-05-29T11:07:15.067Z</time>
      </trkpt>
      <trkpt lat="37.40791333" lon="-4.42769">
        <ele>609.0</ele>
        <time>2018-05-29T11:07:16.073Z</time>
      </trkpt>
      <trkpt lat="37.40787167" lon="-4.42771833">
        <ele>609.0</ele>
        <time>2018-05-29T11:07:17.069Z</time>
      </trkpt>
      <trkpt lat="37.40785167" lon="-4.42773333">
        <ele>609.0</ele>
        <time>2018-05-29T11:07:18.083Z</time>
      </trkpt>
      <trkpt lat="37.40783167" lon="-4.42774833">
        <ele>610.0</ele>
        <time>2018-05-29T11:07:19.089Z</time>
      </trkpt>
      <trkpt lat="37.40783167" lon="-4.42774833">
        <ele>610.0</ele>
        <time>2018-05-29T11:07:20.056Z</time>
      </trkpt>
      <trkpt lat="37.40779" lon="-4.42777667">
        <ele>610.0</ele>
        <time>2018-05-29T11:07:21.059Z</time>
      </trkpt>
      <trkpt lat="37.40779" lon="-4.42777667">
        <ele>610.0</ele>
        <time>2018-05-29T11:07:22.065Z</time>
      </trkpt>
      <trkpt lat="37.40774833" lon="-4.42781">
        <ele>610.0</ele>
        <time>2018-05-29T11:07:23.070Z</time>
      </trkpt>
      <trkpt lat="37.40772833" lon="-4.42782667">
        <ele>610.0</ele>
        <time>2018-05-29T11:07:24.065Z</time>
      </trkpt>
      <trkpt lat="37.40772833" lon="-4.42782667">
        <ele>610.0</ele>
        <time>2018-05-29T11:07:25.070Z</time>
      </trkpt>
      <trkpt lat="37.407685" lon="-4.42785833">
        <ele>610.0</ele>
        <time>2018-05-29T11:07:26.077Z</time>
      </trkpt>
      <trkpt lat="37.40766167" lon="-4.427875">
        <ele>610.0</ele>
        <time>2018-05-29T11:07:27.088Z</time>
      </trkpt>
      <trkpt lat="37.40766167" lon="-4.427875">
        <ele>610.0</ele>
        <time>2018-05-29T11:07:28.095Z</time>
      </trkpt>
      <trkpt lat="37.40762" lon="-4.42790833">
        <ele>611.0</ele>
        <time>2018-05-29T11:07:29.089Z</time>
      </trkpt>
      <trkpt lat="37.40762" lon="-4.42790833">
        <ele>611.0</ele>
        <time>2018-05-29T11:07:30.057Z</time>
      </trkpt>
      <trkpt lat="37.40757833" lon="-4.42794167">
        <ele>611.0</ele>
        <time>2018-05-29T11:07:31.067Z</time>
      </trkpt>
      <trkpt lat="37.40757833" lon="-4.42794167">
        <ele>611.0</ele>
        <time>2018-05-29T11:07:32.073Z</time>
      </trkpt>
      <trkpt lat="37.40753833" lon="-4.42797667">
        <ele>611.0</ele>
        <time>2018-05-29T11:07:33.079Z</time>
      </trkpt>
      <trkpt lat="37.40753833" lon="-4.42797667">
        <ele>611.0</ele>
        <time>2018-05-29T11:07:34.086Z</time>
      </trkpt>
      <trkpt lat="37.407495" lon="-4.42801">
        <ele>611.0</ele>
        <time>2018-05-29T11:07:35.088Z</time>
      </trkpt>
      <trkpt lat="37.407495" lon="-4.42801">
        <ele>611.0</ele>
        <time>2018-05-29T11:07:36.056Z</time>
      </trkpt>
      <trkpt lat="37.40745" lon="-4.42804">
        <ele>612.0</ele>
        <time>2018-05-29T11:07:37.086Z</time>
      </trkpt>
      <trkpt lat="37.40745" lon="-4.42804">
        <ele>612.0</ele>
        <time>2018-05-29T11:07:38.057Z</time>
      </trkpt>
      <trkpt lat="37.40741" lon="-4.42807333">
        <ele>612.0</ele>
        <time>2018-05-29T11:07:39.089Z</time>
      </trkpt>
      <trkpt lat="37.40741" lon="-4.42807333">
        <ele>612.0</ele>
        <time>2018-05-29T11:07:40.056Z</time>
      </trkpt>
      <trkpt lat="37.40737" lon="-4.42810833">
        <ele>612.0</ele>
        <time>2018-05-29T11:07:41.058Z</time>
      </trkpt>
      <trkpt lat="37.40737" lon="-4.42810833">
        <ele>612.0</ele>
        <time>2018-05-29T11:07:42.065Z</time>
      </trkpt>
      <trkpt lat="37.40732833" lon="-4.42813667">
        <ele>613.0</ele>
        <time>2018-05-29T11:07:43.059Z</time>
      </trkpt>
      <trkpt lat="37.40732833" lon="-4.42813667">
        <ele>613.0</ele>
        <time>2018-05-29T11:07:44.065Z</time>
      </trkpt>
      <trkpt lat="37.40728667" lon="-4.42816667">
        <ele>613.0</ele>
        <time>2018-05-29T11:07:45.073Z</time>
      </trkpt>
      <trkpt lat="37.40728667" lon="-4.42816667">
        <ele>613.0</ele>
        <time>2018-05-29T11:07:46.079Z</time>
      </trkpt>
      <trkpt lat="37.40724833" lon="-4.42820333">
        <ele>613.0</ele>
        <time>2018-05-29T11:07:47.057Z</time>
      </trkpt>
      <trkpt lat="37.40724833" lon="-4.42820333">
        <ele>613.0</ele>
        <time>2018-05-29T11:07:48.063Z</time>
      </trkpt>
      <trkpt lat="37.40720833" lon="-4.42823667">
        <ele>614.0</ele>
        <time>2018-05-29T11:07:49.069Z</time>
      </trkpt>
      <trkpt lat="37.40720833" lon="-4.42823667">
        <ele>614.0</ele>
        <time>2018-05-29T11:07:50.075Z</time>
      </trkpt>
      <trkpt lat="37.40716833" lon="-4.42826333">
        <ele>614.0</ele>
        <time>2018-05-29T11:07:51.069Z</time>
      </trkpt>
      <trkpt lat="37.40716833" lon="-4.42826333">
        <ele>614.0</ele>
        <time>2018-05-29T11:07:52.075Z</time>
      </trkpt>
      <trkpt lat="37.407125" lon="-4.42828333">
        <ele>614.0</ele>
        <time>2018-05-29T11:07:53.089Z</time>
      </trkpt>
      <trkpt lat="37.40710333" lon="-4.428295">
        <ele>614.0</ele>
        <time>2018-05-29T11:07:54.093Z</time>
      </trkpt>
      <trkpt lat="37.40708167" lon="-4.42830833">
        <ele>614.0</ele>
        <time>2018-05-29T11:07:55.082Z</time>
      </trkpt>
      <trkpt lat="37.40708167" lon="-4.42830833">
        <ele>614.0</ele>
        <time>2018-05-29T11:07:56.088Z</time>
      </trkpt>
      <trkpt lat="37.40704" lon="-4.42833833">
        <ele>615.0</ele>
        <time>2018-05-29T11:07:57.068Z</time>
      </trkpt>
      <trkpt lat="37.40704" lon="-4.42833833">
        <ele>615.0</ele>
        <time>2018-05-29T11:07:58.075Z</time>
      </trkpt>
      <trkpt lat="37.40698833" lon="-4.42835833">
        <ele>615.0</ele>
        <time>2018-05-29T11:07:59.080Z</time>
      </trkpt>
      <trkpt lat="37.40696167" lon="-4.42836833">
        <ele>615.0</ele>
        <time>2018-05-29T11:08:00.067Z</time>
      </trkpt>
      <trkpt lat="37.40696167" lon="-4.42836833">
        <ele>615.0</ele>
        <time>2018-05-29T11:08:01.073Z</time>
      </trkpt>
      <trkpt lat="37.40690833" lon="-4.42838333">
        <ele>615.0</ele>
        <time>2018-05-29T11:08:02.075Z</time>
      </trkpt>
      <trkpt lat="37.40688" lon="-4.42839167">
        <ele>615.0</ele>
        <time>2018-05-29T11:08:03.085Z</time>
      </trkpt>
      <trkpt lat="37.40688" lon="-4.42839167">
        <ele>615.0</ele>
        <time>2018-05-29T11:08:04.060Z</time>
      </trkpt>
      <trkpt lat="37.40682167" lon="-4.42841">
        <ele>615.0</ele>
        <time>2018-05-29T11:08:05.094Z</time>
      </trkpt>
      <trkpt lat="37.40679167" lon="-4.42842167">
        <ele>615.0</ele>
        <time>2018-05-29T11:08:06.085Z</time>
      </trkpt>
      <trkpt lat="37.40679167" lon="-4.42842167">
        <ele>615.0</ele>
        <time>2018-05-29T11:08:07.090Z</time>
      </trkpt>
      <trkpt lat="37.40673" lon="-4.42843833">
        <ele>616.0</ele>
        <time>2018-05-29T11:08:08.065Z</time>
      </trkpt>
      <trkpt lat="37.40669833" lon="-4.428445">
        <ele>616.0</ele>
        <time>2018-05-29T11:08:09.069Z</time>
      </trkpt>
      <trkpt lat="37.40669833" lon="-4.428445">
        <ele>616.0</ele>
        <time>2018-05-29T11:08:10.076Z</time>
      </trkpt>
      <trkpt lat="37.406635" lon="-4.42845833">
        <ele>616.0</ele>
        <time>2018-05-29T11:08:11.082Z</time>
      </trkpt>
      <trkpt lat="37.40660333" lon="-4.42846667">
        <ele>616.0</ele>
        <time>2018-05-29T11:08:12.085Z</time>
      </trkpt>
      <trkpt lat="37.40657167" lon="-4.42847167">
        <ele>616.0</ele>
        <time>2018-05-29T11:08:13.074Z</time>
      </trkpt>
      <trkpt lat="37.40657167" lon="-4.42847167">
        <ele>616.0</ele>
        <time>2018-05-29T11:08:14.081Z</time>
      </trkpt>
      <trkpt lat="37.40650833" lon="-4.42848333">
        <ele>616.0</ele>
        <time>2018-05-29T11:08:15.057Z</time>
      </trkpt>
      <trkpt lat="37.40650833" lon="-4.42848333">
        <ele>616.0</ele>
        <time>2018-05-29T11:08:16.063Z</time>
      </trkpt>
      <trkpt lat="37.406445" lon="-4.42849333">
        <ele>616.0</ele>
        <time>2018-05-29T11:08:17.059Z</time>
      </trkpt>
      <trkpt lat="37.406415" lon="-4.42849833">
        <ele>616.0</ele>
        <time>2018-05-29T11:08:18.071Z</time>
      </trkpt>
      <trkpt lat="37.406415" lon="-4.42849833">
        <ele>616.0</ele>
        <time>2018-05-29T11:08:19.077Z</time>
      </trkpt>
      <trkpt lat="37.40635167" lon="-4.42851333">
        <ele>616.0</ele>
        <time>2018-05-29T11:08:20.080Z</time>
      </trkpt>
      <trkpt lat="37.40635167" lon="-4.42851333">
        <ele>616.0</ele>
        <time>2018-05-29T11:08:21.086Z</time>
      </trkpt>
      <trkpt lat="37.40629" lon="-4.42852833">
        <ele>616.0</ele>
        <time>2018-05-29T11:08:22.059Z</time>
      </trkpt>
      <trkpt lat="37.40629" lon="-4.42852833">
        <ele>616.0</ele>
        <time>2018-05-29T11:08:23.064Z</time>
      </trkpt>
      <trkpt lat="37.40623167" lon="-4.42854167">
        <ele>617.0</ele>
        <time>2018-05-29T11:08:24.074Z</time>
      </trkpt>
      <trkpt lat="37.40623167" lon="-4.42854167">
        <ele>617.0</ele>
        <time>2018-05-29T11:08:25.079Z</time>
      </trkpt>
      <trkpt lat="37.406175" lon="-4.42855333">
        <ele>617.0</ele>
        <time>2018-05-29T11:08:26.066Z</time>
      </trkpt>
      <trkpt lat="37.40614833" lon="-4.42856">
        <ele>617.0</ele>
        <time>2018-05-29T11:08:27.065Z</time>
      </trkpt>
      <trkpt lat="37.40614833" lon="-4.42856">
        <ele>617.0</ele>
        <time>2018-05-29T11:08:28.071Z</time>
      </trkpt>
      <trkpt lat="37.40609667" lon="-4.42857333">
        <ele>617.0</ele>
        <time>2018-05-29T11:08:29.086Z</time>
      </trkpt>
      <trkpt lat="37.40609667" lon="-4.42857333">
        <ele>617.0</ele>
        <time>2018-05-29T11:08:30.093Z</time>
      </trkpt>
      <trkpt lat="37.40604667" lon="-4.42858833">
        <ele>618.0</ele>
        <time>2018-05-29T11:08:31.089Z</time>
      </trkpt>
      <trkpt lat="37.40604667" lon="-4.42858833">
        <ele>618.0</ele>
        <time>2018-05-29T11:08:32.057Z</time>
      </trkpt>
      <trkpt lat="37.40599833" lon="-4.4286">
        <ele>618.0</ele>
        <time>2018-05-29T11:08:33.079Z</time>
      </trkpt>
      <trkpt lat="37.40599833" lon="-4.4286">
        <ele>618.0</ele>
        <time>2018-05-29T11:08:34.086Z</time>
      </trkpt>
      <trkpt lat="37.40595" lon="-4.42860667">
        <ele>618.0</ele>
        <time>2018-05-29T11:08:35.094Z</time>
      </trkpt>
      <trkpt lat="37.40592667" lon="-4.42860833">
        <ele>618.0</ele>
        <time>2018-05-29T11:08:36.095Z</time>
      </trkpt>
      <trkpt lat="37.40592667" lon="-4.42860833">
        <ele>618.0</ele>
        <time>2018-05-29T11:08:37.060Z</time>
      </trkpt>
      <trkpt lat="37.40588" lon="-4.428615">
        <ele>619.0</ele>
        <time>2018-05-29T11:08:38.069Z</time>
      </trkpt>
      <trkpt lat="37.40585333" lon="-4.42861833">
        <ele>619.0</ele>
        <time>2018-05-29T11:08:39.068Z</time>
      </trkpt>
      <trkpt lat="37.40583" lon="-4.428625">
        <ele>619.0</ele>
        <time>2018-05-29T11:08:40.069Z</time>
      </trkpt>
      <trkpt lat="37.40583" lon="-4.428625">
        <ele>619.0</ele>
        <time>2018-05-29T11:08:41.076Z</time>
      </trkpt>
      <trkpt lat="37.40578" lon="-4.428635">
        <ele>620.0</ele>
        <time>2018-05-29T11:08:42.072Z</time>
      </trkpt>
      <trkpt lat="37.405755" lon="-4.42864">
        <ele>620.0</ele>
        <time>2018-05-29T11:08:43.059Z</time>
      </trkpt>
      <trkpt lat="37.405755" lon="-4.42864">
        <ele>620.0</ele>
        <time>2018-05-29T11:08:44.064Z</time>
      </trkpt>
      <trkpt lat="37.40570167" lon="-4.42865167">
        <ele>620.0</ele>
        <time>2018-05-29T11:08:45.067Z</time>
      </trkpt>
      <trkpt lat="37.40570167" lon="-4.42865167">
        <ele>620.0</ele>
        <time>2018-05-29T11:08:46.074Z</time>
      </trkpt>
      <trkpt lat="37.40564833" lon="-4.42866167">
        <ele>621.0</ele>
        <time>2018-05-29T11:08:47.069Z</time>
      </trkpt>
      <trkpt lat="37.40564833" lon="-4.42866167">
        <ele>621.0</ele>
        <time>2018-05-29T11:08:48.075Z</time>
      </trkpt>
      <trkpt lat="37.40559667" lon="-4.42867333">
        <ele>621.0</ele>
        <time>2018-05-29T11:08:49.079Z</time>
      </trkpt>
      <trkpt lat="37.40559667" lon="-4.42867333">
        <ele>621.0</ele>
        <time>2018-05-29T11:08:50.085Z</time>
      </trkpt>
      <trkpt lat="37.405545" lon="-4.42868167">
        <ele>622.0</ele>
        <time>2018-05-29T11:08:51.059Z</time>
      </trkpt>
      <trkpt lat="37.405545" lon="-4.42868167">
        <ele>622.0</ele>
        <time>2018-05-29T11:08:52.066Z</time>
      </trkpt>
      <trkpt lat="37.40549333" lon="-4.42869333">
        <ele>622.0</ele>
        <time>2018-05-29T11:08:53.073Z</time>
      </trkpt>
      <trkpt lat="37.40549333" lon="-4.42869333">
        <ele>622.0</ele>
        <time>2018-05-29T11:08:54.086Z</time>
      </trkpt>
      <trkpt lat="37.40544" lon="-4.42870167">
        <ele>622.0</ele>
        <time>2018-05-29T11:08:55.092Z</time>
      </trkpt>
      <trkpt lat="37.40544" lon="-4.42870167">
        <ele>622.0</ele>
        <time>2018-05-29T11:08:56.059Z</time>
      </trkpt>
      <trkpt lat="37.40538833" lon="-4.42871">
        <ele>623.0</ele>
        <time>2018-05-29T11:08:57.069Z</time>
      </trkpt>
      <trkpt lat="37.40538833" lon="-4.42871">
        <ele>623.0</ele>
        <time>2018-05-29T11:08:58.075Z</time>
      </trkpt>
      <trkpt lat="37.40533667" lon="-4.42871833">
        <ele>623.0</ele>
        <time>2018-05-29T11:08:59.072Z</time>
      </trkpt>
      <trkpt lat="37.40533667" lon="-4.42871833">
        <ele>623.0</ele>
        <time>2018-05-29T11:09:00.077Z</time>
      </trkpt>
      <trkpt lat="37.40528833" lon="-4.42873">
        <ele>624.0</ele>
        <time>2018-05-29T11:09:01.069Z</time>
      </trkpt>
      <trkpt lat="37.40528833" lon="-4.42873">
        <ele>624.0</ele>
        <time>2018-05-29T11:09:02.076Z</time>
      </trkpt>
      <trkpt lat="37.40524167" lon="-4.42875">
        <ele>624.0</ele>
        <time>2018-05-29T11:09:03.089Z</time>
      </trkpt>
      <trkpt lat="37.40524167" lon="-4.42875">
        <ele>624.0</ele>
        <time>2018-05-29T11:09:04.095Z</time>
      </trkpt>
      <trkpt lat="37.40519333" lon="-4.42876833">
        <ele>624.0</ele>
        <time>2018-05-29T11:09:05.061Z</time>
      </trkpt>
      <trkpt lat="37.40516833" lon="-4.428775">
        <ele>624.0</ele>
        <time>2018-05-29T11:09:06.093Z</time>
      </trkpt>
      <trkpt lat="37.40516833" lon="-4.428775">
        <ele>624.0</ele>
        <time>2018-05-29T11:09:07.060Z</time>
      </trkpt>
      <trkpt lat="37.40512" lon="-4.42879167">
        <ele>624.0</ele>
        <time>2018-05-29T11:09:08.089Z</time>
      </trkpt>
      <trkpt lat="37.40510167" lon="-4.42881333">
        <ele>624.0</ele>
        <time>2018-05-29T11:09:09.079Z</time>
      </trkpt>
      <trkpt lat="37.40510167" lon="-4.42881333">
        <ele>624.0</ele>
        <time>2018-05-29T11:09:10.086Z</time>
      </trkpt>
      <trkpt lat="37.40508833" lon="-4.42887">
        <ele>625.0</ele>
        <time>2018-05-29T11:09:11.087Z</time>
      </trkpt>
      <trkpt lat="37.40509" lon="-4.42890167">
        <ele>625.0</ele>
        <time>2018-05-29T11:09:12.059Z</time>
      </trkpt>
      <trkpt lat="37.40509" lon="-4.42890167">
        <ele>625.0</ele>
        <time>2018-05-29T11:09:13.064Z</time>
      </trkpt>
      <trkpt lat="37.40509667" lon="-4.428975">
        <ele>625.0</ele>
        <time>2018-05-29T11:09:14.064Z</time>
      </trkpt>
      <trkpt lat="37.40509667" lon="-4.428975">
        <ele>625.0</ele>
        <time>2018-05-29T11:09:15.069Z</time>
      </trkpt>
      <trkpt lat="37.405105" lon="-4.42906167">
        <ele>625.0</ele>
        <time>2018-05-29T11:09:16.058Z</time>
      </trkpt>
      <trkpt lat="37.405105" lon="-4.42906167">
        <ele>625.0</ele>
        <time>2018-05-29T11:09:17.064Z</time>
      </trkpt>
      <trkpt lat="37.40511167" lon="-4.42916333">
        <ele>624.0</ele>
        <time>2018-05-29T11:09:18.079Z</time>
      </trkpt>
      <trkpt lat="37.40511167" lon="-4.42916333">
        <ele>624.0</ele>
        <time>2018-05-29T11:09:19.086Z</time>
      </trkpt>
      <trkpt lat="37.40509167" lon="-4.42928667">
        <ele>623.0</ele>
        <time>2018-05-29T11:09:20.078Z</time>
      </trkpt>
      <trkpt lat="37.40509167" lon="-4.42928667">
        <ele>623.0</ele>
        <time>2018-05-29T11:09:21.083Z</time>
      </trkpt>
      <trkpt lat="37.40506667" lon="-4.429455">
        <ele>621.0</ele>
        <time>2018-05-29T11:09:22.060Z</time>
      </trkpt>
      <trkpt lat="37.40506667" lon="-4.429455">
        <ele>621.0</ele>
        <time>2018-05-29T11:09:23.065Z</time>
      </trkpt>
      <trkpt lat="37.40504167" lon="-4.429635">
        <ele>621.0</ele>
        <time>2018-05-29T11:09:24.059Z</time>
      </trkpt>
      <trkpt lat="37.40502333" lon="-4.42972167">
        <ele>621.0</ele>
        <time>2018-05-29T11:09:25.087Z</time>
      </trkpt>
      <trkpt lat="37.40502333" lon="-4.42972167">
        <ele>621.0</ele>
        <time>2018-05-29T11:09:26.057Z</time>
      </trkpt>
      <trkpt lat="37.404975" lon="-4.42987833">
        <ele>621.0</ele>
        <time>2018-05-29T11:09:27.089Z</time>
      </trkpt>
      <trkpt lat="37.404975" lon="-4.42987833">
        <ele>621.0</ele>
        <time>2018-05-29T11:09:28.067Z</time>
      </trkpt>
      <trkpt lat="37.40492167" lon="-4.430015">
        <ele>621.0</ele>
        <time>2018-05-29T11:09:29.073Z</time>
      </trkpt>
      <trkpt lat="37.40492167" lon="-4.430015">
        <ele>621.0</ele>
        <time>2018-05-29T11:09:30.079Z</time>
      </trkpt>
      <trkpt lat="37.40487833" lon="-4.430135">
        <ele>622.0</ele>
        <time>2018-05-29T11:09:31.063Z</time>
      </trkpt>
      <trkpt lat="37.40487833" lon="-4.430135">
        <ele>622.0</ele>
        <time>2018-05-29T11:09:32.070Z</time>
      </trkpt>
      <trkpt lat="37.40484167" lon="-4.43023333">
        <ele>623.0</ele>
        <time>2018-05-29T11:09:33.064Z</time>
      </trkpt>
      <trkpt lat="37.40484167" lon="-4.43023333">
        <ele>623.0</ele>
        <time>2018-05-29T11:09:34.070Z</time>
      </trkpt>
      <trkpt lat="37.40481333" lon="-4.43031167">
        <ele>623.0</ele>
        <time>2018-05-29T11:09:35.067Z</time>
      </trkpt>
      <trkpt lat="37.40481333" lon="-4.43031167">
        <ele>623.0</ele>
        <time>2018-05-29T11:09:36.073Z</time>
      </trkpt>
      <trkpt lat="37.40478667" lon="-4.43037667">
        <ele>624.0</ele>
        <time>2018-05-29T11:09:37.065Z</time>
      </trkpt>
      <trkpt lat="37.40478667" lon="-4.43037667">
        <ele>624.0</ele>
        <time>2018-05-29T11:09:38.071Z</time>
      </trkpt>
      <trkpt lat="37.40476833" lon="-4.43043667">
        <ele>624.0</ele>
        <time>2018-05-29T11:09:39.062Z</time>
      </trkpt>
      <trkpt lat="37.40476833" lon="-4.43043667">
        <ele>624.0</ele>
        <time>2018-05-29T11:09:40.069Z</time>
      </trkpt>
      <trkpt lat="37.40475167" lon="-4.43049167">
        <ele>625.0</ele>
        <time>2018-05-29T11:09:41.069Z</time>
      </trkpt>
      <trkpt lat="37.40475167" lon="-4.43049167">
        <ele>625.0</ele>
        <time>2018-05-29T11:09:42.075Z</time>
      </trkpt>
      <trkpt lat="37.40474167" lon="-4.43054333">
        <ele>626.0</ele>
        <time>2018-05-29T11:09:43.079Z</time>
      </trkpt>
      <trkpt lat="37.40474167" lon="-4.43054333">
        <ele>626.0</ele>
        <time>2018-05-29T11:09:44.085Z</time>
      </trkpt>
      <trkpt lat="37.404735" lon="-4.43058833">
        <ele>626.0</ele>
        <time>2018-05-29T11:09:45.085Z</time>
      </trkpt>
      <trkpt lat="37.404735" lon="-4.43058833">
        <ele>626.0</ele>
        <time>2018-05-29T11:09:46.092Z</time>
      </trkpt>
      <trkpt lat="37.404725" lon="-4.43063">
        <ele>627.0</ele>
        <time>2018-05-29T11:09:47.096Z</time>
      </trkpt>
      <trkpt lat="37.404725" lon="-4.43063">
        <ele>627.0</ele>
        <time>2018-05-29T11:09:48.062Z</time>
      </trkpt>
      <trkpt lat="37.40471" lon="-4.43067167">
        <ele>627.0</ele>
        <time>2018-05-29T11:09:49.058Z</time>
      </trkpt>
      <trkpt lat="37.40471" lon="-4.43067167">
        <ele>627.0</ele>
        <time>2018-05-29T11:09:50.064Z</time>
      </trkpt>
      <trkpt lat="37.40470167" lon="-4.43071">
        <ele>628.0</ele>
        <time>2018-05-29T11:09:51.087Z</time>
      </trkpt>
      <trkpt lat="37.40470167" lon="-4.43071">
        <ele>628.0</ele>
        <time>2018-05-29T11:09:52.094Z</time>
      </trkpt>
      <trkpt lat="37.40468833" lon="-4.43075">
        <ele>628.0</ele>
        <time>2018-05-29T11:09:53.062Z</time>
      </trkpt>
      <trkpt lat="37.40468667" lon="-4.43077333">
        <ele>629.0</ele>
        <time>2018-05-29T11:09:54.072Z</time>
      </trkpt>
      <trkpt lat="37.40468333" lon="-4.43079333">
        <ele>629.0</ele>
        <time>2018-05-29T11:09:55.070Z</time>
      </trkpt>
      <trkpt lat="37.40468333" lon="-4.43079333">
        <ele>629.0</ele>
        <time>2018-05-29T11:09:56.076Z</time>
      </trkpt>
      <trkpt lat="37.40467667" lon="-4.43083">
        <ele>630.0</ele>
        <time>2018-05-29T11:09:57.089Z</time>
      </trkpt>
      <trkpt lat="37.40467667" lon="-4.43083">
        <ele>630.0</ele>
        <time>2018-05-29T11:09:58.061Z</time>
      </trkpt>
      <trkpt lat="37.40466" lon="-4.43086167">
        <ele>631.0</ele>
        <time>2018-05-29T11:09:59.072Z</time>
      </trkpt>
      <trkpt lat="37.40465333" lon="-4.43088">
        <ele>631.0</ele>
        <time>2018-05-29T11:10:00.061Z</time>
      </trkpt>
      <trkpt lat="37.40465333" lon="-4.43088">
        <ele>631.0</ele>
        <time>2018-05-29T11:10:01.067Z</time>
      </trkpt>
      <trkpt lat="37.40465667" lon="-4.43093167">
        <ele>633.0</ele>
        <time>2018-05-29T11:10:02.073Z</time>
      </trkpt>
      <trkpt lat="37.40466" lon="-4.430955">
        <ele>633.0</ele>
        <time>2018-05-29T11:10:03.064Z</time>
      </trkpt>
      <trkpt lat="37.40466" lon="-4.430955">
        <ele>633.0</ele>
        <time>2018-05-29T11:10:04.069Z</time>
      </trkpt>
      <trkpt lat="37.40466667" lon="-4.431">
        <ele>633.0</ele>
        <time>2018-05-29T11:10:05.094Z</time>
      </trkpt>
      <trkpt lat="37.40466667" lon="-4.431">
        <ele>633.0</ele>
        <time>2018-05-29T11:10:06.060Z</time>
      </trkpt>
      <trkpt lat="37.40466667" lon="-4.43104167">
        <ele>634.0</ele>
        <time>2018-05-29T11:10:07.062Z</time>
      </trkpt>
      <trkpt lat="37.40466667" lon="-4.43104167">
        <ele>634.0</ele>
        <time>2018-05-29T11:10:08.067Z</time>
      </trkpt>
      <trkpt lat="37.404655" lon="-4.43108167">
        <ele>635.0</ele>
        <time>2018-05-29T11:10:09.072Z</time>
      </trkpt>
      <trkpt lat="37.404655" lon="-4.43108167">
        <ele>635.0</ele>
        <time>2018-05-29T11:10:10.079Z</time>
      </trkpt>
      <trkpt lat="37.40464" lon="-4.431125">
        <ele>635.0</ele>
        <time>2018-05-29T11:10:11.072Z</time>
      </trkpt>
      <trkpt lat="37.40464" lon="-4.431125">
        <ele>635.0</ele>
        <time>2018-05-29T11:10:12.078Z</time>
      </trkpt>
      <trkpt lat="37.40463333" lon="-4.43117833">
        <ele>635.0</ele>
        <time>2018-05-29T11:10:13.085Z</time>
      </trkpt>
      <trkpt lat="37.404635" lon="-4.43120167">
        <ele>635.0</ele>
        <time>2018-05-29T11:10:14.089Z</time>
      </trkpt>
      <trkpt lat="37.404635" lon="-4.43120167">
        <ele>635.0</ele>
        <time>2018-05-29T11:10:15.059Z</time>
      </trkpt>
      <trkpt lat="37.40464333" lon="-4.43124333">
        <ele>635.0</ele>
        <time>2018-05-29T11:10:16.065Z</time>
      </trkpt>
      <trkpt lat="37.40464333" lon="-4.43124333">
        <ele>635.0</ele>
        <time>2018-05-29T11:10:17.070Z</time>
      </trkpt>
      <trkpt lat="37.404655" lon="-4.43129333">
        <ele>635.0</ele>
        <time>2018-05-29T11:10:18.077Z</time>
      </trkpt>
      <trkpt lat="37.40466" lon="-4.43132167">
        <ele>635.0</ele>
        <time>2018-05-29T11:10:19.089Z</time>
      </trkpt>
      <trkpt lat="37.40466" lon="-4.43132167">
        <ele>635.0</ele>
        <time>2018-05-29T11:10:20.056Z</time>
      </trkpt>
      <trkpt lat="37.404675" lon="-4.43138167">
        <ele>634.0</ele>
        <time>2018-05-29T11:10:21.067Z</time>
      </trkpt>
      <trkpt lat="37.404675" lon="-4.43138167">
        <ele>634.0</ele>
        <time>2018-05-29T11:10:22.073Z</time>
      </trkpt>
      <trkpt lat="37.404705" lon="-4.43143667">
        <ele>634.0</ele>
        <time>2018-05-29T11:10:23.066Z</time>
      </trkpt>
      <trkpt lat="37.404705" lon="-4.43143667">
        <ele>634.0</ele>
        <time>2018-05-29T11:10:24.071Z</time>
      </trkpt>
      <trkpt lat="37.40474833" lon="-4.43147167">
        <ele>634.0</ele>
        <time>2018-05-29T11:10:25.059Z</time>
      </trkpt>
      <trkpt lat="37.40477667" lon="-4.43148333">
        <ele>634.0</ele>
        <time>2018-05-29T11:10:26.079Z</time>
      </trkpt>
      <trkpt lat="37.40477667" lon="-4.43148333">
        <ele>634.0</ele>
        <time>2018-05-29T11:10:27.086Z</time>
      </trkpt>
      <trkpt lat="37.40484" lon="-4.431495">
        <ele>634.0</ele>
        <time>2018-05-29T11:10:28.059Z</time>
      </trkpt>
      <trkpt lat="37.40487167" lon="-4.43149833">
        <ele>634.0</ele>
        <time>2018-05-29T11:10:29.082Z</time>
      </trkpt>
      <trkpt lat="37.40490167" lon="-4.43150333">
        <ele>634.0</ele>
        <time>2018-05-29T11:10:30.087Z</time>
      </trkpt>
      <trkpt lat="37.40490167" lon="-4.43150333">
        <ele>634.0</ele>
        <time>2018-05-29T11:10:31.056Z</time>
      </trkpt>
      <trkpt lat="37.404965" lon="-4.43151167">
        <ele>634.0</ele>
        <time>2018-05-29T11:10:32.059Z</time>
      </trkpt>
      <trkpt lat="37.40499833" lon="-4.43151667">
        <ele>634.0</ele>
        <time>2018-05-29T11:10:33.069Z</time>
      </trkpt>
      <trkpt lat="37.40499833" lon="-4.43151667">
        <ele>634.0</ele>
        <time>2018-05-29T11:10:34.076Z</time>
      </trkpt>
      <trkpt lat="37.40506" lon="-4.431535">
        <ele>633.0</ele>
        <time>2018-05-29T11:10:35.064Z</time>
      </trkpt>
      <trkpt lat="37.405085" lon="-4.43155667">
        <ele>634.0</ele>
        <time>2018-05-29T11:10:36.062Z</time>
      </trkpt>
      <trkpt lat="37.405085" lon="-4.43155667">
        <ele>634.0</ele>
        <time>2018-05-29T11:10:37.068Z</time>
      </trkpt>
      <trkpt lat="37.40510167" lon="-4.431635">
        <ele>634.0</ele>
        <time>2018-05-29T11:10:38.089Z</time>
      </trkpt>
      <trkpt lat="37.405095" lon="-4.43168">
        <ele>634.0</ele>
        <time>2018-05-29T11:10:39.059Z</time>
      </trkpt>
      <trkpt lat="37.405095" lon="-4.43168">
        <ele>634.0</ele>
        <time>2018-05-29T11:10:40.065Z</time>
      </trkpt>
      <trkpt lat="37.405075" lon="-4.431785">
        <ele>634.0</ele>
        <time>2018-05-29T11:10:41.075Z</time>
      </trkpt>
      <trkpt lat="37.40506333" lon="-4.43184667">
        <ele>633.0</ele>
        <time>2018-05-29T11:10:42.066Z</time>
      </trkpt>
      <trkpt lat="37.40505333" lon="-4.43191333">
        <ele>633.0</ele>
        <time>2018-05-29T11:10:43.060Z</time>
      </trkpt>
      <trkpt lat="37.40505333" lon="-4.43191333">
        <ele>633.0</ele>
        <time>2018-05-29T11:10:44.066Z</time>
      </trkpt>
      <trkpt lat="37.40502167" lon="-4.43206167">
        <ele>632.0</ele>
        <time>2018-05-29T11:10:45.063Z</time>
      </trkpt>
      <trkpt lat="37.40500167" lon="-4.432145">
        <ele>631.0</ele>
        <time>2018-05-29T11:10:46.066Z</time>
      </trkpt>
      <trkpt lat="37.40500167" lon="-4.432145">
        <ele>631.0</ele>
        <time>2018-05-29T11:10:47.072Z</time>
      </trkpt>
      <trkpt lat="37.40496833" lon="-4.43231833">
        <ele>629.0</ele>
        <time>2018-05-29T11:10:48.066Z</time>
      </trkpt>
      <trkpt lat="37.40496833" lon="-4.43231833">
        <ele>629.0</ele>
        <time>2018-05-29T11:10:49.071Z</time>
      </trkpt>
      <trkpt lat="37.40493833" lon="-4.43249167">
        <ele>627.0</ele>
        <time>2018-05-29T11:10:50.079Z</time>
      </trkpt>
      <trkpt lat="37.40493833" lon="-4.43249167">
        <ele>627.0</ele>
        <time>2018-05-29T11:10:51.084Z</time>
      </trkpt>
      <trkpt lat="37.404905" lon="-4.432655">
        <ele>625.0</ele>
        <time>2018-05-29T11:10:52.088Z</time>
      </trkpt>
      <trkpt lat="37.404905" lon="-4.432655">
        <ele>625.0</ele>
        <time>2018-05-29T11:10:53.084Z</time>
      </trkpt>
      <trkpt lat="37.40488" lon="-4.43281833">
        <ele>624.0</ele>
        <time>2018-05-29T11:10:54.088Z</time>
      </trkpt>
      <trkpt lat="37.40487" lon="-4.4329">
        <ele>623.0</ele>
        <time>2018-05-29T11:10:55.085Z</time>
      </trkpt>
      <trkpt lat="37.40487" lon="-4.4329">
        <ele>623.0</ele>
        <time>2018-05-29T11:10:56.056Z</time>
      </trkpt>
      <trkpt lat="37.40484667" lon="-4.43304833">
        <ele>622.0</ele>
        <time>2018-05-29T11:10:57.059Z</time>
      </trkpt>
      <trkpt lat="37.40484667" lon="-4.43304833">
        <ele>622.0</ele>
        <time>2018-05-29T11:10:58.066Z</time>
      </trkpt>
      <trkpt lat="37.40481833" lon="-4.43319833">
        <ele>620.0</ele>
        <time>2018-05-29T11:10:59.069Z</time>
      </trkpt>
      <trkpt lat="37.404805" lon="-4.43327667">
        <ele>620.0</ele>
        <time>2018-05-29T11:11:00.065Z</time>
      </trkpt>
      <trkpt lat="37.404805" lon="-4.43327667">
        <ele>620.0</ele>
        <time>2018-05-29T11:11:01.070Z</time>
      </trkpt>
      <trkpt lat="37.40479333" lon="-4.43343667">
        <ele>619.0</ele>
        <time>2018-05-29T11:11:02.063Z</time>
      </trkpt>
      <trkpt lat="37.40478833" lon="-4.433515">
        <ele>618.0</ele>
        <time>2018-05-29T11:11:03.069Z</time>
      </trkpt>
      <trkpt lat="37.40478833" lon="-4.433515">
        <ele>618.0</ele>
        <time>2018-05-29T11:11:04.075Z</time>
      </trkpt>
      <trkpt lat="37.40478167" lon="-4.43365333">
        <ele>617.0</ele>
        <time>2018-05-29T11:11:05.063Z</time>
      </trkpt>
      <trkpt lat="37.40478167" lon="-4.43365333">
        <ele>617.0</ele>
        <time>2018-05-29T11:11:06.069Z</time>
      </trkpt>
      <trkpt lat="37.40481167" lon="-4.433775">
        <ele>616.0</ele>
        <time>2018-05-29T11:11:07.081Z</time>
      </trkpt>
      <trkpt lat="37.40484167" lon="-4.433825">
        <ele>616.0</ele>
        <time>2018-05-29T11:11:08.062Z</time>
      </trkpt>
      <trkpt lat="37.40484167" lon="-4.433825">
        <ele>616.0</ele>
        <time>2018-05-29T11:11:09.067Z</time>
      </trkpt>
      <trkpt lat="37.40489667" lon="-4.43390167">
        <ele>615.0</ele>
        <time>2018-05-29T11:11:10.056Z</time>
      </trkpt>
      <trkpt lat="37.40489667" lon="-4.43390167">
        <ele>615.0</ele>
        <time>2018-05-29T11:11:11.061Z</time>
      </trkpt>
      <trkpt lat="37.404945" lon="-4.43395333">
        <ele>614.0</ele>
        <time>2018-05-29T11:11:12.088Z</time>
      </trkpt>
      <trkpt lat="37.404945" lon="-4.43395333">
        <ele>614.0</ele>
        <time>2018-05-29T11:11:13.056Z</time>
      </trkpt>
      <trkpt lat="37.404975" lon="-4.43401333">
        <ele>613.0</ele>
        <time>2018-05-29T11:11:14.059Z</time>
      </trkpt>
      <trkpt lat="37.40500167" lon="-4.43402667">
        <ele>612.0</ele>
        <time>2018-05-29T11:11:15.062Z</time>
      </trkpt>
      <trkpt lat="37.40500167" lon="-4.43402667">
        <ele>612.0</ele>
        <time>2018-05-29T11:11:16.068Z</time>
      </trkpt>
      <trkpt lat="37.40506333" lon="-4.43402167">
        <ele>612.0</ele>
        <time>2018-05-29T11:11:17.070Z</time>
      </trkpt>
      <trkpt lat="37.40506333" lon="-4.43402167">
        <ele>612.0</ele>
        <time>2018-05-29T11:11:18.077Z</time>
      </trkpt>
      <trkpt lat="37.40512833" lon="-4.43399667">
        <ele>613.0</ele>
        <time>2018-05-29T11:11:19.072Z</time>
      </trkpt>
      <trkpt lat="37.40512833" lon="-4.43399667">
        <ele>613.0</ele>
        <time>2018-05-29T11:11:20.079Z</time>
      </trkpt>
      <trkpt lat="37.40518833" lon="-4.43396833">
        <ele>613.0</ele>
        <time>2018-05-29T11:11:21.072Z</time>
      </trkpt>
      <trkpt lat="37.40518833" lon="-4.43396833">
        <ele>613.0</ele>
        <time>2018-05-29T11:11:22.078Z</time>
      </trkpt>
      <trkpt lat="37.40524667" lon="-4.43395167">
        <ele>613.0</ele>
        <time>2018-05-29T11:11:23.087Z</time>
      </trkpt>
      <trkpt lat="37.40524667" lon="-4.43395167">
        <ele>613.0</ele>
        <time>2018-05-29T11:11:24.057Z</time>
      </trkpt>
      <trkpt lat="37.4053" lon="-4.43399667">
        <ele>613.0</ele>
        <time>2018-05-29T11:11:25.059Z</time>
      </trkpt>
      <trkpt lat="37.40532167" lon="-4.43403333">
        <ele>613.0</ele>
        <time>2018-05-29T11:11:26.059Z</time>
      </trkpt>
      <trkpt lat="37.40532167" lon="-4.43403333">
        <ele>613.0</ele>
        <time>2018-05-29T11:11:27.066Z</time>
      </trkpt>
      <trkpt lat="37.40537167" lon="-4.43411167">
        <ele>612.0</ele>
        <time>2018-05-29T11:11:28.079Z</time>
      </trkpt>
      <trkpt lat="37.40537167" lon="-4.43411167">
        <ele>612.0</ele>
        <time>2018-05-29T11:11:29.086Z</time>
      </trkpt>
      <trkpt lat="37.405425" lon="-4.43420167">
        <ele>612.0</ele>
        <time>2018-05-29T11:11:30.067Z</time>
      </trkpt>
      <trkpt lat="37.40544333" lon="-4.43425667">
        <ele>612.0</ele>
        <time>2018-05-29T11:11:31.091Z</time>
      </trkpt>
      <trkpt lat="37.40544333" lon="-4.43425667">
        <ele>612.0</ele>
        <time>2018-05-29T11:11:32.058Z</time>
      </trkpt>
      <trkpt lat="37.40545833" lon="-4.43437333">
        <ele>612.0</ele>
        <time>2018-05-29T11:11:33.059Z</time>
      </trkpt>
      <trkpt lat="37.40545833" lon="-4.43437333">
        <ele>612.0</ele>
        <time>2018-05-29T11:11:34.066Z</time>
      </trkpt>
      <trkpt lat="37.40546167" lon="-4.43448833">
        <ele>612.0</ele>
        <time>2018-05-29T11:11:35.073Z</time>
      </trkpt>
      <trkpt lat="37.40546167" lon="-4.43448833">
        <ele>612.0</ele>
        <time>2018-05-29T11:11:36.078Z</time>
      </trkpt>
      <trkpt lat="37.40547833" lon="-4.434595">
        <ele>612.0</ele>
        <time>2018-05-29T11:11:37.067Z</time>
      </trkpt>
      <trkpt lat="37.40550167" lon="-4.434635">
        <ele>612.0</ele>
        <time>2018-05-29T11:11:38.070Z</time>
      </trkpt>
      <trkpt lat="37.40553167" lon="-4.43466667">
        <ele>612.0</ele>
        <time>2018-05-29T11:11:39.058Z</time>
      </trkpt>
      <trkpt lat="37.40553167" lon="-4.43466667">
        <ele>612.0</ele>
        <time>2018-05-29T11:11:40.064Z</time>
      </trkpt>
      <trkpt lat="37.40559167" lon="-4.43472">
        <ele>612.0</ele>
        <time>2018-05-29T11:11:41.089Z</time>
      </trkpt>
      <trkpt lat="37.40562833" lon="-4.43475167">
        <ele>612.0</ele>
        <time>2018-05-29T11:11:42.069Z</time>
      </trkpt>
      <trkpt lat="37.40562833" lon="-4.43475167">
        <ele>612.0</ele>
        <time>2018-05-29T11:11:43.075Z</time>
      </trkpt>
      <trkpt lat="37.40568333" lon="-4.43483667">
        <ele>612.0</ele>
        <time>2018-05-29T11:11:44.066Z</time>
      </trkpt>
      <trkpt lat="37.40568333" lon="-4.43483667">
        <ele>612.0</ele>
        <time>2018-05-29T11:11:45.071Z</time>
      </trkpt>
      <trkpt lat="37.405735" lon="-4.43491667">
        <ele>612.0</ele>
        <time>2018-05-29T11:11:46.080Z</time>
      </trkpt>
      <trkpt lat="37.405735" lon="-4.43491667">
        <ele>612.0</ele>
        <time>2018-05-29T11:11:47.085Z</time>
      </trkpt>
      <trkpt lat="37.40579333" lon="-4.43498833">
        <ele>612.0</ele>
        <time>2018-05-29T11:11:48.059Z</time>
      </trkpt>
      <trkpt lat="37.405825" lon="-4.43502333">
        <ele>612.0</ele>
        <time>2018-05-29T11:11:49.083Z</time>
      </trkpt>
      <trkpt lat="37.405825" lon="-4.43502333">
        <ele>612.0</ele>
        <time>2018-05-29T11:11:50.089Z</time>
      </trkpt>
      <trkpt lat="37.4059" lon="-4.43507333">
        <ele>611.0</ele>
        <time>2018-05-29T11:11:51.059Z</time>
      </trkpt>
      <trkpt lat="37.4059" lon="-4.43507333">
        <ele>611.0</ele>
        <time>2018-05-29T11:11:52.065Z</time>
      </trkpt>
      <trkpt lat="37.40598" lon="-4.43512667">
        <ele>611.0</ele>
        <time>2018-05-29T11:11:53.078Z</time>
      </trkpt>
      <trkpt lat="37.40598" lon="-4.43512667">
        <ele>611.0</ele>
        <time>2018-05-29T11:11:54.059Z</time>
      </trkpt>
      <trkpt lat="37.40602833" lon="-4.43522833">
        <ele>611.0</ele>
        <time>2018-05-29T11:11:55.069Z</time>
      </trkpt>
      <trkpt lat="37.40602833" lon="-4.43522833">
        <ele>611.0</ele>
        <time>2018-05-29T11:11:56.075Z</time>
      </trkpt>
      <trkpt lat="37.40605167" lon="-4.43533167">
        <ele>611.0</ele>
        <time>2018-05-29T11:11:57.073Z</time>
      </trkpt>
      <trkpt lat="37.40605167" lon="-4.43533167">
        <ele>611.0</ele>
        <time>2018-05-29T11:11:58.079Z</time>
      </trkpt>
      <trkpt lat="37.406065" lon="-4.43542833">
        <ele>612.0</ele>
        <time>2018-05-29T11:11:59.076Z</time>
      </trkpt>
      <trkpt lat="37.40607" lon="-4.435475">
        <ele>612.0</ele>
        <time>2018-05-29T11:12:00.061Z</time>
      </trkpt>
      <trkpt lat="37.40607" lon="-4.435475">
        <ele>612.0</ele>
        <time>2018-05-29T11:12:01.066Z</time>
      </trkpt>
      <trkpt lat="37.40608167" lon="-4.43556667">
        <ele>612.0</ele>
        <time>2018-05-29T11:12:02.077Z</time>
      </trkpt>
      <trkpt lat="37.40609167" lon="-4.43560833">
        <ele>612.0</ele>
        <time>2018-05-29T11:12:03.059Z</time>
      </trkpt>
      <trkpt lat="37.40609167" lon="-4.43560833">
        <ele>612.0</ele>
        <time>2018-05-29T11:12:04.065Z</time>
      </trkpt>
      <trkpt lat="37.40611167" lon="-4.435685">
        <ele>613.0</ele>
        <time>2018-05-29T11:12:05.063Z</time>
      </trkpt>
      <trkpt lat="37.40611167" lon="-4.435685">
        <ele>613.0</ele>
        <time>2018-05-29T11:12:06.069Z</time>
      </trkpt>
      <trkpt lat="37.40611667" lon="-4.43576833">
        <ele>613.0</ele>
        <time>2018-05-29T11:12:07.059Z</time>
      </trkpt>
      <trkpt lat="37.40611667" lon="-4.43576833">
        <ele>613.0</ele>
        <time>2018-05-29T11:12:08.065Z</time>
      </trkpt>
      <trkpt lat="37.40611333" lon="-4.43585">
        <ele>613.0</ele>
        <time>2018-05-29T11:12:09.059Z</time>
      </trkpt>
      <trkpt lat="37.40611333" lon="-4.43585">
        <ele>613.0</ele>
        <time>2018-05-29T11:12:10.066Z</time>
      </trkpt>
      <trkpt lat="37.406115" lon="-4.43593167">
        <ele>613.0</ele>
        <time>2018-05-29T11:12:11.059Z</time>
      </trkpt>
      <trkpt lat="37.406115" lon="-4.43593167">
        <ele>613.0</ele>
        <time>2018-05-29T11:12:12.065Z</time>
      </trkpt>
      <trkpt lat="37.40612667" lon="-4.43601167">
        <ele>613.0</ele>
        <time>2018-05-29T11:12:13.058Z</time>
      </trkpt>
      <trkpt lat="37.40612667" lon="-4.43601167">
        <ele>613.0</ele>
        <time>2018-05-29T11:12:14.064Z</time>
      </trkpt>
      <trkpt lat="37.40617" lon="-4.43607">
        <ele>614.0</ele>
        <time>2018-05-29T11:12:15.069Z</time>
      </trkpt>
      <trkpt lat="37.40617" lon="-4.43607">
        <ele>614.0</ele>
        <time>2018-05-29T11:12:16.075Z</time>
      </trkpt>
      <trkpt lat="37.40621667" lon="-4.43612167">
        <ele>615.0</ele>
        <time>2018-05-29T11:12:17.070Z</time>
      </trkpt>
      <trkpt lat="37.40623667" lon="-4.43615">
        <ele>615.0</ele>
        <time>2018-05-29T11:12:18.057Z</time>
      </trkpt>
      <trkpt lat="37.40623667" lon="-4.43615">
        <ele>615.0</ele>
        <time>2018-05-29T11:12:19.063Z</time>
      </trkpt>
      <trkpt lat="37.40626833" lon="-4.43620667">
        <ele>616.0</ele>
        <time>2018-05-29T11:12:20.059Z</time>
      </trkpt>
      <trkpt lat="37.40628167" lon="-4.43623833">
        <ele>616.0</ele>
        <time>2018-05-29T11:12:21.069Z</time>
      </trkpt>
      <trkpt lat="37.40628167" lon="-4.43623833">
        <ele>616.0</ele>
        <time>2018-05-29T11:12:22.074Z</time>
      </trkpt>
      <trkpt lat="37.406305" lon="-4.43630833">
        <ele>617.0</ele>
        <time>2018-05-29T11:12:23.078Z</time>
      </trkpt>
      <trkpt lat="37.406305" lon="-4.43630833">
        <ele>617.0</ele>
        <time>2018-05-29T11:12:24.084Z</time>
      </trkpt>
      <trkpt lat="37.40632" lon="-4.43638">
        <ele>617.0</ele>
        <time>2018-05-29T11:12:25.065Z</time>
      </trkpt>
      <trkpt lat="37.40632" lon="-4.43638">
        <ele>617.0</ele>
        <time>2018-05-29T11:12:26.071Z</time>
      </trkpt>
      <trkpt lat="37.406335" lon="-4.43645167">
        <ele>618.0</ele>
        <time>2018-05-29T11:12:27.078Z</time>
      </trkpt>
      <trkpt lat="37.40634" lon="-4.436485">
        <ele>618.0</ele>
        <time>2018-05-29T11:12:28.069Z</time>
      </trkpt>
      <trkpt lat="37.40634" lon="-4.436485">
        <ele>618.0</ele>
        <time>2018-05-29T11:12:29.075Z</time>
      </trkpt>
      <trkpt lat="37.40635" lon="-4.436555">
        <ele>618.0</ele>
        <time>2018-05-29T11:12:30.089Z</time>
      </trkpt>
      <trkpt lat="37.40635" lon="-4.436555">
        <ele>618.0</ele>
        <time>2018-05-29T11:12:31.057Z</time>
      </trkpt>
      <trkpt lat="37.40635833" lon="-4.43662167">
        <ele>618.0</ele>
        <time>2018-05-29T11:12:32.079Z</time>
      </trkpt>
      <trkpt lat="37.40635833" lon="-4.43662167">
        <ele>618.0</ele>
        <time>2018-05-29T11:12:33.085Z</time>
      </trkpt>
      <trkpt lat="37.40636667" lon="-4.43669">
        <ele>618.0</ele>
        <time>2018-05-29T11:12:34.080Z</time>
      </trkpt>
      <trkpt lat="37.40637" lon="-4.43672333">
        <ele>618.0</ele>
        <time>2018-05-29T11:12:35.079Z</time>
      </trkpt>
      <trkpt lat="37.40637" lon="-4.43672333">
        <ele>618.0</ele>
        <time>2018-05-29T11:12:36.085Z</time>
      </trkpt>
      <trkpt lat="37.406375" lon="-4.43679">
        <ele>619.0</ele>
        <time>2018-05-29T11:12:37.064Z</time>
      </trkpt>
      <trkpt lat="37.406375" lon="-4.43679">
        <ele>619.0</ele>
        <time>2018-05-29T11:12:38.070Z</time>
      </trkpt>
      <trkpt lat="37.40637833" lon="-4.43685833">
        <ele>619.0</ele>
        <time>2018-05-29T11:12:39.079Z</time>
      </trkpt>
      <trkpt lat="37.40637833" lon="-4.43685833">
        <ele>619.0</ele>
        <time>2018-05-29T11:12:40.085Z</time>
      </trkpt>
      <trkpt lat="37.40638" lon="-4.43692">
        <ele>619.0</ele>
        <time>2018-05-29T11:12:41.089Z</time>
      </trkpt>
      <trkpt lat="37.40638" lon="-4.43692">
        <ele>619.0</ele>
        <time>2018-05-29T11:12:42.056Z</time>
      </trkpt>
      <trkpt lat="37.40638333" lon="-4.43698">
        <ele>620.0</ele>
        <time>2018-05-29T11:12:43.056Z</time>
      </trkpt>
      <trkpt lat="37.40638333" lon="-4.43698">
        <ele>620.0</ele>
        <time>2018-05-29T11:12:44.062Z</time>
      </trkpt>
      <trkpt lat="37.40639" lon="-4.43704167">
        <ele>620.0</ele>
        <time>2018-05-29T11:12:45.059Z</time>
      </trkpt>
      <trkpt lat="37.40639" lon="-4.43704167">
        <ele>620.0</ele>
        <time>2018-05-29T11:12:46.065Z</time>
      </trkpt>
      <trkpt lat="37.40638667" lon="-4.437105">
        <ele>620.0</ele>
        <time>2018-05-29T11:12:47.058Z</time>
      </trkpt>
      <trkpt lat="37.40638667" lon="-4.437105">
        <ele>620.0</ele>
        <time>2018-05-29T11:12:48.064Z</time>
      </trkpt>
      <trkpt lat="37.40638667" lon="-4.43716667">
        <ele>621.0</ele>
        <time>2018-05-29T11:12:49.089Z</time>
      </trkpt>
      <trkpt lat="37.40638667" lon="-4.43716667">
        <ele>621.0</ele>
        <time>2018-05-29T11:12:50.058Z</time>
      </trkpt>
      <trkpt lat="37.40638667" lon="-4.43722667">
        <ele>621.0</ele>
        <time>2018-05-29T11:12:51.077Z</time>
      </trkpt>
      <trkpt lat="37.40638667" lon="-4.43722667">
        <ele>621.0</ele>
        <time>2018-05-29T11:12:52.083Z</time>
      </trkpt>
      <trkpt lat="37.40638667" lon="-4.43729167">
        <ele>622.0</ele>
        <time>2018-05-29T11:12:53.057Z</time>
      </trkpt>
      <trkpt lat="37.40638667" lon="-4.43729167">
        <ele>622.0</ele>
        <time>2018-05-29T11:12:54.065Z</time>
      </trkpt>
      <trkpt lat="37.40639" lon="-4.43735833">
        <ele>622.0</ele>
        <time>2018-05-29T11:12:55.068Z</time>
      </trkpt>
      <trkpt lat="37.40639167" lon="-4.43739333">
        <ele>622.0</ele>
        <time>2018-05-29T11:12:56.069Z</time>
      </trkpt>
      <trkpt lat="37.40639333" lon="-4.437425">
        <ele>622.0</ele>
        <time>2018-05-29T11:12:57.066Z</time>
      </trkpt>
      <trkpt lat="37.40639333" lon="-4.437425">
        <ele>622.0</ele>
        <time>2018-05-29T11:12:58.072Z</time>
      </trkpt>
      <trkpt lat="37.40639333" lon="-4.43748833">
        <ele>622.0</ele>
        <time>2018-05-29T11:12:59.089Z</time>
      </trkpt>
      <trkpt lat="37.40639333" lon="-4.43748833">
        <ele>622.0</ele>
        <time>2018-05-29T11:13:00.056Z</time>
      </trkpt>
      <trkpt lat="37.40639667" lon="-4.43754833">
        <ele>622.0</ele>
        <time>2018-05-29T11:13:01.074Z</time>
      </trkpt>
      <trkpt lat="37.40639833" lon="-4.43758">
        <ele>622.0</ele>
        <time>2018-05-29T11:13:02.078Z</time>
      </trkpt>
      <trkpt lat="37.40639833" lon="-4.43758">
        <ele>622.0</ele>
        <time>2018-05-29T11:13:03.085Z</time>
      </trkpt>
      <trkpt lat="37.40639667" lon="-4.43764333">
        <ele>622.0</ele>
        <time>2018-05-29T11:13:04.069Z</time>
      </trkpt>
      <trkpt lat="37.40639667" lon="-4.43764333">
        <ele>622.0</ele>
        <time>2018-05-29T11:13:05.075Z</time>
      </trkpt>
      <trkpt lat="37.40639833" lon="-4.43771">
        <ele>622.0</ele>
        <time>2018-05-29T11:13:06.093Z</time>
      </trkpt>
      <trkpt lat="37.40639833" lon="-4.43771">
        <ele>622.0</ele>
        <time>2018-05-29T11:13:07.060Z</time>
      </trkpt>
      <trkpt lat="37.40640833" lon="-4.43777833">
        <ele>622.0</ele>
        <time>2018-05-29T11:13:08.081Z</time>
      </trkpt>
      <trkpt lat="37.40640833" lon="-4.43777833">
        <ele>622.0</ele>
        <time>2018-05-29T11:13:09.087Z</time>
      </trkpt>
      <trkpt lat="37.40641667" lon="-4.43785">
        <ele>622.0</ele>
        <time>2018-05-29T11:13:10.084Z</time>
      </trkpt>
      <trkpt lat="37.40641667" lon="-4.43788667">
        <ele>622.0</ele>
        <time>2018-05-29T11:13:11.058Z</time>
      </trkpt>
      <trkpt lat="37.40641667" lon="-4.43788667">
        <ele>622.0</ele>
        <time>2018-05-29T11:13:12.064Z</time>
      </trkpt>
      <trkpt lat="37.40642667" lon="-4.43796333">
        <ele>622.0</ele>
        <time>2018-05-29T11:13:13.073Z</time>
      </trkpt>
      <trkpt lat="37.40642667" lon="-4.43796333">
        <ele>622.0</ele>
        <time>2018-05-29T11:13:14.080Z</time>
      </trkpt>
      <trkpt lat="37.40644167" lon="-4.43804167">
        <ele>622.0</ele>
        <time>2018-05-29T11:13:15.078Z</time>
      </trkpt>
      <trkpt lat="37.40644167" lon="-4.43804167">
        <ele>622.0</ele>
        <time>2018-05-29T11:13:16.085Z</time>
      </trkpt>
      <trkpt lat="37.40646167" lon="-4.43813">
        <ele>622.0</ele>
        <time>2018-05-29T11:13:17.095Z</time>
      </trkpt>
      <trkpt lat="37.40646167" lon="-4.43813">
        <ele>622.0</ele>
        <time>2018-05-29T11:13:18.061Z</time>
      </trkpt>
      <trkpt lat="37.406485" lon="-4.438225">
        <ele>622.0</ele>
        <time>2018-05-29T11:13:19.072Z</time>
      </trkpt>
      <trkpt lat="37.406485" lon="-4.438225">
        <ele>622.0</ele>
        <time>2018-05-29T11:13:20.078Z</time>
      </trkpt>
      <trkpt lat="37.40650333" lon="-4.438305">
        <ele>622.0</ele>
        <time>2018-05-29T11:13:21.078Z</time>
      </trkpt>
      <trkpt lat="37.40650333" lon="-4.438305">
        <ele>622.0</ele>
        <time>2018-05-29T11:13:22.084Z</time>
      </trkpt>
      <trkpt lat="37.40651833" lon="-4.43838167">
        <ele>622.0</ele>
        <time>2018-05-29T11:13:23.079Z</time>
      </trkpt>
      <trkpt lat="37.40651833" lon="-4.43838167">
        <ele>622.0</ele>
        <time>2018-05-29T11:13:24.085Z</time>
      </trkpt>
      <trkpt lat="37.40653667" lon="-4.43846833">
        <ele>622.0</ele>
        <time>2018-05-29T11:13:25.084Z</time>
      </trkpt>
      <trkpt lat="37.40653667" lon="-4.43846833">
        <ele>622.0</ele>
        <time>2018-05-29T11:13:26.092Z</time>
      </trkpt>
      <trkpt lat="37.40656167" lon="-4.43857167">
        <ele>621.0</ele>
        <time>2018-05-29T11:13:27.059Z</time>
      </trkpt>
      <trkpt lat="37.40656167" lon="-4.43857167">
        <ele>621.0</ele>
        <time>2018-05-29T11:13:28.065Z</time>
      </trkpt>
      <trkpt lat="37.40660167" lon="-4.43868667">
        <ele>620.0</ele>
        <time>2018-05-29T11:13:29.061Z</time>
      </trkpt>
      <trkpt lat="37.40660167" lon="-4.43868667">
        <ele>620.0</ele>
        <time>2018-05-29T11:13:30.067Z</time>
      </trkpt>
      <trkpt lat="37.406655" lon="-4.438805">
        <ele>619.0</ele>
        <time>2018-05-29T11:13:31.069Z</time>
      </trkpt>
      <trkpt lat="37.406655" lon="-4.438805">
        <ele>619.0</ele>
        <time>2018-05-29T11:13:32.075Z</time>
      </trkpt>
      <trkpt lat="37.40669333" lon="-4.43893">
        <ele>618.0</ele>
        <time>2018-05-29T11:13:33.059Z</time>
      </trkpt>
      <trkpt lat="37.40669333" lon="-4.43893">
        <ele>618.0</ele>
        <time>2018-05-29T11:13:34.065Z</time>
      </trkpt>
      <trkpt lat="37.40670667" lon="-4.43906833">
        <ele>617.0</ele>
        <time>2018-05-29T11:13:35.079Z</time>
      </trkpt>
      <trkpt lat="37.40670667" lon="-4.43906833">
        <ele>617.0</ele>
        <time>2018-05-29T11:13:36.085Z</time>
      </trkpt>
      <trkpt lat="37.40671667" lon="-4.43920167">
        <ele>615.0</ele>
        <time>2018-05-29T11:13:37.095Z</time>
      </trkpt>
      <trkpt lat="37.40671667" lon="-4.43926833">
        <ele>614.0</ele>
        <time>2018-05-29T11:13:38.093Z</time>
      </trkpt>
      <trkpt lat="37.40671667" lon="-4.43926833">
        <ele>614.0</ele>
        <time>2018-05-29T11:13:39.060Z</time>
      </trkpt>
      <trkpt lat="37.40669833" lon="-4.43940667">
        <ele>613.0</ele>
        <time>2018-05-29T11:13:40.058Z</time>
      </trkpt>
      <trkpt lat="37.40669833" lon="-4.43940667">
        <ele>613.0</ele>
        <time>2018-05-29T11:13:41.064Z</time>
      </trkpt>
      <trkpt lat="37.40667167" lon="-4.43956167">
        <ele>612.0</ele>
        <time>2018-05-29T11:13:42.095Z</time>
      </trkpt>
      <trkpt lat="37.40667167" lon="-4.43956167">
        <ele>612.0</ele>
        <time>2018-05-29T11:13:43.060Z</time>
      </trkpt>
      <trkpt lat="37.40664333" lon="-4.43971333">
        <ele>610.0</ele>
        <time>2018-05-29T11:13:44.059Z</time>
      </trkpt>
      <trkpt lat="37.40664333" lon="-4.43971333">
        <ele>610.0</ele>
        <time>2018-05-29T11:13:45.065Z</time>
      </trkpt>
      <trkpt lat="37.40660833" lon="-4.43986">
        <ele>609.0</ele>
        <time>2018-05-29T11:13:46.071Z</time>
      </trkpt>
      <trkpt lat="37.40660833" lon="-4.43986">
        <ele>609.0</ele>
        <time>2018-05-29T11:13:47.071Z</time>
      </trkpt>
      <trkpt lat="37.40658333" lon="-4.44000833">
        <ele>608.0</ele>
        <time>2018-05-29T11:13:48.083Z</time>
      </trkpt>
      <trkpt lat="37.40658333" lon="-4.44000833">
        <ele>608.0</ele>
        <time>2018-05-29T11:13:49.090Z</time>
      </trkpt>
      <trkpt lat="37.40654333" lon="-4.44016333">
        <ele>607.0</ele>
        <time>2018-05-29T11:13:50.095Z</time>
      </trkpt>
      <trkpt lat="37.406515" lon="-4.44024333">
        <ele>606.0</ele>
        <time>2018-05-29T11:13:51.093Z</time>
      </trkpt>
      <trkpt lat="37.406515" lon="-4.44024333">
        <ele>606.0</ele>
        <time>2018-05-29T11:13:52.060Z</time>
      </trkpt>
      <trkpt lat="37.406455" lon="-4.44041">
        <ele>604.0</ele>
        <time>2018-05-29T11:13:53.096Z</time>
      </trkpt>
      <trkpt lat="37.40643" lon="-4.44049">
        <ele>603.0</ele>
        <time>2018-05-29T11:13:54.090Z</time>
      </trkpt>
      <trkpt lat="37.40643" lon="-4.44049">
        <ele>603.0</ele>
        <time>2018-05-29T11:13:55.057Z</time>
      </trkpt>
      <trkpt lat="37.406375" lon="-4.440655">
        <ele>602.0</ele>
        <time>2018-05-29T11:13:56.063Z</time>
      </trkpt>
      <trkpt lat="37.40634333" lon="-4.44073167">
        <ele>601.0</ele>
        <time>2018-05-29T11:13:57.057Z</time>
      </trkpt>
      <trkpt lat="37.40634333" lon="-4.44073167">
        <ele>601.0</ele>
        <time>2018-05-29T11:13:58.064Z</time>
      </trkpt>
      <trkpt lat="37.40626833" lon="-4.440865">
        <ele>600.0</ele>
        <time>2018-05-29T11:13:59.093Z</time>
      </trkpt>
      <trkpt lat="37.40626833" lon="-4.440865">
        <ele>600.0</ele>
        <time>2018-05-29T11:14:00.058Z</time>
      </trkpt>
      <trkpt lat="37.4062" lon="-4.44097167">
        <ele>599.0</ele>
        <time>2018-05-29T11:14:01.059Z</time>
      </trkpt>
      <trkpt lat="37.4062" lon="-4.44097167">
        <ele>599.0</ele>
        <time>2018-05-29T11:14:02.066Z</time>
      </trkpt>
      <trkpt lat="37.406135" lon="-4.44107167">
        <ele>598.0</ele>
        <time>2018-05-29T11:14:03.074Z</time>
      </trkpt>
      <trkpt lat="37.406135" lon="-4.44107167">
        <ele>598.0</ele>
        <time>2018-05-29T11:14:04.079Z</time>
      </trkpt>
      <trkpt lat="37.40607167" lon="-4.44117333">
        <ele>596.0</ele>
        <time>2018-05-29T11:14:05.069Z</time>
      </trkpt>
      <trkpt lat="37.406045" lon="-4.44122333">
        <ele>596.0</ele>
        <time>2018-05-29T11:14:06.068Z</time>
      </trkpt>
      <trkpt lat="37.406045" lon="-4.44122333">
        <ele>596.0</ele>
        <time>2018-05-29T11:14:07.074Z</time>
      </trkpt>
      <trkpt lat="37.405995" lon="-4.44130833">
        <ele>595.0</ele>
        <time>2018-05-29T11:14:08.089Z</time>
      </trkpt>
      <trkpt lat="37.405975" lon="-4.44135167">
        <ele>594.0</ele>
        <time>2018-05-29T11:14:09.080Z</time>
      </trkpt>
      <trkpt lat="37.405975" lon="-4.44135167">
        <ele>594.0</ele>
        <time>2018-05-29T11:14:10.086Z</time>
      </trkpt>
      <trkpt lat="37.40594167" lon="-4.44144833">
        <ele>593.0</ele>
        <time>2018-05-29T11:14:11.079Z</time>
      </trkpt>
      <trkpt lat="37.40594167" lon="-4.44144833">
        <ele>593.0</ele>
        <time>2018-05-29T11:14:12.086Z</time>
      </trkpt>
      <trkpt lat="37.40591167" lon="-4.44156833">
        <ele>592.0</ele>
        <time>2018-05-29T11:14:13.056Z</time>
      </trkpt>
      <trkpt lat="37.40591167" lon="-4.44156833">
        <ele>592.0</ele>
        <time>2018-05-29T11:14:14.063Z</time>
      </trkpt>
      <trkpt lat="37.40587333" lon="-4.441675">
        <ele>591.0</ele>
        <time>2018-05-29T11:14:15.059Z</time>
      </trkpt>
      <trkpt lat="37.40587333" lon="-4.441675">
        <ele>591.0</ele>
        <time>2018-05-29T11:14:16.065Z</time>
      </trkpt>
      <trkpt lat="37.405835" lon="-4.44177167">
        <ele>590.0</ele>
        <time>2018-05-29T11:14:17.059Z</time>
      </trkpt>
      <trkpt lat="37.40581333" lon="-4.44182">
        <ele>589.0</ele>
        <time>2018-05-29T11:14:18.066Z</time>
      </trkpt>
      <trkpt lat="37.40581333" lon="-4.44182">
        <ele>589.0</ele>
        <time>2018-05-29T11:14:19.071Z</time>
      </trkpt>
      <trkpt lat="37.40577667" lon="-4.44193">
        <ele>588.0</ele>
        <time>2018-05-29T11:14:20.062Z</time>
      </trkpt>
      <trkpt lat="37.405765" lon="-4.44198833">
        <ele>587.0</ele>
        <time>2018-05-29T11:14:21.079Z</time>
      </trkpt>
      <trkpt lat="37.405765" lon="-4.44198833">
        <ele>587.0</ele>
        <time>2018-05-29T11:14:22.085Z</time>
      </trkpt>
      <trkpt lat="37.40575667" lon="-4.44210167">
        <ele>586.0</ele>
        <time>2018-05-29T11:14:23.065Z</time>
      </trkpt>
      <trkpt lat="37.40575833" lon="-4.44215833">
        <ele>586.0</ele>
        <time>2018-05-29T11:14:24.056Z</time>
      </trkpt>
      <trkpt lat="37.40575833" lon="-4.44215833">
        <ele>586.0</ele>
        <time>2018-05-29T11:14:25.062Z</time>
      </trkpt>
      <trkpt lat="37.40576167" lon="-4.44227833">
        <ele>584.0</ele>
        <time>2018-05-29T11:14:26.096Z</time>
      </trkpt>
      <trkpt lat="37.40576833" lon="-4.44234167">
        <ele>584.0</ele>
        <time>2018-05-29T11:14:27.089Z</time>
      </trkpt>
      <trkpt lat="37.40576833" lon="-4.44234167">
        <ele>584.0</ele>
        <time>2018-05-29T11:14:28.095Z</time>
      </trkpt>
      <trkpt lat="37.40578167" lon="-4.44246167">
        <ele>583.0</ele>
        <time>2018-05-29T11:14:29.086Z</time>
      </trkpt>
      <trkpt lat="37.40578167" lon="-4.44246167">
        <ele>583.0</ele>
        <time>2018-05-29T11:14:30.058Z</time>
      </trkpt>
      <trkpt lat="37.40579167" lon="-4.44259333">
        <ele>582.0</ele>
        <time>2018-05-29T11:14:31.068Z</time>
      </trkpt>
      <trkpt lat="37.40579167" lon="-4.44259333">
        <ele>582.0</ele>
        <time>2018-05-29T11:14:32.074Z</time>
      </trkpt>
      <trkpt lat="37.405815" lon="-4.44273">
        <ele>581.0</ele>
        <time>2018-05-29T11:14:33.071Z</time>
      </trkpt>
      <trkpt lat="37.405815" lon="-4.44273">
        <ele>581.0</ele>
        <time>2018-05-29T11:14:34.077Z</time>
      </trkpt>
      <trkpt lat="37.40583833" lon="-4.44285667">
        <ele>579.0</ele>
        <time>2018-05-29T11:14:35.085Z</time>
      </trkpt>
      <trkpt lat="37.40583833" lon="-4.44285667">
        <ele>579.0</ele>
        <time>2018-05-29T11:14:36.091Z</time>
      </trkpt>
      <trkpt lat="37.40587333" lon="-4.44298167">
        <ele>578.0</ele>
        <time>2018-05-29T11:14:37.090Z</time>
      </trkpt>
      <trkpt lat="37.40589" lon="-4.44305">
        <ele>577.0</ele>
        <time>2018-05-29T11:14:38.089Z</time>
      </trkpt>
      <trkpt lat="37.40590667" lon="-4.44312">
        <ele>576.0</ele>
        <time>2018-05-29T11:14:39.089Z</time>
      </trkpt>
      <trkpt lat="37.40590667" lon="-4.44312">
        <ele>576.0</ele>
        <time>2018-05-29T11:14:40.095Z</time>
      </trkpt>
      <trkpt lat="37.40592833" lon="-4.44324333">
        <ele>575.0</ele>
        <time>2018-05-29T11:14:41.088Z</time>
      </trkpt>
      <trkpt lat="37.40592833" lon="-4.44324333">
        <ele>575.0</ele>
        <time>2018-05-29T11:14:42.058Z</time>
      </trkpt>
      <trkpt lat="37.40594833" lon="-4.44335167">
        <ele>574.0</ele>
        <time>2018-05-29T11:14:43.059Z</time>
      </trkpt>
      <trkpt lat="37.40594833" lon="-4.44335167">
        <ele>574.0</ele>
        <time>2018-05-29T11:14:44.065Z</time>
      </trkpt>
      <trkpt lat="37.40595167" lon="-4.44343667">
        <ele>573.0</ele>
        <time>2018-05-29T11:14:45.075Z</time>
      </trkpt>
      <trkpt lat="37.40595167" lon="-4.44343667">
        <ele>573.0</ele>
        <time>2018-05-29T11:14:46.081Z</time>
      </trkpt>
      <trkpt lat="37.40596667" lon="-4.44352833">
        <ele>572.0</ele>
        <time>2018-05-29T11:14:47.066Z</time>
      </trkpt>
      <trkpt lat="37.40596667" lon="-4.44352833">
        <ele>572.0</ele>
        <time>2018-05-29T11:14:48.072Z</time>
      </trkpt>
      <trkpt lat="37.40600167" lon="-4.443655">
        <ele>571.0</ele>
        <time>2018-05-29T11:14:49.082Z</time>
      </trkpt>
      <trkpt lat="37.40600167" lon="-4.443655">
        <ele>571.0</ele>
        <time>2018-05-29T11:14:50.091Z</time>
      </trkpt>
      <trkpt lat="37.40603" lon="-4.44379667">
        <ele>569.0</ele>
        <time>2018-05-29T11:14:51.080Z</time>
      </trkpt>
      <trkpt lat="37.40603" lon="-4.44379667">
        <ele>569.0</ele>
        <time>2018-05-29T11:14:52.086Z</time>
      </trkpt>
      <trkpt lat="37.40605" lon="-4.44391833">
        <ele>568.0</ele>
        <time>2018-05-29T11:14:53.082Z</time>
      </trkpt>
      <trkpt lat="37.40605667" lon="-4.44397333">
        <ele>567.0</ele>
        <time>2018-05-29T11:14:54.069Z</time>
      </trkpt>
      <trkpt lat="37.40605667" lon="-4.44397333">
        <ele>567.0</ele>
        <time>2018-05-29T11:14:55.075Z</time>
      </trkpt>
      <trkpt lat="37.40607833" lon="-4.44410167">
        <ele>566.0</ele>
        <time>2018-05-29T11:14:56.076Z</time>
      </trkpt>
      <trkpt lat="37.406095" lon="-4.44416833">
        <ele>565.0</ele>
        <time>2018-05-29T11:14:57.093Z</time>
      </trkpt>
      <trkpt lat="37.406095" lon="-4.44416833">
        <ele>565.0</ele>
        <time>2018-05-29T11:14:58.061Z</time>
      </trkpt>
      <trkpt lat="37.406135" lon="-4.44430333">
        <ele>563.0</ele>
        <time>2018-05-29T11:14:59.059Z</time>
      </trkpt>
      <trkpt lat="37.406155" lon="-4.44437">
        <ele>563.0</ele>
        <time>2018-05-29T11:15:00.059Z</time>
      </trkpt>
      <trkpt lat="37.406155" lon="-4.44437">
        <ele>563.0</ele>
        <time>2018-05-29T11:15:01.065Z</time>
      </trkpt>
      <trkpt lat="37.40618333" lon="-4.44449667">
        <ele>562.0</ele>
        <time>2018-05-29T11:15:02.092Z</time>
      </trkpt>
      <trkpt lat="37.4062" lon="-4.44455833">
        <ele>562.0</ele>
        <time>2018-05-29T11:15:03.079Z</time>
      </trkpt>
      <trkpt lat="37.4062" lon="-4.44455833">
        <ele>562.0</ele>
        <time>2018-05-29T11:15:04.085Z</time>
      </trkpt>
      <trkpt lat="37.40624" lon="-4.444685">
        <ele>561.0</ele>
        <time>2018-05-29T11:15:05.069Z</time>
      </trkpt>
      <trkpt lat="37.40624" lon="-4.444685">
        <ele>561.0</ele>
        <time>2018-05-29T11:15:06.077Z</time>
      </trkpt>
      <trkpt lat="37.40628167" lon="-4.44482833">
        <ele>559.0</ele>
        <time>2018-05-29T11:15:07.078Z</time>
      </trkpt>
      <trkpt lat="37.40628167" lon="-4.44482833">
        <ele>559.0</ele>
        <time>2018-05-29T11:15:08.084Z</time>
      </trkpt>
      <trkpt lat="37.40632167" lon="-4.44497167">
        <ele>558.0</ele>
        <time>2018-05-29T11:15:09.059Z</time>
      </trkpt>
      <trkpt lat="37.40632167" lon="-4.44497167">
        <ele>558.0</ele>
        <time>2018-05-29T11:15:10.065Z</time>
      </trkpt>
      <trkpt lat="37.406355" lon="-4.44511333">
        <ele>557.0</ele>
        <time>2018-05-29T11:15:11.075Z</time>
      </trkpt>
      <trkpt lat="37.406365" lon="-4.44517833">
        <ele>557.0</ele>
        <time>2018-05-29T11:15:12.065Z</time>
      </trkpt>
      <trkpt lat="37.406365" lon="-4.44517833">
        <ele>557.0</ele>
        <time>2018-05-29T11:15:13.070Z</time>
      </trkpt>
      <trkpt lat="37.40639" lon="-4.44530167">
        <ele>556.0</ele>
        <time>2018-05-29T11:15:14.069Z</time>
      </trkpt>
      <trkpt lat="37.40640833" lon="-4.44537167">
        <ele>555.0</ele>
        <time>2018-05-29T11:15:15.069Z</time>
      </trkpt>
      <trkpt lat="37.40640833" lon="-4.44537167">
        <ele>555.0</ele>
        <time>2018-05-29T11:15:16.074Z</time>
      </trkpt>
      <trkpt lat="37.40644833" lon="-4.44552">
        <ele>554.0</ele>
        <time>2018-05-29T11:15:17.075Z</time>
      </trkpt>
      <trkpt lat="37.40646833" lon="-4.44560167">
        <ele>552.0</ele>
        <time>2018-05-29T11:15:18.087Z</time>
      </trkpt>
      <trkpt lat="37.40646833" lon="-4.44560167">
        <ele>552.0</ele>
        <time>2018-05-29T11:15:19.056Z</time>
      </trkpt>
      <trkpt lat="37.406505" lon="-4.44578833">
        <ele>551.0</ele>
        <time>2018-05-29T11:15:20.063Z</time>
      </trkpt>
      <trkpt lat="37.40652667" lon="-4.44588667">
        <ele>550.0</ele>
        <time>2018-05-29T11:15:21.056Z</time>
      </trkpt>
      <trkpt lat="37.40652667" lon="-4.44588667">
        <ele>550.0</ele>
        <time>2018-05-29T11:15:22.062Z</time>
      </trkpt>
      <trkpt lat="37.406575" lon="-4.44609333">
        <ele>549.0</ele>
        <time>2018-05-29T11:15:23.077Z</time>
      </trkpt>
      <trkpt lat="37.40659333" lon="-4.44620333">
        <ele>549.0</ele>
        <time>2018-05-29T11:15:24.079Z</time>
      </trkpt>
      <trkpt lat="37.40659333" lon="-4.44620333">
        <ele>549.0</ele>
        <time>2018-05-29T11:15:25.085Z</time>
      </trkpt>
      <trkpt lat="37.406615" lon="-4.44642667">
        <ele>548.0</ele>
        <time>2018-05-29T11:15:26.079Z</time>
      </trkpt>
      <trkpt lat="37.40662167" lon="-4.44653">
        <ele>547.0</ele>
        <time>2018-05-29T11:15:27.073Z</time>
      </trkpt>
      <trkpt lat="37.40662167" lon="-4.44653">
        <ele>547.0</ele>
        <time>2018-05-29T11:15:28.078Z</time>
      </trkpt>
      <trkpt lat="37.40665167" lon="-4.44670333">
        <ele>547.0</ele>
        <time>2018-05-29T11:15:29.064Z</time>
      </trkpt>
      <trkpt lat="37.40665167" lon="-4.44670333">
        <ele>547.0</ele>
        <time>2018-05-29T11:15:30.070Z</time>
      </trkpt>
      <trkpt lat="37.40671333" lon="-4.44684333">
        <ele>546.0</ele>
        <time>2018-05-29T11:15:31.079Z</time>
      </trkpt>
      <trkpt lat="37.40671333" lon="-4.44684333">
        <ele>546.0</ele>
        <time>2018-05-29T11:15:32.085Z</time>
      </trkpt>
      <trkpt lat="37.40678167" lon="-4.446965">
        <ele>546.0</ele>
        <time>2018-05-29T11:15:33.072Z</time>
      </trkpt>
      <trkpt lat="37.40678167" lon="-4.446965">
        <ele>546.0</ele>
        <time>2018-05-29T11:15:34.078Z</time>
      </trkpt>
      <trkpt lat="37.406845" lon="-4.44708167">
        <ele>546.0</ele>
        <time>2018-05-29T11:15:35.072Z</time>
      </trkpt>
      <trkpt lat="37.406875" lon="-4.44714167">
        <ele>546.0</ele>
        <time>2018-05-29T11:15:36.060Z</time>
      </trkpt>
      <trkpt lat="37.406875" lon="-4.44714167">
        <ele>546.0</ele>
        <time>2018-05-29T11:15:37.066Z</time>
      </trkpt>
      <trkpt lat="37.40693" lon="-4.44725667">
        <ele>546.0</ele>
        <time>2018-05-29T11:15:38.070Z</time>
      </trkpt>
      <trkpt lat="37.40696" lon="-4.447315">
        <ele>546.0</ele>
        <time>2018-05-29T11:15:39.072Z</time>
      </trkpt>
      <trkpt lat="37.40696" lon="-4.447315">
        <ele>546.0</ele>
        <time>2018-05-29T11:15:40.077Z</time>
      </trkpt>
      <trkpt lat="37.40702833" lon="-4.447425">
        <ele>545.0</ele>
        <time>2018-05-29T11:15:41.089Z</time>
      </trkpt>
      <trkpt lat="37.40706333" lon="-4.44748">
        <ele>545.0</ele>
        <time>2018-05-29T11:15:42.078Z</time>
      </trkpt>
      <trkpt lat="37.40706333" lon="-4.44748">
        <ele>545.0</ele>
        <time>2018-05-29T11:15:43.084Z</time>
      </trkpt>
      <trkpt lat="37.407145" lon="-4.44759167">
        <ele>544.0</ele>
        <time>2018-05-29T11:15:44.059Z</time>
      </trkpt>
      <trkpt lat="37.40719167" lon="-4.44764667">
        <ele>544.0</ele>
        <time>2018-05-29T11:15:45.059Z</time>
      </trkpt>
      <trkpt lat="37.40719167" lon="-4.44764667">
        <ele>544.0</ele>
        <time>2018-05-29T11:15:46.066Z</time>
      </trkpt>
      <trkpt lat="37.40729" lon="-4.44777">
        <ele>544.0</ele>
        <time>2018-05-29T11:15:47.089Z</time>
      </trkpt>
      <trkpt lat="37.40729" lon="-4.44777">
        <ele>544.0</ele>
        <time>2018-05-29T11:15:48.058Z</time>
      </trkpt>
      <trkpt lat="37.40739333" lon="-4.447905">
        <ele>543.0</ele>
        <time>2018-05-29T11:15:49.065Z</time>
      </trkpt>
      <trkpt lat="37.40739333" lon="-4.447905">
        <ele>543.0</ele>
        <time>2018-05-29T11:15:50.072Z</time>
      </trkpt>
      <trkpt lat="37.40749" lon="-4.44805">
        <ele>541.0</ele>
        <time>2018-05-29T11:15:51.076Z</time>
      </trkpt>
      <trkpt lat="37.40749" lon="-4.44805">
        <ele>541.0</ele>
        <time>2018-05-29T11:15:52.081Z</time>
      </trkpt>
      <trkpt lat="37.40758167" lon="-4.44819667">
        <ele>540.0</ele>
        <time>2018-05-29T11:15:53.089Z</time>
      </trkpt>
      <trkpt lat="37.40763333" lon="-4.44828167">
        <ele>540.0</ele>
        <time>2018-05-29T11:15:54.090Z</time>
      </trkpt>
      <trkpt lat="37.40768" lon="-4.44836167">
        <ele>539.0</ele>
        <time>2018-05-29T11:15:55.072Z</time>
      </trkpt>
      <trkpt lat="37.40768" lon="-4.44836167">
        <ele>539.0</ele>
        <time>2018-05-29T11:15:56.079Z</time>
      </trkpt>
      <trkpt lat="37.40775167" lon="-4.44851167">
        <ele>538.0</ele>
        <time>2018-05-29T11:15:57.089Z</time>
      </trkpt>
      <trkpt lat="37.40775167" lon="-4.44851167">
        <ele>538.0</ele>
        <time>2018-05-29T11:15:58.056Z</time>
      </trkpt>
      <trkpt lat="37.407805" lon="-4.44864167">
        <ele>537.0</ele>
        <time>2018-05-29T11:15:59.069Z</time>
      </trkpt>
      <trkpt lat="37.407805" lon="-4.44864167">
        <ele>537.0</ele>
        <time>2018-05-29T11:16:00.074Z</time>
      </trkpt>
      <trkpt lat="37.40785667" lon="-4.44877">
        <ele>536.0</ele>
        <time>2018-05-29T11:16:01.075Z</time>
      </trkpt>
      <trkpt lat="37.40788167" lon="-4.44883667">
        <ele>535.0</ele>
        <time>2018-05-29T11:16:02.079Z</time>
      </trkpt>
      <trkpt lat="37.40788167" lon="-4.44883667">
        <ele>535.0</ele>
        <time>2018-05-29T11:16:03.085Z</time>
      </trkpt>
      <trkpt lat="37.407925" lon="-4.44897167">
        <ele>533.0</ele>
        <time>2018-05-29T11:16:04.087Z</time>
      </trkpt>
      <trkpt lat="37.407925" lon="-4.44897167">
        <ele>533.0</ele>
        <time>2018-05-29T11:16:05.094Z</time>
      </trkpt>
      <trkpt lat="37.40796667" lon="-4.449115">
        <ele>531.0</ele>
        <time>2018-05-29T11:16:06.083Z</time>
      </trkpt>
      <trkpt lat="37.40796667" lon="-4.449115">
        <ele>531.0</ele>
        <time>2018-05-29T11:16:07.089Z</time>
      </trkpt>
      <trkpt lat="37.40800833" lon="-4.449275">
        <ele>530.0</ele>
        <time>2018-05-29T11:16:08.072Z</time>
      </trkpt>
      <trkpt lat="37.40802833" lon="-4.44935833">
        <ele>529.0</ele>
        <time>2018-05-29T11:16:09.067Z</time>
      </trkpt>
      <trkpt lat="37.40804667" lon="-4.44944333">
        <ele>528.0</ele>
        <time>2018-05-29T11:16:10.065Z</time>
      </trkpt>
      <trkpt lat="37.40804667" lon="-4.44944333">
        <ele>528.0</ele>
        <time>2018-05-29T11:16:11.070Z</time>
      </trkpt>
      <trkpt lat="37.40807833" lon="-4.44963">
        <ele>527.0</ele>
        <time>2018-05-29T11:16:12.064Z</time>
      </trkpt>
      <trkpt lat="37.40807833" lon="-4.44963">
        <ele>527.0</ele>
        <time>2018-05-29T11:16:13.069Z</time>
      </trkpt>
      <trkpt lat="37.40810333" lon="-4.44981167">
        <ele>525.0</ele>
        <time>2018-05-29T11:16:14.089Z</time>
      </trkpt>
      <trkpt lat="37.408115" lon="-4.44989667">
        <ele>524.0</ele>
        <time>2018-05-29T11:16:15.067Z</time>
      </trkpt>
      <trkpt lat="37.408115" lon="-4.44989667">
        <ele>524.0</ele>
        <time>2018-05-29T11:16:16.073Z</time>
      </trkpt>
      <trkpt lat="37.40814167" lon="-4.45005667">
        <ele>522.0</ele>
        <time>2018-05-29T11:16:17.082Z</time>
      </trkpt>
      <trkpt lat="37.40814167" lon="-4.45005667">
        <ele>522.0</ele>
        <time>2018-05-29T11:16:18.087Z</time>
      </trkpt>
      <trkpt lat="37.40814833" lon="-4.45019667">
        <ele>521.0</ele>
        <time>2018-05-29T11:16:19.068Z</time>
      </trkpt>
      <trkpt lat="37.40814167" lon="-4.45025333">
        <ele>520.0</ele>
        <time>2018-05-29T11:16:20.079Z</time>
      </trkpt>
      <trkpt lat="37.40814167" lon="-4.45025333">
        <ele>520.0</ele>
        <time>2018-05-29T11:16:21.085Z</time>
      </trkpt>
      <trkpt lat="37.40813167" lon="-4.450345">
        <ele>519.0</ele>
        <time>2018-05-29T11:16:22.090Z</time>
      </trkpt>
      <trkpt lat="37.40813167" lon="-4.450345">
        <ele>519.0</ele>
        <time>2018-05-29T11:16:23.058Z</time>
      </trkpt>
      <trkpt lat="37.40812833" lon="-4.45044167">
        <ele>518.0</ele>
        <time>2018-05-29T11:16:24.084Z</time>
      </trkpt>
      <trkpt lat="37.40812833" lon="-4.45044167">
        <ele>518.0</ele>
        <time>2018-05-29T11:16:25.089Z</time>
      </trkpt>
      <trkpt lat="37.40814" lon="-4.45054167">
        <ele>518.0</ele>
        <time>2018-05-29T11:16:26.057Z</time>
      </trkpt>
      <trkpt lat="37.40814667" lon="-4.45058167">
        <ele>518.0</ele>
        <time>2018-05-29T11:16:27.061Z</time>
      </trkpt>
      <trkpt lat="37.40814667" lon="-4.45058167">
        <ele>518.0</ele>
        <time>2018-05-29T11:16:28.066Z</time>
      </trkpt>
      <trkpt lat="37.40815167" lon="-4.45064">
        <ele>517.0</ele>
        <time>2018-05-29T11:16:29.059Z</time>
      </trkpt>
      <trkpt lat="37.40813667" lon="-4.45066833">
        <ele>517.0</ele>
        <time>2018-05-29T11:16:30.069Z</time>
      </trkpt>
      <trkpt lat="37.40813667" lon="-4.45066833">
        <ele>517.0</ele>
        <time>2018-05-29T11:16:31.075Z</time>
      </trkpt>
      <trkpt lat="37.40808833" lon="-4.45072">
        <ele>517.0</ele>
        <time>2018-05-29T11:16:32.079Z</time>
      </trkpt>
      <trkpt lat="37.40808833" lon="-4.45072">
        <ele>517.0</ele>
        <time>2018-05-29T11:16:33.085Z</time>
      </trkpt>
      <trkpt lat="37.40804167" lon="-4.45079333">
        <ele>517.0</ele>
        <time>2018-05-29T11:16:34.079Z</time>
      </trkpt>
      <trkpt lat="37.40804167" lon="-4.45079333">
        <ele>517.0</ele>
        <time>2018-05-29T11:16:35.085Z</time>
      </trkpt>
      <trkpt lat="37.408005" lon="-4.450885">
        <ele>518.0</ele>
        <time>2018-05-29T11:16:36.095Z</time>
      </trkpt>
      <trkpt lat="37.408005" lon="-4.450885">
        <ele>518.0</ele>
        <time>2018-05-29T11:16:37.061Z</time>
      </trkpt>
      <trkpt lat="37.40797167" lon="-4.45098667">
        <ele>518.0</ele>
        <time>2018-05-29T11:16:38.069Z</time>
      </trkpt>
      <trkpt lat="37.40795667" lon="-4.45104333">
        <ele>517.0</ele>
        <time>2018-05-29T11:16:39.079Z</time>
      </trkpt>
      <trkpt lat="37.40795667" lon="-4.45104333">
        <ele>517.0</ele>
        <time>2018-05-29T11:16:40.085Z</time>
      </trkpt>
      <trkpt lat="37.40794333" lon="-4.45115667">
        <ele>517.0</ele>
        <time>2018-05-29T11:16:41.085Z</time>
      </trkpt>
      <trkpt lat="37.407945" lon="-4.451215">
        <ele>517.0</ele>
        <time>2018-05-29T11:16:42.079Z</time>
      </trkpt>
      <trkpt lat="37.407945" lon="-4.451215">
        <ele>517.0</ele>
        <time>2018-05-29T11:16:43.086Z</time>
      </trkpt>
      <trkpt lat="37.40795333" lon="-4.451335">
        <ele>517.0</ele>
        <time>2018-05-29T11:16:44.093Z</time>
      </trkpt>
      <trkpt lat="37.407955" lon="-4.451395">
        <ele>518.0</ele>
        <time>2018-05-29T11:16:45.059Z</time>
      </trkpt>
      <trkpt lat="37.407955" lon="-4.451395">
        <ele>518.0</ele>
        <time>2018-05-29T11:16:46.066Z</time>
      </trkpt>
      <trkpt lat="37.40795167" lon="-4.451515">
        <ele>518.0</ele>
        <time>2018-05-29T11:16:47.076Z</time>
      </trkpt>
      <trkpt lat="37.40795" lon="-4.45157333">
        <ele>518.0</ele>
        <time>2018-05-29T11:16:48.073Z</time>
      </trkpt>
      <trkpt lat="37.40795" lon="-4.45157333">
        <ele>518.0</ele>
        <time>2018-05-29T11:16:49.080Z</time>
      </trkpt>
      <trkpt lat="37.40794" lon="-4.45169167">
        <ele>518.0</ele>
        <time>2018-05-29T11:16:50.083Z</time>
      </trkpt>
      <trkpt lat="37.40793167" lon="-4.45175">
        <ele>518.0</ele>
        <time>2018-05-29T11:16:51.080Z</time>
      </trkpt>
      <trkpt lat="37.40793167" lon="-4.45175">
        <ele>518.0</ele>
        <time>2018-05-29T11:16:52.086Z</time>
      </trkpt>
      <trkpt lat="37.40791" lon="-4.45186833">
        <ele>518.0</ele>
        <time>2018-05-29T11:16:53.069Z</time>
      </trkpt>
      <trkpt lat="37.40789333" lon="-4.45192167">
        <ele>518.0</ele>
        <time>2018-05-29T11:16:54.057Z</time>
      </trkpt>
      <trkpt lat="37.407885" lon="-4.45197833">
        <ele>518.0</ele>
        <time>2018-05-29T11:16:55.058Z</time>
      </trkpt>
      <trkpt lat="37.407885" lon="-4.45197833">
        <ele>518.0</ele>
        <time>2018-05-29T11:16:56.064Z</time>
      </trkpt>
      <trkpt lat="37.40785667" lon="-4.45208667">
        <ele>518.0</ele>
        <time>2018-05-29T11:16:57.059Z</time>
      </trkpt>
      <trkpt lat="37.40785667" lon="-4.45208667">
        <ele>518.0</ele>
        <time>2018-05-29T11:16:58.065Z</time>
      </trkpt>
      <trkpt lat="37.40782667" lon="-4.45219167">
        <ele>518.0</ele>
        <time>2018-05-29T11:16:59.059Z</time>
      </trkpt>
      <trkpt lat="37.40781167" lon="-4.452245">
        <ele>518.0</ele>
        <time>2018-05-29T11:17:00.089Z</time>
      </trkpt>
      <trkpt lat="37.40781167" lon="-4.452245">
        <ele>518.0</ele>
        <time>2018-05-29T11:17:01.058Z</time>
      </trkpt>
      <trkpt lat="37.40778167" lon="-4.45236">
        <ele>518.0</ele>
        <time>2018-05-29T11:17:02.088Z</time>
      </trkpt>
      <trkpt lat="37.40777" lon="-4.45241833">
        <ele>518.0</ele>
        <time>2018-05-29T11:17:03.059Z</time>
      </trkpt>
      <trkpt lat="37.40777" lon="-4.45241833">
        <ele>518.0</ele>
        <time>2018-05-29T11:17:04.065Z</time>
      </trkpt>
      <trkpt lat="37.40773667" lon="-4.45252667">
        <ele>517.0</ele>
        <time>2018-05-29T11:17:05.078Z</time>
      </trkpt>
      <trkpt lat="37.40773667" lon="-4.45252667">
        <ele>517.0</ele>
        <time>2018-05-29T11:17:06.085Z</time>
      </trkpt>
      <trkpt lat="37.407705" lon="-4.45263833">
        <ele>517.0</ele>
        <time>2018-05-29T11:17:07.075Z</time>
      </trkpt>
      <trkpt lat="37.407705" lon="-4.45263833">
        <ele>517.0</ele>
        <time>2018-05-29T11:17:08.080Z</time>
      </trkpt>
      <trkpt lat="37.40768667" lon="-4.45275667">
        <ele>517.0</ele>
        <time>2018-05-29T11:17:09.059Z</time>
      </trkpt>
      <trkpt lat="37.40768667" lon="-4.45275667">
        <ele>517.0</ele>
        <time>2018-05-29T11:17:10.066Z</time>
      </trkpt>
      <trkpt lat="37.40769" lon="-4.45287833">
        <ele>516.0</ele>
        <time>2018-05-29T11:17:11.069Z</time>
      </trkpt>
      <trkpt lat="37.40769" lon="-4.45287833">
        <ele>516.0</ele>
        <time>2018-05-29T11:17:12.076Z</time>
      </trkpt>
      <trkpt lat="37.4077" lon="-4.453005">
        <ele>516.0</ele>
        <time>2018-05-29T11:17:13.082Z</time>
      </trkpt>
      <trkpt lat="37.40770333" lon="-4.45307167">
        <ele>516.0</ele>
        <time>2018-05-29T11:17:14.089Z</time>
      </trkpt>
      <trkpt lat="37.40770333" lon="-4.45307167">
        <ele>516.0</ele>
        <time>2018-05-29T11:17:15.095Z</time>
      </trkpt>
      <trkpt lat="37.40771667" lon="-4.45321">
        <ele>516.0</ele>
        <time>2018-05-29T11:17:16.059Z</time>
      </trkpt>
      <trkpt lat="37.40772167" lon="-4.45328">
        <ele>515.0</ele>
        <time>2018-05-29T11:17:17.059Z</time>
      </trkpt>
      <trkpt lat="37.40772167" lon="-4.45328">
        <ele>515.0</ele>
        <time>2018-05-29T11:17:18.065Z</time>
      </trkpt>
      <trkpt lat="37.407735" lon="-4.45342167">
        <ele>515.0</ele>
        <time>2018-05-29T11:17:19.062Z</time>
      </trkpt>
      <trkpt lat="37.407735" lon="-4.45342167">
        <ele>515.0</ele>
        <time>2018-05-29T11:17:20.068Z</time>
      </trkpt>
      <trkpt lat="37.40775" lon="-4.453565">
        <ele>515.0</ele>
        <time>2018-05-29T11:17:21.069Z</time>
      </trkpt>
      <trkpt lat="37.40775" lon="-4.453565">
        <ele>515.0</ele>
        <time>2018-05-29T11:17:22.076Z</time>
      </trkpt>
      <trkpt lat="37.40776" lon="-4.45371167">
        <ele>515.0</ele>
        <time>2018-05-29T11:17:23.079Z</time>
      </trkpt>
      <trkpt lat="37.40776" lon="-4.45371167">
        <ele>515.0</ele>
        <time>2018-05-29T11:17:24.085Z</time>
      </trkpt>
      <trkpt lat="37.40777" lon="-4.45386">
        <ele>514.0</ele>
        <time>2018-05-29T11:17:25.092Z</time>
      </trkpt>
      <trkpt lat="37.40777" lon="-4.45386">
        <ele>514.0</ele>
        <time>2018-05-29T11:17:26.059Z</time>
      </trkpt>
      <trkpt lat="37.40778333" lon="-4.45401333">
        <ele>514.0</ele>
        <time>2018-05-29T11:17:27.095Z</time>
      </trkpt>
      <trkpt lat="37.40778333" lon="-4.45401333">
        <ele>514.0</ele>
        <time>2018-05-29T11:17:28.061Z</time>
      </trkpt>
      <trkpt lat="37.40779833" lon="-4.45416833">
        <ele>514.0</ele>
        <time>2018-05-29T11:17:29.059Z</time>
      </trkpt>
      <trkpt lat="37.40779833" lon="-4.45416833">
        <ele>514.0</ele>
        <time>2018-05-29T11:17:30.064Z</time>
      </trkpt>
      <trkpt lat="37.407815" lon="-4.454325">
        <ele>514.0</ele>
        <time>2018-05-29T11:17:31.069Z</time>
      </trkpt>
      <trkpt lat="37.407815" lon="-4.454325">
        <ele>514.0</ele>
        <time>2018-05-29T11:17:32.075Z</time>
      </trkpt>
      <trkpt lat="37.40782833" lon="-4.45448">
        <ele>514.0</ele>
        <time>2018-05-29T11:17:33.076Z</time>
      </trkpt>
      <trkpt lat="37.40782833" lon="-4.45448">
        <ele>514.0</ele>
        <time>2018-05-29T11:17:34.082Z</time>
      </trkpt>
      <trkpt lat="37.40784" lon="-4.45463333">
        <ele>514.0</ele>
        <time>2018-05-29T11:17:35.083Z</time>
      </trkpt>
      <trkpt lat="37.40784" lon="-4.45463333">
        <ele>514.0</ele>
        <time>2018-05-29T11:17:36.088Z</time>
      </trkpt>
      <trkpt lat="37.40785333" lon="-4.45478667">
        <ele>513.0</ele>
        <time>2018-05-29T11:17:37.075Z</time>
      </trkpt>
      <trkpt lat="37.40785333" lon="-4.45478667">
        <ele>513.0</ele>
        <time>2018-05-29T11:17:38.083Z</time>
      </trkpt>
      <trkpt lat="37.40786167" lon="-4.45493667">
        <ele>513.0</ele>
        <time>2018-05-29T11:17:39.082Z</time>
      </trkpt>
      <trkpt lat="37.40786167" lon="-4.45493667">
        <ele>513.0</ele>
        <time>2018-05-29T11:17:40.088Z</time>
      </trkpt>
      <trkpt lat="37.407875" lon="-4.455085">
        <ele>513.0</ele>
        <time>2018-05-29T11:17:41.081Z</time>
      </trkpt>
      <trkpt lat="37.407875" lon="-4.455085">
        <ele>513.0</ele>
        <time>2018-05-29T11:17:42.086Z</time>
      </trkpt>
      <trkpt lat="37.40789333" lon="-4.45523">
        <ele>513.0</ele>
        <time>2018-05-29T11:17:43.063Z</time>
      </trkpt>
      <trkpt lat="37.40789333" lon="-4.45523">
        <ele>513.0</ele>
        <time>2018-05-29T11:17:44.069Z</time>
      </trkpt>
      <trkpt lat="37.40791667" lon="-4.45537">
        <ele>513.0</ele>
        <time>2018-05-29T11:17:45.089Z</time>
      </trkpt>
      <trkpt lat="37.40791667" lon="-4.45537">
        <ele>513.0</ele>
        <time>2018-05-29T11:17:46.058Z</time>
      </trkpt>
      <trkpt lat="37.40793833" lon="-4.45550833">
        <ele>513.0</ele>
        <time>2018-05-29T11:17:47.062Z</time>
      </trkpt>
      <trkpt lat="37.40793833" lon="-4.45550833">
        <ele>513.0</ele>
        <time>2018-05-29T11:17:48.068Z</time>
      </trkpt>
      <trkpt lat="37.40796167" lon="-4.455645">
        <ele>512.0</ele>
        <time>2018-05-29T11:17:49.059Z</time>
      </trkpt>
      <trkpt lat="37.40796167" lon="-4.455645">
        <ele>512.0</ele>
        <time>2018-05-29T11:17:50.066Z</time>
      </trkpt>
      <trkpt lat="37.407985" lon="-4.45577833">
        <ele>512.0</ele>
        <time>2018-05-29T11:17:51.069Z</time>
      </trkpt>
      <trkpt lat="37.407985" lon="-4.45577833">
        <ele>512.0</ele>
        <time>2018-05-29T11:17:52.083Z</time>
      </trkpt>
      <trkpt lat="37.40801333" lon="-4.45591667">
        <ele>512.0</ele>
        <time>2018-05-29T11:17:53.093Z</time>
      </trkpt>
      <trkpt lat="37.408025" lon="-4.45598833">
        <ele>511.0</ele>
        <time>2018-05-29T11:17:54.081Z</time>
      </trkpt>
      <trkpt lat="37.408025" lon="-4.45598833">
        <ele>511.0</ele>
        <time>2018-05-29T11:17:55.087Z</time>
      </trkpt>
      <trkpt lat="37.40804333" lon="-4.45613333">
        <ele>511.0</ele>
        <time>2018-05-29T11:17:56.089Z</time>
      </trkpt>
      <trkpt lat="37.40804333" lon="-4.45613333">
        <ele>511.0</ele>
        <time>2018-05-29T11:17:57.060Z</time>
      </trkpt>
      <trkpt lat="37.40806667" lon="-4.45626667">
        <ele>511.0</ele>
        <time>2018-05-29T11:17:58.068Z</time>
      </trkpt>
      <trkpt lat="37.40806667" lon="-4.45626667">
        <ele>511.0</ele>
        <time>2018-05-29T11:17:59.074Z</time>
      </trkpt>
      <trkpt lat="37.40809667" lon="-4.45639">
        <ele>511.0</ele>
        <time>2018-05-29T11:18:00.079Z</time>
      </trkpt>
      <trkpt lat="37.40809667" lon="-4.45639">
        <ele>511.0</ele>
        <time>2018-05-29T11:18:01.084Z</time>
      </trkpt>
      <trkpt lat="37.408115" lon="-4.456515">
        <ele>511.0</ele>
        <time>2018-05-29T11:18:02.059Z</time>
      </trkpt>
      <trkpt lat="37.40812" lon="-4.456575">
        <ele>511.0</ele>
        <time>2018-05-29T11:18:03.075Z</time>
      </trkpt>
      <trkpt lat="37.40812" lon="-4.456575">
        <ele>511.0</ele>
        <time>2018-05-29T11:18:04.080Z</time>
      </trkpt>
      <trkpt lat="37.408125" lon="-4.45669167">
        <ele>511.0</ele>
        <time>2018-05-29T11:18:05.093Z</time>
      </trkpt>
      <trkpt lat="37.40812667" lon="-4.45674833">
        <ele>511.0</ele>
        <time>2018-05-29T11:18:06.094Z</time>
      </trkpt>
      <trkpt lat="37.40812667" lon="-4.45674833">
        <ele>511.0</ele>
        <time>2018-05-29T11:18:07.061Z</time>
      </trkpt>
      <trkpt lat="37.40811833" lon="-4.45686333">
        <ele>511.0</ele>
        <time>2018-05-29T11:18:08.086Z</time>
      </trkpt>
      <trkpt lat="37.40811" lon="-4.45692333">
        <ele>511.0</ele>
        <time>2018-05-29T11:18:09.081Z</time>
      </trkpt>
      <trkpt lat="37.40811" lon="-4.45692333">
        <ele>511.0</ele>
        <time>2018-05-29T11:18:10.088Z</time>
      </trkpt>
      <trkpt lat="37.40809667" lon="-4.45704333">
        <ele>511.0</ele>
        <time>2018-05-29T11:18:11.089Z</time>
      </trkpt>
      <trkpt lat="37.40809667" lon="-4.45704333">
        <ele>511.0</ele>
        <time>2018-05-29T11:18:12.057Z</time>
      </trkpt>
      <trkpt lat="37.408085" lon="-4.457165">
        <ele>511.0</ele>
        <time>2018-05-29T11:18:13.085Z</time>
      </trkpt>
      <trkpt lat="37.408085" lon="-4.457165">
        <ele>511.0</ele>
        <time>2018-05-29T11:18:14.092Z</time>
      </trkpt>
      <trkpt lat="37.40807333" lon="-4.45728667">
        <ele>511.0</ele>
        <time>2018-05-29T11:18:15.093Z</time>
      </trkpt>
      <trkpt lat="37.40807333" lon="-4.45728667">
        <ele>511.0</ele>
        <time>2018-05-29T11:18:16.058Z</time>
      </trkpt>
      <trkpt lat="37.40805667" lon="-4.45741">
        <ele>511.0</ele>
        <time>2018-05-29T11:18:17.095Z</time>
      </trkpt>
      <trkpt lat="37.40805667" lon="-4.45741">
        <ele>511.0</ele>
        <time>2018-05-29T11:18:18.061Z</time>
      </trkpt>
      <trkpt lat="37.40804" lon="-4.45753833">
        <ele>511.0</ele>
        <time>2018-05-29T11:18:19.089Z</time>
      </trkpt>
      <trkpt lat="37.40804" lon="-4.45753833">
        <ele>511.0</ele>
        <time>2018-05-29T11:18:20.059Z</time>
      </trkpt>
      <trkpt lat="37.40802167" lon="-4.45767">
        <ele>511.0</ele>
        <time>2018-05-29T11:18:21.059Z</time>
      </trkpt>
      <trkpt lat="37.40802167" lon="-4.45767">
        <ele>511.0</ele>
        <time>2018-05-29T11:18:22.077Z</time>
      </trkpt>
      <trkpt lat="37.408005" lon="-4.4578">
        <ele>511.0</ele>
        <time>2018-05-29T11:18:23.088Z</time>
      </trkpt>
      <trkpt lat="37.408005" lon="-4.4578">
        <ele>511.0</ele>
        <time>2018-05-29T11:18:24.058Z</time>
      </trkpt>
      <trkpt lat="37.40799333" lon="-4.45792833">
        <ele>511.0</ele>
        <time>2018-05-29T11:18:25.059Z</time>
      </trkpt>
      <trkpt lat="37.40799333" lon="-4.45792833">
        <ele>511.0</ele>
        <time>2018-05-29T11:18:26.066Z</time>
      </trkpt>
      <trkpt lat="37.40798667" lon="-4.45805167">
        <ele>511.0</ele>
        <time>2018-05-29T11:18:27.058Z</time>
      </trkpt>
      <trkpt lat="37.40798667" lon="-4.45805167">
        <ele>511.0</ele>
        <time>2018-05-29T11:18:28.064Z</time>
      </trkpt>
      <trkpt lat="37.40797667" lon="-4.458175">
        <ele>511.0</ele>
        <time>2018-05-29T11:18:29.069Z</time>
      </trkpt>
      <trkpt lat="37.40797667" lon="-4.458175">
        <ele>511.0</ele>
        <time>2018-05-29T11:18:30.075Z</time>
      </trkpt>
      <trkpt lat="37.40796667" lon="-4.45829833">
        <ele>511.0</ele>
        <time>2018-05-29T11:18:31.079Z</time>
      </trkpt>
      <trkpt lat="37.40796667" lon="-4.45829833">
        <ele>511.0</ele>
        <time>2018-05-29T11:18:32.085Z</time>
      </trkpt>
      <trkpt lat="37.40796333" lon="-4.45842167">
        <ele>511.0</ele>
        <time>2018-05-29T11:18:33.069Z</time>
      </trkpt>
      <trkpt lat="37.40796333" lon="-4.45842167">
        <ele>511.0</ele>
        <time>2018-05-29T11:18:34.076Z</time>
      </trkpt>
      <trkpt lat="37.40796" lon="-4.45854167">
        <ele>511.0</ele>
        <time>2018-05-29T11:18:35.079Z</time>
      </trkpt>
      <trkpt lat="37.40796" lon="-4.45854167">
        <ele>511.0</ele>
        <time>2018-05-29T11:18:36.084Z</time>
      </trkpt>
      <trkpt lat="37.407955" lon="-4.45866">
        <ele>511.0</ele>
        <time>2018-05-29T11:18:37.077Z</time>
      </trkpt>
      <trkpt lat="37.407955" lon="-4.45866">
        <ele>511.0</ele>
        <time>2018-05-29T11:18:38.083Z</time>
      </trkpt>
      <trkpt lat="37.40794333" lon="-4.458775">
        <ele>511.0</ele>
        <time>2018-05-29T11:18:39.095Z</time>
      </trkpt>
      <trkpt lat="37.40794333" lon="-4.458775">
        <ele>511.0</ele>
        <time>2018-05-29T11:18:40.061Z</time>
      </trkpt>
      <trkpt lat="37.40793167" lon="-4.45889">
        <ele>511.0</ele>
        <time>2018-05-29T11:18:41.061Z</time>
      </trkpt>
      <trkpt lat="37.40792833" lon="-4.45894833">
        <ele>512.0</ele>
        <time>2018-05-29T11:18:42.069Z</time>
      </trkpt>
      <trkpt lat="37.40792167" lon="-4.459005">
        <ele>512.0</ele>
        <time>2018-05-29T11:18:43.069Z</time>
      </trkpt>
      <trkpt lat="37.40792167" lon="-4.459005">
        <ele>512.0</ele>
        <time>2018-05-29T11:18:44.074Z</time>
      </trkpt>
      <trkpt lat="37.407905" lon="-4.459115">
        <ele>512.0</ele>
        <time>2018-05-29T11:18:45.069Z</time>
      </trkpt>
      <trkpt lat="37.407905" lon="-4.459115">
        <ele>512.0</ele>
        <time>2018-05-29T11:18:46.075Z</time>
      </trkpt>
      <trkpt lat="37.40789" lon="-4.45922333">
        <ele>512.0</ele>
        <time>2018-05-29T11:18:47.075Z</time>
      </trkpt>
      <trkpt lat="37.40789" lon="-4.45922333">
        <ele>512.0</ele>
        <time>2018-05-29T11:18:48.080Z</time>
      </trkpt>
      <trkpt lat="37.40787167" lon="-4.45932667">
        <ele>513.0</ele>
        <time>2018-05-29T11:18:49.079Z</time>
      </trkpt>
      <trkpt lat="37.40787167" lon="-4.45932667">
        <ele>513.0</ele>
        <time>2018-05-29T11:18:50.085Z</time>
      </trkpt>
      <trkpt lat="37.40785" lon="-4.45942833">
        <ele>513.0</ele>
        <time>2018-05-29T11:18:51.059Z</time>
      </trkpt>
      <trkpt lat="37.40785" lon="-4.45942833">
        <ele>513.0</ele>
        <time>2018-05-29T11:18:52.066Z</time>
      </trkpt>
      <trkpt lat="37.40783167" lon="-4.459525">
        <ele>513.0</ele>
        <time>2018-05-29T11:18:53.079Z</time>
      </trkpt>
      <trkpt lat="37.40782333" lon="-4.45957167">
        <ele>514.0</ele>
        <time>2018-05-29T11:18:54.079Z</time>
      </trkpt>
      <trkpt lat="37.40781667" lon="-4.45961833">
        <ele>514.0</ele>
        <time>2018-05-29T11:18:55.071Z</time>
      </trkpt>
      <trkpt lat="37.40781667" lon="-4.45961833">
        <ele>514.0</ele>
        <time>2018-05-29T11:18:56.077Z</time>
      </trkpt>
      <trkpt lat="37.40780833" lon="-4.459715">
        <ele>514.0</ele>
        <time>2018-05-29T11:18:57.079Z</time>
      </trkpt>
      <trkpt lat="37.40780833" lon="-4.459715">
        <ele>514.0</ele>
        <time>2018-05-29T11:18:58.085Z</time>
      </trkpt>
      <trkpt lat="37.4078" lon="-4.459815">
        <ele>514.0</ele>
        <time>2018-05-29T11:18:59.089Z</time>
      </trkpt>
      <trkpt lat="37.4078" lon="-4.459815">
        <ele>514.0</ele>
        <time>2018-05-29T11:19:00.060Z</time>
      </trkpt>
      <trkpt lat="37.40779" lon="-4.45992">
        <ele>514.0</ele>
        <time>2018-05-29T11:19:01.094Z</time>
      </trkpt>
      <trkpt lat="37.40778333" lon="-4.45997333">
        <ele>515.0</ele>
        <time>2018-05-29T11:19:02.094Z</time>
      </trkpt>
      <trkpt lat="37.40778333" lon="-4.45997333">
        <ele>515.0</ele>
        <time>2018-05-29T11:19:03.060Z</time>
      </trkpt>
      <trkpt lat="37.40776667" lon="-4.460085">
        <ele>515.0</ele>
        <time>2018-05-29T11:19:04.062Z</time>
      </trkpt>
      <trkpt lat="37.40776667" lon="-4.460085">
        <ele>515.0</ele>
        <time>2018-05-29T11:19:05.068Z</time>
      </trkpt>
      <trkpt lat="37.40775333" lon="-4.4602">
        <ele>515.0</ele>
        <time>2018-05-29T11:19:06.062Z</time>
      </trkpt>
      <trkpt lat="37.40775333" lon="-4.4602">
        <ele>515.0</ele>
        <time>2018-05-29T11:19:07.067Z</time>
      </trkpt>
      <trkpt lat="37.40773667" lon="-4.46031333">
        <ele>516.0</ele>
        <time>2018-05-29T11:19:08.089Z</time>
      </trkpt>
      <trkpt lat="37.40772833" lon="-4.46036667">
        <ele>516.0</ele>
        <time>2018-05-29T11:19:09.086Z</time>
      </trkpt>
      <trkpt lat="37.40772833" lon="-4.46036667">
        <ele>516.0</ele>
        <time>2018-05-29T11:19:10.061Z</time>
      </trkpt>
      <trkpt lat="37.407715" lon="-4.46046667">
        <ele>517.0</ele>
        <time>2018-05-29T11:19:11.065Z</time>
      </trkpt>
      <trkpt lat="37.40771" lon="-4.460515">
        <ele>517.0</ele>
        <time>2018-05-29T11:19:12.068Z</time>
      </trkpt>
      <trkpt lat="37.407705" lon="-4.46056333">
        <ele>517.0</ele>
        <time>2018-05-29T11:19:13.061Z</time>
      </trkpt>
      <trkpt lat="37.407705" lon="-4.46056333">
        <ele>517.0</ele>
        <time>2018-05-29T11:19:14.068Z</time>
      </trkpt>
      <trkpt lat="37.40769" lon="-4.46066167">
        <ele>517.0</ele>
        <time>2018-05-29T11:19:15.072Z</time>
      </trkpt>
      <trkpt lat="37.40769" lon="-4.46066167">
        <ele>517.0</ele>
        <time>2018-05-29T11:19:16.078Z</time>
      </trkpt>
      <trkpt lat="37.40768" lon="-4.46076167">
        <ele>518.0</ele>
        <time>2018-05-29T11:19:17.089Z</time>
      </trkpt>
      <trkpt lat="37.40768" lon="-4.46076167">
        <ele>518.0</ele>
        <time>2018-05-29T11:19:18.057Z</time>
      </trkpt>
      <trkpt lat="37.40767333" lon="-4.46085667">
        <ele>519.0</ele>
        <time>2018-05-29T11:19:19.059Z</time>
      </trkpt>
      <trkpt lat="37.40767167" lon="-4.46089667">
        <ele>519.0</ele>
        <time>2018-05-29T11:19:20.075Z</time>
      </trkpt>
      <trkpt lat="37.40767167" lon="-4.46089667">
        <ele>519.0</ele>
        <time>2018-05-29T11:19:21.080Z</time>
      </trkpt>
      <trkpt lat="37.40767" lon="-4.46097">
        <ele>519.0</ele>
        <time>2018-05-29T11:19:22.088Z</time>
      </trkpt>
      <trkpt lat="37.40767" lon="-4.46097">
        <ele>519.0</ele>
        <time>2018-05-29T11:19:23.058Z</time>
      </trkpt>
      <trkpt lat="37.40767167" lon="-4.46104333">
        <ele>519.0</ele>
        <time>2018-05-29T11:19:24.079Z</time>
      </trkpt>
      <trkpt lat="37.40767167" lon="-4.46104333">
        <ele>519.0</ele>
        <time>2018-05-29T11:19:25.085Z</time>
      </trkpt>
      <trkpt lat="37.407675" lon="-4.46112667">
        <ele>519.0</ele>
        <time>2018-05-29T11:19:26.087Z</time>
      </trkpt>
      <trkpt lat="37.407675" lon="-4.46112667">
        <ele>519.0</ele>
        <time>2018-05-29T11:19:27.094Z</time>
      </trkpt>
      <trkpt lat="37.407685" lon="-4.46122833">
        <ele>519.0</ele>
        <time>2018-05-29T11:19:28.059Z</time>
      </trkpt>
      <trkpt lat="37.407685" lon="-4.46122833">
        <ele>519.0</ele>
        <time>2018-05-29T11:19:29.064Z</time>
      </trkpt>
      <trkpt lat="37.40769833" lon="-4.461355">
        <ele>518.0</ele>
        <time>2018-05-29T11:19:30.085Z</time>
      </trkpt>
      <trkpt lat="37.40769833" lon="-4.461355">
        <ele>518.0</ele>
        <time>2018-05-29T11:19:31.093Z</time>
      </trkpt>
      <trkpt lat="37.40771167" lon="-4.46150333">
        <ele>517.0</ele>
        <time>2018-05-29T11:19:32.059Z</time>
      </trkpt>
      <trkpt lat="37.40772167" lon="-4.46158333">
        <ele>516.0</ele>
        <time>2018-05-29T11:19:33.086Z</time>
      </trkpt>
      <trkpt lat="37.40772167" lon="-4.46158333">
        <ele>516.0</ele>
        <time>2018-05-29T11:19:34.092Z</time>
      </trkpt>
      <trkpt lat="37.40775" lon="-4.46175667">
        <ele>515.0</ele>
        <time>2018-05-29T11:19:35.089Z</time>
      </trkpt>
      <trkpt lat="37.40775" lon="-4.46175667">
        <ele>515.0</ele>
        <time>2018-05-29T11:19:36.056Z</time>
      </trkpt>
      <trkpt lat="37.40777333" lon="-4.46194">
        <ele>515.0</ele>
        <time>2018-05-29T11:19:37.069Z</time>
      </trkpt>
      <trkpt lat="37.40777333" lon="-4.46194">
        <ele>515.0</ele>
        <time>2018-05-29T11:19:38.091Z</time>
      </trkpt>
      <trkpt lat="37.40778333" lon="-4.46212333">
        <ele>514.0</ele>
        <time>2018-05-29T11:19:39.069Z</time>
      </trkpt>
      <trkpt lat="37.40778333" lon="-4.46212333">
        <ele>514.0</ele>
        <time>2018-05-29T11:19:40.075Z</time>
      </trkpt>
      <trkpt lat="37.40778167" lon="-4.46230667">
        <ele>513.0</ele>
        <time>2018-05-29T11:19:41.061Z</time>
      </trkpt>
      <trkpt lat="37.40777667" lon="-4.46240167">
        <ele>513.0</ele>
        <time>2018-05-29T11:19:42.069Z</time>
      </trkpt>
      <trkpt lat="37.40777667" lon="-4.46240167">
        <ele>513.0</ele>
        <time>2018-05-29T11:19:43.074Z</time>
      </trkpt>
      <trkpt lat="37.40777" lon="-4.46259167">
        <ele>513.0</ele>
        <time>2018-05-29T11:19:44.059Z</time>
      </trkpt>
      <trkpt lat="37.40777167" lon="-4.46268833">
        <ele>512.0</ele>
        <time>2018-05-29T11:19:45.066Z</time>
      </trkpt>
      <trkpt lat="37.40777333" lon="-4.46278667">
        <ele>512.0</ele>
        <time>2018-05-29T11:19:46.069Z</time>
      </trkpt>
      <trkpt lat="37.40777333" lon="-4.46278667">
        <ele>512.0</ele>
        <time>2018-05-29T11:19:47.075Z</time>
      </trkpt>
      <trkpt lat="37.40777333" lon="-4.46299">
        <ele>511.0</ele>
        <time>2018-05-29T11:19:48.079Z</time>
      </trkpt>
      <trkpt lat="37.40777333" lon="-4.46299">
        <ele>511.0</ele>
        <time>2018-05-29T11:19:49.093Z</time>
      </trkpt>
      <trkpt lat="37.40777" lon="-4.4632">
        <ele>510.0</ele>
        <time>2018-05-29T11:19:50.066Z</time>
      </trkpt>
      <trkpt lat="37.40776833" lon="-4.463305">
        <ele>510.0</ele>
        <time>2018-05-29T11:19:51.065Z</time>
      </trkpt>
      <trkpt lat="37.40776833" lon="-4.463305">
        <ele>510.0</ele>
        <time>2018-05-29T11:19:52.071Z</time>
      </trkpt>
      <trkpt lat="37.40776333" lon="-4.46351667">
        <ele>509.0</ele>
        <time>2018-05-29T11:19:53.089Z</time>
      </trkpt>
      <trkpt lat="37.40776" lon="-4.46362333">
        <ele>508.0</ele>
        <time>2018-05-29T11:19:54.059Z</time>
      </trkpt>
      <trkpt lat="37.40776" lon="-4.46362333">
        <ele>508.0</ele>
        <time>2018-05-29T11:19:55.066Z</time>
      </trkpt>
      <trkpt lat="37.40773333" lon="-4.46383333">
        <ele>508.0</ele>
        <time>2018-05-29T11:19:56.059Z</time>
      </trkpt>
      <trkpt lat="37.40771333" lon="-4.46393667">
        <ele>507.0</ele>
        <time>2018-05-29T11:19:57.059Z</time>
      </trkpt>
      <trkpt lat="37.40771333" lon="-4.46393667">
        <ele>507.0</ele>
        <time>2018-05-29T11:19:58.066Z</time>
      </trkpt>
      <trkpt lat="37.40766" lon="-4.46414333">
        <ele>506.0</ele>
        <time>2018-05-29T11:19:59.067Z</time>
      </trkpt>
      <trkpt lat="37.40766" lon="-4.46414333">
        <ele>506.0</ele>
        <time>2018-05-29T11:20:00.073Z</time>
      </trkpt>
      <trkpt lat="37.40760167" lon="-4.46434">
        <ele>505.0</ele>
        <time>2018-05-29T11:20:01.093Z</time>
      </trkpt>
      <trkpt lat="37.407575" lon="-4.46443">
        <ele>504.0</ele>
        <time>2018-05-29T11:20:02.088Z</time>
      </trkpt>
      <trkpt lat="37.407575" lon="-4.46443">
        <ele>504.0</ele>
        <time>2018-05-29T11:20:03.096Z</time>
      </trkpt>
      <trkpt lat="37.40753833" lon="-4.46458">
        <ele>503.0</ele>
        <time>2018-05-29T11:20:04.078Z</time>
      </trkpt>
      <trkpt lat="37.40753833" lon="-4.46458">
        <ele>503.0</ele>
        <time>2018-05-29T11:20:05.084Z</time>
      </trkpt>
      <trkpt lat="37.40755167" lon="-4.46470333">
        <ele>502.0</ele>
        <time>2018-05-29T11:20:06.088Z</time>
      </trkpt>
      <trkpt lat="37.40755167" lon="-4.46470333">
        <ele>502.0</ele>
        <time>2018-05-29T11:20:07.095Z</time>
      </trkpt>
      <trkpt lat="37.40757167" lon="-4.46480333">
        <ele>502.0</ele>
        <time>2018-05-29T11:20:08.079Z</time>
      </trkpt>
      <trkpt lat="37.40757667" lon="-4.46485833">
        <ele>502.0</ele>
        <time>2018-05-29T11:20:09.083Z</time>
      </trkpt>
      <trkpt lat="37.40757667" lon="-4.46485833">
        <ele>502.0</ele>
        <time>2018-05-29T11:20:10.090Z</time>
      </trkpt>
      <trkpt lat="37.40756833" lon="-4.46498333">
        <ele>502.0</ele>
        <time>2018-05-29T11:20:11.059Z</time>
      </trkpt>
      <trkpt lat="37.40756833" lon="-4.46498333">
        <ele>502.0</ele>
        <time>2018-05-29T11:20:12.066Z</time>
      </trkpt>
      <trkpt lat="37.407535" lon="-4.46512333">
        <ele>501.0</ele>
        <time>2018-05-29T11:20:13.058Z</time>
      </trkpt>
      <trkpt lat="37.407515" lon="-4.46519833">
        <ele>501.0</ele>
        <time>2018-05-29T11:20:14.063Z</time>
      </trkpt>
      <trkpt lat="37.407495" lon="-4.46527667">
        <ele>500.0</ele>
        <time>2018-05-29T11:20:15.093Z</time>
      </trkpt>
      <trkpt lat="37.407495" lon="-4.46527667">
        <ele>500.0</ele>
        <time>2018-05-29T11:20:16.062Z</time>
      </trkpt>
      <trkpt lat="37.40746" lon="-4.46544167">
        <ele>500.0</ele>
        <time>2018-05-29T11:20:17.058Z</time>
      </trkpt>
      <trkpt lat="37.40744333" lon="-4.46552833">
        <ele>499.0</ele>
        <time>2018-05-29T11:20:18.068Z</time>
      </trkpt>
      <trkpt lat="37.40744333" lon="-4.46552833">
        <ele>499.0</ele>
        <time>2018-05-29T11:20:19.075Z</time>
      </trkpt>
      <trkpt lat="37.40741333" lon="-4.465705">
        <ele>499.0</ele>
        <time>2018-05-29T11:20:20.076Z</time>
      </trkpt>
      <trkpt lat="37.4074" lon="-4.465795">
        <ele>499.0</ele>
        <time>2018-05-29T11:20:21.082Z</time>
      </trkpt>
      <trkpt lat="37.4074" lon="-4.465795">
        <ele>499.0</ele>
        <time>2018-05-29T11:20:22.089Z</time>
      </trkpt>
      <trkpt lat="37.40737167" lon="-4.46597333">
        <ele>498.0</ele>
        <time>2018-05-29T11:20:23.060Z</time>
      </trkpt>
      <trkpt lat="37.40735833" lon="-4.46606333">
        <ele>498.0</ele>
        <time>2018-05-29T11:20:24.069Z</time>
      </trkpt>
      <trkpt lat="37.40735833" lon="-4.46606333">
        <ele>498.0</ele>
        <time>2018-05-29T11:20:25.075Z</time>
      </trkpt>
      <trkpt lat="37.40733" lon="-4.46624">
        <ele>498.0</ele>
        <time>2018-05-29T11:20:26.082Z</time>
      </trkpt>
      <trkpt lat="37.407315" lon="-4.46632667">
        <ele>498.0</ele>
        <time>2018-05-29T11:20:27.072Z</time>
      </trkpt>
      <trkpt lat="37.4073" lon="-4.46641167">
        <ele>497.0</ele>
        <time>2018-05-29T11:20:28.089Z</time>
      </trkpt>
      <trkpt lat="37.4073" lon="-4.46641167">
        <ele>497.0</ele>
        <time>2018-05-29T11:20:29.095Z</time>
      </trkpt>
      <trkpt lat="37.40726833" lon="-4.46657833">
        <ele>497.0</ele>
        <time>2018-05-29T11:20:30.090Z</time>
      </trkpt>
      <trkpt lat="37.407255" lon="-4.46665833">
        <ele>497.0</ele>
        <time>2018-05-29T11:20:31.079Z</time>
      </trkpt>
      <trkpt lat="37.407255" lon="-4.46665833">
        <ele>497.0</ele>
        <time>2018-05-29T11:20:32.085Z</time>
      </trkpt>
      <trkpt lat="37.40722833" lon="-4.466815">
        <ele>497.0</ele>
        <time>2018-05-29T11:20:33.086Z</time>
      </trkpt>
      <trkpt lat="37.40721333" lon="-4.46688833">
        <ele>497.0</ele>
        <time>2018-05-29T11:20:34.061Z</time>
      </trkpt>
      <trkpt lat="37.40721333" lon="-4.46688833">
        <ele>497.0</ele>
        <time>2018-05-29T11:20:35.066Z</time>
      </trkpt>
      <trkpt lat="37.40717167" lon="-4.46702333">
        <ele>497.0</ele>
        <time>2018-05-29T11:20:36.085Z</time>
      </trkpt>
      <trkpt lat="37.407145" lon="-4.46708167">
        <ele>497.0</ele>
        <time>2018-05-29T11:20:37.072Z</time>
      </trkpt>
      <trkpt lat="37.407145" lon="-4.46708167">
        <ele>497.0</ele>
        <time>2018-05-29T11:20:38.079Z</time>
      </trkpt>
      <trkpt lat="37.40709667" lon="-4.467205">
        <ele>497.0</ele>
        <time>2018-05-29T11:20:39.069Z</time>
      </trkpt>
      <trkpt lat="37.40709667" lon="-4.467205">
        <ele>497.0</ele>
        <time>2018-05-29T11:20:40.074Z</time>
      </trkpt>
      <trkpt lat="37.40707833" lon="-4.46733667">
        <ele>497.0</ele>
        <time>2018-05-29T11:20:41.090Z</time>
      </trkpt>
      <trkpt lat="37.40707333" lon="-4.46740667">
        <ele>497.0</ele>
        <time>2018-05-29T11:20:42.078Z</time>
      </trkpt>
      <trkpt lat="37.40707333" lon="-4.46740667">
        <ele>497.0</ele>
        <time>2018-05-29T11:20:43.085Z</time>
      </trkpt>
      <trkpt lat="37.40708333" lon="-4.467545">
        <ele>496.0</ele>
        <time>2018-05-29T11:20:44.084Z</time>
      </trkpt>
      <trkpt lat="37.407105" lon="-4.46761333">
        <ele>496.0</ele>
        <time>2018-05-29T11:20:45.095Z</time>
      </trkpt>
      <trkpt lat="37.407105" lon="-4.46761333">
        <ele>496.0</ele>
        <time>2018-05-29T11:20:46.062Z</time>
      </trkpt>
      <trkpt lat="37.40717333" lon="-4.46775">
        <ele>495.0</ele>
        <time>2018-05-29T11:20:47.061Z</time>
      </trkpt>
      <trkpt lat="37.40717333" lon="-4.46775">
        <ele>495.0</ele>
        <time>2018-05-29T11:20:48.067Z</time>
      </trkpt>
      <trkpt lat="37.40725167" lon="-4.4679">
        <ele>494.0</ele>
        <time>2018-05-29T11:20:49.089Z</time>
      </trkpt>
      <trkpt lat="37.40725167" lon="-4.4679">
        <ele>494.0</ele>
        <time>2018-05-29T11:20:50.060Z</time>
      </trkpt>
      <trkpt lat="37.407325" lon="-4.46807167">
        <ele>493.0</ele>
        <time>2018-05-29T11:20:51.072Z</time>
      </trkpt>
      <trkpt lat="37.407325" lon="-4.46807167">
        <ele>493.0</ele>
        <time>2018-05-29T11:20:52.078Z</time>
      </trkpt>
      <trkpt lat="37.40738" lon="-4.468255">
        <ele>493.0</ele>
        <time>2018-05-29T11:20:53.069Z</time>
      </trkpt>
      <trkpt lat="37.40740333" lon="-4.46835">
        <ele>493.0</ele>
        <time>2018-05-29T11:20:54.059Z</time>
      </trkpt>
      <trkpt lat="37.40742333" lon="-4.46844167">
        <ele>492.0</ele>
        <time>2018-05-29T11:20:55.069Z</time>
      </trkpt>
      <trkpt lat="37.40742333" lon="-4.46844167">
        <ele>492.0</ele>
        <time>2018-05-29T11:20:56.075Z</time>
      </trkpt>
      <trkpt lat="37.40745833" lon="-4.46862">
        <ele>492.0</ele>
        <time>2018-05-29T11:20:57.089Z</time>
      </trkpt>
      <trkpt lat="37.40745833" lon="-4.46862">
        <ele>492.0</ele>
        <time>2018-05-29T11:20:58.063Z</time>
      </trkpt>
      <trkpt lat="37.407485" lon="-4.46879333">
        <ele>492.0</ele>
        <time>2018-05-29T11:20:59.066Z</time>
      </trkpt>
      <trkpt lat="37.407485" lon="-4.46879333">
        <ele>492.0</ele>
        <time>2018-05-29T11:21:00.072Z</time>
      </trkpt>
      <trkpt lat="37.40751167" lon="-4.468965">
        <ele>492.0</ele>
        <time>2018-05-29T11:21:01.088Z</time>
      </trkpt>
      <trkpt lat="37.40752333" lon="-4.46904833">
        <ele>491.0</ele>
        <time>2018-05-29T11:21:02.059Z</time>
      </trkpt>
      <trkpt lat="37.40752333" lon="-4.46904833">
        <ele>491.0</ele>
        <time>2018-05-29T11:21:03.066Z</time>
      </trkpt>
      <trkpt lat="37.407545" lon="-4.46921333">
        <ele>491.0</ele>
        <time>2018-05-29T11:21:04.067Z</time>
      </trkpt>
      <trkpt lat="37.407545" lon="-4.46921333">
        <ele>491.0</ele>
        <time>2018-05-29T11:21:05.073Z</time>
      </trkpt>
      <trkpt lat="37.40755667" lon="-4.46937667">
        <ele>491.0</ele>
        <time>2018-05-29T11:21:06.059Z</time>
      </trkpt>
      <trkpt lat="37.40756333" lon="-4.46945833">
        <ele>491.0</ele>
        <time>2018-05-29T11:21:07.085Z</time>
      </trkpt>
      <trkpt lat="37.40756333" lon="-4.46945833">
        <ele>491.0</ele>
        <time>2018-05-29T11:21:08.090Z</time>
      </trkpt>
      <trkpt lat="37.40757333" lon="-4.46961333">
        <ele>491.0</ele>
        <time>2018-05-29T11:21:09.084Z</time>
      </trkpt>
      <trkpt lat="37.40757333" lon="-4.46961333">
        <ele>491.0</ele>
        <time>2018-05-29T11:21:10.091Z</time>
      </trkpt>
      <trkpt lat="37.407575" lon="-4.46977">
        <ele>490.0</ele>
        <time>2018-05-29T11:21:11.082Z</time>
      </trkpt>
      <trkpt lat="37.407575" lon="-4.46977">
        <ele>490.0</ele>
        <time>2018-05-29T11:21:12.095Z</time>
      </trkpt>
      <trkpt lat="37.40757667" lon="-4.46992333">
        <ele>490.0</ele>
        <time>2018-05-29T11:21:13.093Z</time>
      </trkpt>
      <trkpt lat="37.40757667" lon="-4.46992333">
        <ele>490.0</ele>
        <time>2018-05-29T11:21:14.060Z</time>
      </trkpt>
      <trkpt lat="37.40757833" lon="-4.47007333">
        <ele>490.0</ele>
        <time>2018-05-29T11:21:15.069Z</time>
      </trkpt>
      <trkpt lat="37.40757833" lon="-4.47007333">
        <ele>490.0</ele>
        <time>2018-05-29T11:21:16.075Z</time>
      </trkpt>
      <trkpt lat="37.40757167" lon="-4.47022333">
        <ele>490.0</ele>
        <time>2018-05-29T11:21:17.089Z</time>
      </trkpt>
      <trkpt lat="37.40756833" lon="-4.47029833">
        <ele>490.0</ele>
        <time>2018-05-29T11:21:18.058Z</time>
      </trkpt>
      <trkpt lat="37.40756833" lon="-4.47029833">
        <ele>490.0</ele>
        <time>2018-05-29T11:21:19.069Z</time>
      </trkpt>
      <trkpt lat="37.40755833" lon="-4.47045167">
        <ele>490.0</ele>
        <time>2018-05-29T11:21:20.090Z</time>
      </trkpt>
      <trkpt lat="37.40755333" lon="-4.47052833">
        <ele>489.0</ele>
        <time>2018-05-29T11:21:21.082Z</time>
      </trkpt>
      <trkpt lat="37.40755333" lon="-4.47052833">
        <ele>489.0</ele>
        <time>2018-05-29T11:21:22.088Z</time>
      </trkpt>
      <trkpt lat="37.40754333" lon="-4.47068167">
        <ele>489.0</ele>
        <time>2018-05-29T11:21:23.081Z</time>
      </trkpt>
      <trkpt lat="37.40753833" lon="-4.47075667">
        <ele>489.0</ele>
        <time>2018-05-29T11:21:24.080Z</time>
      </trkpt>
      <trkpt lat="37.40753833" lon="-4.47075667">
        <ele>489.0</ele>
        <time>2018-05-29T11:21:25.085Z</time>
      </trkpt>
      <trkpt lat="37.40753333" lon="-4.47090667">
        <ele>489.0</ele>
        <time>2018-05-29T11:21:26.076Z</time>
      </trkpt>
      <trkpt lat="37.40752667" lon="-4.47097833">
        <ele>489.0</ele>
        <time>2018-05-29T11:21:27.068Z</time>
      </trkpt>
      <trkpt lat="37.40752667" lon="-4.47097833">
        <ele>489.0</ele>
        <time>2018-05-29T11:21:28.073Z</time>
      </trkpt>
      <trkpt lat="37.40751167" lon="-4.47111833">
        <ele>489.0</ele>
        <time>2018-05-29T11:21:29.075Z</time>
      </trkpt>
      <trkpt lat="37.40750667" lon="-4.47118833">
        <ele>489.0</ele>
        <time>2018-05-29T11:21:30.056Z</time>
      </trkpt>
      <trkpt lat="37.40750667" lon="-4.47118833">
        <ele>489.0</ele>
        <time>2018-05-29T11:21:31.061Z</time>
      </trkpt>
      <trkpt lat="37.40749333" lon="-4.47133">
        <ele>489.0</ele>
        <time>2018-05-29T11:21:32.076Z</time>
      </trkpt>
      <trkpt lat="37.40748667" lon="-4.47140167">
        <ele>489.0</ele>
        <time>2018-05-29T11:21:33.079Z</time>
      </trkpt>
      <trkpt lat="37.40748667" lon="-4.47140167">
        <ele>489.0</ele>
        <time>2018-05-29T11:21:34.085Z</time>
      </trkpt>
      <trkpt lat="37.40747" lon="-4.47154333">
        <ele>489.0</ele>
        <time>2018-05-29T11:21:35.057Z</time>
      </trkpt>
      <trkpt lat="37.40746333" lon="-4.47161167">
        <ele>489.0</ele>
        <time>2018-05-29T11:21:36.073Z</time>
      </trkpt>
      <trkpt lat="37.40746333" lon="-4.47161167">
        <ele>489.0</ele>
        <time>2018-05-29T11:21:37.079Z</time>
      </trkpt>
      <trkpt lat="37.40744833" lon="-4.47174833">
        <ele>489.0</ele>
        <time>2018-05-29T11:21:38.069Z</time>
      </trkpt>
      <trkpt lat="37.40744167" lon="-4.471815">
        <ele>489.0</ele>
        <time>2018-05-29T11:21:39.084Z</time>
      </trkpt>
      <trkpt lat="37.40744167" lon="-4.471815">
        <ele>489.0</ele>
        <time>2018-05-29T11:21:40.090Z</time>
      </trkpt>
      <trkpt lat="37.40743" lon="-4.47194833">
        <ele>490.0</ele>
        <time>2018-05-29T11:21:41.058Z</time>
      </trkpt>
      <trkpt lat="37.40742667" lon="-4.47201333">
        <ele>490.0</ele>
        <time>2018-05-29T11:21:42.088Z</time>
      </trkpt>
      <trkpt lat="37.40742667" lon="-4.47201333">
        <ele>490.0</ele>
        <time>2018-05-29T11:21:43.059Z</time>
      </trkpt>
      <trkpt lat="37.40742667" lon="-4.47214167">
        <ele>490.0</ele>
        <time>2018-05-29T11:21:44.058Z</time>
      </trkpt>
      <trkpt lat="37.40742667" lon="-4.47220333">
        <ele>489.0</ele>
        <time>2018-05-29T11:21:45.059Z</time>
      </trkpt>
      <trkpt lat="37.40742667" lon="-4.47220333">
        <ele>489.0</ele>
        <time>2018-05-29T11:21:46.065Z</time>
      </trkpt>
      <trkpt lat="37.40743167" lon="-4.47232667">
        <ele>490.0</ele>
        <time>2018-05-29T11:21:47.077Z</time>
      </trkpt>
      <trkpt lat="37.40743167" lon="-4.47232667">
        <ele>490.0</ele>
        <time>2018-05-29T11:21:48.083Z</time>
      </trkpt>
      <trkpt lat="37.407435" lon="-4.47244333">
        <ele>489.0</ele>
        <time>2018-05-29T11:21:49.071Z</time>
      </trkpt>
      <trkpt lat="37.407435" lon="-4.47244333">
        <ele>489.0</ele>
        <time>2018-05-29T11:21:50.078Z</time>
      </trkpt>
      <trkpt lat="37.40744167" lon="-4.47255833">
        <ele>490.0</ele>
        <time>2018-05-29T11:21:51.089Z</time>
      </trkpt>
      <trkpt lat="37.40744167" lon="-4.47255833">
        <ele>490.0</ele>
        <time>2018-05-29T11:21:52.058Z</time>
      </trkpt>
      <trkpt lat="37.407445" lon="-4.47267167">
        <ele>490.0</ele>
        <time>2018-05-29T11:21:53.087Z</time>
      </trkpt>
      <trkpt lat="37.407445" lon="-4.47267167">
        <ele>490.0</ele>
        <time>2018-05-29T11:21:54.092Z</time>
      </trkpt>
      <trkpt lat="37.40745" lon="-4.472785">
        <ele>490.0</ele>
        <time>2018-05-29T11:21:55.086Z</time>
      </trkpt>
      <trkpt lat="37.40745" lon="-4.472785">
        <ele>490.0</ele>
        <time>2018-05-29T11:21:56.060Z</time>
      </trkpt>
      <trkpt lat="37.40745167" lon="-4.472895">
        <ele>489.0</ele>
        <time>2018-05-29T11:21:57.070Z</time>
      </trkpt>
      <trkpt lat="37.40745167" lon="-4.472895">
        <ele>489.0</ele>
        <time>2018-05-29T11:21:58.077Z</time>
      </trkpt>
      <trkpt lat="37.407455" lon="-4.47300667">
        <ele>490.0</ele>
        <time>2018-05-29T11:21:59.081Z</time>
      </trkpt>
      <trkpt lat="37.407455" lon="-4.47300667">
        <ele>490.0</ele>
        <time>2018-05-29T11:22:00.086Z</time>
      </trkpt>
      <trkpt lat="37.40745667" lon="-4.47311833">
        <ele>489.0</ele>
        <time>2018-05-29T11:22:01.069Z</time>
      </trkpt>
      <trkpt lat="37.40746" lon="-4.473175">
        <ele>489.0</ele>
        <time>2018-05-29T11:22:02.079Z</time>
      </trkpt>
      <trkpt lat="37.40746333" lon="-4.47323167">
        <ele>489.0</ele>
        <time>2018-05-29T11:22:03.069Z</time>
      </trkpt>
      <trkpt lat="37.40746333" lon="-4.47323167">
        <ele>489.0</ele>
        <time>2018-05-29T11:22:04.074Z</time>
      </trkpt>
      <trkpt lat="37.40746833" lon="-4.47334667">
        <ele>489.0</ele>
        <time>2018-05-29T11:22:05.075Z</time>
      </trkpt>
      <trkpt lat="37.40746833" lon="-4.47334667">
        <ele>489.0</ele>
        <time>2018-05-29T11:22:06.081Z</time>
      </trkpt>
      <trkpt lat="37.40747167" lon="-4.47346167">
        <ele>489.0</ele>
        <time>2018-05-29T11:22:07.075Z</time>
      </trkpt>
      <trkpt lat="37.40747167" lon="-4.47346167">
        <ele>489.0</ele>
        <time>2018-05-29T11:22:08.080Z</time>
      </trkpt>
      <trkpt lat="37.40747167" lon="-4.47358167">
        <ele>489.0</ele>
        <time>2018-05-29T11:22:09.078Z</time>
      </trkpt>
      <trkpt lat="37.40747167" lon="-4.47358167">
        <ele>489.0</ele>
        <time>2018-05-29T11:22:10.084Z</time>
      </trkpt>
      <trkpt lat="37.40746833" lon="-4.47370667">
        <ele>489.0</ele>
        <time>2018-05-29T11:22:11.077Z</time>
      </trkpt>
      <trkpt lat="37.40746833" lon="-4.47377">
        <ele>488.0</ele>
        <time>2018-05-29T11:22:12.094Z</time>
      </trkpt>
      <trkpt lat="37.40746833" lon="-4.47377">
        <ele>488.0</ele>
        <time>2018-05-29T11:22:13.059Z</time>
      </trkpt>
      <trkpt lat="37.40747167" lon="-4.473895">
        <ele>488.0</ele>
        <time>2018-05-29T11:22:14.064Z</time>
      </trkpt>
      <trkpt lat="37.40747167" lon="-4.473895">
        <ele>488.0</ele>
        <time>2018-05-29T11:22:15.069Z</time>
      </trkpt>
      <trkpt lat="37.40747833" lon="-4.47402167">
        <ele>488.0</ele>
        <time>2018-05-29T11:22:16.066Z</time>
      </trkpt>
      <trkpt lat="37.40747833" lon="-4.47402167">
        <ele>488.0</ele>
        <time>2018-05-29T11:22:17.073Z</time>
      </trkpt>
      <trkpt lat="37.40748333" lon="-4.47415167">
        <ele>488.0</ele>
        <time>2018-05-29T11:22:18.069Z</time>
      </trkpt>
      <trkpt lat="37.40748333" lon="-4.47415167">
        <ele>488.0</ele>
        <time>2018-05-29T11:22:19.074Z</time>
      </trkpt>
      <trkpt lat="37.407485" lon="-4.474285">
        <ele>488.0</ele>
        <time>2018-05-29T11:22:20.076Z</time>
      </trkpt>
      <trkpt lat="37.407485" lon="-4.47435333">
        <ele>488.0</ele>
        <time>2018-05-29T11:22:21.085Z</time>
      </trkpt>
      <trkpt lat="37.407485" lon="-4.47435333">
        <ele>488.0</ele>
        <time>2018-05-29T11:22:22.092Z</time>
      </trkpt>
      <trkpt lat="37.40749" lon="-4.47448833">
        <ele>488.0</ele>
        <time>2018-05-29T11:22:23.062Z</time>
      </trkpt>
      <trkpt lat="37.40749167" lon="-4.47455833">
        <ele>488.0</ele>
        <time>2018-05-29T11:22:24.069Z</time>
      </trkpt>
      <trkpt lat="37.40749167" lon="-4.47455833">
        <ele>488.0</ele>
        <time>2018-05-29T11:22:25.075Z</time>
      </trkpt>
      <trkpt lat="37.40749667" lon="-4.47469667">
        <ele>487.0</ele>
        <time>2018-05-29T11:22:26.073Z</time>
      </trkpt>
      <trkpt lat="37.40750167" lon="-4.47476667">
        <ele>487.0</ele>
        <time>2018-05-29T11:22:27.069Z</time>
      </trkpt>
      <trkpt lat="37.40750167" lon="-4.47476667">
        <ele>487.0</ele>
        <time>2018-05-29T11:22:28.075Z</time>
      </trkpt>
      <trkpt lat="37.40751" lon="-4.47490833">
        <ele>487.0</ele>
        <time>2018-05-29T11:22:29.079Z</time>
      </trkpt>
      <trkpt lat="37.40751333" lon="-4.47498167">
        <ele>487.0</ele>
        <time>2018-05-29T11:22:30.079Z</time>
      </trkpt>
      <trkpt lat="37.40751333" lon="-4.47498167">
        <ele>487.0</ele>
        <time>2018-05-29T11:22:31.085Z</time>
      </trkpt>
      <trkpt lat="37.40751833" lon="-4.47513">
        <ele>487.0</ele>
        <time>2018-05-29T11:22:32.089Z</time>
      </trkpt>
      <trkpt lat="37.40752167" lon="-4.47520333">
        <ele>487.0</ele>
        <time>2018-05-29T11:22:33.095Z</time>
      </trkpt>
      <trkpt lat="37.40752167" lon="-4.47520333">
        <ele>487.0</ele>
        <time>2018-05-29T11:22:34.064Z</time>
      </trkpt>
      <trkpt lat="37.407525" lon="-4.47535333">
        <ele>487.0</ele>
        <time>2018-05-29T11:22:35.093Z</time>
      </trkpt>
      <trkpt lat="37.40752667" lon="-4.47543">
        <ele>487.0</ele>
        <time>2018-05-29T11:22:36.059Z</time>
      </trkpt>
      <trkpt lat="37.40752667" lon="-4.47543">
        <ele>487.0</ele>
        <time>2018-05-29T11:22:37.066Z</time>
      </trkpt>
      <trkpt lat="37.40753" lon="-4.47557667">
        <ele>487.0</ele>
        <time>2018-05-29T11:22:38.069Z</time>
      </trkpt>
      <trkpt lat="37.40753" lon="-4.47565">
        <ele>486.0</ele>
        <time>2018-05-29T11:22:39.059Z</time>
      </trkpt>
      <trkpt lat="37.40753" lon="-4.47565">
        <ele>486.0</ele>
        <time>2018-05-29T11:22:40.064Z</time>
      </trkpt>
      <trkpt lat="37.40753167" lon="-4.47579333">
        <ele>486.0</ele>
        <time>2018-05-29T11:22:41.089Z</time>
      </trkpt>
      <trkpt lat="37.407535" lon="-4.47585">
        <ele>486.0</ele>
        <time>2018-05-29T11:22:42.056Z</time>
      </trkpt>
      <trkpt lat="37.407535" lon="-4.47585">
        <ele>486.0</ele>
        <time>2018-05-29T11:22:43.061Z</time>
      </trkpt>
      <trkpt lat="37.40754" lon="-4.47590333">
        <ele>485.0</ele>
        <time>2018-05-29T11:22:44.058Z</time>
      </trkpt>
      <trkpt lat="37.40754333" lon="-4.47591833">
        <ele>485.0</ele>
        <time>2018-05-29T11:22:45.079Z</time>
      </trkpt>
      <trkpt lat="37.40754333" lon="-4.47591833">
        <ele>485.0</ele>
        <time>2018-05-29T11:22:46.061Z</time>
      </trkpt>
      <trkpt lat="37.40755833" lon="-4.47597167">
        <ele>486.0</ele>
        <time>2018-05-29T11:22:47.075Z</time>
      </trkpt>
      <trkpt lat="37.40755833" lon="-4.47597167">
        <ele>486.0</ele>
        <time>2018-05-29T11:22:48.080Z</time>
      </trkpt>
      <trkpt lat="37.40755833" lon="-4.47605333">
        <ele>486.0</ele>
        <time>2018-05-29T11:22:49.087Z</time>
      </trkpt>
      <trkpt lat="37.40754333" lon="-4.47609">
        <ele>486.0</ele>
        <time>2018-05-29T11:22:50.081Z</time>
      </trkpt>
      <trkpt lat="37.40754333" lon="-4.47609">
        <ele>486.0</ele>
        <time>2018-05-29T11:22:51.087Z</time>
      </trkpt>
      <trkpt lat="37.4075" lon="-4.476155">
        <ele>487.0</ele>
        <time>2018-05-29T11:22:52.059Z</time>
      </trkpt>
      <trkpt lat="37.4075" lon="-4.476155">
        <ele>487.0</ele>
        <time>2018-05-29T11:22:53.077Z</time>
      </trkpt>
      <trkpt lat="37.40747667" lon="-4.476235">
        <ele>487.0</ele>
        <time>2018-05-29T11:22:54.068Z</time>
      </trkpt>
      <trkpt lat="37.40747667" lon="-4.476235">
        <ele>487.0</ele>
        <time>2018-05-29T11:22:55.074Z</time>
      </trkpt>
      <trkpt lat="37.40748667" lon="-4.47632333">
        <ele>487.0</ele>
        <time>2018-05-29T11:22:56.083Z</time>
      </trkpt>
      <trkpt lat="37.40749333" lon="-4.47637167">
        <ele>487.0</ele>
        <time>2018-05-29T11:22:57.077Z</time>
      </trkpt>
      <trkpt lat="37.40749333" lon="-4.47637167">
        <ele>487.0</ele>
        <time>2018-05-29T11:22:58.083Z</time>
      </trkpt>
      <trkpt lat="37.40750333" lon="-4.47647833">
        <ele>487.0</ele>
        <time>2018-05-29T11:22:59.089Z</time>
      </trkpt>
      <trkpt lat="37.40750833" lon="-4.476535">
        <ele>487.0</ele>
        <time>2018-05-29T11:23:00.065Z</time>
      </trkpt>
      <trkpt lat="37.40750833" lon="-4.476535">
        <ele>487.0</ele>
        <time>2018-05-29T11:23:01.070Z</time>
      </trkpt>
      <trkpt lat="37.40753" lon="-4.47665667">
        <ele>486.0</ele>
        <time>2018-05-29T11:23:02.079Z</time>
      </trkpt>
      <trkpt lat="37.40753" lon="-4.47665667">
        <ele>486.0</ele>
        <time>2018-05-29T11:23:03.084Z</time>
      </trkpt>
      <trkpt lat="37.40755833" lon="-4.47678333">
        <ele>486.0</ele>
        <time>2018-05-29T11:23:04.088Z</time>
      </trkpt>
      <trkpt lat="37.40755833" lon="-4.47678333">
        <ele>486.0</ele>
        <time>2018-05-29T11:23:05.061Z</time>
      </trkpt>
      <trkpt lat="37.40758667" lon="-4.47691333">
        <ele>486.0</ele>
        <time>2018-05-29T11:23:06.062Z</time>
      </trkpt>
      <trkpt lat="37.40760167" lon="-4.47698">
        <ele>486.0</ele>
        <time>2018-05-29T11:23:07.069Z</time>
      </trkpt>
      <trkpt lat="37.40760167" lon="-4.47698">
        <ele>486.0</ele>
        <time>2018-05-29T11:23:08.074Z</time>
      </trkpt>
      <trkpt lat="37.40763167" lon="-4.47710833">
        <ele>486.0</ele>
        <time>2018-05-29T11:23:09.069Z</time>
      </trkpt>
      <trkpt lat="37.40763167" lon="-4.47710833">
        <ele>486.0</ele>
        <time>2018-05-29T11:23:10.076Z</time>
      </trkpt>
      <trkpt lat="37.40766167" lon="-4.47723833">
        <ele>485.0</ele>
        <time>2018-05-29T11:23:11.085Z</time>
      </trkpt>
      <trkpt lat="37.40766167" lon="-4.47723833">
        <ele>485.0</ele>
        <time>2018-05-29T11:23:12.091Z</time>
      </trkpt>
      <trkpt lat="37.407685" lon="-4.47737333">
        <ele>485.0</ele>
        <time>2018-05-29T11:23:13.059Z</time>
      </trkpt>
      <trkpt lat="37.407685" lon="-4.47737333">
        <ele>485.0</ele>
        <time>2018-05-29T11:23:14.064Z</time>
      </trkpt>
      <trkpt lat="37.40770667" lon="-4.47751333">
        <ele>485.0</ele>
        <time>2018-05-29T11:23:15.060Z</time>
      </trkpt>
      <trkpt lat="37.40770667" lon="-4.47751333">
        <ele>485.0</ele>
        <time>2018-05-29T11:23:16.066Z</time>
      </trkpt>
      <trkpt lat="37.40772833" lon="-4.47765167">
        <ele>485.0</ele>
        <time>2018-05-29T11:23:17.067Z</time>
      </trkpt>
      <trkpt lat="37.40772833" lon="-4.47765167">
        <ele>485.0</ele>
        <time>2018-05-29T11:23:18.073Z</time>
      </trkpt>
      <trkpt lat="37.40774833" lon="-4.47779">
        <ele>485.0</ele>
        <time>2018-05-29T11:23:19.085Z</time>
      </trkpt>
      <trkpt lat="37.40776167" lon="-4.47786167">
        <ele>485.0</ele>
        <time>2018-05-29T11:23:20.069Z</time>
      </trkpt>
      <trkpt lat="37.40777167" lon="-4.47793167">
        <ele>485.0</ele>
        <time>2018-05-29T11:23:21.088Z</time>
      </trkpt>
      <trkpt lat="37.40777167" lon="-4.47793167">
        <ele>485.0</ele>
        <time>2018-05-29T11:23:22.059Z</time>
      </trkpt>
      <trkpt lat="37.40778833" lon="-4.47807333">
        <ele>486.0</ele>
        <time>2018-05-29T11:23:23.074Z</time>
      </trkpt>
      <trkpt lat="37.40778833" lon="-4.47807333">
        <ele>486.0</ele>
        <time>2018-05-29T11:23:24.079Z</time>
      </trkpt>
      <trkpt lat="37.40780167" lon="-4.478215">
        <ele>486.0</ele>
        <time>2018-05-29T11:23:25.084Z</time>
      </trkpt>
      <trkpt lat="37.40780167" lon="-4.478215">
        <ele>486.0</ele>
        <time>2018-05-29T11:23:26.090Z</time>
      </trkpt>
      <trkpt lat="37.40781167" lon="-4.47836">
        <ele>486.0</ele>
        <time>2018-05-29T11:23:27.059Z</time>
      </trkpt>
      <trkpt lat="37.40781167" lon="-4.47836">
        <ele>486.0</ele>
        <time>2018-05-29T11:23:28.065Z</time>
      </trkpt>
      <trkpt lat="37.40781833" lon="-4.47850833">
        <ele>486.0</ele>
        <time>2018-05-29T11:23:29.069Z</time>
      </trkpt>
      <trkpt lat="37.40781833" lon="-4.47850833">
        <ele>486.0</ele>
        <time>2018-05-29T11:23:30.075Z</time>
      </trkpt>
      <trkpt lat="37.407815" lon="-4.47865833">
        <ele>485.0</ele>
        <time>2018-05-29T11:23:31.067Z</time>
      </trkpt>
      <trkpt lat="37.407815" lon="-4.47865833">
        <ele>485.0</ele>
        <time>2018-05-29T11:23:32.073Z</time>
      </trkpt>
      <trkpt lat="37.40781167" lon="-4.47879833">
        <ele>485.0</ele>
        <time>2018-05-29T11:23:33.059Z</time>
      </trkpt>
      <trkpt lat="37.40781167" lon="-4.47879833">
        <ele>485.0</ele>
        <time>2018-05-29T11:23:34.069Z</time>
      </trkpt>
      <trkpt lat="37.40781" lon="-4.47894667">
        <ele>485.0</ele>
        <time>2018-05-29T11:23:35.069Z</time>
      </trkpt>
      <trkpt lat="37.40781" lon="-4.47894667">
        <ele>485.0</ele>
        <time>2018-05-29T11:23:36.074Z</time>
      </trkpt>
      <trkpt lat="37.40780167" lon="-4.479095">
        <ele>484.0</ele>
        <time>2018-05-29T11:23:37.069Z</time>
      </trkpt>
      <trkpt lat="37.40780167" lon="-4.479095">
        <ele>484.0</ele>
        <time>2018-05-29T11:23:38.075Z</time>
      </trkpt>
      <trkpt lat="37.40779833" lon="-4.47923833">
        <ele>484.0</ele>
        <time>2018-05-29T11:23:39.072Z</time>
      </trkpt>
      <trkpt lat="37.40779833" lon="-4.47923833">
        <ele>484.0</ele>
        <time>2018-05-29T11:23:40.077Z</time>
      </trkpt>
      <trkpt lat="37.40778667" lon="-4.47937333">
        <ele>484.0</ele>
        <time>2018-05-29T11:23:41.090Z</time>
      </trkpt>
      <trkpt lat="37.40778667" lon="-4.47937333">
        <ele>484.0</ele>
        <time>2018-05-29T11:23:42.056Z</time>
      </trkpt>
      <trkpt lat="37.407775" lon="-4.479505">
        <ele>485.0</ele>
        <time>2018-05-29T11:23:43.059Z</time>
      </trkpt>
      <trkpt lat="37.407775" lon="-4.479505">
        <ele>485.0</ele>
        <time>2018-05-29T11:23:44.064Z</time>
      </trkpt>
      <trkpt lat="37.407785" lon="-4.479635">
        <ele>485.0</ele>
        <time>2018-05-29T11:23:45.075Z</time>
      </trkpt>
      <trkpt lat="37.40780167" lon="-4.47969833">
        <ele>485.0</ele>
        <time>2018-05-29T11:23:46.076Z</time>
      </trkpt>
      <trkpt lat="37.40780167" lon="-4.47969833">
        <ele>485.0</ele>
        <time>2018-05-29T11:23:47.082Z</time>
      </trkpt>
      <trkpt lat="37.40779667" lon="-4.47983">
        <ele>485.0</ele>
        <time>2018-05-29T11:23:48.059Z</time>
      </trkpt>
      <trkpt lat="37.40779667" lon="-4.47983">
        <ele>485.0</ele>
        <time>2018-05-29T11:23:49.065Z</time>
      </trkpt>
      <trkpt lat="37.40773833" lon="-4.47993167">
        <ele>485.0</ele>
        <time>2018-05-29T11:23:50.065Z</time>
      </trkpt>
      <trkpt lat="37.407705" lon="-4.47997">
        <ele>485.0</ele>
        <time>2018-05-29T11:23:51.063Z</time>
      </trkpt>
      <trkpt lat="37.407705" lon="-4.47997">
        <ele>485.0</ele>
        <time>2018-05-29T11:23:52.068Z</time>
      </trkpt>
      <trkpt lat="37.40765167" lon="-4.48005333">
        <ele>485.0</ele>
        <time>2018-05-29T11:23:53.059Z</time>
      </trkpt>
      <trkpt lat="37.407635" lon="-4.480105">
        <ele>485.0</ele>
        <time>2018-05-29T11:23:54.079Z</time>
      </trkpt>
      <trkpt lat="37.407635" lon="-4.480105">
        <ele>485.0</ele>
        <time>2018-05-29T11:23:55.085Z</time>
      </trkpt>
      <trkpt lat="37.407615" lon="-4.48021667">
        <ele>486.0</ele>
        <time>2018-05-29T11:23:56.087Z</time>
      </trkpt>
      <trkpt lat="37.407605" lon="-4.48027333">
        <ele>486.0</ele>
        <time>2018-05-29T11:23:57.079Z</time>
      </trkpt>
      <trkpt lat="37.407605" lon="-4.48027333">
        <ele>486.0</ele>
        <time>2018-05-29T11:23:58.086Z</time>
      </trkpt>
      <trkpt lat="37.40757167" lon="-4.48037833">
        <ele>487.0</ele>
        <time>2018-05-29T11:23:59.079Z</time>
      </trkpt>
      <trkpt lat="37.407555" lon="-4.48043667">
        <ele>487.0</ele>
        <time>2018-05-29T11:24:00.089Z</time>
      </trkpt>
      <trkpt lat="37.407555" lon="-4.48043667">
        <ele>487.0</ele>
        <time>2018-05-29T11:24:01.056Z</time>
      </trkpt>
      <trkpt lat="37.40751" lon="-4.48054333">
        <ele>488.0</ele>
        <time>2018-05-29T11:24:02.059Z</time>
      </trkpt>
      <trkpt lat="37.40748167" lon="-4.48059167">
        <ele>488.0</ele>
        <time>2018-05-29T11:24:03.059Z</time>
      </trkpt>
      <trkpt lat="37.40748167" lon="-4.48059167">
        <ele>488.0</ele>
        <time>2018-05-29T11:24:04.064Z</time>
      </trkpt>
      <trkpt lat="37.407425" lon="-4.48069">
        <ele>488.0</ele>
        <time>2018-05-29T11:24:05.069Z</time>
      </trkpt>
      <trkpt lat="37.407425" lon="-4.48069">
        <ele>488.0</ele>
        <time>2018-05-29T11:24:06.076Z</time>
      </trkpt>
      <trkpt lat="37.40734167" lon="-4.48076167">
        <ele>489.0</ele>
        <time>2018-05-29T11:24:07.079Z</time>
      </trkpt>
      <trkpt lat="37.40734167" lon="-4.48076167">
        <ele>489.0</ele>
        <time>2018-05-29T11:24:08.085Z</time>
      </trkpt>
      <trkpt lat="37.40726667" lon="-4.48084167">
        <ele>489.0</ele>
        <time>2018-05-29T11:24:09.082Z</time>
      </trkpt>
      <trkpt lat="37.40726667" lon="-4.48084167">
        <ele>489.0</ele>
        <time>2018-05-29T11:24:10.089Z</time>
      </trkpt>
      <trkpt lat="37.40720333" lon="-4.48093333">
        <ele>489.0</ele>
        <time>2018-05-29T11:24:11.089Z</time>
      </trkpt>
      <trkpt lat="37.40720333" lon="-4.48093333">
        <ele>489.0</ele>
        <time>2018-05-29T11:24:12.059Z</time>
      </trkpt>
      <trkpt lat="37.40715667" lon="-4.48103167">
        <ele>489.0</ele>
        <time>2018-05-29T11:24:13.089Z</time>
      </trkpt>
      <trkpt lat="37.40715667" lon="-4.48103167">
        <ele>489.0</ele>
        <time>2018-05-29T11:24:14.060Z</time>
      </trkpt>
      <trkpt lat="37.407105" lon="-4.48112667">
        <ele>489.0</ele>
        <time>2018-05-29T11:24:15.069Z</time>
      </trkpt>
      <trkpt lat="37.40708" lon="-4.481175">
        <ele>489.0</ele>
        <time>2018-05-29T11:24:16.069Z</time>
      </trkpt>
      <trkpt lat="37.40708" lon="-4.481175">
        <ele>489.0</ele>
        <time>2018-05-29T11:24:17.076Z</time>
      </trkpt>
      <trkpt lat="37.40703833" lon="-4.48125833">
        <ele>489.0</ele>
        <time>2018-05-29T11:24:18.089Z</time>
      </trkpt>
      <trkpt lat="37.40703833" lon="-4.48125833">
        <ele>489.0</ele>
        <time>2018-05-29T11:24:19.060Z</time>
      </trkpt>
      <trkpt lat="37.407005" lon="-4.48133667">
        <ele>489.0</ele>
        <time>2018-05-29T11:24:20.062Z</time>
      </trkpt>
      <trkpt lat="37.406985" lon="-4.48137833">
        <ele>489.0</ele>
        <time>2018-05-29T11:24:21.095Z</time>
      </trkpt>
      <trkpt lat="37.406985" lon="-4.48137833">
        <ele>489.0</ele>
        <time>2018-05-29T11:24:22.062Z</time>
      </trkpt>
      <trkpt lat="37.40694167" lon="-4.48146667">
        <ele>489.0</ele>
        <time>2018-05-29T11:24:23.068Z</time>
      </trkpt>
      <trkpt lat="37.40694167" lon="-4.48146667">
        <ele>489.0</ele>
        <time>2018-05-29T11:24:24.073Z</time>
      </trkpt>
      <trkpt lat="37.40689667" lon="-4.48154833">
        <ele>489.0</ele>
        <time>2018-05-29T11:24:25.059Z</time>
      </trkpt>
      <trkpt lat="37.40687333" lon="-4.48159">
        <ele>489.0</ele>
        <time>2018-05-29T11:24:26.095Z</time>
      </trkpt>
      <trkpt lat="37.40687333" lon="-4.48159">
        <ele>489.0</ele>
        <time>2018-05-29T11:24:27.061Z</time>
      </trkpt>
      <trkpt lat="37.40683" lon="-4.48167167">
        <ele>489.0</ele>
        <time>2018-05-29T11:24:28.059Z</time>
      </trkpt>
      <trkpt lat="37.40683" lon="-4.48167167">
        <ele>489.0</ele>
        <time>2018-05-29T11:24:29.066Z</time>
      </trkpt>
      <trkpt lat="37.40679167" lon="-4.481755">
        <ele>489.0</ele>
        <time>2018-05-29T11:24:30.081Z</time>
      </trkpt>
      <trkpt lat="37.40679167" lon="-4.481755">
        <ele>489.0</ele>
        <time>2018-05-29T11:24:31.086Z</time>
      </trkpt>
      <trkpt lat="37.40675" lon="-4.48183333">
        <ele>489.0</ele>
        <time>2018-05-29T11:24:32.092Z</time>
      </trkpt>
      <trkpt lat="37.40672333" lon="-4.48186833">
        <ele>489.0</ele>
        <time>2018-05-29T11:24:33.064Z</time>
      </trkpt>
      <trkpt lat="37.40672333" lon="-4.48186833">
        <ele>489.0</ele>
        <time>2018-05-29T11:24:34.071Z</time>
      </trkpt>
      <trkpt lat="37.406685" lon="-4.48194667">
        <ele>489.0</ele>
        <time>2018-05-29T11:24:35.066Z</time>
      </trkpt>
      <trkpt lat="37.406665" lon="-4.481985">
        <ele>489.0</ele>
        <time>2018-05-29T11:24:36.069Z</time>
      </trkpt>
      <trkpt lat="37.406665" lon="-4.481985">
        <ele>489.0</ele>
        <time>2018-05-29T11:24:37.075Z</time>
      </trkpt>
      <trkpt lat="37.40662167" lon="-4.48206167">
        <ele>489.0</ele>
        <time>2018-05-29T11:24:38.089Z</time>
      </trkpt>
      <trkpt lat="37.4066" lon="-4.48209833">
        <ele>489.0</ele>
        <time>2018-05-29T11:24:39.087Z</time>
      </trkpt>
      <trkpt lat="37.4066" lon="-4.48209833">
        <ele>489.0</ele>
        <time>2018-05-29T11:24:40.093Z</time>
      </trkpt>
      <trkpt lat="37.40656" lon="-4.48217">
        <ele>489.0</ele>
        <time>2018-05-29T11:24:41.090Z</time>
      </trkpt>
      <trkpt lat="37.40656" lon="-4.48217">
        <ele>489.0</ele>
        <time>2018-05-29T11:24:42.060Z</time>
      </trkpt>
      <trkpt lat="37.40653" lon="-4.48223667">
        <ele>489.0</ele>
        <time>2018-05-29T11:24:43.065Z</time>
      </trkpt>
      <trkpt lat="37.40653" lon="-4.48223667">
        <ele>489.0</ele>
        <time>2018-05-29T11:24:44.071Z</time>
      </trkpt>
      <trkpt lat="37.40650667" lon="-4.48227667">
        <ele>489.0</ele>
        <time>2018-05-29T11:24:45.077Z</time>
      </trkpt>
      <trkpt lat="37.40650667" lon="-4.48227667">
        <ele>489.0</ele>
        <time>2018-05-29T11:24:46.084Z</time>
      </trkpt>
      <trkpt lat="37.40648167" lon="-4.48232167">
        <ele>490.0</ele>
        <time>2018-05-29T11:24:47.069Z</time>
      </trkpt>
      <trkpt lat="37.40648167" lon="-4.48232167">
        <ele>490.0</ele>
        <time>2018-05-29T11:24:48.075Z</time>
      </trkpt>
      <trkpt lat="37.40644167" lon="-4.48238167">
        <ele>490.0</ele>
        <time>2018-05-29T11:24:49.089Z</time>
      </trkpt>
      <trkpt lat="37.40641333" lon="-4.48242">
        <ele>490.0</ele>
        <time>2018-05-29T11:24:50.094Z</time>
      </trkpt>
      <trkpt lat="37.40638167" lon="-4.48246167">
        <ele>490.0</ele>
        <time>2018-05-29T11:24:51.057Z</time>
      </trkpt>
      <trkpt lat="37.40638167" lon="-4.48246167">
        <ele>490.0</ele>
        <time>2018-05-29T11:24:52.063Z</time>
      </trkpt>
      <trkpt lat="37.40631833" lon="-4.482555">
        <ele>491.0</ele>
        <time>2018-05-29T11:24:53.059Z</time>
      </trkpt>
      <trkpt lat="37.40631833" lon="-4.482555">
        <ele>491.0</ele>
        <time>2018-05-29T11:24:54.056Z</time>
      </trkpt>
      <trkpt lat="37.406255" lon="-4.482655">
        <ele>491.0</ele>
        <time>2018-05-29T11:24:55.064Z</time>
      </trkpt>
      <trkpt lat="37.406255" lon="-4.482655">
        <ele>491.0</ele>
        <time>2018-05-29T11:24:56.072Z</time>
      </trkpt>
      <trkpt lat="37.40619" lon="-4.482745">
        <ele>492.0</ele>
        <time>2018-05-29T11:24:57.059Z</time>
      </trkpt>
      <trkpt lat="37.40619" lon="-4.482745">
        <ele>492.0</ele>
        <time>2018-05-29T11:24:58.066Z</time>
      </trkpt>
      <trkpt lat="37.40612667" lon="-4.482845">
        <ele>492.0</ele>
        <time>2018-05-29T11:24:59.068Z</time>
      </trkpt>
      <trkpt lat="37.40612667" lon="-4.482845">
        <ele>492.0</ele>
        <time>2018-05-29T11:25:00.074Z</time>
      </trkpt>
      <trkpt lat="37.40607833" lon="-4.48296">
        <ele>493.0</ele>
        <time>2018-05-29T11:25:01.059Z</time>
      </trkpt>
      <trkpt lat="37.40607833" lon="-4.48296">
        <ele>493.0</ele>
        <time>2018-05-29T11:25:02.065Z</time>
      </trkpt>
      <trkpt lat="37.40603167" lon="-4.48307167">
        <ele>493.0</ele>
        <time>2018-05-29T11:25:03.069Z</time>
      </trkpt>
      <trkpt lat="37.40603167" lon="-4.48307167">
        <ele>493.0</ele>
        <time>2018-05-29T11:25:04.075Z</time>
      </trkpt>
      <trkpt lat="37.406005" lon="-4.48320167">
        <ele>493.0</ele>
        <time>2018-05-29T11:25:05.069Z</time>
      </trkpt>
      <trkpt lat="37.40598333" lon="-4.48326167">
        <ele>493.0</ele>
        <time>2018-05-29T11:25:06.069Z</time>
      </trkpt>
      <trkpt lat="37.40598333" lon="-4.48326167">
        <ele>493.0</ele>
        <time>2018-05-29T11:25:07.075Z</time>
      </trkpt>
      <trkpt lat="37.40594667" lon="-4.48339">
        <ele>493.0</ele>
        <time>2018-05-29T11:25:08.079Z</time>
      </trkpt>
      <trkpt lat="37.40592833" lon="-4.48345333">
        <ele>493.0</ele>
        <time>2018-05-29T11:25:09.076Z</time>
      </trkpt>
      <trkpt lat="37.40592833" lon="-4.48345333">
        <ele>493.0</ele>
        <time>2018-05-29T11:25:10.083Z</time>
      </trkpt>
      <trkpt lat="37.40588833" lon="-4.48357167">
        <ele>494.0</ele>
        <time>2018-05-29T11:25:11.093Z</time>
      </trkpt>
      <trkpt lat="37.405875" lon="-4.48363333">
        <ele>494.0</ele>
        <time>2018-05-29T11:25:12.065Z</time>
      </trkpt>
      <trkpt lat="37.405875" lon="-4.48363333">
        <ele>494.0</ele>
        <time>2018-05-29T11:25:13.070Z</time>
      </trkpt>
      <trkpt lat="37.405855" lon="-4.48374833">
        <ele>494.0</ele>
        <time>2018-05-29T11:25:14.056Z</time>
      </trkpt>
      <trkpt lat="37.40585" lon="-4.48380667">
        <ele>494.0</ele>
        <time>2018-05-29T11:25:15.087Z</time>
      </trkpt>
      <trkpt lat="37.40585" lon="-4.48380667">
        <ele>494.0</ele>
        <time>2018-05-29T11:25:16.067Z</time>
      </trkpt>
      <trkpt lat="37.40586167" lon="-4.48392333">
        <ele>494.0</ele>
        <time>2018-05-29T11:25:17.059Z</time>
      </trkpt>
      <trkpt lat="37.405865" lon="-4.48397833">
        <ele>494.0</ele>
        <time>2018-05-29T11:25:18.084Z</time>
      </trkpt>
      <trkpt lat="37.405865" lon="-4.48397833">
        <ele>494.0</ele>
        <time>2018-05-29T11:25:19.090Z</time>
      </trkpt>
      <trkpt lat="37.40586667" lon="-4.48410833">
        <ele>494.0</ele>
        <time>2018-05-29T11:25:20.094Z</time>
      </trkpt>
      <trkpt lat="37.40586667" lon="-4.48410833">
        <ele>494.0</ele>
        <time>2018-05-29T11:25:21.063Z</time>
      </trkpt>
      <trkpt lat="37.40585" lon="-4.48422667">
        <ele>493.0</ele>
        <time>2018-05-29T11:25:22.078Z</time>
      </trkpt>
      <trkpt lat="37.40585" lon="-4.48422667">
        <ele>493.0</ele>
        <time>2018-05-29T11:25:23.085Z</time>
      </trkpt>
      <trkpt lat="37.40584833" lon="-4.48434667">
        <ele>494.0</ele>
        <time>2018-05-29T11:25:24.092Z</time>
      </trkpt>
      <trkpt lat="37.40584833" lon="-4.48434667">
        <ele>494.0</ele>
        <time>2018-05-29T11:25:25.060Z</time>
      </trkpt>
      <trkpt lat="37.40584333" lon="-4.48446">
        <ele>494.0</ele>
        <time>2018-05-29T11:25:26.089Z</time>
      </trkpt>
      <trkpt lat="37.40584167" lon="-4.48452">
        <ele>494.0</ele>
        <time>2018-05-29T11:25:27.089Z</time>
      </trkpt>
      <trkpt lat="37.405835" lon="-4.48457667">
        <ele>494.0</ele>
        <time>2018-05-29T11:25:28.059Z</time>
      </trkpt>
      <trkpt lat="37.405835" lon="-4.48457667">
        <ele>494.0</ele>
        <time>2018-05-29T11:25:29.065Z</time>
      </trkpt>
      <trkpt lat="37.40581667" lon="-4.484695">
        <ele>494.0</ele>
        <time>2018-05-29T11:25:30.080Z</time>
      </trkpt>
      <trkpt lat="37.40581667" lon="-4.484695">
        <ele>494.0</ele>
        <time>2018-05-29T11:25:31.086Z</time>
      </trkpt>
      <trkpt lat="37.40580167" lon="-4.48481333">
        <ele>494.0</ele>
        <time>2018-05-29T11:25:32.081Z</time>
      </trkpt>
      <trkpt lat="37.40578667" lon="-4.484875">
        <ele>494.0</ele>
        <time>2018-05-29T11:25:33.080Z</time>
      </trkpt>
      <trkpt lat="37.40578667" lon="-4.484875">
        <ele>494.0</ele>
        <time>2018-05-29T11:25:34.086Z</time>
      </trkpt>
      <trkpt lat="37.40577333" lon="-4.48500667">
        <ele>494.0</ele>
        <time>2018-05-29T11:25:35.091Z</time>
      </trkpt>
      <trkpt lat="37.40577333" lon="-4.48500667">
        <ele>494.0</ele>
        <time>2018-05-29T11:25:36.057Z</time>
      </trkpt>
      <trkpt lat="37.40575667" lon="-4.485135">
        <ele>494.0</ele>
        <time>2018-05-29T11:25:37.088Z</time>
      </trkpt>
      <trkpt lat="37.40575667" lon="-4.485135">
        <ele>494.0</ele>
        <time>2018-05-29T11:25:38.062Z</time>
      </trkpt>
      <trkpt lat="37.40575167" lon="-4.48525833">
        <ele>494.0</ele>
        <time>2018-05-29T11:25:39.063Z</time>
      </trkpt>
      <trkpt lat="37.40575167" lon="-4.48525833">
        <ele>494.0</ele>
        <time>2018-05-29T11:25:40.069Z</time>
      </trkpt>
      <trkpt lat="37.40573833" lon="-4.48537167">
        <ele>494.0</ele>
        <time>2018-05-29T11:25:41.085Z</time>
      </trkpt>
      <trkpt lat="37.405735" lon="-4.48542833">
        <ele>494.0</ele>
        <time>2018-05-29T11:25:42.069Z</time>
      </trkpt>
      <trkpt lat="37.405735" lon="-4.48542833">
        <ele>494.0</ele>
        <time>2018-05-29T11:25:43.074Z</time>
      </trkpt>
      <trkpt lat="37.40572833" lon="-4.48553833">
        <ele>494.0</ele>
        <time>2018-05-29T11:25:44.070Z</time>
      </trkpt>
      <trkpt lat="37.40572833" lon="-4.4856">
        <ele>494.0</ele>
        <time>2018-05-29T11:25:45.082Z</time>
      </trkpt>
      <trkpt lat="37.40572833" lon="-4.4856">
        <ele>494.0</ele>
        <time>2018-05-29T11:25:46.088Z</time>
      </trkpt>
      <trkpt lat="37.40573" lon="-4.485715">
        <ele>494.0</ele>
        <time>2018-05-29T11:25:47.089Z</time>
      </trkpt>
      <trkpt lat="37.40572667" lon="-4.48577167">
        <ele>494.0</ele>
        <time>2018-05-29T11:25:48.064Z</time>
      </trkpt>
      <trkpt lat="37.40572667" lon="-4.48577167">
        <ele>494.0</ele>
        <time>2018-05-29T11:25:49.069Z</time>
      </trkpt>
      <trkpt lat="37.40572167" lon="-4.48589">
        <ele>494.0</ele>
        <time>2018-05-29T11:25:50.079Z</time>
      </trkpt>
      <trkpt lat="37.40571833" lon="-4.48595167">
        <ele>494.0</ele>
        <time>2018-05-29T11:25:51.089Z</time>
      </trkpt>
      <trkpt lat="37.40571833" lon="-4.48595167">
        <ele>494.0</ele>
        <time>2018-05-29T11:25:52.095Z</time>
      </trkpt>
      <trkpt lat="37.405715" lon="-4.48608333">
        <ele>493.0</ele>
        <time>2018-05-29T11:25:53.089Z</time>
      </trkpt>
      <trkpt lat="37.40571333" lon="-4.48615167">
        <ele>493.0</ele>
        <time>2018-05-29T11:25:54.094Z</time>
      </trkpt>
      <trkpt lat="37.40571167" lon="-4.48622">
        <ele>493.0</ele>
        <time>2018-05-29T11:25:55.066Z</time>
      </trkpt>
      <trkpt lat="37.40571" lon="-4.48628333">
        <ele>493.0</ele>
        <time>2018-05-29T11:25:56.059Z</time>
      </trkpt>
      <trkpt lat="37.40571" lon="-4.48628333">
        <ele>493.0</ele>
        <time>2018-05-29T11:25:57.066Z</time>
      </trkpt>
      <trkpt lat="37.40569167" lon="-4.48643">
        <ele>494.0</ele>
        <time>2018-05-29T11:25:58.064Z</time>
      </trkpt>
      <trkpt lat="37.405685" lon="-4.48650333">
        <ele>494.0</ele>
        <time>2018-05-29T11:25:59.069Z</time>
      </trkpt>
      <trkpt lat="37.40569333" lon="-4.48656667">
        <ele>494.0</ele>
        <time>2018-05-29T11:26:00.079Z</time>
      </trkpt>
      <trkpt lat="37.40570167" lon="-4.48664167">
        <ele>494.0</ele>
        <time>2018-05-29T11:26:01.089Z</time>
      </trkpt>
      <trkpt lat="37.40570167" lon="-4.48664167">
        <ele>494.0</ele>
        <time>2018-05-29T11:26:02.056Z</time>
      </trkpt>
      <trkpt lat="37.40575333" lon="-4.48678167">
        <ele>494.0</ele>
        <time>2018-05-29T11:26:03.059Z</time>
      </trkpt>
      <trkpt lat="37.40575333" lon="-4.48678167">
        <ele>494.0</ele>
        <time>2018-05-29T11:26:04.064Z</time>
      </trkpt>
      <trkpt lat="37.40580833" lon="-4.48693833">
        <ele>494.0</ele>
        <time>2018-05-29T11:26:05.095Z</time>
      </trkpt>
      <trkpt lat="37.405835" lon="-4.48702167">
        <ele>494.0</ele>
        <time>2018-05-29T11:26:06.059Z</time>
      </trkpt>
      <trkpt lat="37.405835" lon="-4.48702167">
        <ele>494.0</ele>
        <time>2018-05-29T11:26:07.065Z</time>
      </trkpt>
      <trkpt lat="37.40588667" lon="-4.48719167">
        <ele>493.0</ele>
        <time>2018-05-29T11:26:08.089Z</time>
      </trkpt>
      <trkpt lat="37.40591167" lon="-4.48727667">
        <ele>493.0</ele>
        <time>2018-05-29T11:26:09.058Z</time>
      </trkpt>
      <trkpt lat="37.40591167" lon="-4.48727667">
        <ele>493.0</ele>
        <time>2018-05-29T11:26:10.065Z</time>
      </trkpt>
      <trkpt lat="37.405965" lon="-4.48744167">
        <ele>492.0</ele>
        <time>2018-05-29T11:26:11.094Z</time>
      </trkpt>
      <trkpt lat="37.405965" lon="-4.48744167">
        <ele>492.0</ele>
        <time>2018-05-29T11:26:12.061Z</time>
      </trkpt>
      <trkpt lat="37.40601333" lon="-4.48760167">
        <ele>492.0</ele>
        <time>2018-05-29T11:26:13.078Z</time>
      </trkpt>
      <trkpt lat="37.40601333" lon="-4.48760167">
        <ele>492.0</ele>
        <time>2018-05-29T11:26:14.085Z</time>
      </trkpt>
      <trkpt lat="37.40606167" lon="-4.48776333">
        <ele>491.0</ele>
        <time>2018-05-29T11:26:15.094Z</time>
      </trkpt>
      <trkpt lat="37.40606167" lon="-4.48776333">
        <ele>491.0</ele>
        <time>2018-05-29T11:26:16.061Z</time>
      </trkpt>
      <trkpt lat="37.40611" lon="-4.487925">
        <ele>490.0</ele>
        <time>2018-05-29T11:26:17.059Z</time>
      </trkpt>
      <trkpt lat="37.40611" lon="-4.487925">
        <ele>490.0</ele>
        <time>2018-05-29T11:26:18.081Z</time>
      </trkpt>
      <trkpt lat="37.406165" lon="-4.48808833">
        <ele>490.0</ele>
        <time>2018-05-29T11:26:19.056Z</time>
      </trkpt>
      <trkpt lat="37.406165" lon="-4.48808833">
        <ele>490.0</ele>
        <time>2018-05-29T11:26:20.062Z</time>
      </trkpt>
      <trkpt lat="37.40621667" lon="-4.488245">
        <ele>490.0</ele>
        <time>2018-05-29T11:26:21.093Z</time>
      </trkpt>
      <trkpt lat="37.40621667" lon="-4.488245">
        <ele>490.0</ele>
        <time>2018-05-29T11:26:22.060Z</time>
      </trkpt>
      <trkpt lat="37.40626167" lon="-4.48841167">
        <ele>489.0</ele>
        <time>2018-05-29T11:26:23.089Z</time>
      </trkpt>
      <trkpt lat="37.40628333" lon="-4.48849833">
        <ele>489.0</ele>
        <time>2018-05-29T11:26:24.059Z</time>
      </trkpt>
      <trkpt lat="37.40628333" lon="-4.48849833">
        <ele>489.0</ele>
        <time>2018-05-29T11:26:25.064Z</time>
      </trkpt>
      <trkpt lat="37.40632833" lon="-4.48867">
        <ele>488.0</ele>
        <time>2018-05-29T11:26:26.079Z</time>
      </trkpt>
      <trkpt lat="37.40635167" lon="-4.48875833">
        <ele>487.0</ele>
        <time>2018-05-29T11:26:27.059Z</time>
      </trkpt>
      <trkpt lat="37.40635167" lon="-4.48875833">
        <ele>487.0</ele>
        <time>2018-05-29T11:26:28.065Z</time>
      </trkpt>
      <trkpt lat="37.40639167" lon="-4.48892833">
        <ele>487.0</ele>
        <time>2018-05-29T11:26:29.079Z</time>
      </trkpt>
      <trkpt lat="37.406415" lon="-4.48901167">
        <ele>486.0</ele>
        <time>2018-05-29T11:26:30.079Z</time>
      </trkpt>
      <trkpt lat="37.406415" lon="-4.48901167">
        <ele>486.0</ele>
        <time>2018-05-29T11:26:31.086Z</time>
      </trkpt>
      <trkpt lat="37.40644667" lon="-4.489175">
        <ele>485.0</ele>
        <time>2018-05-29T11:26:32.090Z</time>
      </trkpt>
      <trkpt lat="37.406455" lon="-4.48924667">
        <ele>485.0</ele>
        <time>2018-05-29T11:26:33.059Z</time>
      </trkpt>
      <trkpt lat="37.406455" lon="-4.48924667">
        <ele>485.0</ele>
        <time>2018-05-29T11:26:34.066Z</time>
      </trkpt>
      <trkpt lat="37.40646667" lon="-4.48937167">
        <ele>484.0</ele>
        <time>2018-05-29T11:26:35.095Z</time>
      </trkpt>
      <trkpt lat="37.40646667" lon="-4.48937167">
        <ele>484.0</ele>
        <time>2018-05-29T11:26:36.061Z</time>
      </trkpt>
      <trkpt lat="37.406475" lon="-4.489465">
        <ele>484.0</ele>
        <time>2018-05-29T11:26:37.063Z</time>
      </trkpt>
      <trkpt lat="37.406475" lon="-4.489465">
        <ele>484.0</ele>
        <time>2018-05-29T11:26:38.069Z</time>
      </trkpt>
      <trkpt lat="37.406475" lon="-4.48955167">
        <ele>482.0</ele>
        <time>2018-05-29T11:26:39.071Z</time>
      </trkpt>
      <trkpt lat="37.406475" lon="-4.48955167">
        <ele>482.0</ele>
        <time>2018-05-29T11:26:40.076Z</time>
      </trkpt>
      <trkpt lat="37.406485" lon="-4.48964667">
        <ele>481.0</ele>
        <time>2018-05-29T11:26:41.079Z</time>
      </trkpt>
      <trkpt lat="37.406485" lon="-4.48964667">
        <ele>481.0</ele>
        <time>2018-05-29T11:26:42.085Z</time>
      </trkpt>
      <trkpt lat="37.40649" lon="-4.48975667">
        <ele>480.0</ele>
        <time>2018-05-29T11:26:43.094Z</time>
      </trkpt>
      <trkpt lat="37.40649" lon="-4.48975667">
        <ele>480.0</ele>
        <time>2018-05-29T11:26:44.062Z</time>
      </trkpt>
      <trkpt lat="37.40648667" lon="-4.489895">
        <ele>479.0</ele>
        <time>2018-05-29T11:26:45.073Z</time>
      </trkpt>
      <trkpt lat="37.40648667" lon="-4.489895">
        <ele>479.0</ele>
        <time>2018-05-29T11:26:46.078Z</time>
      </trkpt>
      <trkpt lat="37.40649" lon="-4.49003167">
        <ele>478.0</ele>
        <time>2018-05-29T11:26:47.079Z</time>
      </trkpt>
      <trkpt lat="37.40648833" lon="-4.49010833">
        <ele>477.0</ele>
        <time>2018-05-29T11:26:48.089Z</time>
      </trkpt>
      <trkpt lat="37.40648833" lon="-4.49010833">
        <ele>477.0</ele>
        <time>2018-05-29T11:26:49.058Z</time>
      </trkpt>
      <trkpt lat="37.40647333" lon="-4.49026167">
        <ele>476.0</ele>
        <time>2018-05-29T11:26:50.089Z</time>
      </trkpt>
      <trkpt lat="37.406455" lon="-4.49033833">
        <ele>476.0</ele>
        <time>2018-05-29T11:26:51.091Z</time>
      </trkpt>
      <trkpt lat="37.406455" lon="-4.49033833">
        <ele>476.0</ele>
        <time>2018-05-29T11:26:52.059Z</time>
      </trkpt>
      <trkpt lat="37.406445" lon="-4.49050333">
        <ele>475.0</ele>
        <time>2018-05-29T11:26:53.104Z</time>
      </trkpt>
      <trkpt lat="37.406445" lon="-4.49050333">
        <ele>475.0</ele>
        <time>2018-05-29T11:26:54.064Z</time>
      </trkpt>
      <trkpt lat="37.40641833" lon="-4.49066667">
        <ele>473.0</ele>
        <time>2018-05-29T11:26:55.056Z</time>
      </trkpt>
      <trkpt lat="37.40641833" lon="-4.49066667">
        <ele>473.0</ele>
        <time>2018-05-29T11:26:56.063Z</time>
      </trkpt>
      <trkpt lat="37.40638167" lon="-4.49084167">
        <ele>472.0</ele>
        <time>2018-05-29T11:26:57.075Z</time>
      </trkpt>
      <trkpt lat="37.40638167" lon="-4.49084167">
        <ele>472.0</ele>
        <time>2018-05-29T11:26:58.081Z</time>
      </trkpt>
      <trkpt lat="37.40636167" lon="-4.491015">
        <ele>471.0</ele>
        <time>2018-05-29T11:26:59.089Z</time>
      </trkpt>
      <trkpt lat="37.40635" lon="-4.49110167">
        <ele>470.0</ele>
        <time>2018-05-29T11:27:00.079Z</time>
      </trkpt>
      <trkpt lat="37.40635" lon="-4.49110167">
        <ele>470.0</ele>
        <time>2018-05-29T11:27:01.059Z</time>
      </trkpt>
      <trkpt lat="37.40633833" lon="-4.49127167">
        <ele>469.0</ele>
        <time>2018-05-29T11:27:02.059Z</time>
      </trkpt>
      <trkpt lat="37.406335" lon="-4.491355">
        <ele>469.0</ele>
        <time>2018-05-29T11:27:03.058Z</time>
      </trkpt>
      <trkpt lat="37.406335" lon="-4.491355">
        <ele>469.0</ele>
        <time>2018-05-29T11:27:04.063Z</time>
      </trkpt>
      <trkpt lat="37.40631167" lon="-4.49149667">
        <ele>468.0</ele>
        <time>2018-05-29T11:27:05.067Z</time>
      </trkpt>
      <trkpt lat="37.40631167" lon="-4.49149667">
        <ele>468.0</ele>
        <time>2018-05-29T11:27:06.073Z</time>
      </trkpt>
      <trkpt lat="37.40634333" lon="-4.49158833">
        <ele>468.0</ele>
        <time>2018-05-29T11:27:07.091Z</time>
      </trkpt>
      <trkpt lat="37.40634333" lon="-4.49158833">
        <ele>468.0</ele>
        <time>2018-05-29T11:27:08.057Z</time>
      </trkpt>
      <trkpt lat="37.40639833" lon="-4.491665">
        <ele>469.0</ele>
        <time>2018-05-29T11:27:09.066Z</time>
      </trkpt>
      <trkpt lat="37.40639833" lon="-4.491665">
        <ele>469.0</ele>
        <time>2018-05-29T11:27:10.072Z</time>
      </trkpt>
      <trkpt lat="37.40649667" lon="-4.49170833">
        <ele>469.0</ele>
        <time>2018-05-29T11:27:11.080Z</time>
      </trkpt>
      <trkpt lat="37.40655167" lon="-4.49172667">
        <ele>470.0</ele>
        <time>2018-05-29T11:27:12.087Z</time>
      </trkpt>
      <trkpt lat="37.40655167" lon="-4.49172667">
        <ele>470.0</ele>
        <time>2018-05-29T11:27:13.093Z</time>
      </trkpt>
      <trkpt lat="37.40667667" lon="-4.491755">
        <ele>470.0</ele>
        <time>2018-05-29T11:27:14.073Z</time>
      </trkpt>
      <trkpt lat="37.40672833" lon="-4.49176667">
        <ele>471.0</ele>
        <time>2018-05-29T11:27:15.083Z</time>
      </trkpt>
      <trkpt lat="37.40672833" lon="-4.49176667">
        <ele>471.0</ele>
        <time>2018-05-29T11:27:16.088Z</time>
      </trkpt>
      <trkpt lat="37.40681667" lon="-4.49178667">
        <ele>472.0</ele>
        <time>2018-05-29T11:27:17.059Z</time>
      </trkpt>
      <trkpt lat="37.40686667" lon="-4.49179667">
        <ele>472.0</ele>
        <time>2018-05-29T11:27:18.069Z</time>
      </trkpt>
      <trkpt lat="37.40686667" lon="-4.49179667">
        <ele>472.0</ele>
        <time>2018-05-29T11:27:19.075Z</time>
      </trkpt>
      <trkpt lat="37.40697167" lon="-4.49181833">
        <ele>473.0</ele>
        <time>2018-05-29T11:27:20.079Z</time>
      </trkpt>
      <trkpt lat="37.40697167" lon="-4.49181833">
        <ele>473.0</ele>
        <time>2018-05-29T11:27:21.086Z</time>
      </trkpt>
      <trkpt lat="37.40708833" lon="-4.49184333">
        <ele>474.0</ele>
        <time>2018-05-29T11:27:22.090Z</time>
      </trkpt>
      <trkpt lat="37.40708833" lon="-4.49184333">
        <ele>474.0</ele>
        <time>2018-05-29T11:27:23.057Z</time>
      </trkpt>
      <trkpt lat="37.40721" lon="-4.49186167">
        <ele>474.0</ele>
        <time>2018-05-29T11:27:24.063Z</time>
      </trkpt>
      <trkpt lat="37.407275" lon="-4.49187167">
        <ele>474.0</ele>
        <time>2018-05-29T11:27:25.069Z</time>
      </trkpt>
      <trkpt lat="37.407275" lon="-4.49187167">
        <ele>474.0</ele>
        <time>2018-05-29T11:27:26.075Z</time>
      </trkpt>
      <trkpt lat="37.4074" lon="-4.49187833">
        <ele>473.0</ele>
        <time>2018-05-29T11:27:27.059Z</time>
      </trkpt>
      <trkpt lat="37.4074" lon="-4.49187833">
        <ele>473.0</ele>
        <time>2018-05-29T11:27:28.064Z</time>
      </trkpt>
      <trkpt lat="37.407485" lon="-4.49188667">
        <ele>473.0</ele>
        <time>2018-05-29T11:27:29.070Z</time>
      </trkpt>
      <trkpt lat="37.407485" lon="-4.49188667">
        <ele>473.0</ele>
        <time>2018-05-29T11:27:30.076Z</time>
      </trkpt>
      <trkpt lat="37.407525" lon="-4.49189333">
        <ele>473.0</ele>
        <time>2018-05-29T11:27:31.079Z</time>
      </trkpt>
      <trkpt lat="37.40754" lon="-4.491895">
        <ele>473.0</ele>
        <time>2018-05-29T11:27:32.084Z</time>
      </trkpt>
      <trkpt lat="37.40755167" lon="-4.49189">
        <ele>472.0</ele>
        <time>2018-05-29T11:27:33.059Z</time>
      </trkpt>
      <trkpt lat="37.40755833" lon="-4.49188833">
        <ele>473.0</ele>
        <time>2018-05-29T11:27:34.069Z</time>
      </trkpt>
      <trkpt lat="37.40755833" lon="-4.49188833">
        <ele>473.0</ele>
        <time>2018-05-29T11:27:35.083Z</time>
      </trkpt>
      <trkpt lat="37.40759167" lon="-4.491895">
        <ele>476.0</ele>
        <time>2018-05-29T11:27:36.082Z</time>
      </trkpt>
      <trkpt lat="37.40759167" lon="-4.491895">
        <ele>476.0</ele>
        <time>2018-05-29T11:27:37.075Z</time>
      </trkpt>
      <trkpt lat="37.40764833" lon="-4.491925">
        <ele>477.0</ele>
        <time>2018-05-29T11:27:38.082Z</time>
      </trkpt>
      <trkpt lat="37.40764833" lon="-4.491925">
        <ele>477.0</ele>
        <time>2018-05-29T11:27:39.088Z</time>
      </trkpt>
      <trkpt lat="37.40773167" lon="-4.49193667">
        <ele>477.0</ele>
        <time>2018-05-29T11:27:40.076Z</time>
      </trkpt>
      <trkpt lat="37.40773167" lon="-4.49193667">
        <ele>477.0</ele>
        <time>2018-05-29T11:27:41.075Z</time>
      </trkpt>
      <trkpt lat="37.40782" lon="-4.491955">
        <ele>478.0</ele>
        <time>2018-05-29T11:27:42.058Z</time>
      </trkpt>
      <trkpt lat="37.40787167" lon="-4.49195833">
        <ele>477.0</ele>
        <time>2018-05-29T11:27:43.063Z</time>
      </trkpt>
      <trkpt lat="37.40787167" lon="-4.49195833">
        <ele>477.0</ele>
        <time>2018-05-29T11:27:44.064Z</time>
      </trkpt>
      <trkpt lat="37.407975" lon="-4.491975">
        <ele>477.0</ele>
        <time>2018-05-29T11:27:45.082Z</time>
      </trkpt>
      <trkpt lat="37.40803" lon="-4.49198333">
        <ele>477.0</ele>
        <time>2018-05-29T11:27:46.090Z</time>
      </trkpt>
      <trkpt lat="37.40803" lon="-4.49198333">
        <ele>477.0</ele>
        <time>2018-05-29T11:27:47.074Z</time>
      </trkpt>
      <trkpt lat="37.40813167" lon="-4.491995">
        <ele>478.0</ele>
        <time>2018-05-29T11:27:48.061Z</time>
      </trkpt>
      <trkpt lat="37.40813167" lon="-4.491995">
        <ele>478.0</ele>
        <time>2018-05-29T11:27:49.064Z</time>
      </trkpt>
      <trkpt lat="37.40821833" lon="-4.49199667">
        <ele>477.0</ele>
        <time>2018-05-29T11:27:50.089Z</time>
      </trkpt>
      <trkpt lat="37.40821833" lon="-4.49199667">
        <ele>477.0</ele>
        <time>2018-05-29T11:27:51.086Z</time>
      </trkpt>
      <trkpt lat="37.40831333" lon="-4.49200833">
        <ele>477.0</ele>
        <time>2018-05-29T11:27:52.062Z</time>
      </trkpt>
      <trkpt lat="37.40831333" lon="-4.49200833">
        <ele>477.0</ele>
        <time>2018-05-29T11:27:53.142Z</time>
      </trkpt>
      <trkpt lat="37.40842167" lon="-4.49203">
        <ele>477.0</ele>
        <time>2018-05-29T11:27:54.086Z</time>
      </trkpt>
      <trkpt lat="37.40848333" lon="-4.49203833">
        <ele>477.0</ele>
        <time>2018-05-29T11:27:55.072Z</time>
      </trkpt>
      <trkpt lat="37.40848333" lon="-4.49203833">
        <ele>477.0</ele>
        <time>2018-05-29T11:27:56.057Z</time>
      </trkpt>
      <trkpt lat="37.40860333" lon="-4.49206167">
        <ele>477.0</ele>
        <time>2018-05-29T11:27:57.079Z</time>
      </trkpt>
      <trkpt lat="37.40867" lon="-4.49207333">
        <ele>477.0</ele>
        <time>2018-05-29T11:27:58.061Z</time>
      </trkpt>
      <trkpt lat="37.40874" lon="-4.49208">
        <ele>476.0</ele>
        <time>2018-05-29T11:27:59.065Z</time>
      </trkpt>
      <trkpt lat="37.40874" lon="-4.49208">
        <ele>476.0</ele>
        <time>2018-05-29T11:28:00.094Z</time>
      </trkpt>
      <trkpt lat="37.40887" lon="-4.49207833">
        <ele>478.0</ele>
        <time>2018-05-29T11:28:01.072Z</time>
      </trkpt>
      <trkpt lat="37.40894333" lon="-4.49208">
        <ele>478.0</ele>
        <time>2018-05-29T11:28:02.073Z</time>
      </trkpt>
      <trkpt lat="37.40901833" lon="-4.49208333">
        <ele>478.0</ele>
        <time>2018-05-29T11:28:03.069Z</time>
      </trkpt>
      <trkpt lat="37.40901833" lon="-4.49208333">
        <ele>478.0</ele>
        <time>2018-05-29T11:28:04.070Z</time>
      </trkpt>
      <trkpt lat="37.40917333" lon="-4.49209667">
        <ele>477.0</ele>
        <time>2018-05-29T11:28:05.086Z</time>
      </trkpt>
      <trkpt lat="37.40925167" lon="-4.49210167">
        <ele>476.0</ele>
        <time>2018-05-29T11:28:06.064Z</time>
      </trkpt>
      <trkpt lat="37.40933167" lon="-4.49211">
        <ele>476.0</ele>
        <time>2018-05-29T11:28:07.102Z</time>
      </trkpt>
      <trkpt lat="37.40933167" lon="-4.49211">
        <ele>476.0</ele>
        <time>2018-05-29T11:28:08.093Z</time>
      </trkpt>
      <trkpt lat="37.40949" lon="-4.49213667">
        <ele>476.0</ele>
        <time>2018-05-29T11:28:09.071Z</time>
      </trkpt>
      <trkpt lat="37.40956833" lon="-4.49215333">
        <ele>476.0</ele>
        <time>2018-05-29T11:28:10.082Z</time>
      </trkpt>
      <trkpt lat="37.40956833" lon="-4.49215333">
        <ele>476.0</ele>
        <time>2018-05-29T11:28:11.076Z</time>
      </trkpt>
      <trkpt lat="37.40973" lon="-4.492185">
        <ele>477.0</ele>
        <time>2018-05-29T11:28:12.097Z</time>
      </trkpt>
      <trkpt lat="37.40973" lon="-4.492185">
        <ele>477.0</ele>
        <time>2018-05-29T11:28:13.075Z</time>
      </trkpt>
      <trkpt lat="37.40989667" lon="-4.49220833">
        <ele>477.0</ele>
        <time>2018-05-29T11:28:14.090Z</time>
      </trkpt>
      <trkpt lat="37.40989667" lon="-4.49220833">
        <ele>477.0</ele>
        <time>2018-05-29T11:28:15.084Z</time>
      </trkpt>
      <trkpt lat="37.410055" lon="-4.49223167">
        <ele>478.0</ele>
        <time>2018-05-29T11:28:16.062Z</time>
      </trkpt>
      <trkpt lat="37.410055" lon="-4.49223167">
        <ele>478.0</ele>
        <time>2018-05-29T11:28:17.076Z</time>
      </trkpt>
      <trkpt lat="37.41018833" lon="-4.49225">
        <ele>478.0</ele>
        <time>2018-05-29T11:28:18.095Z</time>
      </trkpt>
      <trkpt lat="37.41018833" lon="-4.49225">
        <ele>478.0</ele>
        <time>2018-05-29T11:28:19.084Z</time>
      </trkpt>
      <trkpt lat="37.41031833" lon="-4.49227333">
        <ele>478.0</ele>
        <time>2018-05-29T11:28:20.057Z</time>
      </trkpt>
      <trkpt lat="37.41031833" lon="-4.49227333">
        <ele>478.0</ele>
        <time>2018-05-29T11:28:21.090Z</time>
      </trkpt>
      <trkpt lat="37.41044" lon="-4.49228">
        <ele>478.0</ele>
        <time>2018-05-29T11:28:22.073Z</time>
      </trkpt>
      <trkpt lat="37.41044" lon="-4.49228">
        <ele>478.0</ele>
        <time>2018-05-29T11:28:23.074Z</time>
      </trkpt>
      <trkpt lat="37.410555" lon="-4.49228667">
        <ele>479.0</ele>
        <time>2018-05-29T11:28:24.094Z</time>
      </trkpt>
      <trkpt lat="37.410555" lon="-4.49228667">
        <ele>479.0</ele>
        <time>2018-05-29T11:28:25.086Z</time>
      </trkpt>
      <trkpt lat="37.41068833" lon="-4.49229">
        <ele>479.0</ele>
        <time>2018-05-29T11:28:26.063Z</time>
      </trkpt>
      <trkpt lat="37.41075167" lon="-4.49229833">
        <ele>479.0</ele>
        <time>2018-05-29T11:28:27.093Z</time>
      </trkpt>
      <trkpt lat="37.41081833" lon="-4.492305">
        <ele>478.0</ele>
        <time>2018-05-29T11:28:28.088Z</time>
      </trkpt>
      <trkpt lat="37.41081833" lon="-4.492305">
        <ele>478.0</ele>
        <time>2018-05-29T11:28:29.059Z</time>
      </trkpt>
      <trkpt lat="37.41094333" lon="-4.49232833">
        <ele>478.0</ele>
        <time>2018-05-29T11:28:30.077Z</time>
      </trkpt>
      <trkpt lat="37.41094333" lon="-4.49232833">
        <ele>478.0</ele>
        <time>2018-05-29T11:28:31.075Z</time>
      </trkpt>
      <trkpt lat="37.411065" lon="-4.492355">
        <ele>477.0</ele>
        <time>2018-05-29T11:28:32.094Z</time>
      </trkpt>
      <trkpt lat="37.411065" lon="-4.492355">
        <ele>477.0</ele>
        <time>2018-05-29T11:28:33.084Z</time>
      </trkpt>
      <trkpt lat="37.411195" lon="-4.49236667">
        <ele>476.0</ele>
        <time>2018-05-29T11:28:34.061Z</time>
      </trkpt>
      <trkpt lat="37.411195" lon="-4.49236667">
        <ele>476.0</ele>
        <time>2018-05-29T11:28:35.084Z</time>
      </trkpt>
      <trkpt lat="37.41132167" lon="-4.492385">
        <ele>476.0</ele>
        <time>2018-05-29T11:28:36.059Z</time>
      </trkpt>
      <trkpt lat="37.41138" lon="-4.49238667">
        <ele>476.0</ele>
        <time>2018-05-29T11:28:37.071Z</time>
      </trkpt>
      <trkpt lat="37.41138" lon="-4.49238667">
        <ele>476.0</ele>
        <time>2018-05-29T11:28:38.083Z</time>
      </trkpt>
      <trkpt lat="37.41151" lon="-4.49239667">
        <ele>473.0</ele>
        <time>2018-05-29T11:28:39.072Z</time>
      </trkpt>
      <trkpt lat="37.41157667" lon="-4.49240667">
        <ele>472.0</ele>
        <time>2018-05-29T11:28:40.092Z</time>
      </trkpt>
      <trkpt lat="37.41157667" lon="-4.49240667">
        <ele>472.0</ele>
        <time>2018-05-29T11:28:41.072Z</time>
      </trkpt>
      <trkpt lat="37.41168167" lon="-4.49247">
        <ele>470.0</ele>
        <time>2018-05-29T11:28:42.087Z</time>
      </trkpt>
      <trkpt lat="37.41170833" lon="-4.49252333">
        <ele>469.0</ele>
        <time>2018-05-29T11:28:43.094Z</time>
      </trkpt>
      <trkpt lat="37.41170833" lon="-4.49252333">
        <ele>469.0</ele>
        <time>2018-05-29T11:28:44.075Z</time>
      </trkpt>
      <trkpt lat="37.41169167" lon="-4.49265">
        <ele>468.0</ele>
        <time>2018-05-29T11:28:45.090Z</time>
      </trkpt>
      <trkpt lat="37.411665" lon="-4.49271">
        <ele>467.0</ele>
        <time>2018-05-29T11:28:46.087Z</time>
      </trkpt>
      <trkpt lat="37.411665" lon="-4.49271">
        <ele>467.0</ele>
        <time>2018-05-29T11:28:47.076Z</time>
      </trkpt>
      <trkpt lat="37.41161833" lon="-4.49278667">
        <ele>465.0</ele>
        <time>2018-05-29T11:28:48.062Z</time>
      </trkpt>
      <trkpt lat="37.41161833" lon="-4.49278667">
        <ele>465.0</ele>
        <time>2018-05-29T11:28:49.094Z</time>
      </trkpt>
      <trkpt lat="37.41156" lon="-4.492805">
        <ele>464.0</ele>
        <time>2018-05-29T11:28:50.072Z</time>
      </trkpt>
      <trkpt lat="37.41156" lon="-4.492805">
        <ele>464.0</ele>
        <time>2018-05-29T11:28:51.060Z</time>
      </trkpt>
      <trkpt lat="37.41149667" lon="-4.492835">
        <ele>464.0</ele>
        <time>2018-05-29T11:28:52.092Z</time>
      </trkpt>
      <trkpt lat="37.41149667" lon="-4.492835">
        <ele>464.0</ele>
        <time>2018-05-29T11:28:53.260Z</time>
      </trkpt>
      <trkpt lat="37.41144167" lon="-4.49286167">
        <ele>463.0</ele>
        <time>2018-05-29T11:28:54.081Z</time>
      </trkpt>
      <trkpt lat="37.41144167" lon="-4.49286167">
        <ele>463.0</ele>
        <time>2018-05-29T11:28:55.093Z</time>
      </trkpt>
      <trkpt lat="37.41138333" lon="-4.49287167">
        <ele>463.0</ele>
        <time>2018-05-29T11:28:56.084Z</time>
      </trkpt>
      <trkpt lat="37.41135667" lon="-4.49286667">
        <ele>463.0</ele>
        <time>2018-05-29T11:28:57.085Z</time>
      </trkpt>
      <trkpt lat="37.41135667" lon="-4.49286667">
        <ele>463.0</ele>
        <time>2018-05-29T11:28:58.063Z</time>
      </trkpt>
      <trkpt lat="37.41129833" lon="-4.49286667">
        <ele>462.0</ele>
        <time>2018-05-29T11:28:59.082Z</time>
      </trkpt>
      <trkpt lat="37.41127" lon="-4.492875">
        <ele>461.0</ele>
        <time>2018-05-29T11:29:00.092Z</time>
      </trkpt>
      <trkpt lat="37.41127" lon="-4.492875">
        <ele>461.0</ele>
        <time>2018-05-29T11:29:01.066Z</time>
      </trkpt>
      <trkpt lat="37.41121333" lon="-4.49288167">
        <ele>461.0</ele>
        <time>2018-05-29T11:29:02.082Z</time>
      </trkpt>
      <trkpt lat="37.41118" lon="-4.49288833">
        <ele>461.0</ele>
        <time>2018-05-29T11:29:03.097Z</time>
      </trkpt>
      <trkpt lat="37.41114833" lon="-4.49289167">
        <ele>460.0</ele>
        <time>2018-05-29T11:29:04.100Z</time>
      </trkpt>
      <trkpt lat="37.41114833" lon="-4.49289167">
        <ele>460.0</ele>
        <time>2018-05-29T11:29:05.091Z</time>
      </trkpt>
      <trkpt lat="37.41109" lon="-4.49289333">
        <ele>459.0</ele>
        <time>2018-05-29T11:29:06.072Z</time>
      </trkpt>
      <trkpt lat="37.41106" lon="-4.49289">
        <ele>459.0</ele>
        <time>2018-05-29T11:29:07.056Z</time>
      </trkpt>
      <trkpt lat="37.41106" lon="-4.49289">
        <ele>459.0</ele>
        <time>2018-05-29T11:29:08.082Z</time>
      </trkpt>
      <trkpt lat="37.41100333" lon="-4.49287167">
        <ele>458.0</ele>
        <time>2018-05-29T11:29:09.056Z</time>
      </trkpt>
      <trkpt lat="37.41097667" lon="-4.49285833">
        <ele>458.0</ele>
        <time>2018-05-29T11:29:10.060Z</time>
      </trkpt>
      <trkpt lat="37.41097667" lon="-4.49285833">
        <ele>458.0</ele>
        <time>2018-05-29T11:29:11.084Z</time>
      </trkpt>
      <trkpt lat="37.41094333" lon="-4.49284">
        <ele>458.0</ele>
        <time>2018-05-29T11:29:12.062Z</time>
      </trkpt>
      <trkpt lat="37.41094333" lon="-4.49284">
        <ele>458.0</ele>
        <time>2018-05-29T11:29:13.089Z</time>
      </trkpt>
      <trkpt lat="37.41094333" lon="-4.49282167">
        <ele>457.0</ele>
        <time>2018-05-29T11:29:14.074Z</time>
      </trkpt>
      <trkpt lat="37.41094667" lon="-4.492815">
        <ele>457.0</ele>
        <time>2018-05-29T11:29:15.099Z</time>
      </trkpt>
      <trkpt lat="37.41094667" lon="-4.492815">
        <ele>457.0</ele>
        <time>2018-05-29T11:29:16.082Z</time>
      </trkpt>
      <trkpt lat="37.41248" lon="-4.49240833">
        <ele>449.0</ele>
        <time>2018-06-09T07:01:47.181Z</time>
      </trkpt>
      <trkpt lat="37.41254167" lon="-4.49237">
        <ele>455.0</ele>
        <time>2018-06-09T07:01:48.196Z</time>
      </trkpt>
      <trkpt lat="37.41254167" lon="-4.49237">
        <ele>455.0</ele>
        <time>2018-06-09T07:01:49.184Z</time>
      </trkpt>
      <trkpt lat="37.41258" lon="-4.492365">
        <ele>455.0</ele>
        <time>2018-06-09T07:01:50.186Z</time>
      </trkpt>
      <trkpt lat="37.4126" lon="-4.49236167">
        <ele>455.0</ele>
        <time>2018-06-09T07:01:51.187Z</time>
      </trkpt>
      <trkpt lat="37.4126" lon="-4.49236167">
        <ele>455.0</ele>
        <time>2018-06-09T07:01:52.183Z</time>
      </trkpt>
      <trkpt lat="37.412625" lon="-4.492365">
        <ele>455.0</ele>
        <time>2018-06-09T07:01:53.185Z</time>
      </trkpt>
      <trkpt lat="37.412625" lon="-4.492365">
        <ele>455.0</ele>
        <time>2018-06-09T07:01:54.182Z</time>
      </trkpt>
      <trkpt lat="37.41265" lon="-4.49239167">
        <ele>455.0</ele>
        <time>2018-06-09T07:01:55.183Z</time>
      </trkpt>
      <trkpt lat="37.41266833" lon="-4.49241">
        <ele>455.0</ele>
        <time>2018-06-09T07:01:56.183Z</time>
      </trkpt>
      <trkpt lat="37.412685" lon="-4.49244">
        <ele>454.0</ele>
        <time>2018-06-09T07:01:57.187Z</time>
      </trkpt>
      <trkpt lat="37.412685" lon="-4.49244">
        <ele>454.0</ele>
        <time>2018-06-09T07:01:58.180Z</time>
      </trkpt>
      <trkpt lat="37.41272333" lon="-4.492515">
        <ele>454.0</ele>
        <time>2018-06-09T07:01:59.183Z</time>
      </trkpt>
      <trkpt lat="37.41272333" lon="-4.492515">
        <ele>454.0</ele>
        <time>2018-06-09T07:02:00.181Z</time>
      </trkpt>
      <trkpt lat="37.41277667" lon="-4.49257667">
        <ele>453.0</ele>
        <time>2018-06-09T07:02:01.186Z</time>
      </trkpt>
      <trkpt lat="37.41277667" lon="-4.49257667">
        <ele>453.0</ele>
        <time>2018-06-09T07:02:02.179Z</time>
      </trkpt>
      <trkpt lat="37.41285833" lon="-4.49262333">
        <ele>452.0</ele>
        <time>2018-06-09T07:02:03.186Z</time>
      </trkpt>
      <trkpt lat="37.41290833" lon="-4.49263833">
        <ele>452.0</ele>
        <time>2018-06-09T07:02:04.188Z</time>
      </trkpt>
      <trkpt lat="37.41290833" lon="-4.49263833">
        <ele>452.0</ele>
        <time>2018-06-09T07:02:05.188Z</time>
      </trkpt>
      <trkpt lat="37.41302833" lon="-4.49267333">
        <ele>451.0</ele>
        <time>2018-06-09T07:02:06.179Z</time>
      </trkpt>
      <trkpt lat="37.41309167" lon="-4.492695">
        <ele>450.0</ele>
        <time>2018-06-09T07:02:07.185Z</time>
      </trkpt>
      <trkpt lat="37.41309167" lon="-4.492695">
        <ele>450.0</ele>
        <time>2018-06-09T07:02:08.181Z</time>
      </trkpt>
      <trkpt lat="37.41321833" lon="-4.49273167">
        <ele>449.0</ele>
        <time>2018-06-09T07:02:09.184Z</time>
      </trkpt>
      <trkpt lat="37.41321833" lon="-4.49273167">
        <ele>449.0</ele>
        <time>2018-06-09T07:02:10.174Z</time>
      </trkpt>
      <trkpt lat="37.41332333" lon="-4.49271833">
        <ele>449.0</ele>
        <time>2018-06-09T07:02:11.161Z</time>
      </trkpt>
      <trkpt lat="37.41332333" lon="-4.49271833">
        <ele>449.0</ele>
        <time>2018-06-09T07:02:12.186Z</time>
      </trkpt>
      <trkpt lat="37.41338" lon="-4.49263833">
        <ele>448.0</ele>
        <time>2018-06-09T07:02:13.184Z</time>
      </trkpt>
      <trkpt lat="37.41338" lon="-4.49263833">
        <ele>448.0</ele>
        <time>2018-06-09T07:02:14.179Z</time>
      </trkpt>
      <trkpt lat="37.413395" lon="-4.49254">
        <ele>448.0</ele>
        <time>2018-06-09T07:02:15.179Z</time>
      </trkpt>
      <trkpt lat="37.413395" lon="-4.49254">
        <ele>448.0</ele>
        <time>2018-06-09T07:02:16.179Z</time>
      </trkpt>
      <trkpt lat="37.41339833" lon="-4.492445">
        <ele>449.0</ele>
        <time>2018-06-09T07:02:17.185Z</time>
      </trkpt>
      <trkpt lat="37.41339667" lon="-4.49239833">
        <ele>449.0</ele>
        <time>2018-06-09T07:02:18.182Z</time>
      </trkpt>
      <trkpt lat="37.41339" lon="-4.49235333">
        <ele>449.0</ele>
        <time>2018-06-09T07:02:19.186Z</time>
      </trkpt>
      <trkpt lat="37.41338333" lon="-4.49231">
        <ele>449.0</ele>
        <time>2018-06-09T07:02:20.186Z</time>
      </trkpt>
      <trkpt lat="37.41338333" lon="-4.49231">
        <ele>449.0</ele>
        <time>2018-06-09T07:02:21.182Z</time>
      </trkpt>
      <trkpt lat="37.413375" lon="-4.49222">
        <ele>450.0</ele>
        <time>2018-06-09T07:02:22.185Z</time>
      </trkpt>
      <trkpt lat="37.413375" lon="-4.49222">
        <ele>450.0</ele>
        <time>2018-06-09T07:02:23.175Z</time>
      </trkpt>
      <trkpt lat="37.41337" lon="-4.49212833">
        <ele>450.0</ele>
        <time>2018-06-09T07:02:24.185Z</time>
      </trkpt>
      <trkpt lat="37.41337" lon="-4.49212833">
        <ele>450.0</ele>
        <time>2018-06-09T07:02:25.180Z</time>
      </trkpt>
      <trkpt lat="37.413365" lon="-4.49203667">
        <ele>451.0</ele>
        <time>2018-06-09T07:02:26.180Z</time>
      </trkpt>
      <trkpt lat="37.41336167" lon="-4.49199167">
        <ele>451.0</ele>
        <time>2018-06-09T07:02:27.185Z</time>
      </trkpt>
      <trkpt lat="37.41336167" lon="-4.49199167">
        <ele>451.0</ele>
        <time>2018-06-09T07:02:28.179Z</time>
      </trkpt>
      <trkpt lat="37.41336167" lon="-4.49189833">
        <ele>451.0</ele>
        <time>2018-06-09T07:02:29.185Z</time>
      </trkpt>
      <trkpt lat="37.41336167" lon="-4.49189833">
        <ele>451.0</ele>
        <time>2018-06-09T07:02:30.175Z</time>
      </trkpt>
      <trkpt lat="37.41335333" lon="-4.49180667">
        <ele>452.0</ele>
        <time>2018-06-09T07:02:31.159Z</time>
      </trkpt>
      <trkpt lat="37.41335333" lon="-4.49180667">
        <ele>452.0</ele>
        <time>2018-06-09T07:02:32.186Z</time>
      </trkpt>
      <trkpt lat="37.41334833" lon="-4.49171167">
        <ele>453.0</ele>
        <time>2018-06-09T07:02:33.183Z</time>
      </trkpt>
      <trkpt lat="37.41334833" lon="-4.49166333">
        <ele>454.0</ele>
        <time>2018-06-09T07:02:34.187Z</time>
      </trkpt>
      <trkpt lat="37.41334833" lon="-4.49166333">
        <ele>454.0</ele>
        <time>2018-06-09T07:02:35.178Z</time>
      </trkpt>
      <trkpt lat="37.41335167" lon="-4.49157167">
        <ele>454.0</ele>
        <time>2018-06-09T07:02:36.183Z</time>
      </trkpt>
      <trkpt lat="37.41335333" lon="-4.49152667">
        <ele>454.0</ele>
        <time>2018-06-09T07:02:37.175Z</time>
      </trkpt>
      <trkpt lat="37.41335333" lon="-4.49152667">
        <ele>454.0</ele>
        <time>2018-06-09T07:02:38.178Z</time>
      </trkpt>
      <trkpt lat="37.41335333" lon="-4.49144">
        <ele>455.0</ele>
        <time>2018-06-09T07:02:39.195Z</time>
      </trkpt>
      <trkpt lat="37.41334833" lon="-4.4914">
        <ele>455.0</ele>
        <time>2018-06-09T07:02:40.184Z</time>
      </trkpt>
      <trkpt lat="37.41334833" lon="-4.4914">
        <ele>455.0</ele>
        <time>2018-06-09T07:02:41.182Z</time>
      </trkpt>
      <trkpt lat="37.413335" lon="-4.49133167">
        <ele>455.0</ele>
        <time>2018-06-09T07:02:42.183Z</time>
      </trkpt>
      <trkpt lat="37.41332667" lon="-4.49130333">
        <ele>456.0</ele>
        <time>2018-06-09T07:02:43.185Z</time>
      </trkpt>
      <trkpt lat="37.41332667" lon="-4.49130333">
        <ele>456.0</ele>
        <time>2018-06-09T07:02:44.182Z</time>
      </trkpt>
      <trkpt lat="37.41332167" lon="-4.491255">
        <ele>456.0</ele>
        <time>2018-06-09T07:02:45.182Z</time>
      </trkpt>
      <trkpt lat="37.41332333" lon="-4.49124">
        <ele>457.0</ele>
        <time>2018-06-09T07:02:46.184Z</time>
      </trkpt>
      <trkpt lat="37.41332333" lon="-4.49123">
        <ele>457.0</ele>
        <time>2018-06-09T07:02:47.182Z</time>
      </trkpt>
      <trkpt lat="37.41332333" lon="-4.49122167">
        <ele>457.0</ele>
        <time>2018-06-09T07:02:48.183Z</time>
      </trkpt>
      <trkpt lat="37.41332333" lon="-4.49122167">
        <ele>457.0</ele>
        <time>2018-06-09T07:02:49.183Z</time>
      </trkpt>
      <trkpt lat="37.41332667" lon="-4.49118333">
        <ele>457.0</ele>
        <time>2018-06-09T07:02:50.185Z</time>
      </trkpt>
      <trkpt lat="37.413345" lon="-4.49115">
        <ele>457.0</ele>
        <time>2018-06-09T07:02:51.184Z</time>
      </trkpt>
      <trkpt lat="37.413345" lon="-4.49115">
        <ele>457.0</ele>
        <time>2018-06-09T07:02:52.178Z</time>
      </trkpt>
      <trkpt lat="37.41342" lon="-4.49110667">
        <ele>457.0</ele>
        <time>2018-06-09T07:02:53.158Z</time>
      </trkpt>
      <trkpt lat="37.41342" lon="-4.49110667">
        <ele>457.0</ele>
        <time>2018-06-09T07:02:54.179Z</time>
      </trkpt>
      <trkpt lat="37.41351167" lon="-4.49108">
        <ele>457.0</ele>
        <time>2018-06-09T07:02:55.176Z</time>
      </trkpt>
      <trkpt lat="37.41356333" lon="-4.49107">
        <ele>457.0</ele>
        <time>2018-06-09T07:02:56.185Z</time>
      </trkpt>
      <trkpt lat="37.41356333" lon="-4.49107">
        <ele>457.0</ele>
        <time>2018-06-09T07:02:57.182Z</time>
      </trkpt>
      <trkpt lat="37.41367667" lon="-4.49104667">
        <ele>457.0</ele>
        <time>2018-06-09T07:02:58.184Z</time>
      </trkpt>
      <trkpt lat="37.41373667" lon="-4.49103667">
        <ele>457.0</ele>
        <time>2018-06-09T07:02:59.182Z</time>
      </trkpt>
      <trkpt lat="37.41373667" lon="-4.49103667">
        <ele>457.0</ele>
        <time>2018-06-09T07:03:00.178Z</time>
      </trkpt>
      <trkpt lat="37.41386" lon="-4.491">
        <ele>457.0</ele>
        <time>2018-06-09T07:03:01.157Z</time>
      </trkpt>
      <trkpt lat="37.41386" lon="-4.491">
        <ele>457.0</ele>
        <time>2018-06-09T07:03:02.195Z</time>
      </trkpt>
      <trkpt lat="37.41399" lon="-4.49094833">
        <ele>455.0</ele>
        <time>2018-06-09T07:03:03.184Z</time>
      </trkpt>
      <trkpt lat="37.41399" lon="-4.49094833">
        <ele>455.0</ele>
        <time>2018-06-09T07:03:04.175Z</time>
      </trkpt>
      <trkpt lat="37.41412667" lon="-4.49090333">
        <ele>455.0</ele>
        <time>2018-06-09T07:03:05.196Z</time>
      </trkpt>
      <trkpt lat="37.41419667" lon="-4.49088">
        <ele>455.0</ele>
        <time>2018-06-09T07:03:06.185Z</time>
      </trkpt>
      <trkpt lat="37.41426833" lon="-4.490855">
        <ele>454.0</ele>
        <time>2018-06-09T07:03:07.187Z</time>
      </trkpt>
      <trkpt lat="37.41426833" lon="-4.490855">
        <ele>454.0</ele>
        <time>2018-06-09T07:03:08.182Z</time>
      </trkpt>
      <trkpt lat="37.41441833" lon="-4.49081167">
        <ele>453.0</ele>
        <time>2018-06-09T07:03:09.195Z</time>
      </trkpt>
      <trkpt lat="37.41449667" lon="-4.4908">
        <ele>454.0</ele>
        <time>2018-06-09T07:03:10.183Z</time>
      </trkpt>
      <trkpt lat="37.41449667" lon="-4.4908">
        <ele>454.0</ele>
        <time>2018-06-09T07:03:11.175Z</time>
      </trkpt>
      <trkpt lat="37.41465833" lon="-4.49077667">
        <ele>453.0</ele>
        <time>2018-06-09T07:03:12.164Z</time>
      </trkpt>
      <trkpt lat="37.41465833" lon="-4.49077667">
        <ele>453.0</ele>
        <time>2018-06-09T07:03:13.189Z</time>
      </trkpt>
      <trkpt lat="37.414825" lon="-4.49075">
        <ele>453.0</ele>
        <time>2018-06-09T07:03:14.184Z</time>
      </trkpt>
      <trkpt lat="37.414825" lon="-4.49075">
        <ele>453.0</ele>
        <time>2018-06-09T07:03:15.179Z</time>
      </trkpt>
      <trkpt lat="37.41499167" lon="-4.490725">
        <ele>452.0</ele>
        <time>2018-06-09T07:03:16.158Z</time>
      </trkpt>
      <trkpt lat="37.41499167" lon="-4.490725">
        <ele>452.0</ele>
        <time>2018-06-09T07:03:17.183Z</time>
      </trkpt>
      <trkpt lat="37.41515833" lon="-4.49069667">
        <ele>451.0</ele>
        <time>2018-06-09T07:03:18.184Z</time>
      </trkpt>
      <trkpt lat="37.41515833" lon="-4.49069667">
        <ele>451.0</ele>
        <time>2018-06-09T07:03:19.182Z</time>
      </trkpt>
      <trkpt lat="37.415325" lon="-4.49068167">
        <ele>450.0</ele>
        <time>2018-06-09T07:03:20.184Z</time>
      </trkpt>
      <trkpt lat="37.41540667" lon="-4.49067833">
        <ele>450.0</ele>
        <time>2018-06-09T07:03:21.184Z</time>
      </trkpt>
      <trkpt lat="37.41540667" lon="-4.49067833">
        <ele>450.0</ele>
        <time>2018-06-09T07:03:22.175Z</time>
      </trkpt>
      <trkpt lat="37.41557167" lon="-4.490685">
        <ele>449.0</ele>
        <time>2018-06-09T07:03:23.157Z</time>
      </trkpt>
      <trkpt lat="37.41565333" lon="-4.490695">
        <ele>449.0</ele>
        <time>2018-06-09T07:03:24.184Z</time>
      </trkpt>
      <trkpt lat="37.41565333" lon="-4.490695">
        <ele>449.0</ele>
        <time>2018-06-09T07:03:25.180Z</time>
      </trkpt>
      <trkpt lat="37.41580833" lon="-4.49072167">
        <ele>448.0</ele>
        <time>2018-06-09T07:03:26.183Z</time>
      </trkpt>
      <trkpt lat="37.41580833" lon="-4.49072167">
        <ele>448.0</ele>
        <time>2018-06-09T07:03:27.183Z</time>
      </trkpt>
      <trkpt lat="37.41594333" lon="-4.49074333">
        <ele>448.0</ele>
        <time>2018-06-09T07:03:28.184Z</time>
      </trkpt>
      <trkpt lat="37.41594333" lon="-4.49074333">
        <ele>448.0</ele>
        <time>2018-06-09T07:03:29.177Z</time>
      </trkpt>
      <trkpt lat="37.41604333" lon="-4.49074833">
        <ele>448.0</ele>
        <time>2018-06-09T07:03:30.157Z</time>
      </trkpt>
      <trkpt lat="37.41608333" lon="-4.490755">
        <ele>448.0</ele>
        <time>2018-06-09T07:03:31.184Z</time>
      </trkpt>
      <trkpt lat="37.41608333" lon="-4.490755">
        <ele>448.0</ele>
        <time>2018-06-09T07:03:32.187Z</time>
      </trkpt>
      <trkpt lat="37.41615667" lon="-4.49077167">
        <ele>447.0</ele>
        <time>2018-06-09T07:03:33.180Z</time>
      </trkpt>
      <trkpt lat="37.41615667" lon="-4.49077167">
        <ele>447.0</ele>
        <time>2018-06-09T07:03:34.179Z</time>
      </trkpt>
      <trkpt lat="37.416235" lon="-4.49081167">
        <ele>447.0</ele>
        <time>2018-06-09T07:03:35.181Z</time>
      </trkpt>
      <trkpt lat="37.41627333" lon="-4.49084667">
        <ele>447.0</ele>
        <time>2018-06-09T07:03:36.175Z</time>
      </trkpt>
      <trkpt lat="37.41627333" lon="-4.49084667">
        <ele>447.0</ele>
        <time>2018-06-09T07:03:37.166Z</time>
      </trkpt>
      <trkpt lat="37.416345" lon="-4.490935">
        <ele>447.0</ele>
        <time>2018-06-09T07:03:38.189Z</time>
      </trkpt>
      <trkpt lat="37.41638167" lon="-4.49098333">
        <ele>447.0</ele>
        <time>2018-06-09T07:03:39.185Z</time>
      </trkpt>
      <trkpt lat="37.41638167" lon="-4.49098333">
        <ele>447.0</ele>
        <time>2018-06-09T07:03:40.179Z</time>
      </trkpt>
      <trkpt lat="37.41645333" lon="-4.49108667">
        <ele>447.0</ele>
        <time>2018-06-09T07:03:41.187Z</time>
      </trkpt>
      <trkpt lat="37.41645333" lon="-4.49108667">
        <ele>447.0</ele>
        <time>2018-06-09T07:03:42.181Z</time>
      </trkpt>
      <trkpt lat="37.41652333" lon="-4.49119667">
        <ele>447.0</ele>
        <time>2018-06-09T07:03:43.186Z</time>
      </trkpt>
      <trkpt lat="37.41652333" lon="-4.49119667">
        <ele>447.0</ele>
        <time>2018-06-09T07:03:44.182Z</time>
      </trkpt>
      <trkpt lat="37.416595" lon="-4.49130333">
        <ele>447.0</ele>
        <time>2018-06-09T07:03:45.180Z</time>
      </trkpt>
      <trkpt lat="37.41663167" lon="-4.49135333">
        <ele>446.0</ele>
        <time>2018-06-09T07:03:46.186Z</time>
      </trkpt>
      <trkpt lat="37.41663167" lon="-4.49135333">
        <ele>446.0</ele>
        <time>2018-06-09T07:03:47.173Z</time>
      </trkpt>
      <trkpt lat="37.41670667" lon="-4.491455">
        <ele>446.0</ele>
        <time>2018-06-09T07:03:48.196Z</time>
      </trkpt>
      <trkpt lat="37.41670667" lon="-4.491455">
        <ele>446.0</ele>
        <time>2018-06-09T07:03:49.183Z</time>
      </trkpt>
      <trkpt lat="37.416785" lon="-4.49154167">
        <ele>447.0</ele>
        <time>2018-06-09T07:03:50.184Z</time>
      </trkpt>
      <trkpt lat="37.416825" lon="-4.49158167">
        <ele>447.0</ele>
        <time>2018-06-09T07:03:51.184Z</time>
      </trkpt>
      <trkpt lat="37.416825" lon="-4.49158167">
        <ele>447.0</ele>
        <time>2018-06-09T07:03:52.181Z</time>
      </trkpt>
      <trkpt lat="37.41689833" lon="-4.49166333">
        <ele>447.0</ele>
        <time>2018-06-09T07:03:53.184Z</time>
      </trkpt>
      <trkpt lat="37.41689833" lon="-4.49166333">
        <ele>447.0</ele>
        <time>2018-06-09T07:03:54.179Z</time>
      </trkpt>
      <trkpt lat="37.41697167" lon="-4.49174167">
        <ele>447.0</ele>
        <time>2018-06-09T07:03:55.184Z</time>
      </trkpt>
      <trkpt lat="37.41701" lon="-4.49178">
        <ele>447.0</ele>
        <time>2018-06-09T07:03:56.185Z</time>
      </trkpt>
      <trkpt lat="37.41701" lon="-4.49178">
        <ele>447.0</ele>
        <time>2018-06-09T07:03:57.196Z</time>
      </trkpt>
      <trkpt lat="37.417075" lon="-4.49186167">
        <ele>447.0</ele>
        <time>2018-06-09T07:03:58.183Z</time>
      </trkpt>
      <trkpt lat="37.417075" lon="-4.49186167">
        <ele>447.0</ele>
        <time>2018-06-09T07:03:59.175Z</time>
      </trkpt>
      <trkpt lat="37.41713333" lon="-4.49195167">
        <ele>447.0</ele>
        <time>2018-06-09T07:04:00.165Z</time>
      </trkpt>
      <trkpt lat="37.41716" lon="-4.49199667">
        <ele>447.0</ele>
        <time>2018-06-09T07:04:01.186Z</time>
      </trkpt>
      <trkpt lat="37.41716" lon="-4.49199667">
        <ele>447.0</ele>
        <time>2018-06-09T07:04:02.174Z</time>
      </trkpt>
      <trkpt lat="37.417215" lon="-4.49208167">
        <ele>447.0</ele>
        <time>2018-06-09T07:04:03.196Z</time>
      </trkpt>
      <trkpt lat="37.41724167" lon="-4.49212333">
        <ele>447.0</ele>
        <time>2018-06-09T07:04:04.184Z</time>
      </trkpt>
      <trkpt lat="37.41724167" lon="-4.49212333">
        <ele>447.0</ele>
        <time>2018-06-09T07:04:05.173Z</time>
      </trkpt>
      <trkpt lat="37.41728667" lon="-4.49220333">
        <ele>447.0</ele>
        <time>2018-06-09T07:04:06.158Z</time>
      </trkpt>
      <trkpt lat="37.41728667" lon="-4.49220333">
        <ele>447.0</ele>
        <time>2018-06-09T07:04:07.183Z</time>
      </trkpt>
      <trkpt lat="37.41732333" lon="-4.49227667">
        <ele>447.0</ele>
        <time>2018-06-09T07:04:08.184Z</time>
      </trkpt>
      <trkpt lat="37.41732333" lon="-4.49227667">
        <ele>447.0</ele>
        <time>2018-06-09T07:04:09.179Z</time>
      </trkpt>
      <trkpt lat="37.417365" lon="-4.49235333">
        <ele>447.0</ele>
        <time>2018-06-09T07:04:10.158Z</time>
      </trkpt>
      <trkpt lat="37.417365" lon="-4.49235333">
        <ele>447.0</ele>
        <time>2018-06-09T07:04:11.181Z</time>
      </trkpt>
      <trkpt lat="37.4174" lon="-4.49242167">
        <ele>447.0</ele>
        <time>2018-06-09T07:04:12.195Z</time>
      </trkpt>
      <trkpt lat="37.4174" lon="-4.49242167">
        <ele>447.0</ele>
        <time>2018-06-09T07:04:13.183Z</time>
      </trkpt>
      <trkpt lat="37.41743667" lon="-4.49249167">
        <ele>448.0</ele>
        <time>2018-06-09T07:04:14.183Z</time>
      </trkpt>
      <trkpt lat="37.41743667" lon="-4.49249167">
        <ele>448.0</ele>
        <time>2018-06-09T07:04:15.179Z</time>
      </trkpt>
      <trkpt lat="37.41747667" lon="-4.492555">
        <ele>448.0</ele>
        <time>2018-06-09T07:04:16.185Z</time>
      </trkpt>
      <trkpt lat="37.417495" lon="-4.49258833">
        <ele>448.0</ele>
        <time>2018-06-09T07:04:17.190Z</time>
      </trkpt>
      <trkpt lat="37.417495" lon="-4.49258833">
        <ele>448.0</ele>
        <time>2018-06-09T07:04:18.180Z</time>
      </trkpt>
      <trkpt lat="37.41753333" lon="-4.49265333">
        <ele>448.0</ele>
        <time>2018-06-09T07:04:19.162Z</time>
      </trkpt>
      <trkpt lat="37.41753333" lon="-4.49265333">
        <ele>448.0</ele>
        <time>2018-06-09T07:04:20.184Z</time>
      </trkpt>
      <trkpt lat="37.41756833" lon="-4.49271667">
        <ele>449.0</ele>
        <time>2018-06-09T07:04:21.184Z</time>
      </trkpt>
      <trkpt lat="37.41756833" lon="-4.49271667">
        <ele>449.0</ele>
        <time>2018-06-09T07:04:22.179Z</time>
      </trkpt>
      <trkpt lat="37.417605" lon="-4.49278167">
        <ele>449.0</ele>
        <time>2018-06-09T07:04:23.183Z</time>
      </trkpt>
      <trkpt lat="37.41762333" lon="-4.49281">
        <ele>449.0</ele>
        <time>2018-06-09T07:04:24.184Z</time>
      </trkpt>
      <trkpt lat="37.41762333" lon="-4.49281">
        <ele>449.0</ele>
        <time>2018-06-09T07:04:25.180Z</time>
      </trkpt>
      <trkpt lat="37.41765667" lon="-4.49287333">
        <ele>450.0</ele>
        <time>2018-06-09T07:04:26.183Z</time>
      </trkpt>
      <trkpt lat="37.41765667" lon="-4.49287333">
        <ele>450.0</ele>
        <time>2018-06-09T07:04:27.163Z</time>
      </trkpt>
      <trkpt lat="37.41769333" lon="-4.49293167">
        <ele>450.0</ele>
        <time>2018-06-09T07:04:28.187Z</time>
      </trkpt>
      <trkpt lat="37.41769333" lon="-4.49293167">
        <ele>450.0</ele>
        <time>2018-06-09T07:04:29.181Z</time>
      </trkpt>
      <trkpt lat="37.41773167" lon="-4.49298833">
        <ele>451.0</ele>
        <time>2018-06-09T07:04:30.168Z</time>
      </trkpt>
      <trkpt lat="37.41775" lon="-4.49301833">
        <ele>451.0</ele>
        <time>2018-06-09T07:04:31.163Z</time>
      </trkpt>
      <trkpt lat="37.41775" lon="-4.49301833">
        <ele>451.0</ele>
        <time>2018-06-09T07:04:32.185Z</time>
      </trkpt>
      <trkpt lat="37.41778667" lon="-4.49307333">
        <ele>452.0</ele>
        <time>2018-06-09T07:04:33.184Z</time>
      </trkpt>
      <trkpt lat="37.41778667" lon="-4.49307333">
        <ele>452.0</ele>
        <time>2018-06-09T07:04:34.180Z</time>
      </trkpt>
      <trkpt lat="37.41782333" lon="-4.49313333">
        <ele>452.0</ele>
        <time>2018-06-09T07:04:35.176Z</time>
      </trkpt>
      <trkpt lat="37.41783833" lon="-4.49316333">
        <ele>453.0</ele>
        <time>2018-06-09T07:04:36.158Z</time>
      </trkpt>
      <trkpt lat="37.41783833" lon="-4.49316333">
        <ele>453.0</ele>
        <time>2018-06-09T07:04:37.181Z</time>
      </trkpt>
      <trkpt lat="37.417875" lon="-4.49321667">
        <ele>453.0</ele>
        <time>2018-06-09T07:04:38.196Z</time>
      </trkpt>
      <trkpt lat="37.417875" lon="-4.49321667">
        <ele>453.0</ele>
        <time>2018-06-09T07:04:39.182Z</time>
      </trkpt>
      <trkpt lat="37.417915" lon="-4.49326167">
        <ele>453.0</ele>
        <time>2018-06-09T07:04:40.184Z</time>
      </trkpt>
      <trkpt lat="37.417915" lon="-4.49326167">
        <ele>453.0</ele>
        <time>2018-06-09T07:04:41.178Z</time>
      </trkpt>
      <trkpt lat="37.41795833" lon="-4.493255">
        <ele>454.0</ele>
        <time>2018-06-09T07:04:42.184Z</time>
      </trkpt>
      <trkpt lat="37.41795833" lon="-4.493255">
        <ele>454.0</ele>
        <time>2018-06-09T07:04:43.183Z</time>
      </trkpt>
      <trkpt lat="37.41798667" lon="-4.493205">
        <ele>454.0</ele>
        <time>2018-06-09T07:04:44.184Z</time>
      </trkpt>
      <trkpt lat="37.41798667" lon="-4.493205">
        <ele>454.0</ele>
        <time>2018-06-09T07:04:45.177Z</time>
      </trkpt>
      <trkpt lat="37.41801167" lon="-4.49314">
        <ele>454.0</ele>
        <time>2018-06-09T07:04:46.159Z</time>
      </trkpt>
      <trkpt lat="37.41802333" lon="-4.493105">
        <ele>454.0</ele>
        <time>2018-06-09T07:04:47.184Z</time>
      </trkpt>
      <trkpt lat="37.418035" lon="-4.49306667">
        <ele>454.0</ele>
        <time>2018-06-09T07:04:48.190Z</time>
      </trkpt>
      <trkpt lat="37.418035" lon="-4.49306667">
        <ele>454.0</ele>
        <time>2018-06-09T07:04:49.183Z</time>
      </trkpt>
      <trkpt lat="37.41805833" lon="-4.49298167">
        <ele>454.0</ele>
        <time>2018-06-09T07:04:50.183Z</time>
      </trkpt>
      <trkpt lat="37.41807" lon="-4.49293833">
        <ele>454.0</ele>
        <time>2018-06-09T07:04:51.185Z</time>
      </trkpt>
      <trkpt lat="37.41807" lon="-4.49293833">
        <ele>454.0</ele>
        <time>2018-06-09T07:04:52.182Z</time>
      </trkpt>
      <trkpt lat="37.41809333" lon="-4.49284833">
        <ele>454.0</ele>
        <time>2018-06-09T07:04:53.164Z</time>
      </trkpt>
      <trkpt lat="37.41809333" lon="-4.49284833">
        <ele>454.0</ele>
        <time>2018-06-09T07:04:54.186Z</time>
      </trkpt>
      <trkpt lat="37.41811667" lon="-4.49275833">
        <ele>454.0</ele>
        <time>2018-06-09T07:04:55.182Z</time>
      </trkpt>
      <trkpt lat="37.41813" lon="-4.49271333">
        <ele>454.0</ele>
        <time>2018-06-09T07:04:56.184Z</time>
      </trkpt>
      <trkpt lat="37.41813" lon="-4.49271333">
        <ele>454.0</ele>
        <time>2018-06-09T07:04:57.175Z</time>
      </trkpt>
      <trkpt lat="37.41815667" lon="-4.49262333">
        <ele>454.0</ele>
        <time>2018-06-09T07:04:58.184Z</time>
      </trkpt>
      <trkpt lat="37.41817167" lon="-4.49257833">
        <ele>454.0</ele>
        <time>2018-06-09T07:04:59.183Z</time>
      </trkpt>
      <trkpt lat="37.418185" lon="-4.49253333">
        <ele>454.0</ele>
        <time>2018-06-09T07:05:00.188Z</time>
      </trkpt>
      <trkpt lat="37.418185" lon="-4.49253333">
        <ele>454.0</ele>
        <time>2018-06-09T07:05:01.177Z</time>
      </trkpt>
      <trkpt lat="37.41821333" lon="-4.49244167">
        <ele>454.0</ele>
        <time>2018-06-09T07:05:02.158Z</time>
      </trkpt>
      <trkpt lat="37.41822833" lon="-4.49239833">
        <ele>454.0</ele>
        <time>2018-06-09T07:05:03.184Z</time>
      </trkpt>
      <trkpt lat="37.41822833" lon="-4.49239833">
        <ele>454.0</ele>
        <time>2018-06-09T07:05:04.181Z</time>
      </trkpt>
      <trkpt lat="37.41826167" lon="-4.49230833">
        <ele>454.0</ele>
        <time>2018-06-09T07:05:05.182Z</time>
      </trkpt>
      <trkpt lat="37.41827833" lon="-4.49226">
        <ele>454.0</ele>
        <time>2018-06-09T07:05:06.185Z</time>
      </trkpt>
      <trkpt lat="37.41827833" lon="-4.49226">
        <ele>454.0</ele>
        <time>2018-06-09T07:05:07.182Z</time>
      </trkpt>
      <trkpt lat="37.41830333" lon="-4.49216167">
        <ele>454.0</ele>
        <time>2018-06-09T07:05:08.182Z</time>
      </trkpt>
      <trkpt lat="37.41831667" lon="-4.49211333">
        <ele>454.0</ele>
        <time>2018-06-09T07:05:09.185Z</time>
      </trkpt>
      <trkpt lat="37.41831667" lon="-4.49211333">
        <ele>454.0</ele>
        <time>2018-06-09T07:05:10.181Z</time>
      </trkpt>
      <trkpt lat="37.41834" lon="-4.49201833">
        <ele>454.0</ele>
        <time>2018-06-09T07:05:11.183Z</time>
      </trkpt>
      <trkpt lat="37.41834" lon="-4.49201833">
        <ele>454.0</ele>
        <time>2018-06-09T07:05:12.182Z</time>
      </trkpt>
      <trkpt lat="37.41836833" lon="-4.491925">
        <ele>454.0</ele>
        <time>2018-06-09T07:05:13.185Z</time>
      </trkpt>
      <trkpt lat="37.41838167" lon="-4.49187667">
        <ele>454.0</ele>
        <time>2018-06-09T07:05:14.185Z</time>
      </trkpt>
      <trkpt lat="37.41838167" lon="-4.49187667">
        <ele>454.0</ele>
        <time>2018-06-09T07:05:15.178Z</time>
      </trkpt>
      <trkpt lat="37.41841" lon="-4.49178333">
        <ele>454.0</ele>
        <time>2018-06-09T07:05:16.158Z</time>
      </trkpt>
      <trkpt lat="37.41841" lon="-4.49178333">
        <ele>454.0</ele>
        <time>2018-06-09T07:05:17.182Z</time>
      </trkpt>
      <trkpt lat="37.41843833" lon="-4.49168667">
        <ele>454.0</ele>
        <time>2018-06-09T07:05:18.180Z</time>
      </trkpt>
      <trkpt lat="37.41845333" lon="-4.49163833">
        <ele>454.0</ele>
        <time>2018-06-09T07:05:19.161Z</time>
      </trkpt>
      <trkpt lat="37.41845333" lon="-4.49163833">
        <ele>454.0</ele>
        <time>2018-06-09T07:05:20.182Z</time>
      </trkpt>
      <trkpt lat="37.41848167" lon="-4.49154167">
        <ele>454.0</ele>
        <time>2018-06-09T07:05:21.184Z</time>
      </trkpt>
      <trkpt lat="37.41848167" lon="-4.49154167">
        <ele>454.0</ele>
        <time>2018-06-09T07:05:22.180Z</time>
      </trkpt>
      <trkpt lat="37.41851" lon="-4.49144667">
        <ele>454.0</ele>
        <time>2018-06-09T07:05:23.184Z</time>
      </trkpt>
      <trkpt lat="37.418525" lon="-4.4914">
        <ele>454.0</ele>
        <time>2018-06-09T07:05:24.184Z</time>
      </trkpt>
      <trkpt lat="37.418525" lon="-4.4914">
        <ele>454.0</ele>
        <time>2018-06-09T07:05:25.181Z</time>
      </trkpt>
      <trkpt lat="37.41855833" lon="-4.491305">
        <ele>454.0</ele>
        <time>2018-06-09T07:05:26.183Z</time>
      </trkpt>
      <trkpt lat="37.41855833" lon="-4.491305">
        <ele>454.0</ele>
        <time>2018-06-09T07:05:27.180Z</time>
      </trkpt>
      <trkpt lat="37.41859" lon="-4.49121">
        <ele>454.0</ele>
        <time>2018-06-09T07:05:28.162Z</time>
      </trkpt>
      <trkpt lat="37.418605" lon="-4.49116167">
        <ele>454.0</ele>
        <time>2018-06-09T07:05:29.172Z</time>
      </trkpt>
      <trkpt lat="37.418605" lon="-4.49116167">
        <ele>454.0</ele>
        <time>2018-06-09T07:05:30.196Z</time>
      </trkpt>
      <trkpt lat="37.418635" lon="-4.49106333">
        <ele>454.0</ele>
        <time>2018-06-09T07:05:31.183Z</time>
      </trkpt>
      <trkpt lat="37.41864833" lon="-4.49101167">
        <ele>454.0</ele>
        <time>2018-06-09T07:05:32.186Z</time>
      </trkpt>
      <trkpt lat="37.41864833" lon="-4.49101167">
        <ele>454.0</ele>
        <time>2018-06-09T07:05:33.179Z</time>
      </trkpt>
      <trkpt lat="37.418675" lon="-4.490915">
        <ele>454.0</ele>
        <time>2018-06-09T07:05:34.176Z</time>
      </trkpt>
      <trkpt lat="37.41868833" lon="-4.49086667">
        <ele>454.0</ele>
        <time>2018-06-09T07:05:35.196Z</time>
      </trkpt>
      <trkpt lat="37.418705" lon="-4.49081833">
        <ele>454.0</ele>
        <time>2018-06-09T07:05:36.185Z</time>
      </trkpt>
      <trkpt lat="37.418705" lon="-4.49081833">
        <ele>454.0</ele>
        <time>2018-06-09T07:05:37.184Z</time>
      </trkpt>
      <trkpt lat="37.41873667" lon="-4.49072167">
        <ele>454.0</ele>
        <time>2018-06-09T07:05:38.184Z</time>
      </trkpt>
      <trkpt lat="37.41875" lon="-4.49067333">
        <ele>454.0</ele>
        <time>2018-06-09T07:05:39.195Z</time>
      </trkpt>
      <trkpt lat="37.41875" lon="-4.49067333">
        <ele>454.0</ele>
        <time>2018-06-09T07:05:40.181Z</time>
      </trkpt>
      <trkpt lat="37.41877667" lon="-4.49058">
        <ele>454.0</ele>
        <time>2018-06-09T07:05:41.185Z</time>
      </trkpt>
      <trkpt lat="37.41877667" lon="-4.49058">
        <ele>454.0</ele>
        <time>2018-06-09T07:05:42.183Z</time>
      </trkpt>
      <trkpt lat="37.418805" lon="-4.490485">
        <ele>454.0</ele>
        <time>2018-06-09T07:05:43.185Z</time>
      </trkpt>
      <trkpt lat="37.41882167" lon="-4.49043833">
        <ele>454.0</ele>
        <time>2018-06-09T07:05:44.182Z</time>
      </trkpt>
      <trkpt lat="37.41882167" lon="-4.49043833">
        <ele>454.0</ele>
        <time>2018-06-09T07:05:45.190Z</time>
      </trkpt>
      <trkpt lat="37.41885" lon="-4.49034">
        <ele>454.0</ele>
        <time>2018-06-09T07:05:46.185Z</time>
      </trkpt>
      <trkpt lat="37.41885" lon="-4.49034">
        <ele>454.0</ele>
        <time>2018-06-09T07:05:47.182Z</time>
      </trkpt>
      <trkpt lat="37.41887833" lon="-4.49024">
        <ele>454.0</ele>
        <time>2018-06-09T07:05:48.181Z</time>
      </trkpt>
      <trkpt lat="37.41889167" lon="-4.49019">
        <ele>454.0</ele>
        <time>2018-06-09T07:05:49.161Z</time>
      </trkpt>
      <trkpt lat="37.41889167" lon="-4.49019">
        <ele>454.0</ele>
        <time>2018-06-09T07:05:50.182Z</time>
      </trkpt>
      <trkpt lat="37.41891833" lon="-4.49009167">
        <ele>454.0</ele>
        <time>2018-06-09T07:05:51.184Z</time>
      </trkpt>
      <trkpt lat="37.41891833" lon="-4.49009167">
        <ele>454.0</ele>
        <time>2018-06-09T07:05:52.178Z</time>
      </trkpt>
      <trkpt lat="37.41894833" lon="-4.48999667">
        <ele>453.0</ele>
        <time>2018-06-09T07:05:53.158Z</time>
      </trkpt>
      <trkpt lat="37.41894833" lon="-4.48999667">
        <ele>453.0</ele>
        <time>2018-06-09T07:05:54.181Z</time>
      </trkpt>
      <trkpt lat="37.41897833" lon="-4.48989833">
        <ele>453.0</ele>
        <time>2018-06-09T07:05:55.166Z</time>
      </trkpt>
      <trkpt lat="37.41899333" lon="-4.48985">
        <ele>453.0</ele>
        <time>2018-06-09T07:05:56.188Z</time>
      </trkpt>
      <trkpt lat="37.41900833" lon="-4.48980167">
        <ele>453.0</ele>
        <time>2018-06-09T07:05:57.180Z</time>
      </trkpt>
      <trkpt lat="37.41900833" lon="-4.48980167">
        <ele>453.0</ele>
        <time>2018-06-09T07:05:58.183Z</time>
      </trkpt>
      <trkpt lat="37.41904" lon="-4.48970167">
        <ele>454.0</ele>
        <time>2018-06-09T07:05:59.185Z</time>
      </trkpt>
      <trkpt lat="37.41904" lon="-4.48970167">
        <ele>454.0</ele>
        <time>2018-06-09T07:06:00.185Z</time>
      </trkpt>
      <trkpt lat="37.41907167" lon="-4.48960167">
        <ele>454.0</ele>
        <time>2018-06-09T07:06:01.186Z</time>
      </trkpt>
      <trkpt lat="37.41908667" lon="-4.48955">
        <ele>454.0</ele>
        <time>2018-06-09T07:06:02.185Z</time>
      </trkpt>
      <trkpt lat="37.41908667" lon="-4.48955">
        <ele>454.0</ele>
        <time>2018-06-09T07:06:03.182Z</time>
      </trkpt>
      <trkpt lat="37.41911333" lon="-4.48945333">
        <ele>454.0</ele>
        <time>2018-06-09T07:06:04.188Z</time>
      </trkpt>
      <trkpt lat="37.41911333" lon="-4.48945333">
        <ele>454.0</ele>
        <time>2018-06-09T07:06:05.157Z</time>
      </trkpt>
      <trkpt lat="37.41914167" lon="-4.48936">
        <ele>454.0</ele>
        <time>2018-06-09T07:06:06.184Z</time>
      </trkpt>
      <trkpt lat="37.41914167" lon="-4.48936">
        <ele>454.0</ele>
        <time>2018-06-09T07:06:07.185Z</time>
      </trkpt>
      <trkpt lat="37.41917167" lon="-4.489265">
        <ele>453.0</ele>
        <time>2018-06-09T07:06:08.185Z</time>
      </trkpt>
      <trkpt lat="37.419185" lon="-4.489215">
        <ele>453.0</ele>
        <time>2018-06-09T07:06:09.186Z</time>
      </trkpt>
      <trkpt lat="37.419185" lon="-4.489215">
        <ele>453.0</ele>
        <time>2018-06-09T07:06:10.180Z</time>
      </trkpt>
      <trkpt lat="37.41921833" lon="-4.48911667">
        <ele>454.0</ele>
        <time>2018-06-09T07:06:11.185Z</time>
      </trkpt>
      <trkpt lat="37.41921833" lon="-4.48911667">
        <ele>454.0</ele>
        <time>2018-06-09T07:06:12.182Z</time>
      </trkpt>
      <trkpt lat="37.41925" lon="-4.48901833">
        <ele>454.0</ele>
        <time>2018-06-09T07:06:13.185Z</time>
      </trkpt>
      <trkpt lat="37.41925" lon="-4.48901833">
        <ele>454.0</ele>
        <time>2018-06-09T07:06:14.178Z</time>
      </trkpt>
      <trkpt lat="37.41927667" lon="-4.48892">
        <ele>454.0</ele>
        <time>2018-06-09T07:06:15.184Z</time>
      </trkpt>
      <trkpt lat="37.41927667" lon="-4.48892">
        <ele>454.0</ele>
        <time>2018-06-09T07:06:16.182Z</time>
      </trkpt>
      <trkpt lat="37.41930667" lon="-4.48881833">
        <ele>454.0</ele>
        <time>2018-06-09T07:06:17.164Z</time>
      </trkpt>
      <trkpt lat="37.41930667" lon="-4.48881833">
        <ele>454.0</ele>
        <time>2018-06-09T07:06:18.184Z</time>
      </trkpt>
      <trkpt lat="37.419335" lon="-4.48871667">
        <ele>454.0</ele>
        <time>2018-06-09T07:06:19.185Z</time>
      </trkpt>
      <trkpt lat="37.419335" lon="-4.48871667">
        <ele>454.0</ele>
        <time>2018-06-09T07:06:20.183Z</time>
      </trkpt>
      <trkpt lat="37.41936667" lon="-4.48861167">
        <ele>454.0</ele>
        <time>2018-06-09T07:06:21.183Z</time>
      </trkpt>
      <trkpt lat="37.41936667" lon="-4.48861167">
        <ele>454.0</ele>
        <time>2018-06-09T07:06:22.180Z</time>
      </trkpt>
      <trkpt lat="37.419395" lon="-4.488505">
        <ele>454.0</ele>
        <time>2018-06-09T07:06:23.158Z</time>
      </trkpt>
      <trkpt lat="37.419395" lon="-4.488505">
        <ele>454.0</ele>
        <time>2018-06-09T07:06:24.182Z</time>
      </trkpt>
      <trkpt lat="37.41942667" lon="-4.48840167">
        <ele>455.0</ele>
        <time>2018-06-09T07:06:25.186Z</time>
      </trkpt>
      <trkpt lat="37.41942667" lon="-4.48840167">
        <ele>455.0</ele>
        <time>2018-06-09T07:06:26.179Z</time>
      </trkpt>
      <trkpt lat="37.41946167" lon="-4.488295">
        <ele>455.0</ele>
        <time>2018-06-09T07:06:27.160Z</time>
      </trkpt>
      <trkpt lat="37.41947667" lon="-4.48824167">
        <ele>455.0</ele>
        <time>2018-06-09T07:06:28.185Z</time>
      </trkpt>
      <trkpt lat="37.41949333" lon="-4.48818833">
        <ele>455.0</ele>
        <time>2018-06-09T07:06:29.184Z</time>
      </trkpt>
      <trkpt lat="37.41949333" lon="-4.48818833">
        <ele>455.0</ele>
        <time>2018-06-09T07:06:30.182Z</time>
      </trkpt>
      <trkpt lat="37.41952667" lon="-4.48808167">
        <ele>455.0</ele>
        <time>2018-06-09T07:06:31.187Z</time>
      </trkpt>
      <trkpt lat="37.41952667" lon="-4.48808167">
        <ele>455.0</ele>
        <time>2018-06-09T07:06:32.182Z</time>
      </trkpt>
      <trkpt lat="37.41956" lon="-4.487975">
        <ele>456.0</ele>
        <time>2018-06-09T07:06:33.185Z</time>
      </trkpt>
      <trkpt lat="37.41956" lon="-4.487975">
        <ele>456.0</ele>
        <time>2018-06-09T07:06:34.182Z</time>
      </trkpt>
      <trkpt lat="37.419595" lon="-4.48786667">
        <ele>456.0</ele>
        <time>2018-06-09T07:06:35.178Z</time>
      </trkpt>
      <trkpt lat="37.41961167" lon="-4.48781167">
        <ele>456.0</ele>
        <time>2018-06-09T07:06:36.159Z</time>
      </trkpt>
      <trkpt lat="37.41961167" lon="-4.48781167">
        <ele>456.0</ele>
        <time>2018-06-09T07:06:37.195Z</time>
      </trkpt>
      <trkpt lat="37.419645" lon="-4.487705">
        <ele>456.0</ele>
        <time>2018-06-09T07:06:38.185Z</time>
      </trkpt>
      <trkpt lat="37.419645" lon="-4.487705">
        <ele>456.0</ele>
        <time>2018-06-09T07:06:39.165Z</time>
      </trkpt>
      <trkpt lat="37.41967667" lon="-4.48759667">
        <ele>456.0</ele>
        <time>2018-06-09T07:06:40.161Z</time>
      </trkpt>
      <trkpt lat="37.41967667" lon="-4.48759667">
        <ele>456.0</ele>
        <time>2018-06-09T07:06:41.182Z</time>
      </trkpt>
      <trkpt lat="37.41971167" lon="-4.48749">
        <ele>456.0</ele>
        <time>2018-06-09T07:06:42.162Z</time>
      </trkpt>
      <trkpt lat="37.41971167" lon="-4.48749">
        <ele>456.0</ele>
        <time>2018-06-09T07:06:43.184Z</time>
      </trkpt>
      <trkpt lat="37.41974833" lon="-4.48738333">
        <ele>457.0</ele>
        <time>2018-06-09T07:06:44.185Z</time>
      </trkpt>
      <trkpt lat="37.41976333" lon="-4.48732833">
        <ele>457.0</ele>
        <time>2018-06-09T07:06:45.195Z</time>
      </trkpt>
      <trkpt lat="37.41976333" lon="-4.48732833">
        <ele>457.0</ele>
        <time>2018-06-09T07:06:46.166Z</time>
      </trkpt>
      <trkpt lat="37.419795" lon="-4.48722">
        <ele>457.0</ele>
        <time>2018-06-09T07:06:47.196Z</time>
      </trkpt>
      <trkpt lat="37.41981167" lon="-4.48716667">
        <ele>457.0</ele>
        <time>2018-06-09T07:06:48.186Z</time>
      </trkpt>
      <trkpt lat="37.41981167" lon="-4.48716667">
        <ele>457.0</ele>
        <time>2018-06-09T07:06:49.182Z</time>
      </trkpt>
      <trkpt lat="37.419845" lon="-4.48706167">
        <ele>457.0</ele>
        <time>2018-06-09T07:06:50.187Z</time>
      </trkpt>
      <trkpt lat="37.419845" lon="-4.48706167">
        <ele>457.0</ele>
        <time>2018-06-09T07:06:51.186Z</time>
      </trkpt>
      <trkpt lat="37.41987833" lon="-4.486955">
        <ele>457.0</ele>
        <time>2018-06-09T07:06:52.184Z</time>
      </trkpt>
      <trkpt lat="37.419895" lon="-4.48690167">
        <ele>458.0</ele>
        <time>2018-06-09T07:06:53.185Z</time>
      </trkpt>
      <trkpt lat="37.419895" lon="-4.48690167">
        <ele>458.0</ele>
        <time>2018-06-09T07:06:54.180Z</time>
      </trkpt>
      <trkpt lat="37.41992667" lon="-4.48679167">
        <ele>458.0</ele>
        <time>2018-06-09T07:06:55.161Z</time>
      </trkpt>
      <trkpt lat="37.41992667" lon="-4.48679167">
        <ele>458.0</ele>
        <time>2018-06-09T07:06:56.181Z</time>
      </trkpt>
      <trkpt lat="37.41996167" lon="-4.48668167">
        <ele>458.0</ele>
        <time>2018-06-09T07:06:57.186Z</time>
      </trkpt>
      <trkpt lat="37.41998" lon="-4.486625">
        <ele>458.0</ele>
        <time>2018-06-09T07:06:58.185Z</time>
      </trkpt>
      <trkpt lat="37.41998" lon="-4.486625">
        <ele>458.0</ele>
        <time>2018-06-09T07:06:59.183Z</time>
      </trkpt>
      <trkpt lat="37.42001167" lon="-4.48651667">
        <ele>458.0</ele>
        <time>2018-06-09T07:07:00.189Z</time>
      </trkpt>
      <trkpt lat="37.42002833" lon="-4.48646167">
        <ele>458.0</ele>
        <time>2018-06-09T07:07:01.186Z</time>
      </trkpt>
      <trkpt lat="37.42002833" lon="-4.48646167">
        <ele>458.0</ele>
        <time>2018-06-09T07:07:02.185Z</time>
      </trkpt>
      <trkpt lat="37.42005833" lon="-4.48635167">
        <ele>458.0</ele>
        <time>2018-06-09T07:07:03.185Z</time>
      </trkpt>
      <trkpt lat="37.42005833" lon="-4.48635167">
        <ele>458.0</ele>
        <time>2018-06-09T07:07:04.182Z</time>
      </trkpt>
      <trkpt lat="37.42009167" lon="-4.486245">
        <ele>458.0</ele>
        <time>2018-06-09T07:07:05.164Z</time>
      </trkpt>
      <trkpt lat="37.42009167" lon="-4.486245">
        <ele>458.0</ele>
        <time>2018-06-09T07:07:06.183Z</time>
      </trkpt>
      <trkpt lat="37.42012667" lon="-4.48613667">
        <ele>458.0</ele>
        <time>2018-06-09T07:07:07.163Z</time>
      </trkpt>
      <trkpt lat="37.420145" lon="-4.48608167">
        <ele>458.0</ele>
        <time>2018-06-09T07:07:08.186Z</time>
      </trkpt>
      <trkpt lat="37.42016167" lon="-4.48602667">
        <ele>458.0</ele>
        <time>2018-06-09T07:07:09.185Z</time>
      </trkpt>
      <trkpt lat="37.42016167" lon="-4.48602667">
        <ele>458.0</ele>
        <time>2018-06-09T07:07:10.182Z</time>
      </trkpt>
      <trkpt lat="37.42019333" lon="-4.48591833">
        <ele>459.0</ele>
        <time>2018-06-09T07:07:11.184Z</time>
      </trkpt>
      <trkpt lat="37.42020833" lon="-4.485865">
        <ele>459.0</ele>
        <time>2018-06-09T07:07:12.165Z</time>
      </trkpt>
      <trkpt lat="37.42020833" lon="-4.485865">
        <ele>459.0</ele>
        <time>2018-06-09T07:07:13.187Z</time>
      </trkpt>
      <trkpt lat="37.42023833" lon="-4.48575833">
        <ele>459.0</ele>
        <time>2018-06-09T07:07:14.185Z</time>
      </trkpt>
      <trkpt lat="37.420255" lon="-4.485705">
        <ele>459.0</ele>
        <time>2018-06-09T07:07:15.185Z</time>
      </trkpt>
      <trkpt lat="37.420255" lon="-4.485705">
        <ele>459.0</ele>
        <time>2018-06-09T07:07:16.182Z</time>
      </trkpt>
      <trkpt lat="37.42028833" lon="-4.48559833">
        <ele>459.0</ele>
        <time>2018-06-09T07:07:17.185Z</time>
      </trkpt>
      <trkpt lat="37.42028833" lon="-4.48559833">
        <ele>459.0</ele>
        <time>2018-06-09T07:07:18.179Z</time>
      </trkpt>
      <trkpt lat="37.42032167" lon="-4.48549167">
        <ele>459.0</ele>
        <time>2018-06-09T07:07:19.167Z</time>
      </trkpt>
      <trkpt lat="37.42032167" lon="-4.48549167">
        <ele>459.0</ele>
        <time>2018-06-09T07:07:20.187Z</time>
      </trkpt>
      <trkpt lat="37.42035333" lon="-4.48538333">
        <ele>459.0</ele>
        <time>2018-06-09T07:07:21.185Z</time>
      </trkpt>
      <trkpt lat="37.42035333" lon="-4.48538333">
        <ele>459.0</ele>
        <time>2018-06-09T07:07:22.195Z</time>
      </trkpt>
      <trkpt lat="37.42038333" lon="-4.48527667">
        <ele>459.0</ele>
        <time>2018-06-09T07:07:23.185Z</time>
      </trkpt>
      <trkpt lat="37.42038333" lon="-4.48527667">
        <ele>459.0</ele>
        <time>2018-06-09T07:07:24.186Z</time>
      </trkpt>
      <trkpt lat="37.42041667" lon="-4.48517">
        <ele>459.0</ele>
        <time>2018-06-09T07:07:25.166Z</time>
      </trkpt>
      <trkpt lat="37.42041667" lon="-4.48517">
        <ele>459.0</ele>
        <time>2018-06-09T07:07:26.188Z</time>
      </trkpt>
      <trkpt lat="37.42044833" lon="-4.48506333">
        <ele>459.0</ele>
        <time>2018-06-09T07:07:27.186Z</time>
      </trkpt>
      <trkpt lat="37.42044833" lon="-4.48506333">
        <ele>459.0</ele>
        <time>2018-06-09T07:07:28.182Z</time>
      </trkpt>
      <trkpt lat="37.420475" lon="-4.48495833">
        <ele>459.0</ele>
        <time>2018-06-09T07:07:29.184Z</time>
      </trkpt>
      <trkpt lat="37.42049167" lon="-4.484905">
        <ele>459.0</ele>
        <time>2018-06-09T07:07:30.185Z</time>
      </trkpt>
      <trkpt lat="37.42050667" lon="-4.48485167">
        <ele>459.0</ele>
        <time>2018-06-09T07:07:31.186Z</time>
      </trkpt>
      <trkpt lat="37.42052333" lon="-4.48479667">
        <ele>459.0</ele>
        <time>2018-06-09T07:07:32.184Z</time>
      </trkpt>
      <trkpt lat="37.42052333" lon="-4.48479667">
        <ele>459.0</ele>
        <time>2018-06-09T07:07:33.181Z</time>
      </trkpt>
      <trkpt lat="37.42054167" lon="-4.48468667">
        <ele>459.0</ele>
        <time>2018-06-09T07:07:34.187Z</time>
      </trkpt>
      <trkpt lat="37.42055167" lon="-4.48463333">
        <ele>459.0</ele>
        <time>2018-06-09T07:07:35.186Z</time>
      </trkpt>
      <trkpt lat="37.42055167" lon="-4.48463333">
        <ele>459.0</ele>
        <time>2018-06-09T07:07:36.180Z</time>
      </trkpt>
      <trkpt lat="37.420575" lon="-4.48452833">
        <ele>460.0</ele>
        <time>2018-06-09T07:07:37.161Z</time>
      </trkpt>
      <trkpt lat="37.42058833" lon="-4.484475">
        <ele>460.0</ele>
        <time>2018-06-09T07:07:38.186Z</time>
      </trkpt>
      <trkpt lat="37.42059833" lon="-4.48442167">
        <ele>460.0</ele>
        <time>2018-06-09T07:07:39.185Z</time>
      </trkpt>
      <trkpt lat="37.42059833" lon="-4.48442167">
        <ele>460.0</ele>
        <time>2018-06-09T07:07:40.180Z</time>
      </trkpt>
      <trkpt lat="37.42061333" lon="-4.484315">
        <ele>460.0</ele>
        <time>2018-06-09T07:07:41.185Z</time>
      </trkpt>
      <trkpt lat="37.42062333" lon="-4.48426167">
        <ele>460.0</ele>
        <time>2018-06-09T07:07:42.184Z</time>
      </trkpt>
      <trkpt lat="37.42062333" lon="-4.48426167">
        <ele>460.0</ele>
        <time>2018-06-09T07:07:43.183Z</time>
      </trkpt>
      <trkpt lat="37.42064333" lon="-4.484155">
        <ele>460.0</ele>
        <time>2018-06-09T07:07:44.185Z</time>
      </trkpt>
      <trkpt lat="37.42064333" lon="-4.484155">
        <ele>460.0</ele>
        <time>2018-06-09T07:07:45.181Z</time>
      </trkpt>
      <trkpt lat="37.420655" lon="-4.48405">
        <ele>460.0</ele>
        <time>2018-06-09T07:07:46.184Z</time>
      </trkpt>
      <trkpt lat="37.420655" lon="-4.48405">
        <ele>460.0</ele>
        <time>2018-06-09T07:07:47.187Z</time>
      </trkpt>
      <trkpt lat="37.42066667" lon="-4.48394833">
        <ele>460.0</ele>
        <time>2018-06-09T07:07:48.185Z</time>
      </trkpt>
      <trkpt lat="37.42066667" lon="-4.48394833">
        <ele>460.0</ele>
        <time>2018-06-09T07:07:49.183Z</time>
      </trkpt>
      <trkpt lat="37.42068333" lon="-4.48384333">
        <ele>461.0</ele>
        <time>2018-06-09T07:07:50.185Z</time>
      </trkpt>
      <trkpt lat="37.420695" lon="-4.48379333">
        <ele>461.0</ele>
        <time>2018-06-09T07:07:51.186Z</time>
      </trkpt>
      <trkpt lat="37.420695" lon="-4.48379333">
        <ele>461.0</ele>
        <time>2018-06-09T07:07:52.179Z</time>
      </trkpt>
      <trkpt lat="37.42070833" lon="-4.48369167">
        <ele>462.0</ele>
        <time>2018-06-09T07:07:53.167Z</time>
      </trkpt>
      <trkpt lat="37.42070833" lon="-4.48369167">
        <ele>462.0</ele>
        <time>2018-06-09T07:07:54.187Z</time>
      </trkpt>
      <trkpt lat="37.42071" lon="-4.48359167">
        <ele>462.0</ele>
        <time>2018-06-09T07:07:55.187Z</time>
      </trkpt>
      <trkpt lat="37.42071167" lon="-4.48354167">
        <ele>462.0</ele>
        <time>2018-06-09T07:07:56.184Z</time>
      </trkpt>
      <trkpt lat="37.42071167" lon="-4.48354167">
        <ele>462.0</ele>
        <time>2018-06-09T07:07:57.183Z</time>
      </trkpt>
      <trkpt lat="37.420715" lon="-4.48344">
        <ele>463.0</ele>
        <time>2018-06-09T07:07:58.196Z</time>
      </trkpt>
      <trkpt lat="37.420715" lon="-4.48344">
        <ele>463.0</ele>
        <time>2018-06-09T07:07:59.183Z</time>
      </trkpt>
      <trkpt lat="37.420715" lon="-4.48333667">
        <ele>463.0</ele>
        <time>2018-06-09T07:08:00.164Z</time>
      </trkpt>
      <trkpt lat="37.420715" lon="-4.48333667">
        <ele>463.0</ele>
        <time>2018-06-09T07:08:01.196Z</time>
      </trkpt>
      <trkpt lat="37.42071667" lon="-4.48323167">
        <ele>463.0</ele>
        <time>2018-06-09T07:08:02.184Z</time>
      </trkpt>
      <trkpt lat="37.42071667" lon="-4.48323167">
        <ele>463.0</ele>
        <time>2018-06-09T07:08:03.182Z</time>
      </trkpt>
      <trkpt lat="37.420715" lon="-4.48312333">
        <ele>463.0</ele>
        <time>2018-06-09T07:08:04.184Z</time>
      </trkpt>
      <trkpt lat="37.42071167" lon="-4.48306833">
        <ele>463.0</ele>
        <time>2018-06-09T07:08:05.166Z</time>
      </trkpt>
      <trkpt lat="37.42071167" lon="-4.48306833">
        <ele>463.0</ele>
        <time>2018-06-09T07:08:06.188Z</time>
      </trkpt>
      <trkpt lat="37.42070833" lon="-4.48295667">
        <ele>463.0</ele>
        <time>2018-06-09T07:08:07.184Z</time>
      </trkpt>
      <trkpt lat="37.42070833" lon="-4.48295667">
        <ele>463.0</ele>
        <time>2018-06-09T07:08:08.180Z</time>
      </trkpt>
      <trkpt lat="37.4207" lon="-4.482845">
        <ele>464.0</ele>
        <time>2018-06-09T07:08:09.160Z</time>
      </trkpt>
      <trkpt lat="37.42069667" lon="-4.48279">
        <ele>465.0</ele>
        <time>2018-06-09T07:08:10.196Z</time>
      </trkpt>
      <trkpt lat="37.42069667" lon="-4.48279">
        <ele>465.0</ele>
        <time>2018-06-09T07:08:11.182Z</time>
      </trkpt>
      <trkpt lat="37.42068833" lon="-4.48268333">
        <ele>468.0</ele>
        <time>2018-06-09T07:08:12.182Z</time>
      </trkpt>
      <trkpt lat="37.42068333" lon="-4.48263167">
        <ele>469.0</ele>
        <time>2018-06-09T07:08:13.188Z</time>
      </trkpt>
      <trkpt lat="37.42068333" lon="-4.48263167">
        <ele>469.0</ele>
        <time>2018-06-09T07:08:14.182Z</time>
      </trkpt>
      <trkpt lat="37.42067167" lon="-4.48253">
        <ele>472.0</ele>
        <time>2018-06-09T07:08:15.165Z</time>
      </trkpt>
      <trkpt lat="37.42067167" lon="-4.48253">
        <ele>472.0</ele>
        <time>2018-06-09T07:08:16.186Z</time>
      </trkpt>
      <trkpt lat="37.42065833" lon="-4.48242667">
        <ele>471.0</ele>
        <time>2018-06-09T07:08:17.182Z</time>
      </trkpt>
      <trkpt lat="37.42065833" lon="-4.48242667">
        <ele>471.0</ele>
        <time>2018-06-09T07:08:18.182Z</time>
      </trkpt>
      <trkpt lat="37.42064667" lon="-4.48232333">
        <ele>472.0</ele>
        <time>2018-06-09T07:08:19.186Z</time>
      </trkpt>
      <trkpt lat="37.42064667" lon="-4.48232333">
        <ele>472.0</ele>
        <time>2018-06-09T07:08:20.180Z</time>
      </trkpt>
      <trkpt lat="37.420635" lon="-4.482225">
        <ele>473.0</ele>
        <time>2018-06-09T07:08:21.158Z</time>
      </trkpt>
      <trkpt lat="37.420635" lon="-4.482225">
        <ele>473.0</ele>
        <time>2018-06-09T07:08:22.184Z</time>
      </trkpt>
      <trkpt lat="37.42062" lon="-4.48213667">
        <ele>474.0</ele>
        <time>2018-06-09T07:08:23.185Z</time>
      </trkpt>
      <trkpt lat="37.42062" lon="-4.48213667">
        <ele>474.0</ele>
        <time>2018-06-09T07:08:24.177Z</time>
      </trkpt>
      <trkpt lat="37.42060667" lon="-4.482065">
        <ele>474.0</ele>
        <time>2018-06-09T07:08:25.179Z</time>
      </trkpt>
      <trkpt lat="37.42060667" lon="-4.482065">
        <ele>474.0</ele>
        <time>2018-06-09T07:08:26.159Z</time>
      </trkpt>
      <trkpt lat="37.4206" lon="-4.481995">
        <ele>474.0</ele>
        <time>2018-06-09T07:08:27.186Z</time>
      </trkpt>
      <trkpt lat="37.4206" lon="-4.481995">
        <ele>474.0</ele>
        <time>2018-06-09T07:08:28.181Z</time>
      </trkpt>
      <trkpt lat="37.42060167" lon="-4.48194">
        <ele>474.0</ele>
        <time>2018-06-09T07:08:29.161Z</time>
      </trkpt>
      <trkpt lat="37.42060167" lon="-4.48194">
        <ele>474.0</ele>
        <time>2018-06-09T07:08:30.179Z</time>
      </trkpt>
      <trkpt lat="37.42060333" lon="-4.48192">
        <ele>474.0</ele>
        <time>2018-06-09T07:08:31.159Z</time>
      </trkpt>
      <trkpt lat="37.42060333" lon="-4.48192">
        <ele>474.0</ele>
        <time>2018-06-09T07:08:32.180Z</time>
      </trkpt>
      <trkpt lat="37.42060167" lon="-4.48188333">
        <ele>474.0</ele>
        <time>2018-06-09T07:08:33.158Z</time>
      </trkpt>
      <trkpt lat="37.42060167" lon="-4.48188333">
        <ele>474.0</ele>
        <time>2018-06-09T07:08:34.182Z</time>
      </trkpt>
      <trkpt lat="37.42059167" lon="-4.481825">
        <ele>474.0</ele>
        <time>2018-06-09T07:08:35.164Z</time>
      </trkpt>
      <trkpt lat="37.42059167" lon="-4.481825">
        <ele>474.0</ele>
        <time>2018-06-09T07:08:36.184Z</time>
      </trkpt>
      <trkpt lat="37.42058333" lon="-4.48173667">
        <ele>475.0</ele>
        <time>2018-06-09T07:08:37.186Z</time>
      </trkpt>
      <trkpt lat="37.42058333" lon="-4.48173667">
        <ele>475.0</ele>
        <time>2018-06-09T07:08:38.182Z</time>
      </trkpt>
      <trkpt lat="37.42059333" lon="-4.48165667">
        <ele>475.0</ele>
        <time>2018-06-09T07:08:39.178Z</time>
      </trkpt>
      <trkpt lat="37.42059333" lon="-4.48165667">
        <ele>475.0</ele>
        <time>2018-06-09T07:08:40.166Z</time>
      </trkpt>
      <trkpt lat="37.42060167" lon="-4.48162">
        <ele>475.0</ele>
        <time>2018-06-09T07:08:41.188Z</time>
      </trkpt>
      <trkpt lat="37.42060167" lon="-4.48162">
        <ele>475.0</ele>
        <time>2018-06-09T07:08:42.182Z</time>
      </trkpt>
      <trkpt lat="37.42061667" lon="-4.48162833">
        <ele>475.0</ele>
        <time>2018-06-09T07:08:43.187Z</time>
      </trkpt>
      <trkpt lat="37.42061667" lon="-4.48162833">
        <ele>475.0</ele>
        <time>2018-06-09T07:08:44.186Z</time>
      </trkpt>
      <trkpt lat="37.42061167" lon="-4.48163667">
        <ele>475.0</ele>
        <time>2018-06-09T07:08:45.184Z</time>
      </trkpt>
      <trkpt lat="37.42061167" lon="-4.48163667">
        <ele>475.0</ele>
        <time>2018-06-09T07:08:46.183Z</time>
      </trkpt>
      <trkpt lat="37.42056667" lon="-4.48165167">
        <ele>464.0</ele>
        <time>2018-06-09T07:08:47.158Z</time>
      </trkpt>
      <trkpt lat="37.42056667" lon="-4.48165167">
        <ele>464.0</ele>
        <time>2018-06-09T07:08:48.191Z</time>
      </trkpt>
      <trkpt lat="37.42056333" lon="-4.48162667">
        <ele>464.0</ele>
        <time>2018-06-09T07:08:49.195Z</time>
      </trkpt>
      <trkpt lat="37.42056333" lon="-4.48162667">
        <ele>464.0</ele>
        <time>2018-06-09T07:08:50.174Z</time>
      </trkpt>
      <trkpt lat="37.42055833" lon="-4.4816">
        <ele>464.0</ele>
        <time>2018-06-09T07:08:51.196Z</time>
      </trkpt>
      <trkpt lat="37.42055833" lon="-4.4816">
        <ele>464.0</ele>
        <time>2018-06-09T07:08:52.192Z</time>
      </trkpt>
      <trkpt lat="37.42055667" lon="-4.48157167">
        <ele>464.0</ele>
        <time>2018-06-09T07:08:53.175Z</time>
      </trkpt>
      <trkpt lat="37.42055667" lon="-4.48157167">
        <ele>464.0</ele>
        <time>2018-06-09T07:08:54.196Z</time>
      </trkpt>
      <trkpt lat="37.42054833" lon="-4.48154167">
        <ele>464.0</ele>
        <time>2018-06-09T07:08:55.194Z</time>
      </trkpt>
      <trkpt lat="37.420545" lon="-4.48152667">
        <ele>464.0</ele>
        <time>2018-06-09T07:08:56.193Z</time>
      </trkpt>
      <trkpt lat="37.42054167" lon="-4.48151333">
        <ele>464.0</ele>
        <time>2018-06-09T07:08:57.194Z</time>
      </trkpt>
      <trkpt lat="37.42054167" lon="-4.48151333">
        <ele>464.0</ele>
        <time>2018-06-09T07:08:58.189Z</time>
      </trkpt>
      <trkpt lat="37.42053167" lon="-4.48148833">
        <ele>464.0</ele>
        <time>2018-06-09T07:08:59.169Z</time>
      </trkpt>
      <trkpt lat="37.42053167" lon="-4.48148833">
        <ele>464.0</ele>
        <time>2018-06-09T07:09:00.191Z</time>
      </trkpt>
      <trkpt lat="37.42052333" lon="-4.48146">
        <ele>464.0</ele>
        <time>2018-06-09T07:09:01.196Z</time>
      </trkpt>
      <trkpt lat="37.42052333" lon="-4.48146">
        <ele>464.0</ele>
        <time>2018-06-09T07:09:02.192Z</time>
      </trkpt>
      <trkpt lat="37.420515" lon="-4.481435">
        <ele>465.0</ele>
        <time>2018-06-09T07:09:03.173Z</time>
      </trkpt>
      <trkpt lat="37.42051333" lon="-4.48142">
        <ele>465.0</ele>
        <time>2018-06-09T07:09:04.158Z</time>
      </trkpt>
      <trkpt lat="37.42051333" lon="-4.48142">
        <ele>465.0</ele>
        <time>2018-06-09T07:09:05.191Z</time>
      </trkpt>
      <trkpt lat="37.42050333" lon="-4.48139167">
        <ele>465.0</ele>
        <time>2018-06-09T07:09:06.194Z</time>
      </trkpt>
      <trkpt lat="37.42050167" lon="-4.48137667">
        <ele>465.0</ele>
        <time>2018-06-09T07:09:07.196Z</time>
      </trkpt>
      <trkpt lat="37.42050167" lon="-4.48137667">
        <ele>465.0</ele>
        <time>2018-06-09T07:09:08.191Z</time>
      </trkpt>
      <trkpt lat="37.42048833" lon="-4.48134667">
        <ele>465.0</ele>
        <time>2018-06-09T07:09:09.194Z</time>
      </trkpt>
      <trkpt lat="37.420485" lon="-4.48132833">
        <ele>465.0</ele>
        <time>2018-06-09T07:09:10.195Z</time>
      </trkpt>
      <trkpt lat="37.420485" lon="-4.48132833">
        <ele>465.0</ele>
        <time>2018-06-09T07:09:11.194Z</time>
      </trkpt>
      <trkpt lat="37.42047167" lon="-4.48129667">
        <ele>465.0</ele>
        <time>2018-06-09T07:09:12.194Z</time>
      </trkpt>
      <trkpt lat="37.42046333" lon="-4.48128333">
        <ele>465.0</ele>
        <time>2018-06-09T07:09:13.174Z</time>
      </trkpt>
      <trkpt lat="37.42046333" lon="-4.48128333">
        <ele>465.0</ele>
        <time>2018-06-09T07:09:14.195Z</time>
      </trkpt>
      <trkpt lat="37.42045333" lon="-4.48125">
        <ele>465.0</ele>
        <time>2018-06-09T07:09:15.174Z</time>
      </trkpt>
      <trkpt lat="37.42044833" lon="-4.48123667">
        <ele>465.0</ele>
        <time>2018-06-09T07:09:16.196Z</time>
      </trkpt>
      <trkpt lat="37.42044167" lon="-4.48122167">
        <ele>465.0</ele>
        <time>2018-06-09T07:09:17.195Z</time>
      </trkpt>
      <trkpt lat="37.42043833" lon="-4.48120333">
        <ele>465.0</ele>
        <time>2018-06-09T07:09:18.194Z</time>
      </trkpt>
      <trkpt lat="37.420435" lon="-4.48118667">
        <ele>465.0</ele>
        <time>2018-06-09T07:09:19.170Z</time>
      </trkpt>
      <trkpt lat="37.420435" lon="-4.48118667">
        <ele>465.0</ele>
        <time>2018-06-09T07:09:20.191Z</time>
      </trkpt>
      <trkpt lat="37.42042333" lon="-4.48115333">
        <ele>465.0</ele>
        <time>2018-06-09T07:09:21.195Z</time>
      </trkpt>
      <trkpt lat="37.42042333" lon="-4.48115333">
        <ele>465.0</ele>
        <time>2018-06-09T07:09:22.194Z</time>
      </trkpt>
      <trkpt lat="37.42041167" lon="-4.48112167">
        <ele>465.0</ele>
        <time>2018-06-09T07:09:23.176Z</time>
      </trkpt>
      <trkpt lat="37.42041167" lon="-4.48112167">
        <ele>465.0</ele>
        <time>2018-06-09T07:09:24.196Z</time>
      </trkpt>
      <trkpt lat="37.4204" lon="-4.48109167">
        <ele>465.0</ele>
        <time>2018-06-09T07:09:25.195Z</time>
      </trkpt>
      <trkpt lat="37.42039333" lon="-4.481075">
        <ele>465.0</ele>
        <time>2018-06-09T07:09:26.195Z</time>
      </trkpt>
      <trkpt lat="37.42039333" lon="-4.481075">
        <ele>465.0</ele>
        <time>2018-06-09T07:09:27.191Z</time>
      </trkpt>
      <trkpt lat="37.42038167" lon="-4.481045">
        <ele>465.0</ele>
        <time>2018-06-09T07:09:28.171Z</time>
      </trkpt>
      <trkpt lat="37.42037833" lon="-4.48103">
        <ele>465.0</ele>
        <time>2018-06-09T07:09:29.196Z</time>
      </trkpt>
      <trkpt lat="37.42037833" lon="-4.48103">
        <ele>465.0</ele>
        <time>2018-06-09T07:09:30.190Z</time>
      </trkpt>
      <trkpt lat="37.42036667" lon="-4.48100167">
        <ele>465.0</ele>
        <time>2018-06-09T07:09:31.196Z</time>
      </trkpt>
      <trkpt lat="37.42036667" lon="-4.48100167">
        <ele>465.0</ele>
        <time>2018-06-09T07:09:32.191Z</time>
      </trkpt>
      <trkpt lat="37.42035667" lon="-4.48096833">
        <ele>465.0</ele>
        <time>2018-06-09T07:09:33.195Z</time>
      </trkpt>
      <trkpt lat="37.42035667" lon="-4.48096833">
        <ele>465.0</ele>
        <time>2018-06-09T07:09:34.184Z</time>
      </trkpt>
      <trkpt lat="37.42034833" lon="-4.48093667">
        <ele>466.0</ele>
        <time>2018-06-09T07:09:35.164Z</time>
      </trkpt>
      <trkpt lat="37.42034833" lon="-4.48093667">
        <ele>466.0</ele>
        <time>2018-06-09T07:09:36.191Z</time>
      </trkpt>
      <trkpt lat="37.42032833" lon="-4.48091">
        <ele>466.0</ele>
        <time>2018-06-09T07:09:37.195Z</time>
      </trkpt>
      <trkpt lat="37.42032333" lon="-4.48089167">
        <ele>466.0</ele>
        <time>2018-06-09T07:09:38.195Z</time>
      </trkpt>
      <trkpt lat="37.42032333" lon="-4.48089167">
        <ele>466.0</ele>
        <time>2018-06-09T07:09:39.192Z</time>
      </trkpt>
      <trkpt lat="37.42030833" lon="-4.48085833">
        <ele>467.0</ele>
        <time>2018-06-09T07:09:40.174Z</time>
      </trkpt>
      <trkpt lat="37.4203" lon="-4.48084">
        <ele>467.0</ele>
        <time>2018-06-09T07:09:41.196Z</time>
      </trkpt>
      <trkpt lat="37.4203" lon="-4.48084">
        <ele>467.0</ele>
        <time>2018-06-09T07:09:42.163Z</time>
      </trkpt>
      <trkpt lat="37.42028833" lon="-4.48080333">
        <ele>467.0</ele>
        <time>2018-06-09T07:09:43.157Z</time>
      </trkpt>
      <trkpt lat="37.42028833" lon="-4.48080333">
        <ele>467.0</ele>
        <time>2018-06-09T07:09:44.191Z</time>
      </trkpt>
      <trkpt lat="37.420275" lon="-4.48077">
        <ele>467.0</ele>
        <time>2018-06-09T07:09:45.174Z</time>
      </trkpt>
      <trkpt lat="37.42027333" lon="-4.48074833">
        <ele>467.0</ele>
        <time>2018-06-09T07:09:46.196Z</time>
      </trkpt>
      <trkpt lat="37.42026833" lon="-4.48073">
        <ele>468.0</ele>
        <time>2018-06-09T07:09:47.157Z</time>
      </trkpt>
      <trkpt lat="37.42026833" lon="-4.48073">
        <ele>468.0</ele>
        <time>2018-06-09T07:09:48.191Z</time>
      </trkpt>
      <trkpt lat="37.420255" lon="-4.480695">
        <ele>468.0</ele>
        <time>2018-06-09T07:09:49.196Z</time>
      </trkpt>
      <trkpt lat="37.420255" lon="-4.480695">
        <ele>468.0</ele>
        <time>2018-06-09T07:09:50.175Z</time>
      </trkpt>
      <trkpt lat="37.42024" lon="-4.48065667">
        <ele>468.0</ele>
        <time>2018-06-09T07:09:51.194Z</time>
      </trkpt>
      <trkpt lat="37.420235" lon="-4.48063667">
        <ele>468.0</ele>
        <time>2018-06-09T07:09:52.170Z</time>
      </trkpt>
      <trkpt lat="37.420235" lon="-4.48063667">
        <ele>468.0</ele>
        <time>2018-06-09T07:09:53.192Z</time>
      </trkpt>
      <trkpt lat="37.42022333" lon="-4.48059833">
        <ele>468.0</ele>
        <time>2018-06-09T07:09:54.173Z</time>
      </trkpt>
      <trkpt lat="37.42021833" lon="-4.48057833">
        <ele>468.0</ele>
        <time>2018-06-09T07:09:55.195Z</time>
      </trkpt>
      <trkpt lat="37.420215" lon="-4.48056">
        <ele>469.0</ele>
        <time>2018-06-09T07:09:56.195Z</time>
      </trkpt>
      <trkpt lat="37.42021" lon="-4.480545">
        <ele>469.0</ele>
        <time>2018-06-09T07:09:57.195Z</time>
      </trkpt>
      <trkpt lat="37.42021" lon="-4.480545">
        <ele>469.0</ele>
        <time>2018-06-09T07:09:58.192Z</time>
      </trkpt>
      <trkpt lat="37.42019667" lon="-4.480515">
        <ele>469.0</ele>
        <time>2018-06-09T07:09:59.170Z</time>
      </trkpt>
      <trkpt lat="37.42019667" lon="-4.480515">
        <ele>469.0</ele>
        <time>2018-06-09T07:10:00.192Z</time>
      </trkpt>
      <trkpt lat="37.42018167" lon="-4.48048333">
        <ele>469.0</ele>
        <time>2018-06-09T07:10:01.195Z</time>
      </trkpt>
      <trkpt lat="37.42018167" lon="-4.48048333">
        <ele>469.0</ele>
        <time>2018-06-09T07:10:02.192Z</time>
      </trkpt>
      <trkpt lat="37.42016667" lon="-4.48045167">
        <ele>469.0</ele>
        <time>2018-06-09T07:10:03.174Z</time>
      </trkpt>
      <trkpt lat="37.42016167" lon="-4.48043333">
        <ele>469.0</ele>
        <time>2018-06-09T07:10:04.157Z</time>
      </trkpt>
      <trkpt lat="37.42016167" lon="-4.48043333">
        <ele>469.0</ele>
        <time>2018-06-09T07:10:05.183Z</time>
      </trkpt>
      <trkpt lat="37.42015" lon="-4.48039833">
        <ele>470.0</ele>
        <time>2018-06-09T07:10:06.163Z</time>
      </trkpt>
      <trkpt lat="37.420145" lon="-4.48038">
        <ele>470.0</ele>
        <time>2018-06-09T07:10:07.196Z</time>
      </trkpt>
      <trkpt lat="37.420145" lon="-4.48038">
        <ele>470.0</ele>
        <time>2018-06-09T07:10:08.186Z</time>
      </trkpt>
      <trkpt lat="37.42013333" lon="-4.480345">
        <ele>470.0</ele>
        <time>2018-06-09T07:10:09.168Z</time>
      </trkpt>
      <trkpt lat="37.42013333" lon="-4.480345">
        <ele>470.0</ele>
        <time>2018-06-09T07:10:10.191Z</time>
      </trkpt>
      <trkpt lat="37.42012333" lon="-4.48030667">
        <ele>470.0</ele>
        <time>2018-06-09T07:10:11.171Z</time>
      </trkpt>
      <trkpt lat="37.42012333" lon="-4.48030667">
        <ele>470.0</ele>
        <time>2018-06-09T07:10:12.191Z</time>
      </trkpt>
      <trkpt lat="37.42011" lon="-4.48026667">
        <ele>470.0</ele>
        <time>2018-06-09T07:10:13.175Z</time>
      </trkpt>
      <trkpt lat="37.42011" lon="-4.48026667">
        <ele>470.0</ele>
        <time>2018-06-09T07:10:14.193Z</time>
      </trkpt>
      <trkpt lat="37.42009833" lon="-4.48023167">
        <ele>470.0</ele>
        <time>2018-06-09T07:10:15.175Z</time>
      </trkpt>
      <trkpt lat="37.42009833" lon="-4.48023167">
        <ele>470.0</ele>
        <time>2018-06-09T07:10:16.195Z</time>
      </trkpt>
      <trkpt lat="37.42008833" lon="-4.48019833">
        <ele>470.0</ele>
        <time>2018-06-09T07:10:17.195Z</time>
      </trkpt>
      <trkpt lat="37.42008833" lon="-4.48019833">
        <ele>470.0</ele>
        <time>2018-06-09T07:10:18.164Z</time>
      </trkpt>
      <trkpt lat="37.42007667" lon="-4.480165">
        <ele>471.0</ele>
        <time>2018-06-09T07:10:19.157Z</time>
      </trkpt>
      <trkpt lat="37.42007667" lon="-4.480165">
        <ele>471.0</ele>
        <time>2018-06-09T07:10:20.182Z</time>
      </trkpt>
      <trkpt lat="37.42006667" lon="-4.48012833">
        <ele>471.0</ele>
        <time>2018-06-09T07:10:21.163Z</time>
      </trkpt>
      <trkpt lat="37.42006667" lon="-4.48012833">
        <ele>471.0</ele>
        <time>2018-06-09T07:10:22.191Z</time>
      </trkpt>
      <trkpt lat="37.420055" lon="-4.48009333">
        <ele>471.0</ele>
        <time>2018-06-09T07:10:23.196Z</time>
      </trkpt>
      <trkpt lat="37.420055" lon="-4.48009333">
        <ele>471.0</ele>
        <time>2018-06-09T07:10:24.186Z</time>
      </trkpt>
      <trkpt lat="37.42004333" lon="-4.48005333">
        <ele>471.0</ele>
        <time>2018-06-09T07:10:25.168Z</time>
      </trkpt>
      <trkpt lat="37.42004333" lon="-4.48005333">
        <ele>471.0</ele>
        <time>2018-06-09T07:10:26.177Z</time>
      </trkpt>
      <trkpt lat="37.42003333" lon="-4.48002">
        <ele>472.0</ele>
        <time>2018-06-09T07:10:27.194Z</time>
      </trkpt>
      <trkpt lat="37.42003333" lon="-4.48002">
        <ele>472.0</ele>
        <time>2018-06-09T07:10:28.186Z</time>
      </trkpt>
      <trkpt lat="37.42002167" lon="-4.47998167">
        <ele>472.0</ele>
        <time>2018-06-09T07:10:29.167Z</time>
      </trkpt>
      <trkpt lat="37.42001667" lon="-4.47996333">
        <ele>472.0</ele>
        <time>2018-06-09T07:10:30.195Z</time>
      </trkpt>
      <trkpt lat="37.42001667" lon="-4.47996333">
        <ele>472.0</ele>
        <time>2018-06-09T07:10:31.191Z</time>
      </trkpt>
      <trkpt lat="37.42000333" lon="-4.47992833">
        <ele>472.0</ele>
        <time>2018-06-09T07:10:32.195Z</time>
      </trkpt>
      <trkpt lat="37.42000333" lon="-4.47992833">
        <ele>472.0</ele>
        <time>2018-06-09T07:10:33.191Z</time>
      </trkpt>
      <trkpt lat="37.41999167" lon="-4.479895">
        <ele>472.0</ele>
        <time>2018-06-09T07:10:34.170Z</time>
      </trkpt>
      <trkpt lat="37.41998667" lon="-4.47987333">
        <ele>472.0</ele>
        <time>2018-06-09T07:10:35.196Z</time>
      </trkpt>
      <trkpt lat="37.41998667" lon="-4.47987333">
        <ele>472.0</ele>
        <time>2018-06-09T07:10:36.191Z</time>
      </trkpt>
      <trkpt lat="37.41996833" lon="-4.47982667">
        <ele>472.0</ele>
        <time>2018-06-09T07:10:37.194Z</time>
      </trkpt>
      <trkpt lat="37.41996833" lon="-4.47982667">
        <ele>472.0</ele>
        <time>2018-06-09T07:10:38.190Z</time>
      </trkpt>
      <trkpt lat="37.419945" lon="-4.47978">
        <ele>472.0</ele>
        <time>2018-06-09T07:10:39.170Z</time>
      </trkpt>
      <trkpt lat="37.419945" lon="-4.47978">
        <ele>472.0</ele>
        <time>2018-06-09T07:10:40.191Z</time>
      </trkpt>
      <trkpt lat="37.41991667" lon="-4.47972833">
        <ele>472.0</ele>
        <time>2018-06-09T07:10:41.171Z</time>
      </trkpt>
      <trkpt lat="37.41991667" lon="-4.47972833">
        <ele>472.0</ele>
        <time>2018-06-09T07:10:42.191Z</time>
      </trkpt>
      <trkpt lat="37.419905" lon="-4.47966833">
        <ele>472.0</ele>
        <time>2018-06-09T07:10:43.174Z</time>
      </trkpt>
      <trkpt lat="37.4199" lon="-4.47964167">
        <ele>472.0</ele>
        <time>2018-06-09T07:10:44.157Z</time>
      </trkpt>
      <trkpt lat="37.4199" lon="-4.47964167">
        <ele>472.0</ele>
        <time>2018-06-09T07:10:45.191Z</time>
      </trkpt>
      <trkpt lat="37.41987667" lon="-4.47959833">
        <ele>472.0</ele>
        <time>2018-06-09T07:10:46.194Z</time>
      </trkpt>
      <trkpt lat="37.41986833" lon="-4.47957333">
        <ele>472.0</ele>
        <time>2018-06-09T07:10:47.196Z</time>
      </trkpt>
      <trkpt lat="37.41986833" lon="-4.47957333">
        <ele>472.0</ele>
        <time>2018-06-09T07:10:48.191Z</time>
      </trkpt>
      <trkpt lat="37.41986667" lon="-4.47951333">
        <ele>472.0</ele>
        <time>2018-06-09T07:10:49.196Z</time>
      </trkpt>
      <trkpt lat="37.41986667" lon="-4.47951333">
        <ele>472.0</ele>
        <time>2018-06-09T07:10:50.189Z</time>
      </trkpt>
      <trkpt lat="37.41984833" lon="-4.47947333">
        <ele>472.0</ele>
        <time>2018-06-09T07:10:51.177Z</time>
      </trkpt>
      <trkpt lat="37.419845" lon="-4.479455">
        <ele>472.0</ele>
        <time>2018-06-09T07:10:52.196Z</time>
      </trkpt>
      <trkpt lat="37.419845" lon="-4.479455">
        <ele>472.0</ele>
        <time>2018-06-09T07:10:53.157Z</time>
      </trkpt>
      <trkpt lat="37.41984" lon="-4.47942833">
        <ele>472.0</ele>
        <time>2018-06-09T07:10:54.194Z</time>
      </trkpt>
      <trkpt lat="37.41984" lon="-4.47942833">
        <ele>472.0</ele>
        <time>2018-06-09T07:10:55.189Z</time>
      </trkpt>
      <trkpt lat="37.419845" lon="-4.479425">
        <ele>472.0</ele>
        <time>2018-06-09T07:10:56.168Z</time>
      </trkpt>
      <trkpt lat="37.419845" lon="-4.479425">
        <ele>472.0</ele>
        <time>2018-06-09T07:10:57.191Z</time>
      </trkpt>
      <trkpt lat="37.419845" lon="-4.47942333">
        <ele>472.0</ele>
        <time>2018-06-09T07:10:58.194Z</time>
      </trkpt>
      <trkpt lat="37.41983" lon="-4.479375">
        <ele>472.0</ele>
        <time>2018-06-09T07:10:59.196Z</time>
      </trkpt>
      <trkpt lat="37.41983" lon="-4.479375">
        <ele>472.0</ele>
        <time>2018-06-09T07:11:00.190Z</time>
      </trkpt>
      <trkpt lat="37.41981667" lon="-4.47934167">
        <ele>472.0</ele>
        <time>2018-06-09T07:11:01.193Z</time>
      </trkpt>
      <trkpt lat="37.41981667" lon="-4.47934167">
        <ele>472.0</ele>
        <time>2018-06-09T07:11:02.189Z</time>
      </trkpt>
      <trkpt lat="37.4198" lon="-4.47930667">
        <ele>472.0</ele>
        <time>2018-06-09T07:11:03.192Z</time>
      </trkpt>
      <trkpt lat="37.4198" lon="-4.47930667">
        <ele>472.0</ele>
        <time>2018-06-09T07:11:04.179Z</time>
      </trkpt>
      <trkpt lat="37.41978333" lon="-4.479265">
        <ele>472.0</ele>
        <time>2018-06-09T07:11:05.162Z</time>
      </trkpt>
      <trkpt lat="37.41978333" lon="-4.479265">
        <ele>472.0</ele>
        <time>2018-06-09T07:11:06.189Z</time>
      </trkpt>
      <trkpt lat="37.419765" lon="-4.47921167">
        <ele>472.0</ele>
        <time>2018-06-09T07:11:07.183Z</time>
      </trkpt>
      <trkpt lat="37.41975167" lon="-4.47918333">
        <ele>472.0</ele>
        <time>2018-06-09T07:11:08.165Z</time>
      </trkpt>
      <trkpt lat="37.41975167" lon="-4.47918333">
        <ele>472.0</ele>
        <time>2018-06-09T07:11:09.190Z</time>
      </trkpt>
      <trkpt lat="37.419725" lon="-4.47911">
        <ele>472.0</ele>
        <time>2018-06-09T07:11:10.189Z</time>
      </trkpt>
      <trkpt lat="37.419715" lon="-4.47906667">
        <ele>472.0</ele>
        <time>2018-06-09T07:11:11.169Z</time>
      </trkpt>
      <trkpt lat="37.419715" lon="-4.47906667">
        <ele>472.0</ele>
        <time>2018-06-09T07:11:12.189Z</time>
      </trkpt>
      <trkpt lat="37.41968333" lon="-4.47898">
        <ele>472.0</ele>
        <time>2018-06-09T07:11:13.193Z</time>
      </trkpt>
      <trkpt lat="37.41968333" lon="-4.47898">
        <ele>472.0</ele>
        <time>2018-06-09T07:11:14.188Z</time>
      </trkpt>
      <trkpt lat="37.41964333" lon="-4.47889">
        <ele>472.0</ele>
        <time>2018-06-09T07:11:15.167Z</time>
      </trkpt>
      <trkpt lat="37.419625" lon="-4.47884167">
        <ele>472.0</ele>
        <time>2018-06-09T07:11:16.192Z</time>
      </trkpt>
      <trkpt lat="37.419625" lon="-4.47884167">
        <ele>472.0</ele>
        <time>2018-06-09T07:11:17.174Z</time>
      </trkpt>
      <trkpt lat="37.41959167" lon="-4.47874167">
        <ele>472.0</ele>
        <time>2018-06-09T07:11:18.194Z</time>
      </trkpt>
      <trkpt lat="37.41959167" lon="-4.47874167">
        <ele>472.0</ele>
        <time>2018-06-09T07:11:19.182Z</time>
      </trkpt>
      <trkpt lat="37.41955833" lon="-4.47863667">
        <ele>472.0</ele>
        <time>2018-06-09T07:11:20.162Z</time>
      </trkpt>
      <trkpt lat="37.41955833" lon="-4.47863667">
        <ele>472.0</ele>
        <time>2018-06-09T07:11:21.189Z</time>
      </trkpt>
      <trkpt lat="37.419525" lon="-4.47853167">
        <ele>472.0</ele>
        <time>2018-06-09T07:11:22.172Z</time>
      </trkpt>
      <trkpt lat="37.41950667" lon="-4.47848">
        <ele>472.0</ele>
        <time>2018-06-09T07:11:23.193Z</time>
      </trkpt>
      <trkpt lat="37.41950667" lon="-4.47848">
        <ele>472.0</ele>
        <time>2018-06-09T07:11:24.172Z</time>
      </trkpt>
      <trkpt lat="37.419465" lon="-4.47838">
        <ele>472.0</ele>
        <time>2018-06-09T07:11:25.193Z</time>
      </trkpt>
      <trkpt lat="37.419465" lon="-4.47838">
        <ele>472.0</ele>
        <time>2018-06-09T07:11:26.190Z</time>
      </trkpt>
      <trkpt lat="37.41942167" lon="-4.47828">
        <ele>472.0</ele>
        <time>2018-06-09T07:11:27.173Z</time>
      </trkpt>
      <trkpt lat="37.41942167" lon="-4.47828">
        <ele>472.0</ele>
        <time>2018-06-09T07:11:28.194Z</time>
      </trkpt>
      <trkpt lat="37.419385" lon="-4.47817667">
        <ele>472.0</ele>
        <time>2018-06-09T07:11:29.196Z</time>
      </trkpt>
      <trkpt lat="37.41936833" lon="-4.478125">
        <ele>472.0</ele>
        <time>2018-06-09T07:11:30.162Z</time>
      </trkpt>
      <trkpt lat="37.41936833" lon="-4.478125">
        <ele>472.0</ele>
        <time>2018-06-09T07:11:31.188Z</time>
      </trkpt>
      <trkpt lat="37.41933167" lon="-4.47802">
        <ele>472.0</ele>
        <time>2018-06-09T07:11:32.168Z</time>
      </trkpt>
      <trkpt lat="37.41933167" lon="-4.47802">
        <ele>472.0</ele>
        <time>2018-06-09T07:11:33.189Z</time>
      </trkpt>
      <trkpt lat="37.41929667" lon="-4.477915">
        <ele>472.0</ele>
        <time>2018-06-09T07:11:34.171Z</time>
      </trkpt>
      <trkpt lat="37.41928" lon="-4.47786167">
        <ele>472.0</ele>
        <time>2018-06-09T07:11:35.162Z</time>
      </trkpt>
      <trkpt lat="37.41928" lon="-4.47786167">
        <ele>472.0</ele>
        <time>2018-06-09T07:11:36.189Z</time>
      </trkpt>
      <trkpt lat="37.41924333" lon="-4.47776">
        <ele>472.0</ele>
        <time>2018-06-09T07:11:37.173Z</time>
      </trkpt>
      <trkpt lat="37.41924333" lon="-4.47776">
        <ele>472.0</ele>
        <time>2018-06-09T07:11:38.190Z</time>
      </trkpt>
      <trkpt lat="37.41921333" lon="-4.47766">
        <ele>472.0</ele>
        <time>2018-06-09T07:11:39.192Z</time>
      </trkpt>
      <trkpt lat="37.41919667" lon="-4.47761">
        <ele>472.0</ele>
        <time>2018-06-09T07:11:40.193Z</time>
      </trkpt>
      <trkpt lat="37.41917667" lon="-4.47755833">
        <ele>472.0</ele>
        <time>2018-06-09T07:11:41.191Z</time>
      </trkpt>
      <trkpt lat="37.41917667" lon="-4.47755833">
        <ele>472.0</ele>
        <time>2018-06-09T07:11:42.189Z</time>
      </trkpt>
      <trkpt lat="37.41914167" lon="-4.47745167">
        <ele>472.0</ele>
        <time>2018-06-09T07:11:43.168Z</time>
      </trkpt>
      <trkpt lat="37.41914167" lon="-4.47745167">
        <ele>472.0</ele>
        <time>2018-06-09T07:11:44.190Z</time>
      </trkpt>
      <trkpt lat="37.41910167" lon="-4.477345">
        <ele>472.0</ele>
        <time>2018-06-09T07:11:45.193Z</time>
      </trkpt>
      <trkpt lat="37.41910167" lon="-4.477345">
        <ele>472.0</ele>
        <time>2018-06-09T07:11:46.190Z</time>
      </trkpt>
      <trkpt lat="37.41905833" lon="-4.47723833">
        <ele>472.0</ele>
        <time>2018-06-09T07:11:47.195Z</time>
      </trkpt>
      <trkpt lat="37.41905833" lon="-4.47723833">
        <ele>472.0</ele>
        <time>2018-06-09T07:11:48.189Z</time>
      </trkpt>
      <trkpt lat="37.41902" lon="-4.47713167">
        <ele>472.0</ele>
        <time>2018-06-09T07:11:49.193Z</time>
      </trkpt>
      <trkpt lat="37.41902" lon="-4.47713167">
        <ele>472.0</ele>
        <time>2018-06-09T07:11:50.192Z</time>
      </trkpt>
      <trkpt lat="37.41898167" lon="-4.47703">
        <ele>473.0</ele>
        <time>2018-06-09T07:11:51.189Z</time>
      </trkpt>
      <trkpt lat="37.41898167" lon="-4.47703">
        <ele>473.0</ele>
        <time>2018-06-09T07:11:52.184Z</time>
      </trkpt>
      <trkpt lat="37.41894" lon="-4.47692167">
        <ele>474.0</ele>
        <time>2018-06-09T07:11:53.163Z</time>
      </trkpt>
      <trkpt lat="37.41894" lon="-4.47692167">
        <ele>474.0</ele>
        <time>2018-06-09T07:11:54.189Z</time>
      </trkpt>
      <trkpt lat="37.41890333" lon="-4.47681333">
        <ele>474.0</ele>
        <time>2018-06-09T07:11:55.193Z</time>
      </trkpt>
      <trkpt lat="37.41890333" lon="-4.47681333">
        <ele>474.0</ele>
        <time>2018-06-09T07:11:56.187Z</time>
      </trkpt>
      <trkpt lat="37.41886333" lon="-4.47670667">
        <ele>474.0</ele>
        <time>2018-06-09T07:11:57.169Z</time>
      </trkpt>
      <trkpt lat="37.41886333" lon="-4.47670667">
        <ele>474.0</ele>
        <time>2018-06-09T07:11:58.189Z</time>
      </trkpt>
      <trkpt lat="37.418825" lon="-4.47659667">
        <ele>474.0</ele>
        <time>2018-06-09T07:11:59.169Z</time>
      </trkpt>
      <trkpt lat="37.418825" lon="-4.47659667">
        <ele>474.0</ele>
        <time>2018-06-09T07:12:00.189Z</time>
      </trkpt>
      <trkpt lat="37.41879" lon="-4.47648333">
        <ele>474.0</ele>
        <time>2018-06-09T07:12:01.192Z</time>
      </trkpt>
      <trkpt lat="37.41879" lon="-4.47648333">
        <ele>474.0</ele>
        <time>2018-06-09T07:12:02.189Z</time>
      </trkpt>
      <trkpt lat="37.41875833" lon="-4.47636833">
        <ele>474.0</ele>
        <time>2018-06-09T07:12:03.169Z</time>
      </trkpt>
      <trkpt lat="37.41875833" lon="-4.47636833">
        <ele>474.0</ele>
        <time>2018-06-09T07:12:04.189Z</time>
      </trkpt>
      <trkpt lat="37.41872" lon="-4.47625167">
        <ele>474.0</ele>
        <time>2018-06-09T07:12:05.168Z</time>
      </trkpt>
      <trkpt lat="37.41872" lon="-4.47625167">
        <ele>474.0</ele>
        <time>2018-06-09T07:12:06.190Z</time>
      </trkpt>
      <trkpt lat="37.41868333" lon="-4.476135">
        <ele>474.0</ele>
        <time>2018-06-09T07:12:07.183Z</time>
      </trkpt>
      <trkpt lat="37.41866333" lon="-4.47607667">
        <ele>474.0</ele>
        <time>2018-06-09T07:12:08.165Z</time>
      </trkpt>
      <trkpt lat="37.41866333" lon="-4.47607667">
        <ele>474.0</ele>
        <time>2018-06-09T07:12:09.189Z</time>
      </trkpt>
      <trkpt lat="37.41862333" lon="-4.475955">
        <ele>474.0</ele>
        <time>2018-06-09T07:12:10.172Z</time>
      </trkpt>
      <trkpt lat="37.41860167" lon="-4.475895">
        <ele>474.0</ele>
        <time>2018-06-09T07:12:11.195Z</time>
      </trkpt>
      <trkpt lat="37.41858167" lon="-4.47583667">
        <ele>474.0</ele>
        <time>2018-06-09T07:12:12.193Z</time>
      </trkpt>
      <trkpt lat="37.41858167" lon="-4.47583667">
        <ele>474.0</ele>
        <time>2018-06-09T07:12:13.192Z</time>
      </trkpt>
      <trkpt lat="37.41853667" lon="-4.47572333">
        <ele>474.0</ele>
        <time>2018-06-09T07:12:14.192Z</time>
      </trkpt>
      <trkpt lat="37.41853667" lon="-4.47572333">
        <ele>474.0</ele>
        <time>2018-06-09T07:12:15.186Z</time>
      </trkpt>
      <trkpt lat="37.41849" lon="-4.47560667">
        <ele>474.0</ele>
        <time>2018-06-09T07:12:16.166Z</time>
      </trkpt>
      <trkpt lat="37.41846833" lon="-4.475545">
        <ele>474.0</ele>
        <time>2018-06-09T07:12:17.194Z</time>
      </trkpt>
      <trkpt lat="37.41846833" lon="-4.475545">
        <ele>474.0</ele>
        <time>2018-06-09T07:12:18.189Z</time>
      </trkpt>
      <trkpt lat="37.41843" lon="-4.47542">
        <ele>474.0</ele>
        <time>2018-06-09T07:12:19.173Z</time>
      </trkpt>
      <trkpt lat="37.41843" lon="-4.47542">
        <ele>474.0</ele>
        <time>2018-06-09T07:12:20.192Z</time>
      </trkpt>
      <trkpt lat="37.41839167" lon="-4.475295">
        <ele>474.0</ele>
        <time>2018-06-09T07:12:21.192Z</time>
      </trkpt>
      <trkpt lat="37.41839167" lon="-4.475295">
        <ele>474.0</ele>
        <time>2018-06-09T07:12:22.189Z</time>
      </trkpt>
      <trkpt lat="37.41834833" lon="-4.47516833">
        <ele>474.0</ele>
        <time>2018-06-09T07:12:23.161Z</time>
      </trkpt>
      <trkpt lat="37.41834833" lon="-4.47516833">
        <ele>474.0</ele>
        <time>2018-06-09T07:12:24.165Z</time>
      </trkpt>
      <trkpt lat="37.41830167" lon="-4.47504333">
        <ele>474.0</ele>
        <time>2018-06-09T07:12:25.194Z</time>
      </trkpt>
      <trkpt lat="37.41828" lon="-4.47498167">
        <ele>474.0</ele>
        <time>2018-06-09T07:12:26.160Z</time>
      </trkpt>
      <trkpt lat="37.41825667" lon="-4.47492">
        <ele>474.0</ele>
        <time>2018-06-09T07:12:27.166Z</time>
      </trkpt>
      <trkpt lat="37.41825667" lon="-4.47492">
        <ele>474.0</ele>
        <time>2018-06-09T07:12:28.173Z</time>
      </trkpt>
      <trkpt lat="37.41821167" lon="-4.47479667">
        <ele>474.0</ele>
        <time>2018-06-09T07:12:29.193Z</time>
      </trkpt>
      <trkpt lat="37.41821167" lon="-4.47479667">
        <ele>474.0</ele>
        <time>2018-06-09T07:12:30.173Z</time>
      </trkpt>
      <trkpt lat="37.41816667" lon="-4.47467167">
        <ele>474.0</ele>
        <time>2018-06-09T07:12:31.194Z</time>
      </trkpt>
      <trkpt lat="37.41816667" lon="-4.47467167">
        <ele>474.0</ele>
        <time>2018-06-09T07:12:32.190Z</time>
      </trkpt>
      <trkpt lat="37.41812167" lon="-4.474545">
        <ele>474.0</ele>
        <time>2018-06-09T07:12:33.191Z</time>
      </trkpt>
      <trkpt lat="37.41812167" lon="-4.474545">
        <ele>474.0</ele>
        <time>2018-06-09T07:12:34.187Z</time>
      </trkpt>
      <trkpt lat="37.41807833" lon="-4.47442167">
        <ele>474.0</ele>
        <time>2018-06-09T07:12:35.165Z</time>
      </trkpt>
      <trkpt lat="37.41807833" lon="-4.47442167">
        <ele>474.0</ele>
        <time>2018-06-09T07:12:36.189Z</time>
      </trkpt>
      <trkpt lat="37.418035" lon="-4.474295">
        <ele>474.0</ele>
        <time>2018-06-09T07:12:37.173Z</time>
      </trkpt>
      <trkpt lat="37.41801167" lon="-4.47423333">
        <ele>474.0</ele>
        <time>2018-06-09T07:12:38.193Z</time>
      </trkpt>
      <trkpt lat="37.41801167" lon="-4.47423333">
        <ele>474.0</ele>
        <time>2018-06-09T07:12:39.185Z</time>
      </trkpt>
      <trkpt lat="37.41796667" lon="-4.47410833">
        <ele>474.0</ele>
        <time>2018-06-09T07:12:40.163Z</time>
      </trkpt>
      <trkpt lat="37.417945" lon="-4.47404667">
        <ele>474.0</ele>
        <time>2018-06-09T07:12:41.195Z</time>
      </trkpt>
      <trkpt lat="37.417945" lon="-4.47404667">
        <ele>474.0</ele>
        <time>2018-06-09T07:12:42.190Z</time>
      </trkpt>
      <trkpt lat="37.4179" lon="-4.47392333">
        <ele>474.0</ele>
        <time>2018-06-09T07:12:43.167Z</time>
      </trkpt>
      <trkpt lat="37.4179" lon="-4.47392333">
        <ele>474.0</ele>
        <time>2018-06-09T07:12:44.189Z</time>
      </trkpt>
      <trkpt lat="37.41785833" lon="-4.47379667">
        <ele>474.0</ele>
        <time>2018-06-09T07:12:45.193Z</time>
      </trkpt>
      <trkpt lat="37.41785833" lon="-4.47379667">
        <ele>474.0</ele>
        <time>2018-06-09T07:12:46.190Z</time>
      </trkpt>
      <trkpt lat="37.41782" lon="-4.47367167">
        <ele>474.0</ele>
        <time>2018-06-09T07:12:47.162Z</time>
      </trkpt>
      <trkpt lat="37.41782" lon="-4.47367167">
        <ele>474.0</ele>
        <time>2018-06-09T07:12:48.190Z</time>
      </trkpt>
      <trkpt lat="37.417775" lon="-4.473545">
        <ele>474.0</ele>
        <time>2018-06-09T07:12:49.172Z</time>
      </trkpt>
      <trkpt lat="37.417775" lon="-4.473545">
        <ele>474.0</ele>
        <time>2018-06-09T07:12:50.189Z</time>
      </trkpt>
      <trkpt lat="37.41773167" lon="-4.47341833">
        <ele>474.0</ele>
        <time>2018-06-09T07:12:51.190Z</time>
      </trkpt>
      <trkpt lat="37.41773167" lon="-4.47341833">
        <ele>474.0</ele>
        <time>2018-06-09T07:12:52.187Z</time>
      </trkpt>
      <trkpt lat="37.417685" lon="-4.4733">
        <ele>474.0</ele>
        <time>2018-06-09T07:12:53.169Z</time>
      </trkpt>
      <trkpt lat="37.417685" lon="-4.4733">
        <ele>474.0</ele>
        <time>2018-06-09T07:12:54.190Z</time>
      </trkpt>
      <trkpt lat="37.41764333" lon="-4.47318">
        <ele>474.0</ele>
        <time>2018-06-09T07:12:55.193Z</time>
      </trkpt>
      <trkpt lat="37.41764333" lon="-4.47318">
        <ele>474.0</ele>
        <time>2018-06-09T07:12:56.188Z</time>
      </trkpt>
      <trkpt lat="37.41760333" lon="-4.47305833">
        <ele>474.0</ele>
        <time>2018-06-09T07:12:57.169Z</time>
      </trkpt>
      <trkpt lat="37.41758167" lon="-4.47300167">
        <ele>474.0</ele>
        <time>2018-06-09T07:12:58.190Z</time>
      </trkpt>
      <trkpt lat="37.41755833" lon="-4.47294333">
        <ele>474.0</ele>
        <time>2018-06-09T07:12:59.172Z</time>
      </trkpt>
      <trkpt lat="37.41755833" lon="-4.47294333">
        <ele>474.0</ele>
        <time>2018-06-09T07:13:00.193Z</time>
      </trkpt>
      <trkpt lat="37.41751667" lon="-4.47282333">
        <ele>474.0</ele>
        <time>2018-06-09T07:13:01.194Z</time>
      </trkpt>
      <trkpt lat="37.41751667" lon="-4.47282333">
        <ele>474.0</ele>
        <time>2018-06-09T07:13:02.190Z</time>
      </trkpt>
      <trkpt lat="37.41747167" lon="-4.47270833">
        <ele>474.0</ele>
        <time>2018-06-09T07:13:03.193Z</time>
      </trkpt>
      <trkpt lat="37.41747167" lon="-4.47270833">
        <ele>474.0</ele>
        <time>2018-06-09T07:13:04.187Z</time>
      </trkpt>
      <trkpt lat="37.41742667" lon="-4.47259167">
        <ele>474.0</ele>
        <time>2018-06-09T07:13:05.166Z</time>
      </trkpt>
      <trkpt lat="37.41742667" lon="-4.47259167">
        <ele>474.0</ele>
        <time>2018-06-09T07:13:06.190Z</time>
      </trkpt>
      <trkpt lat="37.41738667" lon="-4.47247333">
        <ele>475.0</ele>
        <time>2018-06-09T07:13:07.194Z</time>
      </trkpt>
      <trkpt lat="37.417365" lon="-4.472415">
        <ele>475.0</ele>
        <time>2018-06-09T07:13:08.191Z</time>
      </trkpt>
      <trkpt lat="37.417365" lon="-4.472415">
        <ele>475.0</ele>
        <time>2018-06-09T07:13:09.189Z</time>
      </trkpt>
      <trkpt lat="37.41732667" lon="-4.47230167">
        <ele>475.0</ele>
        <time>2018-06-09T07:13:10.195Z</time>
      </trkpt>
      <trkpt lat="37.41731" lon="-4.47224167">
        <ele>475.0</ele>
        <time>2018-06-09T07:13:11.195Z</time>
      </trkpt>
      <trkpt lat="37.41731" lon="-4.47224167">
        <ele>475.0</ele>
        <time>2018-06-09T07:13:12.188Z</time>
      </trkpt>
      <trkpt lat="37.41727333" lon="-4.47212333">
        <ele>475.0</ele>
        <time>2018-06-09T07:13:13.167Z</time>
      </trkpt>
      <trkpt lat="37.41727333" lon="-4.47212333">
        <ele>475.0</ele>
        <time>2018-06-09T07:13:14.190Z</time>
      </trkpt>
      <trkpt lat="37.41724" lon="-4.47201">
        <ele>476.0</ele>
        <time>2018-06-09T07:13:15.169Z</time>
      </trkpt>
      <trkpt lat="37.41724" lon="-4.47201">
        <ele>476.0</ele>
        <time>2018-06-09T07:13:16.189Z</time>
      </trkpt>
      <trkpt lat="37.417205" lon="-4.47189833">
        <ele>476.0</ele>
        <time>2018-06-09T07:13:17.170Z</time>
      </trkpt>
      <trkpt lat="37.417205" lon="-4.47189833">
        <ele>476.0</ele>
        <time>2018-06-09T07:13:18.190Z</time>
      </trkpt>
      <trkpt lat="37.41717667" lon="-4.47178333">
        <ele>475.0</ele>
        <time>2018-06-09T07:13:19.173Z</time>
      </trkpt>
      <trkpt lat="37.41716667" lon="-4.47172667">
        <ele>475.0</ele>
        <time>2018-06-09T07:13:20.192Z</time>
      </trkpt>
      <trkpt lat="37.41716667" lon="-4.47172667">
        <ele>475.0</ele>
        <time>2018-06-09T07:13:21.189Z</time>
      </trkpt>
      <trkpt lat="37.41714333" lon="-4.47160833">
        <ele>475.0</ele>
        <time>2018-06-09T07:13:22.169Z</time>
      </trkpt>
      <trkpt lat="37.417135" lon="-4.47155">
        <ele>475.0</ele>
        <time>2018-06-09T07:13:23.171Z</time>
      </trkpt>
      <trkpt lat="37.417135" lon="-4.47155">
        <ele>475.0</ele>
        <time>2018-06-09T07:13:24.191Z</time>
      </trkpt>
      <trkpt lat="37.41710333" lon="-4.47144">
        <ele>475.0</ele>
        <time>2018-06-09T07:13:25.195Z</time>
      </trkpt>
      <trkpt lat="37.41710333" lon="-4.47144">
        <ele>475.0</ele>
        <time>2018-06-09T07:13:26.188Z</time>
      </trkpt>
      <trkpt lat="37.41707833" lon="-4.47132">
        <ele>476.0</ele>
        <time>2018-06-09T07:13:27.191Z</time>
      </trkpt>
      <trkpt lat="37.41707833" lon="-4.47132">
        <ele>476.0</ele>
        <time>2018-06-09T07:13:28.161Z</time>
      </trkpt>
      <trkpt lat="37.41706667" lon="-4.47120333">
        <ele>476.0</ele>
        <time>2018-06-09T07:13:29.195Z</time>
      </trkpt>
      <trkpt lat="37.41706667" lon="-4.47120333">
        <ele>476.0</ele>
        <time>2018-06-09T07:13:30.189Z</time>
      </trkpt>
      <trkpt lat="37.41704833" lon="-4.471085">
        <ele>476.0</ele>
        <time>2018-06-09T07:13:31.173Z</time>
      </trkpt>
      <trkpt lat="37.41704833" lon="-4.471085">
        <ele>476.0</ele>
        <time>2018-06-09T07:13:32.192Z</time>
      </trkpt>
      <trkpt lat="37.41703333" lon="-4.470965">
        <ele>476.0</ele>
        <time>2018-06-09T07:13:33.191Z</time>
      </trkpt>
      <trkpt lat="37.41703333" lon="-4.470965">
        <ele>476.0</ele>
        <time>2018-06-09T07:13:34.190Z</time>
      </trkpt>
      <trkpt lat="37.41702833" lon="-4.47085333">
        <ele>477.0</ele>
        <time>2018-06-09T07:13:35.170Z</time>
      </trkpt>
      <trkpt lat="37.41702833" lon="-4.47085333">
        <ele>477.0</ele>
        <time>2018-06-09T07:13:36.193Z</time>
      </trkpt>
      <trkpt lat="37.41703167" lon="-4.470735">
        <ele>477.0</ele>
        <time>2018-06-09T07:13:37.173Z</time>
      </trkpt>
      <trkpt lat="37.41703167" lon="-4.470735">
        <ele>477.0</ele>
        <time>2018-06-09T07:13:38.194Z</time>
      </trkpt>
      <trkpt lat="37.41703333" lon="-4.47062333">
        <ele>477.0</ele>
        <time>2018-06-09T07:13:39.193Z</time>
      </trkpt>
      <trkpt lat="37.41703333" lon="-4.47062333">
        <ele>477.0</ele>
        <time>2018-06-09T07:13:40.169Z</time>
      </trkpt>
      <trkpt lat="37.41703" lon="-4.47050667">
        <ele>477.0</ele>
        <time>2018-06-09T07:13:41.195Z</time>
      </trkpt>
      <trkpt lat="37.41702833" lon="-4.47044833">
        <ele>477.0</ele>
        <time>2018-06-09T07:13:42.191Z</time>
      </trkpt>
      <trkpt lat="37.41703" lon="-4.47038833">
        <ele>477.0</ele>
        <time>2018-06-09T07:13:43.169Z</time>
      </trkpt>
      <trkpt lat="37.41703" lon="-4.47032833">
        <ele>477.0</ele>
        <time>2018-06-09T07:13:44.193Z</time>
      </trkpt>
      <trkpt lat="37.41703" lon="-4.47032833">
        <ele>477.0</ele>
        <time>2018-06-09T07:13:45.190Z</time>
      </trkpt>
      <trkpt lat="37.41703167" lon="-4.47019833">
        <ele>477.0</ele>
        <time>2018-06-09T07:13:46.193Z</time>
      </trkpt>
      <trkpt lat="37.41703333" lon="-4.470135">
        <ele>477.0</ele>
        <time>2018-06-09T07:13:47.164Z</time>
      </trkpt>
      <trkpt lat="37.41703333" lon="-4.470135">
        <ele>477.0</ele>
        <time>2018-06-09T07:13:48.187Z</time>
      </trkpt>
      <trkpt lat="37.41703833" lon="-4.47000667">
        <ele>478.0</ele>
        <time>2018-06-09T07:13:49.169Z</time>
      </trkpt>
      <trkpt lat="37.417045" lon="-4.46994667">
        <ele>478.0</ele>
        <time>2018-06-09T07:13:50.194Z</time>
      </trkpt>
      <trkpt lat="37.417045" lon="-4.46994667">
        <ele>478.0</ele>
        <time>2018-06-09T07:13:51.190Z</time>
      </trkpt>
      <trkpt lat="37.41705833" lon="-4.46982167">
        <ele>478.0</ele>
        <time>2018-06-09T07:13:52.193Z</time>
      </trkpt>
      <trkpt lat="37.41705833" lon="-4.46982167">
        <ele>478.0</ele>
        <time>2018-06-09T07:13:53.189Z</time>
      </trkpt>
      <trkpt lat="37.417075" lon="-4.4697">
        <ele>479.0</ele>
        <time>2018-06-09T07:13:54.190Z</time>
      </trkpt>
      <trkpt lat="37.41708333" lon="-4.46964333">
        <ele>479.0</ele>
        <time>2018-06-09T07:13:55.193Z</time>
      </trkpt>
      <trkpt lat="37.41708333" lon="-4.46964333">
        <ele>479.0</ele>
        <time>2018-06-09T07:13:56.169Z</time>
      </trkpt>
      <trkpt lat="37.4171" lon="-4.46952833">
        <ele>480.0</ele>
        <time>2018-06-09T07:13:57.191Z</time>
      </trkpt>
      <trkpt lat="37.4171" lon="-4.46952833">
        <ele>480.0</ele>
        <time>2018-06-09T07:13:58.187Z</time>
      </trkpt>
      <trkpt lat="37.41712" lon="-4.46940667">
        <ele>480.0</ele>
        <time>2018-06-09T07:13:59.195Z</time>
      </trkpt>
      <trkpt lat="37.41712" lon="-4.46940667">
        <ele>480.0</ele>
        <time>2018-06-09T07:14:00.188Z</time>
      </trkpt>
      <trkpt lat="37.41714167" lon="-4.46928333">
        <ele>480.0</ele>
        <time>2018-06-09T07:14:01.167Z</time>
      </trkpt>
      <trkpt lat="37.41714167" lon="-4.46928333">
        <ele>480.0</ele>
        <time>2018-06-09T07:14:02.190Z</time>
      </trkpt>
      <trkpt lat="37.41717" lon="-4.46916">
        <ele>480.0</ele>
        <time>2018-06-09T07:14:03.192Z</time>
      </trkpt>
      <trkpt lat="37.41717" lon="-4.46916">
        <ele>480.0</ele>
        <time>2018-06-09T07:14:04.174Z</time>
      </trkpt>
      <trkpt lat="37.41720167" lon="-4.46904167">
        <ele>480.0</ele>
        <time>2018-06-09T07:14:05.196Z</time>
      </trkpt>
      <trkpt lat="37.41720167" lon="-4.46904167">
        <ele>480.0</ele>
        <time>2018-06-09T07:14:06.190Z</time>
      </trkpt>
      <trkpt lat="37.41723167" lon="-4.46892667">
        <ele>481.0</ele>
        <time>2018-06-09T07:14:07.193Z</time>
      </trkpt>
      <trkpt lat="37.41724667" lon="-4.46887167">
        <ele>481.0</ele>
        <time>2018-06-09T07:14:08.193Z</time>
      </trkpt>
      <trkpt lat="37.41724667" lon="-4.46887167">
        <ele>481.0</ele>
        <time>2018-06-09T07:14:09.174Z</time>
      </trkpt>
      <trkpt lat="37.41728" lon="-4.46876333">
        <ele>481.0</ele>
        <time>2018-06-09T07:14:10.194Z</time>
      </trkpt>
      <trkpt lat="37.41729833" lon="-4.46871">
        <ele>481.0</ele>
        <time>2018-06-09T07:14:11.175Z</time>
      </trkpt>
      <trkpt lat="37.41729833" lon="-4.46871">
        <ele>481.0</ele>
        <time>2018-06-09T07:14:12.169Z</time>
      </trkpt>
      <trkpt lat="37.41733833" lon="-4.46860667">
        <ele>481.0</ele>
        <time>2018-06-09T07:14:13.194Z</time>
      </trkpt>
      <trkpt lat="37.41733833" lon="-4.46860667">
        <ele>481.0</ele>
        <time>2018-06-09T07:14:14.190Z</time>
      </trkpt>
      <trkpt lat="37.41737667" lon="-4.46850167">
        <ele>481.0</ele>
        <time>2018-06-09T07:14:15.193Z</time>
      </trkpt>
      <trkpt lat="37.41737667" lon="-4.46850167">
        <ele>481.0</ele>
        <time>2018-06-09T07:14:16.185Z</time>
      </trkpt>
      <trkpt lat="37.41741667" lon="-4.468395">
        <ele>482.0</ele>
        <time>2018-06-09T07:14:17.167Z</time>
      </trkpt>
      <trkpt lat="37.41741667" lon="-4.468395">
        <ele>482.0</ele>
        <time>2018-06-09T07:14:18.190Z</time>
      </trkpt>
      <trkpt lat="37.41745833" lon="-4.46829333">
        <ele>482.0</ele>
        <time>2018-06-09T07:14:19.194Z</time>
      </trkpt>
      <trkpt lat="37.41745833" lon="-4.46829333">
        <ele>482.0</ele>
        <time>2018-06-09T07:14:20.188Z</time>
      </trkpt>
      <trkpt lat="37.41750333" lon="-4.46819167">
        <ele>482.0</ele>
        <time>2018-06-09T07:14:21.169Z</time>
      </trkpt>
      <trkpt lat="37.41752667" lon="-4.46814">
        <ele>482.0</ele>
        <time>2018-06-09T07:14:22.192Z</time>
      </trkpt>
      <trkpt lat="37.41755167" lon="-4.46808833">
        <ele>482.0</ele>
        <time>2018-06-09T07:14:23.195Z</time>
      </trkpt>
      <trkpt lat="37.41755167" lon="-4.46808833">
        <ele>482.0</ele>
        <time>2018-06-09T07:14:24.190Z</time>
      </trkpt>
      <trkpt lat="37.41760333" lon="-4.46798167">
        <ele>482.0</ele>
        <time>2018-06-09T07:14:25.195Z</time>
      </trkpt>
      <trkpt lat="37.41760333" lon="-4.46798167">
        <ele>482.0</ele>
        <time>2018-06-09T07:14:26.188Z</time>
      </trkpt>
      <trkpt lat="37.41765833" lon="-4.467875">
        <ele>482.0</ele>
        <time>2018-06-09T07:14:27.169Z</time>
      </trkpt>
      <trkpt lat="37.41768833" lon="-4.467825">
        <ele>482.0</ele>
        <time>2018-06-09T07:14:28.161Z</time>
      </trkpt>
      <trkpt lat="37.41772" lon="-4.467775">
        <ele>482.0</ele>
        <time>2018-06-09T07:14:29.195Z</time>
      </trkpt>
      <trkpt lat="37.41772" lon="-4.467775">
        <ele>482.0</ele>
        <time>2018-06-09T07:14:30.190Z</time>
      </trkpt>
      <trkpt lat="37.41778167" lon="-4.46767667">
        <ele>482.0</ele>
        <time>2018-06-09T07:14:31.172Z</time>
      </trkpt>
      <trkpt lat="37.41781167" lon="-4.46762667">
        <ele>482.0</ele>
        <time>2018-06-09T07:14:32.192Z</time>
      </trkpt>
      <trkpt lat="37.41784333" lon="-4.46757667">
        <ele>482.0</ele>
        <time>2018-06-09T07:14:33.193Z</time>
      </trkpt>
      <trkpt lat="37.41784333" lon="-4.46757667">
        <ele>482.0</ele>
        <time>2018-06-09T07:14:34.173Z</time>
      </trkpt>
      <trkpt lat="37.417905" lon="-4.46748167">
        <ele>482.0</ele>
        <time>2018-06-09T07:14:35.195Z</time>
      </trkpt>
      <trkpt lat="37.417905" lon="-4.46748167">
        <ele>482.0</ele>
        <time>2018-06-09T07:14:36.187Z</time>
      </trkpt>
      <trkpt lat="37.41796667" lon="-4.46738833">
        <ele>482.0</ele>
        <time>2018-06-09T07:14:37.167Z</time>
      </trkpt>
      <trkpt lat="37.41796667" lon="-4.46738833">
        <ele>482.0</ele>
        <time>2018-06-09T07:14:38.190Z</time>
      </trkpt>
      <trkpt lat="37.41802833" lon="-4.467295">
        <ele>482.0</ele>
        <time>2018-06-09T07:14:39.169Z</time>
      </trkpt>
      <trkpt lat="37.41805833" lon="-4.46725167">
        <ele>482.0</ele>
        <time>2018-06-09T07:14:40.171Z</time>
      </trkpt>
      <trkpt lat="37.41805833" lon="-4.46725167">
        <ele>482.0</ele>
        <time>2018-06-09T07:14:41.195Z</time>
      </trkpt>
      <trkpt lat="37.41812" lon="-4.46716">
        <ele>482.0</ele>
        <time>2018-06-09T07:14:42.194Z</time>
      </trkpt>
      <trkpt lat="37.41815" lon="-4.467115">
        <ele>482.0</ele>
        <time>2018-06-09T07:14:43.194Z</time>
      </trkpt>
      <trkpt lat="37.41815" lon="-4.467115">
        <ele>482.0</ele>
        <time>2018-06-09T07:14:44.189Z</time>
      </trkpt>
      <trkpt lat="37.41820833" lon="-4.46702167">
        <ele>482.0</ele>
        <time>2018-06-09T07:14:45.162Z</time>
      </trkpt>
      <trkpt lat="37.41820833" lon="-4.46702167">
        <ele>482.0</ele>
        <time>2018-06-09T07:14:46.189Z</time>
      </trkpt>
      <trkpt lat="37.41826667" lon="-4.46693">
        <ele>482.0</ele>
        <time>2018-06-09T07:14:47.157Z</time>
      </trkpt>
      <trkpt lat="37.41826667" lon="-4.46693">
        <ele>482.0</ele>
        <time>2018-06-09T07:14:48.190Z</time>
      </trkpt>
      <trkpt lat="37.41832833" lon="-4.46684333">
        <ele>482.0</ele>
        <time>2018-06-09T07:14:49.196Z</time>
      </trkpt>
      <trkpt lat="37.41832833" lon="-4.46684333">
        <ele>482.0</ele>
        <time>2018-06-09T07:14:50.188Z</time>
      </trkpt>
      <trkpt lat="37.41838833" lon="-4.46676">
        <ele>482.0</ele>
        <time>2018-06-09T07:14:51.168Z</time>
      </trkpt>
      <trkpt lat="37.41841833" lon="-4.46671833">
        <ele>482.0</ele>
        <time>2018-06-09T07:14:52.194Z</time>
      </trkpt>
      <trkpt lat="37.41844667" lon="-4.46667667">
        <ele>482.0</ele>
        <time>2018-06-09T07:14:53.196Z</time>
      </trkpt>
      <trkpt lat="37.41844667" lon="-4.46667667">
        <ele>482.0</ele>
        <time>2018-06-09T07:14:54.189Z</time>
      </trkpt>
      <trkpt lat="37.41850333" lon="-4.466595">
        <ele>482.0</ele>
        <time>2018-06-09T07:14:55.168Z</time>
      </trkpt>
      <trkpt lat="37.41853167" lon="-4.46655833">
        <ele>482.0</ele>
        <time>2018-06-09T07:14:56.194Z</time>
      </trkpt>
      <trkpt lat="37.41853167" lon="-4.46655833">
        <ele>482.0</ele>
        <time>2018-06-09T07:14:57.190Z</time>
      </trkpt>
      <trkpt lat="37.41859" lon="-4.46648667">
        <ele>482.0</ele>
        <time>2018-06-09T07:14:58.193Z</time>
      </trkpt>
      <trkpt lat="37.41862" lon="-4.46644667">
        <ele>482.0</ele>
        <time>2018-06-09T07:14:59.195Z</time>
      </trkpt>
      <trkpt lat="37.41862" lon="-4.46644667">
        <ele>482.0</ele>
        <time>2018-06-09T07:15:00.190Z</time>
      </trkpt>
      <trkpt lat="37.41867167" lon="-4.46636">
        <ele>482.0</ele>
        <time>2018-06-09T07:15:01.170Z</time>
      </trkpt>
      <trkpt lat="37.41867167" lon="-4.46636">
        <ele>482.0</ele>
        <time>2018-06-09T07:15:02.170Z</time>
      </trkpt>
      <trkpt lat="37.41872667" lon="-4.46627333">
        <ele>482.0</ele>
        <time>2018-06-09T07:15:03.195Z</time>
      </trkpt>
      <trkpt lat="37.41872667" lon="-4.46627333">
        <ele>482.0</ele>
        <time>2018-06-09T07:15:04.174Z</time>
      </trkpt>
      <trkpt lat="37.41878333" lon="-4.46618833">
        <ele>482.0</ele>
        <time>2018-06-09T07:15:05.196Z</time>
      </trkpt>
      <trkpt lat="37.41878333" lon="-4.46618833">
        <ele>482.0</ele>
        <time>2018-06-09T07:15:06.188Z</time>
      </trkpt>
      <trkpt lat="37.41883667" lon="-4.46610167">
        <ele>482.0</ele>
        <time>2018-06-09T07:15:07.167Z</time>
      </trkpt>
      <trkpt lat="37.41883667" lon="-4.46610167">
        <ele>482.0</ele>
        <time>2018-06-09T07:15:08.190Z</time>
      </trkpt>
      <trkpt lat="37.41888833" lon="-4.46601333">
        <ele>482.0</ele>
        <time>2018-06-09T07:15:09.173Z</time>
      </trkpt>
      <trkpt lat="37.41891333" lon="-4.46597">
        <ele>482.0</ele>
        <time>2018-06-09T07:15:10.195Z</time>
      </trkpt>
      <trkpt lat="37.41893833" lon="-4.46592667">
        <ele>482.0</ele>
        <time>2018-06-09T07:15:11.195Z</time>
      </trkpt>
      <trkpt lat="37.41896167" lon="-4.46588167">
        <ele>482.0</ele>
        <time>2018-06-09T07:15:12.162Z</time>
      </trkpt>
      <trkpt lat="37.41896167" lon="-4.46588167">
        <ele>482.0</ele>
        <time>2018-06-09T07:15:13.186Z</time>
      </trkpt>
      <trkpt lat="37.41901" lon="-4.46579">
        <ele>483.0</ele>
        <time>2018-06-09T07:15:14.192Z</time>
      </trkpt>
      <trkpt lat="37.41901" lon="-4.46579">
        <ele>483.0</ele>
        <time>2018-06-09T07:15:15.158Z</time>
      </trkpt>
      <trkpt lat="37.41905333" lon="-4.46569333">
        <ele>483.0</ele>
        <time>2018-06-09T07:15:16.195Z</time>
      </trkpt>
      <trkpt lat="37.41907667" lon="-4.46564333">
        <ele>483.0</ele>
        <time>2018-06-09T07:15:17.195Z</time>
      </trkpt>
      <trkpt lat="37.41907667" lon="-4.46564333">
        <ele>483.0</ele>
        <time>2018-06-09T07:15:18.190Z</time>
      </trkpt>
      <trkpt lat="37.41912" lon="-4.465545">
        <ele>483.0</ele>
        <time>2018-06-09T07:15:19.170Z</time>
      </trkpt>
      <trkpt lat="37.41912" lon="-4.465545">
        <ele>483.0</ele>
        <time>2018-06-09T07:15:20.190Z</time>
      </trkpt>
      <trkpt lat="37.419165" lon="-4.46544667">
        <ele>483.0</ele>
        <time>2018-06-09T07:15:21.195Z</time>
      </trkpt>
      <trkpt lat="37.419165" lon="-4.46544667">
        <ele>483.0</ele>
        <time>2018-06-09T07:15:22.189Z</time>
      </trkpt>
      <trkpt lat="37.41920333" lon="-4.46534833">
        <ele>483.0</ele>
        <time>2018-06-09T07:15:23.195Z</time>
      </trkpt>
      <trkpt lat="37.41920333" lon="-4.46534833">
        <ele>483.0</ele>
        <time>2018-06-09T07:15:24.190Z</time>
      </trkpt>
      <trkpt lat="37.41923833" lon="-4.46524667">
        <ele>483.0</ele>
        <time>2018-06-09T07:15:25.192Z</time>
      </trkpt>
      <trkpt lat="37.41923833" lon="-4.46524667">
        <ele>483.0</ele>
        <time>2018-06-09T07:15:26.188Z</time>
      </trkpt>
      <trkpt lat="37.41927333" lon="-4.46514333">
        <ele>483.0</ele>
        <time>2018-06-09T07:15:27.193Z</time>
      </trkpt>
      <trkpt lat="37.41929" lon="-4.46509">
        <ele>483.0</ele>
        <time>2018-06-09T07:15:28.194Z</time>
      </trkpt>
      <trkpt lat="37.41929" lon="-4.46509">
        <ele>483.0</ele>
        <time>2018-06-09T07:15:29.169Z</time>
      </trkpt>
      <trkpt lat="37.41932167" lon="-4.46498333">
        <ele>483.0</ele>
        <time>2018-06-09T07:15:30.195Z</time>
      </trkpt>
      <trkpt lat="37.419335" lon="-4.46493">
        <ele>484.0</ele>
        <time>2018-06-09T07:15:31.196Z</time>
      </trkpt>
      <trkpt lat="37.419335" lon="-4.46493">
        <ele>484.0</ele>
        <time>2018-06-09T07:15:32.192Z</time>
      </trkpt>
      <trkpt lat="37.41936" lon="-4.46482333">
        <ele>484.0</ele>
        <time>2018-06-09T07:15:33.193Z</time>
      </trkpt>
      <trkpt lat="37.41937167" lon="-4.46476833">
        <ele>484.0</ele>
        <time>2018-06-09T07:15:34.190Z</time>
      </trkpt>
      <trkpt lat="37.41938333" lon="-4.46471333">
        <ele>484.0</ele>
        <time>2018-06-09T07:15:35.159Z</time>
      </trkpt>
      <trkpt lat="37.41938333" lon="-4.46471333">
        <ele>484.0</ele>
        <time>2018-06-09T07:15:36.188Z</time>
      </trkpt>
      <trkpt lat="37.41941167" lon="-4.464605">
        <ele>484.0</ele>
        <time>2018-06-09T07:15:37.169Z</time>
      </trkpt>
      <trkpt lat="37.41941167" lon="-4.464605">
        <ele>484.0</ele>
        <time>2018-06-09T07:15:38.190Z</time>
      </trkpt>
      <trkpt lat="37.41943333" lon="-4.46449333">
        <ele>484.0</ele>
        <time>2018-06-09T07:15:39.192Z</time>
      </trkpt>
      <trkpt lat="37.41944667" lon="-4.46443667">
        <ele>484.0</ele>
        <time>2018-06-09T07:15:40.168Z</time>
      </trkpt>
      <trkpt lat="37.41945833" lon="-4.46438167">
        <ele>485.0</ele>
        <time>2018-06-09T07:15:41.196Z</time>
      </trkpt>
      <trkpt lat="37.41945833" lon="-4.46438167">
        <ele>485.0</ele>
        <time>2018-06-09T07:15:42.188Z</time>
      </trkpt>
      <trkpt lat="37.41948167" lon="-4.46427">
        <ele>485.0</ele>
        <time>2018-06-09T07:15:43.168Z</time>
      </trkpt>
      <trkpt lat="37.41948167" lon="-4.46427">
        <ele>485.0</ele>
        <time>2018-06-09T07:15:44.189Z</time>
      </trkpt>
      <trkpt lat="37.4195" lon="-4.464155">
        <ele>485.0</ele>
        <time>2018-06-09T07:15:45.168Z</time>
      </trkpt>
      <trkpt lat="37.4195" lon="-4.464155">
        <ele>485.0</ele>
        <time>2018-06-09T07:15:46.191Z</time>
      </trkpt>
      <trkpt lat="37.41951167" lon="-4.46403833">
        <ele>485.0</ele>
        <time>2018-06-09T07:15:47.171Z</time>
      </trkpt>
      <trkpt lat="37.41951833" lon="-4.46397833">
        <ele>485.0</ele>
        <time>2018-06-09T07:15:48.194Z</time>
      </trkpt>
      <trkpt lat="37.41952333" lon="-4.46392">
        <ele>485.0</ele>
        <time>2018-06-09T07:15:49.195Z</time>
      </trkpt>
      <trkpt lat="37.41952333" lon="-4.46392">
        <ele>485.0</ele>
        <time>2018-06-09T07:15:50.189Z</time>
      </trkpt>
      <trkpt lat="37.41953333" lon="-4.46380333">
        <ele>485.0</ele>
        <time>2018-06-09T07:15:51.175Z</time>
      </trkpt>
      <trkpt lat="37.41953833" lon="-4.46374167">
        <ele>486.0</ele>
        <time>2018-06-09T07:15:52.196Z</time>
      </trkpt>
      <trkpt lat="37.41954333" lon="-4.46368167">
        <ele>486.0</ele>
        <time>2018-06-09T07:15:53.158Z</time>
      </trkpt>
      <trkpt lat="37.41954333" lon="-4.46368167">
        <ele>486.0</ele>
        <time>2018-06-09T07:15:54.191Z</time>
      </trkpt>
      <trkpt lat="37.419555" lon="-4.46356167">
        <ele>486.0</ele>
        <time>2018-06-09T07:15:55.194Z</time>
      </trkpt>
      <trkpt lat="37.419555" lon="-4.46356167">
        <ele>486.0</ele>
        <time>2018-06-09T07:15:56.190Z</time>
      </trkpt>
      <trkpt lat="37.419565" lon="-4.46344">
        <ele>486.0</ele>
        <time>2018-06-09T07:15:57.194Z</time>
      </trkpt>
      <trkpt lat="37.41957" lon="-4.46338">
        <ele>486.0</ele>
        <time>2018-06-09T07:15:58.195Z</time>
      </trkpt>
      <trkpt lat="37.419575" lon="-4.46331833">
        <ele>486.0</ele>
        <time>2018-06-09T07:15:59.157Z</time>
      </trkpt>
      <trkpt lat="37.419575" lon="-4.46331833">
        <ele>486.0</ele>
        <time>2018-06-09T07:16:00.191Z</time>
      </trkpt>
      <trkpt lat="37.41958667" lon="-4.46319667">
        <ele>486.0</ele>
        <time>2018-06-09T07:16:01.194Z</time>
      </trkpt>
      <trkpt lat="37.41958667" lon="-4.46319667">
        <ele>486.0</ele>
        <time>2018-06-09T07:16:02.190Z</time>
      </trkpt>
      <trkpt lat="37.41959667" lon="-4.46307833">
        <ele>486.0</ele>
        <time>2018-06-09T07:16:03.193Z</time>
      </trkpt>
      <trkpt lat="37.4196" lon="-4.46301833">
        <ele>487.0</ele>
        <time>2018-06-09T07:16:04.195Z</time>
      </trkpt>
      <trkpt lat="37.4196" lon="-4.46301833">
        <ele>487.0</ele>
        <time>2018-06-09T07:16:05.190Z</time>
      </trkpt>
      <trkpt lat="37.41961" lon="-4.46289833">
        <ele>487.0</ele>
        <time>2018-06-09T07:16:06.195Z</time>
      </trkpt>
      <trkpt lat="37.41961667" lon="-4.46283833">
        <ele>487.0</ele>
        <time>2018-06-09T07:16:07.194Z</time>
      </trkpt>
      <trkpt lat="37.41961667" lon="-4.46283833">
        <ele>487.0</ele>
        <time>2018-06-09T07:16:08.192Z</time>
      </trkpt>
      <trkpt lat="37.419625" lon="-4.46271833">
        <ele>487.0</ele>
        <time>2018-06-09T07:16:09.195Z</time>
      </trkpt>
      <trkpt lat="37.419625" lon="-4.46271833">
        <ele>487.0</ele>
        <time>2018-06-09T07:16:10.190Z</time>
      </trkpt>
      <trkpt lat="37.419635" lon="-4.46259667">
        <ele>487.0</ele>
        <time>2018-06-09T07:16:11.170Z</time>
      </trkpt>
      <trkpt lat="37.419635" lon="-4.46259667">
        <ele>487.0</ele>
        <time>2018-06-09T07:16:12.159Z</time>
      </trkpt>
      <trkpt lat="37.41964667" lon="-4.46247833">
        <ele>487.0</ele>
        <time>2018-06-09T07:16:13.194Z</time>
      </trkpt>
      <trkpt lat="37.41964667" lon="-4.46247833">
        <ele>487.0</ele>
        <time>2018-06-09T07:16:14.190Z</time>
      </trkpt>
      <trkpt lat="37.41965833" lon="-4.46236">
        <ele>487.0</ele>
        <time>2018-06-09T07:16:15.192Z</time>
      </trkpt>
      <trkpt lat="37.41965833" lon="-4.46236">
        <ele>487.0</ele>
        <time>2018-06-09T07:16:16.169Z</time>
      </trkpt>
      <trkpt lat="37.41966833" lon="-4.46224667">
        <ele>487.0</ele>
        <time>2018-06-09T07:16:17.196Z</time>
      </trkpt>
      <trkpt lat="37.41966833" lon="-4.46224667">
        <ele>487.0</ele>
        <time>2018-06-09T07:16:18.189Z</time>
      </trkpt>
      <trkpt lat="37.41968333" lon="-4.46213167">
        <ele>487.0</ele>
        <time>2018-06-09T07:16:19.169Z</time>
      </trkpt>
      <trkpt lat="37.41968333" lon="-4.46213167">
        <ele>487.0</ele>
        <time>2018-06-09T07:16:20.189Z</time>
      </trkpt>
      <trkpt lat="37.4197" lon="-4.46202">
        <ele>488.0</ele>
        <time>2018-06-09T07:16:21.169Z</time>
      </trkpt>
      <trkpt lat="37.4197" lon="-4.46202">
        <ele>488.0</ele>
        <time>2018-06-09T07:16:22.157Z</time>
      </trkpt>
      <trkpt lat="37.41972167" lon="-4.4619">
        <ele>489.0</ele>
        <time>2018-06-09T07:16:23.194Z</time>
      </trkpt>
      <trkpt lat="37.41972167" lon="-4.4619">
        <ele>489.0</ele>
        <time>2018-06-09T07:16:24.190Z</time>
      </trkpt>
      <trkpt lat="37.41974167" lon="-4.46178333">
        <ele>489.0</ele>
        <time>2018-06-09T07:16:25.191Z</time>
      </trkpt>
      <trkpt lat="37.41974167" lon="-4.46178333">
        <ele>489.0</ele>
        <time>2018-06-09T07:16:26.168Z</time>
      </trkpt>
      <trkpt lat="37.41976167" lon="-4.46166333">
        <ele>489.0</ele>
        <time>2018-06-09T07:16:27.195Z</time>
      </trkpt>
      <trkpt lat="37.41976167" lon="-4.46166333">
        <ele>489.0</ele>
        <time>2018-06-09T07:16:28.190Z</time>
      </trkpt>
      <trkpt lat="37.41978167" lon="-4.461545">
        <ele>489.0</ele>
        <time>2018-06-09T07:16:29.173Z</time>
      </trkpt>
      <trkpt lat="37.41978167" lon="-4.461545">
        <ele>489.0</ele>
        <time>2018-06-09T07:16:30.190Z</time>
      </trkpt>
      <trkpt lat="37.41980833" lon="-4.46142833">
        <ele>490.0</ele>
        <time>2018-06-09T07:16:31.170Z</time>
      </trkpt>
      <trkpt lat="37.41980833" lon="-4.46142833">
        <ele>490.0</ele>
        <time>2018-06-09T07:16:32.161Z</time>
      </trkpt>
      <trkpt lat="37.41983833" lon="-4.461315">
        <ele>490.0</ele>
        <time>2018-06-09T07:16:33.195Z</time>
      </trkpt>
      <trkpt lat="37.41983833" lon="-4.461315">
        <ele>490.0</ele>
        <time>2018-06-09T07:16:34.194Z</time>
      </trkpt>
      <trkpt lat="37.41987" lon="-4.461205">
        <ele>490.0</ele>
        <time>2018-06-09T07:16:35.157Z</time>
      </trkpt>
      <trkpt lat="37.41988667" lon="-4.46114667">
        <ele>490.0</ele>
        <time>2018-06-09T07:16:36.195Z</time>
      </trkpt>
      <trkpt lat="37.41988667" lon="-4.46114667">
        <ele>490.0</ele>
        <time>2018-06-09T07:16:37.192Z</time>
      </trkpt>
      <trkpt lat="37.41991833" lon="-4.46103167">
        <ele>490.0</ele>
        <time>2018-06-09T07:16:38.195Z</time>
      </trkpt>
      <trkpt lat="37.41991833" lon="-4.46103167">
        <ele>490.0</ele>
        <time>2018-06-09T07:16:39.189Z</time>
      </trkpt>
      <trkpt lat="37.41996" lon="-4.46092">
        <ele>490.0</ele>
        <time>2018-06-09T07:16:40.195Z</time>
      </trkpt>
      <trkpt lat="37.41998167" lon="-4.46086667">
        <ele>490.0</ele>
        <time>2018-06-09T07:16:41.157Z</time>
      </trkpt>
      <trkpt lat="37.41998167" lon="-4.46086667">
        <ele>490.0</ele>
        <time>2018-06-09T07:16:42.189Z</time>
      </trkpt>
      <trkpt lat="37.42002833" lon="-4.46076">
        <ele>491.0</ele>
        <time>2018-06-09T07:16:43.194Z</time>
      </trkpt>
      <trkpt lat="37.42002833" lon="-4.46076">
        <ele>491.0</ele>
        <time>2018-06-09T07:16:44.190Z</time>
      </trkpt>
      <trkpt lat="37.42007667" lon="-4.46065167">
        <ele>491.0</ele>
        <time>2018-06-09T07:16:45.170Z</time>
      </trkpt>
      <trkpt lat="37.42007667" lon="-4.46065167">
        <ele>491.0</ele>
        <time>2018-06-09T07:16:46.192Z</time>
      </trkpt>
      <trkpt lat="37.42012167" lon="-4.460545">
        <ele>491.0</ele>
        <time>2018-06-09T07:16:47.162Z</time>
      </trkpt>
      <trkpt lat="37.42012167" lon="-4.460545">
        <ele>491.0</ele>
        <time>2018-06-09T07:16:48.189Z</time>
      </trkpt>
      <trkpt lat="37.42017" lon="-4.46044">
        <ele>491.0</ele>
        <time>2018-06-09T07:16:49.162Z</time>
      </trkpt>
      <trkpt lat="37.42017" lon="-4.46044">
        <ele>491.0</ele>
        <time>2018-06-09T07:16:50.190Z</time>
      </trkpt>
      <trkpt lat="37.42022333" lon="-4.46033167">
        <ele>491.0</ele>
        <time>2018-06-09T07:16:51.191Z</time>
      </trkpt>
      <trkpt lat="37.42022333" lon="-4.46033167">
        <ele>491.0</ele>
        <time>2018-06-09T07:16:52.168Z</time>
      </trkpt>
      <trkpt lat="37.42027167" lon="-4.460225">
        <ele>491.0</ele>
        <time>2018-06-09T07:16:53.196Z</time>
      </trkpt>
      <trkpt lat="37.42027167" lon="-4.460225">
        <ele>491.0</ele>
        <time>2018-06-09T07:16:54.189Z</time>
      </trkpt>
      <trkpt lat="37.42032333" lon="-4.46012167">
        <ele>491.0</ele>
        <time>2018-06-09T07:16:55.169Z</time>
      </trkpt>
      <trkpt lat="37.42032333" lon="-4.46012167">
        <ele>491.0</ele>
        <time>2018-06-09T07:16:56.190Z</time>
      </trkpt>
      <trkpt lat="37.42038" lon="-4.46002333">
        <ele>491.0</ele>
        <time>2018-06-09T07:16:57.170Z</time>
      </trkpt>
      <trkpt lat="37.42038" lon="-4.46002333">
        <ele>491.0</ele>
        <time>2018-06-09T07:16:58.190Z</time>
      </trkpt>
      <trkpt lat="37.42044" lon="-4.45992833">
        <ele>492.0</ele>
        <time>2018-06-09T07:16:59.170Z</time>
      </trkpt>
      <trkpt lat="37.42044" lon="-4.45992833">
        <ele>492.0</ele>
        <time>2018-06-09T07:17:00.190Z</time>
      </trkpt>
      <trkpt lat="37.42050167" lon="-4.459835">
        <ele>492.0</ele>
        <time>2018-06-09T07:17:01.169Z</time>
      </trkpt>
      <trkpt lat="37.42050167" lon="-4.459835">
        <ele>492.0</ele>
        <time>2018-06-09T07:17:02.189Z</time>
      </trkpt>
      <trkpt lat="37.42056667" lon="-4.45974333">
        <ele>492.0</ele>
        <time>2018-06-09T07:17:03.192Z</time>
      </trkpt>
      <trkpt lat="37.4206" lon="-4.45969667">
        <ele>492.0</ele>
        <time>2018-06-09T07:17:04.169Z</time>
      </trkpt>
      <trkpt lat="37.420635" lon="-4.45965167">
        <ele>492.0</ele>
        <time>2018-06-09T07:17:05.195Z</time>
      </trkpt>
      <trkpt lat="37.420635" lon="-4.45965167">
        <ele>492.0</ele>
        <time>2018-06-09T07:17:06.181Z</time>
      </trkpt>
      <trkpt lat="37.42070333" lon="-4.45956333">
        <ele>492.0</ele>
        <time>2018-06-09T07:17:07.170Z</time>
      </trkpt>
      <trkpt lat="37.42070333" lon="-4.45956333">
        <ele>492.0</ele>
        <time>2018-06-09T07:17:08.168Z</time>
      </trkpt>
      <trkpt lat="37.42077333" lon="-4.45947667">
        <ele>492.0</ele>
        <time>2018-06-09T07:17:09.191Z</time>
      </trkpt>
      <trkpt lat="37.42080833" lon="-4.45943167">
        <ele>492.0</ele>
        <time>2018-06-09T07:17:10.169Z</time>
      </trkpt>
      <trkpt lat="37.42080833" lon="-4.45943167">
        <ele>492.0</ele>
        <time>2018-06-09T07:17:11.191Z</time>
      </trkpt>
      <trkpt lat="37.42087833" lon="-4.45934667">
        <ele>492.0</ele>
        <time>2018-06-09T07:17:12.195Z</time>
      </trkpt>
      <trkpt lat="37.42091167" lon="-4.45930167">
        <ele>492.0</ele>
        <time>2018-06-09T07:17:13.157Z</time>
      </trkpt>
      <trkpt lat="37.42091167" lon="-4.45930167">
        <ele>492.0</ele>
        <time>2018-06-09T07:17:14.189Z</time>
      </trkpt>
      <trkpt lat="37.420975" lon="-4.45921333">
        <ele>492.0</ele>
        <time>2018-06-09T07:17:15.195Z</time>
      </trkpt>
      <trkpt lat="37.420975" lon="-4.45921333">
        <ele>492.0</ele>
        <time>2018-06-09T07:17:16.191Z</time>
      </trkpt>
      <trkpt lat="37.42104167" lon="-4.45912833">
        <ele>492.0</ele>
        <time>2018-06-09T07:17:17.157Z</time>
      </trkpt>
      <trkpt lat="37.42104167" lon="-4.45912833">
        <ele>492.0</ele>
        <time>2018-06-09T07:17:18.189Z</time>
      </trkpt>
      <trkpt lat="37.42111" lon="-4.45904833">
        <ele>492.0</ele>
        <time>2018-06-09T07:17:19.170Z</time>
      </trkpt>
      <trkpt lat="37.42111" lon="-4.45904833">
        <ele>492.0</ele>
        <time>2018-06-09T07:17:20.191Z</time>
      </trkpt>
      <trkpt lat="37.42117" lon="-4.45897">
        <ele>492.0</ele>
        <time>2018-06-09T07:17:21.191Z</time>
      </trkpt>
      <trkpt lat="37.4212" lon="-4.45893167">
        <ele>492.0</ele>
        <time>2018-06-09T07:17:22.170Z</time>
      </trkpt>
      <trkpt lat="37.42123333" lon="-4.45889">
        <ele>492.0</ele>
        <time>2018-06-09T07:17:23.166Z</time>
      </trkpt>
      <trkpt lat="37.42123333" lon="-4.45889">
        <ele>492.0</ele>
        <time>2018-06-09T07:17:24.190Z</time>
      </trkpt>
      <trkpt lat="37.42129" lon="-4.458815">
        <ele>492.0</ele>
        <time>2018-06-09T07:17:25.170Z</time>
      </trkpt>
      <trkpt lat="37.42129" lon="-4.458815">
        <ele>492.0</ele>
        <time>2018-06-09T07:17:26.192Z</time>
      </trkpt>
      <trkpt lat="37.42135" lon="-4.45873833">
        <ele>492.0</ele>
        <time>2018-06-09T07:17:27.191Z</time>
      </trkpt>
      <trkpt lat="37.42137833" lon="-4.4587">
        <ele>492.0</ele>
        <time>2018-06-09T07:17:28.171Z</time>
      </trkpt>
      <trkpt lat="37.421405" lon="-4.45866167">
        <ele>492.0</ele>
        <time>2018-06-09T07:17:29.157Z</time>
      </trkpt>
      <trkpt lat="37.42142833" lon="-4.458625">
        <ele>492.0</ele>
        <time>2018-06-09T07:17:30.157Z</time>
      </trkpt>
      <trkpt lat="37.42142833" lon="-4.458625">
        <ele>492.0</ele>
        <time>2018-06-09T07:17:31.193Z</time>
      </trkpt>
      <trkpt lat="37.42147833" lon="-4.458555">
        <ele>492.0</ele>
        <time>2018-06-09T07:17:32.194Z</time>
      </trkpt>
      <trkpt lat="37.421505" lon="-4.45852167">
        <ele>492.0</ele>
        <time>2018-06-09T07:17:33.195Z</time>
      </trkpt>
      <trkpt lat="37.421505" lon="-4.45852167">
        <ele>492.0</ele>
        <time>2018-06-09T07:17:34.186Z</time>
      </trkpt>
      <trkpt lat="37.42154167" lon="-4.45844833">
        <ele>492.0</ele>
        <time>2018-06-09T07:17:35.166Z</time>
      </trkpt>
      <trkpt lat="37.42154167" lon="-4.45844833">
        <ele>492.0</ele>
        <time>2018-06-09T07:17:36.189Z</time>
      </trkpt>
      <trkpt lat="37.42152333" lon="-4.45836333">
        <ele>493.0</ele>
        <time>2018-06-09T07:17:37.170Z</time>
      </trkpt>
      <trkpt lat="37.42152333" lon="-4.45836333">
        <ele>493.0</ele>
        <time>2018-06-09T07:17:38.190Z</time>
      </trkpt>
      <trkpt lat="37.42148" lon="-4.45826167">
        <ele>491.0</ele>
        <time>2018-06-09T07:17:39.196Z</time>
      </trkpt>
      <trkpt lat="37.42146667" lon="-4.45820333">
        <ele>490.0</ele>
        <time>2018-06-09T07:17:40.196Z</time>
      </trkpt>
      <trkpt lat="37.42146833" lon="-4.45814667">
        <ele>490.0</ele>
        <time>2018-06-09T07:17:41.171Z</time>
      </trkpt>
      <trkpt lat="37.42146833" lon="-4.45814667">
        <ele>490.0</ele>
        <time>2018-06-09T07:17:42.190Z</time>
      </trkpt>
      <trkpt lat="37.42151" lon="-4.45805167">
        <ele>490.0</ele>
        <time>2018-06-09T07:17:43.195Z</time>
      </trkpt>
      <trkpt lat="37.42151" lon="-4.45805167">
        <ele>490.0</ele>
        <time>2018-06-09T07:17:44.189Z</time>
      </trkpt>
      <trkpt lat="37.42156" lon="-4.45796333">
        <ele>490.0</ele>
        <time>2018-06-09T07:17:45.169Z</time>
      </trkpt>
      <trkpt lat="37.42156" lon="-4.45796333">
        <ele>490.0</ele>
        <time>2018-06-09T07:17:46.190Z</time>
      </trkpt>
      <trkpt lat="37.421615" lon="-4.45787833">
        <ele>490.0</ele>
        <time>2018-06-09T07:17:47.170Z</time>
      </trkpt>
      <trkpt lat="37.421615" lon="-4.45787833">
        <ele>490.0</ele>
        <time>2018-06-09T07:17:48.192Z</time>
      </trkpt>
      <trkpt lat="37.42167833" lon="-4.45779167">
        <ele>491.0</ele>
        <time>2018-06-09T07:17:49.195Z</time>
      </trkpt>
      <trkpt lat="37.42167833" lon="-4.45779167">
        <ele>491.0</ele>
        <time>2018-06-09T07:17:50.191Z</time>
      </trkpt>
      <trkpt lat="37.42174833" lon="-4.457715">
        <ele>491.0</ele>
        <time>2018-06-09T07:17:51.171Z</time>
      </trkpt>
      <trkpt lat="37.42179" lon="-4.45768667">
        <ele>491.0</ele>
        <time>2018-06-09T07:17:52.196Z</time>
      </trkpt>
      <trkpt lat="37.42179" lon="-4.45768667">
        <ele>491.0</ele>
        <time>2018-06-09T07:17:53.172Z</time>
      </trkpt>
      <trkpt lat="37.42188833" lon="-4.45764833">
        <ele>491.0</ele>
        <time>2018-06-09T07:17:54.193Z</time>
      </trkpt>
      <trkpt lat="37.42194333" lon="-4.45764833">
        <ele>491.0</ele>
        <time>2018-06-09T07:17:55.195Z</time>
      </trkpt>
      <trkpt lat="37.42194333" lon="-4.45764833">
        <ele>491.0</ele>
        <time>2018-06-09T07:17:56.189Z</time>
      </trkpt>
      <trkpt lat="37.422045" lon="-4.45767833">
        <ele>492.0</ele>
        <time>2018-06-09T07:17:57.195Z</time>
      </trkpt>
      <trkpt lat="37.42208667" lon="-4.45769833">
        <ele>493.0</ele>
        <time>2018-06-09T07:17:58.171Z</time>
      </trkpt>
      <trkpt lat="37.42208667" lon="-4.45769833">
        <ele>493.0</ele>
        <time>2018-06-09T07:17:59.194Z</time>
      </trkpt>
      <trkpt lat="37.422155" lon="-4.457715">
        <ele>494.0</ele>
        <time>2018-06-09T07:18:00.195Z</time>
      </trkpt>
      <trkpt lat="37.42218" lon="-4.45769">
        <ele>494.0</ele>
        <time>2018-06-09T07:18:01.196Z</time>
      </trkpt>
      <trkpt lat="37.42218" lon="-4.45769">
        <ele>494.0</ele>
        <time>2018-06-09T07:18:02.186Z</time>
      </trkpt>
      <trkpt lat="37.42222833" lon="-4.45763">
        <ele>495.0</ele>
        <time>2018-06-09T07:18:03.158Z</time>
      </trkpt>
      <trkpt lat="37.42222833" lon="-4.45763">
        <ele>495.0</ele>
        <time>2018-06-09T07:18:04.189Z</time>
      </trkpt>
      <trkpt lat="37.42228167" lon="-4.457565">
        <ele>494.0</ele>
        <time>2018-06-09T07:18:05.170Z</time>
      </trkpt>
      <trkpt lat="37.42228167" lon="-4.457565">
        <ele>494.0</ele>
        <time>2018-06-09T07:18:06.189Z</time>
      </trkpt>
      <trkpt lat="37.422335" lon="-4.45749167">
        <ele>495.0</ele>
        <time>2018-06-09T07:18:07.170Z</time>
      </trkpt>
      <trkpt lat="37.422335" lon="-4.45749167">
        <ele>495.0</ele>
        <time>2018-06-09T07:18:08.158Z</time>
      </trkpt>
      <trkpt lat="37.42238833" lon="-4.457415">
        <ele>495.0</ele>
        <time>2018-06-09T07:18:09.192Z</time>
      </trkpt>
      <trkpt lat="37.42241667" lon="-4.45737833">
        <ele>495.0</ele>
        <time>2018-06-09T07:18:10.195Z</time>
      </trkpt>
      <trkpt lat="37.42244667" lon="-4.45734167">
        <ele>495.0</ele>
        <time>2018-06-09T07:18:11.195Z</time>
      </trkpt>
      <trkpt lat="37.42244667" lon="-4.45734167">
        <ele>495.0</ele>
        <time>2018-06-09T07:18:12.189Z</time>
      </trkpt>
      <trkpt lat="37.422505" lon="-4.457265">
        <ele>495.0</ele>
        <time>2018-06-09T07:18:13.178Z</time>
      </trkpt>
      <trkpt lat="37.422505" lon="-4.457265">
        <ele>495.0</ele>
        <time>2018-06-09T07:18:14.194Z</time>
      </trkpt>
      <trkpt lat="37.42256667" lon="-4.45719">
        <ele>495.0</ele>
        <time>2018-06-09T07:18:15.194Z</time>
      </trkpt>
      <trkpt lat="37.42259833" lon="-4.45715333">
        <ele>495.0</ele>
        <time>2018-06-09T07:18:16.196Z</time>
      </trkpt>
      <trkpt lat="37.42263" lon="-4.457115">
        <ele>495.0</ele>
        <time>2018-06-09T07:18:17.196Z</time>
      </trkpt>
      <trkpt lat="37.42263" lon="-4.457115">
        <ele>495.0</ele>
        <time>2018-06-09T07:18:18.190Z</time>
      </trkpt>
      <trkpt lat="37.42268833" lon="-4.45703167">
        <ele>495.0</ele>
        <time>2018-06-09T07:18:19.170Z</time>
      </trkpt>
      <trkpt lat="37.42268833" lon="-4.45703167">
        <ele>495.0</ele>
        <time>2018-06-09T07:18:20.171Z</time>
      </trkpt>
      <trkpt lat="37.42274333" lon="-4.45694667">
        <ele>495.0</ele>
        <time>2018-06-09T07:18:21.195Z</time>
      </trkpt>
      <trkpt lat="37.42274333" lon="-4.45694667">
        <ele>495.0</ele>
        <time>2018-06-09T07:18:22.188Z</time>
      </trkpt>
      <trkpt lat="37.42280333" lon="-4.45686333">
        <ele>495.0</ele>
        <time>2018-06-09T07:18:23.158Z</time>
      </trkpt>
      <trkpt lat="37.42280333" lon="-4.45686333">
        <ele>495.0</ele>
        <time>2018-06-09T07:18:24.181Z</time>
      </trkpt>
      <trkpt lat="37.42285833" lon="-4.45677667">
        <ele>495.0</ele>
        <time>2018-06-09T07:18:25.195Z</time>
      </trkpt>
      <trkpt lat="37.42285833" lon="-4.45677667">
        <ele>495.0</ele>
        <time>2018-06-09T07:18:26.190Z</time>
      </trkpt>
      <trkpt lat="37.42291333" lon="-4.45669">
        <ele>495.0</ele>
        <time>2018-06-09T07:18:27.189Z</time>
      </trkpt>
      <trkpt lat="37.42294" lon="-4.45664667">
        <ele>495.0</ele>
        <time>2018-06-09T07:18:28.172Z</time>
      </trkpt>
      <trkpt lat="37.42296833" lon="-4.456605">
        <ele>495.0</ele>
        <time>2018-06-09T07:18:29.158Z</time>
      </trkpt>
      <trkpt lat="37.42296833" lon="-4.456605">
        <ele>495.0</ele>
        <time>2018-06-09T07:18:30.189Z</time>
      </trkpt>
      <trkpt lat="37.42301667" lon="-4.45651333">
        <ele>495.0</ele>
        <time>2018-06-09T07:18:31.169Z</time>
      </trkpt>
      <trkpt lat="37.42301667" lon="-4.45651333">
        <ele>495.0</ele>
        <time>2018-06-09T07:18:32.189Z</time>
      </trkpt>
      <trkpt lat="37.423065" lon="-4.45642">
        <ele>495.0</ele>
        <time>2018-06-09T07:18:33.195Z</time>
      </trkpt>
      <trkpt lat="37.423065" lon="-4.45642">
        <ele>495.0</ele>
        <time>2018-06-09T07:18:34.189Z</time>
      </trkpt>
      <trkpt lat="37.42311333" lon="-4.45632667">
        <ele>495.0</ele>
        <time>2018-06-09T07:18:35.170Z</time>
      </trkpt>
      <trkpt lat="37.42311333" lon="-4.45632667">
        <ele>495.0</ele>
        <time>2018-06-09T07:18:36.192Z</time>
      </trkpt>
      <trkpt lat="37.42315833" lon="-4.45623167">
        <ele>495.0</ele>
        <time>2018-06-09T07:18:37.195Z</time>
      </trkpt>
      <trkpt lat="37.42315833" lon="-4.45623167">
        <ele>495.0</ele>
        <time>2018-06-09T07:18:38.189Z</time>
      </trkpt>
      <trkpt lat="37.42320833" lon="-4.45613833">
        <ele>496.0</ele>
        <time>2018-06-09T07:18:39.168Z</time>
      </trkpt>
      <trkpt lat="37.42320833" lon="-4.45613833">
        <ele>496.0</ele>
        <time>2018-06-09T07:18:40.192Z</time>
      </trkpt>
      <trkpt lat="37.42325333" lon="-4.45604">
        <ele>496.0</ele>
        <time>2018-06-09T07:18:41.172Z</time>
      </trkpt>
      <trkpt lat="37.42325333" lon="-4.45604">
        <ele>496.0</ele>
        <time>2018-06-09T07:18:42.191Z</time>
      </trkpt>
      <trkpt lat="37.42329167" lon="-4.45593667">
        <ele>496.0</ele>
        <time>2018-06-09T07:18:43.194Z</time>
      </trkpt>
      <trkpt lat="37.42329167" lon="-4.45593667">
        <ele>496.0</ele>
        <time>2018-06-09T07:18:44.190Z</time>
      </trkpt>
      <trkpt lat="37.42333333" lon="-4.45583333">
        <ele>496.0</ele>
        <time>2018-06-09T07:18:45.171Z</time>
      </trkpt>
      <trkpt lat="37.42333333" lon="-4.45583333">
        <ele>496.0</ele>
        <time>2018-06-09T07:18:46.192Z</time>
      </trkpt>
      <trkpt lat="37.42337167" lon="-4.45573167">
        <ele>496.0</ele>
        <time>2018-06-09T07:18:47.162Z</time>
      </trkpt>
      <trkpt lat="37.42337167" lon="-4.45573167">
        <ele>496.0</ele>
        <time>2018-06-09T07:18:48.189Z</time>
      </trkpt>
      <trkpt lat="37.42340833" lon="-4.45562833">
        <ele>496.0</ele>
        <time>2018-06-09T07:18:49.195Z</time>
      </trkpt>
      <trkpt lat="37.42340833" lon="-4.45562833">
        <ele>496.0</ele>
        <time>2018-06-09T07:18:50.189Z</time>
      </trkpt>
      <trkpt lat="37.42344333" lon="-4.45552">
        <ele>497.0</ele>
        <time>2018-06-09T07:18:51.168Z</time>
      </trkpt>
      <trkpt lat="37.42346" lon="-4.455465">
        <ele>497.0</ele>
        <time>2018-06-09T07:18:52.195Z</time>
      </trkpt>
      <trkpt lat="37.42346" lon="-4.455465">
        <ele>497.0</ele>
        <time>2018-06-09T07:18:53.192Z</time>
      </trkpt>
      <trkpt lat="37.42348833" lon="-4.45535667">
        <ele>497.0</ele>
        <time>2018-06-09T07:18:54.195Z</time>
      </trkpt>
      <trkpt lat="37.42350167" lon="-4.4553">
        <ele>497.0</ele>
        <time>2018-06-09T07:18:55.157Z</time>
      </trkpt>
      <trkpt lat="37.42350167" lon="-4.4553">
        <ele>497.0</ele>
        <time>2018-06-09T07:18:56.190Z</time>
      </trkpt>
      <trkpt lat="37.42352333" lon="-4.45518833">
        <ele>497.0</ele>
        <time>2018-06-09T07:18:57.194Z</time>
      </trkpt>
      <trkpt lat="37.42352333" lon="-4.45518833">
        <ele>497.0</ele>
        <time>2018-06-09T07:18:58.189Z</time>
      </trkpt>
      <trkpt lat="37.42354667" lon="-4.45507667">
        <ele>498.0</ele>
        <time>2018-06-09T07:18:59.169Z</time>
      </trkpt>
      <trkpt lat="37.42354667" lon="-4.45507667">
        <ele>498.0</ele>
        <time>2018-06-09T07:19:00.161Z</time>
      </trkpt>
      <trkpt lat="37.42357333" lon="-4.45496667">
        <ele>498.0</ele>
        <time>2018-06-09T07:19:01.194Z</time>
      </trkpt>
      <trkpt lat="37.42357333" lon="-4.45496667">
        <ele>498.0</ele>
        <time>2018-06-09T07:19:02.189Z</time>
      </trkpt>
      <trkpt lat="37.42359333" lon="-4.454855">
        <ele>498.0</ele>
        <time>2018-06-09T07:19:03.169Z</time>
      </trkpt>
      <trkpt lat="37.42359333" lon="-4.454855">
        <ele>498.0</ele>
        <time>2018-06-09T07:19:04.195Z</time>
      </trkpt>
      <trkpt lat="37.42360833" lon="-4.45474167">
        <ele>498.0</ele>
        <time>2018-06-09T07:19:05.159Z</time>
      </trkpt>
      <trkpt lat="37.42360833" lon="-4.45474167">
        <ele>498.0</ele>
        <time>2018-06-09T07:19:06.189Z</time>
      </trkpt>
      <trkpt lat="37.42362" lon="-4.45463">
        <ele>498.0</ele>
        <time>2018-06-09T07:19:07.170Z</time>
      </trkpt>
      <trkpt lat="37.42362" lon="-4.45463">
        <ele>498.0</ele>
        <time>2018-06-09T07:19:08.193Z</time>
      </trkpt>
      <trkpt lat="37.42363333" lon="-4.45451833">
        <ele>499.0</ele>
        <time>2018-06-09T07:19:09.195Z</time>
      </trkpt>
      <trkpt lat="37.42363333" lon="-4.45451833">
        <ele>499.0</ele>
        <time>2018-06-09T07:19:10.190Z</time>
      </trkpt>
      <trkpt lat="37.423645" lon="-4.454405">
        <ele>499.0</ele>
        <time>2018-06-09T07:19:11.196Z</time>
      </trkpt>
      <trkpt lat="37.423645" lon="-4.454405">
        <ele>499.0</ele>
        <time>2018-06-09T07:19:12.188Z</time>
      </trkpt>
      <trkpt lat="37.42365333" lon="-4.45428833">
        <ele>499.0</ele>
        <time>2018-06-09T07:19:13.168Z</time>
      </trkpt>
      <trkpt lat="37.42365333" lon="-4.45428833">
        <ele>499.0</ele>
        <time>2018-06-09T07:19:14.171Z</time>
      </trkpt>
      <trkpt lat="37.423655" lon="-4.45417167">
        <ele>499.0</ele>
        <time>2018-06-09T07:19:15.195Z</time>
      </trkpt>
      <trkpt lat="37.423655" lon="-4.45417167">
        <ele>499.0</ele>
        <time>2018-06-09T07:19:16.190Z</time>
      </trkpt>
      <trkpt lat="37.42365333" lon="-4.45405167">
        <ele>500.0</ele>
        <time>2018-06-09T07:19:17.189Z</time>
      </trkpt>
      <trkpt lat="37.42365333" lon="-4.45405167">
        <ele>500.0</ele>
        <time>2018-06-09T07:19:18.171Z</time>
      </trkpt>
      <trkpt lat="37.42365333" lon="-4.45393167">
        <ele>500.0</ele>
        <time>2018-06-09T07:19:19.195Z</time>
      </trkpt>
      <trkpt lat="37.42365333" lon="-4.45393167">
        <ele>500.0</ele>
        <time>2018-06-09T07:19:20.190Z</time>
      </trkpt>
      <trkpt lat="37.423655" lon="-4.453815">
        <ele>500.0</ele>
        <time>2018-06-09T07:19:21.171Z</time>
      </trkpt>
      <trkpt lat="37.423655" lon="-4.453815">
        <ele>500.0</ele>
        <time>2018-06-09T07:19:22.191Z</time>
      </trkpt>
      <trkpt lat="37.42365167" lon="-4.4537">
        <ele>500.0</ele>
        <time>2018-06-09T07:19:23.157Z</time>
      </trkpt>
      <trkpt lat="37.42365167" lon="-4.4537">
        <ele>500.0</ele>
        <time>2018-06-09T07:19:24.189Z</time>
      </trkpt>
      <trkpt lat="37.42364667" lon="-4.45358333">
        <ele>501.0</ele>
        <time>2018-06-09T07:19:25.170Z</time>
      </trkpt>
      <trkpt lat="37.42364667" lon="-4.45358333">
        <ele>501.0</ele>
        <time>2018-06-09T07:19:26.195Z</time>
      </trkpt>
      <trkpt lat="37.423635" lon="-4.45346833">
        <ele>502.0</ele>
        <time>2018-06-09T07:19:27.157Z</time>
      </trkpt>
      <trkpt lat="37.423635" lon="-4.45346833">
        <ele>502.0</ele>
        <time>2018-06-09T07:19:28.189Z</time>
      </trkpt>
      <trkpt lat="37.42362" lon="-4.45335833">
        <ele>502.0</ele>
        <time>2018-06-09T07:19:29.169Z</time>
      </trkpt>
      <trkpt lat="37.42362" lon="-4.45335833">
        <ele>502.0</ele>
        <time>2018-06-09T07:19:30.191Z</time>
      </trkpt>
      <trkpt lat="37.42360667" lon="-4.45324333">
        <ele>502.0</ele>
        <time>2018-06-09T07:19:31.169Z</time>
      </trkpt>
      <trkpt lat="37.42360667" lon="-4.45324333">
        <ele>502.0</ele>
        <time>2018-06-09T07:19:32.190Z</time>
      </trkpt>
      <trkpt lat="37.42358833" lon="-4.45313333">
        <ele>502.0</ele>
        <time>2018-06-09T07:19:33.194Z</time>
      </trkpt>
      <trkpt lat="37.42358833" lon="-4.45313333">
        <ele>502.0</ele>
        <time>2018-06-09T07:19:34.186Z</time>
      </trkpt>
      <trkpt lat="37.42356333" lon="-4.45302333">
        <ele>502.0</ele>
        <time>2018-06-09T07:19:35.173Z</time>
      </trkpt>
      <trkpt lat="37.42356333" lon="-4.45302333">
        <ele>502.0</ele>
        <time>2018-06-09T07:19:36.191Z</time>
      </trkpt>
      <trkpt lat="37.423545" lon="-4.45291167">
        <ele>503.0</ele>
        <time>2018-06-09T07:19:37.195Z</time>
      </trkpt>
      <trkpt lat="37.423545" lon="-4.45291167">
        <ele>503.0</ele>
        <time>2018-06-09T07:19:38.189Z</time>
      </trkpt>
      <trkpt lat="37.42352833" lon="-4.45280167">
        <ele>503.0</ele>
        <time>2018-06-09T07:19:39.169Z</time>
      </trkpt>
      <trkpt lat="37.42352" lon="-4.452745">
        <ele>503.0</ele>
        <time>2018-06-09T07:19:40.158Z</time>
      </trkpt>
      <trkpt lat="37.42351" lon="-4.45269167">
        <ele>503.0</ele>
        <time>2018-06-09T07:19:41.157Z</time>
      </trkpt>
      <trkpt lat="37.42351" lon="-4.45269167">
        <ele>503.0</ele>
        <time>2018-06-09T07:19:42.195Z</time>
      </trkpt>
      <trkpt lat="37.42348667" lon="-4.45258667">
        <ele>504.0</ele>
        <time>2018-06-09T07:19:43.170Z</time>
      </trkpt>
      <trkpt lat="37.42348667" lon="-4.45258667">
        <ele>504.0</ele>
        <time>2018-06-09T07:19:44.189Z</time>
      </trkpt>
      <trkpt lat="37.42345667" lon="-4.45248333">
        <ele>504.0</ele>
        <time>2018-06-09T07:19:45.196Z</time>
      </trkpt>
      <trkpt lat="37.42345667" lon="-4.45248333">
        <ele>504.0</ele>
        <time>2018-06-09T07:19:46.189Z</time>
      </trkpt>
      <trkpt lat="37.42342833" lon="-4.452375">
        <ele>505.0</ele>
        <time>2018-06-09T07:19:47.165Z</time>
      </trkpt>
      <trkpt lat="37.42342833" lon="-4.452375">
        <ele>505.0</ele>
        <time>2018-06-09T07:19:48.189Z</time>
      </trkpt>
      <trkpt lat="37.42340167" lon="-4.45226833">
        <ele>505.0</ele>
        <time>2018-06-09T07:19:49.169Z</time>
      </trkpt>
      <trkpt lat="37.42340167" lon="-4.45226833">
        <ele>505.0</ele>
        <time>2018-06-09T07:19:50.189Z</time>
      </trkpt>
      <trkpt lat="37.423365" lon="-4.452165">
        <ele>505.0</ele>
        <time>2018-06-09T07:19:51.169Z</time>
      </trkpt>
      <trkpt lat="37.423365" lon="-4.452165">
        <ele>505.0</ele>
        <time>2018-06-09T07:19:52.190Z</time>
      </trkpt>
      <trkpt lat="37.423325" lon="-4.45206333">
        <ele>505.0</ele>
        <time>2018-06-09T07:19:53.170Z</time>
      </trkpt>
      <trkpt lat="37.423325" lon="-4.45206333">
        <ele>505.0</ele>
        <time>2018-06-09T07:19:54.161Z</time>
      </trkpt>
      <trkpt lat="37.423285" lon="-4.45195833">
        <ele>505.0</ele>
        <time>2018-06-09T07:19:55.195Z</time>
      </trkpt>
      <trkpt lat="37.423285" lon="-4.45195833">
        <ele>505.0</ele>
        <time>2018-06-09T07:19:56.190Z</time>
      </trkpt>
      <trkpt lat="37.42324333" lon="-4.45185167">
        <ele>505.0</ele>
        <time>2018-06-09T07:19:57.170Z</time>
      </trkpt>
      <trkpt lat="37.42324333" lon="-4.45185167">
        <ele>505.0</ele>
        <time>2018-06-09T07:19:58.191Z</time>
      </trkpt>
      <trkpt lat="37.42320333" lon="-4.45174333">
        <ele>505.0</ele>
        <time>2018-06-09T07:19:59.172Z</time>
      </trkpt>
      <trkpt lat="37.42320333" lon="-4.45174333">
        <ele>505.0</ele>
        <time>2018-06-09T07:20:00.194Z</time>
      </trkpt>
      <trkpt lat="37.42316" lon="-4.45163667">
        <ele>505.0</ele>
        <time>2018-06-09T07:20:01.196Z</time>
      </trkpt>
      <trkpt lat="37.42316" lon="-4.45163667">
        <ele>505.0</ele>
        <time>2018-06-09T07:20:02.193Z</time>
      </trkpt>
      <trkpt lat="37.42311833" lon="-4.45152833">
        <ele>505.0</ele>
        <time>2018-06-09T07:20:03.195Z</time>
      </trkpt>
      <trkpt lat="37.42311833" lon="-4.45152833">
        <ele>505.0</ele>
        <time>2018-06-09T07:20:04.191Z</time>
      </trkpt>
      <trkpt lat="37.42307667" lon="-4.45141833">
        <ele>505.0</ele>
        <time>2018-06-09T07:20:05.165Z</time>
      </trkpt>
      <trkpt lat="37.42307667" lon="-4.45141833">
        <ele>505.0</ele>
        <time>2018-06-09T07:20:06.189Z</time>
      </trkpt>
      <trkpt lat="37.423035" lon="-4.45131167">
        <ele>506.0</ele>
        <time>2018-06-09T07:20:07.171Z</time>
      </trkpt>
      <trkpt lat="37.42301333" lon="-4.45125833">
        <ele>506.0</ele>
        <time>2018-06-09T07:20:08.195Z</time>
      </trkpt>
      <trkpt lat="37.42301333" lon="-4.45125833">
        <ele>506.0</ele>
        <time>2018-06-09T07:20:09.170Z</time>
      </trkpt>
      <trkpt lat="37.42297167" lon="-4.45114833">
        <ele>506.0</ele>
        <time>2018-06-09T07:20:10.196Z</time>
      </trkpt>
      <trkpt lat="37.42295167" lon="-4.451095">
        <ele>506.0</ele>
        <time>2018-06-09T07:20:11.157Z</time>
      </trkpt>
      <trkpt lat="37.42295167" lon="-4.451095">
        <ele>506.0</ele>
        <time>2018-06-09T07:20:12.189Z</time>
      </trkpt>
      <trkpt lat="37.42291167" lon="-4.45098667">
        <ele>507.0</ele>
        <time>2018-06-09T07:20:13.169Z</time>
      </trkpt>
      <trkpt lat="37.42291167" lon="-4.45098667">
        <ele>507.0</ele>
        <time>2018-06-09T07:20:14.193Z</time>
      </trkpt>
      <trkpt lat="37.422875" lon="-4.45087667">
        <ele>507.0</ele>
        <time>2018-06-09T07:20:15.196Z</time>
      </trkpt>
      <trkpt lat="37.422875" lon="-4.45087667">
        <ele>507.0</ele>
        <time>2018-06-09T07:20:16.191Z</time>
      </trkpt>
      <trkpt lat="37.42283833" lon="-4.45076833">
        <ele>507.0</ele>
        <time>2018-06-09T07:20:17.170Z</time>
      </trkpt>
      <trkpt lat="37.42281833" lon="-4.45071333">
        <ele>507.0</ele>
        <time>2018-06-09T07:20:18.157Z</time>
      </trkpt>
      <trkpt lat="37.42281833" lon="-4.45071333">
        <ele>507.0</ele>
        <time>2018-06-09T07:20:19.193Z</time>
      </trkpt>
      <trkpt lat="37.42277833" lon="-4.45060667">
        <ele>508.0</ele>
        <time>2018-06-09T07:20:20.195Z</time>
      </trkpt>
      <trkpt lat="37.42275667" lon="-4.45055333">
        <ele>508.0</ele>
        <time>2018-06-09T07:20:21.157Z</time>
      </trkpt>
      <trkpt lat="37.42275667" lon="-4.45055333">
        <ele>508.0</ele>
        <time>2018-06-09T07:20:22.190Z</time>
      </trkpt>
      <trkpt lat="37.42272" lon="-4.450445">
        <ele>508.0</ele>
        <time>2018-06-09T07:20:23.158Z</time>
      </trkpt>
      <trkpt lat="37.42272" lon="-4.450445">
        <ele>508.0</ele>
        <time>2018-06-09T07:20:24.175Z</time>
      </trkpt>
      <trkpt lat="37.42268167" lon="-4.450335">
        <ele>508.0</ele>
        <time>2018-06-09T07:20:25.163Z</time>
      </trkpt>
      <trkpt lat="37.42268167" lon="-4.450335">
        <ele>508.0</ele>
        <time>2018-06-09T07:20:26.191Z</time>
      </trkpt>
      <trkpt lat="37.422645" lon="-4.45022667">
        <ele>508.0</ele>
        <time>2018-06-09T07:20:27.171Z</time>
      </trkpt>
      <trkpt lat="37.42262667" lon="-4.45017333">
        <ele>509.0</ele>
        <time>2018-06-09T07:20:28.195Z</time>
      </trkpt>
      <trkpt lat="37.42261" lon="-4.45012">
        <ele>509.0</ele>
        <time>2018-06-09T07:20:29.158Z</time>
      </trkpt>
      <trkpt lat="37.42261" lon="-4.45012">
        <ele>509.0</ele>
        <time>2018-06-09T07:20:30.190Z</time>
      </trkpt>
      <trkpt lat="37.42258" lon="-4.45001167">
        <ele>509.0</ele>
        <time>2018-06-09T07:20:31.170Z</time>
      </trkpt>
      <trkpt lat="37.42258" lon="-4.45001167">
        <ele>509.0</ele>
        <time>2018-06-09T07:20:32.190Z</time>
      </trkpt>
      <trkpt lat="37.42255167" lon="-4.44990167">
        <ele>509.0</ele>
        <time>2018-06-09T07:20:33.165Z</time>
      </trkpt>
      <trkpt lat="37.42255167" lon="-4.44990167">
        <ele>509.0</ele>
        <time>2018-06-09T07:20:34.189Z</time>
      </trkpt>
      <trkpt lat="37.42252167" lon="-4.449795">
        <ele>509.0</ele>
        <time>2018-06-09T07:20:35.157Z</time>
      </trkpt>
      <trkpt lat="37.42252167" lon="-4.449795">
        <ele>509.0</ele>
        <time>2018-06-09T07:20:36.191Z</time>
      </trkpt>
      <trkpt lat="37.42249667" lon="-4.44968833">
        <ele>509.0</ele>
        <time>2018-06-09T07:20:37.170Z</time>
      </trkpt>
      <trkpt lat="37.42249667" lon="-4.44968833">
        <ele>509.0</ele>
        <time>2018-06-09T07:20:38.192Z</time>
      </trkpt>
      <trkpt lat="37.42247333" lon="-4.44958167">
        <ele>509.0</ele>
        <time>2018-06-09T07:20:39.195Z</time>
      </trkpt>
      <trkpt lat="37.42247333" lon="-4.44958167">
        <ele>509.0</ele>
        <time>2018-06-09T07:20:40.191Z</time>
      </trkpt>
      <trkpt lat="37.42245167" lon="-4.44947667">
        <ele>509.0</ele>
        <time>2018-06-09T07:20:41.167Z</time>
      </trkpt>
      <trkpt lat="37.42245167" lon="-4.44947667">
        <ele>509.0</ele>
        <time>2018-06-09T07:20:42.193Z</time>
      </trkpt>
      <trkpt lat="37.42243167" lon="-4.44936833">
        <ele>509.0</ele>
        <time>2018-06-09T07:20:43.196Z</time>
      </trkpt>
      <trkpt lat="37.42243167" lon="-4.44936833">
        <ele>509.0</ele>
        <time>2018-06-09T07:20:44.190Z</time>
      </trkpt>
      <trkpt lat="37.42241333" lon="-4.44926167">
        <ele>509.0</ele>
        <time>2018-06-09T07:20:45.196Z</time>
      </trkpt>
      <trkpt lat="37.42241333" lon="-4.44926167">
        <ele>509.0</ele>
        <time>2018-06-09T07:20:46.190Z</time>
      </trkpt>
      <trkpt lat="37.42240167" lon="-4.44915167">
        <ele>509.0</ele>
        <time>2018-06-09T07:20:47.158Z</time>
      </trkpt>
      <trkpt lat="37.42240167" lon="-4.44915167">
        <ele>509.0</ele>
        <time>2018-06-09T07:20:48.189Z</time>
      </trkpt>
      <trkpt lat="37.42238833" lon="-4.44904167">
        <ele>509.0</ele>
        <time>2018-06-09T07:20:49.169Z</time>
      </trkpt>
      <trkpt lat="37.42238833" lon="-4.44904167">
        <ele>509.0</ele>
        <time>2018-06-09T07:20:50.193Z</time>
      </trkpt>
      <trkpt lat="37.42238" lon="-4.44893333">
        <ele>509.0</ele>
        <time>2018-06-09T07:20:51.195Z</time>
      </trkpt>
      <trkpt lat="37.42238" lon="-4.44893333">
        <ele>509.0</ele>
        <time>2018-06-09T07:20:52.189Z</time>
      </trkpt>
      <trkpt lat="37.42237" lon="-4.44882333">
        <ele>509.0</ele>
        <time>2018-06-09T07:20:53.181Z</time>
      </trkpt>
      <trkpt lat="37.422365" lon="-4.44876833">
        <ele>509.0</ele>
        <time>2018-06-09T07:20:54.157Z</time>
      </trkpt>
      <trkpt lat="37.422365" lon="-4.44876833">
        <ele>509.0</ele>
        <time>2018-06-09T07:20:55.194Z</time>
      </trkpt>
      <trkpt lat="37.42236" lon="-4.44865667">
        <ele>509.0</ele>
        <time>2018-06-09T07:20:56.196Z</time>
      </trkpt>
      <trkpt lat="37.42236" lon="-4.44865667">
        <ele>509.0</ele>
        <time>2018-06-09T07:20:57.190Z</time>
      </trkpt>
      <trkpt lat="37.42235667" lon="-4.44854167">
        <ele>509.0</ele>
        <time>2018-06-09T07:20:58.170Z</time>
      </trkpt>
      <trkpt lat="37.42235667" lon="-4.44848333">
        <ele>509.0</ele>
        <time>2018-06-09T07:20:59.157Z</time>
      </trkpt>
      <trkpt lat="37.42235667" lon="-4.44848333">
        <ele>509.0</ele>
        <time>2018-06-09T07:21:00.190Z</time>
      </trkpt>
      <trkpt lat="37.42236167" lon="-4.448365">
        <ele>509.0</ele>
        <time>2018-06-09T07:21:01.170Z</time>
      </trkpt>
      <trkpt lat="37.42236167" lon="-4.448365">
        <ele>509.0</ele>
        <time>2018-06-09T07:21:02.194Z</time>
      </trkpt>
      <trkpt lat="37.42236667" lon="-4.44824667">
        <ele>509.0</ele>
        <time>2018-06-09T07:21:03.195Z</time>
      </trkpt>
      <trkpt lat="37.42236667" lon="-4.44824667">
        <ele>509.0</ele>
        <time>2018-06-09T07:21:04.189Z</time>
      </trkpt>
      <trkpt lat="37.42237167" lon="-4.44812833">
        <ele>510.0</ele>
        <time>2018-06-09T07:21:05.194Z</time>
      </trkpt>
      <trkpt lat="37.42237167" lon="-4.44812833">
        <ele>510.0</ele>
        <time>2018-06-09T07:21:06.189Z</time>
      </trkpt>
      <trkpt lat="37.42238167" lon="-4.44801333">
        <ele>510.0</ele>
        <time>2018-06-09T07:21:07.170Z</time>
      </trkpt>
      <trkpt lat="37.42238167" lon="-4.44801333">
        <ele>510.0</ele>
        <time>2018-06-09T07:21:08.190Z</time>
      </trkpt>
      <trkpt lat="37.42239333" lon="-4.44789833">
        <ele>510.0</ele>
        <time>2018-06-09T07:21:09.196Z</time>
      </trkpt>
      <trkpt lat="37.42239333" lon="-4.44789833">
        <ele>510.0</ele>
        <time>2018-06-09T07:21:10.190Z</time>
      </trkpt>
      <trkpt lat="37.42240333" lon="-4.44778167">
        <ele>511.0</ele>
        <time>2018-06-09T07:21:11.170Z</time>
      </trkpt>
      <trkpt lat="37.42240333" lon="-4.44778167">
        <ele>511.0</ele>
        <time>2018-06-09T07:21:12.190Z</time>
      </trkpt>
      <trkpt lat="37.42241667" lon="-4.44766667">
        <ele>511.0</ele>
        <time>2018-06-09T07:21:13.170Z</time>
      </trkpt>
      <trkpt lat="37.42241667" lon="-4.44766667">
        <ele>511.0</ele>
        <time>2018-06-09T07:21:14.194Z</time>
      </trkpt>
      <trkpt lat="37.42243" lon="-4.44755333">
        <ele>511.0</ele>
        <time>2018-06-09T07:21:15.188Z</time>
      </trkpt>
      <trkpt lat="37.42243" lon="-4.44755333">
        <ele>511.0</ele>
        <time>2018-06-09T07:21:16.169Z</time>
      </trkpt>
      <trkpt lat="37.42244" lon="-4.44743833">
        <ele>512.0</ele>
        <time>2018-06-09T07:21:17.157Z</time>
      </trkpt>
      <trkpt lat="37.42244" lon="-4.44743833">
        <ele>512.0</ele>
        <time>2018-06-09T07:21:18.190Z</time>
      </trkpt>
      <trkpt lat="37.42245333" lon="-4.44732167">
        <ele>512.0</ele>
        <time>2018-06-09T07:21:19.172Z</time>
      </trkpt>
      <trkpt lat="37.42245333" lon="-4.44732167">
        <ele>512.0</ele>
        <time>2018-06-09T07:21:20.161Z</time>
      </trkpt>
      <trkpt lat="37.42246333" lon="-4.44721">
        <ele>512.0</ele>
        <time>2018-06-09T07:21:21.157Z</time>
      </trkpt>
      <trkpt lat="37.42246333" lon="-4.44721">
        <ele>512.0</ele>
        <time>2018-06-09T07:21:22.191Z</time>
      </trkpt>
      <trkpt lat="37.42247333" lon="-4.44709667">
        <ele>512.0</ele>
        <time>2018-06-09T07:21:23.157Z</time>
      </trkpt>
      <trkpt lat="37.42247333" lon="-4.44709667">
        <ele>512.0</ele>
        <time>2018-06-09T07:21:24.193Z</time>
      </trkpt>
      <trkpt lat="37.42248" lon="-4.44698667">
        <ele>513.0</ele>
        <time>2018-06-09T07:21:25.192Z</time>
      </trkpt>
      <trkpt lat="37.422485" lon="-4.44693333">
        <ele>513.0</ele>
        <time>2018-06-09T07:21:26.195Z</time>
      </trkpt>
      <trkpt lat="37.422485" lon="-4.44693333">
        <ele>513.0</ele>
        <time>2018-06-09T07:21:27.194Z</time>
      </trkpt>
      <trkpt lat="37.42249833" lon="-4.44682333">
        <ele>513.0</ele>
        <time>2018-06-09T07:21:28.195Z</time>
      </trkpt>
      <trkpt lat="37.42250333" lon="-4.44676833">
        <ele>513.0</ele>
        <time>2018-06-09T07:21:29.157Z</time>
      </trkpt>
      <trkpt lat="37.42250333" lon="-4.44676833">
        <ele>513.0</ele>
        <time>2018-06-09T07:21:30.188Z</time>
      </trkpt>
      <trkpt lat="37.42251333" lon="-4.44666">
        <ele>513.0</ele>
        <time>2018-06-09T07:21:31.169Z</time>
      </trkpt>
      <trkpt lat="37.42251333" lon="-4.44666">
        <ele>513.0</ele>
        <time>2018-06-09T07:21:32.192Z</time>
      </trkpt>
      <trkpt lat="37.42252333" lon="-4.44655">
        <ele>513.0</ele>
        <time>2018-06-09T07:21:33.171Z</time>
      </trkpt>
      <trkpt lat="37.42252667" lon="-4.44649333">
        <ele>513.0</ele>
        <time>2018-06-09T07:21:34.195Z</time>
      </trkpt>
      <trkpt lat="37.42252667" lon="-4.44649333">
        <ele>513.0</ele>
        <time>2018-06-09T07:21:35.188Z</time>
      </trkpt>
      <trkpt lat="37.422535" lon="-4.44638333">
        <ele>513.0</ele>
        <time>2018-06-09T07:21:36.164Z</time>
      </trkpt>
      <trkpt lat="37.42254" lon="-4.44632833">
        <ele>513.0</ele>
        <time>2018-06-09T07:21:37.196Z</time>
      </trkpt>
      <trkpt lat="37.42254" lon="-4.44632833">
        <ele>513.0</ele>
        <time>2018-06-09T07:21:38.193Z</time>
      </trkpt>
      <trkpt lat="37.42255" lon="-4.44622">
        <ele>513.0</ele>
        <time>2018-06-09T07:21:39.194Z</time>
      </trkpt>
      <trkpt lat="37.422555" lon="-4.44616667">
        <ele>513.0</ele>
        <time>2018-06-09T07:21:40.195Z</time>
      </trkpt>
      <trkpt lat="37.42256" lon="-4.44611167">
        <ele>513.0</ele>
        <time>2018-06-09T07:21:41.158Z</time>
      </trkpt>
      <trkpt lat="37.42256" lon="-4.44611167">
        <ele>513.0</ele>
        <time>2018-06-09T07:21:42.191Z</time>
      </trkpt>
      <trkpt lat="37.42257" lon="-4.44600333">
        <ele>513.0</ele>
        <time>2018-06-09T07:21:43.196Z</time>
      </trkpt>
      <trkpt lat="37.42257" lon="-4.44600333">
        <ele>513.0</ele>
        <time>2018-06-09T07:21:44.176Z</time>
      </trkpt>
      <trkpt lat="37.42257833" lon="-4.44589167">
        <ele>513.0</ele>
        <time>2018-06-09T07:21:45.167Z</time>
      </trkpt>
      <trkpt lat="37.42257833" lon="-4.44589167">
        <ele>513.0</ele>
        <time>2018-06-09T07:21:46.188Z</time>
      </trkpt>
      <trkpt lat="37.42258667" lon="-4.44578167">
        <ele>513.0</ele>
        <time>2018-06-09T07:21:47.157Z</time>
      </trkpt>
      <trkpt lat="37.42258667" lon="-4.44578167">
        <ele>513.0</ele>
        <time>2018-06-09T07:21:48.193Z</time>
      </trkpt>
      <trkpt lat="37.42259833" lon="-4.44567333">
        <ele>513.0</ele>
        <time>2018-06-09T07:21:49.157Z</time>
      </trkpt>
      <trkpt lat="37.42259833" lon="-4.44567333">
        <ele>513.0</ele>
        <time>2018-06-09T07:21:50.160Z</time>
      </trkpt>
      <trkpt lat="37.42261333" lon="-4.44556167">
        <ele>513.0</ele>
        <time>2018-06-09T07:21:51.158Z</time>
      </trkpt>
      <trkpt lat="37.42261333" lon="-4.44556167">
        <ele>513.0</ele>
        <time>2018-06-09T07:21:52.191Z</time>
      </trkpt>
      <trkpt lat="37.42263833" lon="-4.44545333">
        <ele>513.0</ele>
        <time>2018-06-09T07:21:53.173Z</time>
      </trkpt>
      <trkpt lat="37.42263833" lon="-4.44545333">
        <ele>513.0</ele>
        <time>2018-06-09T07:21:54.194Z</time>
      </trkpt>
      <trkpt lat="37.42265833" lon="-4.44534167">
        <ele>513.0</ele>
        <time>2018-06-09T07:21:55.158Z</time>
      </trkpt>
      <trkpt lat="37.42265833" lon="-4.44534167">
        <ele>513.0</ele>
        <time>2018-06-09T07:21:56.196Z</time>
      </trkpt>
      <trkpt lat="37.42268" lon="-4.44523">
        <ele>513.0</ele>
        <time>2018-06-09T07:21:57.196Z</time>
      </trkpt>
      <trkpt lat="37.42268" lon="-4.44523">
        <ele>513.0</ele>
        <time>2018-06-09T07:21:58.190Z</time>
      </trkpt>
      <trkpt lat="37.42270167" lon="-4.44511667">
        <ele>513.0</ele>
        <time>2018-06-09T07:21:59.171Z</time>
      </trkpt>
      <trkpt lat="37.42270167" lon="-4.44511667">
        <ele>513.0</ele>
        <time>2018-06-09T07:22:00.193Z</time>
      </trkpt>
      <trkpt lat="37.42272667" lon="-4.445005">
        <ele>513.0</ele>
        <time>2018-06-09T07:22:01.158Z</time>
      </trkpt>
      <trkpt lat="37.42272667" lon="-4.445005">
        <ele>513.0</ele>
        <time>2018-06-09T07:22:02.192Z</time>
      </trkpt>
      <trkpt lat="37.42275167" lon="-4.444895">
        <ele>513.0</ele>
        <time>2018-06-09T07:22:03.171Z</time>
      </trkpt>
      <trkpt lat="37.42275167" lon="-4.444895">
        <ele>513.0</ele>
        <time>2018-06-09T07:22:04.193Z</time>
      </trkpt>
      <trkpt lat="37.42277833" lon="-4.44479">
        <ele>513.0</ele>
        <time>2018-06-09T07:22:05.173Z</time>
      </trkpt>
      <trkpt lat="37.42277833" lon="-4.44479">
        <ele>513.0</ele>
        <time>2018-06-09T07:22:06.192Z</time>
      </trkpt>
      <trkpt lat="37.42280667" lon="-4.44468667">
        <ele>513.0</ele>
        <time>2018-06-09T07:22:07.157Z</time>
      </trkpt>
      <trkpt lat="37.42280667" lon="-4.44468667">
        <ele>513.0</ele>
        <time>2018-06-09T07:22:08.195Z</time>
      </trkpt>
      <trkpt lat="37.42284" lon="-4.44458667">
        <ele>513.0</ele>
        <time>2018-06-09T07:22:09.177Z</time>
      </trkpt>
      <trkpt lat="37.42285667" lon="-4.44454">
        <ele>513.0</ele>
        <time>2018-06-09T07:22:10.158Z</time>
      </trkpt>
      <trkpt lat="37.42285667" lon="-4.44454">
        <ele>513.0</ele>
        <time>2018-06-09T07:22:11.192Z</time>
      </trkpt>
      <trkpt lat="37.42288833" lon="-4.44444833">
        <ele>513.0</ele>
        <time>2018-06-09T07:22:12.170Z</time>
      </trkpt>
      <trkpt lat="37.42288833" lon="-4.44444833">
        <ele>513.0</ele>
        <time>2018-06-09T07:22:13.194Z</time>
      </trkpt>
      <trkpt lat="37.42292" lon="-4.44435667">
        <ele>514.0</ele>
        <time>2018-06-09T07:22:14.161Z</time>
      </trkpt>
      <trkpt lat="37.42292" lon="-4.44435667">
        <ele>514.0</ele>
        <time>2018-06-09T07:22:15.192Z</time>
      </trkpt>
      <trkpt lat="37.42295" lon="-4.44426167">
        <ele>514.0</ele>
        <time>2018-06-09T07:22:16.196Z</time>
      </trkpt>
      <trkpt lat="37.42295" lon="-4.44426167">
        <ele>514.0</ele>
        <time>2018-06-09T07:22:17.196Z</time>
      </trkpt>
      <trkpt lat="37.42298333" lon="-4.444165">
        <ele>514.0</ele>
        <time>2018-06-09T07:22:18.196Z</time>
      </trkpt>
      <trkpt lat="37.42300333" lon="-4.44411833">
        <ele>514.0</ele>
        <time>2018-06-09T07:22:19.196Z</time>
      </trkpt>
      <trkpt lat="37.42300333" lon="-4.44411833">
        <ele>514.0</ele>
        <time>2018-06-09T07:22:20.190Z</time>
      </trkpt>
      <trkpt lat="37.42304333" lon="-4.44402667">
        <ele>514.0</ele>
        <time>2018-06-09T07:22:21.170Z</time>
      </trkpt>
      <trkpt lat="37.42304333" lon="-4.44402667">
        <ele>514.0</ele>
        <time>2018-06-09T07:22:22.191Z</time>
      </trkpt>
      <trkpt lat="37.423085" lon="-4.44393667">
        <ele>513.0</ele>
        <time>2018-06-09T07:22:23.196Z</time>
      </trkpt>
      <trkpt lat="37.423085" lon="-4.44393667">
        <ele>513.0</ele>
        <time>2018-06-09T07:22:24.191Z</time>
      </trkpt>
      <trkpt lat="37.42312833" lon="-4.44384667">
        <ele>513.0</ele>
        <time>2018-06-09T07:22:25.171Z</time>
      </trkpt>
      <trkpt lat="37.42312833" lon="-4.44384667">
        <ele>513.0</ele>
        <time>2018-06-09T07:22:26.194Z</time>
      </trkpt>
      <trkpt lat="37.42317667" lon="-4.44375667">
        <ele>513.0</ele>
        <time>2018-06-09T07:22:27.159Z</time>
      </trkpt>
      <trkpt lat="37.42320167" lon="-4.44371333">
        <ele>514.0</ele>
        <time>2018-06-09T07:22:28.196Z</time>
      </trkpt>
      <trkpt lat="37.42322667" lon="-4.44366667">
        <ele>514.0</ele>
        <time>2018-06-09T07:22:29.158Z</time>
      </trkpt>
      <trkpt lat="37.42322667" lon="-4.44366667">
        <ele>514.0</ele>
        <time>2018-06-09T07:22:30.191Z</time>
      </trkpt>
      <trkpt lat="37.42327667" lon="-4.44357667">
        <ele>514.0</ele>
        <time>2018-06-09T07:22:31.157Z</time>
      </trkpt>
      <trkpt lat="37.42327667" lon="-4.44357667">
        <ele>514.0</ele>
        <time>2018-06-09T07:22:32.191Z</time>
      </trkpt>
      <trkpt lat="37.42333" lon="-4.44349167">
        <ele>514.0</ele>
        <time>2018-06-09T07:22:33.167Z</time>
      </trkpt>
      <trkpt lat="37.42333" lon="-4.44349167">
        <ele>514.0</ele>
        <time>2018-06-09T07:22:34.192Z</time>
      </trkpt>
      <trkpt lat="37.42338667" lon="-4.443405">
        <ele>514.0</ele>
        <time>2018-06-09T07:22:35.157Z</time>
      </trkpt>
      <trkpt lat="37.42338667" lon="-4.443405">
        <ele>514.0</ele>
        <time>2018-06-09T07:22:36.188Z</time>
      </trkpt>
      <trkpt lat="37.42344333" lon="-4.44332">
        <ele>514.0</ele>
        <time>2018-06-09T07:22:37.171Z</time>
      </trkpt>
      <trkpt lat="37.42344333" lon="-4.44332">
        <ele>514.0</ele>
        <time>2018-06-09T07:22:38.192Z</time>
      </trkpt>
      <trkpt lat="37.42350333" lon="-4.44323667">
        <ele>514.0</ele>
        <time>2018-06-09T07:22:39.174Z</time>
      </trkpt>
      <trkpt lat="37.42353167" lon="-4.44319333">
        <ele>514.0</ele>
        <time>2018-06-09T07:22:40.196Z</time>
      </trkpt>
      <trkpt lat="37.42356" lon="-4.44315333">
        <ele>514.0</ele>
        <time>2018-06-09T07:22:41.158Z</time>
      </trkpt>
      <trkpt lat="37.42356" lon="-4.44315333">
        <ele>514.0</ele>
        <time>2018-06-09T07:22:42.188Z</time>
      </trkpt>
      <trkpt lat="37.423625" lon="-4.44307667">
        <ele>514.0</ele>
        <time>2018-06-09T07:22:43.168Z</time>
      </trkpt>
      <trkpt lat="37.423625" lon="-4.44307667">
        <ele>514.0</ele>
        <time>2018-06-09T07:22:44.158Z</time>
      </trkpt>
      <trkpt lat="37.42368833" lon="-4.44300167">
        <ele>514.0</ele>
        <time>2018-06-09T07:22:45.196Z</time>
      </trkpt>
      <trkpt lat="37.42368833" lon="-4.44300167">
        <ele>514.0</ele>
        <time>2018-06-09T07:22:46.191Z</time>
      </trkpt>
      <trkpt lat="37.42375167" lon="-4.442925">
        <ele>514.0</ele>
        <time>2018-06-09T07:22:47.162Z</time>
      </trkpt>
      <trkpt lat="37.42375167" lon="-4.442925">
        <ele>514.0</ele>
        <time>2018-06-09T07:22:48.188Z</time>
      </trkpt>
      <trkpt lat="37.42381333" lon="-4.44284667">
        <ele>514.0</ele>
        <time>2018-06-09T07:22:49.170Z</time>
      </trkpt>
      <trkpt lat="37.42381333" lon="-4.44284667">
        <ele>514.0</ele>
        <time>2018-06-09T07:22:50.193Z</time>
      </trkpt>
      <trkpt lat="37.42387667" lon="-4.442775">
        <ele>514.0</ele>
        <time>2018-06-09T07:22:51.182Z</time>
      </trkpt>
      <trkpt lat="37.42387667" lon="-4.442775">
        <ele>514.0</ele>
        <time>2018-06-09T07:22:52.157Z</time>
      </trkpt>
      <trkpt lat="37.423945" lon="-4.44270333">
        <ele>514.0</ele>
        <time>2018-06-09T07:22:53.197Z</time>
      </trkpt>
      <trkpt lat="37.423945" lon="-4.44270333">
        <ele>514.0</ele>
        <time>2018-06-09T07:22:54.188Z</time>
      </trkpt>
      <trkpt lat="37.424015" lon="-4.44263333">
        <ele>514.0</ele>
        <time>2018-06-09T07:22:55.169Z</time>
      </trkpt>
      <trkpt lat="37.424015" lon="-4.44263333">
        <ele>514.0</ele>
        <time>2018-06-09T07:22:56.191Z</time>
      </trkpt>
      <trkpt lat="37.42408667" lon="-4.44256667">
        <ele>514.0</ele>
        <time>2018-06-09T07:22:57.196Z</time>
      </trkpt>
      <trkpt lat="37.42412333" lon="-4.442535">
        <ele>514.0</ele>
        <time>2018-06-09T07:22:58.196Z</time>
      </trkpt>
      <trkpt lat="37.42415833" lon="-4.44250167">
        <ele>514.0</ele>
        <time>2018-06-09T07:22:59.157Z</time>
      </trkpt>
      <trkpt lat="37.42415833" lon="-4.44250167">
        <ele>514.0</ele>
        <time>2018-06-09T07:23:00.191Z</time>
      </trkpt>
      <trkpt lat="37.42422833" lon="-4.44243167">
        <ele>514.0</ele>
        <time>2018-06-09T07:23:01.171Z</time>
      </trkpt>
      <trkpt lat="37.42422833" lon="-4.44243167">
        <ele>514.0</ele>
        <time>2018-06-09T07:23:02.193Z</time>
      </trkpt>
      <trkpt lat="37.424295" lon="-4.44236">
        <ele>513.0</ele>
        <time>2018-06-09T07:23:03.168Z</time>
      </trkpt>
      <trkpt lat="37.42433" lon="-4.44232667">
        <ele>513.0</ele>
        <time>2018-06-09T07:23:04.165Z</time>
      </trkpt>
      <trkpt lat="37.42433" lon="-4.44232667">
        <ele>513.0</ele>
        <time>2018-06-09T07:23:05.194Z</time>
      </trkpt>
      <trkpt lat="37.42440167" lon="-4.44225833">
        <ele>514.0</ele>
        <time>2018-06-09T07:23:06.158Z</time>
      </trkpt>
      <trkpt lat="37.42443667" lon="-4.442225">
        <ele>514.0</ele>
        <time>2018-06-09T07:23:07.157Z</time>
      </trkpt>
      <trkpt lat="37.42443667" lon="-4.442225">
        <ele>514.0</ele>
        <time>2018-06-09T07:23:08.192Z</time>
      </trkpt>
      <trkpt lat="37.42450667" lon="-4.44215833">
        <ele>514.0</ele>
        <time>2018-06-09T07:23:09.196Z</time>
      </trkpt>
      <trkpt lat="37.42450667" lon="-4.44215833">
        <ele>514.0</ele>
        <time>2018-06-09T07:23:10.194Z</time>
      </trkpt>
      <trkpt lat="37.42457667" lon="-4.442095">
        <ele>513.0</ele>
        <time>2018-06-09T07:23:11.173Z</time>
      </trkpt>
      <trkpt lat="37.42461333" lon="-4.44206333">
        <ele>513.0</ele>
        <time>2018-06-09T07:23:12.157Z</time>
      </trkpt>
      <trkpt lat="37.42461333" lon="-4.44206333">
        <ele>513.0</ele>
        <time>2018-06-09T07:23:13.195Z</time>
      </trkpt>
      <trkpt lat="37.42468833" lon="-4.442005">
        <ele>513.0</ele>
        <time>2018-06-09T07:23:14.196Z</time>
      </trkpt>
      <trkpt lat="37.42472667" lon="-4.44197667">
        <ele>513.0</ele>
        <time>2018-06-09T07:23:15.196Z</time>
      </trkpt>
      <trkpt lat="37.42472667" lon="-4.44197667">
        <ele>513.0</ele>
        <time>2018-06-09T07:23:16.187Z</time>
      </trkpt>
      <trkpt lat="37.4248" lon="-4.44191333">
        <ele>513.0</ele>
        <time>2018-06-09T07:23:17.171Z</time>
      </trkpt>
      <trkpt lat="37.4248" lon="-4.44191333">
        <ele>513.0</ele>
        <time>2018-06-09T07:23:18.191Z</time>
      </trkpt>
      <trkpt lat="37.42486333" lon="-4.44183">
        <ele>513.0</ele>
        <time>2018-06-09T07:23:19.173Z</time>
      </trkpt>
      <trkpt lat="37.42489667" lon="-4.44179">
        <ele>513.0</ele>
        <time>2018-06-09T07:23:20.158Z</time>
      </trkpt>
      <trkpt lat="37.42489667" lon="-4.44179">
        <ele>513.0</ele>
        <time>2018-06-09T07:23:21.191Z</time>
      </trkpt>
      <trkpt lat="37.42496667" lon="-4.44171667">
        <ele>513.0</ele>
        <time>2018-06-09T07:23:22.196Z</time>
      </trkpt>
      <trkpt lat="37.42496667" lon="-4.44171667">
        <ele>513.0</ele>
        <time>2018-06-09T07:23:23.192Z</time>
      </trkpt>
      <trkpt lat="37.42503833" lon="-4.44164167">
        <ele>513.0</ele>
        <time>2018-06-09T07:23:24.196Z</time>
      </trkpt>
      <trkpt lat="37.42507333" lon="-4.44160167">
        <ele>513.0</ele>
        <time>2018-06-09T07:23:25.157Z</time>
      </trkpt>
      <trkpt lat="37.42507333" lon="-4.44160167">
        <ele>513.0</ele>
        <time>2018-06-09T07:23:26.160Z</time>
      </trkpt>
      <trkpt lat="37.42514833" lon="-4.44152">
        <ele>513.0</ele>
        <time>2018-06-09T07:23:27.157Z</time>
      </trkpt>
      <trkpt lat="37.42514833" lon="-4.44152">
        <ele>513.0</ele>
        <time>2018-06-09T07:23:28.192Z</time>
      </trkpt>
      <trkpt lat="37.42522" lon="-4.44143667">
        <ele>513.0</ele>
        <time>2018-06-09T07:23:29.177Z</time>
      </trkpt>
      <trkpt lat="37.42522" lon="-4.44143667">
        <ele>513.0</ele>
        <time>2018-06-09T07:23:30.158Z</time>
      </trkpt>
      <trkpt lat="37.42529167" lon="-4.44135167">
        <ele>513.0</ele>
        <time>2018-06-09T07:23:31.157Z</time>
      </trkpt>
      <trkpt lat="37.42529167" lon="-4.44135167">
        <ele>513.0</ele>
        <time>2018-06-09T07:23:32.192Z</time>
      </trkpt>
      <trkpt lat="37.42536" lon="-4.441265">
        <ele>513.0</ele>
        <time>2018-06-09T07:23:33.196Z</time>
      </trkpt>
      <trkpt lat="37.42539167" lon="-4.44122">
        <ele>513.0</ele>
        <time>2018-06-09T07:23:34.157Z</time>
      </trkpt>
      <trkpt lat="37.42542167" lon="-4.44117833">
        <ele>513.0</ele>
        <time>2018-06-09T07:23:35.158Z</time>
      </trkpt>
      <trkpt lat="37.42542167" lon="-4.44117833">
        <ele>513.0</ele>
        <time>2018-06-09T07:23:36.161Z</time>
      </trkpt>
      <trkpt lat="37.42548333" lon="-4.44109333">
        <ele>513.0</ele>
        <time>2018-06-09T07:23:37.157Z</time>
      </trkpt>
      <trkpt lat="37.42548333" lon="-4.44109333">
        <ele>513.0</ele>
        <time>2018-06-09T07:23:38.190Z</time>
      </trkpt>
      <trkpt lat="37.42554" lon="-4.44100167">
        <ele>512.0</ele>
        <time>2018-06-09T07:23:39.170Z</time>
      </trkpt>
      <trkpt lat="37.42554" lon="-4.44100167">
        <ele>512.0</ele>
        <time>2018-06-09T07:23:40.191Z</time>
      </trkpt>
      <trkpt lat="37.425595" lon="-4.440905">
        <ele>512.0</ele>
        <time>2018-06-09T07:23:41.171Z</time>
      </trkpt>
      <trkpt lat="37.425595" lon="-4.440905">
        <ele>512.0</ele>
        <time>2018-06-09T07:23:42.193Z</time>
      </trkpt>
      <trkpt lat="37.42565167" lon="-4.4408">
        <ele>512.0</ele>
        <time>2018-06-09T07:23:43.157Z</time>
      </trkpt>
      <trkpt lat="37.42565167" lon="-4.4408">
        <ele>512.0</ele>
        <time>2018-06-09T07:23:44.192Z</time>
      </trkpt>
      <trkpt lat="37.42570833" lon="-4.44069333">
        <ele>512.0</ele>
        <time>2018-06-09T07:23:45.196Z</time>
      </trkpt>
      <trkpt lat="37.42570833" lon="-4.44069333">
        <ele>512.0</ele>
        <time>2018-06-09T07:23:46.161Z</time>
      </trkpt>
      <trkpt lat="37.42576667" lon="-4.44058667">
        <ele>512.0</ele>
        <time>2018-06-09T07:23:47.158Z</time>
      </trkpt>
      <trkpt lat="37.425795" lon="-4.44053">
        <ele>512.0</ele>
        <time>2018-06-09T07:23:48.157Z</time>
      </trkpt>
      <trkpt lat="37.425795" lon="-4.44053">
        <ele>512.0</ele>
        <time>2018-06-09T07:23:49.195Z</time>
      </trkpt>
      <trkpt lat="37.42584833" lon="-4.44041667">
        <ele>512.0</ele>
        <time>2018-06-09T07:23:50.157Z</time>
      </trkpt>
      <trkpt lat="37.42584833" lon="-4.44041667">
        <ele>512.0</ele>
        <time>2018-06-09T07:23:51.192Z</time>
      </trkpt>
      <trkpt lat="37.42590333" lon="-4.44029833">
        <ele>512.0</ele>
        <time>2018-06-09T07:23:52.171Z</time>
      </trkpt>
      <trkpt lat="37.42593167" lon="-4.44024">
        <ele>512.0</ele>
        <time>2018-06-09T07:23:53.176Z</time>
      </trkpt>
      <trkpt lat="37.42593167" lon="-4.44024">
        <ele>512.0</ele>
        <time>2018-06-09T07:23:54.195Z</time>
      </trkpt>
      <trkpt lat="37.425985" lon="-4.44012">
        <ele>512.0</ele>
        <time>2018-06-09T07:23:55.158Z</time>
      </trkpt>
      <trkpt lat="37.425985" lon="-4.44012">
        <ele>512.0</ele>
        <time>2018-06-09T07:23:56.192Z</time>
      </trkpt>
      <trkpt lat="37.42603667" lon="-4.43999667">
        <ele>511.0</ele>
        <time>2018-06-09T07:23:57.161Z</time>
      </trkpt>
      <trkpt lat="37.42606333" lon="-4.43993667">
        <ele>511.0</ele>
        <time>2018-06-09T07:23:58.163Z</time>
      </trkpt>
      <trkpt lat="37.42609167" lon="-4.439875">
        <ele>511.0</ele>
        <time>2018-06-09T07:23:59.171Z</time>
      </trkpt>
      <trkpt lat="37.42609167" lon="-4.439875">
        <ele>511.0</ele>
        <time>2018-06-09T07:24:00.194Z</time>
      </trkpt>
      <trkpt lat="37.42615" lon="-4.43975167">
        <ele>511.0</ele>
        <time>2018-06-09T07:24:01.158Z</time>
      </trkpt>
      <trkpt lat="37.42617833" lon="-4.43969">
        <ele>511.0</ele>
        <time>2018-06-09T07:24:02.158Z</time>
      </trkpt>
      <trkpt lat="37.42617833" lon="-4.43969">
        <ele>511.0</ele>
        <time>2018-06-09T07:24:03.192Z</time>
      </trkpt>
      <trkpt lat="37.42623167" lon="-4.43956167">
        <ele>511.0</ele>
        <time>2018-06-09T07:24:04.171Z</time>
      </trkpt>
      <trkpt lat="37.42625667" lon="-4.43949667">
        <ele>511.0</ele>
        <time>2018-06-09T07:24:05.162Z</time>
      </trkpt>
      <trkpt lat="37.42625667" lon="-4.43949667">
        <ele>511.0</ele>
        <time>2018-06-09T07:24:06.192Z</time>
      </trkpt>
      <trkpt lat="37.42631" lon="-4.43936833">
        <ele>511.0</ele>
        <time>2018-06-09T07:24:07.157Z</time>
      </trkpt>
      <trkpt lat="37.42631" lon="-4.43936833">
        <ele>511.0</ele>
        <time>2018-06-09T07:24:08.192Z</time>
      </trkpt>
      <trkpt lat="37.42636833" lon="-4.43924333">
        <ele>510.0</ele>
        <time>2018-06-09T07:24:09.171Z</time>
      </trkpt>
      <trkpt lat="37.42636833" lon="-4.43924333">
        <ele>510.0</ele>
        <time>2018-06-09T07:24:10.193Z</time>
      </trkpt>
      <trkpt lat="37.42643167" lon="-4.43912167">
        <ele>510.0</ele>
        <time>2018-06-09T07:24:11.173Z</time>
      </trkpt>
      <trkpt lat="37.42646333" lon="-4.43906">
        <ele>510.0</ele>
        <time>2018-06-09T07:24:12.159Z</time>
      </trkpt>
      <trkpt lat="37.426495" lon="-4.439">
        <ele>510.0</ele>
        <time>2018-06-09T07:24:13.157Z</time>
      </trkpt>
      <trkpt lat="37.426495" lon="-4.439">
        <ele>510.0</ele>
        <time>2018-06-09T07:24:14.192Z</time>
      </trkpt>
      <trkpt lat="37.426565" lon="-4.43888167">
        <ele>510.0</ele>
        <time>2018-06-09T07:24:15.172Z</time>
      </trkpt>
      <trkpt lat="37.42660167" lon="-4.43882333">
        <ele>510.0</ele>
        <time>2018-06-09T07:24:16.196Z</time>
      </trkpt>
      <trkpt lat="37.42663833" lon="-4.438765">
        <ele>510.0</ele>
        <time>2018-06-09T07:24:17.170Z</time>
      </trkpt>
      <trkpt lat="37.42663833" lon="-4.438765">
        <ele>510.0</ele>
        <time>2018-06-09T07:24:18.194Z</time>
      </trkpt>
      <trkpt lat="37.42671167" lon="-4.43865">
        <ele>510.0</ele>
        <time>2018-06-09T07:24:19.158Z</time>
      </trkpt>
      <trkpt lat="37.42671167" lon="-4.43865">
        <ele>510.0</ele>
        <time>2018-06-09T07:24:20.192Z</time>
      </trkpt>
      <trkpt lat="37.42678833" lon="-4.43853667">
        <ele>510.0</ele>
        <time>2018-06-09T07:24:21.170Z</time>
      </trkpt>
      <trkpt lat="37.42682667" lon="-4.43848167">
        <ele>510.0</ele>
        <time>2018-06-09T07:24:22.157Z</time>
      </trkpt>
      <trkpt lat="37.426865" lon="-4.43842667">
        <ele>509.0</ele>
        <time>2018-06-09T07:24:23.158Z</time>
      </trkpt>
      <trkpt lat="37.426865" lon="-4.43842667">
        <ele>509.0</ele>
        <time>2018-06-09T07:24:24.177Z</time>
      </trkpt>
      <trkpt lat="37.42694333" lon="-4.43831833">
        <ele>509.0</ele>
        <time>2018-06-09T07:24:25.158Z</time>
      </trkpt>
      <trkpt lat="37.42694333" lon="-4.43831833">
        <ele>509.0</ele>
        <time>2018-06-09T07:24:26.192Z</time>
      </trkpt>
      <trkpt lat="37.42701833" lon="-4.43821167">
        <ele>510.0</ele>
        <time>2018-06-09T07:24:27.157Z</time>
      </trkpt>
      <trkpt lat="37.42701833" lon="-4.43821167">
        <ele>510.0</ele>
        <time>2018-06-09T07:24:28.194Z</time>
      </trkpt>
      <trkpt lat="37.42708833" lon="-4.438105">
        <ele>510.0</ele>
        <time>2018-06-09T07:24:29.160Z</time>
      </trkpt>
      <trkpt lat="37.42708833" lon="-4.438105">
        <ele>510.0</ele>
        <time>2018-06-09T07:24:30.189Z</time>
      </trkpt>
      <trkpt lat="37.42716" lon="-4.43800167">
        <ele>510.0</ele>
        <time>2018-06-09T07:24:31.170Z</time>
      </trkpt>
      <trkpt lat="37.42716" lon="-4.43800167">
        <ele>510.0</ele>
        <time>2018-06-09T07:24:32.192Z</time>
      </trkpt>
      <trkpt lat="37.42723167" lon="-4.43790167">
        <ele>510.0</ele>
        <time>2018-06-09T07:24:33.157Z</time>
      </trkpt>
      <trkpt lat="37.42723167" lon="-4.43790167">
        <ele>510.0</ele>
        <time>2018-06-09T07:24:34.189Z</time>
      </trkpt>
      <trkpt lat="37.427305" lon="-4.43780333">
        <ele>510.0</ele>
        <time>2018-06-09T07:24:35.169Z</time>
      </trkpt>
      <trkpt lat="37.427305" lon="-4.43780333">
        <ele>510.0</ele>
        <time>2018-06-09T07:24:36.193Z</time>
      </trkpt>
      <trkpt lat="37.42737667" lon="-4.437705">
        <ele>510.0</ele>
        <time>2018-06-09T07:24:37.193Z</time>
      </trkpt>
      <trkpt lat="37.42741333" lon="-4.437655">
        <ele>510.0</ele>
        <time>2018-06-09T07:24:38.173Z</time>
      </trkpt>
      <trkpt lat="37.42745" lon="-4.437605">
        <ele>510.0</ele>
        <time>2018-06-09T07:24:39.159Z</time>
      </trkpt>
      <trkpt lat="37.42745" lon="-4.437605">
        <ele>510.0</ele>
        <time>2018-06-09T07:24:40.192Z</time>
      </trkpt>
      <trkpt lat="37.42752" lon="-4.437505">
        <ele>510.0</ele>
        <time>2018-06-09T07:24:41.173Z</time>
      </trkpt>
      <trkpt lat="37.42755667" lon="-4.43745333">
        <ele>510.0</ele>
        <time>2018-06-09T07:24:42.158Z</time>
      </trkpt>
      <trkpt lat="37.42755667" lon="-4.43745333">
        <ele>510.0</ele>
        <time>2018-06-09T07:24:43.193Z</time>
      </trkpt>
      <trkpt lat="37.42763667" lon="-4.43735167">
        <ele>510.0</ele>
        <time>2018-06-09T07:24:44.173Z</time>
      </trkpt>
      <trkpt lat="37.42763667" lon="-4.43735167">
        <ele>510.0</ele>
        <time>2018-06-09T07:24:45.194Z</time>
      </trkpt>
      <trkpt lat="37.42772" lon="-4.43725667">
        <ele>510.0</ele>
        <time>2018-06-09T07:24:46.196Z</time>
      </trkpt>
      <trkpt lat="37.42772" lon="-4.43725667">
        <ele>510.0</ele>
        <time>2018-06-09T07:24:47.171Z</time>
      </trkpt>
      <trkpt lat="37.42780667" lon="-4.437165">
        <ele>509.0</ele>
        <time>2018-06-09T07:24:48.165Z</time>
      </trkpt>
      <trkpt lat="37.42780667" lon="-4.437165">
        <ele>509.0</ele>
        <time>2018-06-09T07:24:49.196Z</time>
      </trkpt>
      <trkpt lat="37.42789167" lon="-4.43707167">
        <ele>509.0</ele>
        <time>2018-06-09T07:24:50.158Z</time>
      </trkpt>
      <trkpt lat="37.42789167" lon="-4.43707167">
        <ele>509.0</ele>
        <time>2018-06-09T07:24:51.157Z</time>
      </trkpt>
      <trkpt lat="37.42797833" lon="-4.43698333">
        <ele>509.0</ele>
        <time>2018-06-09T07:24:52.158Z</time>
      </trkpt>
      <trkpt lat="37.42797833" lon="-4.43698333">
        <ele>509.0</ele>
        <time>2018-06-09T07:24:53.196Z</time>
      </trkpt>
      <trkpt lat="37.42807" lon="-4.4369">
        <ele>509.0</ele>
        <time>2018-06-09T07:24:54.161Z</time>
      </trkpt>
      <trkpt lat="37.42811667" lon="-4.43685833">
        <ele>509.0</ele>
        <time>2018-06-09T07:24:55.158Z</time>
      </trkpt>
      <trkpt lat="37.42811667" lon="-4.43685833">
        <ele>509.0</ele>
        <time>2018-06-09T07:24:56.196Z</time>
      </trkpt>
      <trkpt lat="37.42821167" lon="-4.43677667">
        <ele>509.0</ele>
        <time>2018-06-09T07:24:57.191Z</time>
      </trkpt>
      <trkpt lat="37.42821167" lon="-4.43677667">
        <ele>509.0</ele>
        <time>2018-06-09T07:24:58.192Z</time>
      </trkpt>
      <trkpt lat="37.42830667" lon="-4.4367">
        <ele>509.0</ele>
        <time>2018-06-09T07:24:59.173Z</time>
      </trkpt>
      <trkpt lat="37.42830667" lon="-4.4367">
        <ele>509.0</ele>
        <time>2018-06-09T07:25:00.192Z</time>
      </trkpt>
      <trkpt lat="37.428405" lon="-4.436625">
        <ele>510.0</ele>
        <time>2018-06-09T07:25:01.172Z</time>
      </trkpt>
      <trkpt lat="37.428405" lon="-4.436625">
        <ele>510.0</ele>
        <time>2018-06-09T07:25:02.194Z</time>
      </trkpt>
      <trkpt lat="37.42850833" lon="-4.43655833">
        <ele>510.0</ele>
        <time>2018-06-09T07:25:03.158Z</time>
      </trkpt>
      <trkpt lat="37.42850833" lon="-4.43655833">
        <ele>510.0</ele>
        <time>2018-06-09T07:25:04.194Z</time>
      </trkpt>
      <trkpt lat="37.42861167" lon="-4.43649167">
        <ele>510.0</ele>
        <time>2018-06-09T07:25:05.157Z</time>
      </trkpt>
      <trkpt lat="37.42861167" lon="-4.43649167">
        <ele>510.0</ele>
        <time>2018-06-09T07:25:06.192Z</time>
      </trkpt>
      <trkpt lat="37.42871833" lon="-4.43643">
        <ele>510.0</ele>
        <time>2018-06-09T07:25:07.176Z</time>
      </trkpt>
      <trkpt lat="37.42877167" lon="-4.43639833">
        <ele>510.0</ele>
        <time>2018-06-09T07:25:08.158Z</time>
      </trkpt>
      <trkpt lat="37.428825" lon="-4.43637">
        <ele>510.0</ele>
        <time>2018-06-09T07:25:09.158Z</time>
      </trkpt>
      <trkpt lat="37.428825" lon="-4.43637">
        <ele>510.0</ele>
        <time>2018-06-09T07:25:10.191Z</time>
      </trkpt>
      <trkpt lat="37.428935" lon="-4.436315">
        <ele>510.0</ele>
        <time>2018-06-09T07:25:11.171Z</time>
      </trkpt>
      <trkpt lat="37.428935" lon="-4.436315">
        <ele>510.0</ele>
        <time>2018-06-09T07:25:12.189Z</time>
      </trkpt>
      <trkpt lat="37.42904833" lon="-4.436265">
        <ele>510.0</ele>
        <time>2018-06-09T07:25:13.169Z</time>
      </trkpt>
      <trkpt lat="37.42904833" lon="-4.436265">
        <ele>510.0</ele>
        <time>2018-06-09T07:25:14.195Z</time>
      </trkpt>
      <trkpt lat="37.42916833" lon="-4.43622333">
        <ele>510.0</ele>
        <time>2018-06-09T07:25:15.195Z</time>
      </trkpt>
      <trkpt lat="37.42916833" lon="-4.43622333">
        <ele>510.0</ele>
        <time>2018-06-09T07:25:16.174Z</time>
      </trkpt>
      <trkpt lat="37.42928833" lon="-4.43618">
        <ele>510.0</ele>
        <time>2018-06-09T07:25:17.166Z</time>
      </trkpt>
      <trkpt lat="37.42935167" lon="-4.43616167">
        <ele>510.0</ele>
        <time>2018-06-09T07:25:18.195Z</time>
      </trkpt>
      <trkpt lat="37.42935167" lon="-4.43616167">
        <ele>510.0</ele>
        <time>2018-06-09T07:25:19.173Z</time>
      </trkpt>
      <trkpt lat="37.429475" lon="-4.43612833">
        <ele>510.0</ele>
        <time>2018-06-09T07:25:20.157Z</time>
      </trkpt>
      <trkpt lat="37.429475" lon="-4.43612833">
        <ele>510.0</ele>
        <time>2018-06-09T07:25:21.192Z</time>
      </trkpt>
      <trkpt lat="37.42959833" lon="-4.43609833">
        <ele>510.0</ele>
        <time>2018-06-09T07:25:22.180Z</time>
      </trkpt>
      <trkpt lat="37.42959833" lon="-4.43609833">
        <ele>510.0</ele>
        <time>2018-06-09T07:25:23.162Z</time>
      </trkpt>
      <trkpt lat="37.42972" lon="-4.43606">
        <ele>510.0</ele>
        <time>2018-06-09T07:25:24.157Z</time>
      </trkpt>
      <trkpt lat="37.42978" lon="-4.43604">
        <ele>510.0</ele>
        <time>2018-06-09T07:25:25.159Z</time>
      </trkpt>
      <trkpt lat="37.42978" lon="-4.43604">
        <ele>510.0</ele>
        <time>2018-06-09T07:25:26.192Z</time>
      </trkpt>
      <trkpt lat="37.42990167" lon="-4.43601">
        <ele>510.0</ele>
        <time>2018-06-09T07:25:27.160Z</time>
      </trkpt>
      <trkpt lat="37.42990167" lon="-4.43601">
        <ele>510.0</ele>
        <time>2018-06-09T07:25:28.192Z</time>
      </trkpt>
      <trkpt lat="37.43002167" lon="-4.43597833">
        <ele>510.0</ele>
        <time>2018-06-09T07:25:29.179Z</time>
      </trkpt>
      <trkpt lat="37.43008333" lon="-4.43596167">
        <ele>510.0</ele>
        <time>2018-06-09T07:25:30.158Z</time>
      </trkpt>
      <trkpt lat="37.43008333" lon="-4.43596167">
        <ele>510.0</ele>
        <time>2018-06-09T07:25:31.157Z</time>
      </trkpt>
      <trkpt lat="37.43020167" lon="-4.43592833">
        <ele>510.0</ele>
        <time>2018-06-09T07:25:32.158Z</time>
      </trkpt>
      <trkpt lat="37.43020167" lon="-4.43592833">
        <ele>510.0</ele>
        <time>2018-06-09T07:25:33.192Z</time>
      </trkpt>
      <trkpt lat="37.43032" lon="-4.43589167">
        <ele>510.0</ele>
        <time>2018-06-09T07:25:34.183Z</time>
      </trkpt>
      <trkpt lat="37.43038" lon="-4.43587167">
        <ele>510.0</ele>
        <time>2018-06-09T07:25:35.166Z</time>
      </trkpt>
      <trkpt lat="37.43043833" lon="-4.43585333">
        <ele>510.0</ele>
        <time>2018-06-09T07:25:36.158Z</time>
      </trkpt>
      <trkpt lat="37.43043833" lon="-4.43585333">
        <ele>510.0</ele>
        <time>2018-06-09T07:25:37.198Z</time>
      </trkpt>
      <trkpt lat="37.430555" lon="-4.43581833">
        <ele>510.0</ele>
        <time>2018-06-09T07:25:38.157Z</time>
      </trkpt>
      <trkpt lat="37.430555" lon="-4.43581833">
        <ele>510.0</ele>
        <time>2018-06-09T07:25:39.192Z</time>
      </trkpt>
      <trkpt lat="37.43067167" lon="-4.43578167">
        <ele>510.0</ele>
        <time>2018-06-09T07:25:40.178Z</time>
      </trkpt>
      <trkpt lat="37.43073" lon="-4.43576167">
        <ele>510.0</ele>
        <time>2018-06-09T07:25:41.158Z</time>
      </trkpt>
      <trkpt lat="37.43073" lon="-4.43576167">
        <ele>510.0</ele>
        <time>2018-06-09T07:25:42.193Z</time>
      </trkpt>
      <trkpt lat="37.43084667" lon="-4.435715">
        <ele>510.0</ele>
        <time>2018-06-09T07:25:43.173Z</time>
      </trkpt>
      <trkpt lat="37.43084667" lon="-4.435715">
        <ele>510.0</ele>
        <time>2018-06-09T07:25:44.158Z</time>
      </trkpt>
      <trkpt lat="37.43096667" lon="-4.43566667">
        <ele>510.0</ele>
        <time>2018-06-09T07:25:45.159Z</time>
      </trkpt>
      <trkpt lat="37.43096667" lon="-4.43566667">
        <ele>510.0</ele>
        <time>2018-06-09T07:25:46.192Z</time>
      </trkpt>
      <trkpt lat="37.43108" lon="-4.43561">
        <ele>509.0</ele>
        <time>2018-06-09T07:25:47.171Z</time>
      </trkpt>
      <trkpt lat="37.43108" lon="-4.43561">
        <ele>509.0</ele>
        <time>2018-06-09T07:25:48.173Z</time>
      </trkpt>
      <trkpt lat="37.43119333" lon="-4.43554667">
        <ele>509.0</ele>
        <time>2018-06-09T07:25:49.158Z</time>
      </trkpt>
      <trkpt lat="37.43119333" lon="-4.43554667">
        <ele>509.0</ele>
        <time>2018-06-09T07:25:50.192Z</time>
      </trkpt>
      <trkpt lat="37.43130667" lon="-4.43548167">
        <ele>510.0</ele>
        <time>2018-06-09T07:25:51.172Z</time>
      </trkpt>
      <trkpt lat="37.43130667" lon="-4.43548167">
        <ele>510.0</ele>
        <time>2018-06-09T07:25:52.193Z</time>
      </trkpt>
      <trkpt lat="37.43142" lon="-4.43541167">
        <ele>510.0</ele>
        <time>2018-06-09T07:25:53.173Z</time>
      </trkpt>
      <trkpt lat="37.43142" lon="-4.43541167">
        <ele>510.0</ele>
        <time>2018-06-09T07:25:54.192Z</time>
      </trkpt>
      <trkpt lat="37.43153167" lon="-4.43533667">
        <ele>510.0</ele>
        <time>2018-06-09T07:25:55.157Z</time>
      </trkpt>
      <trkpt lat="37.43153167" lon="-4.43533667">
        <ele>510.0</ele>
        <time>2018-06-09T07:25:56.192Z</time>
      </trkpt>
      <trkpt lat="37.43163667" lon="-4.43525333">
        <ele>510.0</ele>
        <time>2018-06-09T07:25:57.173Z</time>
      </trkpt>
      <trkpt lat="37.43163667" lon="-4.43525333">
        <ele>510.0</ele>
        <time>2018-06-09T07:25:58.195Z</time>
      </trkpt>
      <trkpt lat="37.43174" lon="-4.43516167">
        <ele>510.0</ele>
        <time>2018-06-09T07:25:59.192Z</time>
      </trkpt>
      <trkpt lat="37.43174" lon="-4.43516167">
        <ele>510.0</ele>
        <time>2018-06-09T07:26:00.167Z</time>
      </trkpt>
      <trkpt lat="37.43184667" lon="-4.43506833">
        <ele>510.0</ele>
        <time>2018-06-09T07:26:01.158Z</time>
      </trkpt>
      <trkpt lat="37.43184667" lon="-4.43506833">
        <ele>510.0</ele>
        <time>2018-06-09T07:26:02.191Z</time>
      </trkpt>
      <trkpt lat="37.431955" lon="-4.43496833">
        <ele>510.0</ele>
        <time>2018-06-09T07:26:03.171Z</time>
      </trkpt>
      <trkpt lat="37.431955" lon="-4.43496833">
        <ele>510.0</ele>
        <time>2018-06-09T07:26:04.164Z</time>
      </trkpt>
      <trkpt lat="37.43206" lon="-4.43486333">
        <ele>510.0</ele>
        <time>2018-06-09T07:26:05.159Z</time>
      </trkpt>
      <trkpt lat="37.43206" lon="-4.43486333">
        <ele>510.0</ele>
        <time>2018-06-09T07:26:06.196Z</time>
      </trkpt>
      <trkpt lat="37.43216333" lon="-4.43475167">
        <ele>510.0</ele>
        <time>2018-06-09T07:26:07.158Z</time>
      </trkpt>
      <trkpt lat="37.43216333" lon="-4.43475167">
        <ele>510.0</ele>
        <time>2018-06-09T07:26:08.192Z</time>
      </trkpt>
      <trkpt lat="37.43226167" lon="-4.434635">
        <ele>510.0</ele>
        <time>2018-06-09T07:26:09.173Z</time>
      </trkpt>
      <trkpt lat="37.43226167" lon="-4.434635">
        <ele>510.0</ele>
        <time>2018-06-09T07:26:10.194Z</time>
      </trkpt>
      <trkpt lat="37.43235667" lon="-4.434515">
        <ele>510.0</ele>
        <time>2018-06-09T07:26:11.174Z</time>
      </trkpt>
      <trkpt lat="37.43235667" lon="-4.434515">
        <ele>510.0</ele>
        <time>2018-06-09T07:26:12.193Z</time>
      </trkpt>
      <trkpt lat="37.432445" lon="-4.43439333">
        <ele>510.0</ele>
        <time>2018-06-09T07:26:13.173Z</time>
      </trkpt>
      <trkpt lat="37.432445" lon="-4.43439333">
        <ele>510.0</ele>
        <time>2018-06-09T07:26:14.157Z</time>
      </trkpt>
      <trkpt lat="37.43252833" lon="-4.434265">
        <ele>510.0</ele>
        <time>2018-06-09T07:26:15.158Z</time>
      </trkpt>
      <trkpt lat="37.43257" lon="-4.43420167">
        <ele>509.0</ele>
        <time>2018-06-09T07:26:16.159Z</time>
      </trkpt>
      <trkpt lat="37.43257" lon="-4.43420167">
        <ele>509.0</ele>
        <time>2018-06-09T07:26:17.196Z</time>
      </trkpt>
      <trkpt lat="37.43265167" lon="-4.43406833">
        <ele>509.0</ele>
        <time>2018-06-09T07:26:18.158Z</time>
      </trkpt>
      <trkpt lat="37.43269167" lon="-4.434">
        <ele>509.0</ele>
        <time>2018-06-09T07:26:19.160Z</time>
      </trkpt>
      <trkpt lat="37.43269167" lon="-4.434">
        <ele>509.0</ele>
        <time>2018-06-09T07:26:20.192Z</time>
      </trkpt>
      <trkpt lat="37.43277333" lon="-4.43386333">
        <ele>509.0</ele>
        <time>2018-06-09T07:26:21.173Z</time>
      </trkpt>
      <trkpt lat="37.43281333" lon="-4.43379333">
        <ele>508.0</ele>
        <time>2018-06-09T07:26:22.158Z</time>
      </trkpt>
      <trkpt lat="37.43285333" lon="-4.433725">
        <ele>508.0</ele>
        <time>2018-06-09T07:26:23.159Z</time>
      </trkpt>
      <trkpt lat="37.43285333" lon="-4.433725">
        <ele>508.0</ele>
        <time>2018-06-09T07:26:24.196Z</time>
      </trkpt>
      <trkpt lat="37.43293333" lon="-4.433585">
        <ele>508.0</ele>
        <time>2018-06-09T07:26:25.158Z</time>
      </trkpt>
      <trkpt lat="37.43293333" lon="-4.433585">
        <ele>508.0</ele>
        <time>2018-06-09T07:26:26.193Z</time>
      </trkpt>
      <trkpt lat="37.433015" lon="-4.43344667">
        <ele>508.0</ele>
        <time>2018-06-09T07:26:27.177Z</time>
      </trkpt>
      <trkpt lat="37.433015" lon="-4.43344667">
        <ele>508.0</ele>
        <time>2018-06-09T07:26:28.163Z</time>
      </trkpt>
      <trkpt lat="37.43309167" lon="-4.433315">
        <ele>508.0</ele>
        <time>2018-06-09T07:26:29.159Z</time>
      </trkpt>
      <trkpt lat="37.43309167" lon="-4.433315">
        <ele>508.0</ele>
        <time>2018-06-09T07:26:30.192Z</time>
      </trkpt>
      <trkpt lat="37.43317167" lon="-4.43319167">
        <ele>507.0</ele>
        <time>2018-06-09T07:26:31.173Z</time>
      </trkpt>
      <trkpt lat="37.43317167" lon="-4.43319167">
        <ele>507.0</ele>
        <time>2018-06-09T07:26:32.157Z</time>
      </trkpt>
      <trkpt lat="37.43325167" lon="-4.43306333">
        <ele>507.0</ele>
        <time>2018-06-09T07:26:33.158Z</time>
      </trkpt>
      <trkpt lat="37.43325167" lon="-4.43306333">
        <ele>507.0</ele>
        <time>2018-06-09T07:26:34.193Z</time>
      </trkpt>
      <trkpt lat="37.43333667" lon="-4.43293667">
        <ele>507.0</ele>
        <time>2018-06-09T07:26:35.173Z</time>
      </trkpt>
      <trkpt lat="37.43333667" lon="-4.43293667">
        <ele>507.0</ele>
        <time>2018-06-09T07:26:36.192Z</time>
      </trkpt>
      <trkpt lat="37.433425" lon="-4.43281167">
        <ele>506.0</ele>
        <time>2018-06-09T07:26:37.159Z</time>
      </trkpt>
      <trkpt lat="37.433425" lon="-4.43281167">
        <ele>506.0</ele>
        <time>2018-06-09T07:26:38.189Z</time>
      </trkpt>
      <trkpt lat="37.43352" lon="-4.43269333">
        <ele>506.0</ele>
        <time>2018-06-09T07:26:39.170Z</time>
      </trkpt>
      <trkpt lat="37.43352" lon="-4.43269333">
        <ele>506.0</ele>
        <time>2018-06-09T07:26:40.192Z</time>
      </trkpt>
      <trkpt lat="37.43361833" lon="-4.43257667">
        <ele>506.0</ele>
        <time>2018-06-09T07:26:41.172Z</time>
      </trkpt>
      <trkpt lat="37.43361833" lon="-4.43257667">
        <ele>506.0</ele>
        <time>2018-06-09T07:26:42.192Z</time>
      </trkpt>
      <trkpt lat="37.43372" lon="-4.43246167">
        <ele>505.0</ele>
        <time>2018-06-09T07:26:43.173Z</time>
      </trkpt>
      <trkpt lat="37.43372" lon="-4.43246167">
        <ele>505.0</ele>
        <time>2018-06-09T07:26:44.193Z</time>
      </trkpt>
      <trkpt lat="37.43382333" lon="-4.43235167">
        <ele>505.0</ele>
        <time>2018-06-09T07:26:45.170Z</time>
      </trkpt>
      <trkpt lat="37.43387667" lon="-4.43229833">
        <ele>505.0</ele>
        <time>2018-06-09T07:26:46.157Z</time>
      </trkpt>
      <trkpt lat="37.43393" lon="-4.43224667">
        <ele>505.0</ele>
        <time>2018-06-09T07:26:47.159Z</time>
      </trkpt>
      <trkpt lat="37.43393" lon="-4.43224667">
        <ele>505.0</ele>
        <time>2018-06-09T07:26:48.189Z</time>
      </trkpt>
      <trkpt lat="37.43404" lon="-4.43214667">
        <ele>505.0</ele>
        <time>2018-06-09T07:26:49.170Z</time>
      </trkpt>
      <trkpt lat="37.43404" lon="-4.43214667">
        <ele>505.0</ele>
        <time>2018-06-09T07:26:50.193Z</time>
      </trkpt>
      <trkpt lat="37.43415333" lon="-4.43205">
        <ele>505.0</ele>
        <time>2018-06-09T07:26:51.173Z</time>
      </trkpt>
      <trkpt lat="37.43415333" lon="-4.43205">
        <ele>505.0</ele>
        <time>2018-06-09T07:26:52.192Z</time>
      </trkpt>
      <trkpt lat="37.43427" lon="-4.43196167">
        <ele>504.0</ele>
        <time>2018-06-09T07:26:53.173Z</time>
      </trkpt>
      <trkpt lat="37.43432833" lon="-4.43191667">
        <ele>504.0</ele>
        <time>2018-06-09T07:26:54.158Z</time>
      </trkpt>
      <trkpt lat="37.43432833" lon="-4.43191667">
        <ele>504.0</ele>
        <time>2018-06-09T07:26:55.196Z</time>
      </trkpt>
      <trkpt lat="37.43445167" lon="-4.43183667">
        <ele>504.0</ele>
        <time>2018-06-09T07:26:56.157Z</time>
      </trkpt>
      <trkpt lat="37.43451333" lon="-4.4318">
        <ele>504.0</ele>
        <time>2018-06-09T07:26:57.157Z</time>
      </trkpt>
      <trkpt lat="37.43451333" lon="-4.4318">
        <ele>504.0</ele>
        <time>2018-06-09T07:26:58.188Z</time>
      </trkpt>
      <trkpt lat="37.434635" lon="-4.43172833">
        <ele>504.0</ele>
        <time>2018-06-09T07:26:59.169Z</time>
      </trkpt>
      <trkpt lat="37.434635" lon="-4.43172833">
        <ele>504.0</ele>
        <time>2018-06-09T07:27:00.192Z</time>
      </trkpt>
      <trkpt lat="37.43476333" lon="-4.431675">
        <ele>503.0</ele>
        <time>2018-06-09T07:27:01.173Z</time>
      </trkpt>
      <trkpt lat="37.43476333" lon="-4.431675">
        <ele>503.0</ele>
        <time>2018-06-09T07:27:02.193Z</time>
      </trkpt>
      <trkpt lat="37.43489167" lon="-4.43161833">
        <ele>503.0</ele>
        <time>2018-06-09T07:27:03.174Z</time>
      </trkpt>
      <trkpt lat="37.43489167" lon="-4.43161833">
        <ele>503.0</ele>
        <time>2018-06-09T07:27:04.192Z</time>
      </trkpt>
      <trkpt lat="37.43501833" lon="-4.43155333">
        <ele>503.0</ele>
        <time>2018-06-09T07:27:05.177Z</time>
      </trkpt>
      <trkpt lat="37.43508333" lon="-4.43152833">
        <ele>503.0</ele>
        <time>2018-06-09T07:27:06.157Z</time>
      </trkpt>
      <trkpt lat="37.43508333" lon="-4.43152833">
        <ele>503.0</ele>
        <time>2018-06-09T07:27:07.157Z</time>
      </trkpt>
      <trkpt lat="37.43522" lon="-4.43148833">
        <ele>503.0</ele>
        <time>2018-06-09T07:27:08.190Z</time>
      </trkpt>
      <trkpt lat="37.43529" lon="-4.43147">
        <ele>503.0</ele>
        <time>2018-06-09T07:27:09.172Z</time>
      </trkpt>
      <trkpt lat="37.43529" lon="-4.43147">
        <ele>503.0</ele>
        <time>2018-06-09T07:27:10.195Z</time>
      </trkpt>
      <trkpt lat="37.43542667" lon="-4.431435">
        <ele>503.0</ele>
        <time>2018-06-09T07:27:11.175Z</time>
      </trkpt>
      <trkpt lat="37.43542667" lon="-4.431435">
        <ele>503.0</ele>
        <time>2018-06-09T07:27:12.192Z</time>
      </trkpt>
      <trkpt lat="37.435565" lon="-4.43140667">
        <ele>503.0</ele>
        <time>2018-06-09T07:27:13.173Z</time>
      </trkpt>
      <trkpt lat="37.435565" lon="-4.43140667">
        <ele>503.0</ele>
        <time>2018-06-09T07:27:14.196Z</time>
      </trkpt>
      <trkpt lat="37.435705" lon="-4.43138667">
        <ele>503.0</ele>
        <time>2018-06-09T07:27:15.158Z</time>
      </trkpt>
      <trkpt lat="37.435705" lon="-4.43138667">
        <ele>503.0</ele>
        <time>2018-06-09T07:27:16.195Z</time>
      </trkpt>
      <trkpt lat="37.435845" lon="-4.43137333">
        <ele>503.0</ele>
        <time>2018-06-09T07:27:17.197Z</time>
      </trkpt>
      <trkpt lat="37.435845" lon="-4.43137333">
        <ele>503.0</ele>
        <time>2018-06-09T07:27:18.181Z</time>
      </trkpt>
      <trkpt lat="37.435985" lon="-4.43136333">
        <ele>503.0</ele>
        <time>2018-06-09T07:27:19.159Z</time>
      </trkpt>
      <trkpt lat="37.435985" lon="-4.43136333">
        <ele>503.0</ele>
        <time>2018-06-09T07:27:20.193Z</time>
      </trkpt>
      <trkpt lat="37.43612667" lon="-4.43136333">
        <ele>503.0</ele>
        <time>2018-06-09T07:27:21.171Z</time>
      </trkpt>
      <trkpt lat="37.43612667" lon="-4.43136333">
        <ele>503.0</ele>
        <time>2018-06-09T07:27:22.189Z</time>
      </trkpt>
      <trkpt lat="37.436265" lon="-4.43136667">
        <ele>502.0</ele>
        <time>2018-06-09T07:27:23.159Z</time>
      </trkpt>
      <trkpt lat="37.436265" lon="-4.43136667">
        <ele>502.0</ele>
        <time>2018-06-09T07:27:24.196Z</time>
      </trkpt>
      <trkpt lat="37.436405" lon="-4.43137333">
        <ele>502.0</ele>
        <time>2018-06-09T07:27:25.158Z</time>
      </trkpt>
      <trkpt lat="37.43647667" lon="-4.43138167">
        <ele>502.0</ele>
        <time>2018-06-09T07:27:26.158Z</time>
      </trkpt>
      <trkpt lat="37.43647667" lon="-4.43138167">
        <ele>502.0</ele>
        <time>2018-06-09T07:27:27.193Z</time>
      </trkpt>
      <trkpt lat="37.436615" lon="-4.43140667">
        <ele>502.0</ele>
        <time>2018-06-09T07:27:28.173Z</time>
      </trkpt>
      <trkpt lat="37.43668333" lon="-4.43142">
        <ele>502.0</ele>
        <time>2018-06-09T07:27:29.173Z</time>
      </trkpt>
      <trkpt lat="37.43675" lon="-4.43143333">
        <ele>502.0</ele>
        <time>2018-06-09T07:27:30.158Z</time>
      </trkpt>
      <trkpt lat="37.43675" lon="-4.43143333">
        <ele>502.0</ele>
        <time>2018-06-09T07:27:31.157Z</time>
      </trkpt>
      <trkpt lat="37.43688167" lon="-4.43146667">
        <ele>502.0</ele>
        <time>2018-06-09T07:27:32.158Z</time>
      </trkpt>
      <trkpt lat="37.43688167" lon="-4.43146667">
        <ele>502.0</ele>
        <time>2018-06-09T07:27:33.201Z</time>
      </trkpt>
      <trkpt lat="37.43701167" lon="-4.4315">
        <ele>502.0</ele>
        <time>2018-06-09T07:27:34.157Z</time>
      </trkpt>
      <trkpt lat="37.43707333" lon="-4.431515">
        <ele>502.0</ele>
        <time>2018-06-09T07:27:35.158Z</time>
      </trkpt>
      <trkpt lat="37.43707333" lon="-4.431515">
        <ele>502.0</ele>
        <time>2018-06-09T07:27:36.194Z</time>
      </trkpt>
      <trkpt lat="37.43719833" lon="-4.43154833">
        <ele>502.0</ele>
        <time>2018-06-09T07:27:37.158Z</time>
      </trkpt>
      <trkpt lat="37.43719833" lon="-4.43154833">
        <ele>502.0</ele>
        <time>2018-06-09T07:27:38.195Z</time>
      </trkpt>
      <trkpt lat="37.43732" lon="-4.43158167">
        <ele>502.0</ele>
        <time>2018-06-09T07:27:39.157Z</time>
      </trkpt>
      <trkpt lat="37.43738167" lon="-4.43159833">
        <ele>502.0</ele>
        <time>2018-06-09T07:27:40.195Z</time>
      </trkpt>
      <trkpt lat="37.43744167" lon="-4.43161333">
        <ele>502.0</ele>
        <time>2018-06-09T07:27:41.173Z</time>
      </trkpt>
      <trkpt lat="37.43744167" lon="-4.43161333">
        <ele>502.0</ele>
        <time>2018-06-09T07:27:42.157Z</time>
      </trkpt>
      <trkpt lat="37.43756" lon="-4.43164833">
        <ele>502.0</ele>
        <time>2018-06-09T07:27:43.158Z</time>
      </trkpt>
      <trkpt lat="37.43756" lon="-4.43164833">
        <ele>502.0</ele>
        <time>2018-06-09T07:27:44.192Z</time>
      </trkpt>
      <trkpt lat="37.43767667" lon="-4.43168333">
        <ele>502.0</ele>
        <time>2018-06-09T07:27:45.157Z</time>
      </trkpt>
      <trkpt lat="37.43767667" lon="-4.43168333">
        <ele>502.0</ele>
        <time>2018-06-09T07:27:46.196Z</time>
      </trkpt>
      <trkpt lat="37.43779167" lon="-4.431715">
        <ele>502.0</ele>
        <time>2018-06-09T07:27:47.159Z</time>
      </trkpt>
      <trkpt lat="37.43779167" lon="-4.431715">
        <ele>502.0</ele>
        <time>2018-06-09T07:27:48.158Z</time>
      </trkpt>
      <trkpt lat="37.43790833" lon="-4.43174667">
        <ele>502.0</ele>
        <time>2018-06-09T07:27:49.158Z</time>
      </trkpt>
      <trkpt lat="37.43790833" lon="-4.43174667">
        <ele>502.0</ele>
        <time>2018-06-09T07:27:50.196Z</time>
      </trkpt>
      <trkpt lat="37.43802167" lon="-4.43177667">
        <ele>502.0</ele>
        <time>2018-06-09T07:27:51.158Z</time>
      </trkpt>
      <trkpt lat="37.43802167" lon="-4.43177667">
        <ele>502.0</ele>
        <time>2018-06-09T07:27:52.196Z</time>
      </trkpt>
      <trkpt lat="37.43813333" lon="-4.43180333">
        <ele>502.0</ele>
        <time>2018-06-09T07:27:53.158Z</time>
      </trkpt>
      <trkpt lat="37.43818833" lon="-4.43181333">
        <ele>502.0</ele>
        <time>2018-06-09T07:27:54.159Z</time>
      </trkpt>
      <trkpt lat="37.43824333" lon="-4.43182667">
        <ele>502.0</ele>
        <time>2018-06-09T07:27:55.159Z</time>
      </trkpt>
      <trkpt lat="37.43824333" lon="-4.43182667">
        <ele>502.0</ele>
        <time>2018-06-09T07:27:56.196Z</time>
      </trkpt>
      <trkpt lat="37.43836167" lon="-4.43185">
        <ele>502.0</ele>
        <time>2018-06-09T07:27:57.158Z</time>
      </trkpt>
      <trkpt lat="37.43836167" lon="-4.43185">
        <ele>502.0</ele>
        <time>2018-06-09T07:27:58.196Z</time>
      </trkpt>
      <trkpt lat="37.43848333" lon="-4.43186833">
        <ele>502.0</ele>
        <time>2018-06-09T07:27:59.172Z</time>
      </trkpt>
      <trkpt lat="37.43848333" lon="-4.43186833">
        <ele>502.0</ele>
        <time>2018-06-09T07:28:00.196Z</time>
      </trkpt>
      <trkpt lat="37.438605" lon="-4.43188167">
        <ele>502.0</ele>
        <time>2018-06-09T07:28:01.174Z</time>
      </trkpt>
      <trkpt lat="37.438665" lon="-4.43188667">
        <ele>502.0</ele>
        <time>2018-06-09T07:28:02.157Z</time>
      </trkpt>
      <trkpt lat="37.438665" lon="-4.43188667">
        <ele>502.0</ele>
        <time>2018-06-09T07:28:03.196Z</time>
      </trkpt>
      <trkpt lat="37.43879" lon="-4.43188667">
        <ele>502.0</ele>
        <time>2018-06-09T07:28:04.158Z</time>
      </trkpt>
      <trkpt lat="37.43879" lon="-4.43188667">
        <ele>502.0</ele>
        <time>2018-06-09T07:28:05.196Z</time>
      </trkpt>
      <trkpt lat="37.43891333" lon="-4.43188833">
        <ele>502.0</ele>
        <time>2018-06-09T07:28:06.158Z</time>
      </trkpt>
      <trkpt lat="37.43891333" lon="-4.43188833">
        <ele>502.0</ele>
        <time>2018-06-09T07:28:07.192Z</time>
      </trkpt>
      <trkpt lat="37.43903667" lon="-4.43188333">
        <ele>501.0</ele>
        <time>2018-06-09T07:28:08.173Z</time>
      </trkpt>
      <trkpt lat="37.43909667" lon="-4.43187667">
        <ele>501.0</ele>
        <time>2018-06-09T07:28:09.159Z</time>
      </trkpt>
      <trkpt lat="37.43909667" lon="-4.43187667">
        <ele>501.0</ele>
        <time>2018-06-09T07:28:10.193Z</time>
      </trkpt>
      <trkpt lat="37.43922" lon="-4.43186167">
        <ele>501.0</ele>
        <time>2018-06-09T07:28:11.173Z</time>
      </trkpt>
      <trkpt lat="37.43922" lon="-4.43186167">
        <ele>501.0</ele>
        <time>2018-06-09T07:28:12.196Z</time>
      </trkpt>
      <trkpt lat="37.439345" lon="-4.43185167">
        <ele>501.0</ele>
        <time>2018-06-09T07:28:13.158Z</time>
      </trkpt>
      <trkpt lat="37.439345" lon="-4.43185167">
        <ele>501.0</ele>
        <time>2018-06-09T07:28:14.196Z</time>
      </trkpt>
      <trkpt lat="37.43946667" lon="-4.431825">
        <ele>501.0</ele>
        <time>2018-06-09T07:28:15.174Z</time>
      </trkpt>
      <trkpt lat="37.43946667" lon="-4.431825">
        <ele>501.0</ele>
        <time>2018-06-09T07:28:16.195Z</time>
      </trkpt>
      <trkpt lat="37.43958833" lon="-4.43179167">
        <ele>500.0</ele>
        <time>2018-06-09T07:28:17.159Z</time>
      </trkpt>
      <trkpt lat="37.43965" lon="-4.43177167">
        <ele>500.0</ele>
        <time>2018-06-09T07:28:18.158Z</time>
      </trkpt>
      <trkpt lat="37.43971167" lon="-4.43175167">
        <ele>500.0</ele>
        <time>2018-06-09T07:28:19.158Z</time>
      </trkpt>
      <trkpt lat="37.43971167" lon="-4.43175167">
        <ele>500.0</ele>
        <time>2018-06-09T07:28:20.196Z</time>
      </trkpt>
      <trkpt lat="37.439835" lon="-4.43170667">
        <ele>500.0</ele>
        <time>2018-06-09T07:28:21.157Z</time>
      </trkpt>
      <trkpt lat="37.43989667" lon="-4.43168333">
        <ele>500.0</ele>
        <time>2018-06-09T07:28:22.158Z</time>
      </trkpt>
      <trkpt lat="37.43989667" lon="-4.43168333">
        <ele>500.0</ele>
        <time>2018-06-09T07:28:23.157Z</time>
      </trkpt>
      <trkpt lat="37.44002167" lon="-4.43162833">
        <ele>500.0</ele>
        <time>2018-06-09T07:28:24.178Z</time>
      </trkpt>
      <trkpt lat="37.44008333" lon="-4.4316">
        <ele>500.0</ele>
        <time>2018-06-09T07:28:25.158Z</time>
      </trkpt>
      <trkpt lat="37.44008333" lon="-4.4316">
        <ele>500.0</ele>
        <time>2018-06-09T07:28:26.196Z</time>
      </trkpt>
      <trkpt lat="37.44020667" lon="-4.43153833">
        <ele>499.0</ele>
        <time>2018-06-09T07:28:27.158Z</time>
      </trkpt>
      <trkpt lat="37.44020667" lon="-4.43153833">
        <ele>499.0</ele>
        <time>2018-06-09T07:28:28.181Z</time>
      </trkpt>
      <trkpt lat="37.44032667" lon="-4.43146667">
        <ele>499.0</ele>
        <time>2018-06-09T07:28:29.178Z</time>
      </trkpt>
      <trkpt lat="37.44032667" lon="-4.43146667">
        <ele>499.0</ele>
        <time>2018-06-09T07:28:30.161Z</time>
      </trkpt>
      <trkpt lat="37.44044667" lon="-4.43139">
        <ele>499.0</ele>
        <time>2018-06-09T07:28:31.158Z</time>
      </trkpt>
      <trkpt lat="37.44044667" lon="-4.43139">
        <ele>499.0</ele>
        <time>2018-06-09T07:28:32.196Z</time>
      </trkpt>
      <trkpt lat="37.440565" lon="-4.431315">
        <ele>499.0</ele>
        <time>2018-06-09T07:28:33.159Z</time>
      </trkpt>
      <trkpt lat="37.44062333" lon="-4.43127667">
        <ele>499.0</ele>
        <time>2018-06-09T07:28:34.158Z</time>
      </trkpt>
      <trkpt lat="37.44062333" lon="-4.43127667">
        <ele>499.0</ele>
        <time>2018-06-09T07:28:35.196Z</time>
      </trkpt>
      <trkpt lat="37.44073833" lon="-4.43119333">
        <ele>499.0</ele>
        <time>2018-06-09T07:28:36.158Z</time>
      </trkpt>
      <trkpt lat="37.44073833" lon="-4.43119333">
        <ele>499.0</ele>
        <time>2018-06-09T07:28:37.196Z</time>
      </trkpt>
      <trkpt lat="37.440855" lon="-4.43111167">
        <ele>498.0</ele>
        <time>2018-06-09T07:28:38.158Z</time>
      </trkpt>
      <trkpt lat="37.440855" lon="-4.43111167">
        <ele>498.0</ele>
        <time>2018-06-09T07:28:39.188Z</time>
      </trkpt>
      <trkpt lat="37.44097333" lon="-4.43103">
        <ele>498.0</ele>
        <time>2018-06-09T07:28:40.167Z</time>
      </trkpt>
      <trkpt lat="37.44097333" lon="-4.43103">
        <ele>498.0</ele>
        <time>2018-06-09T07:28:41.193Z</time>
      </trkpt>
      <trkpt lat="37.44109167" lon="-4.430945">
        <ele>498.0</ele>
        <time>2018-06-09T07:28:42.168Z</time>
      </trkpt>
      <trkpt lat="37.44109167" lon="-4.430945">
        <ele>498.0</ele>
        <time>2018-06-09T07:28:43.196Z</time>
      </trkpt>
      <trkpt lat="37.44121" lon="-4.43086167">
        <ele>498.0</ele>
        <time>2018-06-09T07:28:44.158Z</time>
      </trkpt>
      <trkpt lat="37.44121" lon="-4.43086167">
        <ele>498.0</ele>
        <time>2018-06-09T07:28:45.174Z</time>
      </trkpt>
      <trkpt lat="37.44132667" lon="-4.43078">
        <ele>497.0</ele>
        <time>2018-06-09T07:28:46.159Z</time>
      </trkpt>
      <trkpt lat="37.44132667" lon="-4.43078">
        <ele>497.0</ele>
        <time>2018-06-09T07:28:47.180Z</time>
      </trkpt>
      <trkpt lat="37.441445" lon="-4.4307">
        <ele>497.0</ele>
        <time>2018-06-09T07:28:48.158Z</time>
      </trkpt>
      <trkpt lat="37.441445" lon="-4.4307">
        <ele>497.0</ele>
        <time>2018-06-09T07:28:49.190Z</time>
      </trkpt>
      <trkpt lat="37.441565" lon="-4.43062833">
        <ele>497.0</ele>
        <time>2018-06-09T07:28:50.171Z</time>
      </trkpt>
      <trkpt lat="37.441565" lon="-4.43062833">
        <ele>497.0</ele>
        <time>2018-06-09T07:28:51.196Z</time>
      </trkpt>
      <trkpt lat="37.44168833" lon="-4.430555">
        <ele>497.0</ele>
        <time>2018-06-09T07:28:52.158Z</time>
      </trkpt>
      <trkpt lat="37.44175" lon="-4.43052">
        <ele>497.0</ele>
        <time>2018-06-09T07:28:53.160Z</time>
      </trkpt>
      <trkpt lat="37.44175" lon="-4.43052">
        <ele>497.0</ele>
        <time>2018-06-09T07:28:54.193Z</time>
      </trkpt>
      <trkpt lat="37.44187667" lon="-4.430455">
        <ele>497.0</ele>
        <time>2018-06-09T07:28:55.174Z</time>
      </trkpt>
      <trkpt lat="37.44187667" lon="-4.430455">
        <ele>497.0</ele>
        <time>2018-06-09T07:28:56.196Z</time>
      </trkpt>
      <trkpt lat="37.442005" lon="-4.43039667">
        <ele>497.0</ele>
        <time>2018-06-09T07:28:57.158Z</time>
      </trkpt>
      <trkpt lat="37.442005" lon="-4.43039667">
        <ele>497.0</ele>
        <time>2018-06-09T07:28:58.174Z</time>
      </trkpt>
      <trkpt lat="37.44213833" lon="-4.43034667">
        <ele>497.0</ele>
        <time>2018-06-09T07:28:59.162Z</time>
      </trkpt>
      <trkpt lat="37.44220333" lon="-4.43032167">
        <ele>497.0</ele>
        <time>2018-06-09T07:29:00.158Z</time>
      </trkpt>
      <trkpt lat="37.44227" lon="-4.43029833">
        <ele>496.0</ele>
        <time>2018-06-09T07:29:01.158Z</time>
      </trkpt>
      <trkpt lat="37.44227" lon="-4.43029833">
        <ele>496.0</ele>
        <time>2018-06-09T07:29:02.196Z</time>
      </trkpt>
      <trkpt lat="37.44240167" lon="-4.43025667">
        <ele>497.0</ele>
        <time>2018-06-09T07:29:03.158Z</time>
      </trkpt>
      <trkpt lat="37.44240167" lon="-4.43025667">
        <ele>497.0</ele>
        <time>2018-06-09T07:29:04.196Z</time>
      </trkpt>
      <trkpt lat="37.44253167" lon="-4.43022167">
        <ele>497.0</ele>
        <time>2018-06-09T07:29:05.160Z</time>
      </trkpt>
      <trkpt lat="37.44259667" lon="-4.430205">
        <ele>497.0</ele>
        <time>2018-06-09T07:29:06.158Z</time>
      </trkpt>
      <trkpt lat="37.44266167" lon="-4.43019">
        <ele>497.0</ele>
        <time>2018-06-09T07:29:07.158Z</time>
      </trkpt>
      <trkpt lat="37.44266167" lon="-4.43019">
        <ele>497.0</ele>
        <time>2018-06-09T07:29:08.174Z</time>
      </trkpt>
      <trkpt lat="37.44279167" lon="-4.43016833">
        <ele>497.0</ele>
        <time>2018-06-09T07:29:09.195Z</time>
      </trkpt>
      <trkpt lat="37.44279167" lon="-4.43016833">
        <ele>497.0</ele>
        <time>2018-06-09T07:29:10.176Z</time>
      </trkpt>
      <trkpt lat="37.44292167" lon="-4.430155">
        <ele>497.0</ele>
        <time>2018-06-09T07:29:11.158Z</time>
      </trkpt>
      <trkpt lat="37.44298667" lon="-4.43015">
        <ele>497.0</ele>
        <time>2018-06-09T07:29:12.173Z</time>
      </trkpt>
      <trkpt lat="37.44298667" lon="-4.43015">
        <ele>497.0</ele>
        <time>2018-06-09T07:29:13.196Z</time>
      </trkpt>
      <trkpt lat="37.443115" lon="-4.43014">
        <ele>497.0</ele>
        <time>2018-06-09T07:29:14.195Z</time>
      </trkpt>
      <trkpt lat="37.44317833" lon="-4.43013833">
        <ele>497.0</ele>
        <time>2018-06-09T07:29:15.158Z</time>
      </trkpt>
      <trkpt lat="37.44317833" lon="-4.43013833">
        <ele>497.0</ele>
        <time>2018-06-09T07:29:16.181Z</time>
      </trkpt>
      <trkpt lat="37.443305" lon="-4.43014333">
        <ele>497.0</ele>
        <time>2018-06-09T07:29:17.172Z</time>
      </trkpt>
      <trkpt lat="37.44337167" lon="-4.43014833">
        <ele>497.0</ele>
        <time>2018-06-09T07:29:18.158Z</time>
      </trkpt>
      <trkpt lat="37.44343833" lon="-4.430155">
        <ele>496.0</ele>
        <time>2018-06-09T07:29:19.181Z</time>
      </trkpt>
      <trkpt lat="37.44343833" lon="-4.430155">
        <ele>496.0</ele>
        <time>2018-06-09T07:29:20.166Z</time>
      </trkpt>
      <trkpt lat="37.44357167" lon="-4.43017333">
        <ele>496.0</ele>
        <time>2018-06-09T07:29:21.158Z</time>
      </trkpt>
      <trkpt lat="37.44357167" lon="-4.43017333">
        <ele>496.0</ele>
        <time>2018-06-09T07:29:22.194Z</time>
      </trkpt>
      <trkpt lat="37.443705" lon="-4.430195">
        <ele>496.0</ele>
        <time>2018-06-09T07:29:23.196Z</time>
      </trkpt>
      <trkpt lat="37.44377" lon="-4.430205">
        <ele>496.0</ele>
        <time>2018-06-09T07:29:24.174Z</time>
      </trkpt>
      <trkpt lat="37.44377" lon="-4.430205">
        <ele>496.0</ele>
        <time>2018-06-09T07:29:25.196Z</time>
      </trkpt>
      <trkpt lat="37.44390333" lon="-4.43022">
        <ele>496.0</ele>
        <time>2018-06-09T07:29:26.158Z</time>
      </trkpt>
      <trkpt lat="37.44396833" lon="-4.430225">
        <ele>496.0</ele>
        <time>2018-06-09T07:29:27.158Z</time>
      </trkpt>
      <trkpt lat="37.44396833" lon="-4.430225">
        <ele>496.0</ele>
        <time>2018-06-09T07:29:28.196Z</time>
      </trkpt>
      <trkpt lat="37.44410167" lon="-4.43024667">
        <ele>496.0</ele>
        <time>2018-06-09T07:29:29.173Z</time>
      </trkpt>
      <trkpt lat="37.44416667" lon="-4.43025833">
        <ele>496.0</ele>
        <time>2018-06-09T07:29:30.159Z</time>
      </trkpt>
      <trkpt lat="37.44423167" lon="-4.43026833">
        <ele>496.0</ele>
        <time>2018-06-09T07:29:31.159Z</time>
      </trkpt>
      <trkpt lat="37.44423167" lon="-4.43026833">
        <ele>496.0</ele>
        <time>2018-06-09T07:29:32.175Z</time>
      </trkpt>
      <trkpt lat="37.444365" lon="-4.43028167">
        <ele>497.0</ele>
        <time>2018-06-09T07:29:33.159Z</time>
      </trkpt>
      <trkpt lat="37.44443167" lon="-4.43028833">
        <ele>498.0</ele>
        <time>2018-06-09T07:29:34.159Z</time>
      </trkpt>
      <trkpt lat="37.44443167" lon="-4.43028833">
        <ele>498.0</ele>
        <time>2018-06-09T07:29:35.157Z</time>
      </trkpt>
      <trkpt lat="37.44456167" lon="-4.43031">
        <ele>499.0</ele>
        <time>2018-06-09T07:29:36.159Z</time>
      </trkpt>
      <trkpt lat="37.44462667" lon="-4.43032">
        <ele>500.0</ele>
        <time>2018-06-09T07:29:37.158Z</time>
      </trkpt>
      <trkpt lat="37.44462667" lon="-4.43032">
        <ele>500.0</ele>
        <time>2018-06-09T07:29:38.174Z</time>
      </trkpt>
      <trkpt lat="37.44476" lon="-4.430335">
        <ele>500.0</ele>
        <time>2018-06-09T07:29:39.158Z</time>
      </trkpt>
      <trkpt lat="37.44476" lon="-4.430335">
        <ele>500.0</ele>
        <time>2018-06-09T07:29:40.194Z</time>
      </trkpt>
      <trkpt lat="37.44489333" lon="-4.43035167">
        <ele>501.0</ele>
        <time>2018-06-09T07:29:41.173Z</time>
      </trkpt>
      <trkpt lat="37.44489333" lon="-4.43035167">
        <ele>501.0</ele>
        <time>2018-06-09T07:29:42.196Z</time>
      </trkpt>
      <trkpt lat="37.445025" lon="-4.43036833">
        <ele>501.0</ele>
        <time>2018-06-09T07:29:43.158Z</time>
      </trkpt>
      <trkpt lat="37.445025" lon="-4.43036833">
        <ele>501.0</ele>
        <time>2018-06-09T07:29:44.193Z</time>
      </trkpt>
      <trkpt lat="37.445155" lon="-4.430385">
        <ele>500.0</ele>
        <time>2018-06-09T07:29:45.173Z</time>
      </trkpt>
      <trkpt lat="37.445155" lon="-4.430385">
        <ele>500.0</ele>
        <time>2018-06-09T07:29:46.197Z</time>
      </trkpt>
      <trkpt lat="37.445285" lon="-4.43040333">
        <ele>500.0</ele>
        <time>2018-06-09T07:29:47.159Z</time>
      </trkpt>
      <trkpt lat="37.445285" lon="-4.43040333">
        <ele>500.0</ele>
        <time>2018-06-09T07:29:48.162Z</time>
      </trkpt>
      <trkpt lat="37.445415" lon="-4.43042167">
        <ele>500.0</ele>
        <time>2018-06-09T07:29:49.158Z</time>
      </trkpt>
      <trkpt lat="37.445415" lon="-4.43042167">
        <ele>500.0</ele>
        <time>2018-06-09T07:29:50.196Z</time>
      </trkpt>
      <trkpt lat="37.44554667" lon="-4.43043833">
        <ele>500.0</ele>
        <time>2018-06-09T07:29:51.158Z</time>
      </trkpt>
      <trkpt lat="37.44554667" lon="-4.43043833">
        <ele>500.0</ele>
        <time>2018-06-09T07:29:52.196Z</time>
      </trkpt>
      <trkpt lat="37.44567833" lon="-4.43045667">
        <ele>500.0</ele>
        <time>2018-06-09T07:29:53.175Z</time>
      </trkpt>
      <trkpt lat="37.44567833" lon="-4.43045667">
        <ele>500.0</ele>
        <time>2018-06-09T07:29:54.196Z</time>
      </trkpt>
      <trkpt lat="37.44580833" lon="-4.43047333">
        <ele>499.0</ele>
        <time>2018-06-09T07:29:55.159Z</time>
      </trkpt>
      <trkpt lat="37.44580833" lon="-4.43047333">
        <ele>499.0</ele>
        <time>2018-06-09T07:29:56.157Z</time>
      </trkpt>
      <trkpt lat="37.44594" lon="-4.43049">
        <ele>499.0</ele>
        <time>2018-06-09T07:29:57.159Z</time>
      </trkpt>
      <trkpt lat="37.44594" lon="-4.43049">
        <ele>499.0</ele>
        <time>2018-06-09T07:29:58.180Z</time>
      </trkpt>
      <trkpt lat="37.44607" lon="-4.43051333">
        <ele>499.0</ele>
        <time>2018-06-09T07:29:59.166Z</time>
      </trkpt>
      <trkpt lat="37.44607" lon="-4.43051333">
        <ele>499.0</ele>
        <time>2018-06-09T07:30:00.197Z</time>
      </trkpt>
      <trkpt lat="37.44620167" lon="-4.430535">
        <ele>499.0</ele>
        <time>2018-06-09T07:30:01.159Z</time>
      </trkpt>
      <trkpt lat="37.44626833" lon="-4.43054333">
        <ele>499.0</ele>
        <time>2018-06-09T07:30:02.160Z</time>
      </trkpt>
      <trkpt lat="37.44626833" lon="-4.43054333">
        <ele>499.0</ele>
        <time>2018-06-09T07:30:03.196Z</time>
      </trkpt>
      <trkpt lat="37.4464" lon="-4.43055667">
        <ele>499.0</ele>
        <time>2018-06-09T07:30:04.159Z</time>
      </trkpt>
      <trkpt lat="37.4464" lon="-4.43055667">
        <ele>499.0</ele>
        <time>2018-06-09T07:30:05.196Z</time>
      </trkpt>
      <trkpt lat="37.44653" lon="-4.43057333">
        <ele>499.0</ele>
        <time>2018-06-09T07:30:06.159Z</time>
      </trkpt>
      <trkpt lat="37.44653" lon="-4.43057333">
        <ele>499.0</ele>
        <time>2018-06-09T07:30:07.196Z</time>
      </trkpt>
      <trkpt lat="37.44665833" lon="-4.430585">
        <ele>499.0</ele>
        <time>2018-06-09T07:30:08.159Z</time>
      </trkpt>
      <trkpt lat="37.44665833" lon="-4.430585">
        <ele>499.0</ele>
        <time>2018-06-09T07:30:09.178Z</time>
      </trkpt>
      <trkpt lat="37.44678667" lon="-4.43059833">
        <ele>499.0</ele>
        <time>2018-06-09T07:30:10.160Z</time>
      </trkpt>
      <trkpt lat="37.44678667" lon="-4.43059833">
        <ele>499.0</ele>
        <time>2018-06-09T07:30:11.197Z</time>
      </trkpt>
      <trkpt lat="37.44691167" lon="-4.43061333">
        <ele>499.0</ele>
        <time>2018-06-09T07:30:12.167Z</time>
      </trkpt>
      <trkpt lat="37.44697333" lon="-4.43062167">
        <ele>499.0</ele>
        <time>2018-06-09T07:30:13.196Z</time>
      </trkpt>
      <trkpt lat="37.44697333" lon="-4.43062167">
        <ele>499.0</ele>
        <time>2018-06-09T07:30:14.173Z</time>
      </trkpt>
      <trkpt lat="37.44709667" lon="-4.43063667">
        <ele>499.0</ele>
        <time>2018-06-09T07:30:15.159Z</time>
      </trkpt>
      <trkpt lat="37.44709667" lon="-4.43063667">
        <ele>499.0</ele>
        <time>2018-06-09T07:30:16.175Z</time>
      </trkpt>
      <trkpt lat="37.44721667" lon="-4.43064833">
        <ele>498.0</ele>
        <time>2018-06-09T07:30:17.159Z</time>
      </trkpt>
      <trkpt lat="37.44721667" lon="-4.43064833">
        <ele>498.0</ele>
        <time>2018-06-09T07:30:18.194Z</time>
      </trkpt>
      <trkpt lat="37.447355" lon="-4.43066">
        <ele>496.0</ele>
        <time>2018-06-09T07:30:19.173Z</time>
      </trkpt>
      <trkpt lat="37.447355" lon="-4.43066">
        <ele>496.0</ele>
        <time>2018-06-09T07:30:20.196Z</time>
      </trkpt>
      <trkpt lat="37.44750833" lon="-4.430685">
        <ele>495.0</ele>
        <time>2018-06-09T07:30:21.158Z</time>
      </trkpt>
      <trkpt lat="37.44758167" lon="-4.43069667">
        <ele>495.0</ele>
        <time>2018-06-09T07:30:22.158Z</time>
      </trkpt>
      <trkpt lat="37.44758167" lon="-4.43069667">
        <ele>495.0</ele>
        <time>2018-06-09T07:30:23.196Z</time>
      </trkpt>
      <trkpt lat="37.44771833" lon="-4.43071333">
        <ele>496.0</ele>
        <time>2018-06-09T07:30:24.196Z</time>
      </trkpt>
      <trkpt lat="37.44771833" lon="-4.43071333">
        <ele>496.0</ele>
        <time>2018-06-09T07:30:25.173Z</time>
      </trkpt>
      <trkpt lat="37.44781833" lon="-4.43072667">
        <ele>497.0</ele>
        <time>2018-06-09T07:30:26.159Z</time>
      </trkpt>
      <trkpt lat="37.44781833" lon="-4.43072667">
        <ele>497.0</ele>
        <time>2018-06-09T07:30:27.157Z</time>
      </trkpt>
      <trkpt lat="37.44789333" lon="-4.43074">
        <ele>498.0</ele>
        <time>2018-06-09T07:30:28.158Z</time>
      </trkpt>
      <trkpt lat="37.44789333" lon="-4.43074">
        <ele>498.0</ele>
        <time>2018-06-09T07:30:29.157Z</time>
      </trkpt>
      <trkpt lat="37.447975" lon="-4.43075667">
        <ele>498.0</ele>
        <time>2018-06-09T07:30:30.157Z</time>
      </trkpt>
      <trkpt lat="37.44801667" lon="-4.43076667">
        <ele>498.0</ele>
        <time>2018-06-09T07:30:31.160Z</time>
      </trkpt>
      <trkpt lat="37.44801667" lon="-4.43076667">
        <ele>498.0</ele>
        <time>2018-06-09T07:30:32.157Z</time>
      </trkpt>
      <trkpt lat="37.44810167" lon="-4.43079">
        <ele>498.0</ele>
        <time>2018-06-09T07:30:33.159Z</time>
      </trkpt>
      <trkpt lat="37.448145" lon="-4.43080667">
        <ele>498.0</ele>
        <time>2018-06-09T07:30:34.159Z</time>
      </trkpt>
      <trkpt lat="37.448145" lon="-4.43080667">
        <ele>498.0</ele>
        <time>2018-06-09T07:30:35.176Z</time>
      </trkpt>
      <trkpt lat="37.44822833" lon="-4.430825">
        <ele>498.0</ele>
        <time>2018-06-09T07:30:36.159Z</time>
      </trkpt>
      <trkpt lat="37.44827167" lon="-4.43082167">
        <ele>498.0</ele>
        <time>2018-06-09T07:30:37.159Z</time>
      </trkpt>
      <trkpt lat="37.44827167" lon="-4.43082167">
        <ele>498.0</ele>
        <time>2018-06-09T07:30:38.157Z</time>
      </trkpt>
      <trkpt lat="37.44837667" lon="-4.43081667">
        <ele>497.0</ele>
        <time>2018-06-09T07:30:39.178Z</time>
      </trkpt>
      <trkpt lat="37.44837667" lon="-4.43081667">
        <ele>497.0</ele>
        <time>2018-06-09T07:30:40.174Z</time>
      </trkpt>
      <trkpt lat="37.44847667" lon="-4.43082167">
        <ele>497.0</ele>
        <time>2018-06-09T07:30:41.159Z</time>
      </trkpt>
      <trkpt lat="37.44847667" lon="-4.43082167">
        <ele>497.0</ele>
        <time>2018-06-09T07:30:42.175Z</time>
      </trkpt>
      <trkpt lat="37.448575" lon="-4.43082667">
        <ele>497.0</ele>
        <time>2018-06-09T07:30:43.159Z</time>
      </trkpt>
      <trkpt lat="37.448575" lon="-4.43082667">
        <ele>497.0</ele>
        <time>2018-06-09T07:30:44.157Z</time>
      </trkpt>
      <trkpt lat="37.44867667" lon="-4.43085">
        <ele>497.0</ele>
        <time>2018-06-09T07:30:45.159Z</time>
      </trkpt>
      <trkpt lat="37.44867667" lon="-4.43085">
        <ele>497.0</ele>
        <time>2018-06-09T07:30:46.174Z</time>
      </trkpt>
      <trkpt lat="37.44878167" lon="-4.43086833">
        <ele>497.0</ele>
        <time>2018-06-09T07:30:47.174Z</time>
      </trkpt>
      <trkpt lat="37.44878167" lon="-4.43086833">
        <ele>497.0</ele>
        <time>2018-06-09T07:30:48.164Z</time>
      </trkpt>
      <trkpt lat="37.44888833" lon="-4.43087333">
        <ele>497.0</ele>
        <time>2018-06-09T07:30:49.159Z</time>
      </trkpt>
      <trkpt lat="37.44888833" lon="-4.43087333">
        <ele>497.0</ele>
        <time>2018-06-09T07:30:50.177Z</time>
      </trkpt>
      <trkpt lat="37.44899667" lon="-4.430885">
        <ele>497.0</ele>
        <time>2018-06-09T07:30:51.159Z</time>
      </trkpt>
      <trkpt lat="37.44899667" lon="-4.430885">
        <ele>497.0</ele>
        <time>2018-06-09T07:30:52.157Z</time>
      </trkpt>
      <trkpt lat="37.449105" lon="-4.430905">
        <ele>497.0</ele>
        <time>2018-06-09T07:30:53.159Z</time>
      </trkpt>
      <trkpt lat="37.449105" lon="-4.430905">
        <ele>497.0</ele>
        <time>2018-06-09T07:30:54.157Z</time>
      </trkpt>
      <trkpt lat="37.449215" lon="-4.43091333">
        <ele>497.0</ele>
        <time>2018-06-09T07:30:55.160Z</time>
      </trkpt>
      <trkpt lat="37.449215" lon="-4.43091333">
        <ele>497.0</ele>
        <time>2018-06-09T07:30:56.195Z</time>
      </trkpt>
      <trkpt lat="37.44932833" lon="-4.43092333">
        <ele>497.0</ele>
        <time>2018-06-09T07:30:57.174Z</time>
      </trkpt>
      <trkpt lat="37.44938833" lon="-4.43092667">
        <ele>497.0</ele>
        <time>2018-06-09T07:30:58.159Z</time>
      </trkpt>
      <trkpt lat="37.44938833" lon="-4.43092667">
        <ele>497.0</ele>
        <time>2018-06-09T07:30:59.175Z</time>
      </trkpt>
      <trkpt lat="37.44950667" lon="-4.43093">
        <ele>497.0</ele>
        <time>2018-06-09T07:31:00.196Z</time>
      </trkpt>
      <trkpt lat="37.44956667" lon="-4.43092833">
        <ele>497.0</ele>
        <time>2018-06-09T07:31:01.174Z</time>
      </trkpt>
      <trkpt lat="37.44956667" lon="-4.43092833">
        <ele>497.0</ele>
        <time>2018-06-09T07:31:02.157Z</time>
      </trkpt>
      <trkpt lat="37.44968333" lon="-4.43092167">
        <ele>497.0</ele>
        <time>2018-06-09T07:31:03.159Z</time>
      </trkpt>
      <trkpt lat="37.44968333" lon="-4.43092167">
        <ele>497.0</ele>
        <time>2018-06-09T07:31:04.179Z</time>
      </trkpt>
      <trkpt lat="37.4498" lon="-4.43091167">
        <ele>497.0</ele>
        <time>2018-06-09T07:31:05.159Z</time>
      </trkpt>
      <trkpt lat="37.44985167" lon="-4.430905">
        <ele>497.0</ele>
        <time>2018-06-09T07:31:06.161Z</time>
      </trkpt>
      <trkpt lat="37.44985167" lon="-4.430905">
        <ele>497.0</ele>
        <time>2018-06-09T07:31:07.157Z</time>
      </trkpt>
      <trkpt lat="37.44995833" lon="-4.43088667">
        <ele>496.0</ele>
        <time>2018-06-09T07:31:08.158Z</time>
      </trkpt>
      <trkpt lat="37.450015" lon="-4.43088">
        <ele>496.0</ele>
        <time>2018-06-09T07:31:09.175Z</time>
      </trkpt>
      <trkpt lat="37.450015" lon="-4.43088">
        <ele>496.0</ele>
        <time>2018-06-09T07:31:10.163Z</time>
      </trkpt>
      <trkpt lat="37.450135" lon="-4.43086333">
        <ele>497.0</ele>
        <time>2018-06-09T07:31:11.159Z</time>
      </trkpt>
      <trkpt lat="37.450135" lon="-4.43086333">
        <ele>497.0</ele>
        <time>2018-06-09T07:31:12.175Z</time>
      </trkpt>
      <trkpt lat="37.45024833" lon="-4.430835">
        <ele>497.0</ele>
        <time>2018-06-09T07:31:13.157Z</time>
      </trkpt>
      <trkpt lat="37.45024833" lon="-4.430835">
        <ele>497.0</ele>
        <time>2018-06-09T07:31:14.194Z</time>
      </trkpt>
      <trkpt lat="37.45036167" lon="-4.4308">
        <ele>497.0</ele>
        <time>2018-06-09T07:31:15.174Z</time>
      </trkpt>
      <trkpt lat="37.45036167" lon="-4.4308">
        <ele>497.0</ele>
        <time>2018-06-09T07:31:16.195Z</time>
      </trkpt>
      <trkpt lat="37.45046833" lon="-4.43075">
        <ele>498.0</ele>
        <time>2018-06-09T07:31:17.165Z</time>
      </trkpt>
      <trkpt lat="37.45052167" lon="-4.43072333">
        <ele>498.0</ele>
        <time>2018-06-09T07:31:18.159Z</time>
      </trkpt>
      <trkpt lat="37.45057833" lon="-4.43070333">
        <ele>498.0</ele>
        <time>2018-06-09T07:31:19.175Z</time>
      </trkpt>
      <trkpt lat="37.45057833" lon="-4.43070333">
        <ele>498.0</ele>
        <time>2018-06-09T07:31:20.157Z</time>
      </trkpt>
      <trkpt lat="37.450695" lon="-4.43066">
        <ele>499.0</ele>
        <time>2018-06-09T07:31:21.158Z</time>
      </trkpt>
      <trkpt lat="37.45075" lon="-4.43063833">
        <ele>499.0</ele>
        <time>2018-06-09T07:31:22.158Z</time>
      </trkpt>
      <trkpt lat="37.45075" lon="-4.43063833">
        <ele>499.0</ele>
        <time>2018-06-09T07:31:23.194Z</time>
      </trkpt>
      <trkpt lat="37.45085833" lon="-4.43058667">
        <ele>500.0</ele>
        <time>2018-06-09T07:31:24.160Z</time>
      </trkpt>
      <trkpt lat="37.45090833" lon="-4.430555">
        <ele>500.0</ele>
        <time>2018-06-09T07:31:25.160Z</time>
      </trkpt>
      <trkpt lat="37.45090833" lon="-4.430555">
        <ele>500.0</ele>
        <time>2018-06-09T07:31:26.180Z</time>
      </trkpt>
      <trkpt lat="37.45101333" lon="-4.43050333">
        <ele>501.0</ele>
        <time>2018-06-09T07:31:27.162Z</time>
      </trkpt>
      <trkpt lat="37.45101333" lon="-4.43050333">
        <ele>501.0</ele>
        <time>2018-06-09T07:31:28.196Z</time>
      </trkpt>
      <trkpt lat="37.451115" lon="-4.430455">
        <ele>501.0</ele>
        <time>2018-06-09T07:31:29.170Z</time>
      </trkpt>
      <trkpt lat="37.451115" lon="-4.430455">
        <ele>501.0</ele>
        <time>2018-06-09T07:31:30.157Z</time>
      </trkpt>
      <trkpt lat="37.45122" lon="-4.43039667">
        <ele>502.0</ele>
        <time>2018-06-09T07:31:31.159Z</time>
      </trkpt>
      <trkpt lat="37.45122" lon="-4.43039667">
        <ele>502.0</ele>
        <time>2018-06-09T07:31:32.194Z</time>
      </trkpt>
      <trkpt lat="37.45133833" lon="-4.43034">
        <ele>501.0</ele>
        <time>2018-06-09T07:31:33.174Z</time>
      </trkpt>
      <trkpt lat="37.45133833" lon="-4.43034">
        <ele>501.0</ele>
        <time>2018-06-09T07:31:34.196Z</time>
      </trkpt>
      <trkpt lat="37.45146333" lon="-4.43028167">
        <ele>500.0</ele>
        <time>2018-06-09T07:31:35.160Z</time>
      </trkpt>
      <trkpt lat="37.45146333" lon="-4.43028167">
        <ele>500.0</ele>
        <time>2018-06-09T07:31:36.194Z</time>
      </trkpt>
      <trkpt lat="37.45158333" lon="-4.430225">
        <ele>500.0</ele>
        <time>2018-06-09T07:31:37.174Z</time>
      </trkpt>
      <trkpt lat="37.45158333" lon="-4.430225">
        <ele>500.0</ele>
        <time>2018-06-09T07:31:38.196Z</time>
      </trkpt>
      <trkpt lat="37.45170167" lon="-4.43016833">
        <ele>500.0</ele>
        <time>2018-06-09T07:31:39.159Z</time>
      </trkpt>
      <trkpt lat="37.45170167" lon="-4.43016833">
        <ele>500.0</ele>
        <time>2018-06-09T07:31:40.175Z</time>
      </trkpt>
      <trkpt lat="37.45181667" lon="-4.43011333">
        <ele>499.0</ele>
        <time>2018-06-09T07:31:41.163Z</time>
      </trkpt>
      <trkpt lat="37.45181667" lon="-4.43011333">
        <ele>499.0</ele>
        <time>2018-06-09T07:31:42.196Z</time>
      </trkpt>
      <trkpt lat="37.45193167" lon="-4.43005833">
        <ele>499.0</ele>
        <time>2018-06-09T07:31:43.159Z</time>
      </trkpt>
      <trkpt lat="37.45193167" lon="-4.43005833">
        <ele>499.0</ele>
        <time>2018-06-09T07:31:44.175Z</time>
      </trkpt>
      <trkpt lat="37.45204167" lon="-4.42999667">
        <ele>498.0</ele>
        <time>2018-06-09T07:31:45.159Z</time>
      </trkpt>
      <trkpt lat="37.45204167" lon="-4.42999667">
        <ele>498.0</ele>
        <time>2018-06-09T07:31:46.175Z</time>
      </trkpt>
      <trkpt lat="37.45215167" lon="-4.42993667">
        <ele>498.0</ele>
        <time>2018-06-09T07:31:47.174Z</time>
      </trkpt>
      <trkpt lat="37.45215167" lon="-4.42993667">
        <ele>498.0</ele>
        <time>2018-06-09T07:31:48.164Z</time>
      </trkpt>
      <trkpt lat="37.452265" lon="-4.42988333">
        <ele>498.0</ele>
        <time>2018-06-09T07:31:49.159Z</time>
      </trkpt>
      <trkpt lat="37.452265" lon="-4.42988333">
        <ele>498.0</ele>
        <time>2018-06-09T07:31:50.181Z</time>
      </trkpt>
      <trkpt lat="37.45237833" lon="-4.42983167">
        <ele>498.0</ele>
        <time>2018-06-09T07:31:51.167Z</time>
      </trkpt>
      <trkpt lat="37.45243667" lon="-4.42980667">
        <ele>498.0</ele>
        <time>2018-06-09T07:31:52.159Z</time>
      </trkpt>
      <trkpt lat="37.45249333" lon="-4.42978">
        <ele>498.0</ele>
        <time>2018-06-09T07:31:53.175Z</time>
      </trkpt>
      <trkpt lat="37.45249333" lon="-4.42978">
        <ele>498.0</ele>
        <time>2018-06-09T07:31:54.196Z</time>
      </trkpt>
      <trkpt lat="37.45260333" lon="-4.42972167">
        <ele>497.0</ele>
        <time>2018-06-09T07:31:55.159Z</time>
      </trkpt>
      <trkpt lat="37.45260333" lon="-4.42972167">
        <ele>497.0</ele>
        <time>2018-06-09T07:31:56.197Z</time>
      </trkpt>
      <trkpt lat="37.45271167" lon="-4.42966167">
        <ele>497.0</ele>
        <time>2018-06-09T07:31:57.159Z</time>
      </trkpt>
      <trkpt lat="37.45276667" lon="-4.429635">
        <ele>497.0</ele>
        <time>2018-06-09T07:31:58.175Z</time>
      </trkpt>
      <trkpt lat="37.45276667" lon="-4.429635">
        <ele>497.0</ele>
        <time>2018-06-09T07:31:59.158Z</time>
      </trkpt>
      <trkpt lat="37.45287667" lon="-4.42957833">
        <ele>497.0</ele>
        <time>2018-06-09T07:32:00.159Z</time>
      </trkpt>
      <trkpt lat="37.45293167" lon="-4.42955">
        <ele>497.0</ele>
        <time>2018-06-09T07:32:01.160Z</time>
      </trkpt>
      <trkpt lat="37.45298667" lon="-4.42952167">
        <ele>497.0</ele>
        <time>2018-06-09T07:32:02.159Z</time>
      </trkpt>
      <trkpt lat="37.45298667" lon="-4.42952167">
        <ele>497.0</ele>
        <time>2018-06-09T07:32:03.157Z</time>
      </trkpt>
      <trkpt lat="37.453095" lon="-4.429465">
        <ele>497.0</ele>
        <time>2018-06-09T07:32:04.159Z</time>
      </trkpt>
      <trkpt lat="37.45315167" lon="-4.42943667">
        <ele>497.0</ele>
        <time>2018-06-09T07:32:05.197Z</time>
      </trkpt>
      <trkpt lat="37.453205" lon="-4.42941">
        <ele>497.0</ele>
        <time>2018-06-09T07:32:06.173Z</time>
      </trkpt>
      <trkpt lat="37.453205" lon="-4.42941">
        <ele>497.0</ele>
        <time>2018-06-09T07:32:07.161Z</time>
      </trkpt>
      <trkpt lat="37.453315" lon="-4.42936">
        <ele>497.0</ele>
        <time>2018-06-09T07:32:08.159Z</time>
      </trkpt>
      <trkpt lat="37.453315" lon="-4.42936">
        <ele>497.0</ele>
        <time>2018-06-09T07:32:09.174Z</time>
      </trkpt>
      <trkpt lat="37.45342667" lon="-4.42931167">
        <ele>497.0</ele>
        <time>2018-06-09T07:32:10.160Z</time>
      </trkpt>
      <trkpt lat="37.45348167" lon="-4.42928667">
        <ele>497.0</ele>
        <time>2018-06-09T07:32:11.160Z</time>
      </trkpt>
      <trkpt lat="37.45348167" lon="-4.42928667">
        <ele>497.0</ele>
        <time>2018-06-09T07:32:12.196Z</time>
      </trkpt>
      <trkpt lat="37.45358833" lon="-4.42923">
        <ele>497.0</ele>
        <time>2018-06-09T07:32:13.159Z</time>
      </trkpt>
      <trkpt lat="37.45358833" lon="-4.42923">
        <ele>497.0</ele>
        <time>2018-06-09T07:32:14.157Z</time>
      </trkpt>
      <trkpt lat="37.453695" lon="-4.42918">
        <ele>497.0</ele>
        <time>2018-06-09T07:32:15.158Z</time>
      </trkpt>
      <trkpt lat="37.453695" lon="-4.42918">
        <ele>497.0</ele>
        <time>2018-06-09T07:32:16.196Z</time>
      </trkpt>
      <trkpt lat="37.45380333" lon="-4.42912667">
        <ele>496.0</ele>
        <time>2018-06-09T07:32:17.176Z</time>
      </trkpt>
      <trkpt lat="37.45380333" lon="-4.42912667">
        <ele>496.0</ele>
        <time>2018-06-09T07:32:18.157Z</time>
      </trkpt>
      <trkpt lat="37.45391333" lon="-4.42907">
        <ele>496.0</ele>
        <time>2018-06-09T07:32:19.181Z</time>
      </trkpt>
      <trkpt lat="37.45391333" lon="-4.42907">
        <ele>496.0</ele>
        <time>2018-06-09T07:32:20.158Z</time>
      </trkpt>
      <trkpt lat="37.45402333" lon="-4.42901333">
        <ele>496.0</ele>
        <time>2018-06-09T07:32:21.159Z</time>
      </trkpt>
      <trkpt lat="37.45402333" lon="-4.42901333">
        <ele>496.0</ele>
        <time>2018-06-09T07:32:22.174Z</time>
      </trkpt>
      <trkpt lat="37.454135" lon="-4.42895667">
        <ele>496.0</ele>
        <time>2018-06-09T07:32:23.162Z</time>
      </trkpt>
      <trkpt lat="37.454135" lon="-4.42895667">
        <ele>496.0</ele>
        <time>2018-06-09T07:32:24.161Z</time>
      </trkpt>
      <trkpt lat="37.45424667" lon="-4.428905">
        <ele>496.0</ele>
        <time>2018-06-09T07:32:25.159Z</time>
      </trkpt>
      <trkpt lat="37.45424667" lon="-4.428905">
        <ele>496.0</ele>
        <time>2018-06-09T07:32:26.196Z</time>
      </trkpt>
      <trkpt lat="37.45435667" lon="-4.42885333">
        <ele>496.0</ele>
        <time>2018-06-09T07:32:27.174Z</time>
      </trkpt>
      <trkpt lat="37.45441" lon="-4.42882667">
        <ele>496.0</ele>
        <time>2018-06-09T07:32:28.196Z</time>
      </trkpt>
      <trkpt lat="37.45441" lon="-4.42882667">
        <ele>496.0</ele>
        <time>2018-06-09T07:32:29.172Z</time>
      </trkpt>
      <trkpt lat="37.45451833" lon="-4.42877">
        <ele>495.0</ele>
        <time>2018-06-09T07:32:30.159Z</time>
      </trkpt>
      <trkpt lat="37.45451833" lon="-4.42877">
        <ele>495.0</ele>
        <time>2018-06-09T07:32:31.194Z</time>
      </trkpt>
      <trkpt lat="37.45462667" lon="-4.428715">
        <ele>495.0</ele>
        <time>2018-06-09T07:32:32.174Z</time>
      </trkpt>
      <trkpt lat="37.45468167" lon="-4.42868667">
        <ele>495.0</ele>
        <time>2018-06-09T07:32:33.166Z</time>
      </trkpt>
      <trkpt lat="37.45468167" lon="-4.42868667">
        <ele>495.0</ele>
        <time>2018-06-09T07:32:34.157Z</time>
      </trkpt>
      <trkpt lat="37.45479" lon="-4.42863333">
        <ele>495.0</ele>
        <time>2018-06-09T07:32:35.161Z</time>
      </trkpt>
      <trkpt lat="37.45479" lon="-4.42863333">
        <ele>495.0</ele>
        <time>2018-06-09T07:32:36.192Z</time>
      </trkpt>
      <trkpt lat="37.4549" lon="-4.42858">
        <ele>495.0</ele>
        <time>2018-06-09T07:32:37.174Z</time>
      </trkpt>
      <trkpt lat="37.4549" lon="-4.42858">
        <ele>495.0</ele>
        <time>2018-06-09T07:32:38.157Z</time>
      </trkpt>
      <trkpt lat="37.45500833" lon="-4.42852167">
        <ele>495.0</ele>
        <time>2018-06-09T07:32:39.159Z</time>
      </trkpt>
      <trkpt lat="37.455065" lon="-4.42849333">
        <ele>495.0</ele>
        <time>2018-06-09T07:32:40.175Z</time>
      </trkpt>
      <trkpt lat="37.455065" lon="-4.42849333">
        <ele>495.0</ele>
        <time>2018-06-09T07:32:41.192Z</time>
      </trkpt>
      <trkpt lat="37.45517333" lon="-4.428435">
        <ele>494.0</ele>
        <time>2018-06-09T07:32:42.179Z</time>
      </trkpt>
      <trkpt lat="37.45522667" lon="-4.42840333">
        <ele>494.0</ele>
        <time>2018-06-09T07:32:43.161Z</time>
      </trkpt>
      <trkpt lat="37.45522667" lon="-4.42840333">
        <ele>494.0</ele>
        <time>2018-06-09T07:32:44.194Z</time>
      </trkpt>
      <trkpt lat="37.45533167" lon="-4.428335">
        <ele>494.0</ele>
        <time>2018-06-09T07:32:45.174Z</time>
      </trkpt>
      <trkpt lat="37.45533167" lon="-4.428335">
        <ele>494.0</ele>
        <time>2018-06-09T07:32:46.194Z</time>
      </trkpt>
      <trkpt lat="37.45543167" lon="-4.42826167">
        <ele>494.0</ele>
        <time>2018-06-09T07:32:47.160Z</time>
      </trkpt>
      <trkpt lat="37.45543167" lon="-4.42826167">
        <ele>494.0</ele>
        <time>2018-06-09T07:32:48.161Z</time>
      </trkpt>
      <trkpt lat="37.45553333" lon="-4.42818833">
        <ele>494.0</ele>
        <time>2018-06-09T07:32:49.159Z</time>
      </trkpt>
      <trkpt lat="37.45553333" lon="-4.42818833">
        <ele>494.0</ele>
        <time>2018-06-09T07:32:50.158Z</time>
      </trkpt>
      <trkpt lat="37.45563333" lon="-4.42811167">
        <ele>494.0</ele>
        <time>2018-06-09T07:32:51.181Z</time>
      </trkpt>
      <trkpt lat="37.45568" lon="-4.42807167">
        <ele>494.0</ele>
        <time>2018-06-09T07:32:52.161Z</time>
      </trkpt>
      <trkpt lat="37.45572833" lon="-4.42802833">
        <ele>494.0</ele>
        <time>2018-06-09T07:32:53.177Z</time>
      </trkpt>
      <trkpt lat="37.45572833" lon="-4.42802833">
        <ele>494.0</ele>
        <time>2018-06-09T07:32:54.157Z</time>
      </trkpt>
      <trkpt lat="37.45582" lon="-4.42794667">
        <ele>493.0</ele>
        <time>2018-06-09T07:32:55.160Z</time>
      </trkpt>
      <trkpt lat="37.45582" lon="-4.42794667">
        <ele>493.0</ele>
        <time>2018-06-09T07:32:56.157Z</time>
      </trkpt>
      <trkpt lat="37.45590833" lon="-4.42785667">
        <ele>493.0</ele>
        <time>2018-06-09T07:32:57.196Z</time>
      </trkpt>
      <trkpt lat="37.45595167" lon="-4.42781167">
        <ele>493.0</ele>
        <time>2018-06-09T07:32:58.173Z</time>
      </trkpt>
      <trkpt lat="37.45595167" lon="-4.42781167">
        <ele>493.0</ele>
        <time>2018-06-09T07:32:59.159Z</time>
      </trkpt>
      <trkpt lat="37.45603833" lon="-4.42771667">
        <ele>493.0</ele>
        <time>2018-06-09T07:33:00.159Z</time>
      </trkpt>
      <trkpt lat="37.45608" lon="-4.427665">
        <ele>493.0</ele>
        <time>2018-06-09T07:33:01.161Z</time>
      </trkpt>
      <trkpt lat="37.45608" lon="-4.427665">
        <ele>493.0</ele>
        <time>2018-06-09T07:33:02.194Z</time>
      </trkpt>
      <trkpt lat="37.456165" lon="-4.427565">
        <ele>493.0</ele>
        <time>2018-06-09T07:33:03.173Z</time>
      </trkpt>
      <trkpt lat="37.456165" lon="-4.427565">
        <ele>493.0</ele>
        <time>2018-06-09T07:33:04.196Z</time>
      </trkpt>
      <trkpt lat="37.45624833" lon="-4.42746">
        <ele>493.0</ele>
        <time>2018-06-09T07:33:05.175Z</time>
      </trkpt>
      <trkpt lat="37.45624833" lon="-4.42746">
        <ele>493.0</ele>
        <time>2018-06-09T07:33:06.158Z</time>
      </trkpt>
      <trkpt lat="37.45633167" lon="-4.42735167">
        <ele>492.0</ele>
        <time>2018-06-09T07:33:07.194Z</time>
      </trkpt>
      <trkpt lat="37.45637167" lon="-4.42729667">
        <ele>492.0</ele>
        <time>2018-06-09T07:33:08.174Z</time>
      </trkpt>
      <trkpt lat="37.45637167" lon="-4.42729667">
        <ele>492.0</ele>
        <time>2018-06-09T07:33:09.194Z</time>
      </trkpt>
      <trkpt lat="37.45645" lon="-4.427185">
        <ele>492.0</ele>
        <time>2018-06-09T07:33:10.174Z</time>
      </trkpt>
      <trkpt lat="37.45645" lon="-4.427185">
        <ele>492.0</ele>
        <time>2018-06-09T07:33:11.161Z</time>
      </trkpt>
      <trkpt lat="37.45653167" lon="-4.42706833">
        <ele>492.0</ele>
        <time>2018-06-09T07:33:12.159Z</time>
      </trkpt>
      <trkpt lat="37.45657167" lon="-4.42701167">
        <ele>492.0</ele>
        <time>2018-06-09T07:33:13.175Z</time>
      </trkpt>
      <trkpt lat="37.45657167" lon="-4.42701167">
        <ele>492.0</ele>
        <time>2018-06-09T07:33:14.196Z</time>
      </trkpt>
      <trkpt lat="37.45665833" lon="-4.426905">
        <ele>492.0</ele>
        <time>2018-06-09T07:33:15.158Z</time>
      </trkpt>
      <trkpt lat="37.45670167" lon="-4.42685167">
        <ele>492.0</ele>
        <time>2018-06-09T07:33:16.159Z</time>
      </trkpt>
      <trkpt lat="37.45674167" lon="-4.42679833">
        <ele>492.0</ele>
        <time>2018-06-09T07:33:17.161Z</time>
      </trkpt>
      <trkpt lat="37.45674167" lon="-4.42679833">
        <ele>492.0</ele>
        <time>2018-06-09T07:33:18.157Z</time>
      </trkpt>
      <trkpt lat="37.456825" lon="-4.426695">
        <ele>492.0</ele>
        <time>2018-06-09T07:33:19.161Z</time>
      </trkpt>
      <trkpt lat="37.456825" lon="-4.426695">
        <ele>492.0</ele>
        <time>2018-06-09T07:33:20.196Z</time>
      </trkpt>
      <trkpt lat="37.45690667" lon="-4.42658833">
        <ele>492.0</ele>
        <time>2018-06-09T07:33:21.195Z</time>
      </trkpt>
      <trkpt lat="37.45694667" lon="-4.42653667">
        <ele>492.0</ele>
        <time>2018-06-09T07:33:22.158Z</time>
      </trkpt>
      <trkpt lat="37.45694667" lon="-4.42653667">
        <ele>492.0</ele>
        <time>2018-06-09T07:33:23.196Z</time>
      </trkpt>
      <trkpt lat="37.457005" lon="-4.42641">
        <ele>491.0</ele>
        <time>2018-06-09T07:33:24.161Z</time>
      </trkpt>
      <trkpt lat="37.45704667" lon="-4.42635667">
        <ele>491.0</ele>
        <time>2018-06-09T07:33:25.160Z</time>
      </trkpt>
      <trkpt lat="37.45704667" lon="-4.42635667">
        <ele>491.0</ele>
        <time>2018-06-09T07:33:26.175Z</time>
      </trkpt>
      <trkpt lat="37.45714" lon="-4.42625833">
        <ele>491.0</ele>
        <time>2018-06-09T07:33:27.163Z</time>
      </trkpt>
      <trkpt lat="37.45714" lon="-4.42625833">
        <ele>491.0</ele>
        <time>2018-06-09T07:33:28.168Z</time>
      </trkpt>
      <trkpt lat="37.45723167" lon="-4.42615833">
        <ele>491.0</ele>
        <time>2018-06-09T07:33:29.161Z</time>
      </trkpt>
      <trkpt lat="37.45723167" lon="-4.42615833">
        <ele>491.0</ele>
        <time>2018-06-09T07:33:30.157Z</time>
      </trkpt>
      <trkpt lat="37.45732" lon="-4.42606333">
        <ele>492.0</ele>
        <time>2018-06-09T07:33:31.160Z</time>
      </trkpt>
      <trkpt lat="37.45732" lon="-4.42606333">
        <ele>492.0</ele>
        <time>2018-06-09T07:33:32.157Z</time>
      </trkpt>
      <trkpt lat="37.457415" lon="-4.425975">
        <ele>492.0</ele>
        <time>2018-06-09T07:33:33.160Z</time>
      </trkpt>
      <trkpt lat="37.457415" lon="-4.425975">
        <ele>492.0</ele>
        <time>2018-06-09T07:33:34.157Z</time>
      </trkpt>
      <trkpt lat="37.45751" lon="-4.42589833">
        <ele>492.0</ele>
        <time>2018-06-09T07:33:35.161Z</time>
      </trkpt>
      <trkpt lat="37.45751" lon="-4.42589833">
        <ele>492.0</ele>
        <time>2018-06-09T07:33:36.157Z</time>
      </trkpt>
      <trkpt lat="37.457605" lon="-4.42581333">
        <ele>492.0</ele>
        <time>2018-06-09T07:33:37.160Z</time>
      </trkpt>
      <trkpt lat="37.457605" lon="-4.42581333">
        <ele>492.0</ele>
        <time>2018-06-09T07:33:38.196Z</time>
      </trkpt>
      <trkpt lat="37.45769833" lon="-4.42573">
        <ele>492.0</ele>
        <time>2018-06-09T07:33:39.158Z</time>
      </trkpt>
      <trkpt lat="37.45769833" lon="-4.42573">
        <ele>492.0</ele>
        <time>2018-06-09T07:33:40.175Z</time>
      </trkpt>
      <trkpt lat="37.45779" lon="-4.42564667">
        <ele>492.0</ele>
        <time>2018-06-09T07:33:41.161Z</time>
      </trkpt>
      <trkpt lat="37.45784" lon="-4.42561">
        <ele>492.0</ele>
        <time>2018-06-09T07:33:42.160Z</time>
      </trkpt>
      <trkpt lat="37.45784" lon="-4.42561">
        <ele>492.0</ele>
        <time>2018-06-09T07:33:43.158Z</time>
      </trkpt>
      <trkpt lat="37.45794333" lon="-4.42554167">
        <ele>492.0</ele>
        <time>2018-06-09T07:33:44.179Z</time>
      </trkpt>
      <trkpt lat="37.45794333" lon="-4.42554167">
        <ele>492.0</ele>
        <time>2018-06-09T07:33:45.161Z</time>
      </trkpt>
      <trkpt lat="37.45805" lon="-4.42547333">
        <ele>492.0</ele>
        <time>2018-06-09T07:33:46.159Z</time>
      </trkpt>
      <trkpt lat="37.45810333" lon="-4.42544167">
        <ele>492.0</ele>
        <time>2018-06-09T07:33:47.173Z</time>
      </trkpt>
      <trkpt lat="37.45810333" lon="-4.42544167">
        <ele>492.0</ele>
        <time>2018-06-09T07:33:48.157Z</time>
      </trkpt>
      <trkpt lat="37.45821167" lon="-4.42538333">
        <ele>492.0</ele>
        <time>2018-06-09T07:33:49.160Z</time>
      </trkpt>
      <trkpt lat="37.45821167" lon="-4.42538333">
        <ele>492.0</ele>
        <time>2018-06-09T07:33:50.194Z</time>
      </trkpt>
      <trkpt lat="37.45832333" lon="-4.42532667">
        <ele>492.0</ele>
        <time>2018-06-09T07:33:51.175Z</time>
      </trkpt>
      <trkpt lat="37.45832333" lon="-4.42532667">
        <ele>492.0</ele>
        <time>2018-06-09T07:33:52.157Z</time>
      </trkpt>
      <trkpt lat="37.45843333" lon="-4.42527667">
        <ele>492.0</ele>
        <time>2018-06-09T07:33:53.175Z</time>
      </trkpt>
      <trkpt lat="37.45843333" lon="-4.42527667">
        <ele>492.0</ele>
        <time>2018-06-09T07:33:54.193Z</time>
      </trkpt>
      <trkpt lat="37.45854667" lon="-4.42522667">
        <ele>492.0</ele>
        <time>2018-06-09T07:33:55.174Z</time>
      </trkpt>
      <trkpt lat="37.45854667" lon="-4.42522667">
        <ele>492.0</ele>
        <time>2018-06-09T07:33:56.157Z</time>
      </trkpt>
      <trkpt lat="37.45866167" lon="-4.42518">
        <ele>493.0</ele>
        <time>2018-06-09T07:33:57.158Z</time>
      </trkpt>
      <trkpt lat="37.45866167" lon="-4.42518">
        <ele>493.0</ele>
        <time>2018-06-09T07:33:58.176Z</time>
      </trkpt>
      <trkpt lat="37.45877667" lon="-4.42514667">
        <ele>493.0</ele>
        <time>2018-06-09T07:33:59.161Z</time>
      </trkpt>
      <trkpt lat="37.45877667" lon="-4.42514667">
        <ele>493.0</ele>
        <time>2018-06-09T07:34:00.157Z</time>
      </trkpt>
      <trkpt lat="37.45889167" lon="-4.42511167">
        <ele>493.0</ele>
        <time>2018-06-09T07:34:01.160Z</time>
      </trkpt>
      <trkpt lat="37.45889167" lon="-4.42511167">
        <ele>493.0</ele>
        <time>2018-06-09T07:34:02.157Z</time>
      </trkpt>
      <trkpt lat="37.45900667" lon="-4.42508">
        <ele>493.0</ele>
        <time>2018-06-09T07:34:03.159Z</time>
      </trkpt>
      <trkpt lat="37.45900667" lon="-4.42508">
        <ele>493.0</ele>
        <time>2018-06-09T07:34:04.157Z</time>
      </trkpt>
      <trkpt lat="37.45911833" lon="-4.42505167">
        <ele>493.0</ele>
        <time>2018-06-09T07:34:05.177Z</time>
      </trkpt>
      <trkpt lat="37.45911833" lon="-4.42505167">
        <ele>493.0</ele>
        <time>2018-06-09T07:34:06.157Z</time>
      </trkpt>
      <trkpt lat="37.45923" lon="-4.425025">
        <ele>493.0</ele>
        <time>2018-06-09T07:34:07.158Z</time>
      </trkpt>
      <trkpt lat="37.45928667" lon="-4.42501333">
        <ele>493.0</ele>
        <time>2018-06-09T07:34:08.173Z</time>
      </trkpt>
      <trkpt lat="37.45934" lon="-4.425">
        <ele>493.0</ele>
        <time>2018-06-09T07:34:09.160Z</time>
      </trkpt>
      <trkpt lat="37.45934" lon="-4.425">
        <ele>493.0</ele>
        <time>2018-06-09T07:34:10.194Z</time>
      </trkpt>
      <trkpt lat="37.45945" lon="-4.42497333">
        <ele>493.0</ele>
        <time>2018-06-09T07:34:11.173Z</time>
      </trkpt>
      <trkpt lat="37.45945" lon="-4.42497333">
        <ele>493.0</ele>
        <time>2018-06-09T07:34:12.169Z</time>
      </trkpt>
      <trkpt lat="37.45956" lon="-4.424945">
        <ele>493.0</ele>
        <time>2018-06-09T07:34:13.157Z</time>
      </trkpt>
      <trkpt lat="37.45956" lon="-4.424945">
        <ele>493.0</ele>
        <time>2018-06-09T07:34:14.174Z</time>
      </trkpt>
      <trkpt lat="37.45967" lon="-4.42491667">
        <ele>493.0</ele>
        <time>2018-06-09T07:34:15.159Z</time>
      </trkpt>
      <trkpt lat="37.459725" lon="-4.42490167">
        <ele>493.0</ele>
        <time>2018-06-09T07:34:16.175Z</time>
      </trkpt>
      <trkpt lat="37.459725" lon="-4.42490167">
        <ele>493.0</ele>
        <time>2018-06-09T07:34:17.158Z</time>
      </trkpt>
      <trkpt lat="37.45983667" lon="-4.424875">
        <ele>493.0</ele>
        <time>2018-06-09T07:34:18.159Z</time>
      </trkpt>
      <trkpt lat="37.45989167" lon="-4.42486">
        <ele>493.0</ele>
        <time>2018-06-09T07:34:19.159Z</time>
      </trkpt>
      <trkpt lat="37.45989167" lon="-4.42486">
        <ele>493.0</ele>
        <time>2018-06-09T07:34:20.175Z</time>
      </trkpt>
      <trkpt lat="37.46000167" lon="-4.42483167">
        <ele>493.0</ele>
        <time>2018-06-09T07:34:21.158Z</time>
      </trkpt>
      <trkpt lat="37.46000167" lon="-4.42483167">
        <ele>493.0</ele>
        <time>2018-06-09T07:34:22.190Z</time>
      </trkpt>
      <trkpt lat="37.46011167" lon="-4.42479333">
        <ele>493.0</ele>
        <time>2018-06-09T07:34:23.161Z</time>
      </trkpt>
      <trkpt lat="37.46011167" lon="-4.42479333">
        <ele>493.0</ele>
        <time>2018-06-09T07:34:24.197Z</time>
      </trkpt>
      <trkpt lat="37.46022167" lon="-4.424755">
        <ele>493.0</ele>
        <time>2018-06-09T07:34:25.160Z</time>
      </trkpt>
      <trkpt lat="37.46022167" lon="-4.424755">
        <ele>493.0</ele>
        <time>2018-06-09T07:34:26.176Z</time>
      </trkpt>
      <trkpt lat="37.46033" lon="-4.424715">
        <ele>493.0</ele>
        <time>2018-06-09T07:34:27.159Z</time>
      </trkpt>
      <trkpt lat="37.46033" lon="-4.424715">
        <ele>493.0</ele>
        <time>2018-06-09T07:34:28.176Z</time>
      </trkpt>
      <trkpt lat="37.46043667" lon="-4.42466667">
        <ele>493.0</ele>
        <time>2018-06-09T07:34:29.171Z</time>
      </trkpt>
      <trkpt lat="37.46043667" lon="-4.42466667">
        <ele>493.0</ele>
        <time>2018-06-09T07:34:30.158Z</time>
      </trkpt>
      <trkpt lat="37.46054333" lon="-4.42461333">
        <ele>493.0</ele>
        <time>2018-06-09T07:34:31.161Z</time>
      </trkpt>
      <trkpt lat="37.46054333" lon="-4.42461333">
        <ele>493.0</ele>
        <time>2018-06-09T07:34:32.191Z</time>
      </trkpt>
      <trkpt lat="37.46065" lon="-4.42456167">
        <ele>492.0</ele>
        <time>2018-06-09T07:34:33.173Z</time>
      </trkpt>
      <trkpt lat="37.46070333" lon="-4.42453333">
        <ele>492.0</ele>
        <time>2018-06-09T07:34:34.158Z</time>
      </trkpt>
      <trkpt lat="37.46070333" lon="-4.42453333">
        <ele>492.0</ele>
        <time>2018-06-09T07:34:35.175Z</time>
      </trkpt>
      <trkpt lat="37.46080833" lon="-4.42447333">
        <ele>492.0</ele>
        <time>2018-06-09T07:34:36.160Z</time>
      </trkpt>
      <trkpt lat="37.46085833" lon="-4.42444">
        <ele>492.0</ele>
        <time>2018-06-09T07:34:37.160Z</time>
      </trkpt>
      <trkpt lat="37.46085833" lon="-4.42444">
        <ele>492.0</ele>
        <time>2018-06-09T07:34:38.194Z</time>
      </trkpt>
      <trkpt lat="37.46095833" lon="-4.42437167">
        <ele>492.0</ele>
        <time>2018-06-09T07:34:39.175Z</time>
      </trkpt>
      <trkpt lat="37.46100667" lon="-4.42433667">
        <ele>492.0</ele>
        <time>2018-06-09T07:34:40.160Z</time>
      </trkpt>
      <trkpt lat="37.46105333" lon="-4.4243">
        <ele>492.0</ele>
        <time>2018-06-09T07:34:41.177Z</time>
      </trkpt>
      <trkpt lat="37.46105333" lon="-4.4243">
        <ele>492.0</ele>
        <time>2018-06-09T07:34:42.162Z</time>
      </trkpt>
      <trkpt lat="37.461145" lon="-4.42423167">
        <ele>492.0</ele>
        <time>2018-06-09T07:34:43.160Z</time>
      </trkpt>
      <trkpt lat="37.461145" lon="-4.42423167">
        <ele>492.0</ele>
        <time>2018-06-09T07:34:44.176Z</time>
      </trkpt>
      <trkpt lat="37.46123" lon="-4.42417333">
        <ele>492.0</ele>
        <time>2018-06-09T07:34:45.160Z</time>
      </trkpt>
      <trkpt lat="37.46126333" lon="-4.42414833">
        <ele>492.0</ele>
        <time>2018-06-09T07:34:46.175Z</time>
      </trkpt>
      <trkpt lat="37.46126333" lon="-4.42414833">
        <ele>492.0</ele>
        <time>2018-06-09T07:34:47.162Z</time>
      </trkpt>
      <trkpt lat="37.46131167" lon="-4.424105">
        <ele>492.0</ele>
        <time>2018-06-09T07:34:48.177Z</time>
      </trkpt>
      <trkpt lat="37.46132667" lon="-4.42409167">
        <ele>492.0</ele>
        <time>2018-06-09T07:34:49.158Z</time>
      </trkpt>
      <trkpt lat="37.46132667" lon="-4.42409167">
        <ele>492.0</ele>
        <time>2018-06-09T07:34:50.157Z</time>
      </trkpt>
      <trkpt lat="37.46134667" lon="-4.42407333">
        <ele>492.0</ele>
        <time>2018-06-09T07:34:51.172Z</time>
      </trkpt>
      <trkpt lat="37.46134667" lon="-4.42407333">
        <ele>492.0</ele>
        <time>2018-06-09T07:34:52.161Z</time>
      </trkpt>
      <trkpt lat="37.46136833" lon="-4.42406">
        <ele>492.0</ele>
        <time>2018-06-09T07:34:53.162Z</time>
      </trkpt>
      <trkpt lat="37.46136833" lon="-4.42406">
        <ele>492.0</ele>
        <time>2018-06-09T07:34:54.157Z</time>
      </trkpt>
      <trkpt lat="37.46138667" lon="-4.42404667">
        <ele>492.0</ele>
        <time>2018-06-09T07:34:55.158Z</time>
      </trkpt>
      <trkpt lat="37.46138667" lon="-4.42404667">
        <ele>492.0</ele>
        <time>2018-06-09T07:34:56.158Z</time>
      </trkpt>
      <trkpt lat="37.46140833" lon="-4.42403333">
        <ele>492.0</ele>
        <time>2018-06-09T07:34:57.157Z</time>
      </trkpt>
      <trkpt lat="37.46140833" lon="-4.42403333">
        <ele>492.0</ele>
        <time>2018-06-09T07:34:58.194Z</time>
      </trkpt>
      <trkpt lat="37.461425" lon="-4.42400833">
        <ele>493.0</ele>
        <time>2018-06-09T07:34:59.173Z</time>
      </trkpt>
      <trkpt lat="37.461425" lon="-4.42400833">
        <ele>493.0</ele>
        <time>2018-06-09T07:35:00.158Z</time>
      </trkpt>
      <trkpt lat="37.46144333" lon="-4.42398667">
        <ele>493.0</ele>
        <time>2018-06-09T07:35:01.157Z</time>
      </trkpt>
      <trkpt lat="37.46144333" lon="-4.42398667">
        <ele>493.0</ele>
        <time>2018-06-09T07:35:02.181Z</time>
      </trkpt>
      <trkpt lat="37.46146" lon="-4.42396833">
        <ele>493.0</ele>
        <time>2018-06-09T07:35:03.158Z</time>
      </trkpt>
      <trkpt lat="37.46146" lon="-4.42396833">
        <ele>493.0</ele>
        <time>2018-06-09T07:35:04.179Z</time>
      </trkpt>
      <trkpt lat="37.46148" lon="-4.42394667">
        <ele>493.0</ele>
        <time>2018-06-09T07:35:05.161Z</time>
      </trkpt>
      <trkpt lat="37.46148" lon="-4.42394667">
        <ele>493.0</ele>
        <time>2018-06-09T07:35:06.158Z</time>
      </trkpt>
      <trkpt lat="37.46149833" lon="-4.42392667">
        <ele>493.0</ele>
        <time>2018-06-09T07:35:07.160Z</time>
      </trkpt>
      <trkpt lat="37.46149833" lon="-4.42392667">
        <ele>493.0</ele>
        <time>2018-06-09T07:35:08.176Z</time>
      </trkpt>
      <trkpt lat="37.46151833" lon="-4.423905">
        <ele>492.0</ele>
        <time>2018-06-09T07:35:09.160Z</time>
      </trkpt>
      <trkpt lat="37.46153" lon="-4.42389667">
        <ele>492.0</ele>
        <time>2018-06-09T07:35:10.160Z</time>
      </trkpt>
      <trkpt lat="37.46154167" lon="-4.42388833">
        <ele>492.0</ele>
        <time>2018-06-09T07:35:11.162Z</time>
      </trkpt>
      <trkpt lat="37.46154167" lon="-4.42388833">
        <ele>492.0</ele>
        <time>2018-06-09T07:35:12.161Z</time>
      </trkpt>
      <trkpt lat="37.46156167" lon="-4.42386667">
        <ele>492.0</ele>
        <time>2018-06-09T07:35:13.160Z</time>
      </trkpt>
      <trkpt lat="37.46156167" lon="-4.42386667">
        <ele>492.0</ele>
        <time>2018-06-09T07:35:14.157Z</time>
      </trkpt>
      <trkpt lat="37.461585" lon="-4.42384333">
        <ele>492.0</ele>
        <time>2018-06-09T07:35:15.160Z</time>
      </trkpt>
      <trkpt lat="37.46159667" lon="-4.42383167">
        <ele>492.0</ele>
        <time>2018-06-09T07:35:16.160Z</time>
      </trkpt>
      <trkpt lat="37.46159667" lon="-4.42383167">
        <ele>492.0</ele>
        <time>2018-06-09T07:35:17.159Z</time>
      </trkpt>
      <trkpt lat="37.46162" lon="-4.423815">
        <ele>492.0</ele>
        <time>2018-06-09T07:35:18.159Z</time>
      </trkpt>
      <trkpt lat="37.46163167" lon="-4.42380333">
        <ele>492.0</ele>
        <time>2018-06-09T07:35:19.160Z</time>
      </trkpt>
      <trkpt lat="37.46163167" lon="-4.42380333">
        <ele>492.0</ele>
        <time>2018-06-09T07:35:20.195Z</time>
      </trkpt>
      <trkpt lat="37.46165833" lon="-4.42377833">
        <ele>492.0</ele>
        <time>2018-06-09T07:35:21.174Z</time>
      </trkpt>
      <trkpt lat="37.46165833" lon="-4.42377833">
        <ele>492.0</ele>
        <time>2018-06-09T07:35:22.157Z</time>
      </trkpt>
      <trkpt lat="37.46167833" lon="-4.42375">
        <ele>492.0</ele>
        <time>2018-06-09T07:35:23.160Z</time>
      </trkpt>
      <trkpt lat="37.46167833" lon="-4.42375">
        <ele>492.0</ele>
        <time>2018-06-09T07:35:24.158Z</time>
      </trkpt>
      <trkpt lat="37.46169667" lon="-4.42372833">
        <ele>492.0</ele>
        <time>2018-06-09T07:35:25.168Z</time>
      </trkpt>
      <trkpt lat="37.46169667" lon="-4.42372833">
        <ele>492.0</ele>
        <time>2018-06-09T07:35:26.195Z</time>
      </trkpt>
      <trkpt lat="37.461715" lon="-4.423705">
        <ele>492.0</ele>
        <time>2018-06-09T07:35:27.175Z</time>
      </trkpt>
      <trkpt lat="37.461715" lon="-4.423705">
        <ele>492.0</ele>
        <time>2018-06-09T07:35:28.178Z</time>
      </trkpt>
      <trkpt lat="37.46173833" lon="-4.42368167">
        <ele>492.0</ele>
        <time>2018-06-09T07:35:29.160Z</time>
      </trkpt>
      <trkpt lat="37.46173833" lon="-4.42368167">
        <ele>492.0</ele>
        <time>2018-06-09T07:35:30.196Z</time>
      </trkpt>
      <trkpt lat="37.46176833" lon="-4.42366667">
        <ele>493.0</ele>
        <time>2018-06-09T07:35:31.176Z</time>
      </trkpt>
      <trkpt lat="37.46176833" lon="-4.42366667">
        <ele>493.0</ele>
        <time>2018-06-09T07:35:32.157Z</time>
      </trkpt>
      <trkpt lat="37.46179333" lon="-4.42364667">
        <ele>492.0</ele>
        <time>2018-06-09T07:35:33.161Z</time>
      </trkpt>
      <trkpt lat="37.46180333" lon="-4.42363667">
        <ele>492.0</ele>
        <time>2018-06-09T07:35:34.160Z</time>
      </trkpt>
      <trkpt lat="37.46180333" lon="-4.42363667">
        <ele>492.0</ele>
        <time>2018-06-09T07:35:35.196Z</time>
      </trkpt>
      <trkpt lat="37.46182333" lon="-4.42362">
        <ele>492.0</ele>
        <time>2018-06-09T07:35:36.159Z</time>
      </trkpt>
      <trkpt lat="37.46183333" lon="-4.42361">
        <ele>492.0</ele>
        <time>2018-06-09T07:35:37.161Z</time>
      </trkpt>
      <trkpt lat="37.46183333" lon="-4.42361">
        <ele>492.0</ele>
        <time>2018-06-09T07:35:38.158Z</time>
      </trkpt>
      <trkpt lat="37.461855" lon="-4.42358833">
        <ele>492.0</ele>
        <time>2018-06-09T07:35:39.160Z</time>
      </trkpt>
      <trkpt lat="37.46186667" lon="-4.423575">
        <ele>492.0</ele>
        <time>2018-06-09T07:35:40.160Z</time>
      </trkpt>
      <trkpt lat="37.46186667" lon="-4.423575">
        <ele>492.0</ele>
        <time>2018-06-09T07:35:41.176Z</time>
      </trkpt>
      <trkpt lat="37.46189" lon="-4.42355">
        <ele>492.0</ele>
        <time>2018-06-09T07:35:42.160Z</time>
      </trkpt>
      <trkpt lat="37.46190167" lon="-4.42353667">
        <ele>492.0</ele>
        <time>2018-06-09T07:35:43.161Z</time>
      </trkpt>
      <trkpt lat="37.46190167" lon="-4.42353667">
        <ele>492.0</ele>
        <time>2018-06-09T07:35:44.158Z</time>
      </trkpt>
      <trkpt lat="37.46193667" lon="-4.42352">
        <ele>492.0</ele>
        <time>2018-06-09T07:35:45.160Z</time>
      </trkpt>
      <trkpt lat="37.46193667" lon="-4.42352">
        <ele>492.0</ele>
        <time>2018-06-09T07:35:46.161Z</time>
      </trkpt>
      <trkpt lat="37.46197333" lon="-4.42349833">
        <ele>492.0</ele>
        <time>2018-06-09T07:35:47.162Z</time>
      </trkpt>
      <trkpt lat="37.46198333" lon="-4.42348333">
        <ele>493.0</ele>
        <time>2018-06-09T07:35:48.162Z</time>
      </trkpt>
      <trkpt lat="37.46198333" lon="-4.42348333">
        <ele>493.0</ele>
        <time>2018-06-09T07:35:49.158Z</time>
      </trkpt>
      <trkpt lat="37.46200667" lon="-4.423455">
        <ele>493.0</ele>
        <time>2018-06-09T07:35:50.160Z</time>
      </trkpt>
      <trkpt lat="37.46200667" lon="-4.423455">
        <ele>493.0</ele>
        <time>2018-06-09T07:35:51.195Z</time>
      </trkpt>
      <trkpt lat="37.46204" lon="-4.42343833">
        <ele>493.0</ele>
        <time>2018-06-09T07:35:52.174Z</time>
      </trkpt>
      <trkpt lat="37.46205167" lon="-4.42342667">
        <ele>493.0</ele>
        <time>2018-06-09T07:35:53.162Z</time>
      </trkpt>
      <trkpt lat="37.46205167" lon="-4.42342667">
        <ele>493.0</ele>
        <time>2018-06-09T07:35:54.180Z</time>
      </trkpt>
      <trkpt lat="37.462075" lon="-4.42340333">
        <ele>493.0</ele>
        <time>2018-06-09T07:35:55.162Z</time>
      </trkpt>
      <trkpt lat="37.462075" lon="-4.42340333">
        <ele>493.0</ele>
        <time>2018-06-09T07:35:56.195Z</time>
      </trkpt>
      <trkpt lat="37.4621" lon="-4.42338167">
        <ele>493.0</ele>
        <time>2018-06-09T07:35:57.175Z</time>
      </trkpt>
      <trkpt lat="37.4621" lon="-4.42338167">
        <ele>493.0</ele>
        <time>2018-06-09T07:35:58.160Z</time>
      </trkpt>
      <trkpt lat="37.46212667" lon="-4.42336">
        <ele>493.0</ele>
        <time>2018-06-09T07:35:59.181Z</time>
      </trkpt>
      <trkpt lat="37.46212667" lon="-4.42336">
        <ele>493.0</ele>
        <time>2018-06-09T07:36:00.162Z</time>
      </trkpt>
      <trkpt lat="37.46215167" lon="-4.42334167">
        <ele>492.0</ele>
        <time>2018-06-09T07:36:01.158Z</time>
      </trkpt>
      <trkpt lat="37.46215167" lon="-4.42334167">
        <ele>492.0</ele>
        <time>2018-06-09T07:36:02.195Z</time>
      </trkpt>
      <trkpt lat="37.46217833" lon="-4.42331333">
        <ele>492.0</ele>
        <time>2018-06-09T07:36:03.158Z</time>
      </trkpt>
      <trkpt lat="37.46217833" lon="-4.42331333">
        <ele>492.0</ele>
        <time>2018-06-09T07:36:04.181Z</time>
      </trkpt>
      <trkpt lat="37.46221167" lon="-4.423285">
        <ele>492.0</ele>
        <time>2018-06-09T07:36:05.172Z</time>
      </trkpt>
      <trkpt lat="37.46221167" lon="-4.423285">
        <ele>492.0</ele>
        <time>2018-06-09T07:36:06.196Z</time>
      </trkpt>
      <trkpt lat="37.46223833" lon="-4.42325667">
        <ele>492.0</ele>
        <time>2018-06-09T07:36:07.159Z</time>
      </trkpt>
      <trkpt lat="37.46225" lon="-4.42324333">
        <ele>492.0</ele>
        <time>2018-06-09T07:36:08.161Z</time>
      </trkpt>
      <trkpt lat="37.46225" lon="-4.42324333">
        <ele>492.0</ele>
        <time>2018-06-09T07:36:09.194Z</time>
      </trkpt>
      <trkpt lat="37.46228" lon="-4.42322">
        <ele>492.0</ele>
        <time>2018-06-09T07:36:10.180Z</time>
      </trkpt>
      <trkpt lat="37.462295" lon="-4.423205">
        <ele>492.0</ele>
        <time>2018-06-09T07:36:11.162Z</time>
      </trkpt>
      <trkpt lat="37.46230833" lon="-4.42318667">
        <ele>492.0</ele>
        <time>2018-06-09T07:36:12.158Z</time>
      </trkpt>
      <trkpt lat="37.46230833" lon="-4.42318667">
        <ele>492.0</ele>
        <time>2018-06-09T07:36:13.194Z</time>
      </trkpt>
      <trkpt lat="37.46234" lon="-4.423155">
        <ele>492.0</ele>
        <time>2018-06-09T07:36:14.175Z</time>
      </trkpt>
      <trkpt lat="37.46234" lon="-4.423155">
        <ele>492.0</ele>
        <time>2018-06-09T07:36:15.195Z</time>
      </trkpt>
      <trkpt lat="37.46237667" lon="-4.42312333">
        <ele>492.0</ele>
        <time>2018-06-09T07:36:16.178Z</time>
      </trkpt>
      <trkpt lat="37.46239667" lon="-4.42310333">
        <ele>493.0</ele>
        <time>2018-06-09T07:36:17.162Z</time>
      </trkpt>
      <trkpt lat="37.46239667" lon="-4.42310333">
        <ele>493.0</ele>
        <time>2018-06-09T07:36:18.196Z</time>
      </trkpt>
      <trkpt lat="37.46245167" lon="-4.423055">
        <ele>492.0</ele>
        <time>2018-06-09T07:36:19.174Z</time>
      </trkpt>
      <trkpt lat="37.46245167" lon="-4.423055">
        <ele>492.0</ele>
        <time>2018-06-09T07:36:20.157Z</time>
      </trkpt>
      <trkpt lat="37.46251833" lon="-4.423">
        <ele>492.0</ele>
        <time>2018-06-09T07:36:21.159Z</time>
      </trkpt>
      <trkpt lat="37.46251833" lon="-4.423">
        <ele>492.0</ele>
        <time>2018-06-09T07:36:22.157Z</time>
      </trkpt>
      <trkpt lat="37.4626" lon="-4.42294667">
        <ele>493.0</ele>
        <time>2018-06-09T07:36:23.194Z</time>
      </trkpt>
      <trkpt lat="37.462645" lon="-4.42292">
        <ele>493.0</ele>
        <time>2018-06-09T07:36:24.180Z</time>
      </trkpt>
      <trkpt lat="37.46269" lon="-4.42289">
        <ele>493.0</ele>
        <time>2018-06-09T07:36:25.163Z</time>
      </trkpt>
      <trkpt lat="37.46269" lon="-4.42289">
        <ele>493.0</ele>
        <time>2018-06-09T07:36:26.192Z</time>
      </trkpt>
      <trkpt lat="37.46278667" lon="-4.42282333">
        <ele>493.0</ele>
        <time>2018-06-09T07:36:27.181Z</time>
      </trkpt>
      <trkpt lat="37.462835" lon="-4.42279">
        <ele>493.0</ele>
        <time>2018-06-09T07:36:28.158Z</time>
      </trkpt>
      <trkpt lat="37.462885" lon="-4.42275667">
        <ele>493.0</ele>
        <time>2018-06-09T07:36:29.180Z</time>
      </trkpt>
      <trkpt lat="37.462885" lon="-4.42275667">
        <ele>493.0</ele>
        <time>2018-06-09T07:36:30.164Z</time>
      </trkpt>
      <trkpt lat="37.462985" lon="-4.42269333">
        <ele>493.0</ele>
        <time>2018-06-09T07:36:31.161Z</time>
      </trkpt>
      <trkpt lat="37.462985" lon="-4.42269333">
        <ele>493.0</ele>
        <time>2018-06-09T07:36:32.158Z</time>
      </trkpt>
      <trkpt lat="37.46308667" lon="-4.422635">
        <ele>493.0</ele>
        <time>2018-06-09T07:36:33.164Z</time>
      </trkpt>
      <trkpt lat="37.46313833" lon="-4.42260667">
        <ele>493.0</ele>
        <time>2018-06-09T07:36:34.159Z</time>
      </trkpt>
      <trkpt lat="37.46319" lon="-4.42257833">
        <ele>493.0</ele>
        <time>2018-06-09T07:36:35.176Z</time>
      </trkpt>
      <trkpt lat="37.46319" lon="-4.42257833">
        <ele>493.0</ele>
        <time>2018-06-09T07:36:36.159Z</time>
      </trkpt>
      <trkpt lat="37.463295" lon="-4.422525">
        <ele>493.0</ele>
        <time>2018-06-09T07:36:37.161Z</time>
      </trkpt>
      <trkpt lat="37.463295" lon="-4.422525">
        <ele>493.0</ele>
        <time>2018-06-09T07:36:38.158Z</time>
      </trkpt>
      <trkpt lat="37.4634" lon="-4.42248">
        <ele>493.0</ele>
        <time>2018-06-09T07:36:39.160Z</time>
      </trkpt>
      <trkpt lat="37.4634" lon="-4.42248">
        <ele>493.0</ele>
        <time>2018-06-09T07:36:40.158Z</time>
      </trkpt>
      <trkpt lat="37.46349833" lon="-4.42243833">
        <ele>494.0</ele>
        <time>2018-06-09T07:36:41.159Z</time>
      </trkpt>
      <trkpt lat="37.46349833" lon="-4.42243833">
        <ele>494.0</ele>
        <time>2018-06-09T07:36:42.158Z</time>
      </trkpt>
      <trkpt lat="37.46359833" lon="-4.42240667">
        <ele>494.0</ele>
        <time>2018-06-09T07:36:43.164Z</time>
      </trkpt>
      <trkpt lat="37.46359833" lon="-4.42240667">
        <ele>494.0</ele>
        <time>2018-06-09T07:36:44.157Z</time>
      </trkpt>
      <trkpt lat="37.463695" lon="-4.42237667">
        <ele>494.0</ele>
        <time>2018-06-09T07:36:45.161Z</time>
      </trkpt>
      <trkpt lat="37.46374167" lon="-4.42236">
        <ele>494.0</ele>
        <time>2018-06-09T07:36:46.161Z</time>
      </trkpt>
      <trkpt lat="37.46374167" lon="-4.42236">
        <ele>494.0</ele>
        <time>2018-06-09T07:36:47.168Z</time>
      </trkpt>
      <trkpt lat="37.46383667" lon="-4.42233167">
        <ele>494.0</ele>
        <time>2018-06-09T07:36:48.169Z</time>
      </trkpt>
      <trkpt lat="37.46383667" lon="-4.42233167">
        <ele>494.0</ele>
        <time>2018-06-09T07:36:49.160Z</time>
      </trkpt>
      <trkpt lat="37.46393333" lon="-4.42230667">
        <ele>494.0</ele>
        <time>2018-06-09T07:36:50.161Z</time>
      </trkpt>
      <trkpt lat="37.46398333" lon="-4.42229667">
        <ele>494.0</ele>
        <time>2018-06-09T07:36:51.160Z</time>
      </trkpt>
      <trkpt lat="37.46398333" lon="-4.42229667">
        <ele>494.0</ele>
        <time>2018-06-09T07:36:52.196Z</time>
      </trkpt>
      <trkpt lat="37.46408167" lon="-4.422275">
        <ele>494.0</ele>
        <time>2018-06-09T07:36:53.181Z</time>
      </trkpt>
      <trkpt lat="37.46408167" lon="-4.422275">
        <ele>494.0</ele>
        <time>2018-06-09T07:36:54.159Z</time>
      </trkpt>
      <trkpt lat="37.46418167" lon="-4.422255">
        <ele>495.0</ele>
        <time>2018-06-09T07:36:55.161Z</time>
      </trkpt>
      <trkpt lat="37.46418167" lon="-4.422255">
        <ele>495.0</ele>
        <time>2018-06-09T07:36:56.157Z</time>
      </trkpt>
      <trkpt lat="37.46428" lon="-4.42224333">
        <ele>495.0</ele>
        <time>2018-06-09T07:36:57.160Z</time>
      </trkpt>
      <trkpt lat="37.46428" lon="-4.42224333">
        <ele>495.0</ele>
        <time>2018-06-09T07:36:58.158Z</time>
      </trkpt>
      <trkpt lat="37.46437833" lon="-4.42223667">
        <ele>495.0</ele>
        <time>2018-06-09T07:36:59.159Z</time>
      </trkpt>
      <trkpt lat="37.46437833" lon="-4.42223667">
        <ele>495.0</ele>
        <time>2018-06-09T07:37:00.196Z</time>
      </trkpt>
      <trkpt lat="37.464475" lon="-4.42222833">
        <ele>496.0</ele>
        <time>2018-06-09T07:37:01.158Z</time>
      </trkpt>
      <trkpt lat="37.464475" lon="-4.42222833">
        <ele>496.0</ele>
        <time>2018-06-09T07:37:02.157Z</time>
      </trkpt>
      <trkpt lat="37.46456333" lon="-4.42222333">
        <ele>496.0</ele>
        <time>2018-06-09T07:37:03.160Z</time>
      </trkpt>
      <trkpt lat="37.46456333" lon="-4.42222333">
        <ele>496.0</ele>
        <time>2018-06-09T07:37:04.158Z</time>
      </trkpt>
      <trkpt lat="37.46465333" lon="-4.42221667">
        <ele>497.0</ele>
        <time>2018-06-09T07:37:05.161Z</time>
      </trkpt>
      <trkpt lat="37.46465333" lon="-4.42221667">
        <ele>497.0</ele>
        <time>2018-06-09T07:37:06.158Z</time>
      </trkpt>
      <trkpt lat="37.46475333" lon="-4.422225">
        <ele>499.0</ele>
        <time>2018-06-09T07:37:07.158Z</time>
      </trkpt>
      <trkpt lat="37.46475333" lon="-4.422225">
        <ele>499.0</ele>
        <time>2018-06-09T07:37:08.195Z</time>
      </trkpt>
      <trkpt lat="37.46485333" lon="-4.42224">
        <ele>500.0</ele>
        <time>2018-06-09T07:37:09.169Z</time>
      </trkpt>
      <trkpt lat="37.46485333" lon="-4.42224">
        <ele>500.0</ele>
        <time>2018-06-09T07:37:10.159Z</time>
      </trkpt>
      <trkpt lat="37.46495333" lon="-4.42225167">
        <ele>502.0</ele>
        <time>2018-06-09T07:37:11.161Z</time>
      </trkpt>
      <trkpt lat="37.46500167" lon="-4.42225333">
        <ele>503.0</ele>
        <time>2018-06-09T07:37:12.177Z</time>
      </trkpt>
      <trkpt lat="37.46504833" lon="-4.42225333">
        <ele>504.0</ele>
        <time>2018-06-09T07:37:13.158Z</time>
      </trkpt>
      <trkpt lat="37.46504833" lon="-4.42225333">
        <ele>504.0</ele>
        <time>2018-06-09T07:37:14.158Z</time>
      </trkpt>
      <trkpt lat="37.46512667" lon="-4.42226333">
        <ele>506.0</ele>
        <time>2018-06-09T07:37:15.160Z</time>
      </trkpt>
      <trkpt lat="37.46512667" lon="-4.42226333">
        <ele>506.0</ele>
        <time>2018-06-09T07:37:16.158Z</time>
      </trkpt>
      <trkpt lat="37.46521" lon="-4.42227333">
        <ele>509.0</ele>
        <time>2018-06-09T07:37:17.159Z</time>
      </trkpt>
      <trkpt lat="37.46521" lon="-4.42227333">
        <ele>509.0</ele>
        <time>2018-06-09T07:37:18.158Z</time>
      </trkpt>
      <trkpt lat="37.4653" lon="-4.42228833">
        <ele>512.0</ele>
        <time>2018-06-09T07:37:19.177Z</time>
      </trkpt>
      <trkpt lat="37.4653" lon="-4.42228833">
        <ele>512.0</ele>
        <time>2018-06-09T07:37:20.158Z</time>
      </trkpt>
      <trkpt lat="37.46539833" lon="-4.42228167">
        <ele>513.0</ele>
        <time>2018-06-09T07:37:21.162Z</time>
      </trkpt>
      <trkpt lat="37.46539833" lon="-4.42228167">
        <ele>513.0</ele>
        <time>2018-06-09T07:37:22.158Z</time>
      </trkpt>
      <trkpt lat="37.46549167" lon="-4.42226833">
        <ele>512.0</ele>
        <time>2018-06-09T07:37:23.162Z</time>
      </trkpt>
      <trkpt lat="37.46549167" lon="-4.42226833">
        <ele>512.0</ele>
        <time>2018-06-09T07:37:24.158Z</time>
      </trkpt>
      <trkpt lat="37.46560167" lon="-4.422265">
        <ele>509.0</ele>
        <time>2018-06-09T07:37:25.159Z</time>
      </trkpt>
      <trkpt lat="37.46560167" lon="-4.422265">
        <ele>509.0</ele>
        <time>2018-06-09T07:37:26.158Z</time>
      </trkpt>
      <trkpt lat="37.465705" lon="-4.42228">
        <ele>507.0</ele>
        <time>2018-06-09T07:37:27.158Z</time>
      </trkpt>
      <trkpt lat="37.465705" lon="-4.42228">
        <ele>507.0</ele>
        <time>2018-06-09T07:37:28.181Z</time>
      </trkpt>
      <trkpt lat="37.46580833" lon="-4.42230167">
        <ele>506.0</ele>
        <time>2018-06-09T07:37:29.161Z</time>
      </trkpt>
      <trkpt lat="37.46580833" lon="-4.42230167">
        <ele>506.0</ele>
        <time>2018-06-09T07:37:30.158Z</time>
      </trkpt>
      <trkpt lat="37.46591167" lon="-4.42233">
        <ele>505.0</ele>
        <time>2018-06-09T07:37:31.161Z</time>
      </trkpt>
      <trkpt lat="37.46591167" lon="-4.42233">
        <ele>505.0</ele>
        <time>2018-06-09T07:37:32.159Z</time>
      </trkpt>
      <trkpt lat="37.46601667" lon="-4.42235833">
        <ele>504.0</ele>
        <time>2018-06-09T07:37:33.171Z</time>
      </trkpt>
      <trkpt lat="37.46601667" lon="-4.42235833">
        <ele>504.0</ele>
        <time>2018-06-09T07:37:34.159Z</time>
      </trkpt>
      <trkpt lat="37.466125" lon="-4.42238667">
        <ele>504.0</ele>
        <time>2018-06-09T07:37:35.162Z</time>
      </trkpt>
      <trkpt lat="37.46617833" lon="-4.42240167">
        <ele>504.0</ele>
        <time>2018-06-09T07:37:36.162Z</time>
      </trkpt>
      <trkpt lat="37.46617833" lon="-4.42240167">
        <ele>504.0</ele>
        <time>2018-06-09T07:37:37.196Z</time>
      </trkpt>
      <trkpt lat="37.46628" lon="-4.42244">
        <ele>503.0</ele>
        <time>2018-06-09T07:37:38.192Z</time>
      </trkpt>
      <trkpt lat="37.46633167" lon="-4.42246">
        <ele>503.0</ele>
        <time>2018-06-09T07:37:39.172Z</time>
      </trkpt>
      <trkpt lat="37.46638333" lon="-4.42248">
        <ele>503.0</ele>
        <time>2018-06-09T07:37:40.160Z</time>
      </trkpt>
      <trkpt lat="37.46638333" lon="-4.42248">
        <ele>503.0</ele>
        <time>2018-06-09T07:37:41.159Z</time>
      </trkpt>
      <trkpt lat="37.46648333" lon="-4.42252167">
        <ele>503.0</ele>
        <time>2018-06-09T07:37:42.161Z</time>
      </trkpt>
      <trkpt lat="37.466535" lon="-4.42254333">
        <ele>503.0</ele>
        <time>2018-06-09T07:37:43.161Z</time>
      </trkpt>
      <trkpt lat="37.466535" lon="-4.42254333">
        <ele>503.0</ele>
        <time>2018-06-09T07:37:44.195Z</time>
      </trkpt>
      <trkpt lat="37.46664167" lon="-4.422585">
        <ele>503.0</ele>
        <time>2018-06-09T07:37:45.174Z</time>
      </trkpt>
      <trkpt lat="37.46664167" lon="-4.422585">
        <ele>503.0</ele>
        <time>2018-06-09T07:37:46.157Z</time>
      </trkpt>
      <trkpt lat="37.46674" lon="-4.42263667">
        <ele>503.0</ele>
        <time>2018-06-09T07:37:47.163Z</time>
      </trkpt>
      <trkpt lat="37.46674" lon="-4.42263667">
        <ele>503.0</ele>
        <time>2018-06-09T07:37:48.165Z</time>
      </trkpt>
      <trkpt lat="37.46683333" lon="-4.42269167">
        <ele>503.0</ele>
        <time>2018-06-09T07:37:49.161Z</time>
      </trkpt>
      <trkpt lat="37.46683333" lon="-4.42269167">
        <ele>503.0</ele>
        <time>2018-06-09T07:37:50.196Z</time>
      </trkpt>
      <trkpt lat="37.466925" lon="-4.42274333">
        <ele>503.0</ele>
        <time>2018-06-09T07:37:51.177Z</time>
      </trkpt>
      <trkpt lat="37.466925" lon="-4.42274333">
        <ele>503.0</ele>
        <time>2018-06-09T07:37:52.158Z</time>
      </trkpt>
      <trkpt lat="37.467015" lon="-4.42279167">
        <ele>503.0</ele>
        <time>2018-06-09T07:37:53.178Z</time>
      </trkpt>
      <trkpt lat="37.467015" lon="-4.42279167">
        <ele>503.0</ele>
        <time>2018-06-09T07:37:54.162Z</time>
      </trkpt>
      <trkpt lat="37.46710167" lon="-4.42284">
        <ele>503.0</ele>
        <time>2018-06-09T07:37:55.162Z</time>
      </trkpt>
      <trkpt lat="37.46710167" lon="-4.42284">
        <ele>503.0</ele>
        <time>2018-06-09T07:37:56.159Z</time>
      </trkpt>
      <trkpt lat="37.46718833" lon="-4.422895">
        <ele>503.0</ele>
        <time>2018-06-09T07:37:57.160Z</time>
      </trkpt>
      <trkpt lat="37.46718833" lon="-4.422895">
        <ele>503.0</ele>
        <time>2018-06-09T07:37:58.176Z</time>
      </trkpt>
      <trkpt lat="37.46727333" lon="-4.42295">
        <ele>503.0</ele>
        <time>2018-06-09T07:37:59.162Z</time>
      </trkpt>
      <trkpt lat="37.46727333" lon="-4.42295">
        <ele>503.0</ele>
        <time>2018-06-09T07:38:00.158Z</time>
      </trkpt>
      <trkpt lat="37.46736167" lon="-4.42299833">
        <ele>503.0</ele>
        <time>2018-06-09T07:38:01.177Z</time>
      </trkpt>
      <trkpt lat="37.46736167" lon="-4.42299833">
        <ele>503.0</ele>
        <time>2018-06-09T07:38:02.195Z</time>
      </trkpt>
      <trkpt lat="37.46745333" lon="-4.42305">
        <ele>503.0</ele>
        <time>2018-06-09T07:38:03.170Z</time>
      </trkpt>
      <trkpt lat="37.46745333" lon="-4.42305">
        <ele>503.0</ele>
        <time>2018-06-09T07:38:04.157Z</time>
      </trkpt>
      <trkpt lat="37.467545" lon="-4.42310333">
        <ele>503.0</ele>
        <time>2018-06-09T07:38:05.178Z</time>
      </trkpt>
      <trkpt lat="37.467545" lon="-4.42310333">
        <ele>503.0</ele>
        <time>2018-06-09T07:38:06.158Z</time>
      </trkpt>
      <trkpt lat="37.46763833" lon="-4.423155">
        <ele>503.0</ele>
        <time>2018-06-09T07:38:07.161Z</time>
      </trkpt>
      <trkpt lat="37.467685" lon="-4.42318333">
        <ele>503.0</ele>
        <time>2018-06-09T07:38:08.160Z</time>
      </trkpt>
      <trkpt lat="37.46773167" lon="-4.42321">
        <ele>503.0</ele>
        <time>2018-06-09T07:38:09.161Z</time>
      </trkpt>
      <trkpt lat="37.46773167" lon="-4.42321">
        <ele>503.0</ele>
        <time>2018-06-09T07:38:10.158Z</time>
      </trkpt>
      <trkpt lat="37.46782833" lon="-4.42326">
        <ele>503.0</ele>
        <time>2018-06-09T07:38:11.178Z</time>
      </trkpt>
      <trkpt lat="37.46782833" lon="-4.42326">
        <ele>503.0</ele>
        <time>2018-06-09T07:38:12.160Z</time>
      </trkpt>
      <trkpt lat="37.46791833" lon="-4.42331667">
        <ele>503.0</ele>
        <time>2018-06-09T07:38:13.158Z</time>
      </trkpt>
      <trkpt lat="37.46791833" lon="-4.42331667">
        <ele>503.0</ele>
        <time>2018-06-09T07:38:14.192Z</time>
      </trkpt>
      <trkpt lat="37.46800833" lon="-4.42337">
        <ele>503.0</ele>
        <time>2018-06-09T07:38:15.173Z</time>
      </trkpt>
      <trkpt lat="37.468055" lon="-4.42339833">
        <ele>503.0</ele>
        <time>2018-06-09T07:38:16.160Z</time>
      </trkpt>
      <trkpt lat="37.468055" lon="-4.42339833">
        <ele>503.0</ele>
        <time>2018-06-09T07:38:17.178Z</time>
      </trkpt>
      <trkpt lat="37.468145" lon="-4.42345167">
        <ele>504.0</ele>
        <time>2018-06-09T07:38:18.161Z</time>
      </trkpt>
      <trkpt lat="37.46819167" lon="-4.42347833">
        <ele>504.0</ele>
        <time>2018-06-09T07:38:19.161Z</time>
      </trkpt>
      <trkpt lat="37.46819167" lon="-4.42347833">
        <ele>504.0</ele>
        <time>2018-06-09T07:38:20.191Z</time>
      </trkpt>
      <trkpt lat="37.46828333" lon="-4.42353">
        <ele>504.0</ele>
        <time>2018-06-09T07:38:21.168Z</time>
      </trkpt>
      <trkpt lat="37.46833" lon="-4.42355667">
        <ele>504.0</ele>
        <time>2018-06-09T07:38:22.160Z</time>
      </trkpt>
      <trkpt lat="37.46833" lon="-4.42355667">
        <ele>504.0</ele>
        <time>2018-06-09T07:38:23.159Z</time>
      </trkpt>
      <trkpt lat="37.46842333" lon="-4.42361167">
        <ele>504.0</ele>
        <time>2018-06-09T07:38:24.193Z</time>
      </trkpt>
      <trkpt lat="37.46846833" lon="-4.42363833">
        <ele>504.0</ele>
        <time>2018-06-09T07:38:25.171Z</time>
      </trkpt>
      <trkpt lat="37.46846833" lon="-4.42363833">
        <ele>504.0</ele>
        <time>2018-06-09T07:38:26.195Z</time>
      </trkpt>
      <trkpt lat="37.46856" lon="-4.42369167">
        <ele>504.0</ele>
        <time>2018-06-09T07:38:27.174Z</time>
      </trkpt>
      <trkpt lat="37.46860667" lon="-4.42371667">
        <ele>504.0</ele>
        <time>2018-06-09T07:38:28.163Z</time>
      </trkpt>
      <trkpt lat="37.468655" lon="-4.42374167">
        <ele>504.0</ele>
        <time>2018-06-09T07:38:29.162Z</time>
      </trkpt>
      <trkpt lat="37.468655" lon="-4.42374167">
        <ele>504.0</ele>
        <time>2018-06-09T07:38:30.157Z</time>
      </trkpt>
      <trkpt lat="37.46875" lon="-4.423795">
        <ele>504.0</ele>
        <time>2018-06-09T07:38:31.162Z</time>
      </trkpt>
      <trkpt lat="37.46875" lon="-4.423795">
        <ele>504.0</ele>
        <time>2018-06-09T07:38:32.159Z</time>
      </trkpt>
      <trkpt lat="37.46884333" lon="-4.42385333">
        <ele>504.0</ele>
        <time>2018-06-09T07:38:33.161Z</time>
      </trkpt>
      <trkpt lat="37.46884333" lon="-4.42385333">
        <ele>504.0</ele>
        <time>2018-06-09T07:38:34.182Z</time>
      </trkpt>
      <trkpt lat="37.46893167" lon="-4.42391167">
        <ele>504.0</ele>
        <time>2018-06-09T07:38:35.161Z</time>
      </trkpt>
      <trkpt lat="37.46893167" lon="-4.42391167">
        <ele>504.0</ele>
        <time>2018-06-09T07:38:36.159Z</time>
      </trkpt>
      <trkpt lat="37.46902167" lon="-4.423965">
        <ele>505.0</ele>
        <time>2018-06-09T07:38:37.161Z</time>
      </trkpt>
      <trkpt lat="37.46902167" lon="-4.423965">
        <ele>505.0</ele>
        <time>2018-06-09T07:38:38.178Z</time>
      </trkpt>
      <trkpt lat="37.46911667" lon="-4.42400333">
        <ele>505.0</ele>
        <time>2018-06-09T07:38:39.161Z</time>
      </trkpt>
      <trkpt lat="37.46916667" lon="-4.42401833">
        <ele>505.0</ele>
        <time>2018-06-09T07:38:40.162Z</time>
      </trkpt>
      <trkpt lat="37.46921667" lon="-4.42403333">
        <ele>505.0</ele>
        <time>2018-06-09T07:38:41.178Z</time>
      </trkpt>
      <trkpt lat="37.46921667" lon="-4.42403333">
        <ele>505.0</ele>
        <time>2018-06-09T07:38:42.158Z</time>
      </trkpt>
      <trkpt lat="37.46931167" lon="-4.424065">
        <ele>505.0</ele>
        <time>2018-06-09T07:38:43.158Z</time>
      </trkpt>
      <trkpt lat="37.46931167" lon="-4.424065">
        <ele>505.0</ele>
        <time>2018-06-09T07:38:44.184Z</time>
      </trkpt>
      <trkpt lat="37.46941" lon="-4.42409833">
        <ele>505.0</ele>
        <time>2018-06-09T07:38:45.161Z</time>
      </trkpt>
      <trkpt lat="37.46941" lon="-4.42409833">
        <ele>505.0</ele>
        <time>2018-06-09T07:38:46.158Z</time>
      </trkpt>
      <trkpt lat="37.46950833" lon="-4.42413167">
        <ele>505.0</ele>
        <time>2018-06-09T07:38:47.174Z</time>
      </trkpt>
      <trkpt lat="37.46950833" lon="-4.42413167">
        <ele>505.0</ele>
        <time>2018-06-09T07:38:48.165Z</time>
      </trkpt>
      <trkpt lat="37.46960667" lon="-4.424165">
        <ele>505.0</ele>
        <time>2018-06-09T07:38:49.162Z</time>
      </trkpt>
      <trkpt lat="37.46960667" lon="-4.424165">
        <ele>505.0</ele>
        <time>2018-06-09T07:38:50.159Z</time>
      </trkpt>
      <trkpt lat="37.46970833" lon="-4.42418667">
        <ele>506.0</ele>
        <time>2018-06-09T07:38:51.162Z</time>
      </trkpt>
      <trkpt lat="37.46975833" lon="-4.42419167">
        <ele>506.0</ele>
        <time>2018-06-09T07:38:52.159Z</time>
      </trkpt>
      <trkpt lat="37.46975833" lon="-4.42419167">
        <ele>506.0</ele>
        <time>2018-06-09T07:38:53.160Z</time>
      </trkpt>
      <trkpt lat="37.46985833" lon="-4.424205">
        <ele>506.0</ele>
        <time>2018-06-09T07:38:54.162Z</time>
      </trkpt>
      <trkpt lat="37.46991167" lon="-4.42421333">
        <ele>506.0</ele>
        <time>2018-06-09T07:38:55.164Z</time>
      </trkpt>
      <trkpt lat="37.46991167" lon="-4.42421333">
        <ele>506.0</ele>
        <time>2018-06-09T07:38:56.193Z</time>
      </trkpt>
      <trkpt lat="37.47001333" lon="-4.42422833">
        <ele>507.0</ele>
        <time>2018-06-09T07:38:57.174Z</time>
      </trkpt>
      <trkpt lat="37.47006333" lon="-4.42423333">
        <ele>507.0</ele>
        <time>2018-06-09T07:38:58.161Z</time>
      </trkpt>
      <trkpt lat="37.470115" lon="-4.42424">
        <ele>507.0</ele>
        <time>2018-06-09T07:38:59.159Z</time>
      </trkpt>
      <trkpt lat="37.470115" lon="-4.42424">
        <ele>507.0</ele>
        <time>2018-06-09T07:39:00.196Z</time>
      </trkpt>
      <trkpt lat="37.47021667" lon="-4.42425167">
        <ele>507.0</ele>
        <time>2018-06-09T07:39:01.176Z</time>
      </trkpt>
      <trkpt lat="37.47021667" lon="-4.42425167">
        <ele>507.0</ele>
        <time>2018-06-09T07:39:02.159Z</time>
      </trkpt>
      <trkpt lat="37.47032" lon="-4.42425">
        <ele>507.0</ele>
        <time>2018-06-09T07:39:03.161Z</time>
      </trkpt>
      <trkpt lat="37.47032" lon="-4.42425">
        <ele>507.0</ele>
        <time>2018-06-09T07:39:04.177Z</time>
      </trkpt>
      <trkpt lat="37.470425" lon="-4.42424667">
        <ele>508.0</ele>
        <time>2018-06-09T07:39:05.163Z</time>
      </trkpt>
      <trkpt lat="37.470425" lon="-4.42424667">
        <ele>508.0</ele>
        <time>2018-06-09T07:39:06.159Z</time>
      </trkpt>
      <trkpt lat="37.47052833" lon="-4.42424833">
        <ele>508.0</ele>
        <time>2018-06-09T07:39:07.160Z</time>
      </trkpt>
      <trkpt lat="37.47058" lon="-4.42425">
        <ele>508.0</ele>
        <time>2018-06-09T07:39:08.160Z</time>
      </trkpt>
      <trkpt lat="37.47058" lon="-4.42425">
        <ele>508.0</ele>
        <time>2018-06-09T07:39:09.159Z</time>
      </trkpt>
      <trkpt lat="37.47068167" lon="-4.42424833">
        <ele>508.0</ele>
        <time>2018-06-09T07:39:10.161Z</time>
      </trkpt>
      <trkpt lat="37.47073167" lon="-4.42424667">
        <ele>508.0</ele>
        <time>2018-06-09T07:39:11.163Z</time>
      </trkpt>
      <trkpt lat="37.47073167" lon="-4.42424667">
        <ele>508.0</ele>
        <time>2018-06-09T07:39:12.158Z</time>
      </trkpt>
      <trkpt lat="37.47083333" lon="-4.42424333">
        <ele>508.0</ele>
        <time>2018-06-09T07:39:13.159Z</time>
      </trkpt>
      <trkpt lat="37.47083333" lon="-4.42424333">
        <ele>508.0</ele>
        <time>2018-06-09T07:39:14.158Z</time>
      </trkpt>
      <trkpt lat="37.470935" lon="-4.42424167">
        <ele>508.0</ele>
        <time>2018-06-09T07:39:15.158Z</time>
      </trkpt>
      <trkpt lat="37.470935" lon="-4.42424167">
        <ele>508.0</ele>
        <time>2018-06-09T07:39:16.157Z</time>
      </trkpt>
      <trkpt lat="37.47103833" lon="-4.42424333">
        <ele>509.0</ele>
        <time>2018-06-09T07:39:17.179Z</time>
      </trkpt>
      <trkpt lat="37.47103833" lon="-4.42424333">
        <ele>509.0</ele>
        <time>2018-06-09T07:39:18.158Z</time>
      </trkpt>
      <trkpt lat="37.47113833" lon="-4.42424333">
        <ele>509.0</ele>
        <time>2018-06-09T07:39:19.161Z</time>
      </trkpt>
      <trkpt lat="37.47113833" lon="-4.42424333">
        <ele>509.0</ele>
        <time>2018-06-09T07:39:20.197Z</time>
      </trkpt>
      <trkpt lat="37.47123667" lon="-4.42424167">
        <ele>509.0</ele>
        <time>2018-06-09T07:39:21.171Z</time>
      </trkpt>
      <trkpt lat="37.47128333" lon="-4.42424167">
        <ele>509.0</ele>
        <time>2018-06-09T07:39:22.161Z</time>
      </trkpt>
      <trkpt lat="37.47132833" lon="-4.42424167">
        <ele>509.0</ele>
        <time>2018-06-09T07:39:23.161Z</time>
      </trkpt>
      <trkpt lat="37.47132833" lon="-4.42424167">
        <ele>509.0</ele>
        <time>2018-06-09T07:39:24.159Z</time>
      </trkpt>
      <trkpt lat="37.47141333" lon="-4.42423833">
        <ele>510.0</ele>
        <time>2018-06-09T07:39:25.161Z</time>
      </trkpt>
      <trkpt lat="37.47141333" lon="-4.42423833">
        <ele>510.0</ele>
        <time>2018-06-09T07:39:26.157Z</time>
      </trkpt>
      <trkpt lat="37.4715" lon="-4.42423833">
        <ele>510.0</ele>
        <time>2018-06-09T07:39:27.174Z</time>
      </trkpt>
      <trkpt lat="37.4715" lon="-4.42423833">
        <ele>510.0</ele>
        <time>2018-06-09T07:39:28.159Z</time>
      </trkpt>
      <trkpt lat="37.471595" lon="-4.42423833">
        <ele>509.0</ele>
        <time>2018-06-09T07:39:29.172Z</time>
      </trkpt>
      <trkpt lat="37.471595" lon="-4.42423833">
        <ele>509.0</ele>
        <time>2018-06-09T07:39:30.196Z</time>
      </trkpt>
      <trkpt lat="37.471695" lon="-4.42423667">
        <ele>509.0</ele>
        <time>2018-06-09T07:39:31.175Z</time>
      </trkpt>
      <trkpt lat="37.471695" lon="-4.42423667">
        <ele>509.0</ele>
        <time>2018-06-09T07:39:32.159Z</time>
      </trkpt>
      <trkpt lat="37.47179333" lon="-4.42423667">
        <ele>509.0</ele>
        <time>2018-06-09T07:39:33.161Z</time>
      </trkpt>
      <trkpt lat="37.471845" lon="-4.42423667">
        <ele>510.0</ele>
        <time>2018-06-09T07:39:34.160Z</time>
      </trkpt>
      <trkpt lat="37.471895" lon="-4.42423667">
        <ele>510.0</ele>
        <time>2018-06-09T07:39:35.162Z</time>
      </trkpt>
      <trkpt lat="37.471895" lon="-4.42423667">
        <ele>510.0</ele>
        <time>2018-06-09T07:39:36.159Z</time>
      </trkpt>
      <trkpt lat="37.47199833" lon="-4.42423333">
        <ele>510.0</ele>
        <time>2018-06-09T07:39:37.171Z</time>
      </trkpt>
      <trkpt lat="37.47199833" lon="-4.42423333">
        <ele>510.0</ele>
        <time>2018-06-09T07:39:38.158Z</time>
      </trkpt>
      <trkpt lat="37.472105" lon="-4.424235">
        <ele>510.0</ele>
        <time>2018-06-09T07:39:39.162Z</time>
      </trkpt>
      <trkpt lat="37.472105" lon="-4.424235">
        <ele>510.0</ele>
        <time>2018-06-09T07:39:40.158Z</time>
      </trkpt>
      <trkpt lat="37.47220833" lon="-4.42423333">
        <ele>510.0</ele>
        <time>2018-06-09T07:39:41.178Z</time>
      </trkpt>
      <trkpt lat="37.47220833" lon="-4.42423333">
        <ele>510.0</ele>
        <time>2018-06-09T07:39:42.158Z</time>
      </trkpt>
      <trkpt lat="37.47231333" lon="-4.424235">
        <ele>510.0</ele>
        <time>2018-06-09T07:39:43.162Z</time>
      </trkpt>
      <trkpt lat="37.47231333" lon="-4.424235">
        <ele>510.0</ele>
        <time>2018-06-09T07:39:44.159Z</time>
      </trkpt>
      <trkpt lat="37.47241667" lon="-4.424235">
        <ele>510.0</ele>
        <time>2018-06-09T07:39:45.160Z</time>
      </trkpt>
      <trkpt lat="37.47241667" lon="-4.424235">
        <ele>510.0</ele>
        <time>2018-06-09T07:39:46.178Z</time>
      </trkpt>
      <trkpt lat="37.47251833" lon="-4.424235">
        <ele>510.0</ele>
        <time>2018-06-09T07:39:47.162Z</time>
      </trkpt>
      <trkpt lat="37.47251833" lon="-4.424235">
        <ele>510.0</ele>
        <time>2018-06-09T07:39:48.196Z</time>
      </trkpt>
      <trkpt lat="37.47262333" lon="-4.42423167">
        <ele>510.0</ele>
        <time>2018-06-09T07:39:49.163Z</time>
      </trkpt>
      <trkpt lat="37.47262333" lon="-4.42423167">
        <ele>510.0</ele>
        <time>2018-06-09T07:39:50.159Z</time>
      </trkpt>
      <trkpt lat="37.47272833" lon="-4.42422333">
        <ele>510.0</ele>
        <time>2018-06-09T07:39:51.161Z</time>
      </trkpt>
      <trkpt lat="37.47272833" lon="-4.42422333">
        <ele>510.0</ele>
        <time>2018-06-09T07:39:52.177Z</time>
      </trkpt>
      <trkpt lat="37.47283167" lon="-4.424185">
        <ele>510.0</ele>
        <time>2018-06-09T07:39:53.162Z</time>
      </trkpt>
      <trkpt lat="37.47283167" lon="-4.424185">
        <ele>510.0</ele>
        <time>2018-06-09T07:39:54.159Z</time>
      </trkpt>
      <trkpt lat="37.47293833" lon="-4.42414833">
        <ele>510.0</ele>
        <time>2018-06-09T07:39:55.160Z</time>
      </trkpt>
      <trkpt lat="37.47299167" lon="-4.42413833">
        <ele>510.0</ele>
        <time>2018-06-09T07:39:56.181Z</time>
      </trkpt>
      <trkpt lat="37.47299167" lon="-4.42413833">
        <ele>510.0</ele>
        <time>2018-06-09T07:39:57.162Z</time>
      </trkpt>
      <trkpt lat="37.4731" lon="-4.42412">
        <ele>510.0</ele>
        <time>2018-06-09T07:39:58.161Z</time>
      </trkpt>
      <trkpt lat="37.4731" lon="-4.42412">
        <ele>510.0</ele>
        <time>2018-06-09T07:39:59.177Z</time>
      </trkpt>
      <trkpt lat="37.47320333" lon="-4.42411">
        <ele>510.0</ele>
        <time>2018-06-09T07:40:00.160Z</time>
      </trkpt>
      <trkpt lat="37.47325167" lon="-4.42410333">
        <ele>510.0</ele>
        <time>2018-06-09T07:40:01.163Z</time>
      </trkpt>
      <trkpt lat="37.47325167" lon="-4.42410333">
        <ele>510.0</ele>
        <time>2018-06-09T07:40:02.158Z</time>
      </trkpt>
      <trkpt lat="37.473355" lon="-4.424095">
        <ele>510.0</ele>
        <time>2018-06-09T07:40:03.161Z</time>
      </trkpt>
      <trkpt lat="37.4734" lon="-4.42409333">
        <ele>511.0</ele>
        <time>2018-06-09T07:40:04.161Z</time>
      </trkpt>
      <trkpt lat="37.4734" lon="-4.42409333">
        <ele>511.0</ele>
        <time>2018-06-09T07:40:05.157Z</time>
      </trkpt>
      <trkpt lat="37.47349167" lon="-4.424085">
        <ele>512.0</ele>
        <time>2018-06-09T07:40:06.178Z</time>
      </trkpt>
      <trkpt lat="37.47349167" lon="-4.424085">
        <ele>512.0</ele>
        <time>2018-06-09T07:40:07.160Z</time>
      </trkpt>
      <trkpt lat="37.47359833" lon="-4.42408">
        <ele>512.0</ele>
        <time>2018-06-09T07:40:08.163Z</time>
      </trkpt>
      <trkpt lat="37.47359833" lon="-4.42408">
        <ele>512.0</ele>
        <time>2018-06-09T07:40:09.159Z</time>
      </trkpt>
      <trkpt lat="37.47370333" lon="-4.42409">
        <ele>512.0</ele>
        <time>2018-06-09T07:40:10.161Z</time>
      </trkpt>
      <trkpt lat="37.47370333" lon="-4.42409">
        <ele>512.0</ele>
        <time>2018-06-09T07:40:11.178Z</time>
      </trkpt>
      <trkpt lat="37.473805" lon="-4.4241">
        <ele>512.0</ele>
        <time>2018-06-09T07:40:12.161Z</time>
      </trkpt>
      <trkpt lat="37.47385667" lon="-4.42410167">
        <ele>512.0</ele>
        <time>2018-06-09T07:40:13.162Z</time>
      </trkpt>
      <trkpt lat="37.47385667" lon="-4.42410167">
        <ele>512.0</ele>
        <time>2018-06-09T07:40:14.157Z</time>
      </trkpt>
      <trkpt lat="37.47396" lon="-4.42411">
        <ele>513.0</ele>
        <time>2018-06-09T07:40:15.193Z</time>
      </trkpt>
      <trkpt lat="37.47400667" lon="-4.42411167">
        <ele>514.0</ele>
        <time>2018-06-09T07:40:16.176Z</time>
      </trkpt>
      <trkpt lat="37.47406" lon="-4.42411167">
        <ele>514.0</ele>
        <time>2018-06-09T07:40:17.163Z</time>
      </trkpt>
      <trkpt lat="37.47406" lon="-4.42411167">
        <ele>514.0</ele>
        <time>2018-06-09T07:40:18.178Z</time>
      </trkpt>
      <trkpt lat="37.474165" lon="-4.424115">
        <ele>514.0</ele>
        <time>2018-06-09T07:40:19.162Z</time>
      </trkpt>
      <trkpt lat="37.474165" lon="-4.424115">
        <ele>514.0</ele>
        <time>2018-06-09T07:40:20.178Z</time>
      </trkpt>
      <trkpt lat="37.47427333" lon="-4.42412">
        <ele>515.0</ele>
        <time>2018-06-09T07:40:21.161Z</time>
      </trkpt>
      <trkpt lat="37.47427333" lon="-4.42412">
        <ele>515.0</ele>
        <time>2018-06-09T07:40:22.159Z</time>
      </trkpt>
      <trkpt lat="37.47439333" lon="-4.42412">
        <ele>515.0</ele>
        <time>2018-06-09T07:40:23.164Z</time>
      </trkpt>
      <trkpt lat="37.47439333" lon="-4.42412">
        <ele>515.0</ele>
        <time>2018-06-09T07:40:24.182Z</time>
      </trkpt>
      <trkpt lat="37.4745" lon="-4.42411833">
        <ele>516.0</ele>
        <time>2018-06-09T07:40:25.187Z</time>
      </trkpt>
      <trkpt lat="37.47455333" lon="-4.424115">
        <ele>516.0</ele>
        <time>2018-06-09T07:40:26.180Z</time>
      </trkpt>
      <trkpt lat="37.47461167" lon="-4.424115">
        <ele>516.0</ele>
        <time>2018-06-09T07:40:27.162Z</time>
      </trkpt>
      <trkpt lat="37.47461167" lon="-4.424115">
        <ele>516.0</ele>
        <time>2018-06-09T07:40:28.162Z</time>
      </trkpt>
      <trkpt lat="37.474705" lon="-4.424115">
        <ele>517.0</ele>
        <time>2018-06-09T07:40:29.160Z</time>
      </trkpt>
      <trkpt lat="37.474705" lon="-4.424115">
        <ele>517.0</ele>
        <time>2018-06-09T07:40:30.160Z</time>
      </trkpt>
      <trkpt lat="37.47478667" lon="-4.42409333">
        <ele>516.0</ele>
        <time>2018-06-09T07:40:31.162Z</time>
      </trkpt>
      <trkpt lat="37.47478667" lon="-4.42409333">
        <ele>516.0</ele>
        <time>2018-06-09T07:40:32.196Z</time>
      </trkpt>
      <trkpt lat="37.47487" lon="-4.42408167">
        <ele>517.0</ele>
        <time>2018-06-09T07:40:33.176Z</time>
      </trkpt>
      <trkpt lat="37.47487" lon="-4.42408167">
        <ele>517.0</ele>
        <time>2018-06-09T07:40:34.159Z</time>
      </trkpt>
      <trkpt lat="37.47495833" lon="-4.424085">
        <ele>515.0</ele>
        <time>2018-06-09T07:40:35.165Z</time>
      </trkpt>
      <trkpt lat="37.47495833" lon="-4.424085">
        <ele>515.0</ele>
        <time>2018-06-09T07:40:36.157Z</time>
      </trkpt>
      <trkpt lat="37.47505167" lon="-4.4241">
        <ele>515.0</ele>
        <time>2018-06-09T07:40:37.178Z</time>
      </trkpt>
      <trkpt lat="37.47505167" lon="-4.4241">
        <ele>515.0</ele>
        <time>2018-06-09T07:40:38.159Z</time>
      </trkpt>
      <trkpt lat="37.47514667" lon="-4.424145">
        <ele>516.0</ele>
        <time>2018-06-09T07:40:39.162Z</time>
      </trkpt>
      <trkpt lat="37.47514667" lon="-4.424145">
        <ele>516.0</ele>
        <time>2018-06-09T07:40:40.159Z</time>
      </trkpt>
      <trkpt lat="37.47524" lon="-4.42416667">
        <ele>516.0</ele>
        <time>2018-06-09T07:40:41.179Z</time>
      </trkpt>
      <trkpt lat="37.47524" lon="-4.42416667">
        <ele>516.0</ele>
        <time>2018-06-09T07:40:42.172Z</time>
      </trkpt>
      <trkpt lat="37.47532" lon="-4.42418333">
        <ele>516.0</ele>
        <time>2018-06-09T07:40:43.163Z</time>
      </trkpt>
      <trkpt lat="37.47532" lon="-4.42418333">
        <ele>516.0</ele>
        <time>2018-06-09T07:40:44.191Z</time>
      </trkpt>
      <trkpt lat="37.47540167" lon="-4.424195">
        <ele>516.0</ele>
        <time>2018-06-09T07:40:45.174Z</time>
      </trkpt>
      <trkpt lat="37.47540167" lon="-4.424195">
        <ele>516.0</ele>
        <time>2018-06-09T07:40:46.167Z</time>
      </trkpt>
      <trkpt lat="37.475495" lon="-4.42419833">
        <ele>516.0</ele>
        <time>2018-06-09T07:40:47.181Z</time>
      </trkpt>
      <trkpt lat="37.475495" lon="-4.42419833">
        <ele>516.0</ele>
        <time>2018-06-09T07:40:48.160Z</time>
      </trkpt>
      <trkpt lat="37.47559167" lon="-4.42419667">
        <ele>516.0</ele>
        <time>2018-06-09T07:40:49.182Z</time>
      </trkpt>
      <trkpt lat="37.47559167" lon="-4.42419667">
        <ele>516.0</ele>
        <time>2018-06-09T07:40:50.171Z</time>
      </trkpt>
      <trkpt lat="37.47568333" lon="-4.42419167">
        <ele>517.0</ele>
        <time>2018-06-09T07:40:51.161Z</time>
      </trkpt>
      <trkpt lat="37.47573" lon="-4.424195">
        <ele>517.0</ele>
        <time>2018-06-09T07:40:52.178Z</time>
      </trkpt>
      <trkpt lat="37.475775" lon="-4.4242">
        <ele>518.0</ele>
        <time>2018-06-09T07:40:53.163Z</time>
      </trkpt>
      <trkpt lat="37.47582833" lon="-4.42421167">
        <ele>517.0</ele>
        <time>2018-06-09T07:40:54.182Z</time>
      </trkpt>
      <trkpt lat="37.47582833" lon="-4.42421167">
        <ele>517.0</ele>
        <time>2018-06-09T07:40:55.163Z</time>
      </trkpt>
      <trkpt lat="37.47593667" lon="-4.42422667">
        <ele>517.0</ele>
        <time>2018-06-09T07:40:56.161Z</time>
      </trkpt>
      <trkpt lat="37.47598833" lon="-4.42423167">
        <ele>516.0</ele>
        <time>2018-06-09T07:40:57.159Z</time>
      </trkpt>
      <trkpt lat="37.47604333" lon="-4.42423167">
        <ele>516.0</ele>
        <time>2018-06-09T07:40:58.163Z</time>
      </trkpt>
      <trkpt lat="37.47604333" lon="-4.42423167">
        <ele>516.0</ele>
        <time>2018-06-09T07:40:59.179Z</time>
      </trkpt>
      <trkpt lat="37.47615667" lon="-4.424235">
        <ele>516.0</ele>
        <time>2018-06-09T07:41:00.170Z</time>
      </trkpt>
      <trkpt lat="37.47621167" lon="-4.42424">
        <ele>516.0</ele>
        <time>2018-06-09T07:41:01.163Z</time>
      </trkpt>
      <trkpt lat="37.47621167" lon="-4.42424">
        <ele>516.0</ele>
        <time>2018-06-09T07:41:02.196Z</time>
      </trkpt>
      <trkpt lat="37.47631667" lon="-4.42423833">
        <ele>515.0</ele>
        <time>2018-06-09T07:41:03.175Z</time>
      </trkpt>
      <trkpt lat="37.47631667" lon="-4.42423833">
        <ele>515.0</ele>
        <time>2018-06-09T07:41:04.158Z</time>
      </trkpt>
      <trkpt lat="37.47641833" lon="-4.42422833">
        <ele>515.0</ele>
        <time>2018-06-09T07:41:05.179Z</time>
      </trkpt>
      <trkpt lat="37.47641833" lon="-4.42422833">
        <ele>515.0</ele>
        <time>2018-06-09T07:41:06.165Z</time>
      </trkpt>
      <trkpt lat="37.47651833" lon="-4.42423333">
        <ele>515.0</ele>
        <time>2018-06-09T07:41:07.163Z</time>
      </trkpt>
      <trkpt lat="37.47651833" lon="-4.42423333">
        <ele>515.0</ele>
        <time>2018-06-09T07:41:08.159Z</time>
      </trkpt>
      <trkpt lat="37.47660667" lon="-4.42424">
        <ele>515.0</ele>
        <time>2018-06-09T07:41:09.161Z</time>
      </trkpt>
      <trkpt lat="37.47660667" lon="-4.42424">
        <ele>515.0</ele>
        <time>2018-06-09T07:41:10.159Z</time>
      </trkpt>
      <trkpt lat="37.47670167" lon="-4.424245">
        <ele>515.0</ele>
        <time>2018-06-09T07:41:11.179Z</time>
      </trkpt>
      <trkpt lat="37.47670167" lon="-4.424245">
        <ele>515.0</ele>
        <time>2018-06-09T07:41:12.159Z</time>
      </trkpt>
      <trkpt lat="37.47679" lon="-4.42425333">
        <ele>515.0</ele>
        <time>2018-06-09T07:41:13.163Z</time>
      </trkpt>
      <trkpt lat="37.47679" lon="-4.42425333">
        <ele>515.0</ele>
        <time>2018-06-09T07:41:14.159Z</time>
      </trkpt>
      <trkpt lat="37.47687" lon="-4.42426333">
        <ele>515.0</ele>
        <time>2018-06-09T07:41:15.161Z</time>
      </trkpt>
      <trkpt lat="37.47687" lon="-4.42426333">
        <ele>515.0</ele>
        <time>2018-06-09T07:41:16.159Z</time>
      </trkpt>
      <trkpt lat="37.47695" lon="-4.42428167">
        <ele>515.0</ele>
        <time>2018-06-09T07:41:17.161Z</time>
      </trkpt>
      <trkpt lat="37.47695" lon="-4.42428167">
        <ele>515.0</ele>
        <time>2018-06-09T07:41:18.176Z</time>
      </trkpt>
      <trkpt lat="37.47703167" lon="-4.42431833">
        <ele>515.0</ele>
        <time>2018-06-09T07:41:19.163Z</time>
      </trkpt>
      <trkpt lat="37.47703167" lon="-4.42431833">
        <ele>515.0</ele>
        <time>2018-06-09T07:41:20.160Z</time>
      </trkpt>
      <trkpt lat="37.47711" lon="-4.42439667">
        <ele>514.0</ele>
        <time>2018-06-09T07:41:21.161Z</time>
      </trkpt>
      <trkpt lat="37.47711" lon="-4.42439667">
        <ele>514.0</ele>
        <time>2018-06-09T07:41:22.177Z</time>
      </trkpt>
      <trkpt lat="37.47720667" lon="-4.42449667">
        <ele>512.0</ele>
        <time>2018-06-09T07:41:23.160Z</time>
      </trkpt>
      <trkpt lat="37.47720667" lon="-4.42449667">
        <ele>512.0</ele>
        <time>2018-06-09T07:41:24.160Z</time>
      </trkpt>
      <trkpt lat="37.47732167" lon="-4.424605">
        <ele>510.0</ele>
        <time>2018-06-09T07:41:25.162Z</time>
      </trkpt>
      <trkpt lat="37.47732167" lon="-4.424605">
        <ele>510.0</ele>
        <time>2018-06-09T07:41:26.160Z</time>
      </trkpt>
      <trkpt lat="37.47738333" lon="-4.42478">
        <ele>508.0</ele>
        <time>2018-06-09T07:41:27.161Z</time>
      </trkpt>
      <trkpt lat="37.47738333" lon="-4.42478">
        <ele>508.0</ele>
        <time>2018-06-09T07:41:28.158Z</time>
      </trkpt>
      <trkpt lat="37.47738" lon="-4.42499833">
        <ele>507.0</ele>
        <time>2018-06-09T07:41:29.164Z</time>
      </trkpt>
      <trkpt lat="37.47738" lon="-4.42499833">
        <ele>507.0</ele>
        <time>2018-06-09T07:41:30.159Z</time>
      </trkpt>
      <trkpt lat="37.47737667" lon="-4.42520667">
        <ele>506.0</ele>
        <time>2018-06-09T07:41:31.161Z</time>
      </trkpt>
      <trkpt lat="37.47737667" lon="-4.42520667">
        <ele>506.0</ele>
        <time>2018-06-09T07:41:32.181Z</time>
      </trkpt>
      <trkpt lat="37.47737667" lon="-4.42536333">
        <ele>506.0</ele>
        <time>2018-06-09T07:41:33.162Z</time>
      </trkpt>
      <trkpt lat="37.47737667" lon="-4.42536333">
        <ele>506.0</ele>
        <time>2018-06-09T07:41:34.194Z</time>
      </trkpt>
      <trkpt lat="37.47737333" lon="-4.42547833">
        <ele>505.0</ele>
        <time>2018-06-09T07:41:35.174Z</time>
      </trkpt>
      <trkpt lat="37.47737333" lon="-4.42547833">
        <ele>505.0</ele>
        <time>2018-06-09T07:41:36.159Z</time>
      </trkpt>
      <trkpt lat="37.47740167" lon="-4.42559333">
        <ele>505.0</ele>
        <time>2018-06-09T07:41:37.178Z</time>
      </trkpt>
      <trkpt lat="37.47740167" lon="-4.42559333">
        <ele>505.0</ele>
        <time>2018-06-09T07:41:38.157Z</time>
      </trkpt>
      <trkpt lat="37.47744" lon="-4.42571667">
        <ele>504.0</ele>
        <time>2018-06-09T07:41:39.173Z</time>
      </trkpt>
      <trkpt lat="37.47744" lon="-4.42571667">
        <ele>504.0</ele>
        <time>2018-06-09T07:41:40.159Z</time>
      </trkpt>
      <trkpt lat="37.47748" lon="-4.425845">
        <ele>504.0</ele>
        <time>2018-06-09T07:41:41.178Z</time>
      </trkpt>
      <trkpt lat="37.47748" lon="-4.425845">
        <ele>504.0</ele>
        <time>2018-06-09T07:41:42.157Z</time>
      </trkpt>
      <trkpt lat="37.47752" lon="-4.42597833">
        <ele>503.0</ele>
        <time>2018-06-09T07:41:43.178Z</time>
      </trkpt>
      <trkpt lat="37.47752" lon="-4.42597833">
        <ele>503.0</ele>
        <time>2018-06-09T07:41:44.160Z</time>
      </trkpt>
      <trkpt lat="37.47756333" lon="-4.42611667">
        <ele>503.0</ele>
        <time>2018-06-09T07:41:45.161Z</time>
      </trkpt>
      <trkpt lat="37.47756333" lon="-4.42611667">
        <ele>503.0</ele>
        <time>2018-06-09T07:41:46.193Z</time>
      </trkpt>
      <trkpt lat="37.47760667" lon="-4.42626167">
        <ele>502.0</ele>
        <time>2018-06-09T07:41:47.174Z</time>
      </trkpt>
      <trkpt lat="37.47760667" lon="-4.42626167">
        <ele>502.0</ele>
        <time>2018-06-09T07:41:48.178Z</time>
      </trkpt>
      <trkpt lat="37.47765" lon="-4.42641">
        <ele>502.0</ele>
        <time>2018-06-09T07:41:49.189Z</time>
      </trkpt>
      <trkpt lat="37.47765" lon="-4.42641">
        <ele>502.0</ele>
        <time>2018-06-09T07:41:50.181Z</time>
      </trkpt>
      <trkpt lat="37.47769667" lon="-4.42656">
        <ele>501.0</ele>
        <time>2018-06-09T07:41:51.162Z</time>
      </trkpt>
      <trkpt lat="37.47771833" lon="-4.42663333">
        <ele>501.0</ele>
        <time>2018-06-09T07:41:52.162Z</time>
      </trkpt>
      <trkpt lat="37.477735" lon="-4.42671167">
        <ele>501.0</ele>
        <time>2018-06-09T07:41:53.178Z</time>
      </trkpt>
      <trkpt lat="37.477735" lon="-4.42671167">
        <ele>501.0</ele>
        <time>2018-06-09T07:41:54.161Z</time>
      </trkpt>
      <trkpt lat="37.477755" lon="-4.42687333">
        <ele>500.0</ele>
        <time>2018-06-09T07:41:55.162Z</time>
      </trkpt>
      <trkpt lat="37.477755" lon="-4.42687333">
        <ele>500.0</ele>
        <time>2018-06-09T07:41:56.159Z</time>
      </trkpt>
      <trkpt lat="37.47775" lon="-4.42704333">
        <ele>499.0</ele>
        <time>2018-06-09T07:41:57.160Z</time>
      </trkpt>
      <trkpt lat="37.47775" lon="-4.42704333">
        <ele>499.0</ele>
        <time>2018-06-09T07:41:58.157Z</time>
      </trkpt>
      <trkpt lat="37.47773833" lon="-4.42722">
        <ele>499.0</ele>
        <time>2018-06-09T07:41:59.178Z</time>
      </trkpt>
      <trkpt lat="37.47773833" lon="-4.42722">
        <ele>499.0</ele>
        <time>2018-06-09T07:42:00.159Z</time>
      </trkpt>
      <trkpt lat="37.47772333" lon="-4.42739833">
        <ele>498.0</ele>
        <time>2018-06-09T07:42:01.163Z</time>
      </trkpt>
      <trkpt lat="37.47772333" lon="-4.42739833">
        <ele>498.0</ele>
        <time>2018-06-09T07:42:02.179Z</time>
      </trkpt>
      <trkpt lat="37.47770667" lon="-4.427575">
        <ele>497.0</ele>
        <time>2018-06-09T07:42:03.164Z</time>
      </trkpt>
      <trkpt lat="37.47770667" lon="-4.427575">
        <ele>497.0</ele>
        <time>2018-06-09T07:42:04.159Z</time>
      </trkpt>
      <trkpt lat="37.47769167" lon="-4.42775833">
        <ele>496.0</ele>
        <time>2018-06-09T07:42:05.179Z</time>
      </trkpt>
      <trkpt lat="37.47769167" lon="-4.42775833">
        <ele>496.0</ele>
        <time>2018-06-09T07:42:06.196Z</time>
      </trkpt>
      <trkpt lat="37.47767833" lon="-4.42794333">
        <ele>495.0</ele>
        <time>2018-06-09T07:42:07.174Z</time>
      </trkpt>
      <trkpt lat="37.47767833" lon="-4.42794333">
        <ele>495.0</ele>
        <time>2018-06-09T07:42:08.159Z</time>
      </trkpt>
      <trkpt lat="37.47766333" lon="-4.42812667">
        <ele>494.0</ele>
        <time>2018-06-09T07:42:09.182Z</time>
      </trkpt>
      <trkpt lat="37.47766333" lon="-4.42812667">
        <ele>494.0</ele>
        <time>2018-06-09T07:42:10.163Z</time>
      </trkpt>
      <trkpt lat="37.47765167" lon="-4.4283">
        <ele>493.0</ele>
        <time>2018-06-09T07:42:11.163Z</time>
      </trkpt>
      <trkpt lat="37.47765167" lon="-4.4283">
        <ele>493.0</ele>
        <time>2018-06-09T07:42:12.159Z</time>
      </trkpt>
      <trkpt lat="37.47763667" lon="-4.42847333">
        <ele>492.0</ele>
        <time>2018-06-09T07:42:13.163Z</time>
      </trkpt>
      <trkpt lat="37.47763667" lon="-4.42847333">
        <ele>492.0</ele>
        <time>2018-06-09T07:42:14.182Z</time>
      </trkpt>
      <trkpt lat="37.47762667" lon="-4.42862833">
        <ele>491.0</ele>
        <time>2018-06-09T07:42:15.162Z</time>
      </trkpt>
      <trkpt lat="37.477625" lon="-4.42868833">
        <ele>491.0</ele>
        <time>2018-06-09T07:42:16.196Z</time>
      </trkpt>
      <trkpt lat="37.47762167" lon="-4.428735">
        <ele>490.0</ele>
        <time>2018-06-09T07:42:17.179Z</time>
      </trkpt>
      <trkpt lat="37.47762167" lon="-4.428735">
        <ele>490.0</ele>
        <time>2018-06-09T07:42:18.160Z</time>
      </trkpt>
      <trkpt lat="37.477625" lon="-4.42879167">
        <ele>490.0</ele>
        <time>2018-06-09T07:42:19.163Z</time>
      </trkpt>
      <trkpt lat="37.477625" lon="-4.42879167">
        <ele>490.0</ele>
        <time>2018-06-09T07:42:20.159Z</time>
      </trkpt>
      <trkpt lat="37.47767167" lon="-4.42880667">
        <ele>491.0</ele>
        <time>2018-06-09T07:42:21.162Z</time>
      </trkpt>
      <trkpt lat="37.47767167" lon="-4.42880667">
        <ele>491.0</ele>
        <time>2018-06-09T07:42:22.179Z</time>
      </trkpt>
      <trkpt lat="37.47773167" lon="-4.42878833">
        <ele>490.0</ele>
        <time>2018-06-09T07:42:23.163Z</time>
      </trkpt>
      <trkpt lat="37.47773167" lon="-4.42878833">
        <ele>490.0</ele>
        <time>2018-06-09T07:42:24.159Z</time>
      </trkpt>
      <trkpt lat="37.47780833" lon="-4.42877333">
        <ele>490.0</ele>
        <time>2018-06-09T07:42:25.163Z</time>
      </trkpt>
      <trkpt lat="37.47780833" lon="-4.42877333">
        <ele>490.0</ele>
        <time>2018-06-09T07:42:26.166Z</time>
      </trkpt>
      <trkpt lat="37.477885" lon="-4.42875">
        <ele>490.0</ele>
        <time>2018-06-09T07:42:27.161Z</time>
      </trkpt>
      <trkpt lat="37.477885" lon="-4.42875">
        <ele>490.0</ele>
        <time>2018-06-09T07:42:28.178Z</time>
      </trkpt>
      <trkpt lat="37.47797667" lon="-4.428725">
        <ele>491.0</ele>
        <time>2018-06-09T07:42:29.190Z</time>
      </trkpt>
      <trkpt lat="37.47797667" lon="-4.428725">
        <ele>491.0</ele>
        <time>2018-06-09T07:42:30.166Z</time>
      </trkpt>
      <trkpt lat="37.47808333" lon="-4.42870167">
        <ele>492.0</ele>
        <time>2018-06-09T07:42:31.161Z</time>
      </trkpt>
      <trkpt lat="37.47808333" lon="-4.42870167">
        <ele>492.0</ele>
        <time>2018-06-09T07:42:32.181Z</time>
      </trkpt>
      <trkpt lat="37.47817667" lon="-4.42867">
        <ele>493.0</ele>
        <time>2018-06-09T07:42:33.162Z</time>
      </trkpt>
      <trkpt lat="37.47817667" lon="-4.42867">
        <ele>493.0</ele>
        <time>2018-06-09T07:42:34.157Z</time>
      </trkpt>
      <trkpt lat="37.47826333" lon="-4.42864">
        <ele>493.0</ele>
        <time>2018-06-09T07:42:35.178Z</time>
      </trkpt>
      <trkpt lat="37.47826333" lon="-4.42864">
        <ele>493.0</ele>
        <time>2018-06-09T07:42:36.160Z</time>
      </trkpt>
      <trkpt lat="37.47834" lon="-4.42861">
        <ele>493.0</ele>
        <time>2018-06-09T07:42:37.162Z</time>
      </trkpt>
      <trkpt lat="37.47834" lon="-4.42861">
        <ele>493.0</ele>
        <time>2018-06-09T07:42:38.178Z</time>
      </trkpt>
      <trkpt lat="37.47841" lon="-4.42858667">
        <ele>493.0</ele>
        <time>2018-06-09T07:42:39.163Z</time>
      </trkpt>
      <trkpt lat="37.47844333" lon="-4.42858">
        <ele>493.0</ele>
        <time>2018-06-09T07:42:40.164Z</time>
      </trkpt>
      <trkpt lat="37.47844333" lon="-4.42858">
        <ele>493.0</ele>
        <time>2018-06-09T07:42:41.160Z</time>
      </trkpt>
      <trkpt lat="37.47850167" lon="-4.42856167">
        <ele>494.0</ele>
        <time>2018-06-09T07:42:42.163Z</time>
      </trkpt>
      <trkpt lat="37.47853167" lon="-4.42855333">
        <ele>494.0</ele>
        <time>2018-06-09T07:42:43.163Z</time>
      </trkpt>
      <trkpt lat="37.47853167" lon="-4.42855333">
        <ele>494.0</ele>
        <time>2018-06-09T07:42:44.187Z</time>
      </trkpt>
      <trkpt lat="37.47858833" lon="-4.428535">
        <ele>494.0</ele>
        <time>2018-06-09T07:42:45.171Z</time>
      </trkpt>
      <trkpt lat="37.47858833" lon="-4.428535">
        <ele>494.0</ele>
        <time>2018-06-09T07:42:46.159Z</time>
      </trkpt>
      <trkpt lat="37.47864667" lon="-4.42851833">
        <ele>494.0</ele>
        <time>2018-06-09T07:42:47.164Z</time>
      </trkpt>
      <trkpt lat="37.47864667" lon="-4.42851833">
        <ele>494.0</ele>
        <time>2018-06-09T07:42:48.160Z</time>
      </trkpt>
      <trkpt lat="37.47870333" lon="-4.42849167">
        <ele>494.0</ele>
        <time>2018-06-09T07:42:49.163Z</time>
      </trkpt>
      <trkpt lat="37.47870333" lon="-4.42849167">
        <ele>494.0</ele>
        <time>2018-06-09T07:42:50.181Z</time>
      </trkpt>
      <trkpt lat="37.478765" lon="-4.42847">
        <ele>494.0</ele>
        <time>2018-06-09T07:42:51.163Z</time>
      </trkpt>
      <trkpt lat="37.478765" lon="-4.42847">
        <ele>494.0</ele>
        <time>2018-06-09T07:42:52.159Z</time>
      </trkpt>
      <trkpt lat="37.47883" lon="-4.42845833">
        <ele>495.0</ele>
        <time>2018-06-09T07:42:53.179Z</time>
      </trkpt>
      <trkpt lat="37.47883" lon="-4.42845833">
        <ele>495.0</ele>
        <time>2018-06-09T07:42:54.162Z</time>
      </trkpt>
      <trkpt lat="37.47888667" lon="-4.42844833">
        <ele>495.0</ele>
        <time>2018-06-09T07:42:55.168Z</time>
      </trkpt>
      <trkpt lat="37.47888667" lon="-4.42844833">
        <ele>495.0</ele>
        <time>2018-06-09T07:42:56.160Z</time>
      </trkpt>
      <trkpt lat="37.47893833" lon="-4.42842667">
        <ele>495.0</ele>
        <time>2018-06-09T07:42:57.162Z</time>
      </trkpt>
      <trkpt lat="37.47893833" lon="-4.42842667">
        <ele>495.0</ele>
        <time>2018-06-09T07:42:58.159Z</time>
      </trkpt>
      <trkpt lat="37.478985" lon="-4.42841">
        <ele>495.0</ele>
        <time>2018-06-09T07:42:59.163Z</time>
      </trkpt>
      <trkpt lat="37.478985" lon="-4.42841">
        <ele>495.0</ele>
        <time>2018-06-09T07:43:00.179Z</time>
      </trkpt>
      <trkpt lat="37.47902667" lon="-4.428395">
        <ele>496.0</ele>
        <time>2018-06-09T07:43:01.161Z</time>
      </trkpt>
      <trkpt lat="37.47902667" lon="-4.428395">
        <ele>496.0</ele>
        <time>2018-06-09T07:43:02.181Z</time>
      </trkpt>
      <trkpt lat="37.47906333" lon="-4.428385">
        <ele>496.0</ele>
        <time>2018-06-09T07:43:03.163Z</time>
      </trkpt>
      <trkpt lat="37.47908167" lon="-4.42837833">
        <ele>496.0</ele>
        <time>2018-06-09T07:43:04.182Z</time>
      </trkpt>
      <trkpt lat="37.47908167" lon="-4.42837833">
        <ele>496.0</ele>
        <time>2018-06-09T07:43:05.164Z</time>
      </trkpt>
      <trkpt lat="37.47911667" lon="-4.42836167">
        <ele>497.0</ele>
        <time>2018-06-09T07:43:06.161Z</time>
      </trkpt>
      <trkpt lat="37.47913167" lon="-4.42835167">
        <ele>497.0</ele>
        <time>2018-06-09T07:43:07.163Z</time>
      </trkpt>
      <trkpt lat="37.47913167" lon="-4.42835167">
        <ele>497.0</ele>
        <time>2018-06-09T07:43:08.181Z</time>
      </trkpt>
      <trkpt lat="37.47916" lon="-4.42833333">
        <ele>497.0</ele>
        <time>2018-06-09T07:43:09.162Z</time>
      </trkpt>
      <trkpt lat="37.47916" lon="-4.42833333">
        <ele>497.0</ele>
        <time>2018-06-09T07:43:10.159Z</time>
      </trkpt>
      <trkpt lat="37.47919" lon="-4.42832667">
        <ele>498.0</ele>
        <time>2018-06-09T07:43:11.161Z</time>
      </trkpt>
      <trkpt lat="37.47919" lon="-4.42832667">
        <ele>498.0</ele>
        <time>2018-06-09T07:43:12.160Z</time>
      </trkpt>
      <trkpt lat="37.47921667" lon="-4.42831833">
        <ele>498.0</ele>
        <time>2018-06-09T07:43:13.163Z</time>
      </trkpt>
      <trkpt lat="37.47921667" lon="-4.42831833">
        <ele>498.0</ele>
        <time>2018-06-09T07:43:14.181Z</time>
      </trkpt>
      <trkpt lat="37.479245" lon="-4.42830667">
        <ele>499.0</ele>
        <time>2018-06-09T07:43:15.162Z</time>
      </trkpt>
      <trkpt lat="37.479245" lon="-4.42830667">
        <ele>499.0</ele>
        <time>2018-06-09T07:43:16.160Z</time>
      </trkpt>
      <trkpt lat="37.47927333" lon="-4.42830167">
        <ele>499.0</ele>
        <time>2018-06-09T07:43:17.160Z</time>
      </trkpt>
      <trkpt lat="37.47927333" lon="-4.42830167">
        <ele>499.0</ele>
        <time>2018-06-09T07:43:18.157Z</time>
      </trkpt>
      <trkpt lat="37.4793" lon="-4.428295">
        <ele>499.0</ele>
        <time>2018-06-09T07:43:19.164Z</time>
      </trkpt>
      <trkpt lat="37.4793" lon="-4.428295">
        <ele>499.0</ele>
        <time>2018-06-09T07:43:20.158Z</time>
      </trkpt>
      <trkpt lat="37.47932833" lon="-4.428295">
        <ele>500.0</ele>
        <time>2018-06-09T07:43:21.177Z</time>
      </trkpt>
      <trkpt lat="37.47932833" lon="-4.428295">
        <ele>500.0</ele>
        <time>2018-06-09T07:43:22.157Z</time>
      </trkpt>
      <trkpt lat="37.47935667" lon="-4.42829333">
        <ele>500.0</ele>
        <time>2018-06-09T07:43:23.161Z</time>
      </trkpt>
      <trkpt lat="37.47935667" lon="-4.42829333">
        <ele>500.0</ele>
        <time>2018-06-09T07:43:24.177Z</time>
      </trkpt>
      <trkpt lat="37.479385" lon="-4.42829333">
        <ele>501.0</ele>
        <time>2018-06-09T07:43:25.163Z</time>
      </trkpt>
      <trkpt lat="37.479385" lon="-4.42829333">
        <ele>501.0</ele>
        <time>2018-06-09T07:43:26.158Z</time>
      </trkpt>
      <trkpt lat="37.47940833" lon="-4.42828">
        <ele>501.0</ele>
        <time>2018-06-09T07:43:27.162Z</time>
      </trkpt>
      <trkpt lat="37.47940833" lon="-4.42828">
        <ele>501.0</ele>
        <time>2018-06-09T07:43:28.178Z</time>
      </trkpt>
      <trkpt lat="37.47943333" lon="-4.42827167">
        <ele>501.0</ele>
        <time>2018-06-09T07:43:29.160Z</time>
      </trkpt>
      <trkpt lat="37.47943333" lon="-4.42827167">
        <ele>501.0</ele>
        <time>2018-06-09T07:43:30.158Z</time>
      </trkpt>
      <trkpt lat="37.47945833" lon="-4.42826833">
        <ele>502.0</ele>
        <time>2018-06-09T07:43:31.179Z</time>
      </trkpt>
      <trkpt lat="37.47945833" lon="-4.42826833">
        <ele>502.0</ele>
        <time>2018-06-09T07:43:32.159Z</time>
      </trkpt>
      <trkpt lat="37.47947667" lon="-4.42826">
        <ele>502.0</ele>
        <time>2018-06-09T07:43:33.177Z</time>
      </trkpt>
      <trkpt lat="37.47947667" lon="-4.42826">
        <ele>502.0</ele>
        <time>2018-06-09T07:43:34.160Z</time>
      </trkpt>
      <trkpt lat="37.479495" lon="-4.42824833">
        <ele>503.0</ele>
        <time>2018-06-09T07:43:35.165Z</time>
      </trkpt>
      <trkpt lat="37.479495" lon="-4.42824833">
        <ele>503.0</ele>
        <time>2018-06-09T07:43:36.161Z</time>
      </trkpt>
      <trkpt lat="37.47951667" lon="-4.42823833">
        <ele>503.0</ele>
        <time>2018-06-09T07:43:37.162Z</time>
      </trkpt>
      <trkpt lat="37.47951667" lon="-4.42823833">
        <ele>503.0</ele>
        <time>2018-06-09T07:43:38.160Z</time>
      </trkpt>
      <trkpt lat="37.47953833" lon="-4.42823">
        <ele>504.0</ele>
        <time>2018-06-09T07:43:39.160Z</time>
      </trkpt>
      <trkpt lat="37.47953833" lon="-4.42823">
        <ele>504.0</ele>
        <time>2018-06-09T07:43:40.177Z</time>
      </trkpt>
      <trkpt lat="37.47957" lon="-4.42822333">
        <ele>504.0</ele>
        <time>2018-06-09T07:43:41.165Z</time>
      </trkpt>
      <trkpt lat="37.47957" lon="-4.42822333">
        <ele>504.0</ele>
        <time>2018-06-09T07:43:42.160Z</time>
      </trkpt>
      <trkpt lat="37.47959167" lon="-4.428215">
        <ele>505.0</ele>
        <time>2018-06-09T07:43:43.164Z</time>
      </trkpt>
      <trkpt lat="37.47959167" lon="-4.428215">
        <ele>505.0</ele>
        <time>2018-06-09T07:43:44.160Z</time>
      </trkpt>
      <trkpt lat="37.47961" lon="-4.42820333">
        <ele>506.0</ele>
        <time>2018-06-09T07:43:45.165Z</time>
      </trkpt>
      <trkpt lat="37.479615" lon="-4.42819667">
        <ele>507.0</ele>
        <time>2018-06-09T07:43:46.163Z</time>
      </trkpt>
      <trkpt lat="37.479615" lon="-4.42819667">
        <ele>507.0</ele>
        <time>2018-06-09T07:43:47.169Z</time>
      </trkpt>
      <trkpt lat="37.47963167" lon="-4.428195">
        <ele>508.0</ele>
        <time>2018-06-09T07:43:48.185Z</time>
      </trkpt>
      <trkpt lat="37.47963167" lon="-4.428195">
        <ele>508.0</ele>
        <time>2018-06-09T07:43:49.192Z</time>
      </trkpt>
      <trkpt lat="37.47965167" lon="-4.42819167">
        <ele>509.0</ele>
        <time>2018-06-09T07:43:50.162Z</time>
      </trkpt>
      <trkpt lat="37.47966" lon="-4.42819">
        <ele>510.0</ele>
        <time>2018-06-09T07:43:51.160Z</time>
      </trkpt>
      <trkpt lat="37.47966" lon="-4.42819">
        <ele>510.0</ele>
        <time>2018-06-09T07:43:52.159Z</time>
      </trkpt>
      <trkpt lat="37.47967833" lon="-4.42818333">
        <ele>510.0</ele>
        <time>2018-06-09T07:43:53.179Z</time>
      </trkpt>
      <trkpt lat="37.47967833" lon="-4.42818333">
        <ele>510.0</ele>
        <time>2018-06-09T07:43:54.161Z</time>
      </trkpt>
      <trkpt lat="37.47969833" lon="-4.42817667">
        <ele>511.0</ele>
        <time>2018-06-09T07:43:55.163Z</time>
      </trkpt>
      <trkpt lat="37.47969833" lon="-4.42817667">
        <ele>511.0</ele>
        <time>2018-06-09T07:43:56.158Z</time>
      </trkpt>
      <trkpt lat="37.47971833" lon="-4.42816667">
        <ele>512.0</ele>
        <time>2018-06-09T07:43:57.179Z</time>
      </trkpt>
      <trkpt lat="37.47972667" lon="-4.42816167">
        <ele>512.0</ele>
        <time>2018-06-09T07:43:58.159Z</time>
      </trkpt>
      <trkpt lat="37.47973667" lon="-4.42816">
        <ele>513.0</ele>
        <time>2018-06-09T07:43:59.179Z</time>
      </trkpt>
      <trkpt lat="37.47973667" lon="-4.42816">
        <ele>513.0</ele>
        <time>2018-06-09T07:44:00.164Z</time>
      </trkpt>
      <trkpt lat="37.47975833" lon="-4.428155">
        <ele>514.0</ele>
        <time>2018-06-09T07:44:01.160Z</time>
      </trkpt>
      <trkpt lat="37.47975833" lon="-4.428155">
        <ele>514.0</ele>
        <time>2018-06-09T07:44:02.177Z</time>
      </trkpt>
      <trkpt lat="37.47978667" lon="-4.42815">
        <ele>514.0</ele>
        <time>2018-06-09T07:44:03.161Z</time>
      </trkpt>
      <trkpt lat="37.47979667" lon="-4.42814667">
        <ele>515.0</ele>
        <time>2018-06-09T07:44:04.177Z</time>
      </trkpt>
      <trkpt lat="37.47981" lon="-4.42814">
        <ele>515.0</ele>
        <time>2018-06-09T07:44:05.165Z</time>
      </trkpt>
      <trkpt lat="37.47981" lon="-4.42814">
        <ele>515.0</ele>
        <time>2018-06-09T07:44:06.160Z</time>
      </trkpt>
      <trkpt lat="37.479835" lon="-4.428135">
        <ele>516.0</ele>
        <time>2018-06-09T07:44:07.182Z</time>
      </trkpt>
      <trkpt lat="37.47984833" lon="-4.42813">
        <ele>516.0</ele>
        <time>2018-06-09T07:44:08.162Z</time>
      </trkpt>
      <trkpt lat="37.47984833" lon="-4.42813">
        <ele>516.0</ele>
        <time>2018-06-09T07:44:09.179Z</time>
      </trkpt>
      <trkpt lat="37.47987333" lon="-4.42812333">
        <ele>517.0</ele>
        <time>2018-06-09T07:44:10.161Z</time>
      </trkpt>
      <trkpt lat="37.47987333" lon="-4.42812333">
        <ele>517.0</ele>
        <time>2018-06-09T07:44:11.177Z</time>
      </trkpt>
      <trkpt lat="37.47989167" lon="-4.42812">
        <ele>518.0</ele>
        <time>2018-06-09T07:44:12.162Z</time>
      </trkpt>
      <trkpt lat="37.47989167" lon="-4.42812">
        <ele>518.0</ele>
        <time>2018-06-09T07:44:13.178Z</time>
      </trkpt>
      <trkpt lat="37.479905" lon="-4.428115">
        <ele>518.0</ele>
        <time>2018-06-09T07:44:14.163Z</time>
      </trkpt>
      <trkpt lat="37.47991667" lon="-4.42811167">
        <ele>519.0</ele>
        <time>2018-06-09T07:44:15.159Z</time>
      </trkpt>
      <trkpt lat="37.47992833" lon="-4.42811">
        <ele>519.0</ele>
        <time>2018-06-09T07:44:16.176Z</time>
      </trkpt>
      <trkpt lat="37.47994" lon="-4.42810667">
        <ele>520.0</ele>
        <time>2018-06-09T07:44:17.165Z</time>
      </trkpt>
      <trkpt lat="37.47994" lon="-4.42810667">
        <ele>520.0</ele>
        <time>2018-06-09T07:44:18.158Z</time>
      </trkpt>
      <trkpt lat="37.47996" lon="-4.4281">
        <ele>521.0</ele>
        <time>2018-06-09T07:44:19.178Z</time>
      </trkpt>
      <trkpt lat="37.47996" lon="-4.4281">
        <ele>521.0</ele>
        <time>2018-06-09T07:44:20.160Z</time>
      </trkpt>
      <trkpt lat="37.47997833" lon="-4.428095">
        <ele>522.0</ele>
        <time>2018-06-09T07:44:21.163Z</time>
      </trkpt>
      <trkpt lat="37.47997833" lon="-4.428095">
        <ele>522.0</ele>
        <time>2018-06-09T07:44:22.179Z</time>
      </trkpt>
      <trkpt lat="37.47999667" lon="-4.42809">
        <ele>523.0</ele>
        <time>2018-06-09T07:44:23.165Z</time>
      </trkpt>
      <trkpt lat="37.47999667" lon="-4.42809">
        <ele>523.0</ele>
        <time>2018-06-09T07:44:24.160Z</time>
      </trkpt>
      <trkpt lat="37.480025" lon="-4.42808167">
        <ele>523.0</ele>
        <time>2018-06-09T07:44:25.165Z</time>
      </trkpt>
      <trkpt lat="37.480025" lon="-4.42808167">
        <ele>523.0</ele>
        <time>2018-06-09T07:44:26.195Z</time>
      </trkpt>
      <trkpt lat="37.48004833" lon="-4.42807167">
        <ele>524.0</ele>
        <time>2018-06-09T07:44:27.160Z</time>
      </trkpt>
      <trkpt lat="37.48004833" lon="-4.42807167">
        <ele>524.0</ele>
        <time>2018-06-09T07:44:28.161Z</time>
      </trkpt>
      <trkpt lat="37.48007" lon="-4.42806">
        <ele>524.0</ele>
        <time>2018-06-09T07:44:29.163Z</time>
      </trkpt>
      <trkpt lat="37.48007" lon="-4.42806">
        <ele>524.0</ele>
        <time>2018-06-09T07:44:30.160Z</time>
      </trkpt>
      <trkpt lat="37.48009667" lon="-4.42805">
        <ele>525.0</ele>
        <time>2018-06-09T07:44:31.163Z</time>
      </trkpt>
      <trkpt lat="37.48009667" lon="-4.42805">
        <ele>525.0</ele>
        <time>2018-06-09T07:44:32.160Z</time>
      </trkpt>
      <trkpt lat="37.48011833" lon="-4.42803833">
        <ele>526.0</ele>
        <time>2018-06-09T07:44:33.164Z</time>
      </trkpt>
      <trkpt lat="37.48011833" lon="-4.42803833">
        <ele>526.0</ele>
        <time>2018-06-09T07:44:34.183Z</time>
      </trkpt>
      <trkpt lat="37.48013833" lon="-4.42801833">
        <ele>527.0</ele>
        <time>2018-06-09T07:44:35.165Z</time>
      </trkpt>
      <trkpt lat="37.48013833" lon="-4.42801833">
        <ele>527.0</ele>
        <time>2018-06-09T07:44:36.158Z</time>
      </trkpt>
      <trkpt lat="37.48013667" lon="-4.42799167">
        <ele>527.0</ele>
        <time>2018-06-09T07:44:37.179Z</time>
      </trkpt>
      <trkpt lat="37.480135" lon="-4.42797667">
        <ele>527.0</ele>
        <time>2018-06-09T07:44:38.165Z</time>
      </trkpt>
      <trkpt lat="37.480135" lon="-4.42797667">
        <ele>527.0</ele>
        <time>2018-06-09T07:44:39.183Z</time>
      </trkpt>
      <trkpt lat="37.48013667" lon="-4.42795333">
        <ele>527.0</ele>
        <time>2018-06-09T07:44:40.164Z</time>
      </trkpt>
      <trkpt lat="37.48013167" lon="-4.42794167">
        <ele>527.0</ele>
        <time>2018-06-09T07:44:41.163Z</time>
      </trkpt>
      <trkpt lat="37.48013167" lon="-4.42794167">
        <ele>527.0</ele>
        <time>2018-06-09T07:44:42.179Z</time>
      </trkpt>
      <trkpt lat="37.48012" lon="-4.42792167">
        <ele>527.0</ele>
        <time>2018-06-09T07:44:43.164Z</time>
      </trkpt>
      <trkpt lat="37.48012" lon="-4.42792167">
        <ele>527.0</ele>
        <time>2018-06-09T07:44:44.183Z</time>
      </trkpt>
      <trkpt lat="37.48010833" lon="-4.42789667">
        <ele>527.0</ele>
        <time>2018-06-09T07:44:45.164Z</time>
      </trkpt>
      <trkpt lat="37.48010833" lon="-4.42789667">
        <ele>527.0</ele>
        <time>2018-06-09T07:44:46.158Z</time>
      </trkpt>
      <trkpt lat="37.48009667" lon="-4.42787">
        <ele>527.0</ele>
        <time>2018-06-09T07:44:47.173Z</time>
      </trkpt>
      <trkpt lat="37.48009667" lon="-4.42787">
        <ele>527.0</ele>
        <time>2018-06-09T07:44:48.168Z</time>
      </trkpt>
      <trkpt lat="37.48008833" lon="-4.427845">
        <ele>527.0</ele>
        <time>2018-06-09T07:44:49.166Z</time>
      </trkpt>
      <trkpt lat="37.48008833" lon="-4.427845">
        <ele>527.0</ele>
        <time>2018-06-09T07:44:50.158Z</time>
      </trkpt>
      <trkpt lat="37.48007833" lon="-4.42782">
        <ele>527.0</ele>
        <time>2018-06-09T07:44:51.178Z</time>
      </trkpt>
      <trkpt lat="37.48007833" lon="-4.42782">
        <ele>527.0</ele>
        <time>2018-06-09T07:44:52.160Z</time>
      </trkpt>
      <trkpt lat="37.480075" lon="-4.42779">
        <ele>527.0</ele>
        <time>2018-06-09T07:44:53.180Z</time>
      </trkpt>
      <trkpt lat="37.480075" lon="-4.42779">
        <ele>527.0</ele>
        <time>2018-06-09T07:44:54.157Z</time>
      </trkpt>
      <trkpt lat="37.48008333" lon="-4.42775667">
        <ele>527.0</ele>
        <time>2018-06-09T07:44:55.178Z</time>
      </trkpt>
      <trkpt lat="37.48008333" lon="-4.42775667">
        <ele>527.0</ele>
        <time>2018-06-09T07:44:56.160Z</time>
      </trkpt>
      <trkpt lat="37.48008833" lon="-4.427725">
        <ele>527.0</ele>
        <time>2018-06-09T07:44:57.183Z</time>
      </trkpt>
      <trkpt lat="37.48008833" lon="-4.427725">
        <ele>527.0</ele>
        <time>2018-06-09T07:44:58.160Z</time>
      </trkpt>
      <trkpt lat="37.48010167" lon="-4.42769667">
        <ele>528.0</ele>
        <time>2018-06-09T07:44:59.180Z</time>
      </trkpt>
      <trkpt lat="37.48010167" lon="-4.42769667">
        <ele>528.0</ele>
        <time>2018-06-09T07:45:00.157Z</time>
      </trkpt>
      <trkpt lat="37.48012333" lon="-4.427675">
        <ele>528.0</ele>
        <time>2018-06-09T07:45:01.177Z</time>
      </trkpt>
      <trkpt lat="37.48012333" lon="-4.427675">
        <ele>528.0</ele>
        <time>2018-06-09T07:45:02.158Z</time>
      </trkpt>
      <trkpt lat="37.48015167" lon="-4.42766167">
        <ele>528.0</ele>
        <time>2018-06-09T07:45:03.178Z</time>
      </trkpt>
      <trkpt lat="37.480165" lon="-4.42765333">
        <ele>528.0</ele>
        <time>2018-06-09T07:45:04.164Z</time>
      </trkpt>
      <trkpt lat="37.480165" lon="-4.42765333">
        <ele>528.0</ele>
        <time>2018-06-09T07:45:05.180Z</time>
      </trkpt>
      <trkpt lat="37.48018833" lon="-4.42763333">
        <ele>528.0</ele>
        <time>2018-06-09T07:45:06.161Z</time>
      </trkpt>
      <trkpt lat="37.4802" lon="-4.42762333">
        <ele>528.0</ele>
        <time>2018-06-09T07:45:07.191Z</time>
      </trkpt>
      <trkpt lat="37.4802" lon="-4.42762333">
        <ele>528.0</ele>
        <time>2018-06-09T07:45:08.176Z</time>
      </trkpt>
      <trkpt lat="37.480225" lon="-4.427605">
        <ele>528.0</ele>
        <time>2018-06-09T07:45:09.164Z</time>
      </trkpt>
      <trkpt lat="37.48023833" lon="-4.42759667">
        <ele>529.0</ele>
        <time>2018-06-09T07:45:10.163Z</time>
      </trkpt>
      <trkpt lat="37.48025167" lon="-4.42759167">
        <ele>529.0</ele>
        <time>2018-06-09T07:45:11.180Z</time>
      </trkpt>
      <trkpt lat="37.480265" lon="-4.42758833">
        <ele>529.0</ele>
        <time>2018-06-09T07:45:12.165Z</time>
      </trkpt>
      <trkpt lat="37.48027833" lon="-4.427585">
        <ele>529.0</ele>
        <time>2018-06-09T07:45:13.164Z</time>
      </trkpt>
      <trkpt lat="37.48027833" lon="-4.427585">
        <ele>529.0</ele>
        <time>2018-06-09T07:45:14.181Z</time>
      </trkpt>
      <trkpt lat="37.48030333" lon="-4.42758667">
        <ele>529.0</ele>
        <time>2018-06-09T07:45:15.164Z</time>
      </trkpt>
      <trkpt lat="37.48030333" lon="-4.42758667">
        <ele>529.0</ele>
        <time>2018-06-09T07:45:16.179Z</time>
      </trkpt>
      <trkpt lat="37.48032667" lon="-4.42759167">
        <ele>530.0</ele>
        <time>2018-06-09T07:45:17.165Z</time>
      </trkpt>
      <trkpt lat="37.48032667" lon="-4.42759167">
        <ele>530.0</ele>
        <time>2018-06-09T07:45:18.183Z</time>
      </trkpt>
      <trkpt lat="37.48035167" lon="-4.42760167">
        <ele>530.0</ele>
        <time>2018-06-09T07:45:19.165Z</time>
      </trkpt>
      <trkpt lat="37.48035167" lon="-4.42760167">
        <ele>530.0</ele>
        <time>2018-06-09T07:45:20.158Z</time>
      </trkpt>
      <trkpt lat="37.48037833" lon="-4.42761333">
        <ele>530.0</ele>
        <time>2018-06-09T07:45:21.178Z</time>
      </trkpt>
      <trkpt lat="37.48038833" lon="-4.42762">
        <ele>530.0</ele>
        <time>2018-06-09T07:45:22.163Z</time>
      </trkpt>
      <trkpt lat="37.48040167" lon="-4.42763">
        <ele>530.0</ele>
        <time>2018-06-09T07:45:23.165Z</time>
      </trkpt>
      <trkpt lat="37.48040167" lon="-4.42763">
        <ele>530.0</ele>
        <time>2018-06-09T07:45:24.160Z</time>
      </trkpt>
      <trkpt lat="37.48042333" lon="-4.427655">
        <ele>530.0</ele>
        <time>2018-06-09T07:45:25.178Z</time>
      </trkpt>
      <trkpt lat="37.48042333" lon="-4.427655">
        <ele>530.0</ele>
        <time>2018-06-09T07:45:26.158Z</time>
      </trkpt>
      <trkpt lat="37.480445" lon="-4.427675">
        <ele>530.0</ele>
        <time>2018-06-09T07:45:27.161Z</time>
      </trkpt>
      <trkpt lat="37.480445" lon="-4.427675">
        <ele>530.0</ele>
        <time>2018-06-09T07:45:28.184Z</time>
      </trkpt>
      <trkpt lat="37.48046833" lon="-4.42769333">
        <ele>530.0</ele>
        <time>2018-06-09T07:45:29.173Z</time>
      </trkpt>
      <trkpt lat="37.48046833" lon="-4.42769333">
        <ele>530.0</ele>
        <time>2018-06-09T07:45:30.161Z</time>
      </trkpt>
      <trkpt lat="37.48049333" lon="-4.42770833">
        <ele>531.0</ele>
        <time>2018-06-09T07:45:31.166Z</time>
      </trkpt>
      <trkpt lat="37.48049333" lon="-4.42770833">
        <ele>531.0</ele>
        <time>2018-06-09T07:45:32.161Z</time>
      </trkpt>
      <trkpt lat="37.480515" lon="-4.42772667">
        <ele>531.0</ele>
        <time>2018-06-09T07:45:33.165Z</time>
      </trkpt>
      <trkpt lat="37.480515" lon="-4.42772667">
        <ele>531.0</ele>
        <time>2018-06-09T07:45:34.183Z</time>
      </trkpt>
      <trkpt lat="37.48054167" lon="-4.42773833">
        <ele>532.0</ele>
        <time>2018-06-09T07:45:35.165Z</time>
      </trkpt>
      <trkpt lat="37.48054167" lon="-4.42773833">
        <ele>532.0</ele>
        <time>2018-06-09T07:45:36.161Z</time>
      </trkpt>
      <trkpt lat="37.48057" lon="-4.42774833">
        <ele>532.0</ele>
        <time>2018-06-09T07:45:37.184Z</time>
      </trkpt>
      <trkpt lat="37.48057" lon="-4.42774833">
        <ele>532.0</ele>
        <time>2018-06-09T07:45:38.162Z</time>
      </trkpt>
      <trkpt lat="37.48059333" lon="-4.42776167">
        <ele>532.0</ele>
        <time>2018-06-09T07:45:39.184Z</time>
      </trkpt>
      <trkpt lat="37.48060833" lon="-4.427765">
        <ele>532.0</ele>
        <time>2018-06-09T07:45:40.166Z</time>
      </trkpt>
      <trkpt lat="37.480625" lon="-4.42776667">
        <ele>533.0</ele>
        <time>2018-06-09T07:45:41.163Z</time>
      </trkpt>
      <trkpt lat="37.480625" lon="-4.42776667">
        <ele>533.0</ele>
        <time>2018-06-09T07:45:42.179Z</time>
      </trkpt>
      <trkpt lat="37.480655" lon="-4.42776833">
        <ele>533.0</ele>
        <time>2018-06-09T07:45:43.164Z</time>
      </trkpt>
      <trkpt lat="37.480655" lon="-4.42776833">
        <ele>533.0</ele>
        <time>2018-06-09T07:45:44.161Z</time>
      </trkpt>
      <trkpt lat="37.480685" lon="-4.42776333">
        <ele>533.0</ele>
        <time>2018-06-09T07:45:45.161Z</time>
      </trkpt>
      <trkpt lat="37.480685" lon="-4.42776333">
        <ele>533.0</ele>
        <time>2018-06-09T07:45:46.180Z</time>
      </trkpt>
      <trkpt lat="37.48071333" lon="-4.42776">
        <ele>533.0</ele>
        <time>2018-06-09T07:45:47.165Z</time>
      </trkpt>
      <trkpt lat="37.48071333" lon="-4.42776">
        <ele>533.0</ele>
        <time>2018-06-09T07:45:48.160Z</time>
      </trkpt>
      <trkpt lat="37.48074" lon="-4.427755">
        <ele>534.0</ele>
        <time>2018-06-09T07:45:49.179Z</time>
      </trkpt>
      <trkpt lat="37.48074" lon="-4.427755">
        <ele>534.0</ele>
        <time>2018-06-09T07:45:50.160Z</time>
      </trkpt>
      <trkpt lat="37.480765" lon="-4.42775">
        <ele>534.0</ele>
        <time>2018-06-09T07:45:51.165Z</time>
      </trkpt>
      <trkpt lat="37.480765" lon="-4.42775">
        <ele>534.0</ele>
        <time>2018-06-09T07:45:52.191Z</time>
      </trkpt>
      <trkpt lat="37.480795" lon="-4.427745">
        <ele>535.0</ele>
        <time>2018-06-09T07:45:53.173Z</time>
      </trkpt>
      <trkpt lat="37.480795" lon="-4.427745">
        <ele>535.0</ele>
        <time>2018-06-09T07:45:54.159Z</time>
      </trkpt>
      <trkpt lat="37.48082167" lon="-4.42774">
        <ele>535.0</ele>
        <time>2018-06-09T07:45:55.180Z</time>
      </trkpt>
      <trkpt lat="37.48082167" lon="-4.42774">
        <ele>535.0</ele>
        <time>2018-06-09T07:45:56.159Z</time>
      </trkpt>
      <trkpt lat="37.48085" lon="-4.42774333">
        <ele>535.0</ele>
        <time>2018-06-09T07:45:57.180Z</time>
      </trkpt>
      <trkpt lat="37.48085" lon="-4.42774333">
        <ele>535.0</ele>
        <time>2018-06-09T07:45:58.159Z</time>
      </trkpt>
      <trkpt lat="37.48087667" lon="-4.42774833">
        <ele>536.0</ele>
        <time>2018-06-09T07:45:59.179Z</time>
      </trkpt>
      <trkpt lat="37.48089167" lon="-4.42775">
        <ele>536.0</ele>
        <time>2018-06-09T07:46:00.165Z</time>
      </trkpt>
      <trkpt lat="37.480905" lon="-4.427755">
        <ele>536.0</ele>
        <time>2018-06-09T07:46:01.164Z</time>
      </trkpt>
      <trkpt lat="37.480905" lon="-4.427755">
        <ele>536.0</ele>
        <time>2018-06-09T07:46:02.158Z</time>
      </trkpt>
      <trkpt lat="37.48093333" lon="-4.42776">
        <ele>536.0</ele>
        <time>2018-06-09T07:46:03.178Z</time>
      </trkpt>
      <trkpt lat="37.48093333" lon="-4.42776">
        <ele>536.0</ele>
        <time>2018-06-09T07:46:04.159Z</time>
      </trkpt>
      <trkpt lat="37.48096167" lon="-4.42776">
        <ele>537.0</ele>
        <time>2018-06-09T07:46:05.181Z</time>
      </trkpt>
      <trkpt lat="37.48096167" lon="-4.42776">
        <ele>537.0</ele>
        <time>2018-06-09T07:46:06.161Z</time>
      </trkpt>
      <trkpt lat="37.48098667" lon="-4.427765">
        <ele>537.0</ele>
        <time>2018-06-09T07:46:07.184Z</time>
      </trkpt>
      <trkpt lat="37.48100167" lon="-4.42776333">
        <ele>537.0</ele>
        <time>2018-06-09T07:46:08.180Z</time>
      </trkpt>
      <trkpt lat="37.48100167" lon="-4.42776333">
        <ele>537.0</ele>
        <time>2018-06-09T07:46:09.160Z</time>
      </trkpt>
      <trkpt lat="37.48102833" lon="-4.42775333">
        <ele>537.0</ele>
        <time>2018-06-09T07:46:10.180Z</time>
      </trkpt>
      <trkpt lat="37.48104167" lon="-4.42774667">
        <ele>538.0</ele>
        <time>2018-06-09T07:46:11.165Z</time>
      </trkpt>
      <trkpt lat="37.48104167" lon="-4.42774667">
        <ele>538.0</ele>
        <time>2018-06-09T07:46:12.159Z</time>
      </trkpt>
      <trkpt lat="37.48106833" lon="-4.42773167">
        <ele>538.0</ele>
        <time>2018-06-09T07:46:13.181Z</time>
      </trkpt>
      <trkpt lat="37.48106833" lon="-4.42773167">
        <ele>538.0</ele>
        <time>2018-06-09T07:46:14.161Z</time>
      </trkpt>
      <trkpt lat="37.481095" lon="-4.42772333">
        <ele>539.0</ele>
        <time>2018-06-09T07:46:15.179Z</time>
      </trkpt>
      <trkpt lat="37.48110833" lon="-4.42772667">
        <ele>539.0</ele>
        <time>2018-06-09T07:46:16.165Z</time>
      </trkpt>
      <trkpt lat="37.48110833" lon="-4.42772667">
        <ele>539.0</ele>
        <time>2018-06-09T07:46:17.180Z</time>
      </trkpt>
      <trkpt lat="37.48113333" lon="-4.42772667">
        <ele>540.0</ele>
        <time>2018-06-09T07:46:18.168Z</time>
      </trkpt>
      <trkpt lat="37.48113333" lon="-4.42772667">
        <ele>540.0</ele>
        <time>2018-06-09T07:46:19.162Z</time>
      </trkpt>
      <trkpt lat="37.48116" lon="-4.42773167">
        <ele>541.0</ele>
        <time>2018-06-09T07:46:20.184Z</time>
      </trkpt>
      <trkpt lat="37.48116" lon="-4.42773167">
        <ele>541.0</ele>
        <time>2018-06-09T07:46:21.162Z</time>
      </trkpt>
      <trkpt lat="37.48118667" lon="-4.42774333">
        <ele>541.0</ele>
        <time>2018-06-09T07:46:22.160Z</time>
      </trkpt>
      <trkpt lat="37.48119833" lon="-4.42775167">
        <ele>542.0</ele>
        <time>2018-06-09T07:46:23.166Z</time>
      </trkpt>
      <trkpt lat="37.48119833" lon="-4.42775167">
        <ele>542.0</ele>
        <time>2018-06-09T07:46:24.159Z</time>
      </trkpt>
      <trkpt lat="37.48122333" lon="-4.42776667">
        <ele>542.0</ele>
        <time>2018-06-09T07:46:25.179Z</time>
      </trkpt>
      <trkpt lat="37.48122333" lon="-4.42776667">
        <ele>542.0</ele>
        <time>2018-06-09T07:46:26.161Z</time>
      </trkpt>
      <trkpt lat="37.48124667" lon="-4.42778667">
        <ele>542.0</ele>
        <time>2018-06-09T07:46:27.161Z</time>
      </trkpt>
      <trkpt lat="37.48125833" lon="-4.4278">
        <ele>542.0</ele>
        <time>2018-06-09T07:46:28.178Z</time>
      </trkpt>
      <trkpt lat="37.48125833" lon="-4.4278">
        <ele>542.0</ele>
        <time>2018-06-09T07:46:29.178Z</time>
      </trkpt>
      <trkpt lat="37.48128167" lon="-4.42782333">
        <ele>542.0</ele>
        <time>2018-06-09T07:46:30.163Z</time>
      </trkpt>
      <trkpt lat="37.48129333" lon="-4.42783333">
        <ele>542.0</ele>
        <time>2018-06-09T07:46:31.164Z</time>
      </trkpt>
      <trkpt lat="37.48129333" lon="-4.42783333">
        <ele>542.0</ele>
        <time>2018-06-09T07:46:32.160Z</time>
      </trkpt>
      <trkpt lat="37.48131833" lon="-4.42785333">
        <ele>542.0</ele>
        <time>2018-06-09T07:46:33.178Z</time>
      </trkpt>
      <trkpt lat="37.48131833" lon="-4.42785333">
        <ele>542.0</ele>
        <time>2018-06-09T07:46:34.172Z</time>
      </trkpt>
      <trkpt lat="37.481345" lon="-4.42787">
        <ele>543.0</ele>
        <time>2018-06-09T07:46:35.165Z</time>
      </trkpt>
      <trkpt lat="37.481345" lon="-4.42787">
        <ele>543.0</ele>
        <time>2018-06-09T07:46:36.160Z</time>
      </trkpt>
      <trkpt lat="37.48137333" lon="-4.42788333">
        <ele>543.0</ele>
        <time>2018-06-09T07:46:37.184Z</time>
      </trkpt>
      <trkpt lat="37.48137333" lon="-4.42788333">
        <ele>543.0</ele>
        <time>2018-06-09T07:46:38.161Z</time>
      </trkpt>
      <trkpt lat="37.4814" lon="-4.42789167">
        <ele>543.0</ele>
        <time>2018-06-09T07:46:39.183Z</time>
      </trkpt>
      <trkpt lat="37.481415" lon="-4.42789667">
        <ele>543.0</ele>
        <time>2018-06-09T07:46:40.164Z</time>
      </trkpt>
      <trkpt lat="37.48142833" lon="-4.42790167">
        <ele>543.0</ele>
        <time>2018-06-09T07:46:41.179Z</time>
      </trkpt>
      <trkpt lat="37.48142833" lon="-4.42790167">
        <ele>543.0</ele>
        <time>2018-06-09T07:46:42.160Z</time>
      </trkpt>
      <trkpt lat="37.48146" lon="-4.42790333">
        <ele>544.0</ele>
        <time>2018-06-09T07:46:43.163Z</time>
      </trkpt>
      <trkpt lat="37.481475" lon="-4.42790667">
        <ele>544.0</ele>
        <time>2018-06-09T07:46:44.164Z</time>
      </trkpt>
      <trkpt lat="37.481475" lon="-4.42790667">
        <ele>544.0</ele>
        <time>2018-06-09T07:46:45.160Z</time>
      </trkpt>
      <trkpt lat="37.481505" lon="-4.42791333">
        <ele>544.0</ele>
        <time>2018-06-09T07:46:46.180Z</time>
      </trkpt>
      <trkpt lat="37.481505" lon="-4.42791333">
        <ele>544.0</ele>
        <time>2018-06-09T07:46:47.166Z</time>
      </trkpt>
      <trkpt lat="37.48153333" lon="-4.42793">
        <ele>545.0</ele>
        <time>2018-06-09T07:46:48.165Z</time>
      </trkpt>
      <trkpt lat="37.48153333" lon="-4.42793">
        <ele>545.0</ele>
        <time>2018-06-09T07:46:49.159Z</time>
      </trkpt>
      <trkpt lat="37.48156333" lon="-4.42793667">
        <ele>545.0</ele>
        <time>2018-06-09T07:46:50.180Z</time>
      </trkpt>
      <trkpt lat="37.48156333" lon="-4.42793667">
        <ele>545.0</ele>
        <time>2018-06-09T07:46:51.159Z</time>
      </trkpt>
      <trkpt lat="37.48159" lon="-4.42794">
        <ele>545.0</ele>
        <time>2018-06-09T07:46:52.163Z</time>
      </trkpt>
      <trkpt lat="37.48160333" lon="-4.42794">
        <ele>546.0</ele>
        <time>2018-06-09T07:46:53.179Z</time>
      </trkpt>
      <trkpt lat="37.48160333" lon="-4.42794">
        <ele>546.0</ele>
        <time>2018-06-09T07:46:54.161Z</time>
      </trkpt>
      <trkpt lat="37.48163333" lon="-4.42794">
        <ele>546.0</ele>
        <time>2018-06-09T07:46:55.161Z</time>
      </trkpt>
      <trkpt lat="37.48163333" lon="-4.42794">
        <ele>546.0</ele>
        <time>2018-06-09T07:46:56.178Z</time>
      </trkpt>
      <trkpt lat="37.48166" lon="-4.42794333">
        <ele>546.0</ele>
        <time>2018-06-09T07:46:57.164Z</time>
      </trkpt>
      <trkpt lat="37.48167333" lon="-4.42794167">
        <ele>547.0</ele>
        <time>2018-06-09T07:46:58.164Z</time>
      </trkpt>
      <trkpt lat="37.48167333" lon="-4.42794167">
        <ele>547.0</ele>
        <time>2018-06-09T07:46:59.180Z</time>
      </trkpt>
      <trkpt lat="37.48170167" lon="-4.42794167">
        <ele>547.0</ele>
        <time>2018-06-09T07:47:00.163Z</time>
      </trkpt>
      <trkpt lat="37.48171667" lon="-4.42794333">
        <ele>547.0</ele>
        <time>2018-06-09T07:47:01.164Z</time>
      </trkpt>
      <trkpt lat="37.48171667" lon="-4.42794333">
        <ele>547.0</ele>
        <time>2018-06-09T07:47:02.180Z</time>
      </trkpt>
      <trkpt lat="37.481745" lon="-4.427945">
        <ele>548.0</ele>
        <time>2018-06-09T07:47:03.160Z</time>
      </trkpt>
      <trkpt lat="37.481745" lon="-4.427945">
        <ele>548.0</ele>
        <time>2018-06-09T07:47:04.180Z</time>
      </trkpt>
      <trkpt lat="37.48177667" lon="-4.42794333">
        <ele>548.0</ele>
        <time>2018-06-09T07:47:05.165Z</time>
      </trkpt>
      <trkpt lat="37.48177667" lon="-4.42794333">
        <ele>548.0</ele>
        <time>2018-06-09T07:47:06.161Z</time>
      </trkpt>
      <trkpt lat="37.48180833" lon="-4.42793833">
        <ele>548.0</ele>
        <time>2018-06-09T07:47:07.184Z</time>
      </trkpt>
      <trkpt lat="37.48180833" lon="-4.42793833">
        <ele>548.0</ele>
        <time>2018-06-09T07:47:08.161Z</time>
      </trkpt>
      <trkpt lat="37.48183833" lon="-4.42793167">
        <ele>548.0</ele>
        <time>2018-06-09T07:47:09.184Z</time>
      </trkpt>
      <trkpt lat="37.48185333" lon="-4.42793167">
        <ele>549.0</ele>
        <time>2018-06-09T07:47:10.165Z</time>
      </trkpt>
      <trkpt lat="37.48186833" lon="-4.42793167">
        <ele>549.0</ele>
        <time>2018-06-09T07:47:11.181Z</time>
      </trkpt>
      <trkpt lat="37.48186833" lon="-4.42793167">
        <ele>549.0</ele>
        <time>2018-06-09T07:47:12.159Z</time>
      </trkpt>
      <trkpt lat="37.48189667" lon="-4.42792833">
        <ele>549.0</ele>
        <time>2018-06-09T07:47:13.180Z</time>
      </trkpt>
      <trkpt lat="37.48189667" lon="-4.42792833">
        <ele>549.0</ele>
        <time>2018-06-09T07:47:14.158Z</time>
      </trkpt>
      <trkpt lat="37.48192667" lon="-4.42792333">
        <ele>549.0</ele>
        <time>2018-06-09T07:47:15.178Z</time>
      </trkpt>
      <trkpt lat="37.48192667" lon="-4.42792333">
        <ele>549.0</ele>
        <time>2018-06-09T07:47:16.160Z</time>
      </trkpt>
      <trkpt lat="37.48195667" lon="-4.42791667">
        <ele>550.0</ele>
        <time>2018-06-09T07:47:17.180Z</time>
      </trkpt>
      <trkpt lat="37.48197167" lon="-4.42791333">
        <ele>550.0</ele>
        <time>2018-06-09T07:47:18.165Z</time>
      </trkpt>
      <trkpt lat="37.48197167" lon="-4.42791333">
        <ele>550.0</ele>
        <time>2018-06-09T07:47:19.184Z</time>
      </trkpt>
      <trkpt lat="37.48200333" lon="-4.42790667">
        <ele>550.0</ele>
        <time>2018-06-09T07:47:20.164Z</time>
      </trkpt>
      <trkpt lat="37.48201833" lon="-4.42790333">
        <ele>550.0</ele>
        <time>2018-06-09T07:47:21.180Z</time>
      </trkpt>
      <trkpt lat="37.48201833" lon="-4.42790333">
        <ele>550.0</ele>
        <time>2018-06-09T07:47:22.160Z</time>
      </trkpt>
      <trkpt lat="37.48204833" lon="-4.42790833">
        <ele>551.0</ele>
        <time>2018-06-09T07:47:23.165Z</time>
      </trkpt>
      <trkpt lat="37.48204833" lon="-4.42790833">
        <ele>551.0</ele>
        <time>2018-06-09T07:47:24.183Z</time>
      </trkpt>
      <trkpt lat="37.48207667" lon="-4.42790833">
        <ele>551.0</ele>
        <time>2018-06-09T07:47:25.165Z</time>
      </trkpt>
      <trkpt lat="37.48207667" lon="-4.42790833">
        <ele>551.0</ele>
        <time>2018-06-09T07:47:26.180Z</time>
      </trkpt>
      <trkpt lat="37.482105" lon="-4.42790167">
        <ele>551.0</ele>
        <time>2018-06-09T07:47:27.163Z</time>
      </trkpt>
      <trkpt lat="37.48211667" lon="-4.427895">
        <ele>552.0</ele>
        <time>2018-06-09T07:47:28.188Z</time>
      </trkpt>
      <trkpt lat="37.48211667" lon="-4.427895">
        <ele>552.0</ele>
        <time>2018-06-09T07:47:29.165Z</time>
      </trkpt>
      <trkpt lat="37.48214333" lon="-4.427885">
        <ele>552.0</ele>
        <time>2018-06-09T07:47:30.160Z</time>
      </trkpt>
      <trkpt lat="37.48215667" lon="-4.42788">
        <ele>552.0</ele>
        <time>2018-06-09T07:47:31.176Z</time>
      </trkpt>
      <trkpt lat="37.48215667" lon="-4.42788">
        <ele>552.0</ele>
        <time>2018-06-09T07:47:32.159Z</time>
      </trkpt>
      <trkpt lat="37.48218167" lon="-4.42787">
        <ele>553.0</ele>
        <time>2018-06-09T07:47:33.185Z</time>
      </trkpt>
      <trkpt lat="37.48218167" lon="-4.42787">
        <ele>553.0</ele>
        <time>2018-06-09T07:47:34.164Z</time>
      </trkpt>
      <trkpt lat="37.482205" lon="-4.427855">
        <ele>553.0</ele>
        <time>2018-06-09T07:47:35.165Z</time>
      </trkpt>
      <trkpt lat="37.482205" lon="-4.427855">
        <ele>553.0</ele>
        <time>2018-06-09T07:47:36.159Z</time>
      </trkpt>
      <trkpt lat="37.48223167" lon="-4.427845">
        <ele>553.0</ele>
        <time>2018-06-09T07:47:37.180Z</time>
      </trkpt>
      <trkpt lat="37.482245" lon="-4.42784167">
        <ele>553.0</ele>
        <time>2018-06-09T07:47:38.165Z</time>
      </trkpt>
      <trkpt lat="37.482245" lon="-4.42784167">
        <ele>553.0</ele>
        <time>2018-06-09T07:47:39.180Z</time>
      </trkpt>
      <trkpt lat="37.48227333" lon="-4.42783333">
        <ele>554.0</ele>
        <time>2018-06-09T07:47:40.163Z</time>
      </trkpt>
      <trkpt lat="37.48228667" lon="-4.42783333">
        <ele>554.0</ele>
        <time>2018-06-09T07:47:41.181Z</time>
      </trkpt>
      <trkpt lat="37.4823" lon="-4.427835">
        <ele>554.0</ele>
        <time>2018-06-09T07:47:42.165Z</time>
      </trkpt>
      <trkpt lat="37.4823" lon="-4.427835">
        <ele>554.0</ele>
        <time>2018-06-09T07:47:43.163Z</time>
      </trkpt>
      <trkpt lat="37.48232833" lon="-4.42783667">
        <ele>554.0</ele>
        <time>2018-06-09T07:47:44.184Z</time>
      </trkpt>
      <trkpt lat="37.48234333" lon="-4.427835">
        <ele>555.0</ele>
        <time>2018-06-09T07:47:45.178Z</time>
      </trkpt>
      <trkpt lat="37.48234333" lon="-4.427835">
        <ele>555.0</ele>
        <time>2018-06-09T07:47:46.196Z</time>
      </trkpt>
      <trkpt lat="37.48237" lon="-4.42783167">
        <ele>555.0</ele>
        <time>2018-06-09T07:47:47.165Z</time>
      </trkpt>
      <trkpt lat="37.48237" lon="-4.42783167">
        <ele>555.0</ele>
        <time>2018-06-09T07:47:48.170Z</time>
      </trkpt>
      <trkpt lat="37.48239833" lon="-4.42782167">
        <ele>555.0</ele>
        <time>2018-06-09T07:47:49.164Z</time>
      </trkpt>
      <trkpt lat="37.48241167" lon="-4.427815">
        <ele>556.0</ele>
        <time>2018-06-09T07:47:50.163Z</time>
      </trkpt>
      <trkpt lat="37.48241167" lon="-4.427815">
        <ele>556.0</ele>
        <time>2018-06-09T07:47:51.179Z</time>
      </trkpt>
      <trkpt lat="37.48243833" lon="-4.427805">
        <ele>556.0</ele>
        <time>2018-06-09T07:47:52.162Z</time>
      </trkpt>
      <trkpt lat="37.48245167" lon="-4.42779833">
        <ele>556.0</ele>
        <time>2018-06-09T07:47:53.178Z</time>
      </trkpt>
      <trkpt lat="37.48246667" lon="-4.42779333">
        <ele>556.0</ele>
        <time>2018-06-09T07:47:54.166Z</time>
      </trkpt>
      <trkpt lat="37.48248" lon="-4.42778667">
        <ele>557.0</ele>
        <time>2018-06-09T07:47:55.164Z</time>
      </trkpt>
      <trkpt lat="37.48248" lon="-4.42778667">
        <ele>557.0</ele>
        <time>2018-06-09T07:47:56.158Z</time>
      </trkpt>
      <trkpt lat="37.48250667" lon="-4.42777833">
        <ele>557.0</ele>
        <time>2018-06-09T07:47:57.179Z</time>
      </trkpt>
      <trkpt lat="37.48252167" lon="-4.42777333">
        <ele>557.0</ele>
        <time>2018-06-09T07:47:58.164Z</time>
      </trkpt>
      <trkpt lat="37.48252167" lon="-4.42777333">
        <ele>557.0</ele>
        <time>2018-06-09T07:47:59.181Z</time>
      </trkpt>
      <trkpt lat="37.48254833" lon="-4.42776333">
        <ele>558.0</ele>
        <time>2018-06-09T07:48:00.160Z</time>
      </trkpt>
      <trkpt lat="37.48256167" lon="-4.42775833">
        <ele>558.0</ele>
        <time>2018-06-09T07:48:01.178Z</time>
      </trkpt>
      <trkpt lat="37.48256167" lon="-4.42775833">
        <ele>558.0</ele>
        <time>2018-06-09T07:48:02.162Z</time>
      </trkpt>
      <trkpt lat="37.48258833" lon="-4.42775">
        <ele>558.0</ele>
        <time>2018-06-09T07:48:03.162Z</time>
      </trkpt>
      <trkpt lat="37.48258833" lon="-4.42775">
        <ele>558.0</ele>
        <time>2018-06-09T07:48:04.178Z</time>
      </trkpt>
      <trkpt lat="37.482615" lon="-4.42774">
        <ele>559.0</ele>
        <time>2018-06-09T07:48:05.166Z</time>
      </trkpt>
      <trkpt lat="37.482615" lon="-4.42774">
        <ele>559.0</ele>
        <time>2018-06-09T07:48:06.163Z</time>
      </trkpt>
      <trkpt lat="37.48264167" lon="-4.42773333">
        <ele>559.0</ele>
        <time>2018-06-09T07:48:07.188Z</time>
      </trkpt>
      <trkpt lat="37.48264167" lon="-4.42773333">
        <ele>559.0</ele>
        <time>2018-06-09T07:48:08.163Z</time>
      </trkpt>
      <trkpt lat="37.48266833" lon="-4.42772333">
        <ele>559.0</ele>
        <time>2018-06-09T07:48:09.184Z</time>
      </trkpt>
      <trkpt lat="37.48268333" lon="-4.42772">
        <ele>560.0</ele>
        <time>2018-06-09T07:48:10.175Z</time>
      </trkpt>
      <trkpt lat="37.48269833" lon="-4.427715">
        <ele>560.0</ele>
        <time>2018-06-09T07:48:11.163Z</time>
      </trkpt>
      <trkpt lat="37.48269833" lon="-4.427715">
        <ele>560.0</ele>
        <time>2018-06-09T07:48:12.179Z</time>
      </trkpt>
      <trkpt lat="37.48272833" lon="-4.42770667">
        <ele>560.0</ele>
        <time>2018-06-09T07:48:13.165Z</time>
      </trkpt>
      <trkpt lat="37.48272833" lon="-4.42770667">
        <ele>560.0</ele>
        <time>2018-06-09T07:48:14.180Z</time>
      </trkpt>
      <trkpt lat="37.48275833" lon="-4.427705">
        <ele>561.0</ele>
        <time>2018-06-09T07:48:15.165Z</time>
      </trkpt>
      <trkpt lat="37.48275833" lon="-4.427705">
        <ele>561.0</ele>
        <time>2018-06-09T07:48:16.181Z</time>
      </trkpt>
      <trkpt lat="37.48278667" lon="-4.42770833">
        <ele>561.0</ele>
        <time>2018-06-09T07:48:17.165Z</time>
      </trkpt>
      <trkpt lat="37.48278667" lon="-4.42770833">
        <ele>561.0</ele>
        <time>2018-06-09T07:48:18.180Z</time>
      </trkpt>
      <trkpt lat="37.48282" lon="-4.42771">
        <ele>562.0</ele>
        <time>2018-06-09T07:48:19.165Z</time>
      </trkpt>
      <trkpt lat="37.48282" lon="-4.42771">
        <ele>562.0</ele>
        <time>2018-06-09T07:48:20.180Z</time>
      </trkpt>
      <trkpt lat="37.48285" lon="-4.427705">
        <ele>562.0</ele>
        <time>2018-06-09T07:48:21.161Z</time>
      </trkpt>
      <trkpt lat="37.48285" lon="-4.427705">
        <ele>562.0</ele>
        <time>2018-06-09T07:48:22.181Z</time>
      </trkpt>
      <trkpt lat="37.48287833" lon="-4.42769833">
        <ele>562.0</ele>
        <time>2018-06-09T07:48:23.166Z</time>
      </trkpt>
      <trkpt lat="37.48287833" lon="-4.42769833">
        <ele>562.0</ele>
        <time>2018-06-09T07:48:24.183Z</time>
      </trkpt>
      <trkpt lat="37.48290833" lon="-4.42768667">
        <ele>562.0</ele>
        <time>2018-06-09T07:48:25.165Z</time>
      </trkpt>
      <trkpt lat="37.48290833" lon="-4.42768667">
        <ele>562.0</ele>
        <time>2018-06-09T07:48:26.180Z</time>
      </trkpt>
      <trkpt lat="37.48293833" lon="-4.42767833">
        <ele>563.0</ele>
        <time>2018-06-09T07:48:27.161Z</time>
      </trkpt>
      <trkpt lat="37.48295333" lon="-4.42767333">
        <ele>563.0</ele>
        <time>2018-06-09T07:48:28.191Z</time>
      </trkpt>
      <trkpt lat="37.48296833" lon="-4.42766667">
        <ele>563.0</ele>
        <time>2018-06-09T07:48:29.168Z</time>
      </trkpt>
      <trkpt lat="37.48296833" lon="-4.42766667">
        <ele>563.0</ele>
        <time>2018-06-09T07:48:30.164Z</time>
      </trkpt>
      <trkpt lat="37.483" lon="-4.42765667">
        <ele>563.0</ele>
        <time>2018-06-09T07:48:31.165Z</time>
      </trkpt>
      <trkpt lat="37.483" lon="-4.42765667">
        <ele>563.0</ele>
        <time>2018-06-09T07:48:32.181Z</time>
      </trkpt>
      <trkpt lat="37.48303" lon="-4.42764667">
        <ele>564.0</ele>
        <time>2018-06-09T07:48:33.165Z</time>
      </trkpt>
      <trkpt lat="37.48303" lon="-4.42764667">
        <ele>564.0</ele>
        <time>2018-06-09T07:48:34.160Z</time>
      </trkpt>
      <trkpt lat="37.48305833" lon="-4.42763333">
        <ele>564.0</ele>
        <time>2018-06-09T07:48:35.180Z</time>
      </trkpt>
      <trkpt lat="37.48305833" lon="-4.42763333">
        <ele>564.0</ele>
        <time>2018-06-09T07:48:36.159Z</time>
      </trkpt>
      <trkpt lat="37.48308833" lon="-4.42762167">
        <ele>565.0</ele>
        <time>2018-06-09T07:48:37.179Z</time>
      </trkpt>
      <trkpt lat="37.48310167" lon="-4.42761667">
        <ele>565.0</ele>
        <time>2018-06-09T07:48:38.164Z</time>
      </trkpt>
      <trkpt lat="37.48310167" lon="-4.42761667">
        <ele>565.0</ele>
        <time>2018-06-09T07:48:39.179Z</time>
      </trkpt>
      <trkpt lat="37.48313167" lon="-4.42761833">
        <ele>565.0</ele>
        <time>2018-06-09T07:48:40.161Z</time>
      </trkpt>
      <trkpt lat="37.48314667" lon="-4.427615">
        <ele>565.0</ele>
        <time>2018-06-09T07:48:41.179Z</time>
      </trkpt>
      <trkpt lat="37.48314667" lon="-4.427615">
        <ele>565.0</ele>
        <time>2018-06-09T07:48:42.160Z</time>
      </trkpt>
      <trkpt lat="37.483175" lon="-4.42760833">
        <ele>566.0</ele>
        <time>2018-06-09T07:48:43.180Z</time>
      </trkpt>
      <trkpt lat="37.483175" lon="-4.42760833">
        <ele>566.0</ele>
        <time>2018-06-09T07:48:44.161Z</time>
      </trkpt>
      <trkpt lat="37.4832" lon="-4.42759667">
        <ele>566.0</ele>
        <time>2018-06-09T07:48:45.165Z</time>
      </trkpt>
      <trkpt lat="37.4832" lon="-4.42759667">
        <ele>566.0</ele>
        <time>2018-06-09T07:48:46.160Z</time>
      </trkpt>
      <trkpt lat="37.483225" lon="-4.42758">
        <ele>566.0</ele>
        <time>2018-06-09T07:48:47.165Z</time>
      </trkpt>
      <trkpt lat="37.483225" lon="-4.42758">
        <ele>566.0</ele>
        <time>2018-06-09T07:48:48.159Z</time>
      </trkpt>
      <trkpt lat="37.48324833" lon="-4.42756167">
        <ele>567.0</ele>
        <time>2018-06-09T07:48:49.179Z</time>
      </trkpt>
      <trkpt lat="37.48324833" lon="-4.42756167">
        <ele>567.0</ele>
        <time>2018-06-09T07:48:50.162Z</time>
      </trkpt>
      <trkpt lat="37.48327667" lon="-4.42755167">
        <ele>567.0</ele>
        <time>2018-06-09T07:48:51.165Z</time>
      </trkpt>
      <trkpt lat="37.48327667" lon="-4.42755167">
        <ele>567.0</ele>
        <time>2018-06-09T07:48:52.181Z</time>
      </trkpt>
      <trkpt lat="37.483305" lon="-4.42755167">
        <ele>568.0</ele>
        <time>2018-06-09T07:48:53.166Z</time>
      </trkpt>
      <trkpt lat="37.483305" lon="-4.42755167">
        <ele>568.0</ele>
        <time>2018-06-09T07:48:54.158Z</time>
      </trkpt>
      <trkpt lat="37.48333333" lon="-4.42755167">
        <ele>568.0</ele>
        <time>2018-06-09T07:48:55.179Z</time>
      </trkpt>
      <trkpt lat="37.48333333" lon="-4.42755167">
        <ele>568.0</ele>
        <time>2018-06-09T07:48:56.159Z</time>
      </trkpt>
      <trkpt lat="37.48336167" lon="-4.42754333">
        <ele>568.0</ele>
        <time>2018-06-09T07:48:57.180Z</time>
      </trkpt>
      <trkpt lat="37.483375" lon="-4.42753333">
        <ele>568.0</ele>
        <time>2018-06-09T07:48:58.165Z</time>
      </trkpt>
      <trkpt lat="37.48339" lon="-4.427525">
        <ele>569.0</ele>
        <time>2018-06-09T07:48:59.181Z</time>
      </trkpt>
      <trkpt lat="37.48339" lon="-4.427525">
        <ele>569.0</ele>
        <time>2018-06-09T07:49:00.161Z</time>
      </trkpt>
      <trkpt lat="37.483415" lon="-4.42751167">
        <ele>569.0</ele>
        <time>2018-06-09T07:49:01.181Z</time>
      </trkpt>
      <trkpt lat="37.483415" lon="-4.42751167">
        <ele>569.0</ele>
        <time>2018-06-09T07:49:02.159Z</time>
      </trkpt>
      <trkpt lat="37.483445" lon="-4.42750167">
        <ele>569.0</ele>
        <time>2018-06-09T07:49:03.179Z</time>
      </trkpt>
      <trkpt lat="37.483445" lon="-4.42750167">
        <ele>569.0</ele>
        <time>2018-06-09T07:49:04.159Z</time>
      </trkpt>
      <trkpt lat="37.483475" lon="-4.427495">
        <ele>569.0</ele>
        <time>2018-06-09T07:49:05.179Z</time>
      </trkpt>
      <trkpt lat="37.483475" lon="-4.427495">
        <ele>569.0</ele>
        <time>2018-06-09T07:49:06.162Z</time>
      </trkpt>
      <trkpt lat="37.48350667" lon="-4.427485">
        <ele>570.0</ele>
        <time>2018-06-09T07:49:07.163Z</time>
      </trkpt>
      <trkpt lat="37.48350667" lon="-4.427485">
        <ele>570.0</ele>
        <time>2018-06-09T07:49:08.160Z</time>
      </trkpt>
      <trkpt lat="37.48354" lon="-4.42747667">
        <ele>570.0</ele>
        <time>2018-06-09T07:49:09.179Z</time>
      </trkpt>
      <trkpt lat="37.48354" lon="-4.42747667">
        <ele>570.0</ele>
        <time>2018-06-09T07:49:10.157Z</time>
      </trkpt>
      <trkpt lat="37.48357333" lon="-4.42746667">
        <ele>570.0</ele>
        <time>2018-06-09T07:49:11.180Z</time>
      </trkpt>
      <trkpt lat="37.48357333" lon="-4.42746667">
        <ele>570.0</ele>
        <time>2018-06-09T07:49:12.162Z</time>
      </trkpt>
      <trkpt lat="37.48360833" lon="-4.42745833">
        <ele>570.0</ele>
        <time>2018-06-09T07:49:13.183Z</time>
      </trkpt>
      <trkpt lat="37.48360833" lon="-4.42745833">
        <ele>570.0</ele>
        <time>2018-06-09T07:49:14.161Z</time>
      </trkpt>
      <trkpt lat="37.483645" lon="-4.42745833">
        <ele>571.0</ele>
        <time>2018-06-09T07:49:15.165Z</time>
      </trkpt>
      <trkpt lat="37.483645" lon="-4.42745833">
        <ele>571.0</ele>
        <time>2018-06-09T07:49:16.181Z</time>
      </trkpt>
      <trkpt lat="37.48367667" lon="-4.42746333">
        <ele>571.0</ele>
        <time>2018-06-09T07:49:17.165Z</time>
      </trkpt>
      <trkpt lat="37.48367667" lon="-4.42746333">
        <ele>571.0</ele>
        <time>2018-06-09T07:49:18.160Z</time>
      </trkpt>
      <trkpt lat="37.48371" lon="-4.42745833">
        <ele>572.0</ele>
        <time>2018-06-09T07:49:19.182Z</time>
      </trkpt>
      <trkpt lat="37.48371" lon="-4.42745833">
        <ele>572.0</ele>
        <time>2018-06-09T07:49:20.164Z</time>
      </trkpt>
      <trkpt lat="37.48374833" lon="-4.42745">
        <ele>572.0</ele>
        <time>2018-06-09T07:49:21.165Z</time>
      </trkpt>
      <trkpt lat="37.48374833" lon="-4.42745">
        <ele>572.0</ele>
        <time>2018-06-09T07:49:22.159Z</time>
      </trkpt>
      <trkpt lat="37.483795" lon="-4.427435">
        <ele>572.0</ele>
        <time>2018-06-09T07:49:23.180Z</time>
      </trkpt>
      <trkpt lat="37.483795" lon="-4.427435">
        <ele>572.0</ele>
        <time>2018-06-09T07:49:24.161Z</time>
      </trkpt>
      <trkpt lat="37.48384167" lon="-4.42742">
        <ele>572.0</ele>
        <time>2018-06-09T07:49:25.181Z</time>
      </trkpt>
      <trkpt lat="37.48384167" lon="-4.42742">
        <ele>572.0</ele>
        <time>2018-06-09T07:49:26.162Z</time>
      </trkpt>
      <trkpt lat="37.483895" lon="-4.42740167">
        <ele>572.0</ele>
        <time>2018-06-09T07:49:27.185Z</time>
      </trkpt>
      <trkpt lat="37.483895" lon="-4.42740167">
        <ele>572.0</ele>
        <time>2018-06-09T07:49:28.166Z</time>
      </trkpt>
      <trkpt lat="37.48395333" lon="-4.427385">
        <ele>572.0</ele>
        <time>2018-06-09T07:49:29.166Z</time>
      </trkpt>
      <trkpt lat="37.48395333" lon="-4.427385">
        <ele>572.0</ele>
        <time>2018-06-09T07:49:30.159Z</time>
      </trkpt>
      <trkpt lat="37.48400833" lon="-4.42736667">
        <ele>572.0</ele>
        <time>2018-06-09T07:49:31.179Z</time>
      </trkpt>
      <trkpt lat="37.48400833" lon="-4.42736667">
        <ele>572.0</ele>
        <time>2018-06-09T07:49:32.161Z</time>
      </trkpt>
      <trkpt lat="37.48406833" lon="-4.42736">
        <ele>572.0</ele>
        <time>2018-06-09T07:49:33.166Z</time>
      </trkpt>
      <trkpt lat="37.48406833" lon="-4.42736">
        <ele>572.0</ele>
        <time>2018-06-09T07:49:34.160Z</time>
      </trkpt>
      <trkpt lat="37.48414333" lon="-4.42734333">
        <ele>572.0</ele>
        <time>2018-06-09T07:49:35.181Z</time>
      </trkpt>
      <trkpt lat="37.48414333" lon="-4.42734333">
        <ele>572.0</ele>
        <time>2018-06-09T07:49:36.163Z</time>
      </trkpt>
      <trkpt lat="37.48422667" lon="-4.42731667">
        <ele>571.0</ele>
        <time>2018-06-09T07:49:37.163Z</time>
      </trkpt>
      <trkpt lat="37.48427167" lon="-4.42729667">
        <ele>571.0</ele>
        <time>2018-06-09T07:49:38.166Z</time>
      </trkpt>
      <trkpt lat="37.48427167" lon="-4.42729667">
        <ele>571.0</ele>
        <time>2018-06-09T07:49:39.161Z</time>
      </trkpt>
      <trkpt lat="37.48435833" lon="-4.42725333">
        <ele>570.0</ele>
        <time>2018-06-09T07:49:40.194Z</time>
      </trkpt>
      <trkpt lat="37.48440167" lon="-4.42723167">
        <ele>570.0</ele>
        <time>2018-06-09T07:49:41.166Z</time>
      </trkpt>
      <trkpt lat="37.48440167" lon="-4.42723167">
        <ele>570.0</ele>
        <time>2018-06-09T07:49:42.160Z</time>
      </trkpt>
      <trkpt lat="37.484475" lon="-4.427185">
        <ele>569.0</ele>
        <time>2018-06-09T07:49:43.180Z</time>
      </trkpt>
      <trkpt lat="37.484475" lon="-4.427185">
        <ele>569.0</ele>
        <time>2018-06-09T07:49:44.169Z</time>
      </trkpt>
      <trkpt lat="37.48450167" lon="-4.42711333">
        <ele>569.0</ele>
        <time>2018-06-09T07:49:45.174Z</time>
      </trkpt>
      <trkpt lat="37.48450167" lon="-4.42711333">
        <ele>569.0</ele>
        <time>2018-06-09T07:49:46.160Z</time>
      </trkpt>
      <trkpt lat="37.48451" lon="-4.42704833">
        <ele>569.0</ele>
        <time>2018-06-09T07:49:47.166Z</time>
      </trkpt>
      <trkpt lat="37.48451" lon="-4.42704833">
        <ele>569.0</ele>
        <time>2018-06-09T07:49:48.173Z</time>
      </trkpt>
      <trkpt lat="37.48451667" lon="-4.42703167">
        <ele>569.0</ele>
        <time>2018-06-09T07:49:49.166Z</time>
      </trkpt>
      <trkpt lat="37.48451667" lon="-4.42703167">
        <ele>569.0</ele>
        <time>2018-06-09T07:49:50.162Z</time>
      </trkpt>
      <trkpt lat="37.48451667" lon="-4.42703">
        <ele>569.0</ele>
        <time>2018-06-09T07:49:51.178Z</time>
      </trkpt>
      <trkpt lat="37.48451667" lon="-4.42703">
        <ele>569.0</ele>
        <time>2018-06-09T07:49:52.160Z</time>
      </trkpt>
      <trkpt lat="37.48447" lon="-4.42697667">
        <ele>570.0</ele>
        <time>2018-06-09T07:49:53.158Z</time>
      </trkpt>
      <trkpt lat="37.48447" lon="-4.42697667">
        <ele>570.0</ele>
        <time>2018-06-09T07:49:54.178Z</time>
      </trkpt>
      <trkpt lat="37.48445667" lon="-4.42692667">
        <ele>570.0</ele>
        <time>2018-06-09T07:49:55.158Z</time>
      </trkpt>
      <trkpt lat="37.48445167" lon="-4.42690167">
        <ele>570.0</ele>
        <time>2018-06-09T07:49:56.180Z</time>
      </trkpt>
      <trkpt lat="37.48445167" lon="-4.42690167">
        <ele>570.0</ele>
        <time>2018-06-09T07:49:57.161Z</time>
      </trkpt>
      <trkpt lat="37.48443833" lon="-4.42684667">
        <ele>570.0</ele>
        <time>2018-06-09T07:49:58.159Z</time>
      </trkpt>
      <trkpt lat="37.48443833" lon="-4.42684667">
        <ele>570.0</ele>
        <time>2018-06-09T07:49:59.193Z</time>
      </trkpt>
      <trkpt lat="37.48441833" lon="-4.42678667">
        <ele>570.0</ele>
        <time>2018-06-09T07:50:00.173Z</time>
      </trkpt>
      <trkpt lat="37.48441" lon="-4.42675333">
        <ele>570.0</ele>
        <time>2018-06-09T07:50:01.171Z</time>
      </trkpt>
      <trkpt lat="37.48441167" lon="-4.42671667">
        <ele>570.0</ele>
        <time>2018-06-09T07:50:02.157Z</time>
      </trkpt>
      <trkpt lat="37.48441167" lon="-4.42671667">
        <ele>570.0</ele>
        <time>2018-06-09T07:50:03.179Z</time>
      </trkpt>
      <trkpt lat="37.48441667" lon="-4.42663167">
        <ele>569.0</ele>
        <time>2018-06-09T07:50:04.159Z</time>
      </trkpt>
      <trkpt lat="37.48441667" lon="-4.42663167">
        <ele>569.0</ele>
        <time>2018-06-09T07:50:05.174Z</time>
      </trkpt>
      <trkpt lat="37.48439833" lon="-4.42653167">
        <ele>569.0</ele>
        <time>2018-06-09T07:50:06.196Z</time>
      </trkpt>
      <trkpt lat="37.48439833" lon="-4.42653167">
        <ele>569.0</ele>
        <time>2018-06-09T07:50:07.174Z</time>
      </trkpt>
      <trkpt lat="37.48436" lon="-4.426435">
        <ele>569.0</ele>
        <time>2018-06-09T07:50:08.159Z</time>
      </trkpt>
      <trkpt lat="37.48436" lon="-4.426435">
        <ele>569.0</ele>
        <time>2018-06-09T07:50:09.193Z</time>
      </trkpt>
      <trkpt lat="37.48432833" lon="-4.42634333">
        <ele>569.0</ele>
        <time>2018-06-09T07:50:10.173Z</time>
      </trkpt>
      <trkpt lat="37.484315" lon="-4.4263">
        <ele>569.0</ele>
        <time>2018-06-09T07:50:11.158Z</time>
      </trkpt>
      <trkpt lat="37.48431" lon="-4.42625667">
        <ele>569.0</ele>
        <time>2018-06-09T07:50:12.174Z</time>
      </trkpt>
      <trkpt lat="37.48431" lon="-4.42625667">
        <ele>569.0</ele>
        <time>2018-06-09T07:50:13.192Z</time>
      </trkpt>
      <trkpt lat="37.484305" lon="-4.42616333">
        <ele>570.0</ele>
        <time>2018-06-09T07:50:14.171Z</time>
      </trkpt>
      <trkpt lat="37.484305" lon="-4.42616333">
        <ele>570.0</ele>
        <time>2018-06-09T07:50:15.192Z</time>
      </trkpt>
      <trkpt lat="37.48429833" lon="-4.42607833">
        <ele>571.0</ele>
        <time>2018-06-09T07:50:16.178Z</time>
      </trkpt>
      <trkpt lat="37.48429833" lon="-4.42607833">
        <ele>571.0</ele>
        <time>2018-06-09T07:50:17.157Z</time>
      </trkpt>
      <trkpt lat="37.48428667" lon="-4.42600667">
        <ele>572.0</ele>
        <time>2018-06-09T07:50:18.157Z</time>
      </trkpt>
      <trkpt lat="37.48428667" lon="-4.42600667">
        <ele>572.0</ele>
        <time>2018-06-09T07:50:19.172Z</time>
      </trkpt>
      <trkpt lat="37.48428167" lon="-4.42593333">
        <ele>572.0</ele>
        <time>2018-06-09T07:50:20.184Z</time>
      </trkpt>
      <trkpt lat="37.48428167" lon="-4.42593333">
        <ele>572.0</ele>
        <time>2018-06-09T07:50:21.193Z</time>
      </trkpt>
      <trkpt lat="37.48428" lon="-4.42586">
        <ele>572.0</ele>
        <time>2018-06-09T07:50:22.173Z</time>
      </trkpt>
      <trkpt lat="37.48428" lon="-4.42586">
        <ele>572.0</ele>
        <time>2018-06-09T07:50:23.193Z</time>
      </trkpt>
      <trkpt lat="37.48426667" lon="-4.42579167">
        <ele>573.0</ele>
        <time>2018-06-09T07:50:24.175Z</time>
      </trkpt>
      <trkpt lat="37.48425333" lon="-4.42576">
        <ele>573.0</ele>
        <time>2018-06-09T07:50:25.159Z</time>
      </trkpt>
      <trkpt lat="37.48424333" lon="-4.425725">
        <ele>573.0</ele>
        <time>2018-06-09T07:50:26.176Z</time>
      </trkpt>
      <trkpt lat="37.48424333" lon="-4.425725">
        <ele>573.0</ele>
        <time>2018-06-09T07:50:27.196Z</time>
      </trkpt>
      <trkpt lat="37.48422333" lon="-4.42564833">
        <ele>573.0</ele>
        <time>2018-06-09T07:50:28.177Z</time>
      </trkpt>
      <trkpt lat="37.48422333" lon="-4.42564833">
        <ele>573.0</ele>
        <time>2018-06-09T07:50:29.195Z</time>
      </trkpt>
      <trkpt lat="37.4842" lon="-4.42557">
        <ele>573.0</ele>
        <time>2018-06-09T07:50:30.175Z</time>
      </trkpt>
      <trkpt lat="37.4842" lon="-4.42557">
        <ele>573.0</ele>
        <time>2018-06-09T07:50:31.166Z</time>
      </trkpt>
      <trkpt lat="37.48418333" lon="-4.42549167">
        <ele>573.0</ele>
        <time>2018-06-09T07:50:32.160Z</time>
      </trkpt>
      <trkpt lat="37.48418333" lon="-4.42549167">
        <ele>573.0</ele>
        <time>2018-06-09T07:50:33.178Z</time>
      </trkpt>
      <trkpt lat="37.48417" lon="-4.42541333">
        <ele>573.0</ele>
        <time>2018-06-09T07:50:34.159Z</time>
      </trkpt>
      <trkpt lat="37.48417" lon="-4.42541333">
        <ele>573.0</ele>
        <time>2018-06-09T07:50:35.175Z</time>
      </trkpt>
      <trkpt lat="37.48415667" lon="-4.42533667">
        <ele>574.0</ele>
        <time>2018-06-09T07:50:36.158Z</time>
      </trkpt>
      <trkpt lat="37.48415667" lon="-4.42533667">
        <ele>574.0</ele>
        <time>2018-06-09T07:50:37.194Z</time>
      </trkpt>
      <trkpt lat="37.48414" lon="-4.42526167">
        <ele>574.0</ele>
        <time>2018-06-09T07:50:38.160Z</time>
      </trkpt>
      <trkpt lat="37.48414" lon="-4.42526167">
        <ele>574.0</ele>
        <time>2018-06-09T07:50:39.196Z</time>
      </trkpt>
      <trkpt lat="37.48412" lon="-4.42518167">
        <ele>574.0</ele>
        <time>2018-06-09T07:50:40.159Z</time>
      </trkpt>
      <trkpt lat="37.48412" lon="-4.42518167">
        <ele>574.0</ele>
        <time>2018-06-09T07:50:41.193Z</time>
      </trkpt>
      <trkpt lat="37.48409" lon="-4.425105">
        <ele>574.0</ele>
        <time>2018-06-09T07:50:42.173Z</time>
      </trkpt>
      <trkpt lat="37.48407667" lon="-4.42506833">
        <ele>575.0</ele>
        <time>2018-06-09T07:50:43.159Z</time>
      </trkpt>
      <trkpt lat="37.48407667" lon="-4.42506833">
        <ele>575.0</ele>
        <time>2018-06-09T07:50:44.157Z</time>
      </trkpt>
      <trkpt lat="37.48404833" lon="-4.42499333">
        <ele>574.0</ele>
        <time>2018-06-09T07:50:45.158Z</time>
      </trkpt>
      <trkpt lat="37.48403" lon="-4.42495667">
        <ele>574.0</ele>
        <time>2018-06-09T07:50:46.173Z</time>
      </trkpt>
      <trkpt lat="37.48403" lon="-4.42495667">
        <ele>574.0</ele>
        <time>2018-06-09T07:50:47.194Z</time>
      </trkpt>
      <trkpt lat="37.48398" lon="-4.42489333">
        <ele>574.0</ele>
        <time>2018-06-09T07:50:48.179Z</time>
      </trkpt>
      <trkpt lat="37.48394667" lon="-4.424875">
        <ele>574.0</ele>
        <time>2018-06-09T07:50:49.158Z</time>
      </trkpt>
      <trkpt lat="37.48391" lon="-4.42486">
        <ele>573.0</ele>
        <time>2018-06-09T07:50:50.175Z</time>
      </trkpt>
      <trkpt lat="37.48386833" lon="-4.42485">
        <ele>573.0</ele>
        <time>2018-06-09T07:50:51.173Z</time>
      </trkpt>
      <trkpt lat="37.48386833" lon="-4.42485">
        <ele>573.0</ele>
        <time>2018-06-09T07:50:52.196Z</time>
      </trkpt>
      <trkpt lat="37.48378167" lon="-4.42483333">
        <ele>573.0</ele>
        <time>2018-06-09T07:50:53.179Z</time>
      </trkpt>
      <trkpt lat="37.48373833" lon="-4.42481833">
        <ele>572.0</ele>
        <time>2018-06-09T07:50:54.158Z</time>
      </trkpt>
      <trkpt lat="37.48369667" lon="-4.42478833">
        <ele>572.0</ele>
        <time>2018-06-09T07:50:55.175Z</time>
      </trkpt>
      <trkpt lat="37.48369667" lon="-4.42478833">
        <ele>572.0</ele>
        <time>2018-06-09T07:50:56.159Z</time>
      </trkpt>
      <trkpt lat="37.48364167" lon="-4.4247">
        <ele>572.0</ele>
        <time>2018-06-09T07:50:57.158Z</time>
      </trkpt>
      <trkpt lat="37.48364167" lon="-4.4247">
        <ele>572.0</ele>
        <time>2018-06-09T07:50:58.175Z</time>
      </trkpt>
      <trkpt lat="37.48361167" lon="-4.42460833">
        <ele>572.0</ele>
        <time>2018-06-09T07:50:59.159Z</time>
      </trkpt>
      <trkpt lat="37.48361167" lon="-4.42460833">
        <ele>572.0</ele>
        <time>2018-06-09T07:51:00.175Z</time>
      </trkpt>
      <trkpt lat="37.48359167" lon="-4.42453833">
        <ele>572.0</ele>
        <time>2018-06-09T07:51:01.159Z</time>
      </trkpt>
      <trkpt lat="37.48358333" lon="-4.424505">
        <ele>572.0</ele>
        <time>2018-06-09T07:51:02.160Z</time>
      </trkpt>
      <trkpt lat="37.48358333" lon="-4.424505">
        <ele>572.0</ele>
        <time>2018-06-09T07:51:03.194Z</time>
      </trkpt>
      <trkpt lat="37.48358333" lon="-4.42442333">
        <ele>572.0</ele>
        <time>2018-06-09T07:51:04.176Z</time>
      </trkpt>
      <trkpt lat="37.48358333" lon="-4.42442333">
        <ele>572.0</ele>
        <time>2018-06-09T07:51:05.195Z</time>
      </trkpt>
      <trkpt lat="37.48359667" lon="-4.424335">
        <ele>571.0</ele>
        <time>2018-06-09T07:51:06.178Z</time>
      </trkpt>
      <trkpt lat="37.48359833" lon="-4.42428833">
        <ele>571.0</ele>
        <time>2018-06-09T07:51:07.159Z</time>
      </trkpt>
      <trkpt lat="37.48359833" lon="-4.42423667">
        <ele>571.0</ele>
        <time>2018-06-09T07:51:08.161Z</time>
      </trkpt>
      <trkpt lat="37.48359833" lon="-4.42423667">
        <ele>571.0</ele>
        <time>2018-06-09T07:51:09.158Z</time>
      </trkpt>
      <trkpt lat="37.483605" lon="-4.42412167">
        <ele>570.0</ele>
        <time>2018-06-09T07:51:10.160Z</time>
      </trkpt>
      <trkpt lat="37.483605" lon="-4.42412167">
        <ele>570.0</ele>
        <time>2018-06-09T07:51:11.179Z</time>
      </trkpt>
      <trkpt lat="37.48362333" lon="-4.42399833">
        <ele>569.0</ele>
        <time>2018-06-09T07:51:12.160Z</time>
      </trkpt>
      <trkpt lat="37.483625" lon="-4.42393333">
        <ele>569.0</ele>
        <time>2018-06-09T07:51:13.177Z</time>
      </trkpt>
      <trkpt lat="37.483625" lon="-4.42393333">
        <ele>569.0</ele>
        <time>2018-06-09T07:51:14.160Z</time>
      </trkpt>
      <trkpt lat="37.48361333" lon="-4.42379667">
        <ele>568.0</ele>
        <time>2018-06-09T07:51:15.160Z</time>
      </trkpt>
      <trkpt lat="37.48360667" lon="-4.42372667">
        <ele>568.0</ele>
        <time>2018-06-09T07:51:16.179Z</time>
      </trkpt>
      <trkpt lat="37.4836" lon="-4.42366167">
        <ele>567.0</ele>
        <time>2018-06-09T07:51:17.160Z</time>
      </trkpt>
      <trkpt lat="37.4836" lon="-4.42366167">
        <ele>567.0</ele>
        <time>2018-06-09T07:51:18.194Z</time>
      </trkpt>
      <trkpt lat="37.48358" lon="-4.42355167">
        <ele>566.0</ele>
        <time>2018-06-09T07:51:19.160Z</time>
      </trkpt>
      <trkpt lat="37.48356" lon="-4.4235">
        <ele>565.0</ele>
        <time>2018-06-09T07:51:20.161Z</time>
      </trkpt>
      <trkpt lat="37.48356" lon="-4.4235">
        <ele>565.0</ele>
        <time>2018-06-09T07:51:21.179Z</time>
      </trkpt>
      <trkpt lat="37.48351167" lon="-4.42337667">
        <ele>563.0</ele>
        <time>2018-06-09T07:51:22.161Z</time>
      </trkpt>
      <trkpt lat="37.48351167" lon="-4.42337667">
        <ele>563.0</ele>
        <time>2018-06-09T07:51:23.194Z</time>
      </trkpt>
      <trkpt lat="37.48347833" lon="-4.42322">
        <ele>562.0</ele>
        <time>2018-06-09T07:51:24.175Z</time>
      </trkpt>
      <trkpt lat="37.48347833" lon="-4.42322">
        <ele>562.0</ele>
        <time>2018-06-09T07:51:25.158Z</time>
      </trkpt>
      <trkpt lat="37.483455" lon="-4.42305667">
        <ele>562.0</ele>
        <time>2018-06-09T07:51:26.180Z</time>
      </trkpt>
      <trkpt lat="37.48343667" lon="-4.42298333">
        <ele>562.0</ele>
        <time>2018-06-09T07:51:27.166Z</time>
      </trkpt>
      <trkpt lat="37.48343667" lon="-4.42298333">
        <ele>562.0</ele>
        <time>2018-06-09T07:51:28.193Z</time>
      </trkpt>
      <trkpt lat="37.48340333" lon="-4.42287167">
        <ele>562.0</ele>
        <time>2018-06-09T07:51:29.159Z</time>
      </trkpt>
      <trkpt lat="37.48339" lon="-4.42282833">
        <ele>563.0</ele>
        <time>2018-06-09T07:51:30.165Z</time>
      </trkpt>
      <trkpt lat="37.48339" lon="-4.42282833">
        <ele>563.0</ele>
        <time>2018-06-09T07:51:31.192Z</time>
      </trkpt>
      <trkpt lat="37.48337" lon="-4.42275667">
        <ele>564.0</ele>
        <time>2018-06-09T07:51:32.162Z</time>
      </trkpt>
      <trkpt lat="37.48337" lon="-4.42275667">
        <ele>564.0</ele>
        <time>2018-06-09T07:51:33.194Z</time>
      </trkpt>
      <trkpt lat="37.483355" lon="-4.42269">
        <ele>565.0</ele>
        <time>2018-06-09T07:51:34.196Z</time>
      </trkpt>
      <trkpt lat="37.48334833" lon="-4.42266">
        <ele>566.0</ele>
        <time>2018-06-09T07:51:35.162Z</time>
      </trkpt>
      <trkpt lat="37.48334833" lon="-4.42266">
        <ele>566.0</ele>
        <time>2018-06-09T07:51:36.171Z</time>
      </trkpt>
      <trkpt lat="37.48332833" lon="-4.422605">
        <ele>567.0</ele>
        <time>2018-06-09T07:51:37.176Z</time>
      </trkpt>
      <trkpt lat="37.48331667" lon="-4.42257667">
        <ele>568.0</ele>
        <time>2018-06-09T07:51:38.161Z</time>
      </trkpt>
      <trkpt lat="37.48331667" lon="-4.42257667">
        <ele>568.0</ele>
        <time>2018-06-09T07:51:39.171Z</time>
      </trkpt>
      <trkpt lat="37.48328333" lon="-4.42252167">
        <ele>569.0</ele>
        <time>2018-06-09T07:51:40.160Z</time>
      </trkpt>
      <trkpt lat="37.48328333" lon="-4.42252167">
        <ele>569.0</ele>
        <time>2018-06-09T07:51:41.194Z</time>
      </trkpt>
      <trkpt lat="37.48324167" lon="-4.42248667">
        <ele>570.0</ele>
        <time>2018-06-09T07:51:42.174Z</time>
      </trkpt>
      <trkpt lat="37.48324167" lon="-4.42248667">
        <ele>570.0</ele>
        <time>2018-06-09T07:51:43.195Z</time>
      </trkpt>
      <trkpt lat="37.48320167" lon="-4.42245667">
        <ele>571.0</ele>
        <time>2018-06-09T07:51:44.175Z</time>
      </trkpt>
      <trkpt lat="37.48320167" lon="-4.42245667">
        <ele>571.0</ele>
        <time>2018-06-09T07:51:45.195Z</time>
      </trkpt>
      <trkpt lat="37.48316" lon="-4.422445">
        <ele>572.0</ele>
        <time>2018-06-09T07:51:46.175Z</time>
      </trkpt>
      <trkpt lat="37.48314167" lon="-4.422435">
        <ele>572.0</ele>
        <time>2018-06-09T07:51:47.168Z</time>
      </trkpt>
      <trkpt lat="37.48314167" lon="-4.422435">
        <ele>572.0</ele>
        <time>2018-06-09T07:51:48.196Z</time>
      </trkpt>
      <trkpt lat="37.48310667" lon="-4.42241167">
        <ele>572.0</ele>
        <time>2018-06-09T07:51:49.161Z</time>
      </trkpt>
      <trkpt lat="37.48310667" lon="-4.42241167">
        <ele>572.0</ele>
        <time>2018-06-09T07:51:50.159Z</time>
      </trkpt>
      <trkpt lat="37.48306667" lon="-4.42239">
        <ele>572.0</ele>
        <time>2018-06-09T07:51:51.192Z</time>
      </trkpt>
      <trkpt lat="37.48304167" lon="-4.42238167">
        <ele>572.0</ele>
        <time>2018-06-09T07:51:52.173Z</time>
      </trkpt>
      <trkpt lat="37.48301333" lon="-4.42237667">
        <ele>572.0</ele>
        <time>2018-06-09T07:51:53.158Z</time>
      </trkpt>
      <trkpt lat="37.48301333" lon="-4.42237667">
        <ele>572.0</ele>
        <time>2018-06-09T07:51:54.175Z</time>
      </trkpt>
      <trkpt lat="37.48296333" lon="-4.42235167">
        <ele>572.0</ele>
        <time>2018-06-09T07:51:55.160Z</time>
      </trkpt>
      <trkpt lat="37.48296333" lon="-4.42235167">
        <ele>572.0</ele>
        <time>2018-06-09T07:51:56.194Z</time>
      </trkpt>
      <trkpt lat="37.48292667" lon="-4.422345">
        <ele>571.0</ele>
        <time>2018-06-09T07:51:57.161Z</time>
      </trkpt>
      <trkpt lat="37.48292667" lon="-4.422345">
        <ele>571.0</ele>
        <time>2018-06-09T07:51:58.196Z</time>
      </trkpt>
      <trkpt lat="37.48288667" lon="-4.422355">
        <ele>571.0</ele>
        <time>2018-06-09T07:51:59.175Z</time>
      </trkpt>
      <trkpt lat="37.48286167" lon="-4.42236667">
        <ele>571.0</ele>
        <time>2018-06-09T07:52:00.162Z</time>
      </trkpt>
      <trkpt lat="37.48286167" lon="-4.42236667">
        <ele>571.0</ele>
        <time>2018-06-09T07:52:01.181Z</time>
      </trkpt>
      <trkpt lat="37.48279833" lon="-4.42238167">
        <ele>570.0</ele>
        <time>2018-06-09T07:52:02.162Z</time>
      </trkpt>
      <trkpt lat="37.48279833" lon="-4.42238167">
        <ele>570.0</ele>
        <time>2018-06-09T07:52:03.171Z</time>
      </trkpt>
      <trkpt lat="37.48272667" lon="-4.42238667">
        <ele>569.0</ele>
        <time>2018-06-09T07:52:04.179Z</time>
      </trkpt>
      <trkpt lat="37.48272667" lon="-4.42238667">
        <ele>569.0</ele>
        <time>2018-06-09T07:52:05.159Z</time>
      </trkpt>
      <trkpt lat="37.482655" lon="-4.42235333">
        <ele>569.0</ele>
        <time>2018-06-09T07:52:06.179Z</time>
      </trkpt>
      <trkpt lat="37.482655" lon="-4.42235333">
        <ele>569.0</ele>
        <time>2018-06-09T07:52:07.161Z</time>
      </trkpt>
      <trkpt lat="37.482585" lon="-4.42230667">
        <ele>568.0</ele>
        <time>2018-06-09T07:52:08.181Z</time>
      </trkpt>
      <trkpt lat="37.48254833" lon="-4.422285">
        <ele>567.0</ele>
        <time>2018-06-09T07:52:09.162Z</time>
      </trkpt>
      <trkpt lat="37.48254833" lon="-4.422285">
        <ele>567.0</ele>
        <time>2018-06-09T07:52:10.158Z</time>
      </trkpt>
      <trkpt lat="37.48247167" lon="-4.42223833">
        <ele>567.0</ele>
        <time>2018-06-09T07:52:11.162Z</time>
      </trkpt>
      <trkpt lat="37.48247167" lon="-4.42223833">
        <ele>567.0</ele>
        <time>2018-06-09T07:52:12.196Z</time>
      </trkpt>
      <trkpt lat="37.4824" lon="-4.42217833">
        <ele>566.0</ele>
        <time>2018-06-09T07:52:13.176Z</time>
      </trkpt>
      <trkpt lat="37.4824" lon="-4.42217833">
        <ele>566.0</ele>
        <time>2018-06-09T07:52:14.159Z</time>
      </trkpt>
      <trkpt lat="37.48233" lon="-4.42213167">
        <ele>565.0</ele>
        <time>2018-06-09T07:52:15.161Z</time>
      </trkpt>
      <trkpt lat="37.48233" lon="-4.42213167">
        <ele>565.0</ele>
        <time>2018-06-09T07:52:16.181Z</time>
      </trkpt>
      <trkpt lat="37.48225167" lon="-4.42213167">
        <ele>564.0</ele>
        <time>2018-06-09T07:52:17.162Z</time>
      </trkpt>
      <trkpt lat="37.48221833" lon="-4.42213833">
        <ele>563.0</ele>
        <time>2018-06-09T07:52:18.160Z</time>
      </trkpt>
      <trkpt lat="37.48221833" lon="-4.42213833">
        <ele>563.0</ele>
        <time>2018-06-09T07:52:19.195Z</time>
      </trkpt>
      <trkpt lat="37.48216167" lon="-4.42214167">
        <ele>562.0</ele>
        <time>2018-06-09T07:52:20.175Z</time>
      </trkpt>
      <trkpt lat="37.48216167" lon="-4.42214167">
        <ele>562.0</ele>
        <time>2018-06-09T07:52:21.161Z</time>
      </trkpt>
      <trkpt lat="37.48213" lon="-4.42213">
        <ele>562.0</ele>
        <time>2018-06-09T07:52:22.160Z</time>
      </trkpt>
      <trkpt lat="37.48211833" lon="-4.422115">
        <ele>562.0</ele>
        <time>2018-06-09T07:52:23.161Z</time>
      </trkpt>
      <trkpt lat="37.48211333" lon="-4.42209167">
        <ele>562.0</ele>
        <time>2018-06-09T07:52:24.187Z</time>
      </trkpt>
      <trkpt lat="37.48211333" lon="-4.42209167">
        <ele>562.0</ele>
        <time>2018-06-09T07:52:25.173Z</time>
      </trkpt>
      <trkpt lat="37.48211833" lon="-4.42204667">
        <ele>562.0</ele>
        <time>2018-06-09T07:52:26.163Z</time>
      </trkpt>
      <trkpt lat="37.48212833" lon="-4.42202833">
        <ele>562.0</ele>
        <time>2018-06-09T07:52:27.162Z</time>
      </trkpt>
      <trkpt lat="37.48212833" lon="-4.42202833">
        <ele>562.0</ele>
        <time>2018-06-09T07:52:28.196Z</time>
      </trkpt>
      <trkpt lat="37.48214833" lon="-4.421995">
        <ele>563.0</ele>
        <time>2018-06-09T07:52:29.160Z</time>
      </trkpt>
      <trkpt lat="37.48215667" lon="-4.42197667">
        <ele>563.0</ele>
        <time>2018-06-09T07:52:30.159Z</time>
      </trkpt>
      <trkpt lat="37.48215667" lon="-4.42197667">
        <ele>563.0</ele>
        <time>2018-06-09T07:52:31.175Z</time>
      </trkpt>
      <trkpt lat="37.48217333" lon="-4.42193833">
        <ele>564.0</ele>
        <time>2018-06-09T07:52:32.163Z</time>
      </trkpt>
      <trkpt lat="37.48217333" lon="-4.42193833">
        <ele>564.0</ele>
        <time>2018-06-09T07:52:33.158Z</time>
      </trkpt>
      <trkpt lat="37.48219" lon="-4.42189833">
        <ele>564.0</ele>
        <time>2018-06-09T07:52:34.161Z</time>
      </trkpt>
      <trkpt lat="37.48219" lon="-4.42189833">
        <ele>564.0</ele>
        <time>2018-06-09T07:52:35.158Z</time>
      </trkpt>
      <trkpt lat="37.48221833" lon="-4.42187">
        <ele>565.0</ele>
        <time>2018-06-09T07:52:36.179Z</time>
      </trkpt>
      <trkpt lat="37.48221833" lon="-4.42187">
        <ele>565.0</ele>
        <time>2018-06-09T07:52:37.159Z</time>
      </trkpt>
      <trkpt lat="37.48223833" lon="-4.42183333">
        <ele>565.0</ele>
        <time>2018-06-09T07:52:38.181Z</time>
      </trkpt>
      <trkpt lat="37.482245" lon="-4.421815">
        <ele>565.0</ele>
        <time>2018-06-09T07:52:39.162Z</time>
      </trkpt>
      <trkpt lat="37.48225167" lon="-4.421795">
        <ele>565.0</ele>
        <time>2018-06-09T07:52:40.161Z</time>
      </trkpt>
      <trkpt lat="37.48225167" lon="-4.421795">
        <ele>565.0</ele>
        <time>2018-06-09T07:52:41.159Z</time>
      </trkpt>
      <trkpt lat="37.48227167" lon="-4.42176333">
        <ele>565.0</ele>
        <time>2018-06-09T07:52:42.162Z</time>
      </trkpt>
      <trkpt lat="37.48227167" lon="-4.42176333">
        <ele>565.0</ele>
        <time>2018-06-09T07:52:43.157Z</time>
      </trkpt>
      <trkpt lat="37.48229167" lon="-4.42173167">
        <ele>566.0</ele>
        <time>2018-06-09T07:52:44.162Z</time>
      </trkpt>
      <trkpt lat="37.48229167" lon="-4.42173167">
        <ele>566.0</ele>
        <time>2018-06-09T07:52:45.159Z</time>
      </trkpt>
      <trkpt lat="37.48231" lon="-4.42169833">
        <ele>567.0</ele>
        <time>2018-06-09T07:52:46.180Z</time>
      </trkpt>
      <trkpt lat="37.48232" lon="-4.42168333">
        <ele>567.0</ele>
        <time>2018-06-09T07:52:47.163Z</time>
      </trkpt>
      <trkpt lat="37.48232" lon="-4.42168333">
        <ele>567.0</ele>
        <time>2018-06-09T07:52:48.161Z</time>
      </trkpt>
      <trkpt lat="37.482335" lon="-4.42165">
        <ele>568.0</ele>
        <time>2018-06-09T07:52:49.161Z</time>
      </trkpt>
      <trkpt lat="37.482335" lon="-4.42165">
        <ele>568.0</ele>
        <time>2018-06-09T07:52:50.159Z</time>
      </trkpt>
      <trkpt lat="37.48235" lon="-4.42162">
        <ele>568.0</ele>
        <time>2018-06-09T07:52:51.159Z</time>
      </trkpt>
      <trkpt lat="37.48235" lon="-4.42162">
        <ele>568.0</ele>
        <time>2018-06-09T07:52:52.180Z</time>
      </trkpt>
      <trkpt lat="37.48236667" lon="-4.42158833">
        <ele>568.0</ele>
        <time>2018-06-09T07:52:53.161Z</time>
      </trkpt>
      <trkpt lat="37.48236667" lon="-4.42158833">
        <ele>568.0</ele>
        <time>2018-06-09T07:52:54.160Z</time>
      </trkpt>
      <trkpt lat="37.48238167" lon="-4.421555">
        <ele>568.0</ele>
        <time>2018-06-09T07:52:55.161Z</time>
      </trkpt>
      <trkpt lat="37.48238167" lon="-4.421555">
        <ele>568.0</ele>
        <time>2018-06-09T07:52:56.194Z</time>
      </trkpt>
      <trkpt lat="37.48239833" lon="-4.42152167">
        <ele>569.0</ele>
        <time>2018-06-09T07:52:57.174Z</time>
      </trkpt>
      <trkpt lat="37.48239833" lon="-4.42152167">
        <ele>569.0</ele>
        <time>2018-06-09T07:52:58.159Z</time>
      </trkpt>
      <trkpt lat="37.48241167" lon="-4.42148833">
        <ele>570.0</ele>
        <time>2018-06-09T07:52:59.161Z</time>
      </trkpt>
      <trkpt lat="37.48241167" lon="-4.42148833">
        <ele>570.0</ele>
        <time>2018-06-09T07:53:00.196Z</time>
      </trkpt>
      <trkpt lat="37.48241667" lon="-4.42144833">
        <ele>570.0</ele>
        <time>2018-06-09T07:53:01.161Z</time>
      </trkpt>
      <trkpt lat="37.48241667" lon="-4.42144833">
        <ele>570.0</ele>
        <time>2018-06-09T07:53:02.160Z</time>
      </trkpt>
      <trkpt lat="37.48242" lon="-4.42140833">
        <ele>570.0</ele>
        <time>2018-06-09T07:53:03.185Z</time>
      </trkpt>
      <trkpt lat="37.48242333" lon="-4.42139">
        <ele>570.0</ele>
        <time>2018-06-09T07:53:04.192Z</time>
      </trkpt>
      <trkpt lat="37.48242333" lon="-4.42139">
        <ele>570.0</ele>
        <time>2018-06-09T07:53:05.168Z</time>
      </trkpt>
      <trkpt lat="37.48243333" lon="-4.421355">
        <ele>571.0</ele>
        <time>2018-06-09T07:53:06.160Z</time>
      </trkpt>
      <trkpt lat="37.48244" lon="-4.42133833">
        <ele>571.0</ele>
        <time>2018-06-09T07:53:07.161Z</time>
      </trkpt>
      <trkpt lat="37.48244" lon="-4.42133833">
        <ele>571.0</ele>
        <time>2018-06-09T07:53:08.163Z</time>
      </trkpt>
      <trkpt lat="37.48245333" lon="-4.421305">
        <ele>571.0</ele>
        <time>2018-06-09T07:53:09.162Z</time>
      </trkpt>
      <trkpt lat="37.48245333" lon="-4.421305">
        <ele>571.0</ele>
        <time>2018-06-09T07:53:10.159Z</time>
      </trkpt>
      <trkpt lat="37.482465" lon="-4.42127333">
        <ele>571.0</ele>
        <time>2018-06-09T07:53:11.161Z</time>
      </trkpt>
      <trkpt lat="37.482465" lon="-4.42127333">
        <ele>571.0</ele>
        <time>2018-06-09T07:53:12.195Z</time>
      </trkpt>
      <trkpt lat="37.48247" lon="-4.42123833">
        <ele>571.0</ele>
        <time>2018-06-09T07:53:13.159Z</time>
      </trkpt>
      <trkpt lat="37.48247" lon="-4.42123833">
        <ele>571.0</ele>
        <time>2018-06-09T07:53:14.185Z</time>
      </trkpt>
      <trkpt lat="37.48247333" lon="-4.4212">
        <ele>572.0</ele>
        <time>2018-06-09T07:53:15.169Z</time>
      </trkpt>
      <trkpt lat="37.48247333" lon="-4.4212">
        <ele>572.0</ele>
        <time>2018-06-09T07:53:16.159Z</time>
      </trkpt>
      <trkpt lat="37.48247333" lon="-4.42116333">
        <ele>572.0</ele>
        <time>2018-06-09T07:53:17.159Z</time>
      </trkpt>
      <trkpt lat="37.48247333" lon="-4.42116333">
        <ele>572.0</ele>
        <time>2018-06-09T07:53:18.174Z</time>
      </trkpt>
      <trkpt lat="37.48247667" lon="-4.42112333">
        <ele>572.0</ele>
        <time>2018-06-09T07:53:19.160Z</time>
      </trkpt>
      <trkpt lat="37.48247667" lon="-4.42112333">
        <ele>572.0</ele>
        <time>2018-06-09T07:53:20.159Z</time>
      </trkpt>
      <trkpt lat="37.48247833" lon="-4.42108167">
        <ele>572.0</ele>
        <time>2018-06-09T07:53:21.161Z</time>
      </trkpt>
      <trkpt lat="37.48247833" lon="-4.42108167">
        <ele>572.0</ele>
        <time>2018-06-09T07:53:22.196Z</time>
      </trkpt>
      <trkpt lat="37.482475" lon="-4.42104333">
        <ele>573.0</ele>
        <time>2018-06-09T07:53:23.180Z</time>
      </trkpt>
      <trkpt lat="37.482475" lon="-4.42104333">
        <ele>573.0</ele>
        <time>2018-06-09T07:53:24.159Z</time>
      </trkpt>
      <trkpt lat="37.48247833" lon="-4.42100667">
        <ele>573.0</ele>
        <time>2018-06-09T07:53:25.161Z</time>
      </trkpt>
      <trkpt lat="37.48247833" lon="-4.42100667">
        <ele>573.0</ele>
        <time>2018-06-09T07:53:26.183Z</time>
      </trkpt>
      <trkpt lat="37.48248167" lon="-4.42096833">
        <ele>573.0</ele>
        <time>2018-06-09T07:53:27.163Z</time>
      </trkpt>
      <trkpt lat="37.48248167" lon="-4.42096833">
        <ele>573.0</ele>
        <time>2018-06-09T07:53:28.184Z</time>
      </trkpt>
      <trkpt lat="37.48248167" lon="-4.42093">
        <ele>573.0</ele>
        <time>2018-06-09T07:53:29.161Z</time>
      </trkpt>
      <trkpt lat="37.48248167" lon="-4.42091">
        <ele>574.0</ele>
        <time>2018-06-09T07:53:30.161Z</time>
      </trkpt>
      <trkpt lat="37.48248167" lon="-4.42091">
        <ele>574.0</ele>
        <time>2018-06-09T07:53:31.157Z</time>
      </trkpt>
      <trkpt lat="37.482485" lon="-4.42087167">
        <ele>574.0</ele>
        <time>2018-06-09T07:53:32.183Z</time>
      </trkpt>
      <trkpt lat="37.48248667" lon="-4.42085333">
        <ele>574.0</ele>
        <time>2018-06-09T07:53:33.170Z</time>
      </trkpt>
      <trkpt lat="37.48248667" lon="-4.42085333">
        <ele>574.0</ele>
        <time>2018-06-09T07:53:34.196Z</time>
      </trkpt>
      <trkpt lat="37.48249167" lon="-4.420815">
        <ele>575.0</ele>
        <time>2018-06-09T07:53:35.159Z</time>
      </trkpt>
      <trkpt lat="37.48249167" lon="-4.420815">
        <ele>575.0</ele>
        <time>2018-06-09T07:53:36.180Z</time>
      </trkpt>
      <trkpt lat="37.48249833" lon="-4.420775">
        <ele>575.0</ele>
        <time>2018-06-09T07:53:37.162Z</time>
      </trkpt>
      <trkpt lat="37.48249833" lon="-4.420775">
        <ele>575.0</ele>
        <time>2018-06-09T07:53:38.159Z</time>
      </trkpt>
      <trkpt lat="37.482505" lon="-4.42073667">
        <ele>575.0</ele>
        <time>2018-06-09T07:53:39.161Z</time>
      </trkpt>
      <trkpt lat="37.48250667" lon="-4.42071667">
        <ele>575.0</ele>
        <time>2018-06-09T07:53:40.161Z</time>
      </trkpt>
      <trkpt lat="37.48251" lon="-4.420695">
        <ele>575.0</ele>
        <time>2018-06-09T07:53:41.160Z</time>
      </trkpt>
      <trkpt lat="37.48251" lon="-4.420695">
        <ele>575.0</ele>
        <time>2018-06-09T07:53:42.195Z</time>
      </trkpt>
      <trkpt lat="37.48251833" lon="-4.420655">
        <ele>576.0</ele>
        <time>2018-06-09T07:53:43.175Z</time>
      </trkpt>
      <trkpt lat="37.48251833" lon="-4.420655">
        <ele>576.0</ele>
        <time>2018-06-09T07:53:44.196Z</time>
      </trkpt>
      <trkpt lat="37.482525" lon="-4.42061333">
        <ele>576.0</ele>
        <time>2018-06-09T07:53:45.160Z</time>
      </trkpt>
      <trkpt lat="37.48252833" lon="-4.42059167">
        <ele>576.0</ele>
        <time>2018-06-09T07:53:46.180Z</time>
      </trkpt>
      <trkpt lat="37.48252833" lon="-4.42059167">
        <ele>576.0</ele>
        <time>2018-06-09T07:53:47.159Z</time>
      </trkpt>
      <trkpt lat="37.482535" lon="-4.42055">
        <ele>576.0</ele>
        <time>2018-06-09T07:53:48.165Z</time>
      </trkpt>
      <trkpt lat="37.48253833" lon="-4.42053">
        <ele>576.0</ele>
        <time>2018-06-09T07:53:49.162Z</time>
      </trkpt>
      <trkpt lat="37.48253833" lon="-4.42053">
        <ele>576.0</ele>
        <time>2018-06-09T07:53:50.160Z</time>
      </trkpt>
      <trkpt lat="37.48254333" lon="-4.42048667">
        <ele>577.0</ele>
        <time>2018-06-09T07:53:51.161Z</time>
      </trkpt>
      <trkpt lat="37.48254333" lon="-4.42048667">
        <ele>577.0</ele>
        <time>2018-06-09T07:53:52.159Z</time>
      </trkpt>
      <trkpt lat="37.482545" lon="-4.42044333">
        <ele>577.0</ele>
        <time>2018-06-09T07:53:53.180Z</time>
      </trkpt>
      <trkpt lat="37.48254667" lon="-4.42042333">
        <ele>577.0</ele>
        <time>2018-06-09T07:53:54.162Z</time>
      </trkpt>
      <trkpt lat="37.48254667" lon="-4.42042333">
        <ele>577.0</ele>
        <time>2018-06-09T07:53:55.196Z</time>
      </trkpt>
      <trkpt lat="37.48255" lon="-4.42038167">
        <ele>577.0</ele>
        <time>2018-06-09T07:53:56.179Z</time>
      </trkpt>
      <trkpt lat="37.48255" lon="-4.42038167">
        <ele>577.0</ele>
        <time>2018-06-09T07:53:57.157Z</time>
      </trkpt>
      <trkpt lat="37.482555" lon="-4.42034">
        <ele>577.0</ele>
        <time>2018-06-09T07:53:58.180Z</time>
      </trkpt>
      <trkpt lat="37.48255667" lon="-4.42032">
        <ele>578.0</ele>
        <time>2018-06-09T07:53:59.163Z</time>
      </trkpt>
      <trkpt lat="37.48255667" lon="-4.42029833">
        <ele>578.0</ele>
        <time>2018-06-09T07:54:00.161Z</time>
      </trkpt>
      <trkpt lat="37.48255667" lon="-4.42029833">
        <ele>578.0</ele>
        <time>2018-06-09T07:54:01.159Z</time>
      </trkpt>
      <trkpt lat="37.48256" lon="-4.42025833">
        <ele>578.0</ele>
        <time>2018-06-09T07:54:02.166Z</time>
      </trkpt>
      <trkpt lat="37.48256" lon="-4.42025833">
        <ele>578.0</ele>
        <time>2018-06-09T07:54:03.157Z</time>
      </trkpt>
      <trkpt lat="37.482565" lon="-4.42021667">
        <ele>578.0</ele>
        <time>2018-06-09T07:54:04.161Z</time>
      </trkpt>
      <trkpt lat="37.482565" lon="-4.42021667">
        <ele>578.0</ele>
        <time>2018-06-09T07:54:05.159Z</time>
      </trkpt>
      <trkpt lat="37.48256833" lon="-4.42017667">
        <ele>579.0</ele>
        <time>2018-06-09T07:54:06.179Z</time>
      </trkpt>
      <trkpt lat="37.48257333" lon="-4.42015667">
        <ele>579.0</ele>
        <time>2018-06-09T07:54:07.179Z</time>
      </trkpt>
      <trkpt lat="37.48257333" lon="-4.42015667">
        <ele>579.0</ele>
        <time>2018-06-09T07:54:08.158Z</time>
      </trkpt>
      <trkpt lat="37.48258" lon="-4.42012">
        <ele>579.0</ele>
        <time>2018-06-09T07:54:09.180Z</time>
      </trkpt>
      <trkpt lat="37.48258167" lon="-4.4201">
        <ele>579.0</ele>
        <time>2018-06-09T07:54:10.161Z</time>
      </trkpt>
      <trkpt lat="37.48258167" lon="-4.4201">
        <ele>579.0</ele>
        <time>2018-06-09T07:54:11.159Z</time>
      </trkpt>
      <trkpt lat="37.48258" lon="-4.42005667">
        <ele>579.0</ele>
        <time>2018-06-09T07:54:12.165Z</time>
      </trkpt>
      <trkpt lat="37.48258" lon="-4.42005667">
        <ele>579.0</ele>
        <time>2018-06-09T07:54:13.159Z</time>
      </trkpt>
      <trkpt lat="37.48257667" lon="-4.42001333">
        <ele>580.0</ele>
        <time>2018-06-09T07:54:14.162Z</time>
      </trkpt>
      <trkpt lat="37.48257667" lon="-4.42001333">
        <ele>580.0</ele>
        <time>2018-06-09T07:54:15.159Z</time>
      </trkpt>
      <trkpt lat="37.48257833" lon="-4.41997167">
        <ele>580.0</ele>
        <time>2018-06-09T07:54:16.160Z</time>
      </trkpt>
      <trkpt lat="37.48258167" lon="-4.41995">
        <ele>580.0</ele>
        <time>2018-06-09T07:54:17.162Z</time>
      </trkpt>
      <trkpt lat="37.48258167" lon="-4.41995">
        <ele>580.0</ele>
        <time>2018-06-09T07:54:18.180Z</time>
      </trkpt>
      <trkpt lat="37.48259" lon="-4.41990833">
        <ele>580.0</ele>
        <time>2018-06-09T07:54:19.162Z</time>
      </trkpt>
      <trkpt lat="37.48259" lon="-4.41990833">
        <ele>580.0</ele>
        <time>2018-06-09T07:54:20.160Z</time>
      </trkpt>
      <trkpt lat="37.482595" lon="-4.41986667">
        <ele>581.0</ele>
        <time>2018-06-09T07:54:21.158Z</time>
      </trkpt>
      <trkpt lat="37.48259833" lon="-4.419845">
        <ele>581.0</ele>
        <time>2018-06-09T07:54:22.175Z</time>
      </trkpt>
      <trkpt lat="37.48259833" lon="-4.419845">
        <ele>581.0</ele>
        <time>2018-06-09T07:54:23.196Z</time>
      </trkpt>
      <trkpt lat="37.48261167" lon="-4.419805">
        <ele>581.0</ele>
        <time>2018-06-09T07:54:24.176Z</time>
      </trkpt>
      <trkpt lat="37.48261167" lon="-4.419805">
        <ele>581.0</ele>
        <time>2018-06-09T07:54:25.196Z</time>
      </trkpt>
      <trkpt lat="37.48262333" lon="-4.419765">
        <ele>581.0</ele>
        <time>2018-06-09T07:54:26.175Z</time>
      </trkpt>
      <trkpt lat="37.48262333" lon="-4.419765">
        <ele>581.0</ele>
        <time>2018-06-09T07:54:27.174Z</time>
      </trkpt>
      <trkpt lat="37.48263167" lon="-4.41973">
        <ele>582.0</ele>
        <time>2018-06-09T07:54:28.162Z</time>
      </trkpt>
      <trkpt lat="37.48263167" lon="-4.41973">
        <ele>582.0</ele>
        <time>2018-06-09T07:54:29.160Z</time>
      </trkpt>
      <trkpt lat="37.48264" lon="-4.41969833">
        <ele>582.0</ele>
        <time>2018-06-09T07:54:30.162Z</time>
      </trkpt>
      <trkpt lat="37.48264" lon="-4.41969833">
        <ele>582.0</ele>
        <time>2018-06-09T07:54:31.160Z</time>
      </trkpt>
      <trkpt lat="37.482655" lon="-4.41967">
        <ele>582.0</ele>
        <time>2018-06-09T07:54:32.163Z</time>
      </trkpt>
      <trkpt lat="37.482655" lon="-4.41967">
        <ele>582.0</ele>
        <time>2018-06-09T07:54:33.160Z</time>
      </trkpt>
      <trkpt lat="37.48266833" lon="-4.41964">
        <ele>583.0</ele>
        <time>2018-06-09T07:54:34.162Z</time>
      </trkpt>
      <trkpt lat="37.48266833" lon="-4.41964">
        <ele>583.0</ele>
        <time>2018-06-09T07:54:35.160Z</time>
      </trkpt>
      <trkpt lat="37.48268333" lon="-4.41961833">
        <ele>583.0</ele>
        <time>2018-06-09T07:54:36.180Z</time>
      </trkpt>
      <trkpt lat="37.482695" lon="-4.41960833">
        <ele>583.0</ele>
        <time>2018-06-09T07:54:37.162Z</time>
      </trkpt>
      <trkpt lat="37.482695" lon="-4.41960833">
        <ele>583.0</ele>
        <time>2018-06-09T07:54:38.182Z</time>
      </trkpt>
      <trkpt lat="37.48271" lon="-4.419585">
        <ele>584.0</ele>
        <time>2018-06-09T07:54:39.162Z</time>
      </trkpt>
      <trkpt lat="37.48270667" lon="-4.41957">
        <ele>584.0</ele>
        <time>2018-06-09T07:54:40.161Z</time>
      </trkpt>
      <trkpt lat="37.48270667" lon="-4.41957">
        <ele>584.0</ele>
        <time>2018-06-09T07:54:41.159Z</time>
      </trkpt>
      <trkpt lat="37.48269667" lon="-4.419535">
        <ele>584.0</ele>
        <time>2018-06-09T07:54:42.162Z</time>
      </trkpt>
      <trkpt lat="37.48269" lon="-4.41951833">
        <ele>584.0</ele>
        <time>2018-06-09T07:54:43.161Z</time>
      </trkpt>
      <trkpt lat="37.48268333" lon="-4.41950167">
        <ele>584.0</ele>
        <time>2018-06-09T07:54:44.177Z</time>
      </trkpt>
      <trkpt lat="37.48268333" lon="-4.41950167">
        <ele>584.0</ele>
        <time>2018-06-09T07:54:45.196Z</time>
      </trkpt>
      <trkpt lat="37.482675" lon="-4.41947">
        <ele>585.0</ele>
        <time>2018-06-09T07:54:46.162Z</time>
      </trkpt>
      <trkpt lat="37.482675" lon="-4.41947">
        <ele>585.0</ele>
        <time>2018-06-09T07:54:47.160Z</time>
      </trkpt>
      <trkpt lat="37.482675" lon="-4.41944">
        <ele>585.0</ele>
        <time>2018-06-09T07:54:48.162Z</time>
      </trkpt>
      <trkpt lat="37.48267667" lon="-4.41942333">
        <ele>585.0</ele>
        <time>2018-06-09T07:54:49.162Z</time>
      </trkpt>
      <trkpt lat="37.482675" lon="-4.41940833">
        <ele>585.0</ele>
        <time>2018-06-09T07:54:50.162Z</time>
      </trkpt>
      <trkpt lat="37.482675" lon="-4.41940833">
        <ele>585.0</ele>
        <time>2018-06-09T07:54:51.160Z</time>
      </trkpt>
      <trkpt lat="37.48267" lon="-4.41937667">
        <ele>586.0</ele>
        <time>2018-06-09T07:54:52.159Z</time>
      </trkpt>
      <trkpt lat="37.48267" lon="-4.41937667">
        <ele>586.0</ele>
        <time>2018-06-09T07:54:53.163Z</time>
      </trkpt>
      <trkpt lat="37.48267" lon="-4.41934667">
        <ele>586.0</ele>
        <time>2018-06-09T07:54:54.162Z</time>
      </trkpt>
      <trkpt lat="37.48267" lon="-4.41934667">
        <ele>586.0</ele>
        <time>2018-06-09T07:54:55.160Z</time>
      </trkpt>
      <trkpt lat="37.48267" lon="-4.41931667">
        <ele>587.0</ele>
        <time>2018-06-09T07:54:56.182Z</time>
      </trkpt>
      <trkpt lat="37.48267" lon="-4.41931667">
        <ele>587.0</ele>
        <time>2018-06-09T07:54:57.162Z</time>
      </trkpt>
      <trkpt lat="37.48267167" lon="-4.419285">
        <ele>587.0</ele>
        <time>2018-06-09T07:54:58.161Z</time>
      </trkpt>
      <trkpt lat="37.48267167" lon="-4.419285">
        <ele>587.0</ele>
        <time>2018-06-09T07:54:59.196Z</time>
      </trkpt>
      <trkpt lat="37.48267333" lon="-4.419255">
        <ele>587.0</ele>
        <time>2018-06-09T07:55:00.162Z</time>
      </trkpt>
      <trkpt lat="37.482675" lon="-4.41924">
        <ele>588.0</ele>
        <time>2018-06-09T07:55:01.161Z</time>
      </trkpt>
      <trkpt lat="37.482675" lon="-4.41924">
        <ele>588.0</ele>
        <time>2018-06-09T07:55:02.160Z</time>
      </trkpt>
      <trkpt lat="37.48267167" lon="-4.41920833">
        <ele>588.0</ele>
        <time>2018-06-09T07:55:03.162Z</time>
      </trkpt>
      <trkpt lat="37.48266833" lon="-4.41919333">
        <ele>588.0</ele>
        <time>2018-06-09T07:55:04.161Z</time>
      </trkpt>
      <trkpt lat="37.48266833" lon="-4.41919333">
        <ele>588.0</ele>
        <time>2018-06-09T07:55:05.157Z</time>
      </trkpt>
      <trkpt lat="37.482665" lon="-4.41916333">
        <ele>589.0</ele>
        <time>2018-06-09T07:55:06.160Z</time>
      </trkpt>
      <trkpt lat="37.48266333" lon="-4.41914833">
        <ele>589.0</ele>
        <time>2018-06-09T07:55:07.177Z</time>
      </trkpt>
      <trkpt lat="37.48266333" lon="-4.419135">
        <ele>589.0</ele>
        <time>2018-06-09T07:55:08.163Z</time>
      </trkpt>
      <trkpt lat="37.48266333" lon="-4.419135">
        <ele>589.0</ele>
        <time>2018-06-09T07:55:09.159Z</time>
      </trkpt>
      <trkpt lat="37.48266333" lon="-4.41910833">
        <ele>590.0</ele>
        <time>2018-06-09T07:55:10.162Z</time>
      </trkpt>
      <trkpt lat="37.48266333" lon="-4.41910833">
        <ele>590.0</ele>
        <time>2018-06-09T07:55:11.160Z</time>
      </trkpt>
      <trkpt lat="37.48266167" lon="-4.41908">
        <ele>591.0</ele>
        <time>2018-06-09T07:55:12.161Z</time>
      </trkpt>
      <trkpt lat="37.48266167" lon="-4.41908">
        <ele>591.0</ele>
        <time>2018-06-09T07:55:13.167Z</time>
      </trkpt>
      <trkpt lat="37.48265667" lon="-4.41905167">
        <ele>591.0</ele>
        <time>2018-06-09T07:55:14.162Z</time>
      </trkpt>
      <trkpt lat="37.48265667" lon="-4.41905167">
        <ele>591.0</ele>
        <time>2018-06-09T07:55:15.159Z</time>
      </trkpt>
      <trkpt lat="37.48265333" lon="-4.419025">
        <ele>591.0</ele>
        <time>2018-06-09T07:55:16.161Z</time>
      </trkpt>
      <trkpt lat="37.48265333" lon="-4.419025">
        <ele>591.0</ele>
        <time>2018-06-09T07:55:17.159Z</time>
      </trkpt>
      <trkpt lat="37.48265" lon="-4.41899667">
        <ele>592.0</ele>
        <time>2018-06-09T07:55:18.180Z</time>
      </trkpt>
      <trkpt lat="37.48265167" lon="-4.41898167">
        <ele>592.0</ele>
        <time>2018-06-09T07:55:19.162Z</time>
      </trkpt>
      <trkpt lat="37.48265167" lon="-4.41898167">
        <ele>592.0</ele>
        <time>2018-06-09T07:55:20.157Z</time>
      </trkpt>
      <trkpt lat="37.48264333" lon="-4.41895333">
        <ele>592.0</ele>
        <time>2018-06-09T07:55:21.181Z</time>
      </trkpt>
      <trkpt lat="37.48264167" lon="-4.41894">
        <ele>592.0</ele>
        <time>2018-06-09T07:55:22.162Z</time>
      </trkpt>
      <trkpt lat="37.48264167" lon="-4.41894">
        <ele>592.0</ele>
        <time>2018-06-09T07:55:23.195Z</time>
      </trkpt>
      <trkpt lat="37.48264667" lon="-4.41891167">
        <ele>593.0</ele>
        <time>2018-06-09T07:55:24.162Z</time>
      </trkpt>
      <trkpt lat="37.48265333" lon="-4.41889833">
        <ele>593.0</ele>
        <time>2018-06-09T07:55:25.162Z</time>
      </trkpt>
      <trkpt lat="37.48265333" lon="-4.41889833">
        <ele>593.0</ele>
        <time>2018-06-09T07:55:26.160Z</time>
      </trkpt>
      <trkpt lat="37.48266" lon="-4.41887">
        <ele>594.0</ele>
        <time>2018-06-09T07:55:27.162Z</time>
      </trkpt>
      <trkpt lat="37.48266333" lon="-4.41885667">
        <ele>594.0</ele>
        <time>2018-06-09T07:55:28.162Z</time>
      </trkpt>
      <trkpt lat="37.48266667" lon="-4.41884333">
        <ele>594.0</ele>
        <time>2018-06-09T07:55:29.162Z</time>
      </trkpt>
      <trkpt lat="37.48266667" lon="-4.41884333">
        <ele>594.0</ele>
        <time>2018-06-09T07:55:30.160Z</time>
      </trkpt>
      <trkpt lat="37.48267333" lon="-4.41881667">
        <ele>594.0</ele>
        <time>2018-06-09T07:55:31.162Z</time>
      </trkpt>
      <trkpt lat="37.48267333" lon="-4.41881667">
        <ele>594.0</ele>
        <time>2018-06-09T07:55:32.160Z</time>
      </trkpt>
      <trkpt lat="37.48268" lon="-4.41879167">
        <ele>595.0</ele>
        <time>2018-06-09T07:55:33.193Z</time>
      </trkpt>
      <trkpt lat="37.482685" lon="-4.41878">
        <ele>595.0</ele>
        <time>2018-06-09T07:55:34.174Z</time>
      </trkpt>
      <trkpt lat="37.482685" lon="-4.41878">
        <ele>595.0</ele>
        <time>2018-06-09T07:55:35.159Z</time>
      </trkpt>
      <trkpt lat="37.48268167" lon="-4.41875">
        <ele>596.0</ele>
        <time>2018-06-09T07:55:36.162Z</time>
      </trkpt>
      <trkpt lat="37.48268333" lon="-4.418735">
        <ele>596.0</ele>
        <time>2018-06-09T07:55:37.162Z</time>
      </trkpt>
      <trkpt lat="37.48268333" lon="-4.418735">
        <ele>596.0</ele>
        <time>2018-06-09T07:55:38.181Z</time>
      </trkpt>
      <trkpt lat="37.48269" lon="-4.41870667">
        <ele>596.0</ele>
        <time>2018-06-09T07:55:39.162Z</time>
      </trkpt>
      <trkpt lat="37.48269" lon="-4.41870667">
        <ele>596.0</ele>
        <time>2018-06-09T07:55:40.159Z</time>
      </trkpt>
      <trkpt lat="37.48269167" lon="-4.41867667">
        <ele>597.0</ele>
        <time>2018-06-09T07:55:41.162Z</time>
      </trkpt>
      <trkpt lat="37.48269167" lon="-4.41867667">
        <ele>597.0</ele>
        <time>2018-06-09T07:55:42.160Z</time>
      </trkpt>
      <trkpt lat="37.48269333" lon="-4.41864667">
        <ele>597.0</ele>
        <time>2018-06-09T07:55:43.187Z</time>
      </trkpt>
      <trkpt lat="37.48269167" lon="-4.41863">
        <ele>598.0</ele>
        <time>2018-06-09T07:55:44.170Z</time>
      </trkpt>
      <trkpt lat="37.48269167" lon="-4.41863">
        <ele>598.0</ele>
        <time>2018-06-09T07:55:45.159Z</time>
      </trkpt>
      <trkpt lat="37.48268333" lon="-4.41860167">
        <ele>598.0</ele>
        <time>2018-06-09T07:55:46.161Z</time>
      </trkpt>
      <trkpt lat="37.48268333" lon="-4.41860167">
        <ele>598.0</ele>
        <time>2018-06-09T07:55:47.160Z</time>
      </trkpt>
      <trkpt lat="37.48267167" lon="-4.41857833">
        <ele>598.0</ele>
        <time>2018-06-09T07:55:48.172Z</time>
      </trkpt>
      <trkpt lat="37.48266167" lon="-4.41856667">
        <ele>599.0</ele>
        <time>2018-06-09T07:55:49.162Z</time>
      </trkpt>
      <trkpt lat="37.48266167" lon="-4.41856667">
        <ele>599.0</ele>
        <time>2018-06-09T07:55:50.158Z</time>
      </trkpt>
      <trkpt lat="37.48265167" lon="-4.41854">
        <ele>600.0</ele>
        <time>2018-06-09T07:55:51.161Z</time>
      </trkpt>
      <trkpt lat="37.48264667" lon="-4.418525">
        <ele>600.0</ele>
        <time>2018-06-09T07:55:52.170Z</time>
      </trkpt>
      <trkpt lat="37.48264667" lon="-4.418525">
        <ele>600.0</ele>
        <time>2018-06-09T07:55:53.164Z</time>
      </trkpt>
      <trkpt lat="37.48263" lon="-4.41850333">
        <ele>600.0</ele>
        <time>2018-06-09T07:55:54.161Z</time>
      </trkpt>
      <trkpt lat="37.48263" lon="-4.41850333">
        <ele>600.0</ele>
        <time>2018-06-09T07:55:55.159Z</time>
      </trkpt>
      <trkpt lat="37.48261167" lon="-4.41848333">
        <ele>601.0</ele>
        <time>2018-06-09T07:55:56.181Z</time>
      </trkpt>
      <trkpt lat="37.48261167" lon="-4.41848333">
        <ele>601.0</ele>
        <time>2018-06-09T07:55:57.159Z</time>
      </trkpt>
      <trkpt lat="37.482605" lon="-4.41845667">
        <ele>602.0</ele>
        <time>2018-06-09T07:55:58.181Z</time>
      </trkpt>
      <trkpt lat="37.48259667" lon="-4.418445">
        <ele>602.0</ele>
        <time>2018-06-09T07:55:59.162Z</time>
      </trkpt>
      <trkpt lat="37.48259667" lon="-4.418445">
        <ele>602.0</ele>
        <time>2018-06-09T07:56:00.158Z</time>
      </trkpt>
      <trkpt lat="37.48258" lon="-4.41842">
        <ele>602.0</ele>
        <time>2018-06-09T07:56:01.161Z</time>
      </trkpt>
      <trkpt lat="37.48257" lon="-4.41840833">
        <ele>602.0</ele>
        <time>2018-06-09T07:56:02.163Z</time>
      </trkpt>
      <trkpt lat="37.48257" lon="-4.41840833">
        <ele>602.0</ele>
        <time>2018-06-09T07:56:03.184Z</time>
      </trkpt>
      <trkpt lat="37.48255667" lon="-4.41838167">
        <ele>603.0</ele>
        <time>2018-06-09T07:56:04.175Z</time>
      </trkpt>
      <trkpt lat="37.48255667" lon="-4.41838167">
        <ele>603.0</ele>
        <time>2018-06-09T07:56:05.159Z</time>
      </trkpt>
      <trkpt lat="37.48254167" lon="-4.41835333">
        <ele>603.0</ele>
        <time>2018-06-09T07:56:06.180Z</time>
      </trkpt>
      <trkpt lat="37.48254167" lon="-4.41835333">
        <ele>603.0</ele>
        <time>2018-06-09T07:56:07.159Z</time>
      </trkpt>
      <trkpt lat="37.482525" lon="-4.41832667">
        <ele>603.0</ele>
        <time>2018-06-09T07:56:08.191Z</time>
      </trkpt>
      <trkpt lat="37.482525" lon="-4.41832667">
        <ele>603.0</ele>
        <time>2018-06-09T07:56:09.167Z</time>
      </trkpt>
      <trkpt lat="37.48250667" lon="-4.4183">
        <ele>604.0</ele>
        <time>2018-06-09T07:56:10.161Z</time>
      </trkpt>
      <trkpt lat="37.48250667" lon="-4.4183">
        <ele>604.0</ele>
        <time>2018-06-09T07:56:11.159Z</time>
      </trkpt>
      <trkpt lat="37.48248833" lon="-4.41827333">
        <ele>604.0</ele>
        <time>2018-06-09T07:56:12.161Z</time>
      </trkpt>
      <trkpt lat="37.48248833" lon="-4.41827333">
        <ele>604.0</ele>
        <time>2018-06-09T07:56:13.176Z</time>
      </trkpt>
      <trkpt lat="37.48247" lon="-4.41824833">
        <ele>604.0</ele>
        <time>2018-06-09T07:56:14.164Z</time>
      </trkpt>
      <trkpt lat="37.48247" lon="-4.41824833">
        <ele>604.0</ele>
        <time>2018-06-09T07:56:15.159Z</time>
      </trkpt>
      <trkpt lat="37.48245333" lon="-4.41822167">
        <ele>605.0</ele>
        <time>2018-06-09T07:56:16.159Z</time>
      </trkpt>
      <trkpt lat="37.48245333" lon="-4.41822167">
        <ele>605.0</ele>
        <time>2018-06-09T07:56:17.159Z</time>
      </trkpt>
      <trkpt lat="37.48243833" lon="-4.41819333">
        <ele>605.0</ele>
        <time>2018-06-09T07:56:18.175Z</time>
      </trkpt>
      <trkpt lat="37.48243833" lon="-4.41819333">
        <ele>605.0</ele>
        <time>2018-06-09T07:56:19.159Z</time>
      </trkpt>
      <trkpt lat="37.48242833" lon="-4.41816333">
        <ele>605.0</ele>
        <time>2018-06-09T07:56:20.162Z</time>
      </trkpt>
      <trkpt lat="37.48242833" lon="-4.41816333">
        <ele>605.0</ele>
        <time>2018-06-09T07:56:21.160Z</time>
      </trkpt>
      <trkpt lat="37.48241833" lon="-4.41813167">
        <ele>605.0</ele>
        <time>2018-06-09T07:56:22.162Z</time>
      </trkpt>
      <trkpt lat="37.48241333" lon="-4.41811667">
        <ele>606.0</ele>
        <time>2018-06-09T07:56:23.161Z</time>
      </trkpt>
      <trkpt lat="37.48241333" lon="-4.41811667">
        <ele>606.0</ele>
        <time>2018-06-09T07:56:24.157Z</time>
      </trkpt>
      <trkpt lat="37.48240167" lon="-4.41808667">
        <ele>606.0</ele>
        <time>2018-06-09T07:56:25.161Z</time>
      </trkpt>
      <trkpt lat="37.48240167" lon="-4.41808667">
        <ele>606.0</ele>
        <time>2018-06-09T07:56:26.177Z</time>
      </trkpt>
      <trkpt lat="37.48239" lon="-4.41805667">
        <ele>606.0</ele>
        <time>2018-06-09T07:56:27.172Z</time>
      </trkpt>
      <trkpt lat="37.48238667" lon="-4.41804">
        <ele>606.0</ele>
        <time>2018-06-09T07:56:28.162Z</time>
      </trkpt>
      <trkpt lat="37.48238667" lon="-4.41804">
        <ele>606.0</ele>
        <time>2018-06-09T07:56:29.157Z</time>
      </trkpt>
      <trkpt lat="37.48237833" lon="-4.41801">
        <ele>607.0</ele>
        <time>2018-06-09T07:56:30.162Z</time>
      </trkpt>
      <trkpt lat="37.48237833" lon="-4.41801">
        <ele>607.0</ele>
        <time>2018-06-09T07:56:31.159Z</time>
      </trkpt>
      <trkpt lat="37.48237" lon="-4.41798">
        <ele>607.0</ele>
        <time>2018-06-09T07:56:32.162Z</time>
      </trkpt>
      <trkpt lat="37.48237" lon="-4.41798">
        <ele>607.0</ele>
        <time>2018-06-09T07:56:33.196Z</time>
      </trkpt>
      <trkpt lat="37.48236167" lon="-4.41795">
        <ele>608.0</ele>
        <time>2018-06-09T07:56:34.162Z</time>
      </trkpt>
      <trkpt lat="37.48236167" lon="-4.41795">
        <ele>608.0</ele>
        <time>2018-06-09T07:56:35.159Z</time>
      </trkpt>
      <trkpt lat="37.48235833" lon="-4.41792">
        <ele>608.0</ele>
        <time>2018-06-09T07:56:36.180Z</time>
      </trkpt>
      <trkpt lat="37.48235833" lon="-4.41792">
        <ele>608.0</ele>
        <time>2018-06-09T07:56:37.161Z</time>
      </trkpt>
      <trkpt lat="37.48235333" lon="-4.41789167">
        <ele>609.0</ele>
        <time>2018-06-09T07:56:38.165Z</time>
      </trkpt>
      <trkpt lat="37.48235333" lon="-4.41789167">
        <ele>609.0</ele>
        <time>2018-06-09T07:56:39.159Z</time>
      </trkpt>
      <trkpt lat="37.48234333" lon="-4.417865">
        <ele>609.0</ele>
        <time>2018-06-09T07:56:40.162Z</time>
      </trkpt>
      <trkpt lat="37.48234333" lon="-4.417865">
        <ele>609.0</ele>
        <time>2018-06-09T07:56:41.196Z</time>
      </trkpt>
      <trkpt lat="37.48233833" lon="-4.41783667">
        <ele>609.0</ele>
        <time>2018-06-09T07:56:42.174Z</time>
      </trkpt>
      <trkpt lat="37.48233833" lon="-4.41783667">
        <ele>609.0</ele>
        <time>2018-06-09T07:56:43.161Z</time>
      </trkpt>
      <trkpt lat="37.48233167" lon="-4.41780667">
        <ele>610.0</ele>
        <time>2018-06-09T07:56:44.162Z</time>
      </trkpt>
      <trkpt lat="37.48233167" lon="-4.41780667">
        <ele>610.0</ele>
        <time>2018-06-09T07:56:45.159Z</time>
      </trkpt>
      <trkpt lat="37.48232667" lon="-4.41777667">
        <ele>610.0</ele>
        <time>2018-06-09T07:56:46.181Z</time>
      </trkpt>
      <trkpt lat="37.48232667" lon="-4.41777667">
        <ele>610.0</ele>
        <time>2018-06-09T07:56:47.185Z</time>
      </trkpt>
      <trkpt lat="37.48232167" lon="-4.41774667">
        <ele>611.0</ele>
        <time>2018-06-09T07:56:48.162Z</time>
      </trkpt>
      <trkpt lat="37.48232167" lon="-4.41774667">
        <ele>611.0</ele>
        <time>2018-06-09T07:56:49.159Z</time>
      </trkpt>
      <trkpt lat="37.482315" lon="-4.41772167">
        <ele>612.0</ele>
        <time>2018-06-09T07:56:50.163Z</time>
      </trkpt>
      <trkpt lat="37.482315" lon="-4.41772167">
        <ele>612.0</ele>
        <time>2018-06-09T07:56:51.159Z</time>
      </trkpt>
      <trkpt lat="37.48230833" lon="-4.41769333">
        <ele>612.0</ele>
        <time>2018-06-09T07:56:52.162Z</time>
      </trkpt>
      <trkpt lat="37.48230833" lon="-4.41769333">
        <ele>612.0</ele>
        <time>2018-06-09T07:56:53.160Z</time>
      </trkpt>
      <trkpt lat="37.48230167" lon="-4.417665">
        <ele>613.0</ele>
        <time>2018-06-09T07:56:54.161Z</time>
      </trkpt>
      <trkpt lat="37.4823" lon="-4.41765167">
        <ele>613.0</ele>
        <time>2018-06-09T07:56:55.162Z</time>
      </trkpt>
      <trkpt lat="37.48229833" lon="-4.41763833">
        <ele>613.0</ele>
        <time>2018-06-09T07:56:56.181Z</time>
      </trkpt>
      <trkpt lat="37.48229833" lon="-4.41763833">
        <ele>613.0</ele>
        <time>2018-06-09T07:56:57.158Z</time>
      </trkpt>
      <trkpt lat="37.48230167" lon="-4.41761">
        <ele>614.0</ele>
        <time>2018-06-09T07:56:58.181Z</time>
      </trkpt>
      <trkpt lat="37.48230333" lon="-4.41759667">
        <ele>614.0</ele>
        <time>2018-06-09T07:56:59.162Z</time>
      </trkpt>
      <trkpt lat="37.48230167" lon="-4.41758167">
        <ele>614.0</ele>
        <time>2018-06-09T07:57:00.160Z</time>
      </trkpt>
      <trkpt lat="37.48230167" lon="-4.41758167">
        <ele>614.0</ele>
        <time>2018-06-09T07:57:01.175Z</time>
      </trkpt>
      <trkpt lat="37.48230333" lon="-4.41755167">
        <ele>615.0</ele>
        <time>2018-06-09T07:57:02.163Z</time>
      </trkpt>
      <trkpt lat="37.48230333" lon="-4.41755167">
        <ele>615.0</ele>
        <time>2018-06-09T07:57:03.181Z</time>
      </trkpt>
      <trkpt lat="37.48230333" lon="-4.41752167">
        <ele>615.0</ele>
        <time>2018-06-09T07:57:04.165Z</time>
      </trkpt>
      <trkpt lat="37.482305" lon="-4.41750833">
        <ele>616.0</ele>
        <time>2018-06-09T07:57:05.162Z</time>
      </trkpt>
      <trkpt lat="37.482305" lon="-4.41750833">
        <ele>616.0</ele>
        <time>2018-06-09T07:57:06.192Z</time>
      </trkpt>
      <trkpt lat="37.48231667" lon="-4.41748167">
        <ele>616.0</ele>
        <time>2018-06-09T07:57:07.173Z</time>
      </trkpt>
      <trkpt lat="37.48232333" lon="-4.41746833">
        <ele>616.0</ele>
        <time>2018-06-09T07:57:08.163Z</time>
      </trkpt>
      <trkpt lat="37.48232333" lon="-4.41746833">
        <ele>616.0</ele>
        <time>2018-06-09T07:57:09.159Z</time>
      </trkpt>
      <trkpt lat="37.48232667" lon="-4.41744167">
        <ele>617.0</ele>
        <time>2018-06-09T07:57:10.162Z</time>
      </trkpt>
      <trkpt lat="37.48232667" lon="-4.41744167">
        <ele>617.0</ele>
        <time>2018-06-09T07:57:11.158Z</time>
      </trkpt>
      <trkpt lat="37.48232833" lon="-4.41741333">
        <ele>618.0</ele>
        <time>2018-06-09T07:57:12.164Z</time>
      </trkpt>
      <trkpt lat="37.48232833" lon="-4.41741333">
        <ele>618.0</ele>
        <time>2018-06-09T07:57:13.158Z</time>
      </trkpt>
      <trkpt lat="37.48233" lon="-4.41738667">
        <ele>618.0</ele>
        <time>2018-06-09T07:57:14.180Z</time>
      </trkpt>
      <trkpt lat="37.48233" lon="-4.41738667">
        <ele>618.0</ele>
        <time>2018-06-09T07:57:15.160Z</time>
      </trkpt>
      <trkpt lat="37.482335" lon="-4.41736167">
        <ele>619.0</ele>
        <time>2018-06-09T07:57:16.181Z</time>
      </trkpt>
      <trkpt lat="37.482335" lon="-4.41736167">
        <ele>619.0</ele>
        <time>2018-06-09T07:57:17.157Z</time>
      </trkpt>
      <trkpt lat="37.48234" lon="-4.41733667">
        <ele>619.0</ele>
        <time>2018-06-09T07:57:18.177Z</time>
      </trkpt>
      <trkpt lat="37.48234" lon="-4.41733667">
        <ele>619.0</ele>
        <time>2018-06-09T07:57:19.160Z</time>
      </trkpt>
      <trkpt lat="37.48235333" lon="-4.41731833">
        <ele>620.0</ele>
        <time>2018-06-09T07:57:20.163Z</time>
      </trkpt>
      <trkpt lat="37.48235833" lon="-4.41730833">
        <ele>620.0</ele>
        <time>2018-06-09T07:57:21.162Z</time>
      </trkpt>
      <trkpt lat="37.48235833" lon="-4.41730833">
        <ele>620.0</ele>
        <time>2018-06-09T07:57:22.160Z</time>
      </trkpt>
      <trkpt lat="37.482365" lon="-4.41728167">
        <ele>621.0</ele>
        <time>2018-06-09T07:57:23.182Z</time>
      </trkpt>
      <trkpt lat="37.482365" lon="-4.41728167">
        <ele>621.0</ele>
        <time>2018-06-09T07:57:24.169Z</time>
      </trkpt>
      <trkpt lat="37.482375" lon="-4.41725667">
        <ele>621.0</ele>
        <time>2018-06-09T07:57:25.162Z</time>
      </trkpt>
      <trkpt lat="37.482375" lon="-4.41725667">
        <ele>621.0</ele>
        <time>2018-06-09T07:57:26.162Z</time>
      </trkpt>
      <trkpt lat="37.48238167" lon="-4.41723167">
        <ele>621.0</ele>
        <time>2018-06-09T07:57:27.162Z</time>
      </trkpt>
      <trkpt lat="37.48238333" lon="-4.41721833">
        <ele>622.0</ele>
        <time>2018-06-09T07:57:28.162Z</time>
      </trkpt>
      <trkpt lat="37.48238333" lon="-4.41721833">
        <ele>622.0</ele>
        <time>2018-06-09T07:57:29.160Z</time>
      </trkpt>
      <trkpt lat="37.48239833" lon="-4.4172">
        <ele>622.0</ele>
        <time>2018-06-09T07:57:30.162Z</time>
      </trkpt>
      <trkpt lat="37.48240333" lon="-4.41719">
        <ele>622.0</ele>
        <time>2018-06-09T07:57:31.162Z</time>
      </trkpt>
      <trkpt lat="37.48240333" lon="-4.41719">
        <ele>622.0</ele>
        <time>2018-06-09T07:57:32.160Z</time>
      </trkpt>
      <trkpt lat="37.482415" lon="-4.417165">
        <ele>622.0</ele>
        <time>2018-06-09T07:57:33.182Z</time>
      </trkpt>
      <trkpt lat="37.482415" lon="-4.417165">
        <ele>622.0</ele>
        <time>2018-06-09T07:57:34.170Z</time>
      </trkpt>
      <trkpt lat="37.48242333" lon="-4.417145">
        <ele>622.0</ele>
        <time>2018-06-09T07:57:35.162Z</time>
      </trkpt>
      <trkpt lat="37.48242333" lon="-4.417145">
        <ele>622.0</ele>
        <time>2018-06-09T07:57:36.160Z</time>
      </trkpt>
      <trkpt lat="37.48243" lon="-4.41712333">
        <ele>622.0</ele>
        <time>2018-06-09T07:57:37.162Z</time>
      </trkpt>
      <trkpt lat="37.48243" lon="-4.41712333">
        <ele>622.0</ele>
        <time>2018-06-09T07:57:38.160Z</time>
      </trkpt>
      <trkpt lat="37.48244" lon="-4.4171">
        <ele>623.0</ele>
        <time>2018-06-09T07:57:39.162Z</time>
      </trkpt>
      <trkpt lat="37.482445" lon="-4.41708667">
        <ele>623.0</ele>
        <time>2018-06-09T07:57:40.162Z</time>
      </trkpt>
      <trkpt lat="37.482445" lon="-4.41708667">
        <ele>623.0</ele>
        <time>2018-06-09T07:57:41.157Z</time>
      </trkpt>
      <trkpt lat="37.48245" lon="-4.417065">
        <ele>624.0</ele>
        <time>2018-06-09T07:57:42.162Z</time>
      </trkpt>
      <trkpt lat="37.48245" lon="-4.417065">
        <ele>624.0</ele>
        <time>2018-06-09T07:57:43.159Z</time>
      </trkpt>
      <trkpt lat="37.48245833" lon="-4.41704167">
        <ele>624.0</ele>
        <time>2018-06-09T07:57:44.184Z</time>
      </trkpt>
      <trkpt lat="37.48245833" lon="-4.41704167">
        <ele>624.0</ele>
        <time>2018-06-09T07:57:45.162Z</time>
      </trkpt>
      <trkpt lat="37.48247167" lon="-4.41702">
        <ele>624.0</ele>
        <time>2018-06-09T07:57:46.161Z</time>
      </trkpt>
      <trkpt lat="37.48247167" lon="-4.41702">
        <ele>624.0</ele>
        <time>2018-06-09T07:57:47.160Z</time>
      </trkpt>
      <trkpt lat="37.48247667" lon="-4.416995">
        <ele>625.0</ele>
        <time>2018-06-09T07:57:48.163Z</time>
      </trkpt>
      <trkpt lat="37.48247667" lon="-4.416995">
        <ele>625.0</ele>
        <time>2018-06-09T07:57:49.160Z</time>
      </trkpt>
      <trkpt lat="37.48247833" lon="-4.41697">
        <ele>625.0</ele>
        <time>2018-06-09T07:57:50.162Z</time>
      </trkpt>
      <trkpt lat="37.48248167" lon="-4.41695667">
        <ele>626.0</ele>
        <time>2018-06-09T07:57:51.165Z</time>
      </trkpt>
      <trkpt lat="37.48248167" lon="-4.41695667">
        <ele>626.0</ele>
        <time>2018-06-09T07:57:52.160Z</time>
      </trkpt>
      <trkpt lat="37.48249333" lon="-4.41693333">
        <ele>626.0</ele>
        <time>2018-06-09T07:57:53.181Z</time>
      </trkpt>
      <trkpt lat="37.48249333" lon="-4.41693333">
        <ele>626.0</ele>
        <time>2018-06-09T07:57:54.164Z</time>
      </trkpt>
      <trkpt lat="37.48250333" lon="-4.41690833">
        <ele>627.0</ele>
        <time>2018-06-09T07:57:55.162Z</time>
      </trkpt>
      <trkpt lat="37.48250833" lon="-4.416895">
        <ele>627.0</ele>
        <time>2018-06-09T07:57:56.163Z</time>
      </trkpt>
      <trkpt lat="37.48250833" lon="-4.416895">
        <ele>627.0</ele>
        <time>2018-06-09T07:57:57.160Z</time>
      </trkpt>
      <trkpt lat="37.48251667" lon="-4.41687">
        <ele>628.0</ele>
        <time>2018-06-09T07:57:58.181Z</time>
      </trkpt>
      <trkpt lat="37.48251667" lon="-4.41687">
        <ele>628.0</ele>
        <time>2018-06-09T07:57:59.163Z</time>
      </trkpt>
      <trkpt lat="37.48252" lon="-4.41684167">
        <ele>629.0</ele>
        <time>2018-06-09T07:58:00.162Z</time>
      </trkpt>
      <trkpt lat="37.48252667" lon="-4.41682667">
        <ele>629.0</ele>
        <time>2018-06-09T07:58:01.162Z</time>
      </trkpt>
      <trkpt lat="37.48253333" lon="-4.41681333">
        <ele>629.0</ele>
        <time>2018-06-09T07:58:02.162Z</time>
      </trkpt>
      <trkpt lat="37.48253333" lon="-4.41681333">
        <ele>629.0</ele>
        <time>2018-06-09T07:58:03.160Z</time>
      </trkpt>
      <trkpt lat="37.48254833" lon="-4.41679">
        <ele>630.0</ele>
        <time>2018-06-09T07:58:04.159Z</time>
      </trkpt>
      <trkpt lat="37.48254833" lon="-4.41679">
        <ele>630.0</ele>
        <time>2018-06-09T07:58:05.157Z</time>
      </trkpt>
      <trkpt lat="37.48255833" lon="-4.41677">
        <ele>630.0</ele>
        <time>2018-06-09T07:58:06.181Z</time>
      </trkpt>
      <trkpt lat="37.48255833" lon="-4.41677">
        <ele>630.0</ele>
        <time>2018-06-09T07:58:07.162Z</time>
      </trkpt>
      <trkpt lat="37.48256667" lon="-4.41674333">
        <ele>631.0</ele>
        <time>2018-06-09T07:58:08.163Z</time>
      </trkpt>
      <trkpt lat="37.48256667" lon="-4.41674333">
        <ele>631.0</ele>
        <time>2018-06-09T07:58:09.196Z</time>
      </trkpt>
      <trkpt lat="37.48257333" lon="-4.41671833">
        <ele>631.0</ele>
        <time>2018-06-09T07:58:10.177Z</time>
      </trkpt>
      <trkpt lat="37.48257333" lon="-4.41671833">
        <ele>631.0</ele>
        <time>2018-06-09T07:58:11.162Z</time>
      </trkpt>
      <trkpt lat="37.48258" lon="-4.41669">
        <ele>632.0</ele>
        <time>2018-06-09T07:58:12.162Z</time>
      </trkpt>
      <trkpt lat="37.48258333" lon="-4.41667833">
        <ele>632.0</ele>
        <time>2018-06-09T07:58:13.161Z</time>
      </trkpt>
      <trkpt lat="37.482585" lon="-4.41666667">
        <ele>632.0</ele>
        <time>2018-06-09T07:58:14.167Z</time>
      </trkpt>
      <trkpt lat="37.482585" lon="-4.41666667">
        <ele>632.0</ele>
        <time>2018-06-09T07:58:15.159Z</time>
      </trkpt>
      <trkpt lat="37.48259333" lon="-4.41663833">
        <ele>633.0</ele>
        <time>2018-06-09T07:58:16.177Z</time>
      </trkpt>
      <trkpt lat="37.48259333" lon="-4.41663833">
        <ele>633.0</ele>
        <time>2018-06-09T07:58:17.160Z</time>
      </trkpt>
      <trkpt lat="37.4826" lon="-4.41661167">
        <ele>633.0</ele>
        <time>2018-06-09T07:58:18.161Z</time>
      </trkpt>
      <trkpt lat="37.482605" lon="-4.41659833">
        <ele>633.0</ele>
        <time>2018-06-09T07:58:19.162Z</time>
      </trkpt>
      <trkpt lat="37.482605" lon="-4.41659833">
        <ele>633.0</ele>
        <time>2018-06-09T07:58:20.161Z</time>
      </trkpt>
      <trkpt lat="37.48261333" lon="-4.41657333">
        <ele>634.0</ele>
        <time>2018-06-09T07:58:21.162Z</time>
      </trkpt>
      <trkpt lat="37.48261667" lon="-4.41655833">
        <ele>634.0</ele>
        <time>2018-06-09T07:58:22.189Z</time>
      </trkpt>
      <trkpt lat="37.48261667" lon="-4.41655833">
        <ele>634.0</ele>
        <time>2018-06-09T07:58:23.175Z</time>
      </trkpt>
      <trkpt lat="37.48262" lon="-4.41653167">
        <ele>635.0</ele>
        <time>2018-06-09T07:58:24.162Z</time>
      </trkpt>
      <trkpt lat="37.48262" lon="-4.41653167">
        <ele>635.0</ele>
        <time>2018-06-09T07:58:25.160Z</time>
      </trkpt>
      <trkpt lat="37.48262833" lon="-4.41650667">
        <ele>635.0</ele>
        <time>2018-06-09T07:58:26.160Z</time>
      </trkpt>
      <trkpt lat="37.48263333" lon="-4.416495">
        <ele>636.0</ele>
        <time>2018-06-09T07:58:27.163Z</time>
      </trkpt>
      <trkpt lat="37.48263833" lon="-4.41648333">
        <ele>636.0</ele>
        <time>2018-06-09T07:58:28.163Z</time>
      </trkpt>
      <trkpt lat="37.48263833" lon="-4.41648333">
        <ele>636.0</ele>
        <time>2018-06-09T07:58:29.158Z</time>
      </trkpt>
      <trkpt lat="37.48264833" lon="-4.41645833">
        <ele>636.0</ele>
        <time>2018-06-09T07:58:30.177Z</time>
      </trkpt>
      <trkpt lat="37.48265" lon="-4.416445">
        <ele>637.0</ele>
        <time>2018-06-09T07:58:31.162Z</time>
      </trkpt>
      <trkpt lat="37.48265" lon="-4.416445">
        <ele>637.0</ele>
        <time>2018-06-09T07:58:32.161Z</time>
      </trkpt>
      <trkpt lat="37.48265" lon="-4.41641833">
        <ele>637.0</ele>
        <time>2018-06-09T07:58:33.162Z</time>
      </trkpt>
      <trkpt lat="37.48265333" lon="-4.416405">
        <ele>637.0</ele>
        <time>2018-06-09T07:58:34.162Z</time>
      </trkpt>
      <trkpt lat="37.48265333" lon="-4.416405">
        <ele>637.0</ele>
        <time>2018-06-09T07:58:35.157Z</time>
      </trkpt>
      <trkpt lat="37.482665" lon="-4.41638167">
        <ele>638.0</ele>
        <time>2018-06-09T07:58:36.177Z</time>
      </trkpt>
      <trkpt lat="37.48266833" lon="-4.41636833">
        <ele>638.0</ele>
        <time>2018-06-09T07:58:37.161Z</time>
      </trkpt>
      <trkpt lat="37.48266833" lon="-4.41636833">
        <ele>638.0</ele>
        <time>2018-06-09T07:58:38.158Z</time>
      </trkpt>
      <trkpt lat="37.48266667" lon="-4.41634333">
        <ele>638.0</ele>
        <time>2018-06-09T07:58:39.163Z</time>
      </trkpt>
      <trkpt lat="37.48266667" lon="-4.41633">
        <ele>639.0</ele>
        <time>2018-06-09T07:58:40.162Z</time>
      </trkpt>
      <trkpt lat="37.48266667" lon="-4.41633">
        <ele>639.0</ele>
        <time>2018-06-09T07:58:41.161Z</time>
      </trkpt>
      <trkpt lat="37.48267833" lon="-4.41630667">
        <ele>639.0</ele>
        <time>2018-06-09T07:58:42.159Z</time>
      </trkpt>
      <trkpt lat="37.48268333" lon="-4.416295">
        <ele>639.0</ele>
        <time>2018-06-09T07:58:43.181Z</time>
      </trkpt>
      <trkpt lat="37.48268333" lon="-4.416295">
        <ele>639.0</ele>
        <time>2018-06-09T07:58:44.164Z</time>
      </trkpt>
      <trkpt lat="37.48269" lon="-4.41627">
        <ele>640.0</ele>
        <time>2018-06-09T07:58:45.162Z</time>
      </trkpt>
      <trkpt lat="37.48269333" lon="-4.41625667">
        <ele>640.0</ele>
        <time>2018-06-09T07:58:46.162Z</time>
      </trkpt>
      <trkpt lat="37.482695" lon="-4.41624333">
        <ele>641.0</ele>
        <time>2018-06-09T07:58:47.163Z</time>
      </trkpt>
      <trkpt lat="37.482695" lon="-4.41624333">
        <ele>641.0</ele>
        <time>2018-06-09T07:58:48.181Z</time>
      </trkpt>
      <trkpt lat="37.4827" lon="-4.41621833">
        <ele>641.0</ele>
        <time>2018-06-09T07:58:49.163Z</time>
      </trkpt>
      <trkpt lat="37.4827" lon="-4.41621833">
        <ele>641.0</ele>
        <time>2018-06-09T07:58:50.161Z</time>
      </trkpt>
      <trkpt lat="37.48270667" lon="-4.41619333">
        <ele>642.0</ele>
        <time>2018-06-09T07:58:51.162Z</time>
      </trkpt>
      <trkpt lat="37.48271" lon="-4.41618">
        <ele>642.0</ele>
        <time>2018-06-09T07:58:52.162Z</time>
      </trkpt>
      <trkpt lat="37.48271" lon="-4.41618">
        <ele>642.0</ele>
        <time>2018-06-09T07:58:53.181Z</time>
      </trkpt>
      <trkpt lat="37.48272167" lon="-4.41615667">
        <ele>643.0</ele>
        <time>2018-06-09T07:58:54.162Z</time>
      </trkpt>
      <trkpt lat="37.48272167" lon="-4.41615667">
        <ele>643.0</ele>
        <time>2018-06-09T07:58:55.157Z</time>
      </trkpt>
      <trkpt lat="37.48273667" lon="-4.41613833">
        <ele>643.0</ele>
        <time>2018-06-09T07:58:56.177Z</time>
      </trkpt>
      <trkpt lat="37.48273667" lon="-4.41613833">
        <ele>643.0</ele>
        <time>2018-06-09T07:58:57.157Z</time>
      </trkpt>
      <trkpt lat="37.482745" lon="-4.416115">
        <ele>643.0</ele>
        <time>2018-06-09T07:58:58.177Z</time>
      </trkpt>
      <trkpt lat="37.482745" lon="-4.416115">
        <ele>643.0</ele>
        <time>2018-06-09T07:58:59.158Z</time>
      </trkpt>
      <trkpt lat="37.48275333" lon="-4.41609">
        <ele>644.0</ele>
        <time>2018-06-09T07:59:00.175Z</time>
      </trkpt>
      <trkpt lat="37.48275333" lon="-4.41609">
        <ele>644.0</ele>
        <time>2018-06-09T07:59:01.158Z</time>
      </trkpt>
      <trkpt lat="37.482765" lon="-4.41607">
        <ele>644.0</ele>
        <time>2018-06-09T07:59:02.163Z</time>
      </trkpt>
      <trkpt lat="37.48277" lon="-4.41605833">
        <ele>644.0</ele>
        <time>2018-06-09T07:59:03.161Z</time>
      </trkpt>
      <trkpt lat="37.48277" lon="-4.41605833">
        <ele>644.0</ele>
        <time>2018-06-09T07:59:04.161Z</time>
      </trkpt>
      <trkpt lat="37.48277833" lon="-4.41603667">
        <ele>644.0</ele>
        <time>2018-06-09T07:59:05.194Z</time>
      </trkpt>
      <trkpt lat="37.482785" lon="-4.41602667">
        <ele>645.0</ele>
        <time>2018-06-09T07:59:06.176Z</time>
      </trkpt>
      <trkpt lat="37.482785" lon="-4.41602667">
        <ele>645.0</ele>
        <time>2018-06-09T07:59:07.158Z</time>
      </trkpt>
      <trkpt lat="37.4828" lon="-4.41600333">
        <ele>645.0</ele>
        <time>2018-06-09T07:59:08.177Z</time>
      </trkpt>
      <trkpt lat="37.4828" lon="-4.41600333">
        <ele>645.0</ele>
        <time>2018-06-09T07:59:09.158Z</time>
      </trkpt>
      <trkpt lat="37.48281167" lon="-4.41597833">
        <ele>645.0</ele>
        <time>2018-06-09T07:59:10.176Z</time>
      </trkpt>
      <trkpt lat="37.48281167" lon="-4.41597833">
        <ele>645.0</ele>
        <time>2018-06-09T07:59:11.158Z</time>
      </trkpt>
      <trkpt lat="37.48282" lon="-4.415955">
        <ele>645.0</ele>
        <time>2018-06-09T07:59:12.177Z</time>
      </trkpt>
      <trkpt lat="37.48282167" lon="-4.41594167">
        <ele>645.0</ele>
        <time>2018-06-09T07:59:13.164Z</time>
      </trkpt>
      <trkpt lat="37.48282167" lon="-4.41594167">
        <ele>645.0</ele>
        <time>2018-06-09T07:59:14.157Z</time>
      </trkpt>
      <trkpt lat="37.48283333" lon="-4.41591833">
        <ele>646.0</ele>
        <time>2018-06-09T07:59:15.160Z</time>
      </trkpt>
      <trkpt lat="37.48284" lon="-4.41590833">
        <ele>646.0</ele>
        <time>2018-06-09T07:59:16.182Z</time>
      </trkpt>
      <trkpt lat="37.48284" lon="-4.41590833">
        <ele>646.0</ele>
        <time>2018-06-09T07:59:17.163Z</time>
      </trkpt>
      <trkpt lat="37.48285" lon="-4.415885">
        <ele>646.0</ele>
        <time>2018-06-09T07:59:18.164Z</time>
      </trkpt>
      <trkpt lat="37.48285" lon="-4.415885">
        <ele>646.0</ele>
        <time>2018-06-09T07:59:19.158Z</time>
      </trkpt>
      <trkpt lat="37.48286" lon="-4.41586167">
        <ele>647.0</ele>
        <time>2018-06-09T07:59:20.177Z</time>
      </trkpt>
      <trkpt lat="37.48286" lon="-4.41586167">
        <ele>647.0</ele>
        <time>2018-06-09T07:59:21.158Z</time>
      </trkpt>
      <trkpt lat="37.48286667" lon="-4.415835">
        <ele>647.0</ele>
        <time>2018-06-09T07:59:22.176Z</time>
      </trkpt>
      <trkpt lat="37.48286667" lon="-4.415835">
        <ele>647.0</ele>
        <time>2018-06-09T07:59:23.159Z</time>
      </trkpt>
      <trkpt lat="37.48287667" lon="-4.41581">
        <ele>647.0</ele>
        <time>2018-06-09T07:59:24.178Z</time>
      </trkpt>
      <trkpt lat="37.48287667" lon="-4.41581">
        <ele>647.0</ele>
        <time>2018-06-09T07:59:25.165Z</time>
      </trkpt>
      <trkpt lat="37.48288667" lon="-4.41578333">
        <ele>647.0</ele>
        <time>2018-06-09T07:59:26.165Z</time>
      </trkpt>
      <trkpt lat="37.48288667" lon="-4.41578333">
        <ele>647.0</ele>
        <time>2018-06-09T07:59:27.159Z</time>
      </trkpt>
      <trkpt lat="37.482895" lon="-4.415755">
        <ele>648.0</ele>
        <time>2018-06-09T07:59:28.177Z</time>
      </trkpt>
      <trkpt lat="37.482895" lon="-4.415755">
        <ele>648.0</ele>
        <time>2018-06-09T07:59:29.158Z</time>
      </trkpt>
      <trkpt lat="37.48290667" lon="-4.41573">
        <ele>648.0</ele>
        <time>2018-06-09T07:59:30.177Z</time>
      </trkpt>
      <trkpt lat="37.48290667" lon="-4.41573">
        <ele>648.0</ele>
        <time>2018-06-09T07:59:31.158Z</time>
      </trkpt>
      <trkpt lat="37.48291667" lon="-4.41570167">
        <ele>649.0</ele>
        <time>2018-06-09T07:59:32.177Z</time>
      </trkpt>
      <trkpt lat="37.48291667" lon="-4.41570167">
        <ele>649.0</ele>
        <time>2018-06-09T07:59:33.159Z</time>
      </trkpt>
      <trkpt lat="37.482925" lon="-4.41567333">
        <ele>649.0</ele>
        <time>2018-06-09T07:59:34.163Z</time>
      </trkpt>
      <trkpt lat="37.482925" lon="-4.41567333">
        <ele>649.0</ele>
        <time>2018-06-09T07:59:35.159Z</time>
      </trkpt>
      <trkpt lat="37.482935" lon="-4.41564833">
        <ele>650.0</ele>
        <time>2018-06-09T07:59:36.175Z</time>
      </trkpt>
      <trkpt lat="37.482935" lon="-4.41564833">
        <ele>650.0</ele>
        <time>2018-06-09T07:59:37.158Z</time>
      </trkpt>
      <trkpt lat="37.48294" lon="-4.41562333">
        <ele>651.0</ele>
        <time>2018-06-09T07:59:38.177Z</time>
      </trkpt>
      <trkpt lat="37.48294333" lon="-4.41561">
        <ele>651.0</ele>
        <time>2018-06-09T07:59:39.164Z</time>
      </trkpt>
      <trkpt lat="37.482945" lon="-4.41559667">
        <ele>651.0</ele>
        <time>2018-06-09T07:59:40.161Z</time>
      </trkpt>
      <trkpt lat="37.482945" lon="-4.41559667">
        <ele>651.0</ele>
        <time>2018-06-09T07:59:41.158Z</time>
      </trkpt>
      <trkpt lat="37.482945" lon="-4.41557">
        <ele>651.0</ele>
        <time>2018-06-09T07:59:42.177Z</time>
      </trkpt>
      <trkpt lat="37.48294667" lon="-4.415555">
        <ele>652.0</ele>
        <time>2018-06-09T07:59:43.163Z</time>
      </trkpt>
      <trkpt lat="37.48295" lon="-4.41554">
        <ele>652.0</ele>
        <time>2018-06-09T07:59:44.165Z</time>
      </trkpt>
      <trkpt lat="37.48295" lon="-4.41554">
        <ele>652.0</ele>
        <time>2018-06-09T07:59:45.163Z</time>
      </trkpt>
      <trkpt lat="37.48295667" lon="-4.41551333">
        <ele>652.0</ele>
        <time>2018-06-09T07:59:46.161Z</time>
      </trkpt>
      <trkpt lat="37.482965" lon="-4.41550333">
        <ele>653.0</ele>
        <time>2018-06-09T07:59:47.163Z</time>
      </trkpt>
      <trkpt lat="37.48297333" lon="-4.41549333">
        <ele>653.0</ele>
        <time>2018-06-09T07:59:48.173Z</time>
      </trkpt>
      <trkpt lat="37.48297333" lon="-4.41549333">
        <ele>653.0</ele>
        <time>2018-06-09T07:59:49.158Z</time>
      </trkpt>
      <trkpt lat="37.482985" lon="-4.41546833">
        <ele>653.0</ele>
        <time>2018-06-09T07:59:50.178Z</time>
      </trkpt>
      <trkpt lat="37.482985" lon="-4.41546833">
        <ele>653.0</ele>
        <time>2018-06-09T07:59:51.158Z</time>
      </trkpt>
      <trkpt lat="37.48298333" lon="-4.41544">
        <ele>654.0</ele>
        <time>2018-06-09T07:59:52.178Z</time>
      </trkpt>
      <trkpt lat="37.48298333" lon="-4.41544">
        <ele>654.0</ele>
        <time>2018-06-09T07:59:53.158Z</time>
      </trkpt>
      <trkpt lat="37.48298833" lon="-4.41541333">
        <ele>655.0</ele>
        <time>2018-06-09T07:59:54.177Z</time>
      </trkpt>
      <trkpt lat="37.48298833" lon="-4.41541333">
        <ele>655.0</ele>
        <time>2018-06-09T07:59:55.158Z</time>
      </trkpt>
      <trkpt lat="37.48300167" lon="-4.41539333">
        <ele>655.0</ele>
        <time>2018-06-09T07:59:56.162Z</time>
      </trkpt>
      <trkpt lat="37.48300167" lon="-4.41539333">
        <ele>655.0</ele>
        <time>2018-06-09T07:59:57.157Z</time>
      </trkpt>
      <trkpt lat="37.48301" lon="-4.415365">
        <ele>655.0</ele>
        <time>2018-06-09T07:59:58.177Z</time>
      </trkpt>
      <trkpt lat="37.48301" lon="-4.415365">
        <ele>655.0</ele>
        <time>2018-06-09T07:59:59.158Z</time>
      </trkpt>
      <trkpt lat="37.483015" lon="-4.41533833">
        <ele>656.0</ele>
        <time>2018-06-09T08:00:00.178Z</time>
      </trkpt>
      <trkpt lat="37.483015" lon="-4.41533833">
        <ele>656.0</ele>
        <time>2018-06-09T08:00:01.160Z</time>
      </trkpt>
      <trkpt lat="37.48302" lon="-4.41530833">
        <ele>657.0</ele>
        <time>2018-06-09T08:00:02.185Z</time>
      </trkpt>
      <trkpt lat="37.48302" lon="-4.41530833">
        <ele>657.0</ele>
        <time>2018-06-09T08:00:03.167Z</time>
      </trkpt>
      <trkpt lat="37.48302667" lon="-4.41527833">
        <ele>657.0</ele>
        <time>2018-06-09T08:00:04.163Z</time>
      </trkpt>
      <trkpt lat="37.48302667" lon="-4.41527833">
        <ele>657.0</ele>
        <time>2018-06-09T08:00:05.158Z</time>
      </trkpt>
      <trkpt lat="37.48303167" lon="-4.41524667">
        <ele>658.0</ele>
        <time>2018-06-09T08:00:06.182Z</time>
      </trkpt>
      <trkpt lat="37.48303167" lon="-4.41523167">
        <ele>658.0</ele>
        <time>2018-06-09T08:00:07.164Z</time>
      </trkpt>
      <trkpt lat="37.48303167" lon="-4.41523167">
        <ele>658.0</ele>
        <time>2018-06-09T08:00:08.185Z</time>
      </trkpt>
      <trkpt lat="37.48303167" lon="-4.41520167">
        <ele>658.0</ele>
        <time>2018-06-09T08:00:09.164Z</time>
      </trkpt>
      <trkpt lat="37.48303333" lon="-4.41518667">
        <ele>658.0</ele>
        <time>2018-06-09T08:00:10.163Z</time>
      </trkpt>
      <trkpt lat="37.48303667" lon="-4.41517333">
        <ele>659.0</ele>
        <time>2018-06-09T08:00:11.161Z</time>
      </trkpt>
      <trkpt lat="37.48303667" lon="-4.41517333">
        <ele>659.0</ele>
        <time>2018-06-09T08:00:12.161Z</time>
      </trkpt>
      <trkpt lat="37.48304333" lon="-4.415145">
        <ele>659.0</ele>
        <time>2018-06-09T08:00:13.179Z</time>
      </trkpt>
      <trkpt lat="37.48304833" lon="-4.41513">
        <ele>659.0</ele>
        <time>2018-06-09T08:00:14.185Z</time>
      </trkpt>
      <trkpt lat="37.48304833" lon="-4.41513">
        <ele>659.0</ele>
        <time>2018-06-09T08:00:15.161Z</time>
      </trkpt>
      <trkpt lat="37.483055" lon="-4.41510167">
        <ele>659.0</ele>
        <time>2018-06-09T08:00:16.163Z</time>
      </trkpt>
      <trkpt lat="37.483055" lon="-4.41510167">
        <ele>659.0</ele>
        <time>2018-06-09T08:00:17.161Z</time>
      </trkpt>
      <trkpt lat="37.48306" lon="-4.41507333">
        <ele>660.0</ele>
        <time>2018-06-09T08:00:18.162Z</time>
      </trkpt>
      <trkpt lat="37.48306" lon="-4.41507333">
        <ele>660.0</ele>
        <time>2018-06-09T08:00:19.164Z</time>
      </trkpt>
      <trkpt lat="37.48306667" lon="-4.41504667">
        <ele>660.0</ele>
        <time>2018-06-09T08:00:20.165Z</time>
      </trkpt>
      <trkpt lat="37.48306667" lon="-4.41504667">
        <ele>660.0</ele>
        <time>2018-06-09T08:00:21.161Z</time>
      </trkpt>
      <trkpt lat="37.483075" lon="-4.41502">
        <ele>661.0</ele>
        <time>2018-06-09T08:00:22.161Z</time>
      </trkpt>
      <trkpt lat="37.483075" lon="-4.41502">
        <ele>661.0</ele>
        <time>2018-06-09T08:00:23.159Z</time>
      </trkpt>
      <trkpt lat="37.48308333" lon="-4.41499167">
        <ele>661.0</ele>
        <time>2018-06-09T08:00:24.163Z</time>
      </trkpt>
      <trkpt lat="37.48308333" lon="-4.41499167">
        <ele>661.0</ele>
        <time>2018-06-09T08:00:25.161Z</time>
      </trkpt>
      <trkpt lat="37.48309167" lon="-4.41496333">
        <ele>662.0</ele>
        <time>2018-06-09T08:00:26.184Z</time>
      </trkpt>
      <trkpt lat="37.48309167" lon="-4.41496333">
        <ele>662.0</ele>
        <time>2018-06-09T08:00:27.166Z</time>
      </trkpt>
      <trkpt lat="37.48309167" lon="-4.414935">
        <ele>662.0</ele>
        <time>2018-06-09T08:00:28.173Z</time>
      </trkpt>
      <trkpt lat="37.48309167" lon="-4.414935">
        <ele>662.0</ele>
        <time>2018-06-09T08:00:29.161Z</time>
      </trkpt>
      <trkpt lat="37.48309667" lon="-4.41490333">
        <ele>662.0</ele>
        <time>2018-06-09T08:00:30.163Z</time>
      </trkpt>
      <trkpt lat="37.48309667" lon="-4.41490333">
        <ele>662.0</ele>
        <time>2018-06-09T08:00:31.161Z</time>
      </trkpt>
      <trkpt lat="37.48310333" lon="-4.41487333">
        <ele>663.0</ele>
        <time>2018-06-09T08:00:32.184Z</time>
      </trkpt>
      <trkpt lat="37.48310333" lon="-4.41487333">
        <ele>663.0</ele>
        <time>2018-06-09T08:00:33.167Z</time>
      </trkpt>
      <trkpt lat="37.48311" lon="-4.41484167">
        <ele>663.0</ele>
        <time>2018-06-09T08:00:34.164Z</time>
      </trkpt>
      <trkpt lat="37.48311" lon="-4.41484167">
        <ele>663.0</ele>
        <time>2018-06-09T08:00:35.161Z</time>
      </trkpt>
      <trkpt lat="37.48311833" lon="-4.41481167">
        <ele>664.0</ele>
        <time>2018-06-09T08:00:36.162Z</time>
      </trkpt>
      <trkpt lat="37.48312333" lon="-4.41479833">
        <ele>664.0</ele>
        <time>2018-06-09T08:00:37.163Z</time>
      </trkpt>
      <trkpt lat="37.48312333" lon="-4.41479833">
        <ele>664.0</ele>
        <time>2018-06-09T08:00:38.186Z</time>
      </trkpt>
      <trkpt lat="37.48313167" lon="-4.41476667">
        <ele>664.0</ele>
        <time>2018-06-09T08:00:39.167Z</time>
      </trkpt>
      <trkpt lat="37.48313667" lon="-4.41475167">
        <ele>664.0</ele>
        <time>2018-06-09T08:00:40.164Z</time>
      </trkpt>
      <trkpt lat="37.48313667" lon="-4.41475167">
        <ele>664.0</ele>
        <time>2018-06-09T08:00:41.158Z</time>
      </trkpt>
      <trkpt lat="37.483145" lon="-4.41472">
        <ele>664.0</ele>
        <time>2018-06-09T08:00:42.177Z</time>
      </trkpt>
      <trkpt lat="37.48315" lon="-4.41470333">
        <ele>664.0</ele>
        <time>2018-06-09T08:00:43.164Z</time>
      </trkpt>
      <trkpt lat="37.48315667" lon="-4.41468667">
        <ele>664.0</ele>
        <time>2018-06-09T08:00:44.166Z</time>
      </trkpt>
      <trkpt lat="37.48315667" lon="-4.41468667">
        <ele>664.0</ele>
        <time>2018-06-09T08:00:45.159Z</time>
      </trkpt>
      <trkpt lat="37.48317" lon="-4.41465333">
        <ele>665.0</ele>
        <time>2018-06-09T08:00:46.160Z</time>
      </trkpt>
      <trkpt lat="37.483175" lon="-4.41463667">
        <ele>665.0</ele>
        <time>2018-06-09T08:00:47.180Z</time>
      </trkpt>
      <trkpt lat="37.483175" lon="-4.41463667">
        <ele>665.0</ele>
        <time>2018-06-09T08:00:48.159Z</time>
      </trkpt>
      <trkpt lat="37.48318833" lon="-4.414605">
        <ele>665.0</ele>
        <time>2018-06-09T08:00:49.178Z</time>
      </trkpt>
      <trkpt lat="37.483195" lon="-4.41459">
        <ele>665.0</ele>
        <time>2018-06-09T08:00:50.164Z</time>
      </trkpt>
      <trkpt lat="37.483195" lon="-4.41459">
        <ele>665.0</ele>
        <time>2018-06-09T08:00:51.161Z</time>
      </trkpt>
      <trkpt lat="37.48321" lon="-4.41455667">
        <ele>665.0</ele>
        <time>2018-06-09T08:00:52.162Z</time>
      </trkpt>
      <trkpt lat="37.48321" lon="-4.41455667">
        <ele>665.0</ele>
        <time>2018-06-09T08:00:53.161Z</time>
      </trkpt>
      <trkpt lat="37.48322" lon="-4.41452">
        <ele>665.0</ele>
        <time>2018-06-09T08:00:54.163Z</time>
      </trkpt>
      <trkpt lat="37.48322" lon="-4.41452">
        <ele>665.0</ele>
        <time>2018-06-09T08:00:55.161Z</time>
      </trkpt>
      <trkpt lat="37.48323167" lon="-4.414485">
        <ele>666.0</ele>
        <time>2018-06-09T08:00:56.157Z</time>
      </trkpt>
      <trkpt lat="37.48323667" lon="-4.41446833">
        <ele>666.0</ele>
        <time>2018-06-09T08:00:57.178Z</time>
      </trkpt>
      <trkpt lat="37.48324167" lon="-4.41445333">
        <ele>666.0</ele>
        <time>2018-06-09T08:00:58.161Z</time>
      </trkpt>
      <trkpt lat="37.48324167" lon="-4.41445333">
        <ele>666.0</ele>
        <time>2018-06-09T08:00:59.160Z</time>
      </trkpt>
      <trkpt lat="37.483255" lon="-4.41442333">
        <ele>666.0</ele>
        <time>2018-06-09T08:01:00.163Z</time>
      </trkpt>
      <trkpt lat="37.483255" lon="-4.41442333">
        <ele>666.0</ele>
        <time>2018-06-09T08:01:01.158Z</time>
      </trkpt>
      <trkpt lat="37.48326167" lon="-4.41439167">
        <ele>666.0</ele>
        <time>2018-06-09T08:01:02.166Z</time>
      </trkpt>
      <trkpt lat="37.48326167" lon="-4.41439167">
        <ele>666.0</ele>
        <time>2018-06-09T08:01:03.158Z</time>
      </trkpt>
      <trkpt lat="37.48327" lon="-4.41436">
        <ele>667.0</ele>
        <time>2018-06-09T08:01:04.177Z</time>
      </trkpt>
      <trkpt lat="37.48327" lon="-4.41436">
        <ele>667.0</ele>
        <time>2018-06-09T08:01:05.160Z</time>
      </trkpt>
      <trkpt lat="37.48328167" lon="-4.41432833">
        <ele>667.0</ele>
        <time>2018-06-09T08:01:06.160Z</time>
      </trkpt>
      <trkpt lat="37.48329" lon="-4.414315">
        <ele>667.0</ele>
        <time>2018-06-09T08:01:07.164Z</time>
      </trkpt>
      <trkpt lat="37.48329667" lon="-4.4143">
        <ele>667.0</ele>
        <time>2018-06-09T08:01:08.166Z</time>
      </trkpt>
      <trkpt lat="37.48329667" lon="-4.4143">
        <ele>667.0</ele>
        <time>2018-06-09T08:01:09.160Z</time>
      </trkpt>
      <trkpt lat="37.48331333" lon="-4.41426667">
        <ele>668.0</ele>
        <time>2018-06-09T08:01:10.178Z</time>
      </trkpt>
      <trkpt lat="37.48331333" lon="-4.41426667">
        <ele>668.0</ele>
        <time>2018-06-09T08:01:11.157Z</time>
      </trkpt>
      <trkpt lat="37.48332667" lon="-4.414235">
        <ele>668.0</ele>
        <time>2018-06-09T08:01:12.176Z</time>
      </trkpt>
      <trkpt lat="37.48332667" lon="-4.414235">
        <ele>668.0</ele>
        <time>2018-06-09T08:01:13.160Z</time>
      </trkpt>
      <trkpt lat="37.48333667" lon="-4.41420667">
        <ele>668.0</ele>
        <time>2018-06-09T08:01:14.159Z</time>
      </trkpt>
      <trkpt lat="37.48333667" lon="-4.41420667">
        <ele>668.0</ele>
        <time>2018-06-09T08:01:15.176Z</time>
      </trkpt>
      <trkpt lat="37.48335" lon="-4.41417667">
        <ele>668.0</ele>
        <time>2018-06-09T08:01:16.169Z</time>
      </trkpt>
      <trkpt lat="37.48335333" lon="-4.41416167">
        <ele>668.0</ele>
        <time>2018-06-09T08:01:17.163Z</time>
      </trkpt>
      <trkpt lat="37.48335333" lon="-4.41416167">
        <ele>668.0</ele>
        <time>2018-06-09T08:01:18.160Z</time>
      </trkpt>
      <trkpt lat="37.48336333" lon="-4.41413">
        <ele>669.0</ele>
        <time>2018-06-09T08:01:19.190Z</time>
      </trkpt>
      <trkpt lat="37.48337" lon="-4.41411667">
        <ele>669.0</ele>
        <time>2018-06-09T08:01:20.173Z</time>
      </trkpt>
      <trkpt lat="37.48337" lon="-4.41411667">
        <ele>669.0</ele>
        <time>2018-06-09T08:01:21.161Z</time>
      </trkpt>
      <trkpt lat="37.48339" lon="-4.41409">
        <ele>670.0</ele>
        <time>2018-06-09T08:01:22.161Z</time>
      </trkpt>
      <trkpt lat="37.48339" lon="-4.41409">
        <ele>670.0</ele>
        <time>2018-06-09T08:01:23.161Z</time>
      </trkpt>
      <trkpt lat="37.483405" lon="-4.41406333">
        <ele>670.0</ele>
        <time>2018-06-09T08:01:24.162Z</time>
      </trkpt>
      <trkpt lat="37.48341" lon="-4.41405">
        <ele>670.0</ele>
        <time>2018-06-09T08:01:25.164Z</time>
      </trkpt>
      <trkpt lat="37.48341" lon="-4.41405">
        <ele>670.0</ele>
        <time>2018-06-09T08:01:26.179Z</time>
      </trkpt>
      <trkpt lat="37.483425" lon="-4.41402167">
        <ele>671.0</ele>
        <time>2018-06-09T08:01:27.176Z</time>
      </trkpt>
      <trkpt lat="37.483425" lon="-4.41402167">
        <ele>671.0</ele>
        <time>2018-06-09T08:01:28.159Z</time>
      </trkpt>
      <trkpt lat="37.48343833" lon="-4.413995">
        <ele>671.0</ele>
        <time>2018-06-09T08:01:29.164Z</time>
      </trkpt>
      <trkpt lat="37.48344167" lon="-4.41398">
        <ele>671.0</ele>
        <time>2018-06-09T08:01:30.163Z</time>
      </trkpt>
      <trkpt lat="37.48344167" lon="-4.41398">
        <ele>671.0</ele>
        <time>2018-06-09T08:01:31.162Z</time>
      </trkpt>
      <trkpt lat="37.48345833" lon="-4.413955">
        <ele>671.0</ele>
        <time>2018-06-09T08:01:32.167Z</time>
      </trkpt>
      <trkpt lat="37.48345833" lon="-4.413955">
        <ele>671.0</ele>
        <time>2018-06-09T08:01:33.161Z</time>
      </trkpt>
      <trkpt lat="37.48346833" lon="-4.41392667">
        <ele>671.0</ele>
        <time>2018-06-09T08:01:34.161Z</time>
      </trkpt>
      <trkpt lat="37.48346833" lon="-4.41392667">
        <ele>671.0</ele>
        <time>2018-06-09T08:01:35.159Z</time>
      </trkpt>
      <trkpt lat="37.483485" lon="-4.41389833">
        <ele>672.0</ele>
        <time>2018-06-09T08:01:36.184Z</time>
      </trkpt>
      <trkpt lat="37.483485" lon="-4.41389833">
        <ele>672.0</ele>
        <time>2018-06-09T08:01:37.161Z</time>
      </trkpt>
      <trkpt lat="37.4835" lon="-4.41387167">
        <ele>672.0</ele>
        <time>2018-06-09T08:01:38.185Z</time>
      </trkpt>
      <trkpt lat="37.4835" lon="-4.41387167">
        <ele>672.0</ele>
        <time>2018-06-09T08:01:39.167Z</time>
      </trkpt>
      <trkpt lat="37.48351333" lon="-4.41384333">
        <ele>673.0</ele>
        <time>2018-06-09T08:01:40.161Z</time>
      </trkpt>
      <trkpt lat="37.48351333" lon="-4.41384333">
        <ele>673.0</ele>
        <time>2018-06-09T08:01:41.161Z</time>
      </trkpt>
      <trkpt lat="37.48353333" lon="-4.41381667">
        <ele>673.0</ele>
        <time>2018-06-09T08:01:42.160Z</time>
      </trkpt>
      <trkpt lat="37.48354167" lon="-4.41380333">
        <ele>674.0</ele>
        <time>2018-06-09T08:01:43.163Z</time>
      </trkpt>
      <trkpt lat="37.48355" lon="-4.41379">
        <ele>674.0</ele>
        <time>2018-06-09T08:01:44.163Z</time>
      </trkpt>
      <trkpt lat="37.48355" lon="-4.41379">
        <ele>674.0</ele>
        <time>2018-06-09T08:01:45.161Z</time>
      </trkpt>
      <trkpt lat="37.48356333" lon="-4.41376833">
        <ele>675.0</ele>
        <time>2018-06-09T08:01:46.184Z</time>
      </trkpt>
      <trkpt lat="37.48356333" lon="-4.41376833">
        <ele>675.0</ele>
        <time>2018-06-09T08:01:47.176Z</time>
      </trkpt>
      <trkpt lat="37.48357667" lon="-4.41373667">
        <ele>676.0</ele>
        <time>2018-06-09T08:01:48.163Z</time>
      </trkpt>
      <trkpt lat="37.48358167" lon="-4.41372167">
        <ele>676.0</ele>
        <time>2018-06-09T08:01:49.164Z</time>
      </trkpt>
      <trkpt lat="37.483585" lon="-4.41370833">
        <ele>677.0</ele>
        <time>2018-06-09T08:01:50.163Z</time>
      </trkpt>
      <trkpt lat="37.483585" lon="-4.41370833">
        <ele>677.0</ele>
        <time>2018-06-09T08:01:51.159Z</time>
      </trkpt>
      <trkpt lat="37.48359667" lon="-4.41368">
        <ele>677.0</ele>
        <time>2018-06-09T08:01:52.164Z</time>
      </trkpt>
      <trkpt lat="37.48359667" lon="-4.41368">
        <ele>677.0</ele>
        <time>2018-06-09T08:01:53.185Z</time>
      </trkpt>
      <trkpt lat="37.48361" lon="-4.41365167">
        <ele>677.0</ele>
        <time>2018-06-09T08:01:54.167Z</time>
      </trkpt>
      <trkpt lat="37.48361833" lon="-4.41363833">
        <ele>678.0</ele>
        <time>2018-06-09T08:01:55.164Z</time>
      </trkpt>
      <trkpt lat="37.48361833" lon="-4.41363833">
        <ele>678.0</ele>
        <time>2018-06-09T08:01:56.195Z</time>
      </trkpt>
      <trkpt lat="37.483635" lon="-4.41361667">
        <ele>678.0</ele>
        <time>2018-06-09T08:01:57.163Z</time>
      </trkpt>
      <trkpt lat="37.483635" lon="-4.41361667">
        <ele>678.0</ele>
        <time>2018-06-09T08:01:58.161Z</time>
      </trkpt>
      <trkpt lat="37.48365" lon="-4.41359">
        <ele>679.0</ele>
        <time>2018-06-09T08:01:59.164Z</time>
      </trkpt>
      <trkpt lat="37.48365" lon="-4.41359">
        <ele>679.0</ele>
        <time>2018-06-09T08:02:00.160Z</time>
      </trkpt>
      <trkpt lat="37.483665" lon="-4.41356667">
        <ele>679.0</ele>
        <time>2018-06-09T08:02:01.163Z</time>
      </trkpt>
      <trkpt lat="37.48367333" lon="-4.41355333">
        <ele>680.0</ele>
        <time>2018-06-09T08:02:02.166Z</time>
      </trkpt>
      <trkpt lat="37.48367333" lon="-4.41355333">
        <ele>680.0</ele>
        <time>2018-06-09T08:02:03.161Z</time>
      </trkpt>
      <trkpt lat="37.483685" lon="-4.41353167">
        <ele>680.0</ele>
        <time>2018-06-09T08:02:04.164Z</time>
      </trkpt>
      <trkpt lat="37.483685" lon="-4.41353167">
        <ele>680.0</ele>
        <time>2018-06-09T08:02:05.157Z</time>
      </trkpt>
      <trkpt lat="37.4837" lon="-4.41351">
        <ele>680.0</ele>
        <time>2018-06-09T08:02:06.177Z</time>
      </trkpt>
      <trkpt lat="37.4837" lon="-4.41351">
        <ele>680.0</ele>
        <time>2018-06-09T08:02:07.165Z</time>
      </trkpt>
      <trkpt lat="37.48371667" lon="-4.413485">
        <ele>681.0</ele>
        <time>2018-06-09T08:02:08.166Z</time>
      </trkpt>
      <trkpt lat="37.48371667" lon="-4.413485">
        <ele>681.0</ele>
        <time>2018-06-09T08:02:09.159Z</time>
      </trkpt>
      <trkpt lat="37.48373167" lon="-4.413465">
        <ele>681.0</ele>
        <time>2018-06-09T08:02:10.165Z</time>
      </trkpt>
      <trkpt lat="37.48373167" lon="-4.413465">
        <ele>681.0</ele>
        <time>2018-06-09T08:02:11.162Z</time>
      </trkpt>
      <trkpt lat="37.48375" lon="-4.41344333">
        <ele>681.0</ele>
        <time>2018-06-09T08:02:12.164Z</time>
      </trkpt>
      <trkpt lat="37.48376" lon="-4.41343167">
        <ele>681.0</ele>
        <time>2018-06-09T08:02:13.165Z</time>
      </trkpt>
      <trkpt lat="37.48376833" lon="-4.41342">
        <ele>682.0</ele>
        <time>2018-06-09T08:02:14.191Z</time>
      </trkpt>
      <trkpt lat="37.48376833" lon="-4.41342">
        <ele>682.0</ele>
        <time>2018-06-09T08:02:15.171Z</time>
      </trkpt>
      <trkpt lat="37.48378333" lon="-4.41339167">
        <ele>682.0</ele>
        <time>2018-06-09T08:02:16.162Z</time>
      </trkpt>
      <trkpt lat="37.48378333" lon="-4.41339167">
        <ele>682.0</ele>
        <time>2018-06-09T08:02:17.163Z</time>
      </trkpt>
      <trkpt lat="37.48379833" lon="-4.413365">
        <ele>682.0</ele>
        <time>2018-06-09T08:02:18.184Z</time>
      </trkpt>
      <trkpt lat="37.48380667" lon="-4.41335333">
        <ele>682.0</ele>
        <time>2018-06-09T08:02:19.166Z</time>
      </trkpt>
      <trkpt lat="37.48381333" lon="-4.41334">
        <ele>682.0</ele>
        <time>2018-06-09T08:02:20.164Z</time>
      </trkpt>
      <trkpt lat="37.48381333" lon="-4.41334">
        <ele>682.0</ele>
        <time>2018-06-09T08:02:21.163Z</time>
      </trkpt>
      <trkpt lat="37.48382667" lon="-4.41331333">
        <ele>683.0</ele>
        <time>2018-06-09T08:02:22.164Z</time>
      </trkpt>
      <trkpt lat="37.48382667" lon="-4.41331333">
        <ele>683.0</ele>
        <time>2018-06-09T08:02:23.162Z</time>
      </trkpt>
      <trkpt lat="37.48384167" lon="-4.41328333">
        <ele>683.0</ele>
        <time>2018-06-09T08:02:24.165Z</time>
      </trkpt>
      <trkpt lat="37.48384667" lon="-4.41326833">
        <ele>683.0</ele>
        <time>2018-06-09T08:02:25.165Z</time>
      </trkpt>
      <trkpt lat="37.48385333" lon="-4.41325333">
        <ele>683.0</ele>
        <time>2018-06-09T08:02:26.185Z</time>
      </trkpt>
      <trkpt lat="37.48385333" lon="-4.41325333">
        <ele>683.0</ele>
        <time>2018-06-09T08:02:27.176Z</time>
      </trkpt>
      <trkpt lat="37.48386833" lon="-4.41322667">
        <ele>684.0</ele>
        <time>2018-06-09T08:02:28.172Z</time>
      </trkpt>
      <trkpt lat="37.48386833" lon="-4.41322667">
        <ele>684.0</ele>
        <time>2018-06-09T08:02:29.185Z</time>
      </trkpt>
      <trkpt lat="37.48388167" lon="-4.41319833">
        <ele>684.0</ele>
        <time>2018-06-09T08:02:30.175Z</time>
      </trkpt>
      <trkpt lat="37.48388833" lon="-4.413185">
        <ele>684.0</ele>
        <time>2018-06-09T08:02:31.170Z</time>
      </trkpt>
      <trkpt lat="37.48389667" lon="-4.41317333">
        <ele>684.0</ele>
        <time>2018-06-09T08:02:32.167Z</time>
      </trkpt>
      <trkpt lat="37.48389667" lon="-4.41317333">
        <ele>684.0</ele>
        <time>2018-06-09T08:02:33.164Z</time>
      </trkpt>
      <trkpt lat="37.48391167" lon="-4.41314667">
        <ele>685.0</ele>
        <time>2018-06-09T08:02:34.171Z</time>
      </trkpt>
      <trkpt lat="37.48391167" lon="-4.41314667">
        <ele>685.0</ele>
        <time>2018-06-09T08:02:35.162Z</time>
      </trkpt>
      <trkpt lat="37.48392667" lon="-4.41312">
        <ele>685.0</ele>
        <time>2018-06-09T08:02:36.167Z</time>
      </trkpt>
      <trkpt lat="37.48392667" lon="-4.41312">
        <ele>685.0</ele>
        <time>2018-06-09T08:02:37.162Z</time>
      </trkpt>
      <trkpt lat="37.48394167" lon="-4.41309333">
        <ele>685.0</ele>
        <time>2018-06-09T08:02:38.167Z</time>
      </trkpt>
      <trkpt lat="37.48394167" lon="-4.41309333">
        <ele>685.0</ele>
        <time>2018-06-09T08:02:39.163Z</time>
      </trkpt>
      <trkpt lat="37.48395833" lon="-4.41306667">
        <ele>686.0</ele>
        <time>2018-06-09T08:02:40.162Z</time>
      </trkpt>
      <trkpt lat="37.48395833" lon="-4.41306667">
        <ele>686.0</ele>
        <time>2018-06-09T08:02:41.162Z</time>
      </trkpt>
      <trkpt lat="37.48397333" lon="-4.41304">
        <ele>686.0</ele>
        <time>2018-06-09T08:02:42.164Z</time>
      </trkpt>
      <trkpt lat="37.48397333" lon="-4.41304">
        <ele>686.0</ele>
        <time>2018-06-09T08:02:43.163Z</time>
      </trkpt>
      <trkpt lat="37.483985" lon="-4.41301167">
        <ele>686.0</ele>
        <time>2018-06-09T08:02:44.166Z</time>
      </trkpt>
      <trkpt lat="37.483985" lon="-4.41301167">
        <ele>686.0</ele>
        <time>2018-06-09T08:02:45.165Z</time>
      </trkpt>
      <trkpt lat="37.48400167" lon="-4.412985">
        <ele>687.0</ele>
        <time>2018-06-09T08:02:46.161Z</time>
      </trkpt>
      <trkpt lat="37.48400167" lon="-4.412985">
        <ele>687.0</ele>
        <time>2018-06-09T08:02:47.188Z</time>
      </trkpt>
      <trkpt lat="37.48401833" lon="-4.41295667">
        <ele>687.0</ele>
        <time>2018-06-09T08:02:48.158Z</time>
      </trkpt>
      <trkpt lat="37.48402667" lon="-4.41294167">
        <ele>687.0</ele>
        <time>2018-06-09T08:02:49.165Z</time>
      </trkpt>
      <trkpt lat="37.48403333" lon="-4.41292667">
        <ele>687.0</ele>
        <time>2018-06-09T08:02:50.175Z</time>
      </trkpt>
      <trkpt lat="37.48403333" lon="-4.41292667">
        <ele>687.0</ele>
        <time>2018-06-09T08:02:51.163Z</time>
      </trkpt>
      <trkpt lat="37.48404833" lon="-4.41289667">
        <ele>687.0</ele>
        <time>2018-06-09T08:02:52.165Z</time>
      </trkpt>
      <trkpt lat="37.48404833" lon="-4.41289667">
        <ele>687.0</ele>
        <time>2018-06-09T08:02:53.174Z</time>
      </trkpt>
      <trkpt lat="37.48406333" lon="-4.41286833">
        <ele>687.0</ele>
        <time>2018-06-09T08:02:54.165Z</time>
      </trkpt>
      <trkpt lat="37.48406333" lon="-4.41286833">
        <ele>687.0</ele>
        <time>2018-06-09T08:02:55.162Z</time>
      </trkpt>
      <trkpt lat="37.48407667" lon="-4.41284167">
        <ele>688.0</ele>
        <time>2018-06-09T08:02:56.167Z</time>
      </trkpt>
      <trkpt lat="37.48407667" lon="-4.41284167">
        <ele>688.0</ele>
        <time>2018-06-09T08:02:57.160Z</time>
      </trkpt>
      <trkpt lat="37.48409" lon="-4.412815">
        <ele>688.0</ele>
        <time>2018-06-09T08:02:58.163Z</time>
      </trkpt>
      <trkpt lat="37.48409" lon="-4.412815">
        <ele>688.0</ele>
        <time>2018-06-09T08:02:59.161Z</time>
      </trkpt>
      <trkpt lat="37.48410333" lon="-4.41278833">
        <ele>688.0</ele>
        <time>2018-06-09T08:03:00.165Z</time>
      </trkpt>
      <trkpt lat="37.48411167" lon="-4.412775">
        <ele>688.0</ele>
        <time>2018-06-09T08:03:01.166Z</time>
      </trkpt>
      <trkpt lat="37.48412" lon="-4.41276167">
        <ele>688.0</ele>
        <time>2018-06-09T08:03:02.163Z</time>
      </trkpt>
      <trkpt lat="37.48412" lon="-4.41276167">
        <ele>688.0</ele>
        <time>2018-06-09T08:03:03.183Z</time>
      </trkpt>
      <trkpt lat="37.48413167" lon="-4.41273">
        <ele>689.0</ele>
        <time>2018-06-09T08:03:04.168Z</time>
      </trkpt>
      <trkpt lat="37.48413167" lon="-4.41273">
        <ele>689.0</ele>
        <time>2018-06-09T08:03:05.162Z</time>
      </trkpt>
      <trkpt lat="37.48414333" lon="-4.41270333">
        <ele>689.0</ele>
        <time>2018-06-09T08:03:06.162Z</time>
      </trkpt>
      <trkpt lat="37.48414333" lon="-4.41270333">
        <ele>689.0</ele>
        <time>2018-06-09T08:03:07.197Z</time>
      </trkpt>
      <trkpt lat="37.48415333" lon="-4.41267667">
        <ele>689.0</ele>
        <time>2018-06-09T08:03:08.181Z</time>
      </trkpt>
      <trkpt lat="37.48415333" lon="-4.41267667">
        <ele>689.0</ele>
        <time>2018-06-09T08:03:09.168Z</time>
      </trkpt>
      <trkpt lat="37.484165" lon="-4.41265">
        <ele>690.0</ele>
        <time>2018-06-09T08:03:10.165Z</time>
      </trkpt>
      <trkpt lat="37.484165" lon="-4.41265">
        <ele>690.0</ele>
        <time>2018-06-09T08:03:11.159Z</time>
      </trkpt>
      <trkpt lat="37.48417333" lon="-4.41262333">
        <ele>690.0</ele>
        <time>2018-06-09T08:03:12.164Z</time>
      </trkpt>
      <trkpt lat="37.48418" lon="-4.41261">
        <ele>690.0</ele>
        <time>2018-06-09T08:03:13.184Z</time>
      </trkpt>
      <trkpt lat="37.48418667" lon="-4.41259667">
        <ele>690.0</ele>
        <time>2018-06-09T08:03:14.167Z</time>
      </trkpt>
      <trkpt lat="37.48419167" lon="-4.412585">
        <ele>690.0</ele>
        <time>2018-06-09T08:03:15.166Z</time>
      </trkpt>
      <trkpt lat="37.48419167" lon="-4.412585">
        <ele>690.0</ele>
        <time>2018-06-09T08:03:16.159Z</time>
      </trkpt>
      <trkpt lat="37.48419833" lon="-4.41255833">
        <ele>690.0</ele>
        <time>2018-06-09T08:03:17.158Z</time>
      </trkpt>
      <trkpt lat="37.48420333" lon="-4.412545">
        <ele>690.0</ele>
        <time>2018-06-09T08:03:18.177Z</time>
      </trkpt>
      <trkpt lat="37.48420833" lon="-4.41253167">
        <ele>691.0</ele>
        <time>2018-06-09T08:03:19.164Z</time>
      </trkpt>
      <trkpt lat="37.48421167" lon="-4.41252">
        <ele>691.0</ele>
        <time>2018-06-09T08:03:20.168Z</time>
      </trkpt>
      <trkpt lat="37.48421167" lon="-4.41252">
        <ele>691.0</ele>
        <time>2018-06-09T08:03:21.162Z</time>
      </trkpt>
      <trkpt lat="37.48422" lon="-4.41249167">
        <ele>691.0</ele>
        <time>2018-06-09T08:03:22.173Z</time>
      </trkpt>
      <trkpt lat="37.48422" lon="-4.41249167">
        <ele>691.0</ele>
        <time>2018-06-09T08:03:23.159Z</time>
      </trkpt>
      <trkpt lat="37.48423167" lon="-4.41246333">
        <ele>692.0</ele>
        <time>2018-06-09T08:03:24.164Z</time>
      </trkpt>
      <trkpt lat="37.48423167" lon="-4.41246333">
        <ele>692.0</ele>
        <time>2018-06-09T08:03:25.163Z</time>
      </trkpt>
      <trkpt lat="37.48424667" lon="-4.41243667">
        <ele>692.0</ele>
        <time>2018-06-09T08:03:26.164Z</time>
      </trkpt>
      <trkpt lat="37.48424667" lon="-4.41243667">
        <ele>692.0</ele>
        <time>2018-06-09T08:03:27.166Z</time>
      </trkpt>
      <trkpt lat="37.48426167" lon="-4.41241167">
        <ele>693.0</ele>
        <time>2018-06-09T08:03:28.161Z</time>
      </trkpt>
      <trkpt lat="37.48426167" lon="-4.41241167">
        <ele>693.0</ele>
        <time>2018-06-09T08:03:29.161Z</time>
      </trkpt>
      <trkpt lat="37.48427333" lon="-4.41238333">
        <ele>693.0</ele>
        <time>2018-06-09T08:03:30.164Z</time>
      </trkpt>
      <trkpt lat="37.48428167" lon="-4.41237">
        <ele>693.0</ele>
        <time>2018-06-09T08:03:31.164Z</time>
      </trkpt>
      <trkpt lat="37.48429167" lon="-4.41235667">
        <ele>694.0</ele>
        <time>2018-06-09T08:03:32.163Z</time>
      </trkpt>
      <trkpt lat="37.4843" lon="-4.41234667">
        <ele>694.0</ele>
        <time>2018-06-09T08:03:33.165Z</time>
      </trkpt>
      <trkpt lat="37.4843" lon="-4.41234667">
        <ele>694.0</ele>
        <time>2018-06-09T08:03:34.159Z</time>
      </trkpt>
      <trkpt lat="37.48431833" lon="-4.412325">
        <ele>694.0</ele>
        <time>2018-06-09T08:03:35.163Z</time>
      </trkpt>
      <trkpt lat="37.48432667" lon="-4.41231">
        <ele>694.0</ele>
        <time>2018-06-09T08:03:36.165Z</time>
      </trkpt>
      <trkpt lat="37.48432667" lon="-4.41231">
        <ele>694.0</ele>
        <time>2018-06-09T08:03:37.159Z</time>
      </trkpt>
      <trkpt lat="37.48434667" lon="-4.412285">
        <ele>695.0</ele>
        <time>2018-06-09T08:03:38.167Z</time>
      </trkpt>
      <trkpt lat="37.48434667" lon="-4.412285">
        <ele>695.0</ele>
        <time>2018-06-09T08:03:39.161Z</time>
      </trkpt>
      <trkpt lat="37.484365" lon="-4.41225667">
        <ele>695.0</ele>
        <time>2018-06-09T08:03:40.164Z</time>
      </trkpt>
      <trkpt lat="37.484365" lon="-4.41225667">
        <ele>695.0</ele>
        <time>2018-06-09T08:03:41.159Z</time>
      </trkpt>
      <trkpt lat="37.48438167" lon="-4.41223333">
        <ele>696.0</ele>
        <time>2018-06-09T08:03:42.165Z</time>
      </trkpt>
      <trkpt lat="37.48438167" lon="-4.41223333">
        <ele>696.0</ele>
        <time>2018-06-09T08:03:43.162Z</time>
      </trkpt>
      <trkpt lat="37.48439833" lon="-4.41221333">
        <ele>696.0</ele>
        <time>2018-06-09T08:03:44.166Z</time>
      </trkpt>
      <trkpt lat="37.48439833" lon="-4.41221333">
        <ele>696.0</ele>
        <time>2018-06-09T08:03:45.158Z</time>
      </trkpt>
      <trkpt lat="37.48441667" lon="-4.41219">
        <ele>696.0</ele>
        <time>2018-06-09T08:03:46.178Z</time>
      </trkpt>
      <trkpt lat="37.48441667" lon="-4.41219">
        <ele>696.0</ele>
        <time>2018-06-09T08:03:47.172Z</time>
      </trkpt>
      <trkpt lat="37.484435" lon="-4.412165">
        <ele>696.0</ele>
        <time>2018-06-09T08:03:48.161Z</time>
      </trkpt>
      <trkpt lat="37.48444333" lon="-4.41215333">
        <ele>697.0</ele>
        <time>2018-06-09T08:03:49.167Z</time>
      </trkpt>
      <trkpt lat="37.48445" lon="-4.41214">
        <ele>697.0</ele>
        <time>2018-06-09T08:03:50.166Z</time>
      </trkpt>
      <trkpt lat="37.48445" lon="-4.41214">
        <ele>697.0</ele>
        <time>2018-06-09T08:03:51.161Z</time>
      </trkpt>
      <trkpt lat="37.48446833" lon="-4.412115">
        <ele>697.0</ele>
        <time>2018-06-09T08:03:52.162Z</time>
      </trkpt>
      <trkpt lat="37.48446833" lon="-4.412115">
        <ele>697.0</ele>
        <time>2018-06-09T08:03:53.184Z</time>
      </trkpt>
      <trkpt lat="37.48448333" lon="-4.41208667">
        <ele>697.0</ele>
        <time>2018-06-09T08:03:54.162Z</time>
      </trkpt>
      <trkpt lat="37.48448333" lon="-4.41208667">
        <ele>697.0</ele>
        <time>2018-06-09T08:03:55.162Z</time>
      </trkpt>
      <trkpt lat="37.48449833" lon="-4.41206167">
        <ele>698.0</ele>
        <time>2018-06-09T08:03:56.181Z</time>
      </trkpt>
      <trkpt lat="37.48449833" lon="-4.41206167">
        <ele>698.0</ele>
        <time>2018-06-09T08:03:57.162Z</time>
      </trkpt>
      <trkpt lat="37.48451167" lon="-4.41203333">
        <ele>698.0</ele>
        <time>2018-06-09T08:03:58.185Z</time>
      </trkpt>
      <trkpt lat="37.48451833" lon="-4.41202">
        <ele>698.0</ele>
        <time>2018-06-09T08:03:59.166Z</time>
      </trkpt>
      <trkpt lat="37.48451833" lon="-4.41202">
        <ele>698.0</ele>
        <time>2018-06-09T08:04:00.161Z</time>
      </trkpt>
      <trkpt lat="37.48452833" lon="-4.41199167">
        <ele>699.0</ele>
        <time>2018-06-09T08:04:01.164Z</time>
      </trkpt>
      <trkpt lat="37.48453167" lon="-4.41197833">
        <ele>699.0</ele>
        <time>2018-06-09T08:04:02.185Z</time>
      </trkpt>
      <trkpt lat="37.48453167" lon="-4.41197833">
        <ele>699.0</ele>
        <time>2018-06-09T08:04:03.163Z</time>
      </trkpt>
      <trkpt lat="37.48453833" lon="-4.41195">
        <ele>699.0</ele>
        <time>2018-06-09T08:04:04.165Z</time>
      </trkpt>
      <trkpt lat="37.48453833" lon="-4.41195">
        <ele>699.0</ele>
        <time>2018-06-09T08:04:05.162Z</time>
      </trkpt>
      <trkpt lat="37.48454667" lon="-4.41191833">
        <ele>699.0</ele>
        <time>2018-06-09T08:04:06.183Z</time>
      </trkpt>
      <trkpt lat="37.48455" lon="-4.41190333">
        <ele>699.0</ele>
        <time>2018-06-09T08:04:07.167Z</time>
      </trkpt>
      <trkpt lat="37.48455" lon="-4.41190333">
        <ele>699.0</ele>
        <time>2018-06-09T08:04:08.187Z</time>
      </trkpt>
      <trkpt lat="37.48456" lon="-4.41187333">
        <ele>700.0</ele>
        <time>2018-06-09T08:04:09.168Z</time>
      </trkpt>
      <trkpt lat="37.48456667" lon="-4.41185833">
        <ele>700.0</ele>
        <time>2018-06-09T08:04:10.162Z</time>
      </trkpt>
      <trkpt lat="37.48456667" lon="-4.41185833">
        <ele>700.0</ele>
        <time>2018-06-09T08:04:11.161Z</time>
      </trkpt>
      <trkpt lat="37.48457667" lon="-4.41182833">
        <ele>700.0</ele>
        <time>2018-06-09T08:04:12.164Z</time>
      </trkpt>
      <trkpt lat="37.48457667" lon="-4.41182833">
        <ele>700.0</ele>
        <time>2018-06-09T08:04:13.183Z</time>
      </trkpt>
      <trkpt lat="37.484585" lon="-4.41179833">
        <ele>700.0</ele>
        <time>2018-06-09T08:04:14.167Z</time>
      </trkpt>
      <trkpt lat="37.484585" lon="-4.41179833">
        <ele>700.0</ele>
        <time>2018-06-09T08:04:15.162Z</time>
      </trkpt>
      <trkpt lat="37.484595" lon="-4.41176833">
        <ele>701.0</ele>
        <time>2018-06-09T08:04:16.157Z</time>
      </trkpt>
      <trkpt lat="37.48459833" lon="-4.41175333">
        <ele>701.0</ele>
        <time>2018-06-09T08:04:17.177Z</time>
      </trkpt>
      <trkpt lat="37.48459833" lon="-4.41175333">
        <ele>701.0</ele>
        <time>2018-06-09T08:04:18.161Z</time>
      </trkpt>
      <trkpt lat="37.48460833" lon="-4.411725">
        <ele>701.0</ele>
        <time>2018-06-09T08:04:19.162Z</time>
      </trkpt>
      <trkpt lat="37.48461167" lon="-4.41171">
        <ele>701.0</ele>
        <time>2018-06-09T08:04:20.180Z</time>
      </trkpt>
      <trkpt lat="37.48461167" lon="-4.41171">
        <ele>701.0</ele>
        <time>2018-06-09T08:04:21.161Z</time>
      </trkpt>
      <trkpt lat="37.48461833" lon="-4.41167833">
        <ele>702.0</ele>
        <time>2018-06-09T08:04:22.162Z</time>
      </trkpt>
      <trkpt lat="37.48461833" lon="-4.41167833">
        <ele>702.0</ele>
        <time>2018-06-09T08:04:23.182Z</time>
      </trkpt>
      <trkpt lat="37.48462667" lon="-4.41164833">
        <ele>702.0</ele>
        <time>2018-06-09T08:04:24.164Z</time>
      </trkpt>
      <trkpt lat="37.48462667" lon="-4.41164833">
        <ele>702.0</ele>
        <time>2018-06-09T08:04:25.161Z</time>
      </trkpt>
      <trkpt lat="37.484635" lon="-4.41162">
        <ele>702.0</ele>
        <time>2018-06-09T08:04:26.181Z</time>
      </trkpt>
      <trkpt lat="37.484635" lon="-4.41162">
        <ele>702.0</ele>
        <time>2018-06-09T08:04:27.193Z</time>
      </trkpt>
      <trkpt lat="37.48464167" lon="-4.41159">
        <ele>703.0</ele>
        <time>2018-06-09T08:04:28.173Z</time>
      </trkpt>
      <trkpt lat="37.484645" lon="-4.41157667">
        <ele>703.0</ele>
        <time>2018-06-09T08:04:29.165Z</time>
      </trkpt>
      <trkpt lat="37.484645" lon="-4.41157667">
        <ele>703.0</ele>
        <time>2018-06-09T08:04:30.162Z</time>
      </trkpt>
      <trkpt lat="37.48465333" lon="-4.41154667">
        <ele>703.0</ele>
        <time>2018-06-09T08:04:31.164Z</time>
      </trkpt>
      <trkpt lat="37.48465667" lon="-4.41153167">
        <ele>703.0</ele>
        <time>2018-06-09T08:04:32.186Z</time>
      </trkpt>
      <trkpt lat="37.48465667" lon="-4.41153167">
        <ele>703.0</ele>
        <time>2018-06-09T08:04:33.163Z</time>
      </trkpt>
      <trkpt lat="37.48466167" lon="-4.41150167">
        <ele>704.0</ele>
        <time>2018-06-09T08:04:34.185Z</time>
      </trkpt>
      <trkpt lat="37.48466167" lon="-4.41150167">
        <ele>704.0</ele>
        <time>2018-06-09T08:04:35.164Z</time>
      </trkpt>
      <trkpt lat="37.48466833" lon="-4.41147167">
        <ele>704.0</ele>
        <time>2018-06-09T08:04:36.164Z</time>
      </trkpt>
      <trkpt lat="37.48467333" lon="-4.41145667">
        <ele>704.0</ele>
        <time>2018-06-09T08:04:37.165Z</time>
      </trkpt>
      <trkpt lat="37.48467667" lon="-4.41144167">
        <ele>704.0</ele>
        <time>2018-06-09T08:04:38.160Z</time>
      </trkpt>
      <trkpt lat="37.48467667" lon="-4.41144167">
        <ele>704.0</ele>
        <time>2018-06-09T08:04:39.163Z</time>
      </trkpt>
      <trkpt lat="37.48468333" lon="-4.41140833">
        <ele>705.0</ele>
        <time>2018-06-09T08:04:40.162Z</time>
      </trkpt>
      <trkpt lat="37.48468333" lon="-4.41140833">
        <ele>705.0</ele>
        <time>2018-06-09T08:04:41.160Z</time>
      </trkpt>
      <trkpt lat="37.48469" lon="-4.41137667">
        <ele>705.0</ele>
        <time>2018-06-09T08:04:42.165Z</time>
      </trkpt>
      <trkpt lat="37.48469" lon="-4.41137667">
        <ele>705.0</ele>
        <time>2018-06-09T08:04:43.184Z</time>
      </trkpt>
      <trkpt lat="37.48469333" lon="-4.41134667">
        <ele>705.0</ele>
        <time>2018-06-09T08:04:44.168Z</time>
      </trkpt>
      <trkpt lat="37.48469333" lon="-4.41134667">
        <ele>705.0</ele>
        <time>2018-06-09T08:04:45.162Z</time>
      </trkpt>
      <trkpt lat="37.48469333" lon="-4.41131333">
        <ele>706.0</ele>
        <time>2018-06-09T08:04:46.163Z</time>
      </trkpt>
      <trkpt lat="37.48469667" lon="-4.41129833">
        <ele>706.0</ele>
        <time>2018-06-09T08:04:47.164Z</time>
      </trkpt>
      <trkpt lat="37.48469667" lon="-4.41129833">
        <ele>706.0</ele>
        <time>2018-06-09T08:04:48.168Z</time>
      </trkpt>
      <trkpt lat="37.48469833" lon="-4.411265">
        <ele>706.0</ele>
        <time>2018-06-09T08:04:49.165Z</time>
      </trkpt>
      <trkpt lat="37.48470167" lon="-4.41125">
        <ele>706.0</ele>
        <time>2018-06-09T08:04:50.164Z</time>
      </trkpt>
      <trkpt lat="37.48470167" lon="-4.41125">
        <ele>706.0</ele>
        <time>2018-06-09T08:04:51.162Z</time>
      </trkpt>
      <trkpt lat="37.48470167" lon="-4.41121833">
        <ele>707.0</ele>
        <time>2018-06-09T08:04:52.165Z</time>
      </trkpt>
      <trkpt lat="37.48470167" lon="-4.41121833">
        <ele>707.0</ele>
        <time>2018-06-09T08:04:53.160Z</time>
      </trkpt>
      <trkpt lat="37.48470167" lon="-4.411185">
        <ele>707.0</ele>
        <time>2018-06-09T08:04:54.164Z</time>
      </trkpt>
      <trkpt lat="37.48470167" lon="-4.411185">
        <ele>707.0</ele>
        <time>2018-06-09T08:04:55.162Z</time>
      </trkpt>
      <trkpt lat="37.484705" lon="-4.41115333">
        <ele>707.0</ele>
        <time>2018-06-09T08:04:56.186Z</time>
      </trkpt>
      <trkpt lat="37.484705" lon="-4.41115333">
        <ele>707.0</ele>
        <time>2018-06-09T08:04:57.166Z</time>
      </trkpt>
      <trkpt lat="37.48471" lon="-4.41112333">
        <ele>708.0</ele>
        <time>2018-06-09T08:04:58.197Z</time>
      </trkpt>
      <trkpt lat="37.48471" lon="-4.41110667">
        <ele>708.0</ele>
        <time>2018-06-09T08:04:59.185Z</time>
      </trkpt>
      <trkpt lat="37.48471" lon="-4.41110667">
        <ele>708.0</ele>
        <time>2018-06-09T08:05:00.162Z</time>
      </trkpt>
      <trkpt lat="37.48471167" lon="-4.411075">
        <ele>708.0</ele>
        <time>2018-06-09T08:05:01.165Z</time>
      </trkpt>
      <trkpt lat="37.48471333" lon="-4.41106">
        <ele>708.0</ele>
        <time>2018-06-09T08:05:02.164Z</time>
      </trkpt>
      <trkpt lat="37.48471333" lon="-4.41106">
        <ele>708.0</ele>
        <time>2018-06-09T08:05:03.185Z</time>
      </trkpt>
      <trkpt lat="37.48471833" lon="-4.41102833">
        <ele>709.0</ele>
        <time>2018-06-09T08:05:04.179Z</time>
      </trkpt>
      <trkpt lat="37.48472" lon="-4.41101333">
        <ele>709.0</ele>
        <time>2018-06-09T08:05:05.194Z</time>
      </trkpt>
      <trkpt lat="37.48472" lon="-4.41101333">
        <ele>709.0</ele>
        <time>2018-06-09T08:05:06.161Z</time>
      </trkpt>
      <trkpt lat="37.48472833" lon="-4.41098333">
        <ele>709.0</ele>
        <time>2018-06-09T08:05:07.168Z</time>
      </trkpt>
      <trkpt lat="37.48472833" lon="-4.41098333">
        <ele>709.0</ele>
        <time>2018-06-09T08:05:08.179Z</time>
      </trkpt>
      <trkpt lat="37.484735" lon="-4.41095167">
        <ele>710.0</ele>
        <time>2018-06-09T08:05:09.164Z</time>
      </trkpt>
      <trkpt lat="37.484735" lon="-4.410935">
        <ele>710.0</ele>
        <time>2018-06-09T08:05:10.188Z</time>
      </trkpt>
      <trkpt lat="37.484735" lon="-4.410935">
        <ele>710.0</ele>
        <time>2018-06-09T08:05:11.166Z</time>
      </trkpt>
      <trkpt lat="37.48473667" lon="-4.41090333">
        <ele>710.0</ele>
        <time>2018-06-09T08:05:12.166Z</time>
      </trkpt>
      <trkpt lat="37.48473667" lon="-4.41090333">
        <ele>710.0</ele>
        <time>2018-06-09T08:05:13.162Z</time>
      </trkpt>
      <trkpt lat="37.48474167" lon="-4.41087167">
        <ele>711.0</ele>
        <time>2018-06-09T08:05:14.164Z</time>
      </trkpt>
      <trkpt lat="37.48474167" lon="-4.41087167">
        <ele>711.0</ele>
        <time>2018-06-09T08:05:15.162Z</time>
      </trkpt>
      <trkpt lat="37.484745" lon="-4.41084167">
        <ele>711.0</ele>
        <time>2018-06-09T08:05:16.166Z</time>
      </trkpt>
      <trkpt lat="37.484745" lon="-4.41084167">
        <ele>711.0</ele>
        <time>2018-06-09T08:05:17.163Z</time>
      </trkpt>
      <trkpt lat="37.48475" lon="-4.41080833">
        <ele>712.0</ele>
        <time>2018-06-09T08:05:18.180Z</time>
      </trkpt>
      <trkpt lat="37.48475" lon="-4.41080833">
        <ele>712.0</ele>
        <time>2018-06-09T08:05:19.163Z</time>
      </trkpt>
      <trkpt lat="37.48475" lon="-4.410775">
        <ele>712.0</ele>
        <time>2018-06-09T08:05:20.168Z</time>
      </trkpt>
      <trkpt lat="37.48475" lon="-4.410775">
        <ele>712.0</ele>
        <time>2018-06-09T08:05:21.163Z</time>
      </trkpt>
      <trkpt lat="37.48474833" lon="-4.41074167">
        <ele>712.0</ele>
        <time>2018-06-09T08:05:22.166Z</time>
      </trkpt>
      <trkpt lat="37.48474833" lon="-4.41074167">
        <ele>712.0</ele>
        <time>2018-06-09T08:05:23.164Z</time>
      </trkpt>
      <trkpt lat="37.484745" lon="-4.41071">
        <ele>713.0</ele>
        <time>2018-06-09T08:05:24.164Z</time>
      </trkpt>
      <trkpt lat="37.484745" lon="-4.41071">
        <ele>713.0</ele>
        <time>2018-06-09T08:05:25.162Z</time>
      </trkpt>
      <trkpt lat="37.48474167" lon="-4.41067667">
        <ele>713.0</ele>
        <time>2018-06-09T08:05:26.195Z</time>
      </trkpt>
      <trkpt lat="37.48474167" lon="-4.41067667">
        <ele>713.0</ele>
        <time>2018-06-09T08:05:27.176Z</time>
      </trkpt>
      <trkpt lat="37.48473667" lon="-4.41064333">
        <ele>713.0</ele>
        <time>2018-06-09T08:05:28.168Z</time>
      </trkpt>
      <trkpt lat="37.48473667" lon="-4.41064333">
        <ele>713.0</ele>
        <time>2018-06-09T08:05:29.173Z</time>
      </trkpt>
      <trkpt lat="37.48473" lon="-4.41061167">
        <ele>713.0</ele>
        <time>2018-06-09T08:05:30.165Z</time>
      </trkpt>
      <trkpt lat="37.48473" lon="-4.41061167">
        <ele>713.0</ele>
        <time>2018-06-09T08:05:31.163Z</time>
      </trkpt>
      <trkpt lat="37.48471833" lon="-4.41058333">
        <ele>714.0</ele>
        <time>2018-06-09T08:05:32.164Z</time>
      </trkpt>
      <trkpt lat="37.48471833" lon="-4.41058333">
        <ele>714.0</ele>
        <time>2018-06-09T08:05:33.185Z</time>
      </trkpt>
      <trkpt lat="37.48470833" lon="-4.41055333">
        <ele>714.0</ele>
        <time>2018-06-09T08:05:34.168Z</time>
      </trkpt>
      <trkpt lat="37.48470833" lon="-4.41055333">
        <ele>714.0</ele>
        <time>2018-06-09T08:05:35.160Z</time>
      </trkpt>
      <trkpt lat="37.48469833" lon="-4.41052333">
        <ele>714.0</ele>
        <time>2018-06-09T08:05:36.184Z</time>
      </trkpt>
      <trkpt lat="37.48469833" lon="-4.41052333">
        <ele>714.0</ele>
        <time>2018-06-09T08:05:37.162Z</time>
      </trkpt>
      <trkpt lat="37.48469" lon="-4.41049167">
        <ele>715.0</ele>
        <time>2018-06-09T08:05:38.186Z</time>
      </trkpt>
      <trkpt lat="37.48469" lon="-4.41049167">
        <ele>715.0</ele>
        <time>2018-06-09T08:05:39.166Z</time>
      </trkpt>
      <trkpt lat="37.48468167" lon="-4.41046">
        <ele>715.0</ele>
        <time>2018-06-09T08:05:40.165Z</time>
      </trkpt>
      <trkpt lat="37.48468167" lon="-4.41046">
        <ele>715.0</ele>
        <time>2018-06-09T08:05:41.162Z</time>
      </trkpt>
      <trkpt lat="37.48467" lon="-4.41043">
        <ele>715.0</ele>
        <time>2018-06-09T08:05:42.165Z</time>
      </trkpt>
      <trkpt lat="37.48467" lon="-4.41043">
        <ele>715.0</ele>
        <time>2018-06-09T08:05:43.184Z</time>
      </trkpt>
      <trkpt lat="37.48465833" lon="-4.41040333">
        <ele>715.0</ele>
        <time>2018-06-09T08:05:44.166Z</time>
      </trkpt>
      <trkpt lat="37.48465833" lon="-4.41040333">
        <ele>715.0</ele>
        <time>2018-06-09T08:05:45.163Z</time>
      </trkpt>
      <trkpt lat="37.484645" lon="-4.41037333">
        <ele>716.0</ele>
        <time>2018-06-09T08:05:46.185Z</time>
      </trkpt>
      <trkpt lat="37.484645" lon="-4.41037333">
        <ele>716.0</ele>
        <time>2018-06-09T08:05:47.195Z</time>
      </trkpt>
      <trkpt lat="37.48463333" lon="-4.41034333">
        <ele>716.0</ele>
        <time>2018-06-09T08:05:48.196Z</time>
      </trkpt>
      <trkpt lat="37.48462667" lon="-4.41033">
        <ele>716.0</ele>
        <time>2018-06-09T08:05:49.162Z</time>
      </trkpt>
      <trkpt lat="37.48461833" lon="-4.410315">
        <ele>716.0</ele>
        <time>2018-06-09T08:05:50.169Z</time>
      </trkpt>
      <trkpt lat="37.48461833" lon="-4.410315">
        <ele>716.0</ele>
        <time>2018-06-09T08:05:51.162Z</time>
      </trkpt>
      <trkpt lat="37.48460333" lon="-4.41028333">
        <ele>716.0</ele>
        <time>2018-06-09T08:05:52.165Z</time>
      </trkpt>
      <trkpt lat="37.48460333" lon="-4.41028333">
        <ele>716.0</ele>
        <time>2018-06-09T08:05:53.184Z</time>
      </trkpt>
      <trkpt lat="37.48458833" lon="-4.41025167">
        <ele>717.0</ele>
        <time>2018-06-09T08:05:54.166Z</time>
      </trkpt>
      <trkpt lat="37.48458833" lon="-4.41025167">
        <ele>717.0</ele>
        <time>2018-06-09T08:05:55.162Z</time>
      </trkpt>
      <trkpt lat="37.48457333" lon="-4.41022">
        <ele>717.0</ele>
        <time>2018-06-09T08:05:56.186Z</time>
      </trkpt>
      <trkpt lat="37.48457333" lon="-4.41022">
        <ele>717.0</ele>
        <time>2018-06-09T08:05:57.163Z</time>
      </trkpt>
      <trkpt lat="37.48456" lon="-4.41018833">
        <ele>717.0</ele>
        <time>2018-06-09T08:05:58.165Z</time>
      </trkpt>
      <trkpt lat="37.48456" lon="-4.41018833">
        <ele>717.0</ele>
        <time>2018-06-09T08:05:59.184Z</time>
      </trkpt>
      <trkpt lat="37.48454333" lon="-4.41015667">
        <ele>717.0</ele>
        <time>2018-06-09T08:06:00.166Z</time>
      </trkpt>
      <trkpt lat="37.48454333" lon="-4.41015667">
        <ele>717.0</ele>
        <time>2018-06-09T08:06:01.160Z</time>
      </trkpt>
      <trkpt lat="37.48452833" lon="-4.410125">
        <ele>718.0</ele>
        <time>2018-06-09T08:06:02.181Z</time>
      </trkpt>
      <trkpt lat="37.48452833" lon="-4.410125">
        <ele>718.0</ele>
        <time>2018-06-09T08:06:03.161Z</time>
      </trkpt>
      <trkpt lat="37.48451333" lon="-4.41009667">
        <ele>718.0</ele>
        <time>2018-06-09T08:06:04.165Z</time>
      </trkpt>
      <trkpt lat="37.48451333" lon="-4.41009667">
        <ele>718.0</ele>
        <time>2018-06-09T08:06:05.163Z</time>
      </trkpt>
      <trkpt lat="37.48449333" lon="-4.41006833">
        <ele>718.0</ele>
        <time>2018-06-09T08:06:06.184Z</time>
      </trkpt>
      <trkpt lat="37.48449333" lon="-4.41006833">
        <ele>718.0</ele>
        <time>2018-06-09T08:06:07.162Z</time>
      </trkpt>
      <trkpt lat="37.484475" lon="-4.41004">
        <ele>719.0</ele>
        <time>2018-06-09T08:06:08.186Z</time>
      </trkpt>
      <trkpt lat="37.484475" lon="-4.41004">
        <ele>719.0</ele>
        <time>2018-06-09T08:06:09.167Z</time>
      </trkpt>
      <trkpt lat="37.48445833" lon="-4.41001167">
        <ele>719.0</ele>
        <time>2018-06-09T08:06:10.165Z</time>
      </trkpt>
      <trkpt lat="37.48445833" lon="-4.41001167">
        <ele>719.0</ele>
        <time>2018-06-09T08:06:11.162Z</time>
      </trkpt>
      <trkpt lat="37.48444167" lon="-4.40998333">
        <ele>719.0</ele>
        <time>2018-06-09T08:06:12.168Z</time>
      </trkpt>
      <trkpt lat="37.48444167" lon="-4.40998333">
        <ele>719.0</ele>
        <time>2018-06-09T08:06:13.162Z</time>
      </trkpt>
      <trkpt lat="37.484425" lon="-4.409955">
        <ele>720.0</ele>
        <time>2018-06-09T08:06:14.182Z</time>
      </trkpt>
      <trkpt lat="37.484425" lon="-4.409955">
        <ele>720.0</ele>
        <time>2018-06-09T08:06:15.162Z</time>
      </trkpt>
      <trkpt lat="37.48440667" lon="-4.40992333">
        <ele>720.0</ele>
        <time>2018-06-09T08:06:16.165Z</time>
      </trkpt>
      <trkpt lat="37.48440667" lon="-4.40992333">
        <ele>720.0</ele>
        <time>2018-06-09T08:06:17.162Z</time>
      </trkpt>
      <trkpt lat="37.48439" lon="-4.409895">
        <ele>720.0</ele>
        <time>2018-06-09T08:06:18.176Z</time>
      </trkpt>
      <trkpt lat="37.48439" lon="-4.409895">
        <ele>720.0</ele>
        <time>2018-06-09T08:06:19.163Z</time>
      </trkpt>
      <trkpt lat="37.484375" lon="-4.40986667">
        <ele>721.0</ele>
        <time>2018-06-09T08:06:20.169Z</time>
      </trkpt>
      <trkpt lat="37.484375" lon="-4.40986667">
        <ele>721.0</ele>
        <time>2018-06-09T08:06:21.162Z</time>
      </trkpt>
      <trkpt lat="37.484365" lon="-4.40983833">
        <ele>721.0</ele>
        <time>2018-06-09T08:06:22.165Z</time>
      </trkpt>
      <trkpt lat="37.484365" lon="-4.40983833">
        <ele>721.0</ele>
        <time>2018-06-09T08:06:23.162Z</time>
      </trkpt>
      <trkpt lat="37.484355" lon="-4.40980667">
        <ele>722.0</ele>
        <time>2018-06-09T08:06:24.166Z</time>
      </trkpt>
      <trkpt lat="37.48435" lon="-4.40979">
        <ele>722.0</ele>
        <time>2018-06-09T08:06:25.164Z</time>
      </trkpt>
      <trkpt lat="37.48435" lon="-4.40979">
        <ele>722.0</ele>
        <time>2018-06-09T08:06:26.182Z</time>
      </trkpt>
      <trkpt lat="37.48434167" lon="-4.40975833">
        <ele>722.0</ele>
        <time>2018-06-09T08:06:27.166Z</time>
      </trkpt>
      <trkpt lat="37.48434167" lon="-4.40975833">
        <ele>722.0</ele>
        <time>2018-06-09T08:06:28.162Z</time>
      </trkpt>
      <trkpt lat="37.484325" lon="-4.40972833">
        <ele>723.0</ele>
        <time>2018-06-09T08:06:29.164Z</time>
      </trkpt>
      <trkpt lat="37.484325" lon="-4.40972833">
        <ele>723.0</ele>
        <time>2018-06-09T08:06:30.162Z</time>
      </trkpt>
      <trkpt lat="37.48431833" lon="-4.40969">
        <ele>723.0</ele>
        <time>2018-06-09T08:06:31.165Z</time>
      </trkpt>
      <trkpt lat="37.48431" lon="-4.40967333">
        <ele>723.0</ele>
        <time>2018-06-09T08:06:32.168Z</time>
      </trkpt>
      <trkpt lat="37.48431" lon="-4.40967333">
        <ele>723.0</ele>
        <time>2018-06-09T08:06:33.161Z</time>
      </trkpt>
      <trkpt lat="37.48429667" lon="-4.40964">
        <ele>723.0</ele>
        <time>2018-06-09T08:06:34.166Z</time>
      </trkpt>
      <trkpt lat="37.48429667" lon="-4.40964">
        <ele>723.0</ele>
        <time>2018-06-09T08:06:35.162Z</time>
      </trkpt>
      <trkpt lat="37.48427833" lon="-4.409605">
        <ele>724.0</ele>
        <time>2018-06-09T08:06:36.185Z</time>
      </trkpt>
      <trkpt lat="37.48427833" lon="-4.409605">
        <ele>724.0</ele>
        <time>2018-06-09T08:06:37.163Z</time>
      </trkpt>
      <trkpt lat="37.48426167" lon="-4.40956333">
        <ele>724.0</ele>
        <time>2018-06-09T08:06:38.186Z</time>
      </trkpt>
      <trkpt lat="37.48426167" lon="-4.40956333">
        <ele>724.0</ele>
        <time>2018-06-09T08:06:39.163Z</time>
      </trkpt>
      <trkpt lat="37.484245" lon="-4.40951333">
        <ele>724.0</ele>
        <time>2018-06-09T08:06:40.165Z</time>
      </trkpt>
      <trkpt lat="37.484245" lon="-4.40951333">
        <ele>724.0</ele>
        <time>2018-06-09T08:06:41.161Z</time>
      </trkpt>
      <trkpt lat="37.48422667" lon="-4.40946167">
        <ele>724.0</ele>
        <time>2018-06-09T08:06:42.165Z</time>
      </trkpt>
      <trkpt lat="37.48422667" lon="-4.40946167">
        <ele>724.0</ele>
        <time>2018-06-09T08:06:43.162Z</time>
      </trkpt>
      <trkpt lat="37.48421333" lon="-4.40940667">
        <ele>724.0</ele>
        <time>2018-06-09T08:06:44.186Z</time>
      </trkpt>
      <trkpt lat="37.48421333" lon="-4.40940667">
        <ele>724.0</ele>
        <time>2018-06-09T08:06:45.163Z</time>
      </trkpt>
      <trkpt lat="37.48419833" lon="-4.409355">
        <ele>724.0</ele>
        <time>2018-06-09T08:06:46.161Z</time>
      </trkpt>
      <trkpt lat="37.48419333" lon="-4.40932833">
        <ele>724.0</ele>
        <time>2018-06-09T08:06:47.165Z</time>
      </trkpt>
      <trkpt lat="37.48419333" lon="-4.40932833">
        <ele>724.0</ele>
        <time>2018-06-09T08:06:48.185Z</time>
      </trkpt>
      <trkpt lat="37.48418333" lon="-4.40927333">
        <ele>725.0</ele>
        <time>2018-06-09T08:06:49.166Z</time>
      </trkpt>
      <trkpt lat="37.48418" lon="-4.409245">
        <ele>725.0</ele>
        <time>2018-06-09T08:06:50.166Z</time>
      </trkpt>
      <trkpt lat="37.48418" lon="-4.409245">
        <ele>725.0</ele>
        <time>2018-06-09T08:06:51.162Z</time>
      </trkpt>
      <trkpt lat="37.484175" lon="-4.40918667">
        <ele>725.0</ele>
        <time>2018-06-09T08:06:52.166Z</time>
      </trkpt>
      <trkpt lat="37.484175" lon="-4.40918667">
        <ele>725.0</ele>
        <time>2018-06-09T08:06:53.185Z</time>
      </trkpt>
      <trkpt lat="37.48417" lon="-4.40912833">
        <ele>725.0</ele>
        <time>2018-06-09T08:06:54.168Z</time>
      </trkpt>
      <trkpt lat="37.48417" lon="-4.40912833">
        <ele>725.0</ele>
        <time>2018-06-09T08:06:55.162Z</time>
      </trkpt>
      <trkpt lat="37.484165" lon="-4.40907167">
        <ele>725.0</ele>
        <time>2018-06-09T08:06:56.184Z</time>
      </trkpt>
      <trkpt lat="37.484165" lon="-4.40907167">
        <ele>725.0</ele>
        <time>2018-06-09T08:06:57.163Z</time>
      </trkpt>
      <trkpt lat="37.48415833" lon="-4.409015">
        <ele>725.0</ele>
        <time>2018-06-09T08:06:58.166Z</time>
      </trkpt>
      <trkpt lat="37.48415833" lon="-4.409015">
        <ele>725.0</ele>
        <time>2018-06-09T08:06:59.161Z</time>
      </trkpt>
      <trkpt lat="37.48415833" lon="-4.40896333">
        <ele>725.0</ele>
        <time>2018-06-09T08:07:00.180Z</time>
      </trkpt>
      <trkpt lat="37.48415833" lon="-4.40896333">
        <ele>725.0</ele>
        <time>2018-06-09T08:07:01.163Z</time>
      </trkpt>
      <trkpt lat="37.48415667" lon="-4.408915">
        <ele>726.0</ele>
        <time>2018-06-09T08:07:02.186Z</time>
      </trkpt>
      <trkpt lat="37.48415667" lon="-4.408915">
        <ele>726.0</ele>
        <time>2018-06-09T08:07:03.163Z</time>
      </trkpt>
      <trkpt lat="37.48415167" lon="-4.40886833">
        <ele>726.0</ele>
        <time>2018-06-09T08:07:04.165Z</time>
      </trkpt>
      <trkpt lat="37.48415167" lon="-4.40886833">
        <ele>726.0</ele>
        <time>2018-06-09T08:07:05.162Z</time>
      </trkpt>
      <trkpt lat="37.48415333" lon="-4.40882">
        <ele>726.0</ele>
        <time>2018-06-09T08:07:06.183Z</time>
      </trkpt>
      <trkpt lat="37.48415333" lon="-4.40882">
        <ele>726.0</ele>
        <time>2018-06-09T08:07:07.162Z</time>
      </trkpt>
      <trkpt lat="37.48415167" lon="-4.40877333">
        <ele>727.0</ele>
        <time>2018-06-09T08:07:08.186Z</time>
      </trkpt>
      <trkpt lat="37.48415167" lon="-4.40877333">
        <ele>727.0</ele>
        <time>2018-06-09T08:07:09.162Z</time>
      </trkpt>
      <trkpt lat="37.48415" lon="-4.40873333">
        <ele>727.0</ele>
        <time>2018-06-09T08:07:10.177Z</time>
      </trkpt>
      <trkpt lat="37.48415" lon="-4.40873333">
        <ele>727.0</ele>
        <time>2018-06-09T08:07:11.162Z</time>
      </trkpt>
      <trkpt lat="37.48415" lon="-4.40869167">
        <ele>727.0</ele>
        <time>2018-06-09T08:07:12.165Z</time>
      </trkpt>
      <trkpt lat="37.48415" lon="-4.40869167">
        <ele>727.0</ele>
        <time>2018-06-09T08:07:13.162Z</time>
      </trkpt>
      <trkpt lat="37.48414833" lon="-4.40865167">
        <ele>727.0</ele>
        <time>2018-06-09T08:07:14.186Z</time>
      </trkpt>
      <trkpt lat="37.48414833" lon="-4.40865167">
        <ele>727.0</ele>
        <time>2018-06-09T08:07:15.163Z</time>
      </trkpt>
      <trkpt lat="37.48414667" lon="-4.40861167">
        <ele>727.0</ele>
        <time>2018-06-09T08:07:16.184Z</time>
      </trkpt>
      <trkpt lat="37.48414667" lon="-4.40861167">
        <ele>727.0</ele>
        <time>2018-06-09T08:07:17.162Z</time>
      </trkpt>
      <trkpt lat="37.48414667" lon="-4.40858167">
        <ele>727.0</ele>
        <time>2018-06-09T08:07:18.185Z</time>
      </trkpt>
      <trkpt lat="37.48414667" lon="-4.40858167">
        <ele>727.0</ele>
        <time>2018-06-09T08:07:19.166Z</time>
      </trkpt>
      <trkpt lat="37.48414833" lon="-4.408605">
        <ele>727.0</ele>
        <time>2018-06-09T08:07:20.164Z</time>
      </trkpt>
      <trkpt lat="37.48414833" lon="-4.408605">
        <ele>727.0</ele>
        <time>2018-06-09T08:07:21.185Z</time>
      </trkpt>
      <trkpt lat="37.48414833" lon="-4.408645">
        <ele>727.0</ele>
        <time>2018-06-09T08:07:22.165Z</time>
      </trkpt>
      <trkpt lat="37.48414833" lon="-4.408645">
        <ele>727.0</ele>
        <time>2018-06-09T08:07:23.185Z</time>
      </trkpt>
      <trkpt lat="37.48414333" lon="-4.40869">
        <ele>727.0</ele>
        <time>2018-06-09T08:07:24.164Z</time>
      </trkpt>
      <trkpt lat="37.48414333" lon="-4.40869">
        <ele>727.0</ele>
        <time>2018-06-09T08:07:25.164Z</time>
      </trkpt>
      <trkpt lat="37.48414" lon="-4.40874833">
        <ele>726.0</ele>
        <time>2018-06-09T08:07:26.180Z</time>
      </trkpt>
      <trkpt lat="37.48414" lon="-4.40874833">
        <ele>726.0</ele>
        <time>2018-06-09T08:07:27.160Z</time>
      </trkpt>
      <trkpt lat="37.484145" lon="-4.40882833">
        <ele>726.0</ele>
        <time>2018-06-09T08:07:28.157Z</time>
      </trkpt>
      <trkpt lat="37.484145" lon="-4.40882833">
        <ele>726.0</ele>
        <time>2018-06-09T08:07:29.179Z</time>
      </trkpt>
      <trkpt lat="37.48415667" lon="-4.40892833">
        <ele>725.0</ele>
        <time>2018-06-09T08:07:30.166Z</time>
      </trkpt>
      <trkpt lat="37.48415667" lon="-4.40892833">
        <ele>725.0</ele>
        <time>2018-06-09T08:07:31.162Z</time>
      </trkpt>
      <trkpt lat="37.48417167" lon="-4.40903333">
        <ele>725.0</ele>
        <time>2018-06-09T08:07:32.186Z</time>
      </trkpt>
      <trkpt lat="37.48417167" lon="-4.40903333">
        <ele>725.0</ele>
        <time>2018-06-09T08:07:33.190Z</time>
      </trkpt>
      <trkpt lat="37.48417833" lon="-4.40911333">
        <ele>725.0</ele>
        <time>2018-06-09T08:07:34.172Z</time>
      </trkpt>
      <trkpt lat="37.48417833" lon="-4.40911333">
        <ele>725.0</ele>
        <time>2018-06-09T08:07:35.179Z</time>
      </trkpt>
      <trkpt lat="37.48418167" lon="-4.409185">
        <ele>725.0</ele>
        <time>2018-06-09T08:07:36.188Z</time>
      </trkpt>
      <trkpt lat="37.48418167" lon="-4.409185">
        <ele>725.0</ele>
        <time>2018-06-09T08:07:37.307Z</time>
      </trkpt>
      <trkpt lat="37.48417833" lon="-4.40925667">
        <ele>725.0</ele>
        <time>2018-06-09T08:07:38.189Z</time>
      </trkpt>
      <trkpt lat="37.48417833" lon="-4.40925667">
        <ele>725.0</ele>
        <time>2018-06-09T08:07:39.174Z</time>
      </trkpt>
      <trkpt lat="37.48418667" lon="-4.40932">
        <ele>725.0</ele>
        <time>2018-06-09T08:07:40.166Z</time>
      </trkpt>
      <trkpt lat="37.48418667" lon="-4.40932">
        <ele>725.0</ele>
        <time>2018-06-09T08:07:41.191Z</time>
      </trkpt>
      <trkpt lat="37.4842" lon="-4.40938167">
        <ele>725.0</ele>
        <time>2018-06-09T08:07:42.167Z</time>
      </trkpt>
      <trkpt lat="37.4842" lon="-4.40938167">
        <ele>725.0</ele>
        <time>2018-06-09T08:07:43.160Z</time>
      </trkpt>
      <trkpt lat="37.48421833" lon="-4.40943833">
        <ele>724.0</ele>
        <time>2018-06-09T08:07:44.169Z</time>
      </trkpt>
      <trkpt lat="37.48421833" lon="-4.40943833">
        <ele>724.0</ele>
        <time>2018-06-09T08:07:45.224Z</time>
      </trkpt>
      <trkpt lat="37.48423833" lon="-4.40949833">
        <ele>724.0</ele>
        <time>2018-06-09T08:07:46.188Z</time>
      </trkpt>
      <trkpt lat="37.48423833" lon="-4.40949833">
        <ele>724.0</ele>
        <time>2018-06-09T08:07:47.225Z</time>
      </trkpt>
      <trkpt lat="37.48426" lon="-4.40956333">
        <ele>724.0</ele>
        <time>2018-06-09T08:07:48.169Z</time>
      </trkpt>
      <trkpt lat="37.48426" lon="-4.40956333">
        <ele>724.0</ele>
        <time>2018-06-09T08:07:49.180Z</time>
      </trkpt>
      <trkpt lat="37.48428167" lon="-4.409615">
        <ele>724.0</ele>
        <time>2018-06-09T08:07:50.179Z</time>
      </trkpt>
      <trkpt lat="37.48428167" lon="-4.409615">
        <ele>724.0</ele>
        <time>2018-06-09T08:07:51.184Z</time>
      </trkpt>
      <trkpt lat="37.4843" lon="-4.40967333">
        <ele>724.0</ele>
        <time>2018-06-09T08:07:52.166Z</time>
      </trkpt>
      <trkpt lat="37.4843" lon="-4.40967333">
        <ele>724.0</ele>
        <time>2018-06-09T08:07:53.164Z</time>
      </trkpt>
      <trkpt lat="37.48431667" lon="-4.40975167">
        <ele>724.0</ele>
        <time>2018-06-09T08:07:54.320Z</time>
      </trkpt>
      <trkpt lat="37.48431667" lon="-4.40975167">
        <ele>724.0</ele>
        <time>2018-06-09T08:07:55.180Z</time>
      </trkpt>
      <trkpt lat="37.484355" lon="-4.409845">
        <ele>724.0</ele>
        <time>2018-06-09T08:07:56.183Z</time>
      </trkpt>
      <trkpt lat="37.484355" lon="-4.409845">
        <ele>724.0</ele>
        <time>2018-06-09T08:07:57.169Z</time>
      </trkpt>
      <trkpt lat="37.48441833" lon="-4.40993833">
        <ele>723.0</ele>
        <time>2018-06-09T08:07:58.174Z</time>
      </trkpt>
      <trkpt lat="37.48441833" lon="-4.40993833">
        <ele>723.0</ele>
        <time>2018-06-09T08:07:59.165Z</time>
      </trkpt>
      <trkpt lat="37.484485" lon="-4.41004833">
        <ele>722.0</ele>
        <time>2018-06-09T08:08:00.161Z</time>
      </trkpt>
      <trkpt lat="37.484485" lon="-4.41004833">
        <ele>722.0</ele>
        <time>2018-06-09T08:08:01.191Z</time>
      </trkpt>
      <trkpt lat="37.48456" lon="-4.410175">
        <ele>720.0</ele>
        <time>2018-06-09T08:08:02.187Z</time>
      </trkpt>
      <trkpt lat="37.48456" lon="-4.410175">
        <ele>720.0</ele>
        <time>2018-06-09T08:08:03.169Z</time>
      </trkpt>
      <trkpt lat="37.48461833" lon="-4.41029667">
        <ele>719.0</ele>
        <time>2018-06-09T08:08:04.183Z</time>
      </trkpt>
      <trkpt lat="37.48461833" lon="-4.41029667">
        <ele>719.0</ele>
        <time>2018-06-09T08:08:05.194Z</time>
      </trkpt>
      <trkpt lat="37.48466667" lon="-4.41040667">
        <ele>718.0</ele>
        <time>2018-06-09T08:08:06.183Z</time>
      </trkpt>
      <trkpt lat="37.48466667" lon="-4.41040667">
        <ele>718.0</ele>
        <time>2018-06-09T08:08:07.190Z</time>
      </trkpt>
      <trkpt lat="37.48471" lon="-4.41052">
        <ele>717.0</ele>
        <time>2018-06-09T08:08:08.194Z</time>
      </trkpt>
      <trkpt lat="37.48473167" lon="-4.41058167">
        <ele>716.0</ele>
        <time>2018-06-09T08:08:09.194Z</time>
      </trkpt>
      <trkpt lat="37.48473167" lon="-4.41058167">
        <ele>716.0</ele>
        <time>2018-06-09T08:08:10.169Z</time>
      </trkpt>
      <trkpt lat="37.48476333" lon="-4.41071667">
        <ele>715.0</ele>
        <time>2018-06-09T08:08:11.192Z</time>
      </trkpt>
      <trkpt lat="37.48476833" lon="-4.41079167">
        <ele>714.0</ele>
        <time>2018-06-09T08:08:12.175Z</time>
      </trkpt>
      <trkpt lat="37.48476833" lon="-4.41079167">
        <ele>714.0</ele>
        <time>2018-06-09T08:08:13.189Z</time>
      </trkpt>
      <trkpt lat="37.48475333" lon="-4.410945">
        <ele>713.0</ele>
        <time>2018-06-09T08:08:14.158Z</time>
      </trkpt>
      <trkpt lat="37.48475333" lon="-4.410945">
        <ele>713.0</ele>
        <time>2018-06-09T08:08:15.178Z</time>
      </trkpt>
      <trkpt lat="37.48472667" lon="-4.411105">
        <ele>711.0</ele>
        <time>2018-06-09T08:08:16.193Z</time>
      </trkpt>
      <trkpt lat="37.48472667" lon="-4.411105">
        <ele>711.0</ele>
        <time>2018-06-09T08:08:17.168Z</time>
      </trkpt>
      <trkpt lat="37.48471833" lon="-4.41126667">
        <ele>710.0</ele>
        <time>2018-06-09T08:08:18.183Z</time>
      </trkpt>
      <trkpt lat="37.48471167" lon="-4.41134167">
        <ele>709.0</ele>
        <time>2018-06-09T08:08:19.170Z</time>
      </trkpt>
      <trkpt lat="37.48471167" lon="-4.41134167">
        <ele>709.0</ele>
        <time>2018-06-09T08:08:20.185Z</time>
      </trkpt>
      <trkpt lat="37.484675" lon="-4.41147833">
        <ele>708.0</ele>
        <time>2018-06-09T08:08:21.157Z</time>
      </trkpt>
      <trkpt lat="37.484675" lon="-4.41147833">
        <ele>708.0</ele>
        <time>2018-06-09T08:08:22.180Z</time>
      </trkpt>
      <trkpt lat="37.48463833" lon="-4.41162667">
        <ele>706.0</ele>
        <time>2018-06-09T08:08:23.158Z</time>
      </trkpt>
      <trkpt lat="37.48461667" lon="-4.411705">
        <ele>705.0</ele>
        <time>2018-06-09T08:08:24.187Z</time>
      </trkpt>
      <trkpt lat="37.48461667" lon="-4.411705">
        <ele>705.0</ele>
        <time>2018-06-09T08:08:25.157Z</time>
      </trkpt>
      <trkpt lat="37.48457167" lon="-4.41186167">
        <ele>703.0</ele>
        <time>2018-06-09T08:08:26.165Z</time>
      </trkpt>
      <trkpt lat="37.48457167" lon="-4.41186167">
        <ele>703.0</ele>
        <time>2018-06-09T08:08:27.157Z</time>
      </trkpt>
      <trkpt lat="37.48452333" lon="-4.41201">
        <ele>701.0</ele>
        <time>2018-06-09T08:08:28.180Z</time>
      </trkpt>
      <trkpt lat="37.484495" lon="-4.41208">
        <ele>701.0</ele>
        <time>2018-06-09T08:08:29.162Z</time>
      </trkpt>
      <trkpt lat="37.484495" lon="-4.41208">
        <ele>701.0</ele>
        <time>2018-06-09T08:08:30.177Z</time>
      </trkpt>
      <trkpt lat="37.48441667" lon="-4.41221">
        <ele>699.0</ele>
        <time>2018-06-09T08:08:31.187Z</time>
      </trkpt>
      <trkpt lat="37.48437167" lon="-4.41227">
        <ele>698.0</ele>
        <time>2018-06-09T08:08:32.167Z</time>
      </trkpt>
      <trkpt lat="37.48437167" lon="-4.41227">
        <ele>698.0</ele>
        <time>2018-06-09T08:08:33.188Z</time>
      </trkpt>
      <trkpt lat="37.48428167" lon="-4.41238833">
        <ele>696.0</ele>
        <time>2018-06-09T08:08:34.159Z</time>
      </trkpt>
      <trkpt lat="37.48428167" lon="-4.41238833">
        <ele>696.0</ele>
        <time>2018-06-09T08:08:35.165Z</time>
      </trkpt>
      <trkpt lat="37.48420667" lon="-4.41252">
        <ele>694.0</ele>
        <time>2018-06-09T08:08:36.178Z</time>
      </trkpt>
      <trkpt lat="37.48418" lon="-4.412595">
        <ele>693.0</ele>
        <time>2018-06-09T08:08:37.160Z</time>
      </trkpt>
      <trkpt lat="37.48415167" lon="-4.41267167">
        <ele>692.0</ele>
        <time>2018-06-09T08:08:38.182Z</time>
      </trkpt>
      <trkpt lat="37.48415167" lon="-4.41267167">
        <ele>692.0</ele>
        <time>2018-06-09T08:08:39.157Z</time>
      </trkpt>
      <trkpt lat="37.484085" lon="-4.41282833">
        <ele>690.0</ele>
        <time>2018-06-09T08:08:40.169Z</time>
      </trkpt>
      <trkpt lat="37.48404667" lon="-4.41290833">
        <ele>689.0</ele>
        <time>2018-06-09T08:08:41.157Z</time>
      </trkpt>
      <trkpt lat="37.48400833" lon="-4.412985">
        <ele>689.0</ele>
        <time>2018-06-09T08:08:42.197Z</time>
      </trkpt>
      <trkpt lat="37.48400833" lon="-4.412985">
        <ele>689.0</ele>
        <time>2018-06-09T08:08:43.157Z</time>
      </trkpt>
      <trkpt lat="37.48393333" lon="-4.41312667">
        <ele>687.0</ele>
        <time>2018-06-09T08:08:44.167Z</time>
      </trkpt>
      <trkpt lat="37.48393333" lon="-4.41312667">
        <ele>687.0</ele>
        <time>2018-06-09T08:08:45.179Z</time>
      </trkpt>
      <trkpt lat="37.48385833" lon="-4.41326167">
        <ele>685.0</ele>
        <time>2018-06-09T08:08:46.163Z</time>
      </trkpt>
      <trkpt lat="37.48382333" lon="-4.41333">
        <ele>684.0</ele>
        <time>2018-06-09T08:08:47.164Z</time>
      </trkpt>
      <trkpt lat="37.48378833" lon="-4.413395">
        <ele>684.0</ele>
        <time>2018-06-09T08:08:48.191Z</time>
      </trkpt>
      <trkpt lat="37.48378833" lon="-4.413395">
        <ele>684.0</ele>
        <time>2018-06-09T08:08:49.168Z</time>
      </trkpt>
      <trkpt lat="37.48371167" lon="-4.413515">
        <ele>682.0</ele>
        <time>2018-06-09T08:08:50.182Z</time>
      </trkpt>
      <trkpt lat="37.48371167" lon="-4.413515">
        <ele>682.0</ele>
        <time>2018-06-09T08:08:51.158Z</time>
      </trkpt>
      <trkpt lat="37.48363833" lon="-4.41363167">
        <ele>680.0</ele>
        <time>2018-06-09T08:08:52.170Z</time>
      </trkpt>
      <trkpt lat="37.48361" lon="-4.41369333">
        <ele>679.0</ele>
        <time>2018-06-09T08:08:53.158Z</time>
      </trkpt>
      <trkpt lat="37.48361" lon="-4.41369333">
        <ele>679.0</ele>
        <time>2018-06-09T08:08:54.170Z</time>
      </trkpt>
      <trkpt lat="37.48356167" lon="-4.41382">
        <ele>677.0</ele>
        <time>2018-06-09T08:08:55.192Z</time>
      </trkpt>
      <trkpt lat="37.483525" lon="-4.41389333">
        <ele>676.0</ele>
        <time>2018-06-09T08:08:56.185Z</time>
      </trkpt>
      <trkpt lat="37.483525" lon="-4.41389333">
        <ele>676.0</ele>
        <time>2018-06-09T08:08:57.183Z</time>
      </trkpt>
      <trkpt lat="37.483435" lon="-4.414055">
        <ele>674.0</ele>
        <time>2018-06-09T08:08:58.196Z</time>
      </trkpt>
      <trkpt lat="37.483435" lon="-4.414055">
        <ele>674.0</ele>
        <time>2018-06-09T08:08:59.175Z</time>
      </trkpt>
      <trkpt lat="37.48334667" lon="-4.41424833">
        <ele>672.0</ele>
        <time>2018-06-09T08:09:00.171Z</time>
      </trkpt>
      <trkpt lat="37.483305" lon="-4.41435333">
        <ele>671.0</ele>
        <time>2018-06-09T08:09:01.193Z</time>
      </trkpt>
      <trkpt lat="37.48327" lon="-4.41445833">
        <ele>669.0</ele>
        <time>2018-06-09T08:09:02.186Z</time>
      </trkpt>
      <trkpt lat="37.48327" lon="-4.41445833">
        <ele>669.0</ele>
        <time>2018-06-09T08:09:03.196Z</time>
      </trkpt>
      <trkpt lat="37.48319833" lon="-4.414645">
        <ele>667.0</ele>
        <time>2018-06-09T08:09:04.167Z</time>
      </trkpt>
      <trkpt lat="37.48319833" lon="-4.414645">
        <ele>667.0</ele>
        <time>2018-06-09T08:09:05.182Z</time>
      </trkpt>
      <trkpt lat="37.48314333" lon="-4.41479667">
        <ele>666.0</ele>
        <time>2018-06-09T08:09:06.196Z</time>
      </trkpt>
      <trkpt lat="37.48312333" lon="-4.41486833">
        <ele>665.0</ele>
        <time>2018-06-09T08:09:07.175Z</time>
      </trkpt>
      <trkpt lat="37.48310833" lon="-4.41493667">
        <ele>665.0</ele>
        <time>2018-06-09T08:09:08.158Z</time>
      </trkpt>
      <trkpt lat="37.48310833" lon="-4.41493667">
        <ele>665.0</ele>
        <time>2018-06-09T08:09:09.177Z</time>
      </trkpt>
      <trkpt lat="37.48308333" lon="-4.415065">
        <ele>663.0</ele>
        <time>2018-06-09T08:09:10.188Z</time>
      </trkpt>
      <trkpt lat="37.48306667" lon="-4.415125">
        <ele>662.0</ele>
        <time>2018-06-09T08:09:11.193Z</time>
      </trkpt>
      <trkpt lat="37.48306667" lon="-4.415125">
        <ele>662.0</ele>
        <time>2018-06-09T08:09:12.171Z</time>
      </trkpt>
      <trkpt lat="37.48303333" lon="-4.41525">
        <ele>660.0</ele>
        <time>2018-06-09T08:09:13.186Z</time>
      </trkpt>
      <trkpt lat="37.48301833" lon="-4.415315">
        <ele>659.0</ele>
        <time>2018-06-09T08:09:14.166Z</time>
      </trkpt>
      <trkpt lat="37.48301833" lon="-4.415315">
        <ele>659.0</ele>
        <time>2018-06-09T08:09:15.180Z</time>
      </trkpt>
      <trkpt lat="37.48298667" lon="-4.41544">
        <ele>657.0</ele>
        <time>2018-06-09T08:09:16.157Z</time>
      </trkpt>
      <trkpt lat="37.48297" lon="-4.41550333">
        <ele>656.0</ele>
        <time>2018-06-09T08:09:17.185Z</time>
      </trkpt>
      <trkpt lat="37.48297" lon="-4.41550333">
        <ele>656.0</ele>
        <time>2018-06-09T08:09:18.172Z</time>
      </trkpt>
      <trkpt lat="37.48293167" lon="-4.41565167">
        <ele>653.0</ele>
        <time>2018-06-09T08:09:19.185Z</time>
      </trkpt>
      <trkpt lat="37.48293167" lon="-4.41565167">
        <ele>653.0</ele>
        <time>2018-06-09T08:09:20.162Z</time>
      </trkpt>
      <trkpt lat="37.48288333" lon="-4.415815">
        <ele>650.0</ele>
        <time>2018-06-09T08:09:21.168Z</time>
      </trkpt>
      <trkpt lat="37.48288333" lon="-4.415815">
        <ele>650.0</ele>
        <time>2018-06-09T08:09:22.182Z</time>
      </trkpt>
      <trkpt lat="37.482825" lon="-4.41596667">
        <ele>648.0</ele>
        <time>2018-06-09T08:09:23.157Z</time>
      </trkpt>
      <trkpt lat="37.48279667" lon="-4.416035">
        <ele>647.0</ele>
        <time>2018-06-09T08:09:24.184Z</time>
      </trkpt>
      <trkpt lat="37.48279667" lon="-4.416035">
        <ele>647.0</ele>
        <time>2018-06-09T08:09:25.157Z</time>
      </trkpt>
      <trkpt lat="37.48274167" lon="-4.41615167">
        <ele>644.0</ele>
        <time>2018-06-09T08:09:26.170Z</time>
      </trkpt>
      <trkpt lat="37.48274167" lon="-4.41615167">
        <ele>644.0</ele>
        <time>2018-06-09T08:09:27.181Z</time>
      </trkpt>
      <trkpt lat="37.48269833" lon="-4.416275">
        <ele>642.0</ele>
        <time>2018-06-09T08:09:28.170Z</time>
      </trkpt>
      <trkpt lat="37.48267833" lon="-4.41634667">
        <ele>640.0</ele>
        <time>2018-06-09T08:09:29.164Z</time>
      </trkpt>
      <trkpt lat="37.48267833" lon="-4.41634667">
        <ele>640.0</ele>
        <time>2018-06-09T08:09:30.178Z</time>
      </trkpt>
      <trkpt lat="37.48264333" lon="-4.4165">
        <ele>637.0</ele>
        <time>2018-06-09T08:09:31.186Z</time>
      </trkpt>
      <trkpt lat="37.48262333" lon="-4.41658">
        <ele>635.0</ele>
        <time>2018-06-09T08:09:32.162Z</time>
      </trkpt>
      <trkpt lat="37.48262333" lon="-4.41658">
        <ele>635.0</ele>
        <time>2018-06-09T08:09:33.176Z</time>
      </trkpt>
      <trkpt lat="37.48258" lon="-4.41674333">
        <ele>632.0</ele>
        <time>2018-06-09T08:09:34.189Z</time>
      </trkpt>
      <trkpt lat="37.48258" lon="-4.41674333">
        <ele>632.0</ele>
        <time>2018-06-09T08:09:35.168Z</time>
      </trkpt>
      <trkpt lat="37.48252667" lon="-4.4169">
        <ele>629.0</ele>
        <time>2018-06-09T08:09:36.178Z</time>
      </trkpt>
      <trkpt lat="37.48252667" lon="-4.4169">
        <ele>629.0</ele>
        <time>2018-06-09T08:09:37.160Z</time>
      </trkpt>
      <trkpt lat="37.48246833" lon="-4.41704833">
        <ele>626.0</ele>
        <time>2018-06-09T08:09:38.167Z</time>
      </trkpt>
      <trkpt lat="37.48244" lon="-4.417125">
        <ele>625.0</ele>
        <time>2018-06-09T08:09:39.188Z</time>
      </trkpt>
      <trkpt lat="37.48244" lon="-4.417125">
        <ele>625.0</ele>
        <time>2018-06-09T08:09:40.171Z</time>
      </trkpt>
      <trkpt lat="37.48238167" lon="-4.41727">
        <ele>622.0</ele>
        <time>2018-06-09T08:09:41.183Z</time>
      </trkpt>
      <trkpt lat="37.48235667" lon="-4.41733667">
        <ele>621.0</ele>
        <time>2018-06-09T08:09:42.162Z</time>
      </trkpt>
      <trkpt lat="37.48235667" lon="-4.41733667">
        <ele>621.0</ele>
        <time>2018-06-09T08:09:43.183Z</time>
      </trkpt>
      <trkpt lat="37.482325" lon="-4.41747833">
        <ele>618.0</ele>
        <time>2018-06-09T08:09:44.161Z</time>
      </trkpt>
      <trkpt lat="37.482325" lon="-4.41747833">
        <ele>618.0</ele>
        <time>2018-06-09T08:09:45.163Z</time>
      </trkpt>
      <trkpt lat="37.48231167" lon="-4.41761667">
        <ele>615.0</ele>
        <time>2018-06-09T08:09:46.162Z</time>
      </trkpt>
      <trkpt lat="37.48231167" lon="-4.41761667">
        <ele>615.0</ele>
        <time>2018-06-09T08:09:47.184Z</time>
      </trkpt>
      <trkpt lat="37.48233" lon="-4.417755">
        <ele>612.0</ele>
        <time>2018-06-09T08:09:48.160Z</time>
      </trkpt>
      <trkpt lat="37.48235167" lon="-4.417835">
        <ele>611.0</ele>
        <time>2018-06-09T08:09:49.165Z</time>
      </trkpt>
      <trkpt lat="37.48235167" lon="-4.417835">
        <ele>611.0</ele>
        <time>2018-06-09T08:09:50.185Z</time>
      </trkpt>
      <trkpt lat="37.48240167" lon="-4.41802833">
        <ele>607.0</ele>
        <time>2018-06-09T08:09:51.192Z</time>
      </trkpt>
      <trkpt lat="37.48240167" lon="-4.41802833">
        <ele>607.0</ele>
        <time>2018-06-09T08:09:52.161Z</time>
      </trkpt>
      <trkpt lat="37.48245667" lon="-4.41819167">
        <ele>606.0</ele>
        <time>2018-06-09T08:09:53.170Z</time>
      </trkpt>
      <trkpt lat="37.482495" lon="-4.41825833">
        <ele>605.0</ele>
        <time>2018-06-09T08:09:54.158Z</time>
      </trkpt>
      <trkpt lat="37.482495" lon="-4.41825833">
        <ele>605.0</ele>
        <time>2018-06-09T08:09:55.176Z</time>
      </trkpt>
      <trkpt lat="37.48258" lon="-4.418395">
        <ele>604.0</ele>
        <time>2018-06-09T08:09:56.188Z</time>
      </trkpt>
      <trkpt lat="37.48258" lon="-4.418395">
        <ele>604.0</ele>
        <time>2018-06-09T08:09:57.194Z</time>
      </trkpt>
      <trkpt lat="37.48264833" lon="-4.41851833">
        <ele>602.0</ele>
        <time>2018-06-09T08:09:58.163Z</time>
      </trkpt>
      <trkpt lat="37.48267667" lon="-4.41858">
        <ele>601.0</ele>
        <time>2018-06-09T08:09:59.158Z</time>
      </trkpt>
      <trkpt lat="37.48267667" lon="-4.41858">
        <ele>601.0</ele>
        <time>2018-06-09T08:10:00.178Z</time>
      </trkpt>
      <trkpt lat="37.48270833" lon="-4.41870333">
        <ele>599.0</ele>
        <time>2018-06-09T08:10:01.190Z</time>
      </trkpt>
      <trkpt lat="37.48269833" lon="-4.418765">
        <ele>598.0</ele>
        <time>2018-06-09T08:10:02.199Z</time>
      </trkpt>
      <trkpt lat="37.48269833" lon="-4.418765">
        <ele>598.0</ele>
        <time>2018-06-09T08:10:03.179Z</time>
      </trkpt>
      <trkpt lat="37.48266833" lon="-4.41889167">
        <ele>596.0</ele>
        <time>2018-06-09T08:10:04.191Z</time>
      </trkpt>
      <trkpt lat="37.48266833" lon="-4.41889167">
        <ele>596.0</ele>
        <time>2018-06-09T08:10:05.174Z</time>
      </trkpt>
      <trkpt lat="37.48266667" lon="-4.41903">
        <ele>594.0</ele>
        <time>2018-06-09T08:10:06.193Z</time>
      </trkpt>
      <trkpt lat="37.48267833" lon="-4.41910667">
        <ele>592.0</ele>
        <time>2018-06-09T08:10:07.184Z</time>
      </trkpt>
      <trkpt lat="37.482685" lon="-4.41918167">
        <ele>591.0</ele>
        <time>2018-06-09T08:10:08.183Z</time>
      </trkpt>
      <trkpt lat="37.482685" lon="-4.41918167">
        <ele>591.0</ele>
        <time>2018-06-09T08:10:09.166Z</time>
      </trkpt>
      <trkpt lat="37.48268833" lon="-4.41932">
        <ele>589.0</ele>
        <time>2018-06-09T08:10:10.176Z</time>
      </trkpt>
      <trkpt lat="37.48268833" lon="-4.41932">
        <ele>589.0</ele>
        <time>2018-06-09T08:10:11.194Z</time>
      </trkpt>
      <trkpt lat="37.48268667" lon="-4.41943667">
        <ele>587.0</ele>
        <time>2018-06-09T08:10:12.160Z</time>
      </trkpt>
      <trkpt lat="37.48268667" lon="-4.41943667">
        <ele>587.0</ele>
        <time>2018-06-09T08:10:13.178Z</time>
      </trkpt>
      <trkpt lat="37.48269" lon="-4.41951333">
        <ele>586.0</ele>
        <time>2018-06-09T08:10:14.194Z</time>
      </trkpt>
      <trkpt lat="37.48269" lon="-4.41951333">
        <ele>586.0</ele>
        <time>2018-06-09T08:10:15.165Z</time>
      </trkpt>
      <trkpt lat="37.48269333" lon="-4.41957">
        <ele>586.0</ele>
        <time>2018-06-09T08:10:16.175Z</time>
      </trkpt>
      <trkpt lat="37.48269333" lon="-4.41957">
        <ele>586.0</ele>
        <time>2018-06-09T08:10:17.196Z</time>
      </trkpt>
      <trkpt lat="37.48268833" lon="-4.41964667">
        <ele>585.0</ele>
        <time>2018-06-09T08:10:18.166Z</time>
      </trkpt>
      <trkpt lat="37.48268833" lon="-4.41964667">
        <ele>585.0</ele>
        <time>2018-06-09T08:10:19.181Z</time>
      </trkpt>
      <trkpt lat="37.482645" lon="-4.419745">
        <ele>583.0</ele>
        <time>2018-06-09T08:10:20.193Z</time>
      </trkpt>
      <trkpt lat="37.482645" lon="-4.419745">
        <ele>583.0</ele>
        <time>2018-06-09T08:10:21.178Z</time>
      </trkpt>
      <trkpt lat="37.48260167" lon="-4.41988667">
        <ele>582.0</ele>
        <time>2018-06-09T08:10:22.191Z</time>
      </trkpt>
      <trkpt lat="37.48260167" lon="-4.41988667">
        <ele>582.0</ele>
        <time>2018-06-09T08:10:23.176Z</time>
      </trkpt>
      <trkpt lat="37.482585" lon="-4.420065">
        <ele>580.0</ele>
        <time>2018-06-09T08:10:24.187Z</time>
      </trkpt>
      <trkpt lat="37.482585" lon="-4.42016167">
        <ele>579.0</ele>
        <time>2018-06-09T08:10:25.176Z</time>
      </trkpt>
      <trkpt lat="37.482585" lon="-4.42016167">
        <ele>579.0</ele>
        <time>2018-06-09T08:10:26.185Z</time>
      </trkpt>
      <trkpt lat="37.48257667" lon="-4.42036667">
        <ele>578.0</ele>
        <time>2018-06-09T08:10:27.158Z</time>
      </trkpt>
      <trkpt lat="37.48257667" lon="-4.42036667">
        <ele>578.0</ele>
        <time>2018-06-09T08:10:28.175Z</time>
      </trkpt>
      <trkpt lat="37.48255167" lon="-4.42056667">
        <ele>577.0</ele>
        <time>2018-06-09T08:10:29.174Z</time>
      </trkpt>
      <trkpt lat="37.48255167" lon="-4.42056667">
        <ele>577.0</ele>
        <time>2018-06-09T08:10:30.161Z</time>
      </trkpt>
      <trkpt lat="37.48252333" lon="-4.42074833">
        <ele>576.0</ele>
        <time>2018-06-09T08:10:31.168Z</time>
      </trkpt>
      <trkpt lat="37.48250833" lon="-4.42083333">
        <ele>575.0</ele>
        <time>2018-06-09T08:10:32.187Z</time>
      </trkpt>
      <trkpt lat="37.48250833" lon="-4.42083333">
        <ele>575.0</ele>
        <time>2018-06-09T08:10:33.194Z</time>
      </trkpt>
      <trkpt lat="37.482485" lon="-4.420995">
        <ele>574.0</ele>
        <time>2018-06-09T08:10:34.164Z</time>
      </trkpt>
      <trkpt lat="37.48247667" lon="-4.42107667">
        <ele>573.0</ele>
        <time>2018-06-09T08:10:35.159Z</time>
      </trkpt>
      <trkpt lat="37.48247667" lon="-4.42107667">
        <ele>573.0</ele>
        <time>2018-06-09T08:10:36.196Z</time>
      </trkpt>
      <trkpt lat="37.48246167" lon="-4.42124167">
        <ele>572.0</ele>
        <time>2018-06-09T08:10:37.174Z</time>
      </trkpt>
      <trkpt lat="37.48245167" lon="-4.42132333">
        <ele>571.0</ele>
        <time>2018-06-09T08:10:38.188Z</time>
      </trkpt>
      <trkpt lat="37.48245167" lon="-4.42132333">
        <ele>571.0</ele>
        <time>2018-06-09T08:10:39.172Z</time>
      </trkpt>
      <trkpt lat="37.48241667" lon="-4.42148167">
        <ele>570.0</ele>
        <time>2018-06-09T08:10:40.191Z</time>
      </trkpt>
      <trkpt lat="37.48241667" lon="-4.42148167">
        <ele>570.0</ele>
        <time>2018-06-09T08:10:41.168Z</time>
      </trkpt>
      <trkpt lat="37.48236167" lon="-4.42163667">
        <ele>568.0</ele>
        <time>2018-06-09T08:10:42.179Z</time>
      </trkpt>
      <trkpt lat="37.48236167" lon="-4.42163667">
        <ele>568.0</ele>
        <time>2018-06-09T08:10:43.194Z</time>
      </trkpt>
      <trkpt lat="37.48228667" lon="-4.421785">
        <ele>565.0</ele>
        <time>2018-06-09T08:10:44.167Z</time>
      </trkpt>
      <trkpt lat="37.48228667" lon="-4.421785">
        <ele>565.0</ele>
        <time>2018-06-09T08:10:45.185Z</time>
      </trkpt>
      <trkpt lat="37.48221167" lon="-4.42191167">
        <ele>564.0</ele>
        <time>2018-06-09T08:10:46.158Z</time>
      </trkpt>
      <trkpt lat="37.48218" lon="-4.42196667">
        <ele>563.0</ele>
        <time>2018-06-09T08:10:47.167Z</time>
      </trkpt>
      <trkpt lat="37.48218" lon="-4.42196667">
        <ele>563.0</ele>
        <time>2018-06-09T08:10:48.189Z</time>
      </trkpt>
      <trkpt lat="37.48213" lon="-4.42207333">
        <ele>561.0</ele>
        <time>2018-06-09T08:10:49.162Z</time>
      </trkpt>
      <trkpt lat="37.48213" lon="-4.42207333">
        <ele>561.0</ele>
        <time>2018-06-09T08:10:50.174Z</time>
      </trkpt>
      <trkpt lat="37.48208167" lon="-4.42217">
        <ele>560.0</ele>
        <time>2018-06-09T08:10:51.187Z</time>
      </trkpt>
      <trkpt lat="37.48204333" lon="-4.42221667">
        <ele>559.0</ele>
        <time>2018-06-09T08:10:52.168Z</time>
      </trkpt>
      <trkpt lat="37.48204333" lon="-4.42221667">
        <ele>559.0</ele>
        <time>2018-06-09T08:10:53.196Z</time>
      </trkpt>
      <trkpt lat="37.48194333" lon="-4.42231333">
        <ele>557.0</ele>
        <time>2018-06-09T08:10:54.164Z</time>
      </trkpt>
      <trkpt lat="37.48194333" lon="-4.42231333">
        <ele>557.0</ele>
        <time>2018-06-09T08:10:55.181Z</time>
      </trkpt>
      <trkpt lat="37.481805" lon="-4.42239667">
        <ele>553.0</ele>
        <time>2018-06-09T08:10:56.178Z</time>
      </trkpt>
      <trkpt lat="37.481725" lon="-4.42243667">
        <ele>552.0</ele>
        <time>2018-06-09T08:10:57.191Z</time>
      </trkpt>
      <trkpt lat="37.481725" lon="-4.42243667">
        <ele>552.0</ele>
        <time>2018-06-09T08:10:58.170Z</time>
      </trkpt>
      <trkpt lat="37.48156667" lon="-4.42251167">
        <ele>549.0</ele>
        <time>2018-06-09T08:10:59.185Z</time>
      </trkpt>
      <trkpt lat="37.48149333" lon="-4.42255167">
        <ele>547.0</ele>
        <time>2018-06-09T08:11:00.176Z</time>
      </trkpt>
      <trkpt lat="37.48149333" lon="-4.42255167">
        <ele>547.0</ele>
        <time>2018-06-09T08:11:01.176Z</time>
      </trkpt>
      <trkpt lat="37.481355" lon="-4.42263333">
        <ele>545.0</ele>
        <time>2018-06-09T08:11:02.196Z</time>
      </trkpt>
      <trkpt lat="37.481355" lon="-4.42263333">
        <ele>545.0</ele>
        <time>2018-06-09T08:11:03.177Z</time>
      </trkpt>
      <trkpt lat="37.48121667" lon="-4.422715">
        <ele>542.0</ele>
        <time>2018-06-09T08:11:04.185Z</time>
      </trkpt>
      <trkpt lat="37.48114333" lon="-4.42276">
        <ele>541.0</ele>
        <time>2018-06-09T08:11:05.161Z</time>
      </trkpt>
      <trkpt lat="37.48106667" lon="-4.42280333">
        <ele>539.0</ele>
        <time>2018-06-09T08:11:06.180Z</time>
      </trkpt>
      <trkpt lat="37.48106667" lon="-4.42280333">
        <ele>539.0</ele>
        <time>2018-06-09T08:11:07.158Z</time>
      </trkpt>
      <trkpt lat="37.48090333" lon="-4.42289333">
        <ele>536.0</ele>
        <time>2018-06-09T08:11:08.167Z</time>
      </trkpt>
      <trkpt lat="37.48081167" lon="-4.42294667">
        <ele>535.0</ele>
        <time>2018-06-09T08:11:09.164Z</time>
      </trkpt>
      <trkpt lat="37.48081167" lon="-4.42294667">
        <ele>535.0</ele>
        <time>2018-06-09T08:11:10.186Z</time>
      </trkpt>
      <trkpt lat="37.48062" lon="-4.42306167">
        <ele>532.0</ele>
        <time>2018-06-09T08:11:11.160Z</time>
      </trkpt>
      <trkpt lat="37.48062" lon="-4.42306167">
        <ele>532.0</ele>
        <time>2018-06-09T08:11:12.160Z</time>
      </trkpt>
      <trkpt lat="37.48044667" lon="-4.42316833">
        <ele>530.0</ele>
        <time>2018-06-09T08:11:13.173Z</time>
      </trkpt>
      <trkpt lat="37.48036833" lon="-4.42321333">
        <ele>530.0</ele>
        <time>2018-06-09T08:11:14.163Z</time>
      </trkpt>
      <trkpt lat="37.48036833" lon="-4.42321333">
        <ele>530.0</ele>
        <time>2018-06-09T08:11:15.178Z</time>
      </trkpt>
      <trkpt lat="37.48023167" lon="-4.42329">
        <ele>529.0</ele>
        <time>2018-06-09T08:11:16.194Z</time>
      </trkpt>
      <trkpt lat="37.48016167" lon="-4.42332167">
        <ele>528.0</ele>
        <time>2018-06-09T08:11:17.167Z</time>
      </trkpt>
      <trkpt lat="37.48009" lon="-4.42335167">
        <ele>527.0</ele>
        <time>2018-06-09T08:11:18.187Z</time>
      </trkpt>
      <trkpt lat="37.48009" lon="-4.42335167">
        <ele>527.0</ele>
        <time>2018-06-09T08:11:19.161Z</time>
      </trkpt>
      <trkpt lat="37.47996167" lon="-4.42341333">
        <ele>525.0</ele>
        <time>2018-06-09T08:11:20.168Z</time>
      </trkpt>
      <trkpt lat="37.47996167" lon="-4.42341333">
        <ele>525.0</ele>
        <time>2018-06-09T08:11:21.183Z</time>
      </trkpt>
      <trkpt lat="37.47984333" lon="-4.42349333">
        <ele>523.0</ele>
        <time>2018-06-09T08:11:22.158Z</time>
      </trkpt>
      <trkpt lat="37.47984333" lon="-4.42349333">
        <ele>523.0</ele>
        <time>2018-06-09T08:11:23.177Z</time>
      </trkpt>
      <trkpt lat="37.47971833" lon="-4.423605">
        <ele>521.0</ele>
        <time>2018-06-09T08:11:24.165Z</time>
      </trkpt>
      <trkpt lat="37.47971833" lon="-4.423605">
        <ele>521.0</ele>
        <time>2018-06-09T08:11:25.194Z</time>
      </trkpt>
      <trkpt lat="37.479595" lon="-4.42373167">
        <ele>520.0</ele>
        <time>2018-06-09T08:11:26.164Z</time>
      </trkpt>
      <trkpt lat="37.479595" lon="-4.42373167">
        <ele>520.0</ele>
        <time>2018-06-09T08:11:27.183Z</time>
      </trkpt>
      <trkpt lat="37.47948" lon="-4.42382333">
        <ele>518.0</ele>
        <time>2018-06-09T08:11:28.162Z</time>
      </trkpt>
      <trkpt lat="37.47948" lon="-4.42382333">
        <ele>518.0</ele>
        <time>2018-06-09T08:11:29.195Z</time>
      </trkpt>
      <trkpt lat="37.47936667" lon="-4.42389167">
        <ele>516.0</ele>
        <time>2018-06-09T08:11:30.185Z</time>
      </trkpt>
      <trkpt lat="37.47936667" lon="-4.42389167">
        <ele>516.0</ele>
        <time>2018-06-09T08:11:31.169Z</time>
      </trkpt>
      <trkpt lat="37.47926167" lon="-4.423945">
        <ele>515.0</ele>
        <time>2018-06-09T08:11:32.187Z</time>
      </trkpt>
      <trkpt lat="37.47926167" lon="-4.423945">
        <ele>515.0</ele>
        <time>2018-06-09T08:11:33.161Z</time>
      </trkpt>
      <trkpt lat="37.47915" lon="-4.42397667">
        <ele>515.0</ele>
        <time>2018-06-09T08:11:34.173Z</time>
      </trkpt>
      <trkpt lat="37.47915" lon="-4.42397667">
        <ele>515.0</ele>
        <time>2018-06-09T08:11:35.193Z</time>
      </trkpt>
      <trkpt lat="37.47904167" lon="-4.42399833">
        <ele>514.0</ele>
        <time>2018-06-09T08:11:36.162Z</time>
      </trkpt>
      <trkpt lat="37.47904167" lon="-4.42399833">
        <ele>514.0</ele>
        <time>2018-06-09T08:11:37.178Z</time>
      </trkpt>
      <trkpt lat="37.47896667" lon="-4.42407167">
        <ele>514.0</ele>
        <time>2018-06-09T08:11:38.188Z</time>
      </trkpt>
      <trkpt lat="37.47896667" lon="-4.42407167">
        <ele>514.0</ele>
        <time>2018-06-09T08:11:39.166Z</time>
      </trkpt>
      <trkpt lat="37.47891667" lon="-4.42420167">
        <ele>513.0</ele>
        <time>2018-06-09T08:11:40.180Z</time>
      </trkpt>
      <trkpt lat="37.47891667" lon="-4.42420167">
        <ele>513.0</ele>
        <time>2018-06-09T08:11:41.172Z</time>
      </trkpt>
      <trkpt lat="37.47884667" lon="-4.42433333">
        <ele>513.0</ele>
        <time>2018-06-09T08:11:42.183Z</time>
      </trkpt>
      <trkpt lat="37.47884667" lon="-4.42433333">
        <ele>513.0</ele>
        <time>2018-06-09T08:11:43.171Z</time>
      </trkpt>
      <trkpt lat="37.47875167" lon="-4.42445">
        <ele>512.0</ele>
        <time>2018-06-09T08:11:44.192Z</time>
      </trkpt>
      <trkpt lat="37.47875167" lon="-4.42445">
        <ele>512.0</ele>
        <time>2018-06-09T08:11:45.173Z</time>
      </trkpt>
      <trkpt lat="37.47863167" lon="-4.42454167">
        <ele>511.0</ele>
        <time>2018-06-09T08:11:46.188Z</time>
      </trkpt>
      <trkpt lat="37.47863167" lon="-4.42454167">
        <ele>511.0</ele>
        <time>2018-06-09T08:11:47.195Z</time>
      </trkpt>
      <trkpt lat="37.47849167" lon="-4.42458667">
        <ele>510.0</ele>
        <time>2018-06-09T08:11:48.172Z</time>
      </trkpt>
      <trkpt lat="37.47849167" lon="-4.42458667">
        <ele>510.0</ele>
        <time>2018-06-09T08:11:49.196Z</time>
      </trkpt>
      <trkpt lat="37.47835167" lon="-4.424555">
        <ele>509.0</ele>
        <time>2018-06-09T08:11:50.165Z</time>
      </trkpt>
      <trkpt lat="37.47835167" lon="-4.424555">
        <ele>509.0</ele>
        <time>2018-06-09T08:11:51.182Z</time>
      </trkpt>
      <trkpt lat="37.47822" lon="-4.42449333">
        <ele>509.0</ele>
        <time>2018-06-09T08:11:52.195Z</time>
      </trkpt>
      <trkpt lat="37.47822" lon="-4.42449333">
        <ele>509.0</ele>
        <time>2018-06-09T08:11:53.161Z</time>
      </trkpt>
      <trkpt lat="37.478095" lon="-4.42442333">
        <ele>508.0</ele>
        <time>2018-06-09T08:11:54.171Z</time>
      </trkpt>
      <trkpt lat="37.478095" lon="-4.42442333">
        <ele>508.0</ele>
        <time>2018-06-09T08:11:55.163Z</time>
      </trkpt>
      <trkpt lat="37.47797667" lon="-4.42435667">
        <ele>508.0</ele>
        <time>2018-06-09T08:11:56.171Z</time>
      </trkpt>
      <trkpt lat="37.47797667" lon="-4.42435667">
        <ele>508.0</ele>
        <time>2018-06-09T08:11:57.166Z</time>
      </trkpt>
      <trkpt lat="37.47786167" lon="-4.42429833">
        <ele>508.0</ele>
        <time>2018-06-09T08:11:58.174Z</time>
      </trkpt>
      <trkpt lat="37.47786167" lon="-4.42429833">
        <ele>508.0</ele>
        <time>2018-06-09T08:11:59.193Z</time>
      </trkpt>
      <trkpt lat="37.47775167" lon="-4.424245">
        <ele>508.0</ele>
        <time>2018-06-09T08:12:00.161Z</time>
      </trkpt>
      <trkpt lat="37.47775167" lon="-4.424245">
        <ele>508.0</ele>
        <time>2018-06-09T08:12:01.184Z</time>
      </trkpt>
      <trkpt lat="37.47764167" lon="-4.42420333">
        <ele>508.0</ele>
        <time>2018-06-09T08:12:02.167Z</time>
      </trkpt>
      <trkpt lat="37.47764167" lon="-4.42420333">
        <ele>508.0</ele>
        <time>2018-06-09T08:12:03.184Z</time>
      </trkpt>
      <trkpt lat="37.477535" lon="-4.42417667">
        <ele>509.0</ele>
        <time>2018-06-09T08:12:04.160Z</time>
      </trkpt>
      <trkpt lat="37.477485" lon="-4.42416333">
        <ele>509.0</ele>
        <time>2018-06-09T08:12:05.167Z</time>
      </trkpt>
      <trkpt lat="37.477485" lon="-4.42416333">
        <ele>509.0</ele>
        <time>2018-06-09T08:12:06.166Z</time>
      </trkpt>
      <trkpt lat="37.47738667" lon="-4.424145">
        <ele>509.0</ele>
        <time>2018-06-09T08:12:07.180Z</time>
      </trkpt>
      <trkpt lat="37.47738667" lon="-4.424145">
        <ele>509.0</ele>
        <time>2018-06-09T08:12:08.163Z</time>
      </trkpt>
      <trkpt lat="37.477295" lon="-4.42413667">
        <ele>509.0</ele>
        <time>2018-06-09T08:12:09.180Z</time>
      </trkpt>
      <trkpt lat="37.477295" lon="-4.42413667">
        <ele>509.0</ele>
        <time>2018-06-09T08:12:10.163Z</time>
      </trkpt>
      <trkpt lat="37.47721333" lon="-4.42412833">
        <ele>510.0</ele>
        <time>2018-06-09T08:12:11.171Z</time>
      </trkpt>
      <trkpt lat="37.47721333" lon="-4.42412833">
        <ele>510.0</ele>
        <time>2018-06-09T08:12:12.158Z</time>
      </trkpt>
      <trkpt lat="37.47714667" lon="-4.42412167">
        <ele>510.0</ele>
        <time>2018-06-09T08:12:13.168Z</time>
      </trkpt>
      <trkpt lat="37.47712333" lon="-4.42410667">
        <ele>510.0</ele>
        <time>2018-06-09T08:12:14.185Z</time>
      </trkpt>
      <trkpt lat="37.47712333" lon="-4.42410667">
        <ele>510.0</ele>
        <time>2018-06-09T08:12:15.195Z</time>
      </trkpt>
      <trkpt lat="37.47710333" lon="-4.42404833">
        <ele>511.0</ele>
        <time>2018-06-09T08:12:16.163Z</time>
      </trkpt>
      <trkpt lat="37.47710167" lon="-4.42401833">
        <ele>511.0</ele>
        <time>2018-06-09T08:12:17.169Z</time>
      </trkpt>
      <trkpt lat="37.477105" lon="-4.42398833">
        <ele>511.0</ele>
        <time>2018-06-09T08:12:18.160Z</time>
      </trkpt>
      <trkpt lat="37.477105" lon="-4.42398833">
        <ele>511.0</ele>
        <time>2018-06-09T08:12:19.184Z</time>
      </trkpt>
      <trkpt lat="37.47711833" lon="-4.423935">
        <ele>511.0</ele>
        <time>2018-06-09T08:12:20.192Z</time>
      </trkpt>
      <trkpt lat="37.47711833" lon="-4.423935">
        <ele>511.0</ele>
        <time>2018-06-09T08:12:21.165Z</time>
      </trkpt>
      <trkpt lat="37.47713833" lon="-4.42388667">
        <ele>511.0</ele>
        <time>2018-06-09T08:12:22.178Z</time>
      </trkpt>
      <trkpt lat="37.47714667" lon="-4.42386333">
        <ele>512.0</ele>
        <time>2018-06-09T08:12:23.158Z</time>
      </trkpt>
      <trkpt lat="37.47715333" lon="-4.42384">
        <ele>512.0</ele>
        <time>2018-06-09T08:12:24.189Z</time>
      </trkpt>
      <trkpt lat="37.47715333" lon="-4.42384">
        <ele>512.0</ele>
        <time>2018-06-09T08:12:25.181Z</time>
      </trkpt>
      <trkpt lat="37.47717667" lon="-4.42379833">
        <ele>512.0</ele>
        <time>2018-06-09T08:12:26.197Z</time>
      </trkpt>
      <trkpt lat="37.47717667" lon="-4.42379833">
        <ele>512.0</ele>
        <time>2018-06-09T08:12:27.175Z</time>
      </trkpt>
      <trkpt lat="37.47719667" lon="-4.42376">
        <ele>512.0</ele>
        <time>2018-06-09T08:12:28.189Z</time>
      </trkpt>
      <trkpt lat="37.47719667" lon="-4.42376">
        <ele>512.0</ele>
        <time>2018-06-09T08:12:29.167Z</time>
      </trkpt>
      <trkpt lat="37.47720833" lon="-4.42371667">
        <ele>513.0</ele>
        <time>2018-06-09T08:12:30.183Z</time>
      </trkpt>
      <trkpt lat="37.477215" lon="-4.42369667">
        <ele>513.0</ele>
        <time>2018-06-09T08:12:31.186Z</time>
      </trkpt>
      <trkpt lat="37.477215" lon="-4.42369667">
        <ele>513.0</ele>
        <time>2018-06-09T08:12:32.172Z</time>
      </trkpt>
      <trkpt lat="37.47722833" lon="-4.42365833">
        <ele>513.0</ele>
        <time>2018-06-09T08:12:33.182Z</time>
      </trkpt>
      <trkpt lat="37.47723333" lon="-4.42364">
        <ele>514.0</ele>
        <time>2018-06-09T08:12:34.161Z</time>
      </trkpt>
      <trkpt lat="37.47723667" lon="-4.42362167">
        <ele>514.0</ele>
        <time>2018-06-09T08:12:35.177Z</time>
      </trkpt>
      <trkpt lat="37.47723667" lon="-4.42362167">
        <ele>514.0</ele>
        <time>2018-06-09T08:12:36.191Z</time>
      </trkpt>
      <trkpt lat="37.477245" lon="-4.42359">
        <ele>515.0</ele>
        <time>2018-06-09T08:12:37.169Z</time>
      </trkpt>
      <trkpt lat="37.47724833" lon="-4.42357333">
        <ele>515.0</ele>
        <time>2018-06-09T08:12:38.157Z</time>
      </trkpt>
      <trkpt lat="37.47724833" lon="-4.42357333">
        <ele>515.0</ele>
        <time>2018-06-09T08:12:39.170Z</time>
      </trkpt>
      <trkpt lat="37.477255" lon="-4.42354333">
        <ele>516.0</ele>
        <time>2018-06-09T08:12:40.179Z</time>
      </trkpt>
      <trkpt lat="37.47725833" lon="-4.42352833">
        <ele>516.0</ele>
        <time>2018-06-09T08:12:41.182Z</time>
      </trkpt>
      <trkpt lat="37.47725833" lon="-4.42352833">
        <ele>516.0</ele>
        <time>2018-06-09T08:12:42.196Z</time>
      </trkpt>
      <trkpt lat="37.477265" lon="-4.42349667">
        <ele>517.0</ele>
        <time>2018-06-09T08:12:43.171Z</time>
      </trkpt>
      <trkpt lat="37.47726833" lon="-4.42348">
        <ele>518.0</ele>
        <time>2018-06-09T08:12:44.188Z</time>
      </trkpt>
      <trkpt lat="37.47726833" lon="-4.42348">
        <ele>518.0</ele>
        <time>2018-06-09T08:12:45.161Z</time>
      </trkpt>
      <trkpt lat="37.47726833" lon="-4.42344667">
        <ele>518.0</ele>
        <time>2018-06-09T08:12:46.173Z</time>
      </trkpt>
      <trkpt lat="37.47727" lon="-4.42343167">
        <ele>519.0</ele>
        <time>2018-06-09T08:12:47.196Z</time>
      </trkpt>
      <trkpt lat="37.47727" lon="-4.42343167">
        <ele>519.0</ele>
        <time>2018-06-09T08:12:48.167Z</time>
      </trkpt>
      <trkpt lat="37.47727" lon="-4.42339667">
        <ele>519.0</ele>
        <time>2018-06-09T08:12:49.157Z</time>
      </trkpt>
      <trkpt lat="37.47727167" lon="-4.42338167">
        <ele>520.0</ele>
        <time>2018-06-09T08:12:50.185Z</time>
      </trkpt>
      <trkpt lat="37.47727167" lon="-4.42338167">
        <ele>520.0</ele>
        <time>2018-06-09T08:12:51.164Z</time>
      </trkpt>
      <trkpt lat="37.47726833" lon="-4.42334833">
        <ele>521.0</ele>
        <time>2018-06-09T08:12:52.178Z</time>
      </trkpt>
      <trkpt lat="37.47726333" lon="-4.42333333">
        <ele>521.0</ele>
        <time>2018-06-09T08:12:53.168Z</time>
      </trkpt>
      <trkpt lat="37.47726333" lon="-4.42333333">
        <ele>521.0</ele>
        <time>2018-06-09T08:12:54.185Z</time>
      </trkpt>
      <trkpt lat="37.47725833" lon="-4.42331">
        <ele>522.0</ele>
        <time>2018-06-09T08:12:55.158Z</time>
      </trkpt>
      <trkpt lat="37.47725833" lon="-4.42330333">
        <ele>522.0</ele>
        <time>2018-06-09T08:12:56.195Z</time>
      </trkpt>
      <trkpt lat="37.47725667" lon="-4.42329167">
        <ele>523.0</ele>
        <time>2018-06-09T08:12:57.176Z</time>
      </trkpt>
      <trkpt lat="37.47725667" lon="-4.42329167">
        <ele>523.0</ele>
        <time>2018-06-09T08:12:58.177Z</time>
      </trkpt>
      <trkpt lat="37.47725167" lon="-4.42326667">
        <ele>523.0</ele>
        <time>2018-06-09T08:12:59.192Z</time>
      </trkpt>
      <trkpt lat="37.47725167" lon="-4.42326667">
        <ele>523.0</ele>
        <time>2018-06-09T08:13:00.176Z</time>
      </trkpt>
      <trkpt lat="37.47724333" lon="-4.42324167">
        <ele>523.0</ele>
        <time>2018-06-09T08:13:01.169Z</time>
      </trkpt>
      <trkpt lat="37.47724333" lon="-4.42324167">
        <ele>523.0</ele>
        <time>2018-06-09T08:13:02.159Z</time>
      </trkpt>
      <trkpt lat="37.47723" lon="-4.42321833">
        <ele>524.0</ele>
        <time>2018-06-09T08:13:03.173Z</time>
      </trkpt>
      <trkpt lat="37.47723" lon="-4.42321833">
        <ele>524.0</ele>
        <time>2018-06-09T08:13:04.183Z</time>
      </trkpt>
      <trkpt lat="37.47721333" lon="-4.4232">
        <ele>524.0</ele>
        <time>2018-06-09T08:13:05.161Z</time>
      </trkpt>
      <trkpt lat="37.47721333" lon="-4.4232">
        <ele>524.0</ele>
        <time>2018-06-09T08:13:06.192Z</time>
      </trkpt>
      <trkpt lat="37.47719833" lon="-4.42318167">
        <ele>525.0</ele>
        <time>2018-06-09T08:13:07.163Z</time>
      </trkpt>
      <trkpt lat="37.47719833" lon="-4.42318167">
        <ele>525.0</ele>
        <time>2018-06-09T08:13:08.181Z</time>
      </trkpt>
      <trkpt lat="37.47718333" lon="-4.42315667">
        <ele>525.0</ele>
        <time>2018-06-09T08:13:09.160Z</time>
      </trkpt>
      <trkpt lat="37.47718333" lon="-4.42315667">
        <ele>525.0</ele>
        <time>2018-06-09T08:13:10.195Z</time>
      </trkpt>
      <trkpt lat="37.477165" lon="-4.42313833">
        <ele>526.0</ele>
        <time>2018-06-09T08:13:11.164Z</time>
      </trkpt>
      <trkpt lat="37.477165" lon="-4.42313833">
        <ele>526.0</ele>
        <time>2018-06-09T08:13:12.172Z</time>
      </trkpt>
      <trkpt lat="37.47715" lon="-4.42311833">
        <ele>526.0</ele>
        <time>2018-06-09T08:13:13.185Z</time>
      </trkpt>
      <trkpt lat="37.47714333" lon="-4.42310667">
        <ele>526.0</ele>
        <time>2018-06-09T08:13:14.165Z</time>
      </trkpt>
      <trkpt lat="37.47714333" lon="-4.42310667">
        <ele>526.0</ele>
        <time>2018-06-09T08:13:15.177Z</time>
      </trkpt>
      <trkpt lat="37.47712833" lon="-4.423095">
        <ele>527.0</ele>
        <time>2018-06-09T08:13:16.196Z</time>
      </trkpt>
      <trkpt lat="37.47711833" lon="-4.42309">
        <ele>527.0</ele>
        <time>2018-06-09T08:13:17.170Z</time>
      </trkpt>
      <trkpt lat="37.47710833" lon="-4.423085">
        <ele>527.0</ele>
        <time>2018-06-09T08:13:18.190Z</time>
      </trkpt>
      <trkpt lat="37.47710833" lon="-4.423085">
        <ele>527.0</ele>
        <time>2018-06-09T08:13:19.168Z</time>
      </trkpt>
      <trkpt lat="37.47709333" lon="-4.42306333">
        <ele>527.0</ele>
        <time>2018-06-09T08:13:20.184Z</time>
      </trkpt>
      <trkpt lat="37.47709333" lon="-4.42306333">
        <ele>527.0</ele>
        <time>2018-06-09T08:13:21.160Z</time>
      </trkpt>
      <trkpt lat="37.477075" lon="-4.42304167">
        <ele>528.0</ele>
        <time>2018-06-09T08:13:22.175Z</time>
      </trkpt>
      <trkpt lat="37.477065" lon="-4.423035">
        <ele>528.0</ele>
        <time>2018-06-09T08:13:23.167Z</time>
      </trkpt>
      <trkpt lat="37.477065" lon="-4.423035">
        <ele>528.0</ele>
        <time>2018-06-09T08:13:24.181Z</time>
      </trkpt>
      <trkpt lat="37.47704667" lon="-4.42301833">
        <ele>528.0</ele>
        <time>2018-06-09T08:13:25.186Z</time>
      </trkpt>
      <trkpt lat="37.47703667" lon="-4.42301167">
        <ele>528.0</ele>
        <time>2018-06-09T08:13:26.180Z</time>
      </trkpt>
      <trkpt lat="37.47703667" lon="-4.42301167">
        <ele>528.0</ele>
        <time>2018-06-09T08:13:27.159Z</time>
      </trkpt>
      <trkpt lat="37.47701667" lon="-4.42299667">
        <ele>529.0</ele>
        <time>2018-06-09T08:13:28.168Z</time>
      </trkpt>
      <trkpt lat="37.47700667" lon="-4.42299167">
        <ele>529.0</ele>
        <time>2018-06-09T08:13:29.185Z</time>
      </trkpt>
      <trkpt lat="37.476995" lon="-4.42298333">
        <ele>529.0</ele>
        <time>2018-06-09T08:13:30.186Z</time>
      </trkpt>
      <trkpt lat="37.476985" lon="-4.42297333">
        <ele>529.0</ele>
        <time>2018-06-09T08:13:31.164Z</time>
      </trkpt>
      <trkpt lat="37.476985" lon="-4.42297333">
        <ele>529.0</ele>
        <time>2018-06-09T08:13:32.181Z</time>
      </trkpt>
      <trkpt lat="37.47696667" lon="-4.42294667">
        <ele>529.0</ele>
        <time>2018-06-09T08:13:33.197Z</time>
      </trkpt>
      <trkpt lat="37.47695833" lon="-4.42293333">
        <ele>529.0</ele>
        <time>2018-06-09T08:13:34.174Z</time>
      </trkpt>
      <trkpt lat="37.47694833" lon="-4.42292333">
        <ele>529.0</ele>
        <time>2018-06-09T08:13:35.186Z</time>
      </trkpt>
      <trkpt lat="37.47694833" lon="-4.42292333">
        <ele>529.0</ele>
        <time>2018-06-09T08:13:36.164Z</time>
      </trkpt>
      <trkpt lat="37.47693" lon="-4.42290667">
        <ele>530.0</ele>
        <time>2018-06-09T08:13:37.170Z</time>
      </trkpt>
      <trkpt lat="37.47692167" lon="-4.422895">
        <ele>530.0</ele>
        <time>2018-06-09T08:13:38.170Z</time>
      </trkpt>
      <trkpt lat="37.47692167" lon="-4.422895">
        <ele>530.0</ele>
        <time>2018-06-09T08:13:39.157Z</time>
      </trkpt>
      <trkpt lat="37.47690333" lon="-4.422875">
        <ele>530.0</ele>
        <time>2018-06-09T08:13:40.164Z</time>
      </trkpt>
      <trkpt lat="37.47690333" lon="-4.422875">
        <ele>530.0</ele>
        <time>2018-06-09T08:13:41.183Z</time>
      </trkpt>
      <trkpt lat="37.47688333" lon="-4.42285833">
        <ele>530.0</ele>
        <time>2018-06-09T08:13:42.190Z</time>
      </trkpt>
      <trkpt lat="37.47688333" lon="-4.42285833">
        <ele>530.0</ele>
        <time>2018-06-09T08:13:43.178Z</time>
      </trkpt>
      <trkpt lat="37.476865" lon="-4.42284167">
        <ele>530.0</ele>
        <time>2018-06-09T08:13:44.185Z</time>
      </trkpt>
      <trkpt lat="37.476865" lon="-4.42284167">
        <ele>530.0</ele>
        <time>2018-06-09T08:13:45.163Z</time>
      </trkpt>
      <trkpt lat="37.47685" lon="-4.42281667">
        <ele>531.0</ele>
        <time>2018-06-09T08:13:46.181Z</time>
      </trkpt>
      <trkpt lat="37.47685" lon="-4.42281667">
        <ele>531.0</ele>
        <time>2018-06-09T08:13:47.193Z</time>
      </trkpt>
      <trkpt lat="37.476835" lon="-4.42279">
        <ele>531.0</ele>
        <time>2018-06-09T08:13:48.162Z</time>
      </trkpt>
      <trkpt lat="37.47682667" lon="-4.42277833">
        <ele>531.0</ele>
        <time>2018-06-09T08:13:49.181Z</time>
      </trkpt>
      <trkpt lat="37.47681833" lon="-4.42276667">
        <ele>531.0</ele>
        <time>2018-06-09T08:13:50.160Z</time>
      </trkpt>
      <trkpt lat="37.47681833" lon="-4.42276667">
        <ele>531.0</ele>
        <time>2018-06-09T08:13:51.179Z</time>
      </trkpt>
      <trkpt lat="37.47680333" lon="-4.42274">
        <ele>531.0</ele>
        <time>2018-06-09T08:13:52.171Z</time>
      </trkpt>
      <trkpt lat="37.476795" lon="-4.42272833">
        <ele>531.0</ele>
        <time>2018-06-09T08:13:53.175Z</time>
      </trkpt>
      <trkpt lat="37.47678667" lon="-4.422715">
        <ele>531.0</ele>
        <time>2018-06-09T08:13:54.193Z</time>
      </trkpt>
      <trkpt lat="37.47678667" lon="-4.422715">
        <ele>531.0</ele>
        <time>2018-06-09T08:13:55.171Z</time>
      </trkpt>
      <trkpt lat="37.47677" lon="-4.42268833">
        <ele>532.0</ele>
        <time>2018-06-09T08:13:56.181Z</time>
      </trkpt>
      <trkpt lat="37.47677" lon="-4.42268833">
        <ele>532.0</ele>
        <time>2018-06-09T08:13:57.176Z</time>
      </trkpt>
      <trkpt lat="37.476755" lon="-4.42266333">
        <ele>532.0</ele>
        <time>2018-06-09T08:13:58.183Z</time>
      </trkpt>
      <trkpt lat="37.47674667" lon="-4.42265167">
        <ele>532.0</ele>
        <time>2018-06-09T08:13:59.174Z</time>
      </trkpt>
      <trkpt lat="37.47674667" lon="-4.42265167">
        <ele>532.0</ele>
        <time>2018-06-09T08:14:00.195Z</time>
      </trkpt>
      <trkpt lat="37.47673167" lon="-4.422625">
        <ele>532.0</ele>
        <time>2018-06-09T08:14:01.161Z</time>
      </trkpt>
      <trkpt lat="37.47672333" lon="-4.42261333">
        <ele>533.0</ele>
        <time>2018-06-09T08:14:02.181Z</time>
      </trkpt>
      <trkpt lat="37.47672333" lon="-4.42261333">
        <ele>533.0</ele>
        <time>2018-06-09T08:14:03.161Z</time>
      </trkpt>
      <trkpt lat="37.47670833" lon="-4.42258667">
        <ele>533.0</ele>
        <time>2018-06-09T08:14:04.194Z</time>
      </trkpt>
      <trkpt lat="37.47670833" lon="-4.42258667">
        <ele>533.0</ele>
        <time>2018-06-09T08:14:05.176Z</time>
      </trkpt>
      <trkpt lat="37.47669333" lon="-4.42256">
        <ele>533.0</ele>
        <time>2018-06-09T08:14:06.183Z</time>
      </trkpt>
      <trkpt lat="37.47668667" lon="-4.42254833">
        <ele>534.0</ele>
        <time>2018-06-09T08:14:07.164Z</time>
      </trkpt>
      <trkpt lat="37.47668" lon="-4.422535">
        <ele>534.0</ele>
        <time>2018-06-09T08:14:08.191Z</time>
      </trkpt>
      <trkpt lat="37.47668" lon="-4.422535">
        <ele>534.0</ele>
        <time>2018-06-09T08:14:09.160Z</time>
      </trkpt>
      <trkpt lat="37.47666333" lon="-4.42251333">
        <ele>534.0</ele>
        <time>2018-06-09T08:14:10.165Z</time>
      </trkpt>
      <trkpt lat="37.47665667" lon="-4.42250167">
        <ele>534.0</ele>
        <time>2018-06-09T08:14:11.183Z</time>
      </trkpt>
      <trkpt lat="37.47665667" lon="-4.42250167">
        <ele>534.0</ele>
        <time>2018-06-09T08:14:12.186Z</time>
      </trkpt>
      <trkpt lat="37.47664167" lon="-4.42247667">
        <ele>535.0</ele>
        <time>2018-06-09T08:14:13.195Z</time>
      </trkpt>
      <trkpt lat="37.476635" lon="-4.422465">
        <ele>535.0</ele>
        <time>2018-06-09T08:14:14.178Z</time>
      </trkpt>
      <trkpt lat="37.476635" lon="-4.422465">
        <ele>535.0</ele>
        <time>2018-06-09T08:14:15.166Z</time>
      </trkpt>
      <trkpt lat="37.47661833" lon="-4.42244333">
        <ele>536.0</ele>
        <time>2018-06-09T08:14:16.186Z</time>
      </trkpt>
      <trkpt lat="37.47661167" lon="-4.42243167">
        <ele>536.0</ele>
        <time>2018-06-09T08:14:17.164Z</time>
      </trkpt>
      <trkpt lat="37.476605" lon="-4.42242">
        <ele>536.0</ele>
        <time>2018-06-09T08:14:18.179Z</time>
      </trkpt>
      <trkpt lat="37.476605" lon="-4.42242">
        <ele>536.0</ele>
        <time>2018-06-09T08:14:19.157Z</time>
      </trkpt>
      <trkpt lat="37.47659" lon="-4.42239833">
        <ele>536.0</ele>
        <time>2018-06-09T08:14:20.181Z</time>
      </trkpt>
      <trkpt lat="37.47659" lon="-4.42239833">
        <ele>536.0</ele>
        <time>2018-06-09T08:14:21.176Z</time>
      </trkpt>
      <trkpt lat="37.476575" lon="-4.422375">
        <ele>537.0</ele>
        <time>2018-06-09T08:14:22.182Z</time>
      </trkpt>
      <trkpt lat="37.476575" lon="-4.422375">
        <ele>537.0</ele>
        <time>2018-06-09T08:14:23.159Z</time>
      </trkpt>
      <trkpt lat="37.47656" lon="-4.42235167">
        <ele>538.0</ele>
        <time>2018-06-09T08:14:24.194Z</time>
      </trkpt>
      <trkpt lat="37.47656" lon="-4.42235167">
        <ele>538.0</ele>
        <time>2018-06-09T08:14:25.170Z</time>
      </trkpt>
      <trkpt lat="37.47654667" lon="-4.42232833">
        <ele>538.0</ele>
        <time>2018-06-09T08:14:26.176Z</time>
      </trkpt>
      <trkpt lat="37.47653833" lon="-4.42232">
        <ele>538.0</ele>
        <time>2018-06-09T08:14:27.157Z</time>
      </trkpt>
      <trkpt lat="37.47653" lon="-4.42231">
        <ele>538.0</ele>
        <time>2018-06-09T08:14:28.188Z</time>
      </trkpt>
      <trkpt lat="37.47653" lon="-4.42231">
        <ele>538.0</ele>
        <time>2018-06-09T08:14:29.190Z</time>
      </trkpt>
      <trkpt lat="37.47651667" lon="-4.422285">
        <ele>539.0</ele>
        <time>2018-06-09T08:14:30.161Z</time>
      </trkpt>
      <trkpt lat="37.47651167" lon="-4.42227167">
        <ele>539.0</ele>
        <time>2018-06-09T08:14:31.180Z</time>
      </trkpt>
      <trkpt lat="37.476505" lon="-4.42226167">
        <ele>539.0</ele>
        <time>2018-06-09T08:14:32.161Z</time>
      </trkpt>
      <trkpt lat="37.476505" lon="-4.42226167">
        <ele>539.0</ele>
        <time>2018-06-09T08:14:33.185Z</time>
      </trkpt>
      <trkpt lat="37.47649" lon="-4.42224">
        <ele>540.0</ele>
        <time>2018-06-09T08:14:34.181Z</time>
      </trkpt>
      <trkpt lat="37.47649" lon="-4.42224">
        <ele>540.0</ele>
        <time>2018-06-09T08:14:35.185Z</time>
      </trkpt>
      <trkpt lat="37.47647333" lon="-4.42221833">
        <ele>540.0</ele>
        <time>2018-06-09T08:14:36.195Z</time>
      </trkpt>
      <trkpt lat="37.47646667" lon="-4.42220667">
        <ele>540.0</ele>
        <time>2018-06-09T08:14:37.165Z</time>
      </trkpt>
      <trkpt lat="37.47646667" lon="-4.42220667">
        <ele>540.0</ele>
        <time>2018-06-09T08:14:38.174Z</time>
      </trkpt>
      <trkpt lat="37.47645" lon="-4.422185">
        <ele>541.0</ele>
        <time>2018-06-09T08:14:39.185Z</time>
      </trkpt>
      <trkpt lat="37.47645" lon="-4.422185">
        <ele>541.0</ele>
        <time>2018-06-09T08:14:40.165Z</time>
      </trkpt>
      <trkpt lat="37.47643333" lon="-4.422165">
        <ele>541.0</ele>
        <time>2018-06-09T08:14:41.191Z</time>
      </trkpt>
      <trkpt lat="37.47643333" lon="-4.422165">
        <ele>541.0</ele>
        <time>2018-06-09T08:14:42.186Z</time>
      </trkpt>
      <trkpt lat="37.47642333" lon="-4.42214167">
        <ele>542.0</ele>
        <time>2018-06-09T08:14:43.191Z</time>
      </trkpt>
      <trkpt lat="37.47641667" lon="-4.42213">
        <ele>542.0</ele>
        <time>2018-06-09T08:14:44.194Z</time>
      </trkpt>
      <trkpt lat="37.47641667" lon="-4.42213">
        <ele>542.0</ele>
        <time>2018-06-09T08:14:45.168Z</time>
      </trkpt>
      <trkpt lat="37.47640167" lon="-4.42211167">
        <ele>542.0</ele>
        <time>2018-06-09T08:14:46.174Z</time>
      </trkpt>
      <trkpt lat="37.47639333" lon="-4.42210333">
        <ele>542.0</ele>
        <time>2018-06-09T08:14:47.178Z</time>
      </trkpt>
      <trkpt lat="37.47639333" lon="-4.42210333">
        <ele>542.0</ele>
        <time>2018-06-09T08:14:48.157Z</time>
      </trkpt>
      <trkpt lat="37.47637667" lon="-4.42208167">
        <ele>543.0</ele>
        <time>2018-06-09T08:14:49.163Z</time>
      </trkpt>
      <trkpt lat="37.47637" lon="-4.42207167">
        <ele>543.0</ele>
        <time>2018-06-09T08:14:50.173Z</time>
      </trkpt>
      <trkpt lat="37.47637" lon="-4.42207167">
        <ele>543.0</ele>
        <time>2018-06-09T08:14:51.196Z</time>
      </trkpt>
      <trkpt lat="37.476355" lon="-4.42205">
        <ele>544.0</ele>
        <time>2018-06-09T08:14:52.163Z</time>
      </trkpt>
      <trkpt lat="37.47634667" lon="-4.42204333">
        <ele>544.0</ele>
        <time>2018-06-09T08:14:53.172Z</time>
      </trkpt>
      <trkpt lat="37.47634667" lon="-4.42204333">
        <ele>544.0</ele>
        <time>2018-06-09T08:14:54.168Z</time>
      </trkpt>
      <trkpt lat="37.47632833" lon="-4.422025">
        <ele>544.0</ele>
        <time>2018-06-09T08:14:55.174Z</time>
      </trkpt>
      <trkpt lat="37.47632833" lon="-4.422025">
        <ele>544.0</ele>
        <time>2018-06-09T08:14:56.197Z</time>
      </trkpt>
      <trkpt lat="37.47631333" lon="-4.42200333">
        <ele>545.0</ele>
        <time>2018-06-09T08:14:57.192Z</time>
      </trkpt>
      <trkpt lat="37.476305" lon="-4.42199333">
        <ele>545.0</ele>
        <time>2018-06-09T08:14:58.195Z</time>
      </trkpt>
      <trkpt lat="37.476305" lon="-4.42199333">
        <ele>545.0</ele>
        <time>2018-06-09T08:14:59.172Z</time>
      </trkpt>
      <trkpt lat="37.47628667" lon="-4.42197333">
        <ele>546.0</ele>
        <time>2018-06-09T08:15:00.181Z</time>
      </trkpt>
      <trkpt lat="37.47628667" lon="-4.42197333">
        <ele>546.0</ele>
        <time>2018-06-09T08:15:01.157Z</time>
      </trkpt>
      <trkpt lat="37.47626667" lon="-4.42195667">
        <ele>546.0</ele>
        <time>2018-06-09T08:15:02.164Z</time>
      </trkpt>
      <trkpt lat="37.47626667" lon="-4.42195667">
        <ele>546.0</ele>
        <time>2018-06-09T08:15:03.193Z</time>
      </trkpt>
      <trkpt lat="37.47625" lon="-4.42193333">
        <ele>546.0</ele>
        <time>2018-06-09T08:15:04.182Z</time>
      </trkpt>
      <trkpt lat="37.47625" lon="-4.42193333">
        <ele>546.0</ele>
        <time>2018-06-09T08:15:05.161Z</time>
      </trkpt>
      <trkpt lat="37.47623667" lon="-4.42190833">
        <ele>547.0</ele>
        <time>2018-06-09T08:15:06.168Z</time>
      </trkpt>
      <trkpt lat="37.47623" lon="-4.42189667">
        <ele>547.0</ele>
        <time>2018-06-09T08:15:07.184Z</time>
      </trkpt>
      <trkpt lat="37.47622" lon="-4.42188833">
        <ele>547.0</ele>
        <time>2018-06-09T08:15:08.181Z</time>
      </trkpt>
      <trkpt lat="37.47622" lon="-4.42188833">
        <ele>547.0</ele>
        <time>2018-06-09T08:15:09.185Z</time>
      </trkpt>
      <trkpt lat="37.4762" lon="-4.42187333">
        <ele>548.0</ele>
        <time>2018-06-09T08:15:10.194Z</time>
      </trkpt>
      <trkpt lat="37.47619167" lon="-4.42186333">
        <ele>548.0</ele>
        <time>2018-06-09T08:15:11.178Z</time>
      </trkpt>
      <trkpt lat="37.47619167" lon="-4.42186333">
        <ele>548.0</ele>
        <time>2018-06-09T08:15:12.163Z</time>
      </trkpt>
      <trkpt lat="37.476175" lon="-4.42184667">
        <ele>548.0</ele>
        <time>2018-06-09T08:15:13.182Z</time>
      </trkpt>
      <trkpt lat="37.476165" lon="-4.42183667">
        <ele>548.0</ele>
        <time>2018-06-09T08:15:14.194Z</time>
      </trkpt>
      <trkpt lat="37.476165" lon="-4.42183667">
        <ele>548.0</ele>
        <time>2018-06-09T08:15:15.172Z</time>
      </trkpt>
      <trkpt lat="37.47614667" lon="-4.42182">
        <ele>549.0</ele>
        <time>2018-06-09T08:15:16.178Z</time>
      </trkpt>
      <trkpt lat="37.47613667" lon="-4.42181333">
        <ele>549.0</ele>
        <time>2018-06-09T08:15:17.181Z</time>
      </trkpt>
      <trkpt lat="37.47613667" lon="-4.42181333">
        <ele>549.0</ele>
        <time>2018-06-09T08:15:18.196Z</time>
      </trkpt>
      <trkpt lat="37.47611167" lon="-4.42180667">
        <ele>550.0</ele>
        <time>2018-06-09T08:15:19.163Z</time>
      </trkpt>
      <trkpt lat="37.47610667" lon="-4.42180167">
        <ele>550.0</ele>
        <time>2018-06-09T08:15:20.180Z</time>
      </trkpt>
      <trkpt lat="37.47610667" lon="-4.42180167">
        <ele>550.0</ele>
        <time>2018-06-09T08:15:21.172Z</time>
      </trkpt>
      <trkpt lat="37.47609333" lon="-4.42179">
        <ele>550.0</ele>
        <time>2018-06-09T08:15:22.178Z</time>
      </trkpt>
      <trkpt lat="37.47609333" lon="-4.42179">
        <ele>550.0</ele>
        <time>2018-06-09T08:15:23.196Z</time>
      </trkpt>
      <trkpt lat="37.47607333" lon="-4.42177333">
        <ele>551.0</ele>
        <time>2018-06-09T08:15:24.190Z</time>
      </trkpt>
      <trkpt lat="37.47607333" lon="-4.42177333">
        <ele>551.0</ele>
        <time>2018-06-09T08:15:25.173Z</time>
      </trkpt>
      <trkpt lat="37.47605833" lon="-4.421755">
        <ele>551.0</ele>
        <time>2018-06-09T08:15:26.180Z</time>
      </trkpt>
      <trkpt lat="37.47604833" lon="-4.42175">
        <ele>551.0</ele>
        <time>2018-06-09T08:15:27.160Z</time>
      </trkpt>
      <trkpt lat="37.47604833" lon="-4.42175">
        <ele>551.0</ele>
        <time>2018-06-09T08:15:28.190Z</time>
      </trkpt>
      <trkpt lat="37.47602833" lon="-4.42173">
        <ele>552.0</ele>
        <time>2018-06-09T08:15:29.162Z</time>
      </trkpt>
      <trkpt lat="37.47602833" lon="-4.42173">
        <ele>552.0</ele>
        <time>2018-06-09T08:15:30.179Z</time>
      </trkpt>
      <trkpt lat="37.47601" lon="-4.42171333">
        <ele>552.0</ele>
        <time>2018-06-09T08:15:31.177Z</time>
      </trkpt>
      <trkpt lat="37.47601" lon="-4.42171333">
        <ele>552.0</ele>
        <time>2018-06-09T08:15:32.161Z</time>
      </trkpt>
      <trkpt lat="37.47599333" lon="-4.42169333">
        <ele>553.0</ele>
        <time>2018-06-09T08:15:33.170Z</time>
      </trkpt>
      <trkpt lat="37.475985" lon="-4.421685">
        <ele>553.0</ele>
        <time>2018-06-09T08:15:34.190Z</time>
      </trkpt>
      <trkpt lat="37.475985" lon="-4.421685">
        <ele>553.0</ele>
        <time>2018-06-09T08:15:35.158Z</time>
      </trkpt>
      <trkpt lat="37.47596667" lon="-4.42167">
        <ele>553.0</ele>
        <time>2018-06-09T08:15:36.164Z</time>
      </trkpt>
      <trkpt lat="37.47596667" lon="-4.42167">
        <ele>553.0</ele>
        <time>2018-06-09T08:15:37.182Z</time>
      </trkpt>
      <trkpt lat="37.475945" lon="-4.421655">
        <ele>553.0</ele>
        <time>2018-06-09T08:15:38.158Z</time>
      </trkpt>
      <trkpt lat="37.475945" lon="-4.421655">
        <ele>553.0</ele>
        <time>2018-06-09T08:15:39.194Z</time>
      </trkpt>
      <trkpt lat="37.475925" lon="-4.42164167">
        <ele>554.0</ele>
        <time>2018-06-09T08:15:40.163Z</time>
      </trkpt>
      <trkpt lat="37.475915" lon="-4.421635">
        <ele>554.0</ele>
        <time>2018-06-09T08:15:41.181Z</time>
      </trkpt>
      <trkpt lat="37.475915" lon="-4.421635">
        <ele>554.0</ele>
        <time>2018-06-09T08:15:42.158Z</time>
      </trkpt>
      <trkpt lat="37.47589333" lon="-4.42161833">
        <ele>554.0</ele>
        <time>2018-06-09T08:15:43.174Z</time>
      </trkpt>
      <trkpt lat="37.47588333" lon="-4.42161333">
        <ele>554.0</ele>
        <time>2018-06-09T08:15:44.158Z</time>
      </trkpt>
      <trkpt lat="37.47588333" lon="-4.42161333">
        <ele>554.0</ele>
        <time>2018-06-09T08:15:45.174Z</time>
      </trkpt>
      <trkpt lat="37.47586333" lon="-4.4216">
        <ele>555.0</ele>
        <time>2018-06-09T08:15:46.180Z</time>
      </trkpt>
      <trkpt lat="37.47585333" lon="-4.42159167">
        <ele>555.0</ele>
        <time>2018-06-09T08:15:47.167Z</time>
      </trkpt>
      <trkpt lat="37.47585333" lon="-4.42159167">
        <ele>555.0</ele>
        <time>2018-06-09T08:15:48.185Z</time>
      </trkpt>
      <trkpt lat="37.47583667" lon="-4.42156833">
        <ele>556.0</ele>
        <time>2018-06-09T08:15:49.157Z</time>
      </trkpt>
      <trkpt lat="37.47583" lon="-4.421555">
        <ele>556.0</ele>
        <time>2018-06-09T08:15:50.159Z</time>
      </trkpt>
      <trkpt lat="37.47583" lon="-4.421555">
        <ele>556.0</ele>
        <time>2018-06-09T08:15:51.178Z</time>
      </trkpt>
      <trkpt lat="37.475815" lon="-4.42153333">
        <ele>556.0</ele>
        <time>2018-06-09T08:15:52.185Z</time>
      </trkpt>
      <trkpt lat="37.475805" lon="-4.42152333">
        <ele>556.0</ele>
        <time>2018-06-09T08:15:53.171Z</time>
      </trkpt>
      <trkpt lat="37.47579667" lon="-4.42151167">
        <ele>556.0</ele>
        <time>2018-06-09T08:15:54.179Z</time>
      </trkpt>
      <trkpt lat="37.47579667" lon="-4.42151167">
        <ele>556.0</ele>
        <time>2018-06-09T08:15:55.196Z</time>
      </trkpt>
      <trkpt lat="37.47578" lon="-4.42148833">
        <ele>557.0</ele>
        <time>2018-06-09T08:15:56.163Z</time>
      </trkpt>
      <trkpt lat="37.47578" lon="-4.42148833">
        <ele>557.0</ele>
        <time>2018-06-09T08:15:57.182Z</time>
      </trkpt>
      <trkpt lat="37.47576333" lon="-4.42146667">
        <ele>557.0</ele>
        <time>2018-06-09T08:15:58.195Z</time>
      </trkpt>
      <trkpt lat="37.47576333" lon="-4.42146667">
        <ele>557.0</ele>
        <time>2018-06-09T08:15:59.164Z</time>
      </trkpt>
      <trkpt lat="37.47574833" lon="-4.42144333">
        <ele>557.0</ele>
        <time>2018-06-09T08:16:00.181Z</time>
      </trkpt>
      <trkpt lat="37.47574167" lon="-4.42143">
        <ele>558.0</ele>
        <time>2018-06-09T08:16:01.186Z</time>
      </trkpt>
      <trkpt lat="37.47574167" lon="-4.42143">
        <ele>558.0</ele>
        <time>2018-06-09T08:16:02.176Z</time>
      </trkpt>
      <trkpt lat="37.47573" lon="-4.42140667">
        <ele>558.0</ele>
        <time>2018-06-09T08:16:03.182Z</time>
      </trkpt>
      <trkpt lat="37.47573" lon="-4.42140667">
        <ele>558.0</ele>
        <time>2018-06-09T08:16:04.194Z</time>
      </trkpt>
      <trkpt lat="37.47571667" lon="-4.42138333">
        <ele>558.0</ele>
        <time>2018-06-09T08:16:05.160Z</time>
      </trkpt>
      <trkpt lat="37.47571167" lon="-4.42137333">
        <ele>558.0</ele>
        <time>2018-06-09T08:16:06.180Z</time>
      </trkpt>
      <trkpt lat="37.47571167" lon="-4.42137333">
        <ele>558.0</ele>
        <time>2018-06-09T08:16:07.176Z</time>
      </trkpt>
      <trkpt lat="37.47569667" lon="-4.42135">
        <ele>559.0</ele>
        <time>2018-06-09T08:16:08.181Z</time>
      </trkpt>
      <trkpt lat="37.47569667" lon="-4.42135">
        <ele>559.0</ele>
        <time>2018-06-09T08:16:09.161Z</time>
      </trkpt>
      <trkpt lat="37.47568333" lon="-4.42132833">
        <ele>559.0</ele>
        <time>2018-06-09T08:16:10.167Z</time>
      </trkpt>
      <trkpt lat="37.47568333" lon="-4.42132833">
        <ele>559.0</ele>
        <time>2018-06-09T08:16:11.187Z</time>
      </trkpt>
      <trkpt lat="37.47566833" lon="-4.42130333">
        <ele>560.0</ele>
        <time>2018-06-09T08:16:12.195Z</time>
      </trkpt>
      <trkpt lat="37.47566333" lon="-4.42129167">
        <ele>560.0</ele>
        <time>2018-06-09T08:16:13.195Z</time>
      </trkpt>
      <trkpt lat="37.47566333" lon="-4.42129167">
        <ele>560.0</ele>
        <time>2018-06-09T08:16:14.173Z</time>
      </trkpt>
      <trkpt lat="37.47565167" lon="-4.42126667">
        <ele>561.0</ele>
        <time>2018-06-09T08:16:15.171Z</time>
      </trkpt>
      <trkpt lat="37.47565167" lon="-4.42126667">
        <ele>561.0</ele>
        <time>2018-06-09T08:16:16.162Z</time>
      </trkpt>
      <trkpt lat="37.47564167" lon="-4.42124">
        <ele>561.0</ele>
        <time>2018-06-09T08:16:17.169Z</time>
      </trkpt>
      <trkpt lat="37.47564167" lon="-4.42124">
        <ele>561.0</ele>
        <time>2018-06-09T08:16:18.186Z</time>
      </trkpt>
      <trkpt lat="37.47563" lon="-4.42121333">
        <ele>562.0</ele>
        <time>2018-06-09T08:16:19.160Z</time>
      </trkpt>
      <trkpt lat="37.47562333" lon="-4.42120167">
        <ele>562.0</ele>
        <time>2018-06-09T08:16:20.168Z</time>
      </trkpt>
      <trkpt lat="37.47562333" lon="-4.42120167">
        <ele>562.0</ele>
        <time>2018-06-09T08:16:21.187Z</time>
      </trkpt>
      <trkpt lat="37.47561167" lon="-4.421175">
        <ele>562.0</ele>
        <time>2018-06-09T08:16:22.193Z</time>
      </trkpt>
      <trkpt lat="37.475605" lon="-4.42116333">
        <ele>563.0</ele>
        <time>2018-06-09T08:16:23.160Z</time>
      </trkpt>
      <trkpt lat="37.475605" lon="-4.42116333">
        <ele>563.0</ele>
        <time>2018-06-09T08:16:24.177Z</time>
      </trkpt>
      <trkpt lat="37.47559333" lon="-4.42113667">
        <ele>563.0</ele>
        <time>2018-06-09T08:16:25.183Z</time>
      </trkpt>
      <trkpt lat="37.47558667" lon="-4.42112333">
        <ele>563.0</ele>
        <time>2018-06-09T08:16:26.176Z</time>
      </trkpt>
      <trkpt lat="37.47558667" lon="-4.42112333">
        <ele>563.0</ele>
        <time>2018-06-09T08:16:27.192Z</time>
      </trkpt>
      <trkpt lat="37.47557333" lon="-4.42109833">
        <ele>564.0</ele>
        <time>2018-06-09T08:16:28.160Z</time>
      </trkpt>
      <trkpt lat="37.475565" lon="-4.421085">
        <ele>564.0</ele>
        <time>2018-06-09T08:16:29.192Z</time>
      </trkpt>
      <trkpt lat="37.475565" lon="-4.421085">
        <ele>564.0</ele>
        <time>2018-06-09T08:16:30.170Z</time>
      </trkpt>
      <trkpt lat="37.47555167" lon="-4.42105833">
        <ele>564.0</ele>
        <time>2018-06-09T08:16:31.176Z</time>
      </trkpt>
      <trkpt lat="37.475545" lon="-4.421045">
        <ele>565.0</ele>
        <time>2018-06-09T08:16:32.176Z</time>
      </trkpt>
      <trkpt lat="37.475545" lon="-4.421045">
        <ele>565.0</ele>
        <time>2018-06-09T08:16:33.162Z</time>
      </trkpt>
      <trkpt lat="37.47553333" lon="-4.42102">
        <ele>565.0</ele>
        <time>2018-06-09T08:16:34.169Z</time>
      </trkpt>
      <trkpt lat="37.47552667" lon="-4.421005">
        <ele>565.0</ele>
        <time>2018-06-09T08:16:35.192Z</time>
      </trkpt>
      <trkpt lat="37.47552667" lon="-4.421005">
        <ele>565.0</ele>
        <time>2018-06-09T08:16:36.172Z</time>
      </trkpt>
      <trkpt lat="37.47551333" lon="-4.42098">
        <ele>565.0</ele>
        <time>2018-06-09T08:16:37.178Z</time>
      </trkpt>
      <trkpt lat="37.475505" lon="-4.42096833">
        <ele>566.0</ele>
        <time>2018-06-09T08:16:38.159Z</time>
      </trkpt>
      <trkpt lat="37.475505" lon="-4.42096833">
        <ele>566.0</ele>
        <time>2018-06-09T08:16:39.193Z</time>
      </trkpt>
      <trkpt lat="37.47549167" lon="-4.42094">
        <ele>566.0</ele>
        <time>2018-06-09T08:16:40.161Z</time>
      </trkpt>
      <trkpt lat="37.475485" lon="-4.42092833">
        <ele>566.0</ele>
        <time>2018-06-09T08:16:41.179Z</time>
      </trkpt>
      <trkpt lat="37.47548" lon="-4.420915">
        <ele>566.0</ele>
        <time>2018-06-09T08:16:42.181Z</time>
      </trkpt>
      <trkpt lat="37.47548" lon="-4.420915">
        <ele>566.0</ele>
        <time>2018-06-09T08:16:43.163Z</time>
      </trkpt>
      <trkpt lat="37.47546667" lon="-4.42088667">
        <ele>567.0</ele>
        <time>2018-06-09T08:16:44.170Z</time>
      </trkpt>
      <trkpt lat="37.47546167" lon="-4.42087333">
        <ele>567.0</ele>
        <time>2018-06-09T08:16:45.186Z</time>
      </trkpt>
      <trkpt lat="37.47546167" lon="-4.42087333">
        <ele>567.0</ele>
        <time>2018-06-09T08:16:46.163Z</time>
      </trkpt>
      <trkpt lat="37.47545" lon="-4.420845">
        <ele>568.0</ele>
        <time>2018-06-09T08:16:47.168Z</time>
      </trkpt>
      <trkpt lat="37.47544667" lon="-4.42083167">
        <ele>568.0</ele>
        <time>2018-06-09T08:16:48.161Z</time>
      </trkpt>
      <trkpt lat="37.47544667" lon="-4.42083167">
        <ele>568.0</ele>
        <time>2018-06-09T08:16:49.176Z</time>
      </trkpt>
      <trkpt lat="37.475435" lon="-4.42080667">
        <ele>569.0</ele>
        <time>2018-06-09T08:16:50.182Z</time>
      </trkpt>
      <trkpt lat="37.475435" lon="-4.42080667">
        <ele>569.0</ele>
        <time>2018-06-09T08:16:51.160Z</time>
      </trkpt>
      <trkpt lat="37.475425" lon="-4.42078">
        <ele>569.0</ele>
        <time>2018-06-09T08:16:52.170Z</time>
      </trkpt>
      <trkpt lat="37.475425" lon="-4.42078">
        <ele>569.0</ele>
        <time>2018-06-09T08:16:53.166Z</time>
      </trkpt>
      <trkpt lat="37.47541667" lon="-4.42075167">
        <ele>570.0</ele>
        <time>2018-06-09T08:16:54.173Z</time>
      </trkpt>
      <trkpt lat="37.47541333" lon="-4.42073833">
        <ele>570.0</ele>
        <time>2018-06-09T08:16:55.168Z</time>
      </trkpt>
      <trkpt lat="37.47541333" lon="-4.42073833">
        <ele>570.0</ele>
        <time>2018-06-09T08:16:56.167Z</time>
      </trkpt>
      <trkpt lat="37.475405" lon="-4.42070833">
        <ele>570.0</ele>
        <time>2018-06-09T08:16:57.173Z</time>
      </trkpt>
      <trkpt lat="37.475405" lon="-4.42070833">
        <ele>570.0</ele>
        <time>2018-06-09T08:16:58.192Z</time>
      </trkpt>
      <trkpt lat="37.47539333" lon="-4.42068333">
        <ele>571.0</ele>
        <time>2018-06-09T08:16:59.191Z</time>
      </trkpt>
      <trkpt lat="37.47539333" lon="-4.42068333">
        <ele>571.0</ele>
        <time>2018-06-09T08:17:00.186Z</time>
      </trkpt>
      <trkpt lat="37.47538333" lon="-4.42065667">
        <ele>571.0</ele>
        <time>2018-06-09T08:17:01.159Z</time>
      </trkpt>
      <trkpt lat="37.47538333" lon="-4.42065667">
        <ele>571.0</ele>
        <time>2018-06-09T08:17:02.179Z</time>
      </trkpt>
      <trkpt lat="37.47537833" lon="-4.42062667">
        <ele>571.0</ele>
        <time>2018-06-09T08:17:03.171Z</time>
      </trkpt>
      <trkpt lat="37.47537833" lon="-4.42062667">
        <ele>571.0</ele>
        <time>2018-06-09T08:17:04.176Z</time>
      </trkpt>
      <trkpt lat="37.475375" lon="-4.42059667">
        <ele>571.0</ele>
        <time>2018-06-09T08:17:05.181Z</time>
      </trkpt>
      <trkpt lat="37.475375" lon="-4.42059667">
        <ele>571.0</ele>
        <time>2018-06-09T08:17:06.158Z</time>
      </trkpt>
      <trkpt lat="37.47537667" lon="-4.42056333">
        <ele>572.0</ele>
        <time>2018-06-09T08:17:07.169Z</time>
      </trkpt>
      <trkpt lat="37.47537833" lon="-4.42054667">
        <ele>572.0</ele>
        <time>2018-06-09T08:17:08.160Z</time>
      </trkpt>
      <trkpt lat="37.47537833" lon="-4.42054667">
        <ele>572.0</ele>
        <time>2018-06-09T08:17:09.180Z</time>
      </trkpt>
      <trkpt lat="37.47537667" lon="-4.420515">
        <ele>572.0</ele>
        <time>2018-06-09T08:17:10.159Z</time>
      </trkpt>
      <trkpt lat="37.47537667" lon="-4.420515">
        <ele>572.0</ele>
        <time>2018-06-09T08:17:11.186Z</time>
      </trkpt>
      <trkpt lat="37.47537" lon="-4.42048333">
        <ele>572.0</ele>
        <time>2018-06-09T08:17:12.196Z</time>
      </trkpt>
      <trkpt lat="37.475365" lon="-4.42046667">
        <ele>572.0</ele>
        <time>2018-06-09T08:17:13.175Z</time>
      </trkpt>
      <trkpt lat="37.47536167" lon="-4.42045">
        <ele>572.0</ele>
        <time>2018-06-09T08:17:14.171Z</time>
      </trkpt>
      <trkpt lat="37.47535667" lon="-4.420435">
        <ele>572.0</ele>
        <time>2018-06-09T08:17:15.164Z</time>
      </trkpt>
      <trkpt lat="37.47535667" lon="-4.420435">
        <ele>572.0</ele>
        <time>2018-06-09T08:17:16.176Z</time>
      </trkpt>
      <trkpt lat="37.47534667" lon="-4.42040333">
        <ele>572.0</ele>
        <time>2018-06-09T08:17:17.182Z</time>
      </trkpt>
      <trkpt lat="37.47534667" lon="-4.42040333">
        <ele>572.0</ele>
        <time>2018-06-09T08:17:18.158Z</time>
      </trkpt>
      <trkpt lat="37.47533167" lon="-4.420375">
        <ele>573.0</ele>
        <time>2018-06-09T08:17:19.167Z</time>
      </trkpt>
      <trkpt lat="37.475325" lon="-4.42036167">
        <ele>573.0</ele>
        <time>2018-06-09T08:17:20.184Z</time>
      </trkpt>
      <trkpt lat="37.475325" lon="-4.42036167">
        <ele>573.0</ele>
        <time>2018-06-09T08:17:21.161Z</time>
      </trkpt>
      <trkpt lat="37.47530667" lon="-4.42033667">
        <ele>574.0</ele>
        <time>2018-06-09T08:17:22.189Z</time>
      </trkpt>
      <trkpt lat="37.47530667" lon="-4.42033667">
        <ele>574.0</ele>
        <time>2018-06-09T08:17:23.166Z</time>
      </trkpt>
      <trkpt lat="37.47528" lon="-4.42032167">
        <ele>574.0</ele>
        <time>2018-06-09T08:17:24.172Z</time>
      </trkpt>
      <trkpt lat="37.47528" lon="-4.42032167">
        <ele>574.0</ele>
        <time>2018-06-09T08:17:25.194Z</time>
      </trkpt>
      <trkpt lat="37.475255" lon="-4.42030333">
        <ele>575.0</ele>
        <time>2018-06-09T08:17:26.192Z</time>
      </trkpt>
      <trkpt lat="37.475255" lon="-4.42030333">
        <ele>575.0</ele>
        <time>2018-06-09T08:17:27.161Z</time>
      </trkpt>
      <trkpt lat="37.47523667" lon="-4.42027667">
        <ele>575.0</ele>
        <time>2018-06-09T08:17:28.198Z</time>
      </trkpt>
      <trkpt lat="37.47523667" lon="-4.42027667">
        <ele>575.0</ele>
        <time>2018-06-09T08:17:29.174Z</time>
      </trkpt>
      <trkpt lat="37.47522" lon="-4.42025">
        <ele>575.0</ele>
        <time>2018-06-09T08:17:30.190Z</time>
      </trkpt>
      <trkpt lat="37.47521333" lon="-4.420235">
        <ele>576.0</ele>
        <time>2018-06-09T08:17:31.177Z</time>
      </trkpt>
      <trkpt lat="37.47520667" lon="-4.42022">
        <ele>576.0</ele>
        <time>2018-06-09T08:17:32.159Z</time>
      </trkpt>
      <trkpt lat="37.47520667" lon="-4.42022">
        <ele>576.0</ele>
        <time>2018-06-09T08:17:33.177Z</time>
      </trkpt>
      <trkpt lat="37.47519167" lon="-4.42019167">
        <ele>576.0</ele>
        <time>2018-06-09T08:17:34.183Z</time>
      </trkpt>
      <trkpt lat="37.47518667" lon="-4.42017667">
        <ele>577.0</ele>
        <time>2018-06-09T08:17:35.161Z</time>
      </trkpt>
      <trkpt lat="37.47518667" lon="-4.42017667">
        <ele>577.0</ele>
        <time>2018-06-09T08:17:36.166Z</time>
      </trkpt>
      <trkpt lat="37.475175" lon="-4.42014833">
        <ele>577.0</ele>
        <time>2018-06-09T08:17:37.172Z</time>
      </trkpt>
      <trkpt lat="37.47517333" lon="-4.42013333">
        <ele>577.0</ele>
        <time>2018-06-09T08:17:38.192Z</time>
      </trkpt>
      <trkpt lat="37.47517333" lon="-4.42013333">
        <ele>577.0</ele>
        <time>2018-06-09T08:17:39.195Z</time>
      </trkpt>
      <trkpt lat="37.475175" lon="-4.4201">
        <ele>577.0</ele>
        <time>2018-06-09T08:17:40.161Z</time>
      </trkpt>
      <trkpt lat="37.47517167" lon="-4.42008333">
        <ele>578.0</ele>
        <time>2018-06-09T08:17:41.173Z</time>
      </trkpt>
      <trkpt lat="37.47517167" lon="-4.42008333">
        <ele>578.0</ele>
        <time>2018-06-09T08:17:42.182Z</time>
      </trkpt>
      <trkpt lat="37.47516833" lon="-4.42005333">
        <ele>578.0</ele>
        <time>2018-06-09T08:17:43.181Z</time>
      </trkpt>
      <trkpt lat="37.47516833" lon="-4.42005333">
        <ele>578.0</ele>
        <time>2018-06-09T08:17:44.166Z</time>
      </trkpt>
      <trkpt lat="37.47516167" lon="-4.42002333">
        <ele>578.0</ele>
        <time>2018-06-09T08:17:45.172Z</time>
      </trkpt>
      <trkpt lat="37.47516" lon="-4.42000667">
        <ele>578.0</ele>
        <time>2018-06-09T08:17:46.191Z</time>
      </trkpt>
      <trkpt lat="37.47516" lon="-4.42000667">
        <ele>578.0</ele>
        <time>2018-06-09T08:17:47.196Z</time>
      </trkpt>
      <trkpt lat="37.47514833" lon="-4.41998167">
        <ele>579.0</ele>
        <time>2018-06-09T08:17:48.158Z</time>
      </trkpt>
      <trkpt lat="37.47514833" lon="-4.41998167">
        <ele>579.0</ele>
        <time>2018-06-09T08:17:49.179Z</time>
      </trkpt>
      <trkpt lat="37.47513167" lon="-4.41995833">
        <ele>580.0</ele>
        <time>2018-06-09T08:17:50.162Z</time>
      </trkpt>
      <trkpt lat="37.47513167" lon="-4.41995833">
        <ele>580.0</ele>
        <time>2018-06-09T08:17:51.161Z</time>
      </trkpt>
      <trkpt lat="37.47512333" lon="-4.41993">
        <ele>580.0</ele>
        <time>2018-06-09T08:17:52.167Z</time>
      </trkpt>
      <trkpt lat="37.47512333" lon="-4.41993">
        <ele>580.0</ele>
        <time>2018-06-09T08:17:53.186Z</time>
      </trkpt>
      <trkpt lat="37.47511833" lon="-4.41990167">
        <ele>580.0</ele>
        <time>2018-06-09T08:17:54.181Z</time>
      </trkpt>
      <trkpt lat="37.47511833" lon="-4.41990167">
        <ele>580.0</ele>
        <time>2018-06-09T08:17:55.196Z</time>
      </trkpt>
      <trkpt lat="37.47511167" lon="-4.41987167">
        <ele>581.0</ele>
        <time>2018-06-09T08:17:56.165Z</time>
      </trkpt>
      <trkpt lat="37.47511167" lon="-4.41987167">
        <ele>581.0</ele>
        <time>2018-06-09T08:17:57.183Z</time>
      </trkpt>
      <trkpt lat="37.475105" lon="-4.41983833">
        <ele>581.0</ele>
        <time>2018-06-09T08:17:58.181Z</time>
      </trkpt>
      <trkpt lat="37.475105" lon="-4.41983833">
        <ele>581.0</ele>
        <time>2018-06-09T08:17:59.162Z</time>
      </trkpt>
      <trkpt lat="37.47510167" lon="-4.41980667">
        <ele>582.0</ele>
        <time>2018-06-09T08:18:00.168Z</time>
      </trkpt>
      <trkpt lat="37.47510167" lon="-4.41979">
        <ele>582.0</ele>
        <time>2018-06-09T08:18:01.187Z</time>
      </trkpt>
      <trkpt lat="37.47510333" lon="-4.41977333">
        <ele>582.0</ele>
        <time>2018-06-09T08:18:02.182Z</time>
      </trkpt>
      <trkpt lat="37.47510333" lon="-4.41977333">
        <ele>582.0</ele>
        <time>2018-06-09T08:18:03.159Z</time>
      </trkpt>
      <trkpt lat="37.47510333" lon="-4.41974">
        <ele>582.0</ele>
        <time>2018-06-09T08:18:04.166Z</time>
      </trkpt>
      <trkpt lat="37.47510333" lon="-4.41974">
        <ele>582.0</ele>
        <time>2018-06-09T08:18:05.172Z</time>
      </trkpt>
      <trkpt lat="37.475105" lon="-4.41970833">
        <ele>583.0</ele>
        <time>2018-06-09T08:18:06.169Z</time>
      </trkpt>
      <trkpt lat="37.475105" lon="-4.41969167">
        <ele>583.0</ele>
        <time>2018-06-09T08:18:07.188Z</time>
      </trkpt>
      <trkpt lat="37.475105" lon="-4.419675">
        <ele>584.0</ele>
        <time>2018-06-09T08:18:08.187Z</time>
      </trkpt>
      <trkpt lat="37.475105" lon="-4.419675">
        <ele>584.0</ele>
        <time>2018-06-09T08:18:09.165Z</time>
      </trkpt>
      <trkpt lat="37.47510833" lon="-4.419645">
        <ele>584.0</ele>
        <time>2018-06-09T08:18:10.171Z</time>
      </trkpt>
      <trkpt lat="37.47511" lon="-4.41963">
        <ele>584.0</ele>
        <time>2018-06-09T08:18:11.171Z</time>
      </trkpt>
      <trkpt lat="37.47511" lon="-4.41963">
        <ele>584.0</ele>
        <time>2018-06-09T08:18:12.195Z</time>
      </trkpt>
      <trkpt lat="37.475105" lon="-4.41959833">
        <ele>585.0</ele>
        <time>2018-06-09T08:18:13.162Z</time>
      </trkpt>
      <trkpt lat="37.475105" lon="-4.41958333">
        <ele>585.0</ele>
        <time>2018-06-09T08:18:14.174Z</time>
      </trkpt>
      <trkpt lat="37.475105" lon="-4.41958333">
        <ele>585.0</ele>
        <time>2018-06-09T08:18:15.194Z</time>
      </trkpt>
      <trkpt lat="37.47510333" lon="-4.419555">
        <ele>586.0</ele>
        <time>2018-06-09T08:18:16.163Z</time>
      </trkpt>
      <trkpt lat="37.47510333" lon="-4.41954333">
        <ele>587.0</ele>
        <time>2018-06-09T08:18:17.165Z</time>
      </trkpt>
      <trkpt lat="37.47510333" lon="-4.41954333">
        <ele>587.0</ele>
        <time>2018-06-09T08:18:18.183Z</time>
      </trkpt>
      <trkpt lat="37.4751" lon="-4.41951167">
        <ele>587.0</ele>
        <time>2018-06-09T08:18:19.191Z</time>
      </trkpt>
      <trkpt lat="37.47509833" lon="-4.41949667">
        <ele>587.0</ele>
        <time>2018-06-09T08:18:20.179Z</time>
      </trkpt>
      <trkpt lat="37.47509833" lon="-4.41949667">
        <ele>587.0</ele>
        <time>2018-06-09T08:18:21.158Z</time>
      </trkpt>
      <trkpt lat="37.47509167" lon="-4.41947167">
        <ele>588.0</ele>
        <time>2018-06-09T08:18:22.166Z</time>
      </trkpt>
      <trkpt lat="37.47508833" lon="-4.41945667">
        <ele>588.0</ele>
        <time>2018-06-09T08:18:23.197Z</time>
      </trkpt>
      <trkpt lat="37.47508833" lon="-4.41945667">
        <ele>588.0</ele>
        <time>2018-06-09T08:18:24.186Z</time>
      </trkpt>
      <trkpt lat="37.47508667" lon="-4.41942833">
        <ele>589.0</ele>
        <time>2018-06-09T08:18:25.195Z</time>
      </trkpt>
      <trkpt lat="37.475085" lon="-4.419415">
        <ele>589.0</ele>
        <time>2018-06-09T08:18:26.172Z</time>
      </trkpt>
      <trkpt lat="37.475085" lon="-4.419415">
        <ele>589.0</ele>
        <time>2018-06-09T08:18:27.176Z</time>
      </trkpt>
      <trkpt lat="37.47508" lon="-4.419385">
        <ele>590.0</ele>
        <time>2018-06-09T08:18:28.182Z</time>
      </trkpt>
      <trkpt lat="37.47507667" lon="-4.41937">
        <ele>590.0</ele>
        <time>2018-06-09T08:18:29.159Z</time>
      </trkpt>
      <trkpt lat="37.47507333" lon="-4.419355">
        <ele>590.0</ele>
        <time>2018-06-09T08:18:30.157Z</time>
      </trkpt>
      <trkpt lat="37.47507333" lon="-4.419355">
        <ele>590.0</ele>
        <time>2018-06-09T08:18:31.174Z</time>
      </trkpt>
      <trkpt lat="37.47507167" lon="-4.41932333">
        <ele>591.0</ele>
        <time>2018-06-09T08:18:32.181Z</time>
      </trkpt>
      <trkpt lat="37.47507167" lon="-4.41932333">
        <ele>591.0</ele>
        <time>2018-06-09T08:18:33.162Z</time>
      </trkpt>
      <trkpt lat="37.47506667" lon="-4.41929167">
        <ele>591.0</ele>
        <time>2018-06-09T08:18:34.194Z</time>
      </trkpt>
      <trkpt lat="37.47506667" lon="-4.41929167">
        <ele>591.0</ele>
        <time>2018-06-09T08:18:35.183Z</time>
      </trkpt>
      <trkpt lat="37.47506167" lon="-4.41925833">
        <ele>591.0</ele>
        <time>2018-06-09T08:18:36.160Z</time>
      </trkpt>
      <trkpt lat="37.47506167" lon="-4.41925833">
        <ele>591.0</ele>
        <time>2018-06-09T08:18:37.177Z</time>
      </trkpt>
      <trkpt lat="37.475055" lon="-4.41922667">
        <ele>591.0</ele>
        <time>2018-06-09T08:18:38.168Z</time>
      </trkpt>
      <trkpt lat="37.475055" lon="-4.41922667">
        <ele>591.0</ele>
        <time>2018-06-09T08:18:39.186Z</time>
      </trkpt>
      <trkpt lat="37.47505167" lon="-4.41919333">
        <ele>592.0</ele>
        <time>2018-06-09T08:18:40.194Z</time>
      </trkpt>
      <trkpt lat="37.47505167" lon="-4.41917667">
        <ele>592.0</ele>
        <time>2018-06-09T08:18:41.170Z</time>
      </trkpt>
      <trkpt lat="37.47505167" lon="-4.41917667">
        <ele>592.0</ele>
        <time>2018-06-09T08:18:42.187Z</time>
      </trkpt>
      <trkpt lat="37.47504667" lon="-4.41914333">
        <ele>592.0</ele>
        <time>2018-06-09T08:18:43.196Z</time>
      </trkpt>
      <trkpt lat="37.47504333" lon="-4.419125">
        <ele>592.0</ele>
        <time>2018-06-09T08:18:44.172Z</time>
      </trkpt>
      <trkpt lat="37.47504333" lon="-4.419125">
        <ele>592.0</ele>
        <time>2018-06-09T08:18:45.169Z</time>
      </trkpt>
      <trkpt lat="37.47503833" lon="-4.41909">
        <ele>592.0</ele>
        <time>2018-06-09T08:18:46.175Z</time>
      </trkpt>
      <trkpt lat="37.475035" lon="-4.41907333">
        <ele>593.0</ele>
        <time>2018-06-09T08:18:47.158Z</time>
      </trkpt>
      <trkpt lat="37.475035" lon="-4.41907333">
        <ele>593.0</ele>
        <time>2018-06-09T08:18:48.196Z</time>
      </trkpt>
      <trkpt lat="37.47502833" lon="-4.41904167">
        <ele>593.0</ele>
        <time>2018-06-09T08:18:49.164Z</time>
      </trkpt>
      <trkpt lat="37.475025" lon="-4.419025">
        <ele>593.0</ele>
        <time>2018-06-09T08:18:50.191Z</time>
      </trkpt>
      <trkpt lat="37.475025" lon="-4.419025">
        <ele>593.0</ele>
        <time>2018-06-09T08:18:51.186Z</time>
      </trkpt>
      <trkpt lat="37.47502" lon="-4.41899333">
        <ele>594.0</ele>
        <time>2018-06-09T08:18:52.159Z</time>
      </trkpt>
      <trkpt lat="37.47502" lon="-4.41899333">
        <ele>594.0</ele>
        <time>2018-06-09T08:18:53.176Z</time>
      </trkpt>
      <trkpt lat="37.47501667" lon="-4.41896167">
        <ele>594.0</ele>
        <time>2018-06-09T08:18:54.191Z</time>
      </trkpt>
      <trkpt lat="37.47501667" lon="-4.41896167">
        <ele>594.0</ele>
        <time>2018-06-09T08:18:55.188Z</time>
      </trkpt>
      <trkpt lat="37.475015" lon="-4.41892667">
        <ele>594.0</ele>
        <time>2018-06-09T08:18:56.158Z</time>
      </trkpt>
      <trkpt lat="37.475015" lon="-4.41892667">
        <ele>594.0</ele>
        <time>2018-06-09T08:18:57.164Z</time>
      </trkpt>
      <trkpt lat="37.47500833" lon="-4.418895">
        <ele>595.0</ele>
        <time>2018-06-09T08:18:58.192Z</time>
      </trkpt>
      <trkpt lat="37.47500667" lon="-4.41888">
        <ele>595.0</ele>
        <time>2018-06-09T08:18:59.177Z</time>
      </trkpt>
      <trkpt lat="37.47500333" lon="-4.418865">
        <ele>595.0</ele>
        <time>2018-06-09T08:19:00.158Z</time>
      </trkpt>
      <trkpt lat="37.47500333" lon="-4.418865">
        <ele>595.0</ele>
        <time>2018-06-09T08:19:01.178Z</time>
      </trkpt>
      <trkpt lat="37.47499833" lon="-4.41883333">
        <ele>596.0</ele>
        <time>2018-06-09T08:19:02.168Z</time>
      </trkpt>
      <trkpt lat="37.47499833" lon="-4.41883333">
        <ele>596.0</ele>
        <time>2018-06-09T08:19:03.166Z</time>
      </trkpt>
      <trkpt lat="37.47500333" lon="-4.418805">
        <ele>596.0</ele>
        <time>2018-06-09T08:19:04.172Z</time>
      </trkpt>
      <trkpt lat="37.47500833" lon="-4.41879333">
        <ele>596.0</ele>
        <time>2018-06-09T08:19:05.196Z</time>
      </trkpt>
      <trkpt lat="37.47500833" lon="-4.41879333">
        <ele>596.0</ele>
        <time>2018-06-09T08:19:06.187Z</time>
      </trkpt>
      <trkpt lat="37.475015" lon="-4.41876333">
        <ele>597.0</ele>
        <time>2018-06-09T08:19:07.164Z</time>
      </trkpt>
      <trkpt lat="37.475015" lon="-4.41876333">
        <ele>597.0</ele>
        <time>2018-06-09T08:19:08.182Z</time>
      </trkpt>
      <trkpt lat="37.47501833" lon="-4.41873">
        <ele>597.0</ele>
        <time>2018-06-09T08:19:09.192Z</time>
      </trkpt>
      <trkpt lat="37.47501833" lon="-4.41873">
        <ele>597.0</ele>
        <time>2018-06-09T08:19:10.166Z</time>
      </trkpt>
      <trkpt lat="37.47501833" lon="-4.41870167">
        <ele>598.0</ele>
        <time>2018-06-09T08:19:11.172Z</time>
      </trkpt>
      <trkpt lat="37.47502" lon="-4.41868667">
        <ele>598.0</ele>
        <time>2018-06-09T08:19:12.190Z</time>
      </trkpt>
      <trkpt lat="37.47502" lon="-4.41868667">
        <ele>598.0</ele>
        <time>2018-06-09T08:19:13.185Z</time>
      </trkpt>
      <trkpt lat="37.47501667" lon="-4.41865833">
        <ele>599.0</ele>
        <time>2018-06-09T08:19:14.192Z</time>
      </trkpt>
      <trkpt lat="37.47501667" lon="-4.41865833">
        <ele>599.0</ele>
        <time>2018-06-09T08:19:15.168Z</time>
      </trkpt>
      <trkpt lat="37.47501333" lon="-4.41862667">
        <ele>599.0</ele>
        <time>2018-06-09T08:19:16.181Z</time>
      </trkpt>
      <trkpt lat="37.47501333" lon="-4.41862667">
        <ele>599.0</ele>
        <time>2018-06-09T08:19:17.157Z</time>
      </trkpt>
      <trkpt lat="37.475015" lon="-4.41859833">
        <ele>600.0</ele>
        <time>2018-06-09T08:19:18.173Z</time>
      </trkpt>
      <trkpt lat="37.475015" lon="-4.418585">
        <ele>600.0</ele>
        <time>2018-06-09T08:19:19.191Z</time>
      </trkpt>
      <trkpt lat="37.475015" lon="-4.41856833">
        <ele>600.0</ele>
        <time>2018-06-09T08:19:20.164Z</time>
      </trkpt>
      <trkpt lat="37.475015" lon="-4.41856833">
        <ele>600.0</ele>
        <time>2018-06-09T08:19:21.182Z</time>
      </trkpt>
      <trkpt lat="37.475015" lon="-4.41853833">
        <ele>600.0</ele>
        <time>2018-06-09T08:19:22.188Z</time>
      </trkpt>
      <trkpt lat="37.475015" lon="-4.41853833">
        <ele>600.0</ele>
        <time>2018-06-09T08:19:23.193Z</time>
      </trkpt>
      <trkpt lat="37.47501833" lon="-4.41850833">
        <ele>601.0</ele>
        <time>2018-06-09T08:19:24.176Z</time>
      </trkpt>
      <trkpt lat="37.47501833" lon="-4.41849333">
        <ele>601.0</ele>
        <time>2018-06-09T08:19:25.161Z</time>
      </trkpt>
      <trkpt lat="37.47501833" lon="-4.41849333">
        <ele>601.0</ele>
        <time>2018-06-09T08:19:26.172Z</time>
      </trkpt>
      <trkpt lat="37.47502333" lon="-4.41846333">
        <ele>601.0</ele>
        <time>2018-06-09T08:19:27.178Z</time>
      </trkpt>
      <trkpt lat="37.47502333" lon="-4.41846333">
        <ele>601.0</ele>
        <time>2018-06-09T08:19:28.162Z</time>
      </trkpt>
      <trkpt lat="37.47502667" lon="-4.41843667">
        <ele>602.0</ele>
        <time>2018-06-09T08:19:29.181Z</time>
      </trkpt>
      <trkpt lat="37.47502667" lon="-4.41843667">
        <ele>602.0</ele>
        <time>2018-06-09T08:19:30.193Z</time>
      </trkpt>
      <trkpt lat="37.47502833" lon="-4.41841">
        <ele>602.0</ele>
        <time>2018-06-09T08:19:31.161Z</time>
      </trkpt>
      <trkpt lat="37.47503167" lon="-4.418395">
        <ele>603.0</ele>
        <time>2018-06-09T08:19:32.178Z</time>
      </trkpt>
      <trkpt lat="37.47503167" lon="-4.418395">
        <ele>603.0</ele>
        <time>2018-06-09T08:19:33.183Z</time>
      </trkpt>
      <trkpt lat="37.47503667" lon="-4.41836167">
        <ele>603.0</ele>
        <time>2018-06-09T08:19:34.195Z</time>
      </trkpt>
      <trkpt lat="37.47503667" lon="-4.41834667">
        <ele>603.0</ele>
        <time>2018-06-09T08:19:35.181Z</time>
      </trkpt>
      <trkpt lat="37.47503667" lon="-4.41833167">
        <ele>603.0</ele>
        <time>2018-06-09T08:19:36.166Z</time>
      </trkpt>
      <trkpt lat="37.47503667" lon="-4.41833167">
        <ele>603.0</ele>
        <time>2018-06-09T08:19:37.187Z</time>
      </trkpt>
      <trkpt lat="37.47504167" lon="-4.41830167">
        <ele>604.0</ele>
        <time>2018-06-09T08:19:38.161Z</time>
      </trkpt>
      <trkpt lat="37.47504167" lon="-4.41830167">
        <ele>604.0</ele>
        <time>2018-06-09T08:19:39.165Z</time>
      </trkpt>
      <trkpt lat="37.47504333" lon="-4.41827">
        <ele>604.0</ele>
        <time>2018-06-09T08:19:40.170Z</time>
      </trkpt>
      <trkpt lat="37.475045" lon="-4.41825333">
        <ele>604.0</ele>
        <time>2018-06-09T08:19:41.189Z</time>
      </trkpt>
      <trkpt lat="37.475045" lon="-4.41824">
        <ele>605.0</ele>
        <time>2018-06-09T08:19:42.184Z</time>
      </trkpt>
      <trkpt lat="37.475045" lon="-4.41824">
        <ele>605.0</ele>
        <time>2018-06-09T08:19:43.161Z</time>
      </trkpt>
      <trkpt lat="37.47504667" lon="-4.41820667">
        <ele>605.0</ele>
        <time>2018-06-09T08:19:44.167Z</time>
      </trkpt>
      <trkpt lat="37.47504667" lon="-4.41820667">
        <ele>605.0</ele>
        <time>2018-06-09T08:19:45.188Z</time>
      </trkpt>
      <trkpt lat="37.47504833" lon="-4.41817833">
        <ele>606.0</ele>
        <time>2018-06-09T08:19:46.186Z</time>
      </trkpt>
      <trkpt lat="37.47504833" lon="-4.41817833">
        <ele>606.0</ele>
        <time>2018-06-09T08:19:47.185Z</time>
      </trkpt>
      <trkpt lat="37.47504833" lon="-4.41814833">
        <ele>606.0</ele>
        <time>2018-06-09T08:19:48.176Z</time>
      </trkpt>
      <trkpt lat="37.47504833" lon="-4.41814833">
        <ele>606.0</ele>
        <time>2018-06-09T08:19:49.194Z</time>
      </trkpt>
      <trkpt lat="37.47505333" lon="-4.41812333">
        <ele>606.0</ele>
        <time>2018-06-09T08:19:50.160Z</time>
      </trkpt>
      <trkpt lat="37.47505333" lon="-4.41812333">
        <ele>606.0</ele>
        <time>2018-06-09T08:19:51.181Z</time>
      </trkpt>
      <trkpt lat="37.475055" lon="-4.41813167">
        <ele>607.0</ele>
        <time>2018-06-09T08:19:52.187Z</time>
      </trkpt>
      <trkpt lat="37.475055" lon="-4.41813167">
        <ele>607.0</ele>
        <time>2018-06-09T08:19:53.187Z</time>
      </trkpt>
      <trkpt lat="37.475055" lon="-4.418125">
        <ele>607.0</ele>
        <time>2018-06-09T08:19:54.195Z</time>
      </trkpt>
      <trkpt lat="37.475055" lon="-4.418125">
        <ele>607.0</ele>
        <time>2018-06-09T08:19:55.171Z</time>
      </trkpt>
      <trkpt lat="37.47505" lon="-4.41811">
        <ele>607.0</ele>
        <time>2018-06-09T08:19:56.183Z</time>
      </trkpt>
      <trkpt lat="37.47505" lon="-4.41811">
        <ele>607.0</ele>
        <time>2018-06-09T08:19:57.176Z</time>
      </trkpt>
      <trkpt lat="37.47503833" lon="-4.41809833">
        <ele>607.0</ele>
        <time>2018-06-09T08:19:58.182Z</time>
      </trkpt>
      <trkpt lat="37.47503333" lon="-4.418095">
        <ele>607.0</ele>
        <time>2018-06-09T08:19:59.178Z</time>
      </trkpt>
      <trkpt lat="37.47503333" lon="-4.418095">
        <ele>607.0</ele>
        <time>2018-06-09T08:20:00.178Z</time>
      </trkpt>
      <trkpt lat="37.475025" lon="-4.41809">
        <ele>606.0</ele>
        <time>2018-06-09T08:20:01.183Z</time>
      </trkpt>
      <trkpt lat="37.47502333" lon="-4.41809">
        <ele>606.0</ele>
        <time>2018-06-09T08:20:02.171Z</time>
      </trkpt>
      <trkpt lat="37.47502333" lon="-4.41809">
        <ele>606.0</ele>
        <time>2018-06-09T08:20:03.187Z</time>
      </trkpt>
      <trkpt lat="37.47502" lon="-4.41809333">
        <ele>606.0</ele>
        <time>2018-06-09T08:20:04.194Z</time>
      </trkpt>
      <trkpt lat="37.47501" lon="-4.41808833">
        <ele>606.0</ele>
        <time>2018-06-09T08:20:05.171Z</time>
      </trkpt>
      <trkpt lat="37.47501" lon="-4.41808833">
        <ele>606.0</ele>
        <time>2018-06-09T08:20:06.160Z</time>
      </trkpt>
      <trkpt lat="37.47498833" lon="-4.41806667">
        <ele>607.0</ele>
        <time>2018-06-09T08:20:07.166Z</time>
      </trkpt>
      <trkpt lat="37.47498833" lon="-4.41806667">
        <ele>607.0</ele>
        <time>2018-06-09T08:20:08.184Z</time>
      </trkpt>
      <trkpt lat="37.47497333" lon="-4.41804">
        <ele>607.0</ele>
        <time>2018-06-09T08:20:09.195Z</time>
      </trkpt>
      <trkpt lat="37.47497333" lon="-4.41804">
        <ele>607.0</ele>
        <time>2018-06-09T08:20:10.187Z</time>
      </trkpt>
      <trkpt lat="37.47496333" lon="-4.41801167">
        <ele>607.0</ele>
        <time>2018-06-09T08:20:11.195Z</time>
      </trkpt>
      <trkpt lat="37.47496333" lon="-4.41801167">
        <ele>607.0</ele>
        <time>2018-06-09T08:20:12.171Z</time>
      </trkpt>
      <trkpt lat="37.47497333" lon="-4.41799167">
        <ele>608.0</ele>
        <time>2018-06-09T08:20:13.159Z</time>
      </trkpt>
      <trkpt lat="37.47497833" lon="-4.41798167">
        <ele>608.0</ele>
        <time>2018-06-09T08:20:14.161Z</time>
      </trkpt>
      <trkpt lat="37.47497833" lon="-4.41798167">
        <ele>608.0</ele>
        <time>2018-06-09T08:20:15.179Z</time>
      </trkpt>
      <trkpt lat="37.47497" lon="-4.41795833">
        <ele>608.0</ele>
        <time>2018-06-09T08:20:16.190Z</time>
      </trkpt>
      <trkpt lat="37.47496167" lon="-4.41795">
        <ele>608.0</ele>
        <time>2018-06-09T08:20:17.162Z</time>
      </trkpt>
      <trkpt lat="37.47496167" lon="-4.41795">
        <ele>608.0</ele>
        <time>2018-06-09T08:20:18.180Z</time>
      </trkpt>
      <trkpt lat="37.47494333" lon="-4.41792667">
        <ele>608.0</ele>
        <time>2018-06-09T08:20:19.170Z</time>
      </trkpt>
      <trkpt lat="37.47493667" lon="-4.41791333">
        <ele>608.0</ele>
        <time>2018-06-09T08:20:20.158Z</time>
      </trkpt>
      <trkpt lat="37.47493667" lon="-4.41791333">
        <ele>608.0</ele>
        <time>2018-06-09T08:20:21.177Z</time>
      </trkpt>
      <trkpt lat="37.474925" lon="-4.41788667">
        <ele>609.0</ele>
        <time>2018-06-09T08:20:22.182Z</time>
      </trkpt>
      <trkpt lat="37.47492333" lon="-4.41787167">
        <ele>609.0</ele>
        <time>2018-06-09T08:20:23.186Z</time>
      </trkpt>
      <trkpt lat="37.47492333" lon="-4.41787167">
        <ele>609.0</ele>
        <time>2018-06-09T08:20:24.163Z</time>
      </trkpt>
      <trkpt lat="37.47493" lon="-4.41784667">
        <ele>609.0</ele>
        <time>2018-06-09T08:20:25.174Z</time>
      </trkpt>
      <trkpt lat="37.47493" lon="-4.41784667">
        <ele>609.0</ele>
        <time>2018-06-09T08:20:26.186Z</time>
      </trkpt>
      <trkpt lat="37.47495333" lon="-4.41784167">
        <ele>610.0</ele>
        <time>2018-06-09T08:20:27.157Z</time>
      </trkpt>
      <trkpt lat="37.47495333" lon="-4.41784167">
        <ele>610.0</ele>
        <time>2018-06-09T08:20:28.175Z</time>
      </trkpt>
      <trkpt lat="37.47497833" lon="-4.41783833">
        <ele>610.0</ele>
        <time>2018-06-09T08:20:29.181Z</time>
      </trkpt>
      <trkpt lat="37.47497833" lon="-4.41783833">
        <ele>610.0</ele>
        <time>2018-06-09T08:20:30.176Z</time>
      </trkpt>
      <trkpt lat="37.47499833" lon="-4.41781833">
        <ele>610.0</ele>
        <time>2018-06-09T08:20:31.195Z</time>
      </trkpt>
      <trkpt lat="37.475005" lon="-4.41780667">
        <ele>610.0</ele>
        <time>2018-06-09T08:20:32.172Z</time>
      </trkpt>
      <trkpt lat="37.475005" lon="-4.41780667">
        <ele>610.0</ele>
        <time>2018-06-09T08:20:33.162Z</time>
      </trkpt>
      <trkpt lat="37.47501167" lon="-4.41778">
        <ele>611.0</ele>
        <time>2018-06-09T08:20:34.195Z</time>
      </trkpt>
      <trkpt lat="37.47501167" lon="-4.41778">
        <ele>611.0</ele>
        <time>2018-06-09T08:20:35.162Z</time>
      </trkpt>
      <trkpt lat="37.47500333" lon="-4.417755">
        <ele>611.0</ele>
        <time>2018-06-09T08:20:36.169Z</time>
      </trkpt>
      <trkpt lat="37.475" lon="-4.41774">
        <ele>611.0</ele>
        <time>2018-06-09T08:20:37.195Z</time>
      </trkpt>
      <trkpt lat="37.47499667" lon="-4.417725">
        <ele>611.0</ele>
        <time>2018-06-09T08:20:38.161Z</time>
      </trkpt>
      <trkpt lat="37.47500167" lon="-4.41771167">
        <ele>612.0</ele>
        <time>2018-06-09T08:20:39.188Z</time>
      </trkpt>
      <trkpt lat="37.47501" lon="-4.41770167">
        <ele>612.0</ele>
        <time>2018-06-09T08:20:40.181Z</time>
      </trkpt>
      <trkpt lat="37.47501" lon="-4.41770167">
        <ele>612.0</ele>
        <time>2018-06-09T08:20:41.167Z</time>
      </trkpt>
      <trkpt lat="37.47503" lon="-4.41768833">
        <ele>612.0</ele>
        <time>2018-06-09T08:20:42.174Z</time>
      </trkpt>
      <trkpt lat="37.47503" lon="-4.41768833">
        <ele>612.0</ele>
        <time>2018-06-09T08:20:43.195Z</time>
      </trkpt>
      <trkpt lat="37.47505167" lon="-4.41767833">
        <ele>613.0</ele>
        <time>2018-06-09T08:20:44.192Z</time>
      </trkpt>
      <trkpt lat="37.47506167" lon="-4.41767333">
        <ele>613.0</ele>
        <time>2018-06-09T08:20:45.185Z</time>
      </trkpt>
      <trkpt lat="37.47506167" lon="-4.41767333">
        <ele>613.0</ele>
        <time>2018-06-09T08:20:46.163Z</time>
      </trkpt>
      <trkpt lat="37.47508" lon="-4.41766333">
        <ele>614.0</ele>
        <time>2018-06-09T08:20:47.194Z</time>
      </trkpt>
      <trkpt lat="37.47509" lon="-4.41766">
        <ele>614.0</ele>
        <time>2018-06-09T08:20:48.159Z</time>
      </trkpt>
      <trkpt lat="37.47509" lon="-4.41766">
        <ele>614.0</ele>
        <time>2018-06-09T08:20:49.177Z</time>
      </trkpt>
      <trkpt lat="37.47510833" lon="-4.417655">
        <ele>614.0</ele>
        <time>2018-06-09T08:20:50.184Z</time>
      </trkpt>
      <trkpt lat="37.47510833" lon="-4.417655">
        <ele>614.0</ele>
        <time>2018-06-09T08:20:51.178Z</time>
      </trkpt>
      <trkpt lat="37.47512833" lon="-4.41765167">
        <ele>614.0</ele>
        <time>2018-06-09T08:20:52.185Z</time>
      </trkpt>
      <trkpt lat="37.47512833" lon="-4.41765167">
        <ele>614.0</ele>
        <time>2018-06-09T08:20:53.163Z</time>
      </trkpt>
      <trkpt lat="37.47515333" lon="-4.41764167">
        <ele>615.0</ele>
        <time>2018-06-09T08:20:54.192Z</time>
      </trkpt>
      <trkpt lat="37.47516667" lon="-4.417635">
        <ele>615.0</ele>
        <time>2018-06-09T08:20:55.161Z</time>
      </trkpt>
      <trkpt lat="37.47516667" lon="-4.417635">
        <ele>615.0</ele>
        <time>2018-06-09T08:20:56.177Z</time>
      </trkpt>
      <trkpt lat="37.47519" lon="-4.417615">
        <ele>615.0</ele>
        <time>2018-06-09T08:20:57.190Z</time>
      </trkpt>
      <trkpt lat="37.47519" lon="-4.417615">
        <ele>615.0</ele>
        <time>2018-06-09T08:20:58.179Z</time>
      </trkpt>
      <trkpt lat="37.475205" lon="-4.417595">
        <ele>615.0</ele>
        <time>2018-06-09T08:20:59.186Z</time>
      </trkpt>
      <trkpt lat="37.47521" lon="-4.41758">
        <ele>615.0</ele>
        <time>2018-06-09T08:21:00.192Z</time>
      </trkpt>
      <trkpt lat="37.47521" lon="-4.41758">
        <ele>615.0</ele>
        <time>2018-06-09T08:21:01.193Z</time>
      </trkpt>
      <trkpt lat="37.47522167" lon="-4.41755333">
        <ele>616.0</ele>
        <time>2018-06-09T08:21:02.161Z</time>
      </trkpt>
      <trkpt lat="37.47522167" lon="-4.41755333">
        <ele>616.0</ele>
        <time>2018-06-09T08:21:03.175Z</time>
      </trkpt>
      <trkpt lat="37.47522833" lon="-4.41752667">
        <ele>616.0</ele>
        <time>2018-06-09T08:21:04.182Z</time>
      </trkpt>
      <trkpt lat="37.47522833" lon="-4.41752667">
        <ele>616.0</ele>
        <time>2018-06-09T08:21:05.157Z</time>
      </trkpt>
      <trkpt lat="37.47523333" lon="-4.41749667">
        <ele>617.0</ele>
        <time>2018-06-09T08:21:06.166Z</time>
      </trkpt>
      <trkpt lat="37.47523833" lon="-4.41748333">
        <ele>617.0</ele>
        <time>2018-06-09T08:21:07.175Z</time>
      </trkpt>
      <trkpt lat="37.47524" lon="-4.41746833">
        <ele>617.0</ele>
        <time>2018-06-09T08:21:08.198Z</time>
      </trkpt>
      <trkpt lat="37.47524" lon="-4.41746833">
        <ele>617.0</ele>
        <time>2018-06-09T08:21:09.187Z</time>
      </trkpt>
      <trkpt lat="37.47524333" lon="-4.41743667">
        <ele>618.0</ele>
        <time>2018-06-09T08:21:10.195Z</time>
      </trkpt>
      <trkpt lat="37.475245" lon="-4.41742">
        <ele>618.0</ele>
        <time>2018-06-09T08:21:11.177Z</time>
      </trkpt>
      <trkpt lat="37.475245" lon="-4.41742">
        <ele>618.0</ele>
        <time>2018-06-09T08:21:12.163Z</time>
      </trkpt>
      <trkpt lat="37.47524833" lon="-4.41739">
        <ele>618.0</ele>
        <time>2018-06-09T08:21:13.185Z</time>
      </trkpt>
      <trkpt lat="37.47524833" lon="-4.41739">
        <ele>618.0</ele>
        <time>2018-06-09T08:21:14.176Z</time>
      </trkpt>
      <trkpt lat="37.47524667" lon="-4.41735667">
        <ele>619.0</ele>
        <time>2018-06-09T08:21:15.182Z</time>
      </trkpt>
      <trkpt lat="37.47524667" lon="-4.41735667">
        <ele>619.0</ele>
        <time>2018-06-09T08:21:16.159Z</time>
      </trkpt>
      <trkpt lat="37.475245" lon="-4.417325">
        <ele>619.0</ele>
        <time>2018-06-09T08:21:17.160Z</time>
      </trkpt>
      <trkpt lat="37.475245" lon="-4.417325">
        <ele>619.0</ele>
        <time>2018-06-09T08:21:18.166Z</time>
      </trkpt>
      <trkpt lat="37.475245" lon="-4.41729667">
        <ele>620.0</ele>
        <time>2018-06-09T08:21:19.173Z</time>
      </trkpt>
      <trkpt lat="37.475245" lon="-4.41728833">
        <ele>620.0</ele>
        <time>2018-06-09T08:21:20.171Z</time>
      </trkpt>
      <trkpt lat="37.475245" lon="-4.41728833">
        <ele>620.0</ele>
        <time>2018-06-09T08:21:21.187Z</time>
      </trkpt>
      <trkpt lat="37.47524333" lon="-4.41725833">
        <ele>620.0</ele>
        <time>2018-06-09T08:21:22.195Z</time>
      </trkpt>
      <trkpt lat="37.475245" lon="-4.41724667">
        <ele>621.0</ele>
        <time>2018-06-09T08:21:23.169Z</time>
      </trkpt>
      <trkpt lat="37.475245" lon="-4.41724667">
        <ele>621.0</ele>
        <time>2018-06-09T08:21:24.168Z</time>
      </trkpt>
      <trkpt lat="37.47524333" lon="-4.41722">
        <ele>621.0</ele>
        <time>2018-06-09T08:21:25.175Z</time>
      </trkpt>
      <trkpt lat="37.47524333" lon="-4.41720667">
        <ele>622.0</ele>
        <time>2018-06-09T08:21:26.196Z</time>
      </trkpt>
      <trkpt lat="37.47524333" lon="-4.41720667">
        <ele>622.0</ele>
        <time>2018-06-09T08:21:27.175Z</time>
      </trkpt>
      <trkpt lat="37.47524167" lon="-4.417175">
        <ele>622.0</ele>
        <time>2018-06-09T08:21:28.182Z</time>
      </trkpt>
      <trkpt lat="37.47524167" lon="-4.417175">
        <ele>622.0</ele>
        <time>2018-06-09T08:21:29.163Z</time>
      </trkpt>
      <trkpt lat="37.475245" lon="-4.41714">
        <ele>622.0</ele>
        <time>2018-06-09T08:21:30.159Z</time>
      </trkpt>
      <trkpt lat="37.475245" lon="-4.41714">
        <ele>622.0</ele>
        <time>2018-06-09T08:21:31.158Z</time>
      </trkpt>
      <trkpt lat="37.47523667" lon="-4.41710667">
        <ele>623.0</ele>
        <time>2018-06-09T08:21:32.165Z</time>
      </trkpt>
      <trkpt lat="37.47523667" lon="-4.41710667">
        <ele>623.0</ele>
        <time>2018-06-09T08:21:33.182Z</time>
      </trkpt>
      <trkpt lat="37.47523" lon="-4.41707667">
        <ele>623.0</ele>
        <time>2018-06-09T08:21:34.162Z</time>
      </trkpt>
      <trkpt lat="37.47523" lon="-4.41707667">
        <ele>623.0</ele>
        <time>2018-06-09T08:21:35.165Z</time>
      </trkpt>
      <trkpt lat="37.47523167" lon="-4.41705167">
        <ele>624.0</ele>
        <time>2018-06-09T08:21:36.171Z</time>
      </trkpt>
      <trkpt lat="37.47524167" lon="-4.41704">
        <ele>624.0</ele>
        <time>2018-06-09T08:21:37.158Z</time>
      </trkpt>
      <trkpt lat="37.47524167" lon="-4.41704">
        <ele>624.0</ele>
        <time>2018-06-09T08:21:38.157Z</time>
      </trkpt>
      <trkpt lat="37.47526833" lon="-4.41701333">
        <ele>624.0</ele>
        <time>2018-06-09T08:21:39.163Z</time>
      </trkpt>
      <trkpt lat="37.47526833" lon="-4.41701333">
        <ele>624.0</ele>
        <time>2018-06-09T08:21:40.182Z</time>
      </trkpt>
      <trkpt lat="37.47528667" lon="-4.416995">
        <ele>625.0</ele>
        <time>2018-06-09T08:21:41.195Z</time>
      </trkpt>
      <trkpt lat="37.47528667" lon="-4.416995">
        <ele>625.0</ele>
        <time>2018-06-09T08:21:42.158Z</time>
      </trkpt>
      <trkpt lat="37.475305" lon="-4.41698">
        <ele>625.0</ele>
        <time>2018-06-09T08:21:43.165Z</time>
      </trkpt>
      <trkpt lat="37.47531333" lon="-4.41697">
        <ele>625.0</ele>
        <time>2018-06-09T08:21:44.180Z</time>
      </trkpt>
      <trkpt lat="37.47531333" lon="-4.41697">
        <ele>625.0</ele>
        <time>2018-06-09T08:21:45.166Z</time>
      </trkpt>
      <trkpt lat="37.47531667" lon="-4.41694833">
        <ele>626.0</ele>
        <time>2018-06-09T08:21:46.172Z</time>
      </trkpt>
      <trkpt lat="37.47531667" lon="-4.41694833">
        <ele>626.0</ele>
        <time>2018-06-09T08:21:47.186Z</time>
      </trkpt>
      <trkpt lat="37.47531833" lon="-4.41691833">
        <ele>626.0</ele>
        <time>2018-06-09T08:21:48.196Z</time>
      </trkpt>
      <trkpt lat="37.47531833" lon="-4.41691833">
        <ele>626.0</ele>
        <time>2018-06-09T08:21:49.173Z</time>
      </trkpt>
      <trkpt lat="37.475335" lon="-4.41689833">
        <ele>626.0</ele>
        <time>2018-06-09T08:21:50.184Z</time>
      </trkpt>
      <trkpt lat="37.475335" lon="-4.41689833">
        <ele>626.0</ele>
        <time>2018-06-09T08:21:51.166Z</time>
      </trkpt>
      <trkpt lat="37.47534333" lon="-4.41691">
        <ele>627.0</ele>
        <time>2018-06-09T08:21:52.172Z</time>
      </trkpt>
      <trkpt lat="37.475335" lon="-4.41692167">
        <ele>627.0</ele>
        <time>2018-06-09T08:21:53.168Z</time>
      </trkpt>
      <trkpt lat="37.475335" lon="-4.41692167">
        <ele>627.0</ele>
        <time>2018-06-09T08:21:54.194Z</time>
      </trkpt>
      <trkpt lat="37.475305" lon="-4.41695333">
        <ele>626.0</ele>
        <time>2018-06-09T08:21:55.161Z</time>
      </trkpt>
      <trkpt lat="37.47528833" lon="-4.41697167">
        <ele>626.0</ele>
        <time>2018-06-09T08:21:56.177Z</time>
      </trkpt>
      <trkpt lat="37.47528833" lon="-4.41697167">
        <ele>626.0</ele>
        <time>2018-06-09T08:21:57.168Z</time>
      </trkpt>
      <trkpt lat="37.475255" lon="-4.41701333">
        <ele>626.0</ele>
        <time>2018-06-09T08:21:58.191Z</time>
      </trkpt>
      <trkpt lat="37.475255" lon="-4.41701333">
        <ele>626.0</ele>
        <time>2018-06-09T08:21:59.166Z</time>
      </trkpt>
      <trkpt lat="37.47523167" lon="-4.41705833">
        <ele>626.0</ele>
        <time>2018-06-09T08:22:00.179Z</time>
      </trkpt>
      <trkpt lat="37.47523167" lon="-4.41705833">
        <ele>626.0</ele>
        <time>2018-06-09T08:22:01.158Z</time>
      </trkpt>
      <trkpt lat="37.47522167" lon="-4.41710167">
        <ele>625.0</ele>
        <time>2018-06-09T08:22:02.180Z</time>
      </trkpt>
      <trkpt lat="37.47522167" lon="-4.41710167">
        <ele>625.0</ele>
        <time>2018-06-09T08:22:03.177Z</time>
      </trkpt>
      <trkpt lat="37.47522167" lon="-4.41716">
        <ele>624.0</ele>
        <time>2018-06-09T08:22:04.183Z</time>
      </trkpt>
      <trkpt lat="37.47522167" lon="-4.41719">
        <ele>623.0</ele>
        <time>2018-06-09T08:22:05.182Z</time>
      </trkpt>
      <trkpt lat="37.47522167" lon="-4.41719">
        <ele>623.0</ele>
        <time>2018-06-09T08:22:06.165Z</time>
      </trkpt>
      <trkpt lat="37.47522667" lon="-4.41725">
        <ele>623.0</ele>
        <time>2018-06-09T08:22:07.171Z</time>
      </trkpt>
      <trkpt lat="37.47522833" lon="-4.41727833">
        <ele>622.0</ele>
        <time>2018-06-09T08:22:08.191Z</time>
      </trkpt>
      <trkpt lat="37.47522833" lon="-4.41727833">
        <ele>622.0</ele>
        <time>2018-06-09T08:22:09.176Z</time>
      </trkpt>
      <trkpt lat="37.47523667" lon="-4.41733167">
        <ele>621.0</ele>
        <time>2018-06-09T08:22:10.182Z</time>
      </trkpt>
      <trkpt lat="37.47524" lon="-4.41736333">
        <ele>620.0</ele>
        <time>2018-06-09T08:22:11.191Z</time>
      </trkpt>
      <trkpt lat="37.47524333" lon="-4.41739333">
        <ele>619.0</ele>
        <time>2018-06-09T08:22:12.159Z</time>
      </trkpt>
      <trkpt lat="37.47524333" lon="-4.41739333">
        <ele>619.0</ele>
        <time>2018-06-09T08:22:13.157Z</time>
      </trkpt>
      <trkpt lat="37.47524" lon="-4.41745333">
        <ele>618.0</ele>
        <time>2018-06-09T08:22:14.164Z</time>
      </trkpt>
      <trkpt lat="37.47524" lon="-4.41745333">
        <ele>618.0</ele>
        <time>2018-06-09T08:22:15.176Z</time>
      </trkpt>
      <trkpt lat="37.475225" lon="-4.41751833">
        <ele>618.0</ele>
        <time>2018-06-09T08:22:16.189Z</time>
      </trkpt>
      <trkpt lat="37.475225" lon="-4.41751833">
        <ele>618.0</ele>
        <time>2018-06-09T08:22:17.158Z</time>
      </trkpt>
      <trkpt lat="37.47520667" lon="-4.41757">
        <ele>617.0</ele>
        <time>2018-06-09T08:22:18.163Z</time>
      </trkpt>
      <trkpt lat="37.47519333" lon="-4.41759333">
        <ele>616.0</ele>
        <time>2018-06-09T08:22:19.171Z</time>
      </trkpt>
      <trkpt lat="37.47518" lon="-4.41761333">
        <ele>616.0</ele>
        <time>2018-06-09T08:22:20.179Z</time>
      </trkpt>
      <trkpt lat="37.47518" lon="-4.41761333">
        <ele>616.0</ele>
        <time>2018-06-09T08:22:21.157Z</time>
      </trkpt>
      <trkpt lat="37.47515833" lon="-4.41765667">
        <ele>615.0</ele>
        <time>2018-06-09T08:22:22.163Z</time>
      </trkpt>
      <trkpt lat="37.47515833" lon="-4.41765667">
        <ele>615.0</ele>
        <time>2018-06-09T08:22:23.170Z</time>
      </trkpt>
      <trkpt lat="37.47514167" lon="-4.417705">
        <ele>614.0</ele>
        <time>2018-06-09T08:22:24.177Z</time>
      </trkpt>
      <trkpt lat="37.47513333" lon="-4.41773333">
        <ele>613.0</ele>
        <time>2018-06-09T08:22:25.178Z</time>
      </trkpt>
      <trkpt lat="37.47513333" lon="-4.41773333">
        <ele>613.0</ele>
        <time>2018-06-09T08:22:26.162Z</time>
      </trkpt>
      <trkpt lat="37.47510833" lon="-4.41779667">
        <ele>612.0</ele>
        <time>2018-06-09T08:22:27.168Z</time>
      </trkpt>
      <trkpt lat="37.47510833" lon="-4.41779667">
        <ele>612.0</ele>
        <time>2018-06-09T08:22:28.179Z</time>
      </trkpt>
      <trkpt lat="37.47508667" lon="-4.41786333">
        <ele>611.0</ele>
        <time>2018-06-09T08:22:29.180Z</time>
      </trkpt>
      <trkpt lat="37.47508667" lon="-4.41786333">
        <ele>611.0</ele>
        <time>2018-06-09T08:22:30.191Z</time>
      </trkpt>
      <trkpt lat="37.47507" lon="-4.41793">
        <ele>610.0</ele>
        <time>2018-06-09T08:22:31.158Z</time>
      </trkpt>
      <trkpt lat="37.475065" lon="-4.41796167">
        <ele>609.0</ele>
        <time>2018-06-09T08:22:32.177Z</time>
      </trkpt>
      <trkpt lat="37.475065" lon="-4.41796167">
        <ele>609.0</ele>
        <time>2018-06-09T08:22:33.167Z</time>
      </trkpt>
      <trkpt lat="37.475055" lon="-4.41803667">
        <ele>608.0</ele>
        <time>2018-06-09T08:22:34.194Z</time>
      </trkpt>
      <trkpt lat="37.475055" lon="-4.41803667">
        <ele>608.0</ele>
        <time>2018-06-09T08:22:35.158Z</time>
      </trkpt>
      <trkpt lat="37.47505" lon="-4.41811667">
        <ele>606.0</ele>
        <time>2018-06-09T08:22:36.166Z</time>
      </trkpt>
      <trkpt lat="37.47505" lon="-4.41811667">
        <ele>606.0</ele>
        <time>2018-06-09T08:22:37.184Z</time>
      </trkpt>
      <trkpt lat="37.47504333" lon="-4.41820667">
        <ele>605.0</ele>
        <time>2018-06-09T08:22:38.159Z</time>
      </trkpt>
      <trkpt lat="37.47504333" lon="-4.41820667">
        <ele>605.0</ele>
        <time>2018-06-09T08:22:39.158Z</time>
      </trkpt>
      <trkpt lat="37.47503667" lon="-4.41830667">
        <ele>603.0</ele>
        <time>2018-06-09T08:22:40.165Z</time>
      </trkpt>
      <trkpt lat="37.47503333" lon="-4.41835667">
        <ele>603.0</ele>
        <time>2018-06-09T08:22:41.182Z</time>
      </trkpt>
      <trkpt lat="37.47503333" lon="-4.41835667">
        <ele>603.0</ele>
        <time>2018-06-09T08:22:42.186Z</time>
      </trkpt>
      <trkpt lat="37.47502333" lon="-4.41845667">
        <ele>601.0</ele>
        <time>2018-06-09T08:22:43.192Z</time>
      </trkpt>
      <trkpt lat="37.47501833" lon="-4.418505">
        <ele>601.0</ele>
        <time>2018-06-09T08:22:44.161Z</time>
      </trkpt>
      <trkpt lat="37.47501833" lon="-4.418505">
        <ele>601.0</ele>
        <time>2018-06-09T08:22:45.182Z</time>
      </trkpt>
      <trkpt lat="37.47501333" lon="-4.4186">
        <ele>599.0</ele>
        <time>2018-06-09T08:22:46.189Z</time>
      </trkpt>
      <trkpt lat="37.47501333" lon="-4.4186">
        <ele>599.0</ele>
        <time>2018-06-09T08:22:47.163Z</time>
      </trkpt>
      <trkpt lat="37.475005" lon="-4.41869833">
        <ele>598.0</ele>
        <time>2018-06-09T08:22:48.159Z</time>
      </trkpt>
      <trkpt lat="37.475005" lon="-4.41869833">
        <ele>598.0</ele>
        <time>2018-06-09T08:22:49.177Z</time>
      </trkpt>
      <trkpt lat="37.47499833" lon="-4.41879833">
        <ele>596.0</ele>
        <time>2018-06-09T08:22:50.161Z</time>
      </trkpt>
      <trkpt lat="37.47499833" lon="-4.41879833">
        <ele>596.0</ele>
        <time>2018-06-09T08:22:51.157Z</time>
      </trkpt>
      <trkpt lat="37.475005" lon="-4.41891833">
        <ele>594.0</ele>
        <time>2018-06-09T08:22:52.163Z</time>
      </trkpt>
      <trkpt lat="37.475005" lon="-4.41891833">
        <ele>594.0</ele>
        <time>2018-06-09T08:22:53.181Z</time>
      </trkpt>
      <trkpt lat="37.47503167" lon="-4.41907333">
        <ele>592.0</ele>
        <time>2018-06-09T08:22:54.181Z</time>
      </trkpt>
      <trkpt lat="37.47503167" lon="-4.41907333">
        <ele>592.0</ele>
        <time>2018-06-09T08:22:55.167Z</time>
      </trkpt>
      <trkpt lat="37.47505333" lon="-4.419235">
        <ele>591.0</ele>
        <time>2018-06-09T08:22:56.173Z</time>
      </trkpt>
      <trkpt lat="37.47506667" lon="-4.41931167">
        <ele>590.0</ele>
        <time>2018-06-09T08:22:57.161Z</time>
      </trkpt>
      <trkpt lat="37.47506667" lon="-4.41931167">
        <ele>590.0</ele>
        <time>2018-06-09T08:22:58.158Z</time>
      </trkpt>
      <trkpt lat="37.47509333" lon="-4.41945">
        <ele>589.0</ele>
        <time>2018-06-09T08:22:59.165Z</time>
      </trkpt>
      <trkpt lat="37.47509333" lon="-4.41945">
        <ele>589.0</ele>
        <time>2018-06-09T08:23:00.185Z</time>
      </trkpt>
      <trkpt lat="37.47510667" lon="-4.41956333">
        <ele>587.0</ele>
        <time>2018-06-09T08:23:01.197Z</time>
      </trkpt>
      <trkpt lat="37.47510667" lon="-4.41956333">
        <ele>587.0</ele>
        <time>2018-06-09T08:23:02.172Z</time>
      </trkpt>
      <trkpt lat="37.47511167" lon="-4.419675">
        <ele>585.0</ele>
        <time>2018-06-09T08:23:03.178Z</time>
      </trkpt>
      <trkpt lat="37.47511" lon="-4.419735">
        <ele>584.0</ele>
        <time>2018-06-09T08:23:04.192Z</time>
      </trkpt>
      <trkpt lat="37.47511" lon="-4.419735">
        <ele>584.0</ele>
        <time>2018-06-09T08:23:05.164Z</time>
      </trkpt>
      <trkpt lat="37.47511667" lon="-4.41986">
        <ele>583.0</ele>
        <time>2018-06-09T08:23:06.170Z</time>
      </trkpt>
      <trkpt lat="37.47513" lon="-4.41992833">
        <ele>582.0</ele>
        <time>2018-06-09T08:23:07.193Z</time>
      </trkpt>
      <trkpt lat="37.47513" lon="-4.41992833">
        <ele>582.0</ele>
        <time>2018-06-09T08:23:08.186Z</time>
      </trkpt>
      <trkpt lat="37.47515833" lon="-4.42006">
        <ele>580.0</ele>
        <time>2018-06-09T08:23:09.157Z</time>
      </trkpt>
      <trkpt lat="37.475175" lon="-4.42012167">
        <ele>579.0</ele>
        <time>2018-06-09T08:23:10.181Z</time>
      </trkpt>
      <trkpt lat="37.475175" lon="-4.42012167">
        <ele>579.0</ele>
        <time>2018-06-09T08:23:11.184Z</time>
      </trkpt>
      <trkpt lat="37.475215" lon="-4.42023">
        <ele>578.0</ele>
        <time>2018-06-09T08:23:12.191Z</time>
      </trkpt>
      <trkpt lat="37.475215" lon="-4.42023">
        <ele>578.0</ele>
        <time>2018-06-09T08:23:13.169Z</time>
      </trkpt>
      <trkpt lat="37.475275" lon="-4.42032">
        <ele>577.0</ele>
        <time>2018-06-09T08:23:14.158Z</time>
      </trkpt>
      <trkpt lat="37.475275" lon="-4.42032">
        <ele>577.0</ele>
        <time>2018-06-09T08:23:15.166Z</time>
      </trkpt>
      <trkpt lat="37.47533333" lon="-4.42042833">
        <ele>575.0</ele>
        <time>2018-06-09T08:23:16.171Z</time>
      </trkpt>
      <trkpt lat="37.47535167" lon="-4.42049">
        <ele>574.0</ele>
        <time>2018-06-09T08:23:17.193Z</time>
      </trkpt>
      <trkpt lat="37.47535167" lon="-4.42049">
        <ele>574.0</ele>
        <time>2018-06-09T08:23:18.163Z</time>
      </trkpt>
      <trkpt lat="37.47537333" lon="-4.420615">
        <ele>574.0</ele>
        <time>2018-06-09T08:23:19.191Z</time>
      </trkpt>
      <trkpt lat="37.47537333" lon="-4.420615">
        <ele>574.0</ele>
        <time>2018-06-09T08:23:20.174Z</time>
      </trkpt>
      <trkpt lat="37.47539833" lon="-4.42073">
        <ele>573.0</ele>
        <time>2018-06-09T08:23:21.180Z</time>
      </trkpt>
      <trkpt lat="37.47539833" lon="-4.42073">
        <ele>573.0</ele>
        <time>2018-06-09T08:23:22.158Z</time>
      </trkpt>
      <trkpt lat="37.47543333" lon="-4.42084">
        <ele>572.0</ele>
        <time>2018-06-09T08:23:23.192Z</time>
      </trkpt>
      <trkpt lat="37.475455" lon="-4.42089667">
        <ele>571.0</ele>
        <time>2018-06-09T08:23:24.157Z</time>
      </trkpt>
      <trkpt lat="37.475455" lon="-4.42089667">
        <ele>571.0</ele>
        <time>2018-06-09T08:23:25.173Z</time>
      </trkpt>
      <trkpt lat="37.47551" lon="-4.42100667">
        <ele>569.0</ele>
        <time>2018-06-09T08:23:26.161Z</time>
      </trkpt>
      <trkpt lat="37.47551" lon="-4.42100667">
        <ele>569.0</ele>
        <time>2018-06-09T08:23:27.157Z</time>
      </trkpt>
      <trkpt lat="37.47557" lon="-4.42112167">
        <ele>567.0</ele>
        <time>2018-06-09T08:23:28.163Z</time>
      </trkpt>
      <trkpt lat="37.47557" lon="-4.42112167">
        <ele>567.0</ele>
        <time>2018-06-09T08:23:29.182Z</time>
      </trkpt>
      <trkpt lat="37.47562833" lon="-4.421235">
        <ele>565.0</ele>
        <time>2018-06-09T08:23:30.194Z</time>
      </trkpt>
      <trkpt lat="37.47562833" lon="-4.421235">
        <ele>565.0</ele>
        <time>2018-06-09T08:23:31.168Z</time>
      </trkpt>
      <trkpt lat="37.47568667" lon="-4.42135333">
        <ele>563.0</ele>
        <time>2018-06-09T08:23:32.174Z</time>
      </trkpt>
      <trkpt lat="37.47568667" lon="-4.42135333">
        <ele>563.0</ele>
        <time>2018-06-09T08:23:33.162Z</time>
      </trkpt>
      <trkpt lat="37.47575" lon="-4.42146833">
        <ele>561.0</ele>
        <time>2018-06-09T08:23:34.181Z</time>
      </trkpt>
      <trkpt lat="37.47575" lon="-4.42146833">
        <ele>561.0</ele>
        <time>2018-06-09T08:23:35.175Z</time>
      </trkpt>
      <trkpt lat="37.47581833" lon="-4.42156333">
        <ele>559.0</ele>
        <time>2018-06-09T08:23:36.188Z</time>
      </trkpt>
      <trkpt lat="37.47585667" lon="-4.42160167">
        <ele>558.0</ele>
        <time>2018-06-09T08:23:37.166Z</time>
      </trkpt>
      <trkpt lat="37.4759" lon="-4.42163667">
        <ele>558.0</ele>
        <time>2018-06-09T08:23:38.185Z</time>
      </trkpt>
      <trkpt lat="37.4759" lon="-4.42163667">
        <ele>558.0</ele>
        <time>2018-06-09T08:23:39.191Z</time>
      </trkpt>
      <trkpt lat="37.47598833" lon="-4.42169667">
        <ele>556.0</ele>
        <time>2018-06-09T08:23:40.157Z</time>
      </trkpt>
      <trkpt lat="37.476025" lon="-4.42172833">
        <ele>555.0</ele>
        <time>2018-06-09T08:23:41.175Z</time>
      </trkpt>
      <trkpt lat="37.476025" lon="-4.42172833">
        <ele>555.0</ele>
        <time>2018-06-09T08:23:42.163Z</time>
      </trkpt>
      <trkpt lat="37.47609833" lon="-4.42179333">
        <ele>553.0</ele>
        <time>2018-06-09T08:23:43.176Z</time>
      </trkpt>
      <trkpt lat="37.476135" lon="-4.42182667">
        <ele>552.0</ele>
        <time>2018-06-09T08:23:44.178Z</time>
      </trkpt>
      <trkpt lat="37.476135" lon="-4.42182667">
        <ele>552.0</ele>
        <time>2018-06-09T08:23:45.197Z</time>
      </trkpt>
      <trkpt lat="37.47621" lon="-4.42189833">
        <ele>551.0</ele>
        <time>2018-06-09T08:23:46.162Z</time>
      </trkpt>
      <trkpt lat="37.476245" lon="-4.42193667">
        <ele>550.0</ele>
        <time>2018-06-09T08:23:47.167Z</time>
      </trkpt>
      <trkpt lat="37.476245" lon="-4.42193667">
        <ele>550.0</ele>
        <time>2018-06-09T08:23:48.196Z</time>
      </trkpt>
      <trkpt lat="37.47632" lon="-4.42202167">
        <ele>548.0</ele>
        <time>2018-06-09T08:23:49.168Z</time>
      </trkpt>
      <trkpt lat="37.47636333" lon="-4.42207">
        <ele>546.0</ele>
        <time>2018-06-09T08:23:50.187Z</time>
      </trkpt>
      <trkpt lat="37.47636333" lon="-4.42207">
        <ele>546.0</ele>
        <time>2018-06-09T08:23:51.161Z</time>
      </trkpt>
      <trkpt lat="37.47644833" lon="-4.42218667">
        <ele>543.0</ele>
        <time>2018-06-09T08:23:52.168Z</time>
      </trkpt>
      <trkpt lat="37.47644833" lon="-4.42218667">
        <ele>543.0</ele>
        <time>2018-06-09T08:23:53.186Z</time>
      </trkpt>
      <trkpt lat="37.47653" lon="-4.42230833">
        <ele>541.0</ele>
        <time>2018-06-09T08:23:54.191Z</time>
      </trkpt>
      <trkpt lat="37.476575" lon="-4.422375">
        <ele>540.0</ele>
        <time>2018-06-09T08:23:55.194Z</time>
      </trkpt>
      <trkpt lat="37.476575" lon="-4.422375">
        <ele>540.0</ele>
        <time>2018-06-09T08:23:56.171Z</time>
      </trkpt>
      <trkpt lat="37.476675" lon="-4.42252833">
        <ele>537.0</ele>
        <time>2018-06-09T08:23:57.177Z</time>
      </trkpt>
      <trkpt lat="37.47672333" lon="-4.42260167">
        <ele>536.0</ele>
        <time>2018-06-09T08:23:58.188Z</time>
      </trkpt>
      <trkpt lat="37.47672333" lon="-4.42260167">
        <ele>536.0</ele>
        <time>2018-06-09T08:23:59.186Z</time>
      </trkpt>
      <trkpt lat="37.476815" lon="-4.422745">
        <ele>534.0</ele>
        <time>2018-06-09T08:24:00.158Z</time>
      </trkpt>
      <trkpt lat="37.47686167" lon="-4.42281167">
        <ele>533.0</ele>
        <time>2018-06-09T08:24:01.174Z</time>
      </trkpt>
      <trkpt lat="37.47691333" lon="-4.42287333">
        <ele>532.0</ele>
        <time>2018-06-09T08:24:02.181Z</time>
      </trkpt>
      <trkpt lat="37.47691333" lon="-4.42287333">
        <ele>532.0</ele>
        <time>2018-06-09T08:24:03.195Z</time>
      </trkpt>
      <trkpt lat="37.47701" lon="-4.422975">
        <ele>531.0</ele>
        <time>2018-06-09T08:24:04.161Z</time>
      </trkpt>
      <trkpt lat="37.47701" lon="-4.422975">
        <ele>531.0</ele>
        <time>2018-06-09T08:24:05.179Z</time>
      </trkpt>
      <trkpt lat="37.477085" lon="-4.42304667">
        <ele>529.0</ele>
        <time>2018-06-09T08:24:06.181Z</time>
      </trkpt>
      <trkpt lat="37.47711833" lon="-4.42307833">
        <ele>528.0</ele>
        <time>2018-06-09T08:24:07.173Z</time>
      </trkpt>
      <trkpt lat="37.47711833" lon="-4.42307833">
        <ele>528.0</ele>
        <time>2018-06-09T08:24:08.157Z</time>
      </trkpt>
      <trkpt lat="37.47718" lon="-4.42314167">
        <ele>526.0</ele>
        <time>2018-06-09T08:24:09.181Z</time>
      </trkpt>
      <trkpt lat="37.47718" lon="-4.42314167">
        <ele>526.0</ele>
        <time>2018-06-09T08:24:10.186Z</time>
      </trkpt>
      <trkpt lat="37.47723667" lon="-4.42321333">
        <ele>524.0</ele>
        <time>2018-06-09T08:24:11.159Z</time>
      </trkpt>
      <trkpt lat="37.47725833" lon="-4.42325667">
        <ele>523.0</ele>
        <time>2018-06-09T08:24:12.176Z</time>
      </trkpt>
      <trkpt lat="37.477275" lon="-4.42330333">
        <ele>522.0</ele>
        <time>2018-06-09T08:24:13.191Z</time>
      </trkpt>
      <trkpt lat="37.47728667" lon="-4.42335333">
        <ele>521.0</ele>
        <time>2018-06-09T08:24:14.177Z</time>
      </trkpt>
      <trkpt lat="37.47728667" lon="-4.42335333">
        <ele>521.0</ele>
        <time>2018-06-09T08:24:15.196Z</time>
      </trkpt>
      <trkpt lat="37.47729333" lon="-4.42346">
        <ele>519.0</ele>
        <time>2018-06-09T08:24:16.160Z</time>
      </trkpt>
      <trkpt lat="37.47729333" lon="-4.42346">
        <ele>519.0</ele>
        <time>2018-06-09T08:24:17.196Z</time>
      </trkpt>
      <trkpt lat="37.47727" lon="-4.42359667">
        <ele>516.0</ele>
        <time>2018-06-09T08:24:18.165Z</time>
      </trkpt>
      <trkpt lat="37.47727" lon="-4.42359667">
        <ele>516.0</ele>
        <time>2018-06-09T08:24:19.183Z</time>
      </trkpt>
      <trkpt lat="37.477215" lon="-4.42377167">
        <ele>515.0</ele>
        <time>2018-06-09T08:24:20.194Z</time>
      </trkpt>
      <trkpt lat="37.477215" lon="-4.42377167">
        <ele>515.0</ele>
        <time>2018-06-09T08:24:21.168Z</time>
      </trkpt>
      <trkpt lat="37.47716833" lon="-4.42394">
        <ele>514.0</ele>
        <time>2018-06-09T08:24:22.174Z</time>
      </trkpt>
      <trkpt lat="37.47715167" lon="-4.42401833">
        <ele>513.0</ele>
        <time>2018-06-09T08:24:23.159Z</time>
      </trkpt>
      <trkpt lat="37.47715167" lon="-4.42401833">
        <ele>513.0</ele>
        <time>2018-06-09T08:24:24.190Z</time>
      </trkpt>
      <trkpt lat="37.47712" lon="-4.42414667">
        <ele>512.0</ele>
        <time>2018-06-09T08:24:25.157Z</time>
      </trkpt>
      <trkpt lat="37.47712" lon="-4.42414667">
        <ele>512.0</ele>
        <time>2018-06-09T08:24:26.174Z</time>
      </trkpt>
      <trkpt lat="37.47710833" lon="-4.42423">
        <ele>512.0</ele>
        <time>2018-06-09T08:24:27.160Z</time>
      </trkpt>
      <trkpt lat="37.47710833" lon="-4.42423">
        <ele>512.0</ele>
        <time>2018-06-09T08:24:28.159Z</time>
      </trkpt>
      <trkpt lat="37.47708" lon="-4.42427">
        <ele>512.0</ele>
        <time>2018-06-09T08:24:29.167Z</time>
      </trkpt>
      <trkpt lat="37.47706167" lon="-4.42428">
        <ele>512.0</ele>
        <time>2018-06-09T08:24:30.192Z</time>
      </trkpt>
      <trkpt lat="37.47704167" lon="-4.42428167">
        <ele>513.0</ele>
        <time>2018-06-09T08:24:31.177Z</time>
      </trkpt>
      <trkpt lat="37.47704167" lon="-4.42428167">
        <ele>513.0</ele>
        <time>2018-06-09T08:24:32.158Z</time>
      </trkpt>
      <trkpt lat="37.47700667" lon="-4.42427833">
        <ele>512.0</ele>
        <time>2018-06-09T08:24:33.169Z</time>
      </trkpt>
      <trkpt lat="37.47700667" lon="-4.42427833">
        <ele>512.0</ele>
        <time>2018-06-09T08:24:34.191Z</time>
      </trkpt>
      <trkpt lat="37.47696833" lon="-4.42426667">
        <ele>512.0</ele>
        <time>2018-06-09T08:24:35.163Z</time>
      </trkpt>
      <trkpt lat="37.47696833" lon="-4.42426667">
        <ele>512.0</ele>
        <time>2018-06-09T08:24:36.169Z</time>
      </trkpt>
      <trkpt lat="37.476925" lon="-4.42425833">
        <ele>512.0</ele>
        <time>2018-06-09T08:24:37.160Z</time>
      </trkpt>
      <trkpt lat="37.476905" lon="-4.42425333">
        <ele>512.0</ele>
        <time>2018-06-09T08:24:38.157Z</time>
      </trkpt>
      <trkpt lat="37.476905" lon="-4.42425333">
        <ele>512.0</ele>
        <time>2018-06-09T08:24:39.173Z</time>
      </trkpt>
      <trkpt lat="37.47686" lon="-4.42424">
        <ele>512.0</ele>
        <time>2018-06-09T08:24:40.185Z</time>
      </trkpt>
      <trkpt lat="37.476835" lon="-4.42423833">
        <ele>512.0</ele>
        <time>2018-06-09T08:24:41.180Z</time>
      </trkpt>
      <trkpt lat="37.47681167" lon="-4.424235">
        <ele>512.0</ele>
        <time>2018-06-09T08:24:42.161Z</time>
      </trkpt>
      <trkpt lat="37.476785" lon="-4.42423167">
        <ele>511.0</ele>
        <time>2018-06-09T08:24:43.176Z</time>
      </trkpt>
      <trkpt lat="37.476785" lon="-4.42423167">
        <ele>511.0</ele>
        <time>2018-06-09T08:24:44.158Z</time>
      </trkpt>
      <trkpt lat="37.47673" lon="-4.42423167">
        <ele>511.0</ele>
        <time>2018-06-09T08:24:45.174Z</time>
      </trkpt>
      <trkpt lat="37.47673" lon="-4.42423167">
        <ele>511.0</ele>
        <time>2018-06-09T08:24:46.178Z</time>
      </trkpt>
      <trkpt lat="37.47667333" lon="-4.424225">
        <ele>511.0</ele>
        <time>2018-06-09T08:24:47.176Z</time>
      </trkpt>
      <trkpt lat="37.47667333" lon="-4.424225">
        <ele>511.0</ele>
        <time>2018-06-09T08:24:48.195Z</time>
      </trkpt>
      <trkpt lat="37.47661667" lon="-4.42421667">
        <ele>511.0</ele>
        <time>2018-06-09T08:24:49.174Z</time>
      </trkpt>
      <trkpt lat="37.47659" lon="-4.424215">
        <ele>511.0</ele>
        <time>2018-06-09T08:24:50.165Z</time>
      </trkpt>
      <trkpt lat="37.47659" lon="-4.424215">
        <ele>511.0</ele>
        <time>2018-06-09T08:24:51.186Z</time>
      </trkpt>
      <trkpt lat="37.47653" lon="-4.424215">
        <ele>511.0</ele>
        <time>2018-06-09T08:24:52.158Z</time>
      </trkpt>
      <trkpt lat="37.47653" lon="-4.424215">
        <ele>511.0</ele>
        <time>2018-06-09T08:24:53.174Z</time>
      </trkpt>
      <trkpt lat="37.476465" lon="-4.42421333">
        <ele>511.0</ele>
        <time>2018-06-09T08:24:54.168Z</time>
      </trkpt>
      <trkpt lat="37.47643167" lon="-4.42421">
        <ele>510.0</ele>
        <time>2018-06-09T08:24:55.164Z</time>
      </trkpt>
      <trkpt lat="37.47643167" lon="-4.42421">
        <ele>510.0</ele>
        <time>2018-06-09T08:24:56.184Z</time>
      </trkpt>
      <trkpt lat="37.47636833" lon="-4.42421">
        <ele>510.0</ele>
        <time>2018-06-09T08:24:57.158Z</time>
      </trkpt>
      <trkpt lat="37.47633667" lon="-4.42421">
        <ele>510.0</ele>
        <time>2018-06-09T08:24:58.182Z</time>
      </trkpt>
      <trkpt lat="37.476305" lon="-4.42420833">
        <ele>510.0</ele>
        <time>2018-06-09T08:24:59.170Z</time>
      </trkpt>
      <trkpt lat="37.476305" lon="-4.42420833">
        <ele>510.0</ele>
        <time>2018-06-09T08:25:00.196Z</time>
      </trkpt>
      <trkpt lat="37.476235" lon="-4.42420833">
        <ele>510.0</ele>
        <time>2018-06-09T08:25:01.171Z</time>
      </trkpt>
      <trkpt lat="37.47619833" lon="-4.42421167">
        <ele>511.0</ele>
        <time>2018-06-09T08:25:02.161Z</time>
      </trkpt>
      <trkpt lat="37.47619833" lon="-4.42421167">
        <ele>511.0</ele>
        <time>2018-06-09T08:25:03.174Z</time>
      </trkpt>
      <trkpt lat="37.47612167" lon="-4.424215">
        <ele>511.0</ele>
        <time>2018-06-09T08:25:04.182Z</time>
      </trkpt>
      <trkpt lat="37.47612167" lon="-4.424215">
        <ele>511.0</ele>
        <time>2018-06-09T08:25:05.166Z</time>
      </trkpt>
      <trkpt lat="37.47604667" lon="-4.42421667">
        <ele>511.0</ele>
        <time>2018-06-09T08:25:06.159Z</time>
      </trkpt>
      <trkpt lat="37.47604667" lon="-4.42421667">
        <ele>511.0</ele>
        <time>2018-06-09T08:25:07.176Z</time>
      </trkpt>
      <trkpt lat="37.47596667" lon="-4.42420833">
        <ele>511.0</ele>
        <time>2018-06-09T08:25:08.195Z</time>
      </trkpt>
      <trkpt lat="37.47596667" lon="-4.42420833">
        <ele>511.0</ele>
        <time>2018-06-09T08:25:09.176Z</time>
      </trkpt>
      <trkpt lat="37.47589167" lon="-4.424195">
        <ele>511.0</ele>
        <time>2018-06-09T08:25:10.190Z</time>
      </trkpt>
      <trkpt lat="37.47589167" lon="-4.424195">
        <ele>511.0</ele>
        <time>2018-06-09T08:25:11.174Z</time>
      </trkpt>
      <trkpt lat="37.47581333" lon="-4.42418833">
        <ele>510.0</ele>
        <time>2018-06-09T08:25:12.180Z</time>
      </trkpt>
      <trkpt lat="37.47581333" lon="-4.42418833">
        <ele>510.0</ele>
        <time>2018-06-09T08:25:13.161Z</time>
      </trkpt>
      <trkpt lat="37.47574167" lon="-4.42418333">
        <ele>510.0</ele>
        <time>2018-06-09T08:25:14.191Z</time>
      </trkpt>
      <trkpt lat="37.47574167" lon="-4.42418333">
        <ele>510.0</ele>
        <time>2018-06-09T08:25:15.161Z</time>
      </trkpt>
      <trkpt lat="37.47567667" lon="-4.42418667">
        <ele>510.0</ele>
        <time>2018-06-09T08:25:16.167Z</time>
      </trkpt>
      <trkpt lat="37.47564167" lon="-4.42419">
        <ele>511.0</ele>
        <time>2018-06-09T08:25:17.186Z</time>
      </trkpt>
      <trkpt lat="37.47564167" lon="-4.42419">
        <ele>511.0</ele>
        <time>2018-06-09T08:25:18.179Z</time>
      </trkpt>
      <trkpt lat="37.47557333" lon="-4.42419833">
        <ele>511.0</ele>
        <time>2018-06-09T08:25:19.190Z</time>
      </trkpt>
      <trkpt lat="37.47553833" lon="-4.4242">
        <ele>511.0</ele>
        <time>2018-06-09T08:25:20.173Z</time>
      </trkpt>
      <trkpt lat="37.47550667" lon="-4.42420333">
        <ele>512.0</ele>
        <time>2018-06-09T08:25:21.162Z</time>
      </trkpt>
      <trkpt lat="37.47550667" lon="-4.42420333">
        <ele>512.0</ele>
        <time>2018-06-09T08:25:22.182Z</time>
      </trkpt>
      <trkpt lat="37.47544167" lon="-4.42420667">
        <ele>512.0</ele>
        <time>2018-06-09T08:25:23.160Z</time>
      </trkpt>
      <trkpt lat="37.47541167" lon="-4.42420333">
        <ele>512.0</ele>
        <time>2018-06-09T08:25:24.163Z</time>
      </trkpt>
      <trkpt lat="37.47541167" lon="-4.42420333">
        <ele>512.0</ele>
        <time>2018-06-09T08:25:25.183Z</time>
      </trkpt>
      <trkpt lat="37.47535333" lon="-4.424175">
        <ele>513.0</ele>
        <time>2018-06-09T08:25:26.164Z</time>
      </trkpt>
      <trkpt lat="37.47535333" lon="-4.424175">
        <ele>513.0</ele>
        <time>2018-06-09T08:25:27.159Z</time>
      </trkpt>
      <trkpt lat="37.47528667" lon="-4.424145">
        <ele>513.0</ele>
        <time>2018-06-09T08:25:28.168Z</time>
      </trkpt>
      <trkpt lat="37.47525333" lon="-4.42412667">
        <ele>513.0</ele>
        <time>2018-06-09T08:25:29.161Z</time>
      </trkpt>
      <trkpt lat="37.47525333" lon="-4.42412667">
        <ele>513.0</ele>
        <time>2018-06-09T08:25:30.162Z</time>
      </trkpt>
      <trkpt lat="37.47518167" lon="-4.42410833">
        <ele>513.0</ele>
        <time>2018-06-09T08:25:31.169Z</time>
      </trkpt>
      <trkpt lat="37.47514" lon="-4.424105">
        <ele>513.0</ele>
        <time>2018-06-09T08:25:32.190Z</time>
      </trkpt>
      <trkpt lat="37.47514" lon="-4.424105">
        <ele>513.0</ele>
        <time>2018-06-09T08:25:33.165Z</time>
      </trkpt>
      <trkpt lat="37.47505833" lon="-4.424105">
        <ele>513.0</ele>
        <time>2018-06-09T08:25:34.191Z</time>
      </trkpt>
      <trkpt lat="37.47505833" lon="-4.424105">
        <ele>513.0</ele>
        <time>2018-06-09T08:25:35.187Z</time>
      </trkpt>
      <trkpt lat="37.47498667" lon="-4.42410833">
        <ele>513.0</ele>
        <time>2018-06-09T08:25:36.194Z</time>
      </trkpt>
      <trkpt lat="37.47498667" lon="-4.42410833">
        <ele>513.0</ele>
        <time>2018-06-09T08:25:37.174Z</time>
      </trkpt>
      <trkpt lat="37.47491167" lon="-4.42411833">
        <ele>513.0</ele>
        <time>2018-06-09T08:25:38.159Z</time>
      </trkpt>
      <trkpt lat="37.47491167" lon="-4.42411833">
        <ele>513.0</ele>
        <time>2018-06-09T08:25:39.166Z</time>
      </trkpt>
      <trkpt lat="37.47484167" lon="-4.42412167">
        <ele>513.0</ele>
        <time>2018-06-09T08:25:40.173Z</time>
      </trkpt>
      <trkpt lat="37.47480167" lon="-4.42412">
        <ele>513.0</ele>
        <time>2018-06-09T08:25:41.191Z</time>
      </trkpt>
      <trkpt lat="37.47480167" lon="-4.42412">
        <ele>513.0</ele>
        <time>2018-06-09T08:25:42.169Z</time>
      </trkpt>
      <trkpt lat="37.47472667" lon="-4.42411333">
        <ele>514.0</ele>
        <time>2018-06-09T08:25:43.175Z</time>
      </trkpt>
      <trkpt lat="37.47468667" lon="-4.42411333">
        <ele>514.0</ele>
        <time>2018-06-09T08:25:44.181Z</time>
      </trkpt>
      <trkpt lat="37.47468667" lon="-4.42411333">
        <ele>514.0</ele>
        <time>2018-06-09T08:25:45.159Z</time>
      </trkpt>
      <trkpt lat="37.47462333" lon="-4.42411667">
        <ele>514.0</ele>
        <time>2018-06-09T08:25:46.165Z</time>
      </trkpt>
      <trkpt lat="37.47462333" lon="-4.42411667">
        <ele>514.0</ele>
        <time>2018-06-09T08:25:47.166Z</time>
      </trkpt>
      <trkpt lat="37.47454667" lon="-4.42411833">
        <ele>514.0</ele>
        <time>2018-06-09T08:25:48.175Z</time>
      </trkpt>
      <trkpt lat="37.47454667" lon="-4.42411833">
        <ele>514.0</ele>
        <time>2018-06-09T08:25:49.196Z</time>
      </trkpt>
      <trkpt lat="37.47446667" lon="-4.42411667">
        <ele>514.0</ele>
        <time>2018-06-09T08:25:50.168Z</time>
      </trkpt>
      <trkpt lat="37.47446667" lon="-4.42411667">
        <ele>514.0</ele>
        <time>2018-06-09T08:25:51.166Z</time>
      </trkpt>
      <trkpt lat="37.47438333" lon="-4.42411667">
        <ele>514.0</ele>
        <time>2018-06-09T08:25:52.172Z</time>
      </trkpt>
      <trkpt lat="37.47438333" lon="-4.42411667">
        <ele>514.0</ele>
        <time>2018-06-09T08:25:53.193Z</time>
      </trkpt>
      <trkpt lat="37.4743" lon="-4.42411667">
        <ele>515.0</ele>
        <time>2018-06-09T08:25:54.196Z</time>
      </trkpt>
      <trkpt lat="37.4743" lon="-4.42411667">
        <ele>515.0</ele>
        <time>2018-06-09T08:25:55.163Z</time>
      </trkpt>
      <trkpt lat="37.47422167" lon="-4.42411333">
        <ele>515.0</ele>
        <time>2018-06-09T08:25:56.169Z</time>
      </trkpt>
      <trkpt lat="37.47418167" lon="-4.42411167">
        <ele>515.0</ele>
        <time>2018-06-09T08:25:57.188Z</time>
      </trkpt>
      <trkpt lat="37.47418167" lon="-4.42411167">
        <ele>515.0</ele>
        <time>2018-06-09T08:25:58.169Z</time>
      </trkpt>
      <trkpt lat="37.47410667" lon="-4.42410833">
        <ele>515.0</ele>
        <time>2018-06-09T08:25:59.180Z</time>
      </trkpt>
      <trkpt lat="37.47407167" lon="-4.42410833">
        <ele>515.0</ele>
        <time>2018-06-09T08:26:00.170Z</time>
      </trkpt>
      <trkpt lat="37.47407167" lon="-4.42410833">
        <ele>515.0</ele>
        <time>2018-06-09T08:26:01.187Z</time>
      </trkpt>
      <trkpt lat="37.473985" lon="-4.42410667">
        <ele>515.0</ele>
        <time>2018-06-09T08:26:02.191Z</time>
      </trkpt>
      <trkpt lat="37.47393333" lon="-4.4241">
        <ele>515.0</ele>
        <time>2018-06-09T08:26:03.183Z</time>
      </trkpt>
      <trkpt lat="37.47393333" lon="-4.4241">
        <ele>515.0</ele>
        <time>2018-06-09T08:26:04.160Z</time>
      </trkpt>
      <trkpt lat="37.47383833" lon="-4.42410167">
        <ele>515.0</ele>
        <time>2018-06-09T08:26:05.174Z</time>
      </trkpt>
      <trkpt lat="37.47383833" lon="-4.42410167">
        <ele>515.0</ele>
        <time>2018-06-09T08:26:06.174Z</time>
      </trkpt>
      <trkpt lat="37.47375167" lon="-4.42409833">
        <ele>515.0</ele>
        <time>2018-06-09T08:26:07.180Z</time>
      </trkpt>
      <trkpt lat="37.47375167" lon="-4.42409833">
        <ele>515.0</ele>
        <time>2018-06-09T08:26:08.160Z</time>
      </trkpt>
      <trkpt lat="37.473665" lon="-4.42410167">
        <ele>514.0</ele>
        <time>2018-06-09T08:26:09.160Z</time>
      </trkpt>
      <trkpt lat="37.473665" lon="-4.42410167">
        <ele>514.0</ele>
        <time>2018-06-09T08:26:10.186Z</time>
      </trkpt>
      <trkpt lat="37.47358167" lon="-4.42410333">
        <ele>515.0</ele>
        <time>2018-06-09T08:26:11.158Z</time>
      </trkpt>
      <trkpt lat="37.473545" lon="-4.42410167">
        <ele>515.0</ele>
        <time>2018-06-09T08:26:12.178Z</time>
      </trkpt>
      <trkpt lat="37.473545" lon="-4.42410167">
        <ele>515.0</ele>
        <time>2018-06-09T08:26:13.176Z</time>
      </trkpt>
      <trkpt lat="37.47347167" lon="-4.42410167">
        <ele>515.0</ele>
        <time>2018-06-09T08:26:14.182Z</time>
      </trkpt>
      <trkpt lat="37.47343667" lon="-4.424105">
        <ele>516.0</ele>
        <time>2018-06-09T08:26:15.201Z</time>
      </trkpt>
      <trkpt lat="37.47343667" lon="-4.424105">
        <ele>516.0</ele>
        <time>2018-06-09T08:26:16.186Z</time>
      </trkpt>
      <trkpt lat="37.47336" lon="-4.42411">
        <ele>515.0</ele>
        <time>2018-06-09T08:26:17.161Z</time>
      </trkpt>
      <trkpt lat="37.47336" lon="-4.42411">
        <ele>515.0</ele>
        <time>2018-06-09T08:26:18.179Z</time>
      </trkpt>
      <trkpt lat="37.47329167" lon="-4.424125">
        <ele>515.0</ele>
        <time>2018-06-09T08:26:19.213Z</time>
      </trkpt>
      <trkpt lat="37.47325833" lon="-4.42413333">
        <ele>515.0</ele>
        <time>2018-06-09T08:26:20.170Z</time>
      </trkpt>
      <trkpt lat="37.47325833" lon="-4.42413333">
        <ele>515.0</ele>
        <time>2018-06-09T08:26:21.187Z</time>
      </trkpt>
      <trkpt lat="37.47318833" lon="-4.424135">
        <ele>515.0</ele>
        <time>2018-06-09T08:26:22.160Z</time>
      </trkpt>
      <trkpt lat="37.47315167" lon="-4.42414167">
        <ele>515.0</ele>
        <time>2018-06-09T08:26:23.169Z</time>
      </trkpt>
      <trkpt lat="37.47315167" lon="-4.42414167">
        <ele>515.0</ele>
        <time>2018-06-09T08:26:24.188Z</time>
      </trkpt>
      <trkpt lat="37.47307667" lon="-4.42416333">
        <ele>515.0</ele>
        <time>2018-06-09T08:26:25.164Z</time>
      </trkpt>
      <trkpt lat="37.47307667" lon="-4.42416333">
        <ele>515.0</ele>
        <time>2018-06-09T08:26:26.196Z</time>
      </trkpt>
      <trkpt lat="37.47299" lon="-4.42418667">
        <ele>515.0</ele>
        <time>2018-06-09T08:26:27.163Z</time>
      </trkpt>
      <trkpt lat="37.47299" lon="-4.42418667">
        <ele>515.0</ele>
        <time>2018-06-09T08:26:28.183Z</time>
      </trkpt>
      <trkpt lat="37.47290167" lon="-4.42421333">
        <ele>515.0</ele>
        <time>2018-06-09T08:26:29.190Z</time>
      </trkpt>
      <trkpt lat="37.47285667" lon="-4.42422667">
        <ele>515.0</ele>
        <time>2018-06-09T08:26:30.176Z</time>
      </trkpt>
      <trkpt lat="37.47285667" lon="-4.42422667">
        <ele>515.0</ele>
        <time>2018-06-09T08:26:31.196Z</time>
      </trkpt>
      <trkpt lat="37.47276" lon="-4.42424833">
        <ele>515.0</ele>
        <time>2018-06-09T08:26:32.175Z</time>
      </trkpt>
      <trkpt lat="37.47276" lon="-4.42424833">
        <ele>515.0</ele>
        <time>2018-06-09T08:26:33.162Z</time>
      </trkpt>
      <trkpt lat="37.472655" lon="-4.42425">
        <ele>514.0</ele>
        <time>2018-06-09T08:26:34.171Z</time>
      </trkpt>
      <trkpt lat="37.472655" lon="-4.42425">
        <ele>514.0</ele>
        <time>2018-06-09T08:26:35.182Z</time>
      </trkpt>
      <trkpt lat="37.472555" lon="-4.424245">
        <ele>514.0</ele>
        <time>2018-06-09T08:26:36.157Z</time>
      </trkpt>
      <trkpt lat="37.472505" lon="-4.424245">
        <ele>513.0</ele>
        <time>2018-06-09T08:26:37.180Z</time>
      </trkpt>
      <trkpt lat="37.47245833" lon="-4.42424667">
        <ele>513.0</ele>
        <time>2018-06-09T08:26:38.181Z</time>
      </trkpt>
      <trkpt lat="37.47245833" lon="-4.42424667">
        <ele>513.0</ele>
        <time>2018-06-09T08:26:39.196Z</time>
      </trkpt>
      <trkpt lat="37.47236167" lon="-4.42424">
        <ele>513.0</ele>
        <time>2018-06-09T08:26:40.170Z</time>
      </trkpt>
      <trkpt lat="37.47236167" lon="-4.42424">
        <ele>513.0</ele>
        <time>2018-06-09T08:26:41.193Z</time>
      </trkpt>
      <trkpt lat="37.47226333" lon="-4.42423833">
        <ele>513.0</ele>
        <time>2018-06-09T08:26:42.181Z</time>
      </trkpt>
      <trkpt lat="37.47226333" lon="-4.42423833">
        <ele>513.0</ele>
        <time>2018-06-09T08:26:43.157Z</time>
      </trkpt>
      <trkpt lat="37.47216667" lon="-4.42423167">
        <ele>513.0</ele>
        <time>2018-06-09T08:26:44.166Z</time>
      </trkpt>
      <trkpt lat="37.47216667" lon="-4.42423167">
        <ele>513.0</ele>
        <time>2018-06-09T08:26:45.190Z</time>
      </trkpt>
      <trkpt lat="37.47206667" lon="-4.42423167">
        <ele>513.0</ele>
        <time>2018-06-09T08:26:46.181Z</time>
      </trkpt>
      <trkpt lat="37.47206667" lon="-4.42423167">
        <ele>513.0</ele>
        <time>2018-06-09T08:26:47.186Z</time>
      </trkpt>
      <trkpt lat="37.471965" lon="-4.424235">
        <ele>513.0</ele>
        <time>2018-06-09T08:26:48.182Z</time>
      </trkpt>
      <trkpt lat="37.471965" lon="-4.424235">
        <ele>513.0</ele>
        <time>2018-06-09T08:26:49.195Z</time>
      </trkpt>
      <trkpt lat="37.47186167" lon="-4.42424">
        <ele>512.0</ele>
        <time>2018-06-09T08:26:50.162Z</time>
      </trkpt>
      <trkpt lat="37.47186167" lon="-4.42424">
        <ele>512.0</ele>
        <time>2018-06-09T08:26:51.185Z</time>
      </trkpt>
      <trkpt lat="37.471755" lon="-4.42424167">
        <ele>512.0</ele>
        <time>2018-06-09T08:26:52.159Z</time>
      </trkpt>
      <trkpt lat="37.471755" lon="-4.42424167">
        <ele>512.0</ele>
        <time>2018-06-09T08:26:53.166Z</time>
      </trkpt>
      <trkpt lat="37.47164833" lon="-4.42424">
        <ele>512.0</ele>
        <time>2018-06-09T08:26:54.172Z</time>
      </trkpt>
      <trkpt lat="37.471595" lon="-4.42424">
        <ele>511.0</ele>
        <time>2018-06-09T08:26:55.192Z</time>
      </trkpt>
      <trkpt lat="37.471595" lon="-4.42424">
        <ele>511.0</ele>
        <time>2018-06-09T08:26:56.157Z</time>
      </trkpt>
      <trkpt lat="37.47148667" lon="-4.42424167">
        <ele>511.0</ele>
        <time>2018-06-09T08:26:57.166Z</time>
      </trkpt>
      <trkpt lat="37.47148667" lon="-4.42424167">
        <ele>511.0</ele>
        <time>2018-06-09T08:26:58.184Z</time>
      </trkpt>
      <trkpt lat="37.47138667" lon="-4.42424333">
        <ele>511.0</ele>
        <time>2018-06-09T08:26:59.163Z</time>
      </trkpt>
      <trkpt lat="37.47133833" lon="-4.42424333">
        <ele>511.0</ele>
        <time>2018-06-09T08:27:00.174Z</time>
      </trkpt>
      <trkpt lat="37.47133833" lon="-4.42424333">
        <ele>511.0</ele>
        <time>2018-06-09T08:27:01.193Z</time>
      </trkpt>
      <trkpt lat="37.47123833" lon="-4.42424167">
        <ele>510.0</ele>
        <time>2018-06-09T08:27:02.160Z</time>
      </trkpt>
      <trkpt lat="37.47123833" lon="-4.42424167">
        <ele>510.0</ele>
        <time>2018-06-09T08:27:03.163Z</time>
      </trkpt>
      <trkpt lat="37.47113" lon="-4.42424167">
        <ele>510.0</ele>
        <time>2018-06-09T08:27:04.169Z</time>
      </trkpt>
      <trkpt lat="37.471075" lon="-4.42424">
        <ele>510.0</ele>
        <time>2018-06-09T08:27:05.196Z</time>
      </trkpt>
      <trkpt lat="37.471075" lon="-4.42424">
        <ele>510.0</ele>
        <time>2018-06-09T08:27:06.168Z</time>
      </trkpt>
      <trkpt lat="37.47096167" lon="-4.42424833">
        <ele>509.0</ele>
        <time>2018-06-09T08:27:07.174Z</time>
      </trkpt>
      <trkpt lat="37.47096167" lon="-4.42424833">
        <ele>509.0</ele>
        <time>2018-06-09T08:27:08.193Z</time>
      </trkpt>
      <trkpt lat="37.470845" lon="-4.42425">
        <ele>509.0</ele>
        <time>2018-06-09T08:27:09.217Z</time>
      </trkpt>
      <trkpt lat="37.470845" lon="-4.42425">
        <ele>509.0</ele>
        <time>2018-06-09T08:27:10.176Z</time>
      </trkpt>
      <trkpt lat="37.47072833" lon="-4.42424667">
        <ele>509.0</ele>
        <time>2018-06-09T08:27:11.182Z</time>
      </trkpt>
      <trkpt lat="37.47066833" lon="-4.424245">
        <ele>509.0</ele>
        <time>2018-06-09T08:27:12.161Z</time>
      </trkpt>
      <trkpt lat="37.47061" lon="-4.42424333">
        <ele>509.0</ele>
        <time>2018-06-09T08:27:13.196Z</time>
      </trkpt>
      <trkpt lat="37.47061" lon="-4.42424333">
        <ele>509.0</ele>
        <time>2018-06-09T08:27:14.171Z</time>
      </trkpt>
      <trkpt lat="37.47049333" lon="-4.42424333">
        <ele>508.0</ele>
        <time>2018-06-09T08:27:15.179Z</time>
      </trkpt>
      <trkpt lat="37.470435" lon="-4.42424167">
        <ele>508.0</ele>
        <time>2018-06-09T08:27:16.157Z</time>
      </trkpt>
      <trkpt lat="37.470435" lon="-4.42424167">
        <ele>508.0</ele>
        <time>2018-06-09T08:27:17.159Z</time>
      </trkpt>
      <trkpt lat="37.47031833" lon="-4.42424">
        <ele>508.0</ele>
        <time>2018-06-09T08:27:18.169Z</time>
      </trkpt>
      <trkpt lat="37.47031833" lon="-4.42424">
        <ele>508.0</ele>
        <time>2018-06-09T08:27:19.187Z</time>
      </trkpt>
      <trkpt lat="37.4702" lon="-4.424235">
        <ele>508.0</ele>
        <time>2018-06-09T08:27:20.159Z</time>
      </trkpt>
      <trkpt lat="37.4702" lon="-4.424235">
        <ele>508.0</ele>
        <time>2018-06-09T08:27:21.160Z</time>
      </trkpt>
      <trkpt lat="37.47008167" lon="-4.42422667">
        <ele>507.0</ele>
        <time>2018-06-09T08:27:22.168Z</time>
      </trkpt>
      <trkpt lat="37.47008167" lon="-4.42422667">
        <ele>507.0</ele>
        <time>2018-06-09T08:27:23.186Z</time>
      </trkpt>
      <trkpt lat="37.46996" lon="-4.42421333">
        <ele>507.0</ele>
        <time>2018-06-09T08:27:24.188Z</time>
      </trkpt>
      <trkpt lat="37.46996" lon="-4.42421333">
        <ele>507.0</ele>
        <time>2018-06-09T08:27:25.182Z</time>
      </trkpt>
      <trkpt lat="37.46983833" lon="-4.42419333">
        <ele>507.0</ele>
        <time>2018-06-09T08:27:26.165Z</time>
      </trkpt>
      <trkpt lat="37.46983833" lon="-4.42419333">
        <ele>507.0</ele>
        <time>2018-06-09T08:27:27.172Z</time>
      </trkpt>
      <trkpt lat="37.46971667" lon="-4.42417167">
        <ele>506.0</ele>
        <time>2018-06-09T08:27:28.193Z</time>
      </trkpt>
      <trkpt lat="37.46965667" lon="-4.42416">
        <ele>506.0</ele>
        <time>2018-06-09T08:27:29.186Z</time>
      </trkpt>
      <trkpt lat="37.46965667" lon="-4.42416">
        <ele>506.0</ele>
        <time>2018-06-09T08:27:30.160Z</time>
      </trkpt>
      <trkpt lat="37.469535" lon="-4.42412833">
        <ele>506.0</ele>
        <time>2018-06-09T08:27:31.174Z</time>
      </trkpt>
      <trkpt lat="37.469475" lon="-4.42411">
        <ele>506.0</ele>
        <time>2018-06-09T08:27:32.164Z</time>
      </trkpt>
      <trkpt lat="37.469475" lon="-4.42411">
        <ele>506.0</ele>
        <time>2018-06-09T08:27:33.182Z</time>
      </trkpt>
      <trkpt lat="37.46935833" lon="-4.42407">
        <ele>505.0</ele>
        <time>2018-06-09T08:27:34.196Z</time>
      </trkpt>
      <trkpt lat="37.46935833" lon="-4.42407">
        <ele>505.0</ele>
        <time>2018-06-09T08:27:35.187Z</time>
      </trkpt>
      <trkpt lat="37.46924667" lon="-4.42403667">
        <ele>505.0</ele>
        <time>2018-06-09T08:27:36.197Z</time>
      </trkpt>
      <trkpt lat="37.46919167" lon="-4.424015">
        <ele>505.0</ele>
        <time>2018-06-09T08:27:37.179Z</time>
      </trkpt>
      <trkpt lat="37.46913667" lon="-4.42399167">
        <ele>505.0</ele>
        <time>2018-06-09T08:27:38.161Z</time>
      </trkpt>
      <trkpt lat="37.46913667" lon="-4.42399167">
        <ele>505.0</ele>
        <time>2018-06-09T08:27:39.181Z</time>
      </trkpt>
      <trkpt lat="37.46903167" lon="-4.42394667">
        <ele>504.0</ele>
        <time>2018-06-09T08:27:40.197Z</time>
      </trkpt>
      <trkpt lat="37.46897833" lon="-4.42392">
        <ele>504.0</ele>
        <time>2018-06-09T08:27:41.195Z</time>
      </trkpt>
      <trkpt lat="37.46897833" lon="-4.42392">
        <ele>504.0</ele>
        <time>2018-06-09T08:27:42.160Z</time>
      </trkpt>
      <trkpt lat="37.46887167" lon="-4.42386">
        <ele>504.0</ele>
        <time>2018-06-09T08:27:43.169Z</time>
      </trkpt>
      <trkpt lat="37.46887167" lon="-4.42386">
        <ele>504.0</ele>
        <time>2018-06-09T08:27:44.158Z</time>
      </trkpt>
      <trkpt lat="37.46876333" lon="-4.4238">
        <ele>503.0</ele>
        <time>2018-06-09T08:27:45.164Z</time>
      </trkpt>
      <trkpt lat="37.46871" lon="-4.42376667">
        <ele>503.0</ele>
        <time>2018-06-09T08:27:46.171Z</time>
      </trkpt>
      <trkpt lat="37.46871" lon="-4.42376667">
        <ele>503.0</ele>
        <time>2018-06-09T08:27:47.164Z</time>
      </trkpt>
      <trkpt lat="37.46860667" lon="-4.42370333">
        <ele>503.0</ele>
        <time>2018-06-09T08:27:48.163Z</time>
      </trkpt>
      <trkpt lat="37.46860667" lon="-4.42370333">
        <ele>503.0</ele>
        <time>2018-06-09T08:27:49.182Z</time>
      </trkpt>
      <trkpt lat="37.46850167" lon="-4.42364167">
        <ele>502.0</ele>
        <time>2018-06-09T08:27:50.189Z</time>
      </trkpt>
      <trkpt lat="37.46850167" lon="-4.42364167">
        <ele>502.0</ele>
        <time>2018-06-09T08:27:51.169Z</time>
      </trkpt>
      <trkpt lat="37.46839833" lon="-4.42358">
        <ele>502.0</ele>
        <time>2018-06-09T08:27:52.160Z</time>
      </trkpt>
      <trkpt lat="37.46834667" lon="-4.42354667">
        <ele>502.0</ele>
        <time>2018-06-09T08:27:53.186Z</time>
      </trkpt>
      <trkpt lat="37.46834667" lon="-4.42354667">
        <ele>502.0</ele>
        <time>2018-06-09T08:27:54.164Z</time>
      </trkpt>
      <trkpt lat="37.46824167" lon="-4.42348667">
        <ele>501.0</ele>
        <time>2018-06-09T08:27:55.174Z</time>
      </trkpt>
      <trkpt lat="37.46824167" lon="-4.42348667">
        <ele>501.0</ele>
        <time>2018-06-09T08:27:56.178Z</time>
      </trkpt>
      <trkpt lat="37.468135" lon="-4.423425">
        <ele>501.0</ele>
        <time>2018-06-09T08:27:57.184Z</time>
      </trkpt>
      <trkpt lat="37.468135" lon="-4.423425">
        <ele>501.0</ele>
        <time>2018-06-09T08:27:58.160Z</time>
      </trkpt>
      <trkpt lat="37.46802833" lon="-4.42336333">
        <ele>500.0</ele>
        <time>2018-06-09T08:27:59.181Z</time>
      </trkpt>
      <trkpt lat="37.46802833" lon="-4.42336333">
        <ele>500.0</ele>
        <time>2018-06-09T08:28:00.193Z</time>
      </trkpt>
      <trkpt lat="37.46792167" lon="-4.42330167">
        <ele>500.0</ele>
        <time>2018-06-09T08:28:01.163Z</time>
      </trkpt>
      <trkpt lat="37.46792167" lon="-4.42330167">
        <ele>500.0</ele>
        <time>2018-06-09T08:28:02.182Z</time>
      </trkpt>
      <trkpt lat="37.46781167" lon="-4.423235">
        <ele>499.0</ele>
        <time>2018-06-09T08:28:03.196Z</time>
      </trkpt>
      <trkpt lat="37.46781167" lon="-4.423235">
        <ele>499.0</ele>
        <time>2018-06-09T08:28:04.176Z</time>
      </trkpt>
      <trkpt lat="37.46769833" lon="-4.42317">
        <ele>499.0</ele>
        <time>2018-06-09T08:28:05.182Z</time>
      </trkpt>
      <trkpt lat="37.46769833" lon="-4.42317">
        <ele>499.0</ele>
        <time>2018-06-09T08:28:06.161Z</time>
      </trkpt>
      <trkpt lat="37.467585" lon="-4.42310667">
        <ele>498.0</ele>
        <time>2018-06-09T08:28:07.168Z</time>
      </trkpt>
      <trkpt lat="37.46752833" lon="-4.42307333">
        <ele>498.0</ele>
        <time>2018-06-09T08:28:08.170Z</time>
      </trkpt>
      <trkpt lat="37.46752833" lon="-4.42307333">
        <ele>498.0</ele>
        <time>2018-06-09T08:28:09.188Z</time>
      </trkpt>
      <trkpt lat="37.46741833" lon="-4.42301">
        <ele>498.0</ele>
        <time>2018-06-09T08:28:10.158Z</time>
      </trkpt>
      <trkpt lat="37.46741833" lon="-4.42301">
        <ele>498.0</ele>
        <time>2018-06-09T08:28:11.159Z</time>
      </trkpt>
      <trkpt lat="37.46731" lon="-4.42294667">
        <ele>498.0</ele>
        <time>2018-06-09T08:28:12.167Z</time>
      </trkpt>
      <trkpt lat="37.46731" lon="-4.42294667">
        <ele>498.0</ele>
        <time>2018-06-09T08:28:13.184Z</time>
      </trkpt>
      <trkpt lat="37.46720333" lon="-4.42288667">
        <ele>498.0</ele>
        <time>2018-06-09T08:28:14.160Z</time>
      </trkpt>
      <trkpt lat="37.46720333" lon="-4.42288667">
        <ele>498.0</ele>
        <time>2018-06-09T08:28:15.175Z</time>
      </trkpt>
      <trkpt lat="37.4671" lon="-4.42282333">
        <ele>498.0</ele>
        <time>2018-06-09T08:28:16.195Z</time>
      </trkpt>
      <trkpt lat="37.46705" lon="-4.42279333">
        <ele>498.0</ele>
        <time>2018-06-09T08:28:17.165Z</time>
      </trkpt>
      <trkpt lat="37.46705" lon="-4.42279333">
        <ele>498.0</ele>
        <time>2018-06-09T08:28:18.183Z</time>
      </trkpt>
      <trkpt lat="37.46694667" lon="-4.42273667">
        <ele>498.0</ele>
        <time>2018-06-09T08:28:19.180Z</time>
      </trkpt>
      <trkpt lat="37.46694667" lon="-4.42273667">
        <ele>498.0</ele>
        <time>2018-06-09T08:28:20.157Z</time>
      </trkpt>
      <trkpt lat="37.46684667" lon="-4.42267833">
        <ele>498.0</ele>
        <time>2018-06-09T08:28:21.167Z</time>
      </trkpt>
      <trkpt lat="37.46679833" lon="-4.42265167">
        <ele>498.0</ele>
        <time>2018-06-09T08:28:22.185Z</time>
      </trkpt>
      <trkpt lat="37.46675" lon="-4.422625">
        <ele>498.0</ele>
        <time>2018-06-09T08:28:23.197Z</time>
      </trkpt>
      <trkpt lat="37.46675" lon="-4.422625">
        <ele>498.0</ele>
        <time>2018-06-09T08:28:24.187Z</time>
      </trkpt>
      <trkpt lat="37.46665167" lon="-4.422575">
        <ele>497.0</ele>
        <time>2018-06-09T08:28:25.194Z</time>
      </trkpt>
      <trkpt lat="37.46665167" lon="-4.422575">
        <ele>497.0</ele>
        <time>2018-06-09T08:28:26.158Z</time>
      </trkpt>
      <trkpt lat="37.46655333" lon="-4.42252833">
        <ele>497.0</ele>
        <time>2018-06-09T08:28:27.159Z</time>
      </trkpt>
      <trkpt lat="37.46655333" lon="-4.42252833">
        <ele>497.0</ele>
        <time>2018-06-09T08:28:28.168Z</time>
      </trkpt>
      <trkpt lat="37.466455" lon="-4.42248833">
        <ele>498.0</ele>
        <time>2018-06-09T08:28:29.175Z</time>
      </trkpt>
      <trkpt lat="37.466455" lon="-4.42248833">
        <ele>498.0</ele>
        <time>2018-06-09T08:28:30.166Z</time>
      </trkpt>
      <trkpt lat="37.46635667" lon="-4.42244833">
        <ele>498.0</ele>
        <time>2018-06-09T08:28:31.198Z</time>
      </trkpt>
      <trkpt lat="37.46635667" lon="-4.42244833">
        <ele>498.0</ele>
        <time>2018-06-09T08:28:32.176Z</time>
      </trkpt>
      <trkpt lat="37.466255" lon="-4.42241167">
        <ele>497.0</ele>
        <time>2018-06-09T08:28:33.183Z</time>
      </trkpt>
      <trkpt lat="37.46620333" lon="-4.42239333">
        <ele>497.0</ele>
        <time>2018-06-09T08:28:34.191Z</time>
      </trkpt>
      <trkpt lat="37.46615167" lon="-4.422375">
        <ele>497.0</ele>
        <time>2018-06-09T08:28:35.178Z</time>
      </trkpt>
      <trkpt lat="37.46615167" lon="-4.422375">
        <ele>497.0</ele>
        <time>2018-06-09T08:28:36.184Z</time>
      </trkpt>
      <trkpt lat="37.466045" lon="-4.42234333">
        <ele>497.0</ele>
        <time>2018-06-09T08:28:37.158Z</time>
      </trkpt>
      <trkpt lat="37.46599" lon="-4.42232833">
        <ele>497.0</ele>
        <time>2018-06-09T08:28:38.158Z</time>
      </trkpt>
      <trkpt lat="37.46599" lon="-4.42232833">
        <ele>497.0</ele>
        <time>2018-06-09T08:28:39.159Z</time>
      </trkpt>
      <trkpt lat="37.46588333" lon="-4.42229667">
        <ele>497.0</ele>
        <time>2018-06-09T08:28:40.165Z</time>
      </trkpt>
      <trkpt lat="37.46582833" lon="-4.42228333">
        <ele>497.0</ele>
        <time>2018-06-09T08:28:41.187Z</time>
      </trkpt>
      <trkpt lat="37.46582833" lon="-4.42228333">
        <ele>497.0</ele>
        <time>2018-06-09T08:28:42.171Z</time>
      </trkpt>
      <trkpt lat="37.46572333" lon="-4.42225667">
        <ele>497.0</ele>
        <time>2018-06-09T08:28:43.178Z</time>
      </trkpt>
      <trkpt lat="37.46567" lon="-4.42224667">
        <ele>497.0</ele>
        <time>2018-06-09T08:28:44.189Z</time>
      </trkpt>
      <trkpt lat="37.46567" lon="-4.42224667">
        <ele>497.0</ele>
        <time>2018-06-09T08:28:45.186Z</time>
      </trkpt>
      <trkpt lat="37.46556167" lon="-4.42223667">
        <ele>497.0</ele>
        <time>2018-06-09T08:28:46.164Z</time>
      </trkpt>
      <trkpt lat="37.46550667" lon="-4.42223167">
        <ele>497.0</ele>
        <time>2018-06-09T08:28:47.161Z</time>
      </trkpt>
      <trkpt lat="37.46550667" lon="-4.42223167">
        <ele>497.0</ele>
        <time>2018-06-09T08:28:48.174Z</time>
      </trkpt>
      <trkpt lat="37.46539667" lon="-4.42222">
        <ele>496.0</ele>
        <time>2018-06-09T08:28:49.168Z</time>
      </trkpt>
      <trkpt lat="37.46534167" lon="-4.42221833">
        <ele>496.0</ele>
        <time>2018-06-09T08:28:50.167Z</time>
      </trkpt>
      <trkpt lat="37.46534167" lon="-4.42221833">
        <ele>496.0</ele>
        <time>2018-06-09T08:28:51.185Z</time>
      </trkpt>
      <trkpt lat="37.46522833" lon="-4.422215">
        <ele>496.0</ele>
        <time>2018-06-09T08:28:52.191Z</time>
      </trkpt>
      <trkpt lat="37.46522833" lon="-4.422215">
        <ele>496.0</ele>
        <time>2018-06-09T08:28:53.171Z</time>
      </trkpt>
      <trkpt lat="37.465115" lon="-4.42222167">
        <ele>496.0</ele>
        <time>2018-06-09T08:28:54.184Z</time>
      </trkpt>
      <trkpt lat="37.46505833" lon="-4.42222167">
        <ele>495.0</ele>
        <time>2018-06-09T08:28:55.187Z</time>
      </trkpt>
      <trkpt lat="37.46505833" lon="-4.42222167">
        <ele>495.0</ele>
        <time>2018-06-09T08:28:56.165Z</time>
      </trkpt>
      <trkpt lat="37.46493833" lon="-4.42222">
        <ele>495.0</ele>
        <time>2018-06-09T08:28:57.172Z</time>
      </trkpt>
      <trkpt lat="37.46487833" lon="-4.42221833">
        <ele>495.0</ele>
        <time>2018-06-09T08:28:58.197Z</time>
      </trkpt>
      <trkpt lat="37.46487833" lon="-4.42221833">
        <ele>495.0</ele>
        <time>2018-06-09T08:28:59.177Z</time>
      </trkpt>
      <trkpt lat="37.46475833" lon="-4.422225">
        <ele>494.0</ele>
        <time>2018-06-09T08:29:00.190Z</time>
      </trkpt>
      <trkpt lat="37.46475833" lon="-4.422225">
        <ele>494.0</ele>
        <time>2018-06-09T08:29:01.168Z</time>
      </trkpt>
      <trkpt lat="37.46463833" lon="-4.42222167">
        <ele>494.0</ele>
        <time>2018-06-09T08:29:02.159Z</time>
      </trkpt>
      <trkpt lat="37.46463833" lon="-4.42222167">
        <ele>494.0</ele>
        <time>2018-06-09T08:29:03.187Z</time>
      </trkpt>
      <trkpt lat="37.46451667" lon="-4.422225">
        <ele>494.0</ele>
        <time>2018-06-09T08:29:04.162Z</time>
      </trkpt>
      <trkpt lat="37.46445833" lon="-4.42222833">
        <ele>493.0</ele>
        <time>2018-06-09T08:29:05.190Z</time>
      </trkpt>
      <trkpt lat="37.46445833" lon="-4.42222833">
        <ele>493.0</ele>
        <time>2018-06-09T08:29:06.172Z</time>
      </trkpt>
      <trkpt lat="37.46433667" lon="-4.42223">
        <ele>493.0</ele>
        <time>2018-06-09T08:29:07.178Z</time>
      </trkpt>
      <trkpt lat="37.46433667" lon="-4.42223">
        <ele>493.0</ele>
        <time>2018-06-09T08:29:08.158Z</time>
      </trkpt>
      <trkpt lat="37.464215" lon="-4.422245">
        <ele>492.0</ele>
        <time>2018-06-09T08:29:09.191Z</time>
      </trkpt>
      <trkpt lat="37.464215" lon="-4.422245">
        <ele>492.0</ele>
        <time>2018-06-09T08:29:10.172Z</time>
      </trkpt>
      <trkpt lat="37.46409167" lon="-4.42226">
        <ele>492.0</ele>
        <time>2018-06-09T08:29:11.190Z</time>
      </trkpt>
      <trkpt lat="37.46409167" lon="-4.42226">
        <ele>492.0</ele>
        <time>2018-06-09T08:29:12.167Z</time>
      </trkpt>
      <trkpt lat="37.46397167" lon="-4.42229833">
        <ele>491.0</ele>
        <time>2018-06-09T08:29:13.157Z</time>
      </trkpt>
      <trkpt lat="37.46390667" lon="-4.422315">
        <ele>491.0</ele>
        <time>2018-06-09T08:29:14.165Z</time>
      </trkpt>
      <trkpt lat="37.46384167" lon="-4.42233333">
        <ele>491.0</ele>
        <time>2018-06-09T08:29:15.182Z</time>
      </trkpt>
      <trkpt lat="37.46384167" lon="-4.42233333">
        <ele>491.0</ele>
        <time>2018-06-09T08:29:16.159Z</time>
      </trkpt>
      <trkpt lat="37.46371167" lon="-4.422365">
        <ele>491.0</ele>
        <time>2018-06-09T08:29:17.166Z</time>
      </trkpt>
      <trkpt lat="37.46371167" lon="-4.422365">
        <ele>491.0</ele>
        <time>2018-06-09T08:29:18.186Z</time>
      </trkpt>
      <trkpt lat="37.46358333" lon="-4.42240667">
        <ele>491.0</ele>
        <time>2018-06-09T08:29:19.201Z</time>
      </trkpt>
      <trkpt lat="37.46352" lon="-4.42242833">
        <ele>491.0</ele>
        <time>2018-06-09T08:29:20.161Z</time>
      </trkpt>
      <trkpt lat="37.46352" lon="-4.42242833">
        <ele>491.0</ele>
        <time>2018-06-09T08:29:21.182Z</time>
      </trkpt>
      <trkpt lat="37.463395" lon="-4.42247833">
        <ele>491.0</ele>
        <time>2018-06-09T08:29:22.190Z</time>
      </trkpt>
      <trkpt lat="37.463395" lon="-4.42247833">
        <ele>491.0</ele>
        <time>2018-06-09T08:29:23.159Z</time>
      </trkpt>
      <trkpt lat="37.463275" lon="-4.422535">
        <ele>491.0</ele>
        <time>2018-06-09T08:29:24.165Z</time>
      </trkpt>
      <trkpt lat="37.463275" lon="-4.422535">
        <ele>491.0</ele>
        <time>2018-06-09T08:29:25.174Z</time>
      </trkpt>
      <trkpt lat="37.46315667" lon="-4.4226">
        <ele>491.0</ele>
        <time>2018-06-09T08:29:26.191Z</time>
      </trkpt>
      <trkpt lat="37.46315667" lon="-4.4226">
        <ele>491.0</ele>
        <time>2018-06-09T08:29:27.175Z</time>
      </trkpt>
      <trkpt lat="37.46303833" lon="-4.42266167">
        <ele>492.0</ele>
        <time>2018-06-09T08:29:28.182Z</time>
      </trkpt>
      <trkpt lat="37.46298" lon="-4.422695">
        <ele>492.0</ele>
        <time>2018-06-09T08:29:29.161Z</time>
      </trkpt>
      <trkpt lat="37.46292333" lon="-4.42273167">
        <ele>492.0</ele>
        <time>2018-06-09T08:29:30.180Z</time>
      </trkpt>
      <trkpt lat="37.46292333" lon="-4.42273167">
        <ele>492.0</ele>
        <time>2018-06-09T08:29:31.161Z</time>
      </trkpt>
      <trkpt lat="37.46281333" lon="-4.42280333">
        <ele>492.0</ele>
        <time>2018-06-09T08:29:32.168Z</time>
      </trkpt>
      <trkpt lat="37.46281333" lon="-4.42280333">
        <ele>492.0</ele>
        <time>2018-06-09T08:29:33.186Z</time>
      </trkpt>
      <trkpt lat="37.46270833" lon="-4.42287833">
        <ele>492.0</ele>
        <time>2018-06-09T08:29:34.195Z</time>
      </trkpt>
      <trkpt lat="37.46270833" lon="-4.42287833">
        <ele>492.0</ele>
        <time>2018-06-09T08:29:35.173Z</time>
      </trkpt>
      <trkpt lat="37.462605" lon="-4.422955">
        <ele>492.0</ele>
        <time>2018-06-09T08:29:36.191Z</time>
      </trkpt>
      <trkpt lat="37.462605" lon="-4.422955">
        <ele>492.0</ele>
        <time>2018-06-09T08:29:37.183Z</time>
      </trkpt>
      <trkpt lat="37.46250667" lon="-4.423035">
        <ele>492.0</ele>
        <time>2018-06-09T08:29:38.190Z</time>
      </trkpt>
      <trkpt lat="37.46250667" lon="-4.423035">
        <ele>492.0</ele>
        <time>2018-06-09T08:29:39.169Z</time>
      </trkpt>
      <trkpt lat="37.46240833" lon="-4.42311833">
        <ele>493.0</ele>
        <time>2018-06-09T08:29:40.157Z</time>
      </trkpt>
      <trkpt lat="37.46240833" lon="-4.42311833">
        <ele>493.0</ele>
        <time>2018-06-09T08:29:41.188Z</time>
      </trkpt>
      <trkpt lat="37.46231333" lon="-4.42320333">
        <ele>493.0</ele>
        <time>2018-06-09T08:29:42.195Z</time>
      </trkpt>
      <trkpt lat="37.46231333" lon="-4.42320333">
        <ele>493.0</ele>
        <time>2018-06-09T08:29:43.174Z</time>
      </trkpt>
      <trkpt lat="37.46222" lon="-4.42329">
        <ele>493.0</ele>
        <time>2018-06-09T08:29:44.160Z</time>
      </trkpt>
      <trkpt lat="37.46222" lon="-4.42329">
        <ele>493.0</ele>
        <time>2018-06-09T08:29:45.175Z</time>
      </trkpt>
      <trkpt lat="37.46212667" lon="-4.42338">
        <ele>492.0</ele>
        <time>2018-06-09T08:29:46.182Z</time>
      </trkpt>
      <trkpt lat="37.46212667" lon="-4.42338">
        <ele>492.0</ele>
        <time>2018-06-09T08:29:47.185Z</time>
      </trkpt>
      <trkpt lat="37.46203167" lon="-4.42346833">
        <ele>492.0</ele>
        <time>2018-06-09T08:29:48.158Z</time>
      </trkpt>
      <trkpt lat="37.46203167" lon="-4.42346833">
        <ele>492.0</ele>
        <time>2018-06-09T08:29:49.178Z</time>
      </trkpt>
      <trkpt lat="37.46193667" lon="-4.423555">
        <ele>492.0</ele>
        <time>2018-06-09T08:29:50.192Z</time>
      </trkpt>
      <trkpt lat="37.46193667" lon="-4.423555">
        <ele>492.0</ele>
        <time>2018-06-09T08:29:51.166Z</time>
      </trkpt>
      <trkpt lat="37.46184167" lon="-4.423645">
        <ele>492.0</ele>
        <time>2018-06-09T08:29:52.172Z</time>
      </trkpt>
      <trkpt lat="37.46184167" lon="-4.423645">
        <ele>492.0</ele>
        <time>2018-06-09T08:29:53.190Z</time>
      </trkpt>
      <trkpt lat="37.46174667" lon="-4.42372833">
        <ele>491.0</ele>
        <time>2018-06-09T08:29:54.191Z</time>
      </trkpt>
      <trkpt lat="37.46174667" lon="-4.42372833">
        <ele>491.0</ele>
        <time>2018-06-09T08:29:55.186Z</time>
      </trkpt>
      <trkpt lat="37.46165333" lon="-4.42381167">
        <ele>491.0</ele>
        <time>2018-06-09T08:29:56.194Z</time>
      </trkpt>
      <trkpt lat="37.46160833" lon="-4.423855">
        <ele>491.0</ele>
        <time>2018-06-09T08:29:57.185Z</time>
      </trkpt>
      <trkpt lat="37.46160833" lon="-4.423855">
        <ele>491.0</ele>
        <time>2018-06-09T08:29:58.162Z</time>
      </trkpt>
      <trkpt lat="37.46151833" lon="-4.42394333">
        <ele>491.0</ele>
        <time>2018-06-09T08:29:59.169Z</time>
      </trkpt>
      <trkpt lat="37.46147333" lon="-4.42398833">
        <ele>491.0</ele>
        <time>2018-06-09T08:30:00.160Z</time>
      </trkpt>
      <trkpt lat="37.46147333" lon="-4.42398833">
        <ele>491.0</ele>
        <time>2018-06-09T08:30:01.178Z</time>
      </trkpt>
      <trkpt lat="37.46139167" lon="-4.424075">
        <ele>491.0</ele>
        <time>2018-06-09T08:30:02.184Z</time>
      </trkpt>
      <trkpt lat="37.46139167" lon="-4.424075">
        <ele>491.0</ele>
        <time>2018-06-09T08:30:03.165Z</time>
      </trkpt>
      <trkpt lat="37.461305" lon="-4.42415667">
        <ele>491.0</ele>
        <time>2018-06-09T08:30:04.191Z</time>
      </trkpt>
      <trkpt lat="37.461305" lon="-4.42415667">
        <ele>491.0</ele>
        <time>2018-06-09T08:30:05.178Z</time>
      </trkpt>
      <trkpt lat="37.461215" lon="-4.42423167">
        <ele>491.0</ele>
        <time>2018-06-09T08:30:06.185Z</time>
      </trkpt>
      <trkpt lat="37.46117" lon="-4.42426833">
        <ele>491.0</ele>
        <time>2018-06-09T08:30:07.163Z</time>
      </trkpt>
      <trkpt lat="37.46112333" lon="-4.42430167">
        <ele>491.0</ele>
        <time>2018-06-09T08:30:08.165Z</time>
      </trkpt>
      <trkpt lat="37.46112333" lon="-4.42430167">
        <ele>491.0</ele>
        <time>2018-06-09T08:30:09.182Z</time>
      </trkpt>
      <trkpt lat="37.46102833" lon="-4.424365">
        <ele>491.0</ele>
        <time>2018-06-09T08:30:10.193Z</time>
      </trkpt>
      <trkpt lat="37.46102833" lon="-4.424365">
        <ele>491.0</ele>
        <time>2018-06-09T08:30:11.161Z</time>
      </trkpt>
      <trkpt lat="37.46093" lon="-4.42442667">
        <ele>492.0</ele>
        <time>2018-06-09T08:30:12.167Z</time>
      </trkpt>
      <trkpt lat="37.46088" lon="-4.42446">
        <ele>492.0</ele>
        <time>2018-06-09T08:30:13.191Z</time>
      </trkpt>
      <trkpt lat="37.46083" lon="-4.42449">
        <ele>492.0</ele>
        <time>2018-06-09T08:30:14.176Z</time>
      </trkpt>
      <trkpt lat="37.46083" lon="-4.42449">
        <ele>492.0</ele>
        <time>2018-06-09T08:30:15.196Z</time>
      </trkpt>
      <trkpt lat="37.46072667" lon="-4.42454833">
        <ele>492.0</ele>
        <time>2018-06-09T08:30:16.170Z</time>
      </trkpt>
      <trkpt lat="37.460675" lon="-4.424575">
        <ele>492.0</ele>
        <time>2018-06-09T08:30:17.173Z</time>
      </trkpt>
      <trkpt lat="37.460675" lon="-4.424575">
        <ele>492.0</ele>
        <time>2018-06-09T08:30:18.190Z</time>
      </trkpt>
      <trkpt lat="37.46057" lon="-4.42463167">
        <ele>493.0</ele>
        <time>2018-06-09T08:30:19.159Z</time>
      </trkpt>
      <trkpt lat="37.46051833" lon="-4.42465667">
        <ele>492.0</ele>
        <time>2018-06-09T08:30:20.169Z</time>
      </trkpt>
      <trkpt lat="37.46051833" lon="-4.42465667">
        <ele>492.0</ele>
        <time>2018-06-09T08:30:21.188Z</time>
      </trkpt>
      <trkpt lat="37.46041333" lon="-4.42470167">
        <ele>492.0</ele>
        <time>2018-06-09T08:30:22.195Z</time>
      </trkpt>
      <trkpt lat="37.46036" lon="-4.42472333">
        <ele>492.0</ele>
        <time>2018-06-09T08:30:23.159Z</time>
      </trkpt>
      <trkpt lat="37.46036" lon="-4.42472333">
        <ele>492.0</ele>
        <time>2018-06-09T08:30:24.177Z</time>
      </trkpt>
      <trkpt lat="37.46025167" lon="-4.424765">
        <ele>492.0</ele>
        <time>2018-06-09T08:30:25.183Z</time>
      </trkpt>
      <trkpt lat="37.46025167" lon="-4.424765">
        <ele>492.0</ele>
        <time>2018-06-09T08:30:26.160Z</time>
      </trkpt>
      <trkpt lat="37.46014167" lon="-4.42480333">
        <ele>492.0</ele>
        <time>2018-06-09T08:30:27.158Z</time>
      </trkpt>
      <trkpt lat="37.46014167" lon="-4.42480333">
        <ele>492.0</ele>
        <time>2018-06-09T08:30:28.157Z</time>
      </trkpt>
      <trkpt lat="37.46003333" lon="-4.42483833">
        <ele>493.0</ele>
        <time>2018-06-09T08:30:29.165Z</time>
      </trkpt>
      <trkpt lat="37.45998" lon="-4.424855">
        <ele>492.0</ele>
        <time>2018-06-09T08:30:30.190Z</time>
      </trkpt>
      <trkpt lat="37.45998" lon="-4.424855">
        <ele>492.0</ele>
        <time>2018-06-09T08:30:31.189Z</time>
      </trkpt>
      <trkpt lat="37.45987" lon="-4.424885">
        <ele>492.0</ele>
        <time>2018-06-09T08:30:32.162Z</time>
      </trkpt>
      <trkpt lat="37.45987" lon="-4.424885">
        <ele>492.0</ele>
        <time>2018-06-09T08:30:33.179Z</time>
      </trkpt>
      <trkpt lat="37.459755" lon="-4.42491333">
        <ele>492.0</ele>
        <time>2018-06-09T08:30:34.199Z</time>
      </trkpt>
      <trkpt lat="37.459755" lon="-4.42491333">
        <ele>492.0</ele>
        <time>2018-06-09T08:30:35.163Z</time>
      </trkpt>
      <trkpt lat="37.45964167" lon="-4.42493833">
        <ele>492.0</ele>
        <time>2018-06-09T08:30:36.169Z</time>
      </trkpt>
      <trkpt lat="37.45958667" lon="-4.42495167">
        <ele>492.0</ele>
        <time>2018-06-09T08:30:37.187Z</time>
      </trkpt>
      <trkpt lat="37.45953" lon="-4.424965">
        <ele>492.0</ele>
        <time>2018-06-09T08:30:38.188Z</time>
      </trkpt>
      <trkpt lat="37.45953" lon="-4.424965">
        <ele>492.0</ele>
        <time>2018-06-09T08:30:39.196Z</time>
      </trkpt>
      <trkpt lat="37.45942167" lon="-4.42499167">
        <ele>492.0</ele>
        <time>2018-06-09T08:30:40.163Z</time>
      </trkpt>
      <trkpt lat="37.45942167" lon="-4.42499167">
        <ele>492.0</ele>
        <time>2018-06-09T08:30:41.182Z</time>
      </trkpt>
      <trkpt lat="37.45931167" lon="-4.42501833">
        <ele>492.0</ele>
        <time>2018-06-09T08:30:42.157Z</time>
      </trkpt>
      <trkpt lat="37.45931167" lon="-4.42501833">
        <ele>492.0</ele>
        <time>2018-06-09T08:30:43.162Z</time>
      </trkpt>
      <trkpt lat="37.45920167" lon="-4.42504833">
        <ele>492.0</ele>
        <time>2018-06-09T08:30:44.169Z</time>
      </trkpt>
      <trkpt lat="37.45920167" lon="-4.42504833">
        <ele>492.0</ele>
        <time>2018-06-09T08:30:45.195Z</time>
      </trkpt>
      <trkpt lat="37.45909333" lon="-4.42507833">
        <ele>492.0</ele>
        <time>2018-06-09T08:30:46.158Z</time>
      </trkpt>
      <trkpt lat="37.45909333" lon="-4.42507833">
        <ele>492.0</ele>
        <time>2018-06-09T08:30:47.158Z</time>
      </trkpt>
      <trkpt lat="37.45898667" lon="-4.42510833">
        <ele>492.0</ele>
        <time>2018-06-09T08:30:48.158Z</time>
      </trkpt>
      <trkpt lat="37.45893167" lon="-4.425125">
        <ele>492.0</ele>
        <time>2018-06-09T08:30:49.182Z</time>
      </trkpt>
      <trkpt lat="37.45893167" lon="-4.425125">
        <ele>492.0</ele>
        <time>2018-06-09T08:30:50.161Z</time>
      </trkpt>
      <trkpt lat="37.45882333" lon="-4.42515667">
        <ele>492.0</ele>
        <time>2018-06-09T08:30:51.168Z</time>
      </trkpt>
      <trkpt lat="37.45877167" lon="-4.42517167">
        <ele>492.0</ele>
        <time>2018-06-09T08:30:52.186Z</time>
      </trkpt>
      <trkpt lat="37.45877167" lon="-4.42517167">
        <ele>492.0</ele>
        <time>2018-06-09T08:30:53.163Z</time>
      </trkpt>
      <trkpt lat="37.458675" lon="-4.42520167">
        <ele>492.0</ele>
        <time>2018-06-09T08:30:54.170Z</time>
      </trkpt>
      <trkpt lat="37.458675" lon="-4.42520167">
        <ele>492.0</ele>
        <time>2018-06-09T08:30:55.188Z</time>
      </trkpt>
      <trkpt lat="37.45858333" lon="-4.42523">
        <ele>492.0</ele>
        <time>2018-06-09T08:30:56.195Z</time>
      </trkpt>
      <trkpt lat="37.45853667" lon="-4.42524667">
        <ele>492.0</ele>
        <time>2018-06-09T08:30:57.174Z</time>
      </trkpt>
      <trkpt lat="37.45853667" lon="-4.42524667">
        <ele>492.0</ele>
        <time>2018-06-09T08:30:58.157Z</time>
      </trkpt>
      <trkpt lat="37.45844667" lon="-4.42528667">
        <ele>492.0</ele>
        <time>2018-06-09T08:30:59.164Z</time>
      </trkpt>
      <trkpt lat="37.4584" lon="-4.42530667">
        <ele>492.0</ele>
        <time>2018-06-09T08:31:00.181Z</time>
      </trkpt>
      <trkpt lat="37.4584" lon="-4.42530667">
        <ele>492.0</ele>
        <time>2018-06-09T08:31:01.168Z</time>
      </trkpt>
      <trkpt lat="37.45830833" lon="-4.42534667">
        <ele>492.0</ele>
        <time>2018-06-09T08:31:02.174Z</time>
      </trkpt>
      <trkpt lat="37.45830833" lon="-4.42534667">
        <ele>492.0</ele>
        <time>2018-06-09T08:31:03.192Z</time>
      </trkpt>
      <trkpt lat="37.45821667" lon="-4.42539">
        <ele>492.0</ele>
        <time>2018-06-09T08:31:04.160Z</time>
      </trkpt>
      <trkpt lat="37.45821667" lon="-4.42539">
        <ele>492.0</ele>
        <time>2018-06-09T08:31:05.188Z</time>
      </trkpt>
      <trkpt lat="37.458125" lon="-4.42544167">
        <ele>492.0</ele>
        <time>2018-06-09T08:31:06.194Z</time>
      </trkpt>
      <trkpt lat="37.458125" lon="-4.42544167">
        <ele>492.0</ele>
        <time>2018-06-09T08:31:07.170Z</time>
      </trkpt>
      <trkpt lat="37.458035" lon="-4.42549333">
        <ele>492.0</ele>
        <time>2018-06-09T08:31:08.184Z</time>
      </trkpt>
      <trkpt lat="37.458035" lon="-4.42549333">
        <ele>492.0</ele>
        <time>2018-06-09T08:31:09.161Z</time>
      </trkpt>
      <trkpt lat="37.45794833" lon="-4.42555167">
        <ele>492.0</ele>
        <time>2018-06-09T08:31:10.167Z</time>
      </trkpt>
      <trkpt lat="37.45794833" lon="-4.42555167">
        <ele>492.0</ele>
        <time>2018-06-09T08:31:11.190Z</time>
      </trkpt>
      <trkpt lat="37.45786167" lon="-4.42561167">
        <ele>492.0</ele>
        <time>2018-06-09T08:31:12.166Z</time>
      </trkpt>
      <trkpt lat="37.45786167" lon="-4.42561167">
        <ele>492.0</ele>
        <time>2018-06-09T08:31:13.162Z</time>
      </trkpt>
      <trkpt lat="37.45777333" lon="-4.42567167">
        <ele>492.0</ele>
        <time>2018-06-09T08:31:14.169Z</time>
      </trkpt>
      <trkpt lat="37.45773167" lon="-4.42570333">
        <ele>492.0</ele>
        <time>2018-06-09T08:31:15.195Z</time>
      </trkpt>
      <trkpt lat="37.45773167" lon="-4.42570333">
        <ele>492.0</ele>
        <time>2018-06-09T08:31:16.172Z</time>
      </trkpt>
      <trkpt lat="37.45764833" lon="-4.42577">
        <ele>492.0</ele>
        <time>2018-06-09T08:31:17.178Z</time>
      </trkpt>
      <trkpt lat="37.45760667" lon="-4.425805">
        <ele>492.0</ele>
        <time>2018-06-09T08:31:18.174Z</time>
      </trkpt>
      <trkpt lat="37.45760667" lon="-4.425805">
        <ele>492.0</ele>
        <time>2018-06-09T08:31:19.163Z</time>
      </trkpt>
      <trkpt lat="37.457525" lon="-4.42587167">
        <ele>492.0</ele>
        <time>2018-06-09T08:31:20.169Z</time>
      </trkpt>
      <trkpt lat="37.457525" lon="-4.42587167">
        <ele>492.0</ele>
        <time>2018-06-09T08:31:21.158Z</time>
      </trkpt>
      <trkpt lat="37.45744667" lon="-4.42594667">
        <ele>492.0</ele>
        <time>2018-06-09T08:31:22.157Z</time>
      </trkpt>
      <trkpt lat="37.45744667" lon="-4.42594667">
        <ele>492.0</ele>
        <time>2018-06-09T08:31:23.186Z</time>
      </trkpt>
      <trkpt lat="37.45737" lon="-4.426025">
        <ele>492.0</ele>
        <time>2018-06-09T08:31:24.195Z</time>
      </trkpt>
      <trkpt lat="37.45733333" lon="-4.426065">
        <ele>491.0</ele>
        <time>2018-06-09T08:31:25.173Z</time>
      </trkpt>
      <trkpt lat="37.45733333" lon="-4.426065">
        <ele>491.0</ele>
        <time>2018-06-09T08:31:26.169Z</time>
      </trkpt>
      <trkpt lat="37.45725833" lon="-4.42614333">
        <ele>491.0</ele>
        <time>2018-06-09T08:31:27.176Z</time>
      </trkpt>
      <trkpt lat="37.45725833" lon="-4.42614333">
        <ele>491.0</ele>
        <time>2018-06-09T08:31:28.161Z</time>
      </trkpt>
      <trkpt lat="37.45718333" lon="-4.42622333">
        <ele>491.0</ele>
        <time>2018-06-09T08:31:29.159Z</time>
      </trkpt>
      <trkpt lat="37.45718333" lon="-4.42622333">
        <ele>491.0</ele>
        <time>2018-06-09T08:31:30.178Z</time>
      </trkpt>
      <trkpt lat="37.45711" lon="-4.42631167">
        <ele>492.0</ele>
        <time>2018-06-09T08:31:31.184Z</time>
      </trkpt>
      <trkpt lat="37.457075" lon="-4.426355">
        <ele>492.0</ele>
        <time>2018-06-09T08:31:32.172Z</time>
      </trkpt>
      <trkpt lat="37.457075" lon="-4.426355">
        <ele>492.0</ele>
        <time>2018-06-09T08:31:33.189Z</time>
      </trkpt>
      <trkpt lat="37.45701167" lon="-4.426445">
        <ele>492.0</ele>
        <time>2018-06-09T08:31:34.158Z</time>
      </trkpt>
      <trkpt lat="37.45701167" lon="-4.426445">
        <ele>492.0</ele>
        <time>2018-06-09T08:31:35.157Z</time>
      </trkpt>
      <trkpt lat="37.45694833" lon="-4.42654167">
        <ele>493.0</ele>
        <time>2018-06-09T08:31:36.165Z</time>
      </trkpt>
      <trkpt lat="37.45694833" lon="-4.42654167">
        <ele>493.0</ele>
        <time>2018-06-09T08:31:37.183Z</time>
      </trkpt>
      <trkpt lat="37.45687333" lon="-4.42662">
        <ele>493.0</ele>
        <time>2018-06-09T08:31:38.159Z</time>
      </trkpt>
      <trkpt lat="37.45687333" lon="-4.42662">
        <ele>493.0</ele>
        <time>2018-06-09T08:31:39.175Z</time>
      </trkpt>
      <trkpt lat="37.45683333" lon="-4.42671333">
        <ele>494.0</ele>
        <time>2018-06-09T08:31:40.182Z</time>
      </trkpt>
      <trkpt lat="37.45683333" lon="-4.42671333">
        <ele>494.0</ele>
        <time>2018-06-09T08:31:41.161Z</time>
      </trkpt>
      <trkpt lat="37.456785" lon="-4.42680667">
        <ele>494.0</ele>
        <time>2018-06-09T08:31:42.191Z</time>
      </trkpt>
      <trkpt lat="37.456785" lon="-4.42680667">
        <ele>494.0</ele>
        <time>2018-06-09T08:31:43.195Z</time>
      </trkpt>
      <trkpt lat="37.456735" lon="-4.426905">
        <ele>494.0</ele>
        <time>2018-06-09T08:31:44.163Z</time>
      </trkpt>
      <trkpt lat="37.456735" lon="-4.426905">
        <ele>494.0</ele>
        <time>2018-06-09T08:31:45.181Z</time>
      </trkpt>
      <trkpt lat="37.456675" lon="-4.427">
        <ele>494.0</ele>
        <time>2018-06-09T08:31:46.195Z</time>
      </trkpt>
      <trkpt lat="37.45664167" lon="-4.42704667">
        <ele>495.0</ele>
        <time>2018-06-09T08:31:47.167Z</time>
      </trkpt>
      <trkpt lat="37.45664167" lon="-4.42704667">
        <ele>495.0</ele>
        <time>2018-06-09T08:31:48.177Z</time>
      </trkpt>
      <trkpt lat="37.45657667" lon="-4.42714667">
        <ele>495.0</ele>
        <time>2018-06-09T08:31:49.185Z</time>
      </trkpt>
      <trkpt lat="37.45654" lon="-4.42719333">
        <ele>496.0</ele>
        <time>2018-06-09T08:31:50.161Z</time>
      </trkpt>
      <trkpt lat="37.456505" lon="-4.42724">
        <ele>496.0</ele>
        <time>2018-06-09T08:31:51.191Z</time>
      </trkpt>
      <trkpt lat="37.456505" lon="-4.42724">
        <ele>496.0</ele>
        <time>2018-06-09T08:31:52.168Z</time>
      </trkpt>
      <trkpt lat="37.45643833" lon="-4.427335">
        <ele>496.0</ele>
        <time>2018-06-09T08:31:53.175Z</time>
      </trkpt>
      <trkpt lat="37.45640333" lon="-4.42737833">
        <ele>496.0</ele>
        <time>2018-06-09T08:31:54.157Z</time>
      </trkpt>
      <trkpt lat="37.45640333" lon="-4.42737833">
        <ele>496.0</ele>
        <time>2018-06-09T08:31:55.164Z</time>
      </trkpt>
      <trkpt lat="37.45632833" lon="-4.42746833">
        <ele>496.0</ele>
        <time>2018-06-09T08:31:56.171Z</time>
      </trkpt>
      <trkpt lat="37.45628667" lon="-4.42751167">
        <ele>496.0</ele>
        <time>2018-06-09T08:31:57.160Z</time>
      </trkpt>
      <trkpt lat="37.45628667" lon="-4.42751167">
        <ele>496.0</ele>
        <time>2018-06-09T08:31:58.177Z</time>
      </trkpt>
      <trkpt lat="37.45621333" lon="-4.4276">
        <ele>496.0</ele>
        <time>2018-06-09T08:31:59.183Z</time>
      </trkpt>
      <trkpt lat="37.456175" lon="-4.42764333">
        <ele>496.0</ele>
        <time>2018-06-09T08:32:00.191Z</time>
      </trkpt>
      <trkpt lat="37.456175" lon="-4.42764333">
        <ele>496.0</ele>
        <time>2018-06-09T08:32:01.169Z</time>
      </trkpt>
      <trkpt lat="37.45609667" lon="-4.42772833">
        <ele>497.0</ele>
        <time>2018-06-09T08:32:02.182Z</time>
      </trkpt>
      <trkpt lat="37.45609667" lon="-4.42772833">
        <ele>497.0</ele>
        <time>2018-06-09T08:32:03.160Z</time>
      </trkpt>
      <trkpt lat="37.45601" lon="-4.42780833">
        <ele>497.0</ele>
        <time>2018-06-09T08:32:04.158Z</time>
      </trkpt>
      <trkpt lat="37.45601" lon="-4.42780833">
        <ele>497.0</ele>
        <time>2018-06-09T08:32:05.166Z</time>
      </trkpt>
      <trkpt lat="37.45592833" lon="-4.427885">
        <ele>496.0</ele>
        <time>2018-06-09T08:32:06.172Z</time>
      </trkpt>
      <trkpt lat="37.455885" lon="-4.427925">
        <ele>496.0</ele>
        <time>2018-06-09T08:32:07.191Z</time>
      </trkpt>
      <trkpt lat="37.45584" lon="-4.427965">
        <ele>496.0</ele>
        <time>2018-06-09T08:32:08.172Z</time>
      </trkpt>
      <trkpt lat="37.45584" lon="-4.427965">
        <ele>496.0</ele>
        <time>2018-06-09T08:32:09.189Z</time>
      </trkpt>
      <trkpt lat="37.45575333" lon="-4.42804">
        <ele>495.0</ele>
        <time>2018-06-09T08:32:10.157Z</time>
      </trkpt>
      <trkpt lat="37.45575333" lon="-4.42804">
        <ele>495.0</ele>
        <time>2018-06-09T08:32:11.174Z</time>
      </trkpt>
      <trkpt lat="37.45566667" lon="-4.42811">
        <ele>496.0</ele>
        <time>2018-06-09T08:32:12.159Z</time>
      </trkpt>
      <trkpt lat="37.45562333" lon="-4.428145">
        <ele>496.0</ele>
        <time>2018-06-09T08:32:13.188Z</time>
      </trkpt>
      <trkpt lat="37.45562333" lon="-4.428145">
        <ele>496.0</ele>
        <time>2018-06-09T08:32:14.164Z</time>
      </trkpt>
      <trkpt lat="37.45553667" lon="-4.428215">
        <ele>496.0</ele>
        <time>2018-06-09T08:32:15.175Z</time>
      </trkpt>
      <trkpt lat="37.45553667" lon="-4.428215">
        <ele>496.0</ele>
        <time>2018-06-09T08:32:16.157Z</time>
      </trkpt>
      <trkpt lat="37.45545" lon="-4.42828333">
        <ele>496.0</ele>
        <time>2018-06-09T08:32:17.167Z</time>
      </trkpt>
      <trkpt lat="37.45545" lon="-4.42828333">
        <ele>496.0</ele>
        <time>2018-06-09T08:32:18.184Z</time>
      </trkpt>
      <trkpt lat="37.45536" lon="-4.42835">
        <ele>497.0</ele>
        <time>2018-06-09T08:32:19.199Z</time>
      </trkpt>
      <trkpt lat="37.45536" lon="-4.42835">
        <ele>497.0</ele>
        <time>2018-06-09T08:32:20.183Z</time>
      </trkpt>
      <trkpt lat="37.45527167" lon="-4.42840833">
        <ele>496.0</ele>
        <time>2018-06-09T08:32:21.189Z</time>
      </trkpt>
      <trkpt lat="37.45527167" lon="-4.42840833">
        <ele>496.0</ele>
        <time>2018-06-09T08:32:22.167Z</time>
      </trkpt>
      <trkpt lat="37.45517833" lon="-4.42846">
        <ele>496.0</ele>
        <time>2018-06-09T08:32:23.179Z</time>
      </trkpt>
      <trkpt lat="37.45517833" lon="-4.42846">
        <ele>496.0</ele>
        <time>2018-06-09T08:32:24.173Z</time>
      </trkpt>
      <trkpt lat="37.45508667" lon="-4.42850833">
        <ele>496.0</ele>
        <time>2018-06-09T08:32:25.180Z</time>
      </trkpt>
      <trkpt lat="37.45508667" lon="-4.42850833">
        <ele>496.0</ele>
        <time>2018-06-09T08:32:26.165Z</time>
      </trkpt>
      <trkpt lat="37.45499333" lon="-4.42855833">
        <ele>496.0</ele>
        <time>2018-06-09T08:32:27.178Z</time>
      </trkpt>
      <trkpt lat="37.45499333" lon="-4.42855833">
        <ele>496.0</ele>
        <time>2018-06-09T08:32:28.176Z</time>
      </trkpt>
      <trkpt lat="37.45489667" lon="-4.42860833">
        <ele>496.0</ele>
        <time>2018-06-09T08:32:29.182Z</time>
      </trkpt>
      <trkpt lat="37.45484667" lon="-4.428635">
        <ele>496.0</ele>
        <time>2018-06-09T08:32:30.158Z</time>
      </trkpt>
      <trkpt lat="37.45484667" lon="-4.428635">
        <ele>496.0</ele>
        <time>2018-06-09T08:32:31.178Z</time>
      </trkpt>
      <trkpt lat="37.45474833" lon="-4.42868167">
        <ele>496.0</ele>
        <time>2018-06-09T08:32:32.184Z</time>
      </trkpt>
      <trkpt lat="37.45474833" lon="-4.42868167">
        <ele>496.0</ele>
        <time>2018-06-09T08:32:33.166Z</time>
      </trkpt>
      <trkpt lat="37.45464667" lon="-4.42873">
        <ele>496.0</ele>
        <time>2018-06-09T08:32:34.191Z</time>
      </trkpt>
      <trkpt lat="37.45464667" lon="-4.42873">
        <ele>496.0</ele>
        <time>2018-06-09T08:32:35.159Z</time>
      </trkpt>
      <trkpt lat="37.45454333" lon="-4.42878">
        <ele>495.0</ele>
        <time>2018-06-09T08:32:36.166Z</time>
      </trkpt>
      <trkpt lat="37.45449167" lon="-4.428805">
        <ele>495.0</ele>
        <time>2018-06-09T08:32:37.183Z</time>
      </trkpt>
      <trkpt lat="37.45449167" lon="-4.428805">
        <ele>495.0</ele>
        <time>2018-06-09T08:32:38.161Z</time>
      </trkpt>
      <trkpt lat="37.45439" lon="-4.42885667">
        <ele>495.0</ele>
        <time>2018-06-09T08:32:39.169Z</time>
      </trkpt>
      <trkpt lat="37.45439" lon="-4.42885667">
        <ele>495.0</ele>
        <time>2018-06-09T08:32:40.187Z</time>
      </trkpt>
      <trkpt lat="37.45428833" lon="-4.428905">
        <ele>495.0</ele>
        <time>2018-06-09T08:32:41.159Z</time>
      </trkpt>
      <trkpt lat="37.45428833" lon="-4.428905">
        <ele>495.0</ele>
        <time>2018-06-09T08:32:42.164Z</time>
      </trkpt>
      <trkpt lat="37.45418333" lon="-4.42895833">
        <ele>496.0</ele>
        <time>2018-06-09T08:32:43.170Z</time>
      </trkpt>
      <trkpt lat="37.45413" lon="-4.42898333">
        <ele>496.0</ele>
        <time>2018-06-09T08:32:44.176Z</time>
      </trkpt>
      <trkpt lat="37.45413" lon="-4.42898333">
        <ele>496.0</ele>
        <time>2018-06-09T08:32:45.194Z</time>
      </trkpt>
      <trkpt lat="37.454025" lon="-4.42903167">
        <ele>495.0</ele>
        <time>2018-06-09T08:32:46.166Z</time>
      </trkpt>
      <trkpt lat="37.454025" lon="-4.42903167">
        <ele>495.0</ele>
        <time>2018-06-09T08:32:47.171Z</time>
      </trkpt>
      <trkpt lat="37.45392167" lon="-4.42908167">
        <ele>495.0</ele>
        <time>2018-06-09T08:32:48.186Z</time>
      </trkpt>
      <trkpt lat="37.45386833" lon="-4.42911">
        <ele>495.0</ele>
        <time>2018-06-09T08:32:49.163Z</time>
      </trkpt>
      <trkpt lat="37.45386833" lon="-4.42911">
        <ele>495.0</ele>
        <time>2018-06-09T08:32:50.180Z</time>
      </trkpt>
      <trkpt lat="37.45376667" lon="-4.42916333">
        <ele>496.0</ele>
        <time>2018-06-09T08:32:51.186Z</time>
      </trkpt>
      <trkpt lat="37.45376667" lon="-4.42916333">
        <ele>496.0</ele>
        <time>2018-06-09T08:32:52.163Z</time>
      </trkpt>
      <trkpt lat="37.45366833" lon="-4.42921333">
        <ele>495.0</ele>
        <time>2018-06-09T08:32:53.167Z</time>
      </trkpt>
      <trkpt lat="37.45366833" lon="-4.42921333">
        <ele>495.0</ele>
        <time>2018-06-09T08:32:54.166Z</time>
      </trkpt>
      <trkpt lat="37.45357" lon="-4.42926">
        <ele>495.0</ele>
        <time>2018-06-09T08:32:55.173Z</time>
      </trkpt>
      <trkpt lat="37.45351833" lon="-4.42928667">
        <ele>495.0</ele>
        <time>2018-06-09T08:32:56.161Z</time>
      </trkpt>
      <trkpt lat="37.45346833" lon="-4.42931333">
        <ele>495.0</ele>
        <time>2018-06-09T08:32:57.176Z</time>
      </trkpt>
      <trkpt lat="37.45346833" lon="-4.42931333">
        <ele>495.0</ele>
        <time>2018-06-09T08:32:58.182Z</time>
      </trkpt>
      <trkpt lat="37.45336833" lon="-4.429365">
        <ele>495.0</ele>
        <time>2018-06-09T08:32:59.181Z</time>
      </trkpt>
      <trkpt lat="37.45331833" lon="-4.42938833">
        <ele>495.0</ele>
        <time>2018-06-09T08:33:00.164Z</time>
      </trkpt>
      <trkpt lat="37.45331833" lon="-4.42938833">
        <ele>495.0</ele>
        <time>2018-06-09T08:33:01.182Z</time>
      </trkpt>
      <trkpt lat="37.45321667" lon="-4.429435">
        <ele>495.0</ele>
        <time>2018-06-09T08:33:02.191Z</time>
      </trkpt>
      <trkpt lat="37.453165" lon="-4.42946">
        <ele>495.0</ele>
        <time>2018-06-09T08:33:03.170Z</time>
      </trkpt>
      <trkpt lat="37.453165" lon="-4.42946">
        <ele>495.0</ele>
        <time>2018-06-09T08:33:04.188Z</time>
      </trkpt>
      <trkpt lat="37.45306333" lon="-4.42951">
        <ele>495.0</ele>
        <time>2018-06-09T08:33:05.168Z</time>
      </trkpt>
      <trkpt lat="37.45306333" lon="-4.42951">
        <ele>495.0</ele>
        <time>2018-06-09T08:33:06.158Z</time>
      </trkpt>
      <trkpt lat="37.45296" lon="-4.42956">
        <ele>495.0</ele>
        <time>2018-06-09T08:33:07.164Z</time>
      </trkpt>
      <trkpt lat="37.45290833" lon="-4.429585">
        <ele>495.0</ele>
        <time>2018-06-09T08:33:08.190Z</time>
      </trkpt>
      <trkpt lat="37.45290833" lon="-4.429585">
        <ele>495.0</ele>
        <time>2018-06-09T08:33:09.176Z</time>
      </trkpt>
      <trkpt lat="37.452805" lon="-4.42963333">
        <ele>495.0</ele>
        <time>2018-06-09T08:33:10.182Z</time>
      </trkpt>
      <trkpt lat="37.452755" lon="-4.42966">
        <ele>495.0</ele>
        <time>2018-06-09T08:33:11.162Z</time>
      </trkpt>
      <trkpt lat="37.452755" lon="-4.42966">
        <ele>495.0</ele>
        <time>2018-06-09T08:33:12.177Z</time>
      </trkpt>
      <trkpt lat="37.45265333" lon="-4.42971667">
        <ele>495.0</ele>
        <time>2018-06-09T08:33:13.188Z</time>
      </trkpt>
      <trkpt lat="37.45260167" lon="-4.42974333">
        <ele>495.0</ele>
        <time>2018-06-09T08:33:14.163Z</time>
      </trkpt>
      <trkpt lat="37.45260167" lon="-4.42974333">
        <ele>495.0</ele>
        <time>2018-06-09T08:33:15.179Z</time>
      </trkpt>
      <trkpt lat="37.45249667" lon="-4.42979333">
        <ele>495.0</ele>
        <time>2018-06-09T08:33:16.185Z</time>
      </trkpt>
      <trkpt lat="37.452445" lon="-4.42982">
        <ele>495.0</ele>
        <time>2018-06-09T08:33:17.157Z</time>
      </trkpt>
      <trkpt lat="37.452445" lon="-4.42982">
        <ele>495.0</ele>
        <time>2018-06-09T08:33:18.158Z</time>
      </trkpt>
      <trkpt lat="37.45234167" lon="-4.42987167">
        <ele>495.0</ele>
        <time>2018-06-09T08:33:19.169Z</time>
      </trkpt>
      <trkpt lat="37.45234167" lon="-4.42987167">
        <ele>495.0</ele>
        <time>2018-06-09T08:33:20.186Z</time>
      </trkpt>
      <trkpt lat="37.45224" lon="-4.42992">
        <ele>495.0</ele>
        <time>2018-06-09T08:33:21.169Z</time>
      </trkpt>
      <trkpt lat="37.45224" lon="-4.42992">
        <ele>495.0</ele>
        <time>2018-06-09T08:33:22.166Z</time>
      </trkpt>
      <trkpt lat="37.45214" lon="-4.42997167">
        <ele>495.0</ele>
        <time>2018-06-09T08:33:23.182Z</time>
      </trkpt>
      <trkpt lat="37.45208833" lon="-4.42999833">
        <ele>495.0</ele>
        <time>2018-06-09T08:33:24.191Z</time>
      </trkpt>
      <trkpt lat="37.45208833" lon="-4.42999833">
        <ele>495.0</ele>
        <time>2018-06-09T08:33:25.174Z</time>
      </trkpt>
      <trkpt lat="37.45198833" lon="-4.43005167">
        <ele>495.0</ele>
        <time>2018-06-09T08:33:26.188Z</time>
      </trkpt>
      <trkpt lat="37.45198833" lon="-4.43005167">
        <ele>495.0</ele>
        <time>2018-06-09T08:33:27.159Z</time>
      </trkpt>
      <trkpt lat="37.45188667" lon="-4.430105">
        <ele>495.0</ele>
        <time>2018-06-09T08:33:28.166Z</time>
      </trkpt>
      <trkpt lat="37.45188667" lon="-4.430105">
        <ele>495.0</ele>
        <time>2018-06-09T08:33:29.186Z</time>
      </trkpt>
      <trkpt lat="37.451785" lon="-4.43015667">
        <ele>495.0</ele>
        <time>2018-06-09T08:33:30.192Z</time>
      </trkpt>
      <trkpt lat="37.451785" lon="-4.43015667">
        <ele>495.0</ele>
        <time>2018-06-09T08:33:31.169Z</time>
      </trkpt>
      <trkpt lat="37.451685" lon="-4.430205">
        <ele>495.0</ele>
        <time>2018-06-09T08:33:32.191Z</time>
      </trkpt>
      <trkpt lat="37.451685" lon="-4.430205">
        <ele>495.0</ele>
        <time>2018-06-09T08:33:33.175Z</time>
      </trkpt>
      <trkpt lat="37.45159667" lon="-4.430255">
        <ele>495.0</ele>
        <time>2018-06-09T08:33:34.181Z</time>
      </trkpt>
      <trkpt lat="37.45155333" lon="-4.43027667">
        <ele>495.0</ele>
        <time>2018-06-09T08:33:35.157Z</time>
      </trkpt>
      <trkpt lat="37.45155333" lon="-4.43027667">
        <ele>495.0</ele>
        <time>2018-06-09T08:33:36.157Z</time>
      </trkpt>
      <trkpt lat="37.45147167" lon="-4.43031167">
        <ele>495.0</ele>
        <time>2018-06-09T08:33:37.164Z</time>
      </trkpt>
      <trkpt lat="37.45143167" lon="-4.43033333">
        <ele>495.0</ele>
        <time>2018-06-09T08:33:38.160Z</time>
      </trkpt>
      <trkpt lat="37.45143167" lon="-4.43033333">
        <ele>495.0</ele>
        <time>2018-06-09T08:33:39.196Z</time>
      </trkpt>
      <trkpt lat="37.45134833" lon="-4.43037167">
        <ele>495.0</ele>
        <time>2018-06-09T08:33:40.165Z</time>
      </trkpt>
      <trkpt lat="37.45130333" lon="-4.43039">
        <ele>495.0</ele>
        <time>2018-06-09T08:33:41.183Z</time>
      </trkpt>
      <trkpt lat="37.45130333" lon="-4.43039">
        <ele>495.0</ele>
        <time>2018-06-09T08:33:42.178Z</time>
      </trkpt>
      <trkpt lat="37.45121667" lon="-4.43043">
        <ele>495.0</ele>
        <time>2018-06-09T08:33:43.184Z</time>
      </trkpt>
      <trkpt lat="37.45117833" lon="-4.43044833">
        <ele>494.0</ele>
        <time>2018-06-09T08:33:44.170Z</time>
      </trkpt>
      <trkpt lat="37.45117833" lon="-4.43044833">
        <ele>494.0</ele>
        <time>2018-06-09T08:33:45.165Z</time>
      </trkpt>
      <trkpt lat="37.45109167" lon="-4.430495">
        <ele>494.0</ele>
        <time>2018-06-09T08:33:46.171Z</time>
      </trkpt>
      <trkpt lat="37.45104667" lon="-4.43051667">
        <ele>494.0</ele>
        <time>2018-06-09T08:33:47.160Z</time>
      </trkpt>
      <trkpt lat="37.45100333" lon="-4.43053667">
        <ele>494.0</ele>
        <time>2018-06-09T08:33:48.170Z</time>
      </trkpt>
      <trkpt lat="37.45100333" lon="-4.43053667">
        <ele>494.0</ele>
        <time>2018-06-09T08:33:49.188Z</time>
      </trkpt>
      <trkpt lat="37.45091667" lon="-4.43058167">
        <ele>494.0</ele>
        <time>2018-06-09T08:33:50.195Z</time>
      </trkpt>
      <trkpt lat="37.45091667" lon="-4.43058167">
        <ele>494.0</ele>
        <time>2018-06-09T08:33:51.177Z</time>
      </trkpt>
      <trkpt lat="37.45083" lon="-4.43062667">
        <ele>493.0</ele>
        <time>2018-06-09T08:33:52.183Z</time>
      </trkpt>
      <trkpt lat="37.45083" lon="-4.43062667">
        <ele>493.0</ele>
        <time>2018-06-09T08:33:53.167Z</time>
      </trkpt>
      <trkpt lat="37.45074" lon="-4.43066833">
        <ele>493.0</ele>
        <time>2018-06-09T08:33:54.191Z</time>
      </trkpt>
      <trkpt lat="37.45074" lon="-4.43066833">
        <ele>493.0</ele>
        <time>2018-06-09T08:33:55.182Z</time>
      </trkpt>
      <trkpt lat="37.45065" lon="-4.43071333">
        <ele>493.0</ele>
        <time>2018-06-09T08:33:56.189Z</time>
      </trkpt>
      <trkpt lat="37.45065" lon="-4.43071333">
        <ele>493.0</ele>
        <time>2018-06-09T08:33:57.168Z</time>
      </trkpt>
      <trkpt lat="37.45056167" lon="-4.43075167">
        <ele>492.0</ele>
        <time>2018-06-09T08:33:58.162Z</time>
      </trkpt>
      <trkpt lat="37.45051667" lon="-4.43077">
        <ele>492.0</ele>
        <time>2018-06-09T08:33:59.163Z</time>
      </trkpt>
      <trkpt lat="37.45051667" lon="-4.43077">
        <ele>492.0</ele>
        <time>2018-06-09T08:34:00.180Z</time>
      </trkpt>
      <trkpt lat="37.450425" lon="-4.43080333">
        <ele>492.0</ele>
        <time>2018-06-09T08:34:01.187Z</time>
      </trkpt>
      <trkpt lat="37.45038167" lon="-4.43081833">
        <ele>492.0</ele>
        <time>2018-06-09T08:34:02.162Z</time>
      </trkpt>
      <trkpt lat="37.45038167" lon="-4.43081833">
        <ele>492.0</ele>
        <time>2018-06-09T08:34:03.186Z</time>
      </trkpt>
      <trkpt lat="37.45029667" lon="-4.43084167">
        <ele>491.0</ele>
        <time>2018-06-09T08:34:04.159Z</time>
      </trkpt>
      <trkpt lat="37.45025333" lon="-4.43085">
        <ele>491.0</ele>
        <time>2018-06-09T08:34:05.168Z</time>
      </trkpt>
      <trkpt lat="37.45025333" lon="-4.43085">
        <ele>491.0</ele>
        <time>2018-06-09T08:34:06.186Z</time>
      </trkpt>
      <trkpt lat="37.45015833" lon="-4.43087167">
        <ele>491.0</ele>
        <time>2018-06-09T08:34:07.192Z</time>
      </trkpt>
      <trkpt lat="37.45015833" lon="-4.43087167">
        <ele>491.0</ele>
        <time>2018-06-09T08:34:08.186Z</time>
      </trkpt>
      <trkpt lat="37.45006833" lon="-4.43088833">
        <ele>491.0</ele>
        <time>2018-06-09T08:34:09.193Z</time>
      </trkpt>
      <trkpt lat="37.45006833" lon="-4.43088833">
        <ele>491.0</ele>
        <time>2018-06-09T08:34:10.169Z</time>
      </trkpt>
      <trkpt lat="37.44997667" lon="-4.43091">
        <ele>491.0</ele>
        <time>2018-06-09T08:34:11.159Z</time>
      </trkpt>
      <trkpt lat="37.44997667" lon="-4.43091">
        <ele>491.0</ele>
        <time>2018-06-09T08:34:12.166Z</time>
      </trkpt>
      <trkpt lat="37.44988333" lon="-4.43093">
        <ele>490.0</ele>
        <time>2018-06-09T08:34:13.172Z</time>
      </trkpt>
      <trkpt lat="37.449835" lon="-4.43093333">
        <ele>490.0</ele>
        <time>2018-06-09T08:34:14.190Z</time>
      </trkpt>
      <trkpt lat="37.449835" lon="-4.43093333">
        <ele>490.0</ele>
        <time>2018-06-09T08:34:15.181Z</time>
      </trkpt>
      <trkpt lat="37.44973667" lon="-4.43092833">
        <ele>489.0</ele>
        <time>2018-06-09T08:34:16.188Z</time>
      </trkpt>
      <trkpt lat="37.44973667" lon="-4.43092833">
        <ele>489.0</ele>
        <time>2018-06-09T08:34:17.165Z</time>
      </trkpt>
      <trkpt lat="37.44964" lon="-4.43093167">
        <ele>490.0</ele>
        <time>2018-06-09T08:34:18.157Z</time>
      </trkpt>
      <trkpt lat="37.44964" lon="-4.43093167">
        <ele>490.0</ele>
        <time>2018-06-09T08:34:19.161Z</time>
      </trkpt>
      <trkpt lat="37.44953833" lon="-4.43093167">
        <ele>490.0</ele>
        <time>2018-06-09T08:34:20.169Z</time>
      </trkpt>
      <trkpt lat="37.44953833" lon="-4.43093167">
        <ele>490.0</ele>
        <time>2018-06-09T08:34:21.185Z</time>
      </trkpt>
      <trkpt lat="37.44943667" lon="-4.43092833">
        <ele>491.0</ele>
        <time>2018-06-09T08:34:22.160Z</time>
      </trkpt>
      <trkpt lat="37.44943667" lon="-4.43092833">
        <ele>491.0</ele>
        <time>2018-06-09T08:34:23.181Z</time>
      </trkpt>
      <trkpt lat="37.449335" lon="-4.430925">
        <ele>491.0</ele>
        <time>2018-06-09T08:34:24.188Z</time>
      </trkpt>
      <trkpt lat="37.44928833" lon="-4.43092">
        <ele>492.0</ele>
        <time>2018-06-09T08:34:25.201Z</time>
      </trkpt>
      <trkpt lat="37.44928833" lon="-4.43092">
        <ele>492.0</ele>
        <time>2018-06-09T08:34:26.159Z</time>
      </trkpt>
      <trkpt lat="37.44919333" lon="-4.43090833">
        <ele>492.0</ele>
        <time>2018-06-09T08:34:27.167Z</time>
      </trkpt>
      <trkpt lat="37.44919333" lon="-4.43090833">
        <ele>492.0</ele>
        <time>2018-06-09T08:34:28.186Z</time>
      </trkpt>
      <trkpt lat="37.44910167" lon="-4.4309">
        <ele>492.0</ele>
        <time>2018-06-09T08:34:29.157Z</time>
      </trkpt>
      <trkpt lat="37.44910167" lon="-4.4309">
        <ele>492.0</ele>
        <time>2018-06-09T08:34:30.186Z</time>
      </trkpt>
      <trkpt lat="37.44901" lon="-4.43089333">
        <ele>492.0</ele>
        <time>2018-06-09T08:34:31.193Z</time>
      </trkpt>
      <trkpt lat="37.44896667" lon="-4.43089">
        <ele>492.0</ele>
        <time>2018-06-09T08:34:32.171Z</time>
      </trkpt>
      <trkpt lat="37.44896667" lon="-4.43089">
        <ele>492.0</ele>
        <time>2018-06-09T08:34:33.171Z</time>
      </trkpt>
      <trkpt lat="37.44888333" lon="-4.43087667">
        <ele>493.0</ele>
        <time>2018-06-09T08:34:34.167Z</time>
      </trkpt>
      <trkpt lat="37.44888333" lon="-4.43087667">
        <ele>493.0</ele>
        <time>2018-06-09T08:34:35.166Z</time>
      </trkpt>
      <trkpt lat="37.448805" lon="-4.43086167">
        <ele>493.0</ele>
        <time>2018-06-09T08:34:36.172Z</time>
      </trkpt>
      <trkpt lat="37.44876833" lon="-4.43085667">
        <ele>493.0</ele>
        <time>2018-06-09T08:34:37.192Z</time>
      </trkpt>
      <trkpt lat="37.44873" lon="-4.43085167">
        <ele>493.0</ele>
        <time>2018-06-09T08:34:38.160Z</time>
      </trkpt>
      <trkpt lat="37.44873" lon="-4.43085167">
        <ele>493.0</ele>
        <time>2018-06-09T08:34:39.172Z</time>
      </trkpt>
      <trkpt lat="37.44866" lon="-4.43084167">
        <ele>493.0</ele>
        <time>2018-06-09T08:34:40.178Z</time>
      </trkpt>
      <trkpt lat="37.44866" lon="-4.43084167">
        <ele>493.0</ele>
        <time>2018-06-09T08:34:41.160Z</time>
      </trkpt>
      <trkpt lat="37.448595" lon="-4.43083">
        <ele>493.0</ele>
        <time>2018-06-09T08:34:42.200Z</time>
      </trkpt>
      <trkpt lat="37.448595" lon="-4.43083">
        <ele>493.0</ele>
        <time>2018-06-09T08:34:43.187Z</time>
      </trkpt>
      <trkpt lat="37.448535" lon="-4.43082">
        <ele>493.0</ele>
        <time>2018-06-09T08:34:44.195Z</time>
      </trkpt>
      <trkpt lat="37.448535" lon="-4.43082">
        <ele>493.0</ele>
        <time>2018-06-09T08:34:45.170Z</time>
      </trkpt>
      <trkpt lat="37.44847833" lon="-4.43082">
        <ele>493.0</ele>
        <time>2018-06-09T08:34:46.197Z</time>
      </trkpt>
      <trkpt lat="37.44847833" lon="-4.43082">
        <ele>493.0</ele>
        <time>2018-06-09T08:34:47.196Z</time>
      </trkpt>
      <trkpt lat="37.44841667" lon="-4.430815">
        <ele>493.0</ele>
        <time>2018-06-09T08:34:48.183Z</time>
      </trkpt>
      <trkpt lat="37.44838667" lon="-4.43081167">
        <ele>493.0</ele>
        <time>2018-06-09T08:34:49.163Z</time>
      </trkpt>
      <trkpt lat="37.448365" lon="-4.43081">
        <ele>492.0</ele>
        <time>2018-06-09T08:34:50.182Z</time>
      </trkpt>
      <trkpt lat="37.448365" lon="-4.43081">
        <ele>492.0</ele>
        <time>2018-06-09T08:34:51.162Z</time>
      </trkpt>
      <trkpt lat="37.448335" lon="-4.43081167">
        <ele>492.0</ele>
        <time>2018-06-09T08:34:52.171Z</time>
      </trkpt>
      <trkpt lat="37.448335" lon="-4.43081167">
        <ele>492.0</ele>
        <time>2018-06-09T08:34:53.189Z</time>
      </trkpt>
      <trkpt lat="37.44829" lon="-4.43083333">
        <ele>492.0</ele>
        <time>2018-06-09T08:34:54.160Z</time>
      </trkpt>
      <trkpt lat="37.44829" lon="-4.43083333">
        <ele>492.0</ele>
        <time>2018-06-09T08:34:55.173Z</time>
      </trkpt>
      <trkpt lat="37.44824333" lon="-4.43082833">
        <ele>493.0</ele>
        <time>2018-06-09T08:34:56.179Z</time>
      </trkpt>
      <trkpt lat="37.44824333" lon="-4.43082833">
        <ele>493.0</ele>
        <time>2018-06-09T08:34:57.159Z</time>
      </trkpt>
      <trkpt lat="37.44821333" lon="-4.430785">
        <ele>494.0</ele>
        <time>2018-06-09T08:34:58.181Z</time>
      </trkpt>
      <trkpt lat="37.44819667" lon="-4.430765">
        <ele>494.0</ele>
        <time>2018-06-09T08:34:59.166Z</time>
      </trkpt>
      <trkpt lat="37.44819667" lon="-4.430765">
        <ele>494.0</ele>
        <time>2018-06-09T08:35:00.185Z</time>
      </trkpt>
      <trkpt lat="37.448165" lon="-4.430715">
        <ele>494.0</ele>
        <time>2018-06-09T08:35:01.191Z</time>
      </trkpt>
      <trkpt lat="37.44815167" lon="-4.43069">
        <ele>495.0</ele>
        <time>2018-06-09T08:35:02.159Z</time>
      </trkpt>
      <trkpt lat="37.44815167" lon="-4.43069">
        <ele>495.0</ele>
        <time>2018-06-09T08:35:03.167Z</time>
      </trkpt>
      <trkpt lat="37.44812167" lon="-4.43064167">
        <ele>495.0</ele>
        <time>2018-06-09T08:35:04.173Z</time>
      </trkpt>
      <trkpt lat="37.44810667" lon="-4.43061667">
        <ele>495.0</ele>
        <time>2018-06-09T08:35:05.203Z</time>
      </trkpt>
      <trkpt lat="37.44810667" lon="-4.43061667">
        <ele>495.0</ele>
        <time>2018-06-09T08:35:06.160Z</time>
      </trkpt>
      <trkpt lat="37.44807833" lon="-4.430565">
        <ele>496.0</ele>
        <time>2018-06-09T08:35:07.171Z</time>
      </trkpt>
      <trkpt lat="37.44806167" lon="-4.43054">
        <ele>496.0</ele>
        <time>2018-06-09T08:35:08.190Z</time>
      </trkpt>
      <trkpt lat="37.44806167" lon="-4.43054">
        <ele>496.0</ele>
        <time>2018-06-09T08:35:09.159Z</time>
      </trkpt>
      <trkpt lat="37.44803" lon="-4.43048833">
        <ele>496.0</ele>
        <time>2018-06-09T08:35:10.167Z</time>
      </trkpt>
      <trkpt lat="37.44803" lon="-4.43048833">
        <ele>496.0</ele>
        <time>2018-06-09T08:35:11.183Z</time>
      </trkpt>
      <trkpt lat="37.44799833" lon="-4.430435">
        <ele>496.0</ele>
        <time>2018-06-09T08:35:12.180Z</time>
      </trkpt>
      <trkpt lat="37.44799833" lon="-4.430435">
        <ele>496.0</ele>
        <time>2018-06-09T08:35:13.160Z</time>
      </trkpt>
      <trkpt lat="37.44797167" lon="-4.43038333">
        <ele>497.0</ele>
        <time>2018-06-09T08:35:14.165Z</time>
      </trkpt>
      <trkpt lat="37.44795833" lon="-4.43035833">
        <ele>497.0</ele>
        <time>2018-06-09T08:35:15.159Z</time>
      </trkpt>
      <trkpt lat="37.44795833" lon="-4.43035833">
        <ele>497.0</ele>
        <time>2018-06-09T08:35:16.161Z</time>
      </trkpt>
      <trkpt lat="37.44793167" lon="-4.43030667">
        <ele>498.0</ele>
        <time>2018-06-09T08:35:17.167Z</time>
      </trkpt>
      <trkpt lat="37.44793167" lon="-4.43030667">
        <ele>498.0</ele>
        <time>2018-06-09T08:35:18.184Z</time>
      </trkpt>
      <trkpt lat="37.44789833" lon="-4.43025667">
        <ele>498.0</ele>
        <time>2018-06-09T08:35:19.157Z</time>
      </trkpt>
      <trkpt lat="37.44788333" lon="-4.43023">
        <ele>498.0</ele>
        <time>2018-06-09T08:35:20.197Z</time>
      </trkpt>
      <trkpt lat="37.44788333" lon="-4.43023">
        <ele>498.0</ele>
        <time>2018-06-09T08:35:21.173Z</time>
      </trkpt>
      <trkpt lat="37.44785167" lon="-4.43017333">
        <ele>499.0</ele>
        <time>2018-06-09T08:35:22.179Z</time>
      </trkpt>
      <trkpt lat="37.44785167" lon="-4.43017333">
        <ele>499.0</ele>
        <time>2018-06-09T08:35:23.176Z</time>
      </trkpt>
      <trkpt lat="37.44782" lon="-4.43011833">
        <ele>499.0</ele>
        <time>2018-06-09T08:35:24.192Z</time>
      </trkpt>
      <trkpt lat="37.44780333" lon="-4.43009167">
        <ele>500.0</ele>
        <time>2018-06-09T08:35:25.159Z</time>
      </trkpt>
      <trkpt lat="37.44780333" lon="-4.43009167">
        <ele>500.0</ele>
        <time>2018-06-09T08:35:26.162Z</time>
      </trkpt>
      <trkpt lat="37.44777167" lon="-4.43004">
        <ele>500.0</ele>
        <time>2018-06-09T08:35:27.176Z</time>
      </trkpt>
      <trkpt lat="37.44777167" lon="-4.43004">
        <ele>500.0</ele>
        <time>2018-06-09T08:35:28.158Z</time>
      </trkpt>
      <trkpt lat="37.44774167" lon="-4.42998667">
        <ele>500.0</ele>
        <time>2018-06-09T08:35:29.164Z</time>
      </trkpt>
      <trkpt lat="37.44774167" lon="-4.42998667">
        <ele>500.0</ele>
        <time>2018-06-09T08:35:30.162Z</time>
      </trkpt>
      <trkpt lat="37.44771" lon="-4.42993333">
        <ele>501.0</ele>
        <time>2018-06-09T08:35:31.168Z</time>
      </trkpt>
      <trkpt lat="37.447695" lon="-4.42990833">
        <ele>501.0</ele>
        <time>2018-06-09T08:35:32.186Z</time>
      </trkpt>
      <trkpt lat="37.447695" lon="-4.42990833">
        <ele>501.0</ele>
        <time>2018-06-09T08:35:33.187Z</time>
      </trkpt>
      <trkpt lat="37.44766333" lon="-4.42985667">
        <ele>501.0</ele>
        <time>2018-06-09T08:35:34.170Z</time>
      </trkpt>
      <trkpt lat="37.44764667" lon="-4.42983">
        <ele>501.0</ele>
        <time>2018-06-09T08:35:35.187Z</time>
      </trkpt>
      <trkpt lat="37.44763" lon="-4.429805">
        <ele>502.0</ele>
        <time>2018-06-09T08:35:36.165Z</time>
      </trkpt>
      <trkpt lat="37.44763" lon="-4.429805">
        <ele>502.0</ele>
        <time>2018-06-09T08:35:37.183Z</time>
      </trkpt>
      <trkpt lat="37.4476" lon="-4.42975">
        <ele>502.0</ele>
        <time>2018-06-09T08:35:38.181Z</time>
      </trkpt>
      <trkpt lat="37.4476" lon="-4.42975">
        <ele>502.0</ele>
        <time>2018-06-09T08:35:39.176Z</time>
      </trkpt>
      <trkpt lat="37.44756833" lon="-4.42969333">
        <ele>502.0</ele>
        <time>2018-06-09T08:35:40.183Z</time>
      </trkpt>
      <trkpt lat="37.44755333" lon="-4.42966333">
        <ele>502.0</ele>
        <time>2018-06-09T08:35:41.173Z</time>
      </trkpt>
      <trkpt lat="37.44755333" lon="-4.42966333">
        <ele>502.0</ele>
        <time>2018-06-09T08:35:42.170Z</time>
      </trkpt>
      <trkpt lat="37.44752333" lon="-4.42960333">
        <ele>503.0</ele>
        <time>2018-06-09T08:35:43.179Z</time>
      </trkpt>
      <trkpt lat="37.44750667" lon="-4.42957167">
        <ele>503.0</ele>
        <time>2018-06-09T08:35:44.164Z</time>
      </trkpt>
      <trkpt lat="37.44750667" lon="-4.42957167">
        <ele>503.0</ele>
        <time>2018-06-09T08:35:45.165Z</time>
      </trkpt>
      <trkpt lat="37.44747833" lon="-4.42950833">
        <ele>503.0</ele>
        <time>2018-06-09T08:35:46.178Z</time>
      </trkpt>
      <trkpt lat="37.44747833" lon="-4.42950833">
        <ele>503.0</ele>
        <time>2018-06-09T08:35:47.172Z</time>
      </trkpt>
      <trkpt lat="37.44745333" lon="-4.42944167">
        <ele>503.0</ele>
        <time>2018-06-09T08:35:48.181Z</time>
      </trkpt>
      <trkpt lat="37.44745333" lon="-4.42944167">
        <ele>503.0</ele>
        <time>2018-06-09T08:35:49.159Z</time>
      </trkpt>
      <trkpt lat="37.44742667" lon="-4.429375">
        <ele>503.0</ele>
        <time>2018-06-09T08:35:50.171Z</time>
      </trkpt>
      <trkpt lat="37.44742667" lon="-4.429375">
        <ele>503.0</ele>
        <time>2018-06-09T08:35:51.182Z</time>
      </trkpt>
      <trkpt lat="37.44740167" lon="-4.42930833">
        <ele>504.0</ele>
        <time>2018-06-09T08:35:52.189Z</time>
      </trkpt>
      <trkpt lat="37.44740167" lon="-4.42930833">
        <ele>504.0</ele>
        <time>2018-06-09T08:35:53.175Z</time>
      </trkpt>
      <trkpt lat="37.44737667" lon="-4.42924167">
        <ele>504.0</ele>
        <time>2018-06-09T08:35:54.161Z</time>
      </trkpt>
      <trkpt lat="37.447365" lon="-4.42920833">
        <ele>504.0</ele>
        <time>2018-06-09T08:35:55.178Z</time>
      </trkpt>
      <trkpt lat="37.44735333" lon="-4.429175">
        <ele>504.0</ele>
        <time>2018-06-09T08:35:56.196Z</time>
      </trkpt>
      <trkpt lat="37.44735333" lon="-4.429175">
        <ele>504.0</ele>
        <time>2018-06-09T08:35:57.174Z</time>
      </trkpt>
      <trkpt lat="37.44732833" lon="-4.429105">
        <ele>504.0</ele>
        <time>2018-06-09T08:35:58.181Z</time>
      </trkpt>
      <trkpt lat="37.44732833" lon="-4.429105">
        <ele>504.0</ele>
        <time>2018-06-09T08:35:59.159Z</time>
      </trkpt>
      <trkpt lat="37.44730167" lon="-4.429035">
        <ele>504.0</ele>
        <time>2018-06-09T08:36:00.201Z</time>
      </trkpt>
      <trkpt lat="37.44729" lon="-4.429">
        <ele>504.0</ele>
        <time>2018-06-09T08:36:01.185Z</time>
      </trkpt>
      <trkpt lat="37.44727833" lon="-4.428965">
        <ele>504.0</ele>
        <time>2018-06-09T08:36:02.171Z</time>
      </trkpt>
      <trkpt lat="37.44727833" lon="-4.428965">
        <ele>504.0</ele>
        <time>2018-06-09T08:36:03.190Z</time>
      </trkpt>
      <trkpt lat="37.44725333" lon="-4.428895">
        <ele>505.0</ele>
        <time>2018-06-09T08:36:04.160Z</time>
      </trkpt>
      <trkpt lat="37.44724167" lon="-4.42885833">
        <ele>505.0</ele>
        <time>2018-06-09T08:36:05.189Z</time>
      </trkpt>
      <trkpt lat="37.44724167" lon="-4.42885833">
        <ele>505.0</ele>
        <time>2018-06-09T08:36:06.194Z</time>
      </trkpt>
      <trkpt lat="37.44721667" lon="-4.42878667">
        <ele>505.0</ele>
        <time>2018-06-09T08:36:07.160Z</time>
      </trkpt>
      <trkpt lat="37.44720333" lon="-4.42875167">
        <ele>505.0</ele>
        <time>2018-06-09T08:36:08.179Z</time>
      </trkpt>
      <trkpt lat="37.44720333" lon="-4.42875167">
        <ele>505.0</ele>
        <time>2018-06-09T08:36:09.176Z</time>
      </trkpt>
      <trkpt lat="37.44718333" lon="-4.42868333">
        <ele>505.0</ele>
        <time>2018-06-09T08:36:10.182Z</time>
      </trkpt>
      <trkpt lat="37.44718333" lon="-4.42868333">
        <ele>505.0</ele>
        <time>2018-06-09T08:36:11.159Z</time>
      </trkpt>
      <trkpt lat="37.44715667" lon="-4.42861">
        <ele>505.0</ele>
        <time>2018-06-09T08:36:12.185Z</time>
      </trkpt>
      <trkpt lat="37.44714167" lon="-4.42857667">
        <ele>505.0</ele>
        <time>2018-06-09T08:36:13.192Z</time>
      </trkpt>
      <trkpt lat="37.44712833" lon="-4.42854">
        <ele>505.0</ele>
        <time>2018-06-09T08:36:14.186Z</time>
      </trkpt>
      <trkpt lat="37.44712833" lon="-4.42854">
        <ele>505.0</ele>
        <time>2018-06-09T08:36:15.163Z</time>
      </trkpt>
      <trkpt lat="37.4471" lon="-4.42846833">
        <ele>505.0</ele>
        <time>2018-06-09T08:36:16.171Z</time>
      </trkpt>
      <trkpt lat="37.44708667" lon="-4.42843167">
        <ele>505.0</ele>
        <time>2018-06-09T08:36:17.194Z</time>
      </trkpt>
      <trkpt lat="37.44708667" lon="-4.42843167">
        <ele>505.0</ele>
        <time>2018-06-09T08:36:18.177Z</time>
      </trkpt>
      <trkpt lat="37.44706" lon="-4.42836">
        <ele>505.0</ele>
        <time>2018-06-09T08:36:19.183Z</time>
      </trkpt>
      <trkpt lat="37.447045" lon="-4.42832167">
        <ele>506.0</ele>
        <time>2018-06-09T08:36:20.190Z</time>
      </trkpt>
      <trkpt lat="37.447045" lon="-4.42832167">
        <ele>506.0</ele>
        <time>2018-06-09T08:36:21.184Z</time>
      </trkpt>
      <trkpt lat="37.44701833" lon="-4.42824667">
        <ele>506.0</ele>
        <time>2018-06-09T08:36:22.190Z</time>
      </trkpt>
      <trkpt lat="37.44701833" lon="-4.42824667">
        <ele>506.0</ele>
        <time>2018-06-09T08:36:23.166Z</time>
      </trkpt>
      <trkpt lat="37.44699" lon="-4.42816833">
        <ele>506.0</ele>
        <time>2018-06-09T08:36:24.159Z</time>
      </trkpt>
      <trkpt lat="37.44699" lon="-4.42816833">
        <ele>506.0</ele>
        <time>2018-06-09T08:36:25.159Z</time>
      </trkpt>
      <trkpt lat="37.44696" lon="-4.42808833">
        <ele>506.0</ele>
        <time>2018-06-09T08:36:26.166Z</time>
      </trkpt>
      <trkpt lat="37.44696" lon="-4.42808833">
        <ele>506.0</ele>
        <time>2018-06-09T08:36:27.185Z</time>
      </trkpt>
      <trkpt lat="37.44693" lon="-4.42800833">
        <ele>506.0</ele>
        <time>2018-06-09T08:36:28.160Z</time>
      </trkpt>
      <trkpt lat="37.44693" lon="-4.42800833">
        <ele>506.0</ele>
        <time>2018-06-09T08:36:29.160Z</time>
      </trkpt>
      <trkpt lat="37.4469" lon="-4.42792667">
        <ele>506.0</ele>
        <time>2018-06-09T08:36:30.167Z</time>
      </trkpt>
      <trkpt lat="37.4469" lon="-4.42792667">
        <ele>506.0</ele>
        <time>2018-06-09T08:36:31.186Z</time>
      </trkpt>
      <trkpt lat="37.44687" lon="-4.427845">
        <ele>506.0</ele>
        <time>2018-06-09T08:36:32.201Z</time>
      </trkpt>
      <trkpt lat="37.44687" lon="-4.427845">
        <ele>506.0</ele>
        <time>2018-06-09T08:36:33.189Z</time>
      </trkpt>
      <trkpt lat="37.44683833" lon="-4.42776333">
        <ele>506.0</ele>
        <time>2018-06-09T08:36:34.162Z</time>
      </trkpt>
      <trkpt lat="37.44681833" lon="-4.42772333">
        <ele>506.0</ele>
        <time>2018-06-09T08:36:35.182Z</time>
      </trkpt>
      <trkpt lat="37.44681833" lon="-4.42772333">
        <ele>506.0</ele>
        <time>2018-06-09T08:36:36.178Z</time>
      </trkpt>
      <trkpt lat="37.44677833" lon="-4.42763833">
        <ele>506.0</ele>
        <time>2018-06-09T08:36:37.184Z</time>
      </trkpt>
      <trkpt lat="37.44675667" lon="-4.427595">
        <ele>506.0</ele>
        <time>2018-06-09T08:36:38.174Z</time>
      </trkpt>
      <trkpt lat="37.44675667" lon="-4.427595">
        <ele>506.0</ele>
        <time>2018-06-09T08:36:39.177Z</time>
      </trkpt>
      <trkpt lat="37.44670667" lon="-4.42751167">
        <ele>506.0</ele>
        <time>2018-06-09T08:36:40.184Z</time>
      </trkpt>
      <trkpt lat="37.44668" lon="-4.42747167">
        <ele>506.0</ele>
        <time>2018-06-09T08:36:41.165Z</time>
      </trkpt>
      <trkpt lat="37.44665" lon="-4.42743333">
        <ele>506.0</ele>
        <time>2018-06-09T08:36:42.158Z</time>
      </trkpt>
      <trkpt lat="37.44665" lon="-4.42743333">
        <ele>506.0</ele>
        <time>2018-06-09T08:36:43.171Z</time>
      </trkpt>
      <trkpt lat="37.44659" lon="-4.42735333">
        <ele>506.0</ele>
        <time>2018-06-09T08:36:44.190Z</time>
      </trkpt>
      <trkpt lat="37.44659" lon="-4.42735333">
        <ele>506.0</ele>
        <time>2018-06-09T08:36:45.181Z</time>
      </trkpt>
      <trkpt lat="37.446525" lon="-4.42728">
        <ele>507.0</ele>
        <time>2018-06-09T08:36:46.188Z</time>
      </trkpt>
      <trkpt lat="37.44649" lon="-4.427245">
        <ele>507.0</ele>
        <time>2018-06-09T08:36:47.170Z</time>
      </trkpt>
      <trkpt lat="37.44649" lon="-4.427245">
        <ele>507.0</ele>
        <time>2018-06-09T08:36:48.166Z</time>
      </trkpt>
      <trkpt lat="37.446415" lon="-4.42717833">
        <ele>507.0</ele>
        <time>2018-06-09T08:36:49.174Z</time>
      </trkpt>
      <trkpt lat="37.446375" lon="-4.42715">
        <ele>507.0</ele>
        <time>2018-06-09T08:36:50.176Z</time>
      </trkpt>
      <trkpt lat="37.446375" lon="-4.42715">
        <ele>507.0</ele>
        <time>2018-06-09T08:36:51.193Z</time>
      </trkpt>
      <trkpt lat="37.44629167" lon="-4.4271">
        <ele>507.0</ele>
        <time>2018-06-09T08:36:52.160Z</time>
      </trkpt>
      <trkpt lat="37.44629167" lon="-4.4271">
        <ele>507.0</ele>
        <time>2018-06-09T08:36:53.167Z</time>
      </trkpt>
      <trkpt lat="37.44621" lon="-4.42706167">
        <ele>507.0</ele>
        <time>2018-06-09T08:36:54.174Z</time>
      </trkpt>
      <trkpt lat="37.44617" lon="-4.42704667">
        <ele>508.0</ele>
        <time>2018-06-09T08:36:55.190Z</time>
      </trkpt>
      <trkpt lat="37.44617" lon="-4.42704667">
        <ele>508.0</ele>
        <time>2018-06-09T08:36:56.193Z</time>
      </trkpt>
      <trkpt lat="37.44608833" lon="-4.42702">
        <ele>508.0</ele>
        <time>2018-06-09T08:36:57.161Z</time>
      </trkpt>
      <trkpt lat="37.44608833" lon="-4.42702">
        <ele>508.0</ele>
        <time>2018-06-09T08:36:58.180Z</time>
      </trkpt>
      <trkpt lat="37.44601" lon="-4.42700667">
        <ele>508.0</ele>
        <time>2018-06-09T08:36:59.159Z</time>
      </trkpt>
      <trkpt lat="37.44601" lon="-4.42700667">
        <ele>508.0</ele>
        <time>2018-06-09T08:37:00.185Z</time>
      </trkpt>
      <trkpt lat="37.44593167" lon="-4.427005">
        <ele>508.0</ele>
        <time>2018-06-09T08:37:01.191Z</time>
      </trkpt>
      <trkpt lat="37.44589333" lon="-4.42700333">
        <ele>508.0</ele>
        <time>2018-06-09T08:37:02.176Z</time>
      </trkpt>
      <trkpt lat="37.44589333" lon="-4.42700333">
        <ele>508.0</ele>
        <time>2018-06-09T08:37:03.160Z</time>
      </trkpt>
      <trkpt lat="37.44582333" lon="-4.42700667">
        <ele>509.0</ele>
        <time>2018-06-09T08:37:04.175Z</time>
      </trkpt>
      <trkpt lat="37.44579" lon="-4.427005">
        <ele>509.0</ele>
        <time>2018-06-09T08:37:05.193Z</time>
      </trkpt>
      <trkpt lat="37.44579" lon="-4.427005">
        <ele>509.0</ele>
        <time>2018-06-09T08:37:06.171Z</time>
      </trkpt>
      <trkpt lat="37.44572833" lon="-4.42700333">
        <ele>509.0</ele>
        <time>2018-06-09T08:37:07.198Z</time>
      </trkpt>
      <trkpt lat="37.44569667" lon="-4.42700333">
        <ele>509.0</ele>
        <time>2018-06-09T08:37:08.183Z</time>
      </trkpt>
      <trkpt lat="37.44569667" lon="-4.42700333">
        <ele>509.0</ele>
        <time>2018-06-09T08:37:09.161Z</time>
      </trkpt>
      <trkpt lat="37.44564" lon="-4.42700667">
        <ele>509.0</ele>
        <time>2018-06-09T08:37:10.185Z</time>
      </trkpt>
      <trkpt lat="37.44564" lon="-4.42700667">
        <ele>509.0</ele>
        <time>2018-06-09T08:37:11.161Z</time>
      </trkpt>
      <trkpt lat="37.44558333" lon="-4.42700833">
        <ele>509.0</ele>
        <time>2018-06-09T08:37:12.171Z</time>
      </trkpt>
      <trkpt lat="37.44558333" lon="-4.42700833">
        <ele>509.0</ele>
        <time>2018-06-09T08:37:13.189Z</time>
      </trkpt>
      <trkpt lat="37.44553" lon="-4.427015">
        <ele>510.0</ele>
        <time>2018-06-09T08:37:14.163Z</time>
      </trkpt>
      <trkpt lat="37.44553" lon="-4.427015">
        <ele>510.0</ele>
        <time>2018-06-09T08:37:15.158Z</time>
      </trkpt>
      <trkpt lat="37.44548" lon="-4.42701833">
        <ele>510.0</ele>
        <time>2018-06-09T08:37:16.164Z</time>
      </trkpt>
      <trkpt lat="37.44548" lon="-4.42701833">
        <ele>510.0</ele>
        <time>2018-06-09T08:37:17.182Z</time>
      </trkpt>
      <trkpt lat="37.44542833" lon="-4.42701833">
        <ele>510.0</ele>
        <time>2018-06-09T08:37:18.161Z</time>
      </trkpt>
      <trkpt lat="37.44542833" lon="-4.42701833">
        <ele>510.0</ele>
        <time>2018-06-09T08:37:19.159Z</time>
      </trkpt>
      <trkpt lat="37.445375" lon="-4.42702">
        <ele>510.0</ele>
        <time>2018-06-09T08:37:20.165Z</time>
      </trkpt>
      <trkpt lat="37.445375" lon="-4.42702">
        <ele>510.0</ele>
        <time>2018-06-09T08:37:21.182Z</time>
      </trkpt>
      <trkpt lat="37.44532333" lon="-4.42702">
        <ele>511.0</ele>
        <time>2018-06-09T08:37:22.158Z</time>
      </trkpt>
      <trkpt lat="37.44529667" lon="-4.42702">
        <ele>511.0</ele>
        <time>2018-06-09T08:37:23.164Z</time>
      </trkpt>
      <trkpt lat="37.44529667" lon="-4.42702">
        <ele>511.0</ele>
        <time>2018-06-09T08:37:24.182Z</time>
      </trkpt>
      <trkpt lat="37.445245" lon="-4.42701333">
        <ele>511.0</ele>
        <time>2018-06-09T08:37:25.188Z</time>
      </trkpt>
      <trkpt lat="37.44522" lon="-4.42700833">
        <ele>511.0</ele>
        <time>2018-06-09T08:37:26.166Z</time>
      </trkpt>
      <trkpt lat="37.44522" lon="-4.42700833">
        <ele>511.0</ele>
        <time>2018-06-09T08:37:27.171Z</time>
      </trkpt>
      <trkpt lat="37.44516833" lon="-4.42700167">
        <ele>511.0</ele>
        <time>2018-06-09T08:37:28.178Z</time>
      </trkpt>
      <trkpt lat="37.44516833" lon="-4.42700167">
        <ele>511.0</ele>
        <time>2018-06-09T08:37:29.196Z</time>
      </trkpt>
      <trkpt lat="37.44511833" lon="-4.42699167">
        <ele>512.0</ele>
        <time>2018-06-09T08:37:30.163Z</time>
      </trkpt>
      <trkpt lat="37.44511833" lon="-4.42699167">
        <ele>512.0</ele>
        <time>2018-06-09T08:37:31.162Z</time>
      </trkpt>
      <trkpt lat="37.44507" lon="-4.42698333">
        <ele>512.0</ele>
        <time>2018-06-09T08:37:32.170Z</time>
      </trkpt>
      <trkpt lat="37.44507" lon="-4.42698333">
        <ele>512.0</ele>
        <time>2018-06-09T08:37:33.189Z</time>
      </trkpt>
      <trkpt lat="37.44502167" lon="-4.42697167">
        <ele>512.0</ele>
        <time>2018-06-09T08:37:34.158Z</time>
      </trkpt>
      <trkpt lat="37.44502167" lon="-4.42697167">
        <ele>512.0</ele>
        <time>2018-06-09T08:37:35.171Z</time>
      </trkpt>
      <trkpt lat="37.44497833" lon="-4.42696">
        <ele>512.0</ele>
        <time>2018-06-09T08:37:36.178Z</time>
      </trkpt>
      <trkpt lat="37.44497833" lon="-4.42696">
        <ele>512.0</ele>
        <time>2018-06-09T08:37:37.196Z</time>
      </trkpt>
      <trkpt lat="37.44493833" lon="-4.42694667">
        <ele>513.0</ele>
        <time>2018-06-09T08:37:38.160Z</time>
      </trkpt>
      <trkpt lat="37.44493833" lon="-4.42694667">
        <ele>513.0</ele>
        <time>2018-06-09T08:37:39.162Z</time>
      </trkpt>
      <trkpt lat="37.44489833" lon="-4.42693">
        <ele>513.0</ele>
        <time>2018-06-09T08:37:40.169Z</time>
      </trkpt>
      <trkpt lat="37.44487833" lon="-4.42692167">
        <ele>513.0</ele>
        <time>2018-06-09T08:37:41.187Z</time>
      </trkpt>
      <trkpt lat="37.44487833" lon="-4.42692167">
        <ele>513.0</ele>
        <time>2018-06-09T08:37:42.169Z</time>
      </trkpt>
      <trkpt lat="37.44483833" lon="-4.42690167">
        <ele>513.0</ele>
        <time>2018-06-09T08:37:43.159Z</time>
      </trkpt>
      <trkpt lat="37.44481833" lon="-4.42689167">
        <ele>513.0</ele>
        <time>2018-06-09T08:37:44.169Z</time>
      </trkpt>
      <trkpt lat="37.44481833" lon="-4.42689167">
        <ele>513.0</ele>
        <time>2018-06-09T08:37:45.192Z</time>
      </trkpt>
      <trkpt lat="37.44478" lon="-4.42687167">
        <ele>513.0</ele>
        <time>2018-06-09T08:37:46.159Z</time>
      </trkpt>
      <trkpt lat="37.44478" lon="-4.42687167">
        <ele>513.0</ele>
        <time>2018-06-09T08:37:47.163Z</time>
      </trkpt>
      <trkpt lat="37.44474167" lon="-4.42685">
        <ele>514.0</ele>
        <time>2018-06-09T08:37:48.172Z</time>
      </trkpt>
      <trkpt lat="37.44474167" lon="-4.42685">
        <ele>514.0</ele>
        <time>2018-06-09T08:37:49.190Z</time>
      </trkpt>
      <trkpt lat="37.44470333" lon="-4.42682667">
        <ele>514.0</ele>
        <time>2018-06-09T08:37:50.196Z</time>
      </trkpt>
      <trkpt lat="37.44470333" lon="-4.42682667">
        <ele>514.0</ele>
        <time>2018-06-09T08:37:51.173Z</time>
      </trkpt>
      <trkpt lat="37.444665" lon="-4.4268">
        <ele>514.0</ele>
        <time>2018-06-09T08:37:52.160Z</time>
      </trkpt>
      <trkpt lat="37.44464667" lon="-4.42678667">
        <ele>514.0</ele>
        <time>2018-06-09T08:37:53.186Z</time>
      </trkpt>
      <trkpt lat="37.44464667" lon="-4.42678667">
        <ele>514.0</ele>
        <time>2018-06-09T08:37:54.165Z</time>
      </trkpt>
      <trkpt lat="37.44461" lon="-4.42676">
        <ele>515.0</ele>
        <time>2018-06-09T08:37:55.180Z</time>
      </trkpt>
      <trkpt lat="37.44459167" lon="-4.426745">
        <ele>515.0</ele>
        <time>2018-06-09T08:37:56.167Z</time>
      </trkpt>
      <trkpt lat="37.44459167" lon="-4.426745">
        <ele>515.0</ele>
        <time>2018-06-09T08:37:57.185Z</time>
      </trkpt>
      <trkpt lat="37.444555" lon="-4.42672">
        <ele>515.0</ele>
        <time>2018-06-09T08:37:58.192Z</time>
      </trkpt>
      <trkpt lat="37.444555" lon="-4.42672">
        <ele>515.0</ele>
        <time>2018-06-09T08:37:59.196Z</time>
      </trkpt>
      <trkpt lat="37.44452167" lon="-4.42669167">
        <ele>515.0</ele>
        <time>2018-06-09T08:38:00.163Z</time>
      </trkpt>
      <trkpt lat="37.444505" lon="-4.42667667">
        <ele>515.0</ele>
        <time>2018-06-09T08:38:01.182Z</time>
      </trkpt>
      <trkpt lat="37.44448667" lon="-4.42666167">
        <ele>516.0</ele>
        <time>2018-06-09T08:38:02.182Z</time>
      </trkpt>
      <trkpt lat="37.44448667" lon="-4.42666167">
        <ele>516.0</ele>
        <time>2018-06-09T08:38:03.162Z</time>
      </trkpt>
      <trkpt lat="37.444455" lon="-4.42662833">
        <ele>516.0</ele>
        <time>2018-06-09T08:38:04.161Z</time>
      </trkpt>
      <trkpt lat="37.44443833" lon="-4.42661333">
        <ele>516.0</ele>
        <time>2018-06-09T08:38:05.176Z</time>
      </trkpt>
      <trkpt lat="37.44443833" lon="-4.42661333">
        <ele>516.0</ele>
        <time>2018-06-09T08:38:06.193Z</time>
      </trkpt>
      <trkpt lat="37.44440167" lon="-4.42659">
        <ele>516.0</ele>
        <time>2018-06-09T08:38:07.174Z</time>
      </trkpt>
      <trkpt lat="37.444385" lon="-4.42657667">
        <ele>517.0</ele>
        <time>2018-06-09T08:38:08.162Z</time>
      </trkpt>
      <trkpt lat="37.444385" lon="-4.42657667">
        <ele>517.0</ele>
        <time>2018-06-09T08:38:09.179Z</time>
      </trkpt>
      <trkpt lat="37.44435167" lon="-4.42654667">
        <ele>517.0</ele>
        <time>2018-06-09T08:38:10.201Z</time>
      </trkpt>
      <trkpt lat="37.444335" lon="-4.42653333">
        <ele>517.0</ele>
        <time>2018-06-09T08:38:11.185Z</time>
      </trkpt>
      <trkpt lat="37.444335" lon="-4.42653333">
        <ele>517.0</ele>
        <time>2018-06-09T08:38:12.162Z</time>
      </trkpt>
      <trkpt lat="37.44430333" lon="-4.426505">
        <ele>517.0</ele>
        <time>2018-06-09T08:38:13.175Z</time>
      </trkpt>
      <trkpt lat="37.44428667" lon="-4.42649">
        <ele>517.0</ele>
        <time>2018-06-09T08:38:14.194Z</time>
      </trkpt>
      <trkpt lat="37.44428667" lon="-4.42649">
        <ele>517.0</ele>
        <time>2018-06-09T08:38:15.167Z</time>
      </trkpt>
      <trkpt lat="37.444255" lon="-4.42646167">
        <ele>518.0</ele>
        <time>2018-06-09T08:38:16.163Z</time>
      </trkpt>
      <trkpt lat="37.44423833" lon="-4.42644833">
        <ele>518.0</ele>
        <time>2018-06-09T08:38:17.183Z</time>
      </trkpt>
      <trkpt lat="37.44423833" lon="-4.42644833">
        <ele>518.0</ele>
        <time>2018-06-09T08:38:18.162Z</time>
      </trkpt>
      <trkpt lat="37.44420667" lon="-4.42642333">
        <ele>518.0</ele>
        <time>2018-06-09T08:38:19.171Z</time>
      </trkpt>
      <trkpt lat="37.44419167" lon="-4.42640833">
        <ele>518.0</ele>
        <time>2018-06-09T08:38:20.160Z</time>
      </trkpt>
      <trkpt lat="37.44419167" lon="-4.42640833">
        <ele>518.0</ele>
        <time>2018-06-09T08:38:21.179Z</time>
      </trkpt>
      <trkpt lat="37.44415833" lon="-4.42637667">
        <ele>519.0</ele>
        <time>2018-06-09T08:38:22.185Z</time>
      </trkpt>
      <trkpt lat="37.44414167" lon="-4.42636333">
        <ele>519.0</ele>
        <time>2018-06-09T08:38:23.185Z</time>
      </trkpt>
      <trkpt lat="37.44414167" lon="-4.42636333">
        <ele>519.0</ele>
        <time>2018-06-09T08:38:24.195Z</time>
      </trkpt>
      <trkpt lat="37.44410833" lon="-4.426335">
        <ele>519.0</ele>
        <time>2018-06-09T08:38:25.180Z</time>
      </trkpt>
      <trkpt lat="37.44409167" lon="-4.42631833">
        <ele>520.0</ele>
        <time>2018-06-09T08:38:26.187Z</time>
      </trkpt>
      <trkpt lat="37.44409167" lon="-4.42631833">
        <ele>520.0</ele>
        <time>2018-06-09T08:38:27.164Z</time>
      </trkpt>
      <trkpt lat="37.44405667" lon="-4.42628667">
        <ele>520.0</ele>
        <time>2018-06-09T08:38:28.174Z</time>
      </trkpt>
      <trkpt lat="37.44404167" lon="-4.42627167">
        <ele>520.0</ele>
        <time>2018-06-09T08:38:29.163Z</time>
      </trkpt>
      <trkpt lat="37.44404167" lon="-4.42627167">
        <ele>520.0</ele>
        <time>2018-06-09T08:38:30.181Z</time>
      </trkpt>
      <trkpt lat="37.444015" lon="-4.42625">
        <ele>520.0</ele>
        <time>2018-06-09T08:38:31.192Z</time>
      </trkpt>
      <trkpt lat="37.44400167" lon="-4.42623833">
        <ele>521.0</ele>
        <time>2018-06-09T08:38:32.167Z</time>
      </trkpt>
      <trkpt lat="37.44400167" lon="-4.42623833">
        <ele>521.0</ele>
        <time>2018-06-09T08:38:33.184Z</time>
      </trkpt>
      <trkpt lat="37.44397333" lon="-4.42620667">
        <ele>521.0</ele>
        <time>2018-06-09T08:38:34.160Z</time>
      </trkpt>
      <trkpt lat="37.44397333" lon="-4.42620667">
        <ele>521.0</ele>
        <time>2018-06-09T08:38:35.159Z</time>
      </trkpt>
      <trkpt lat="37.44394333" lon="-4.426175">
        <ele>522.0</ele>
        <time>2018-06-09T08:38:36.165Z</time>
      </trkpt>
      <trkpt lat="37.44392833" lon="-4.42615833">
        <ele>522.0</ele>
        <time>2018-06-09T08:38:37.192Z</time>
      </trkpt>
      <trkpt lat="37.44391333" lon="-4.42614333">
        <ele>522.0</ele>
        <time>2018-06-09T08:38:38.157Z</time>
      </trkpt>
      <trkpt lat="37.44391333" lon="-4.42614333">
        <ele>522.0</ele>
        <time>2018-06-09T08:38:39.174Z</time>
      </trkpt>
      <trkpt lat="37.443885" lon="-4.42611167">
        <ele>522.0</ele>
        <time>2018-06-09T08:38:40.196Z</time>
      </trkpt>
      <trkpt lat="37.443885" lon="-4.42611167">
        <ele>522.0</ele>
        <time>2018-06-09T08:38:41.186Z</time>
      </trkpt>
      <trkpt lat="37.44385833" lon="-4.42607667">
        <ele>523.0</ele>
        <time>2018-06-09T08:38:42.193Z</time>
      </trkpt>
      <trkpt lat="37.44385833" lon="-4.42607667">
        <ele>523.0</ele>
        <time>2018-06-09T08:38:43.170Z</time>
      </trkpt>
      <trkpt lat="37.44383" lon="-4.42604">
        <ele>523.0</ele>
        <time>2018-06-09T08:38:44.157Z</time>
      </trkpt>
      <trkpt lat="37.44383" lon="-4.42604">
        <ele>523.0</ele>
        <time>2018-06-09T08:38:45.163Z</time>
      </trkpt>
      <trkpt lat="37.44380167" lon="-4.426005">
        <ele>523.0</ele>
        <time>2018-06-09T08:38:46.169Z</time>
      </trkpt>
      <trkpt lat="37.44380167" lon="-4.426005">
        <ele>523.0</ele>
        <time>2018-06-09T08:38:47.163Z</time>
      </trkpt>
      <trkpt lat="37.44377333" lon="-4.42596833">
        <ele>524.0</ele>
        <time>2018-06-09T08:38:48.164Z</time>
      </trkpt>
      <trkpt lat="37.44377333" lon="-4.42596833">
        <ele>524.0</ele>
        <time>2018-06-09T08:38:49.192Z</time>
      </trkpt>
      <trkpt lat="37.44374833" lon="-4.42593">
        <ele>524.0</ele>
        <time>2018-06-09T08:38:50.191Z</time>
      </trkpt>
      <trkpt lat="37.44374833" lon="-4.42593">
        <ele>524.0</ele>
        <time>2018-06-09T08:38:51.186Z</time>
      </trkpt>
      <trkpt lat="37.44372167" lon="-4.42589167">
        <ele>524.0</ele>
        <time>2018-06-09T08:38:52.192Z</time>
      </trkpt>
      <trkpt lat="37.44372167" lon="-4.42589167">
        <ele>524.0</ele>
        <time>2018-06-09T08:38:53.169Z</time>
      </trkpt>
      <trkpt lat="37.44369833" lon="-4.42584833">
        <ele>525.0</ele>
        <time>2018-06-09T08:38:54.160Z</time>
      </trkpt>
      <trkpt lat="37.44369833" lon="-4.42584833">
        <ele>525.0</ele>
        <time>2018-06-09T08:38:55.186Z</time>
      </trkpt>
      <trkpt lat="37.44367333" lon="-4.42580167">
        <ele>525.0</ele>
        <time>2018-06-09T08:38:56.192Z</time>
      </trkpt>
      <trkpt lat="37.44367333" lon="-4.42580167">
        <ele>525.0</ele>
        <time>2018-06-09T08:38:57.169Z</time>
      </trkpt>
      <trkpt lat="37.44364667" lon="-4.42575833">
        <ele>526.0</ele>
        <time>2018-06-09T08:38:58.193Z</time>
      </trkpt>
      <trkpt lat="37.44364667" lon="-4.42575833">
        <ele>526.0</ele>
        <time>2018-06-09T08:38:59.176Z</time>
      </trkpt>
      <trkpt lat="37.44362333" lon="-4.42571167">
        <ele>526.0</ele>
        <time>2018-06-09T08:39:00.182Z</time>
      </trkpt>
      <trkpt lat="37.44361167" lon="-4.42568833">
        <ele>526.0</ele>
        <time>2018-06-09T08:39:01.163Z</time>
      </trkpt>
      <trkpt lat="37.4436" lon="-4.42566333">
        <ele>526.0</ele>
        <time>2018-06-09T08:39:02.158Z</time>
      </trkpt>
      <trkpt lat="37.4436" lon="-4.42566333">
        <ele>526.0</ele>
        <time>2018-06-09T08:39:03.176Z</time>
      </trkpt>
      <trkpt lat="37.44357667" lon="-4.42561">
        <ele>527.0</ele>
        <time>2018-06-09T08:39:04.183Z</time>
      </trkpt>
      <trkpt lat="37.44356333" lon="-4.42558333">
        <ele>527.0</ele>
        <time>2018-06-09T08:39:05.189Z</time>
      </trkpt>
      <trkpt lat="37.44356333" lon="-4.42558333">
        <ele>527.0</ele>
        <time>2018-06-09T08:39:06.167Z</time>
      </trkpt>
      <trkpt lat="37.44353833" lon="-4.42552667">
        <ele>527.0</ele>
        <time>2018-06-09T08:39:07.173Z</time>
      </trkpt>
      <trkpt lat="37.44353833" lon="-4.42552667">
        <ele>527.0</ele>
        <time>2018-06-09T08:39:08.167Z</time>
      </trkpt>
      <trkpt lat="37.44351333" lon="-4.42546333">
        <ele>527.0</ele>
        <time>2018-06-09T08:39:09.173Z</time>
      </trkpt>
      <trkpt lat="37.44351333" lon="-4.42546333">
        <ele>527.0</ele>
        <time>2018-06-09T08:39:10.192Z</time>
      </trkpt>
      <trkpt lat="37.44349" lon="-4.42540333">
        <ele>528.0</ele>
        <time>2018-06-09T08:39:11.180Z</time>
      </trkpt>
      <trkpt lat="37.44349" lon="-4.42540333">
        <ele>528.0</ele>
        <time>2018-06-09T08:39:12.188Z</time>
      </trkpt>
      <trkpt lat="37.44346667" lon="-4.425345">
        <ele>528.0</ele>
        <time>2018-06-09T08:39:13.157Z</time>
      </trkpt>
      <trkpt lat="37.443455" lon="-4.425315">
        <ele>528.0</ele>
        <time>2018-06-09T08:39:14.190Z</time>
      </trkpt>
      <trkpt lat="37.443455" lon="-4.425315">
        <ele>528.0</ele>
        <time>2018-06-09T08:39:15.184Z</time>
      </trkpt>
      <trkpt lat="37.44343333" lon="-4.42525167">
        <ele>528.0</ele>
        <time>2018-06-09T08:39:16.189Z</time>
      </trkpt>
      <trkpt lat="37.44343333" lon="-4.42525167">
        <ele>528.0</ele>
        <time>2018-06-09T08:39:17.167Z</time>
      </trkpt>
      <trkpt lat="37.44341167" lon="-4.42518667">
        <ele>528.0</ele>
        <time>2018-06-09T08:39:18.164Z</time>
      </trkpt>
      <trkpt lat="37.44341167" lon="-4.42518667">
        <ele>528.0</ele>
        <time>2018-06-09T08:39:19.187Z</time>
      </trkpt>
      <trkpt lat="37.44338833" lon="-4.42512">
        <ele>528.0</ele>
        <time>2018-06-09T08:39:20.194Z</time>
      </trkpt>
      <trkpt lat="37.44338833" lon="-4.42512">
        <ele>528.0</ele>
        <time>2018-06-09T08:39:21.171Z</time>
      </trkpt>
      <trkpt lat="37.443365" lon="-4.42505167">
        <ele>528.0</ele>
        <time>2018-06-09T08:39:22.184Z</time>
      </trkpt>
      <trkpt lat="37.443365" lon="-4.42505167">
        <ele>528.0</ele>
        <time>2018-06-09T08:39:23.162Z</time>
      </trkpt>
      <trkpt lat="37.44333833" lon="-4.42498333">
        <ele>528.0</ele>
        <time>2018-06-09T08:39:24.171Z</time>
      </trkpt>
      <trkpt lat="37.443325" lon="-4.42494833">
        <ele>528.0</ele>
        <time>2018-06-09T08:39:25.198Z</time>
      </trkpt>
      <trkpt lat="37.44331" lon="-4.424915">
        <ele>529.0</ele>
        <time>2018-06-09T08:39:26.177Z</time>
      </trkpt>
      <trkpt lat="37.44331" lon="-4.424915">
        <ele>529.0</ele>
        <time>2018-06-09T08:39:27.196Z</time>
      </trkpt>
      <trkpt lat="37.44328167" lon="-4.42484333">
        <ele>529.0</ele>
        <time>2018-06-09T08:39:28.170Z</time>
      </trkpt>
      <trkpt lat="37.44328167" lon="-4.42484333">
        <ele>529.0</ele>
        <time>2018-06-09T08:39:29.172Z</time>
      </trkpt>
      <trkpt lat="37.44325" lon="-4.424775">
        <ele>529.0</ele>
        <time>2018-06-09T08:39:30.178Z</time>
      </trkpt>
      <trkpt lat="37.44323333" lon="-4.42473833">
        <ele>529.0</ele>
        <time>2018-06-09T08:39:31.162Z</time>
      </trkpt>
      <trkpt lat="37.44321667" lon="-4.42470167">
        <ele>529.0</ele>
        <time>2018-06-09T08:39:32.157Z</time>
      </trkpt>
      <trkpt lat="37.44321667" lon="-4.42470167">
        <ele>529.0</ele>
        <time>2018-06-09T08:39:33.186Z</time>
      </trkpt>
      <trkpt lat="37.44318333" lon="-4.42462667">
        <ele>529.0</ele>
        <time>2018-06-09T08:39:34.193Z</time>
      </trkpt>
      <trkpt lat="37.44318333" lon="-4.42462667">
        <ele>529.0</ele>
        <time>2018-06-09T08:39:35.177Z</time>
      </trkpt>
      <trkpt lat="37.443145" lon="-4.42455333">
        <ele>529.0</ele>
        <time>2018-06-09T08:39:36.157Z</time>
      </trkpt>
      <trkpt lat="37.443145" lon="-4.42455333">
        <ele>529.0</ele>
        <time>2018-06-09T08:39:37.176Z</time>
      </trkpt>
      <trkpt lat="37.443105" lon="-4.42448">
        <ele>529.0</ele>
        <time>2018-06-09T08:39:38.192Z</time>
      </trkpt>
      <trkpt lat="37.44308333" lon="-4.42444333">
        <ele>529.0</ele>
        <time>2018-06-09T08:39:39.174Z</time>
      </trkpt>
      <trkpt lat="37.44308333" lon="-4.42444333">
        <ele>529.0</ele>
        <time>2018-06-09T08:39:40.186Z</time>
      </trkpt>
      <trkpt lat="37.44304167" lon="-4.42437">
        <ele>529.0</ele>
        <time>2018-06-09T08:39:41.193Z</time>
      </trkpt>
      <trkpt lat="37.44304167" lon="-4.42437">
        <ele>529.0</ele>
        <time>2018-06-09T08:39:42.172Z</time>
      </trkpt>
      <trkpt lat="37.44300167" lon="-4.4243">
        <ele>530.0</ele>
        <time>2018-06-09T08:39:43.185Z</time>
      </trkpt>
      <trkpt lat="37.44298167" lon="-4.42426667">
        <ele>530.0</ele>
        <time>2018-06-09T08:39:44.190Z</time>
      </trkpt>
      <trkpt lat="37.44298167" lon="-4.42426667">
        <ele>530.0</ele>
        <time>2018-06-09T08:39:45.167Z</time>
      </trkpt>
      <trkpt lat="37.44293667" lon="-4.424205">
        <ele>530.0</ele>
        <time>2018-06-09T08:39:46.196Z</time>
      </trkpt>
      <trkpt lat="37.44293667" lon="-4.424205">
        <ele>530.0</ele>
        <time>2018-06-09T08:39:47.176Z</time>
      </trkpt>
      <trkpt lat="37.44289167" lon="-4.424145">
        <ele>530.0</ele>
        <time>2018-06-09T08:39:48.178Z</time>
      </trkpt>
      <trkpt lat="37.44287" lon="-4.424115">
        <ele>530.0</ele>
        <time>2018-06-09T08:39:49.164Z</time>
      </trkpt>
      <trkpt lat="37.44284667" lon="-4.42408667">
        <ele>531.0</ele>
        <time>2018-06-09T08:39:50.184Z</time>
      </trkpt>
      <trkpt lat="37.44284667" lon="-4.42408667">
        <ele>531.0</ele>
        <time>2018-06-09T08:39:51.162Z</time>
      </trkpt>
      <trkpt lat="37.44280333" lon="-4.42403333">
        <ele>531.0</ele>
        <time>2018-06-09T08:39:52.194Z</time>
      </trkpt>
      <trkpt lat="37.44280333" lon="-4.42403333">
        <ele>531.0</ele>
        <time>2018-06-09T08:39:53.187Z</time>
      </trkpt>
      <trkpt lat="37.44276" lon="-4.42398">
        <ele>531.0</ele>
        <time>2018-06-09T08:39:54.163Z</time>
      </trkpt>
      <trkpt lat="37.44276" lon="-4.42398">
        <ele>531.0</ele>
        <time>2018-06-09T08:39:55.183Z</time>
      </trkpt>
      <trkpt lat="37.44271667" lon="-4.42392833">
        <ele>532.0</ele>
        <time>2018-06-09T08:39:56.163Z</time>
      </trkpt>
      <trkpt lat="37.44271667" lon="-4.42392833">
        <ele>532.0</ele>
        <time>2018-06-09T08:39:57.174Z</time>
      </trkpt>
      <trkpt lat="37.44267167" lon="-4.42388">
        <ele>532.0</ele>
        <time>2018-06-09T08:39:58.182Z</time>
      </trkpt>
      <trkpt lat="37.44264833" lon="-4.423855">
        <ele>532.0</ele>
        <time>2018-06-09T08:39:59.169Z</time>
      </trkpt>
      <trkpt lat="37.44264833" lon="-4.423855">
        <ele>532.0</ele>
        <time>2018-06-09T08:40:00.169Z</time>
      </trkpt>
      <trkpt lat="37.44260333" lon="-4.42380833">
        <ele>532.0</ele>
        <time>2018-06-09T08:40:01.175Z</time>
      </trkpt>
      <trkpt lat="37.44260333" lon="-4.42380833">
        <ele>532.0</ele>
        <time>2018-06-09T08:40:02.193Z</time>
      </trkpt>
      <trkpt lat="37.44256333" lon="-4.42376667">
        <ele>532.0</ele>
        <time>2018-06-09T08:40:03.161Z</time>
      </trkpt>
      <trkpt lat="37.44256333" lon="-4.42376667">
        <ele>532.0</ele>
        <time>2018-06-09T08:40:04.168Z</time>
      </trkpt>
      <trkpt lat="37.44252333" lon="-4.423725">
        <ele>533.0</ele>
        <time>2018-06-09T08:40:05.174Z</time>
      </trkpt>
      <trkpt lat="37.44250167" lon="-4.423705">
        <ele>533.0</ele>
        <time>2018-06-09T08:40:06.163Z</time>
      </trkpt>
      <trkpt lat="37.44247833" lon="-4.423685">
        <ele>533.0</ele>
        <time>2018-06-09T08:40:07.194Z</time>
      </trkpt>
      <trkpt lat="37.44245667" lon="-4.42366667">
        <ele>533.0</ele>
        <time>2018-06-09T08:40:08.172Z</time>
      </trkpt>
      <trkpt lat="37.44245667" lon="-4.42366667">
        <ele>533.0</ele>
        <time>2018-06-09T08:40:09.165Z</time>
      </trkpt>
      <trkpt lat="37.44241167" lon="-4.42362333">
        <ele>533.0</ele>
        <time>2018-06-09T08:40:10.173Z</time>
      </trkpt>
      <trkpt lat="37.44241167" lon="-4.42362333">
        <ele>533.0</ele>
        <time>2018-06-09T08:40:11.191Z</time>
      </trkpt>
      <trkpt lat="37.44236833" lon="-4.42358">
        <ele>533.0</ele>
        <time>2018-06-09T08:40:12.159Z</time>
      </trkpt>
      <trkpt lat="37.44236833" lon="-4.42358">
        <ele>533.0</ele>
        <time>2018-06-09T08:40:13.188Z</time>
      </trkpt>
      <trkpt lat="37.442325" lon="-4.42354">
        <ele>534.0</ele>
        <time>2018-06-09T08:40:14.195Z</time>
      </trkpt>
      <trkpt lat="37.442325" lon="-4.42354">
        <ele>534.0</ele>
        <time>2018-06-09T08:40:15.172Z</time>
      </trkpt>
      <trkpt lat="37.44228" lon="-4.4235">
        <ele>534.0</ele>
        <time>2018-06-09T08:40:16.199Z</time>
      </trkpt>
      <trkpt lat="37.44228" lon="-4.4235">
        <ele>534.0</ele>
        <time>2018-06-09T08:40:17.172Z</time>
      </trkpt>
      <trkpt lat="37.44223667" lon="-4.42346167">
        <ele>535.0</ele>
        <time>2018-06-09T08:40:18.177Z</time>
      </trkpt>
      <trkpt lat="37.44223667" lon="-4.42346167">
        <ele>535.0</ele>
        <time>2018-06-09T08:40:19.193Z</time>
      </trkpt>
      <trkpt lat="37.44219667" lon="-4.42342667">
        <ele>535.0</ele>
        <time>2018-06-09T08:40:20.170Z</time>
      </trkpt>
      <trkpt lat="37.44219667" lon="-4.42342667">
        <ele>535.0</ele>
        <time>2018-06-09T08:40:21.186Z</time>
      </trkpt>
      <trkpt lat="37.44215667" lon="-4.42339">
        <ele>536.0</ele>
        <time>2018-06-09T08:40:22.192Z</time>
      </trkpt>
      <trkpt lat="37.44213833" lon="-4.42337">
        <ele>536.0</ele>
        <time>2018-06-09T08:40:23.173Z</time>
      </trkpt>
      <trkpt lat="37.44213833" lon="-4.42337">
        <ele>536.0</ele>
        <time>2018-06-09T08:40:24.168Z</time>
      </trkpt>
      <trkpt lat="37.44210167" lon="-4.42333333">
        <ele>536.0</ele>
        <time>2018-06-09T08:40:25.174Z</time>
      </trkpt>
      <trkpt lat="37.44208333" lon="-4.42331667">
        <ele>536.0</ele>
        <time>2018-06-09T08:40:26.196Z</time>
      </trkpt>
      <trkpt lat="37.44208333" lon="-4.42331667">
        <ele>536.0</ele>
        <time>2018-06-09T08:40:27.180Z</time>
      </trkpt>
      <trkpt lat="37.44205167" lon="-4.42328667">
        <ele>537.0</ele>
        <time>2018-06-09T08:40:28.186Z</time>
      </trkpt>
      <trkpt lat="37.44205167" lon="-4.42328667">
        <ele>537.0</ele>
        <time>2018-06-09T08:40:29.171Z</time>
      </trkpt>
      <trkpt lat="37.44202" lon="-4.42325833">
        <ele>537.0</ele>
        <time>2018-06-09T08:40:30.159Z</time>
      </trkpt>
      <trkpt lat="37.44202" lon="-4.42325833">
        <ele>537.0</ele>
        <time>2018-06-09T08:40:31.183Z</time>
      </trkpt>
      <trkpt lat="37.44198667" lon="-4.423225">
        <ele>537.0</ele>
        <time>2018-06-09T08:40:32.190Z</time>
      </trkpt>
      <trkpt lat="37.44198667" lon="-4.423225">
        <ele>537.0</ele>
        <time>2018-06-09T08:40:33.172Z</time>
      </trkpt>
      <trkpt lat="37.44195667" lon="-4.42319333">
        <ele>538.0</ele>
        <time>2018-06-09T08:40:34.160Z</time>
      </trkpt>
      <trkpt lat="37.44195667" lon="-4.42319333">
        <ele>538.0</ele>
        <time>2018-06-09T08:40:35.185Z</time>
      </trkpt>
      <trkpt lat="37.44192833" lon="-4.42316">
        <ele>538.0</ele>
        <time>2018-06-09T08:40:36.191Z</time>
      </trkpt>
      <trkpt lat="37.44192833" lon="-4.42316">
        <ele>538.0</ele>
        <time>2018-06-09T08:40:37.167Z</time>
      </trkpt>
      <trkpt lat="37.44189833" lon="-4.42312667">
        <ele>538.0</ele>
        <time>2018-06-09T08:40:38.189Z</time>
      </trkpt>
      <trkpt lat="37.44189833" lon="-4.42312667">
        <ele>538.0</ele>
        <time>2018-06-09T08:40:39.176Z</time>
      </trkpt>
      <trkpt lat="37.44187" lon="-4.4231">
        <ele>539.0</ele>
        <time>2018-06-09T08:40:40.182Z</time>
      </trkpt>
      <trkpt lat="37.44185667" lon="-4.42308667">
        <ele>539.0</ele>
        <time>2018-06-09T08:40:41.165Z</time>
      </trkpt>
      <trkpt lat="37.44185667" lon="-4.42308667">
        <ele>539.0</ele>
        <time>2018-06-09T08:40:42.166Z</time>
      </trkpt>
      <trkpt lat="37.44183333" lon="-4.42305167">
        <ele>539.0</ele>
        <time>2018-06-09T08:40:43.173Z</time>
      </trkpt>
      <trkpt lat="37.44182" lon="-4.423035">
        <ele>539.0</ele>
        <time>2018-06-09T08:40:44.194Z</time>
      </trkpt>
      <trkpt lat="37.44182" lon="-4.423035">
        <ele>539.0</ele>
        <time>2018-06-09T08:40:45.174Z</time>
      </trkpt>
      <trkpt lat="37.44179667" lon="-4.42300333">
        <ele>539.0</ele>
        <time>2018-06-09T08:40:46.181Z</time>
      </trkpt>
      <trkpt lat="37.44178333" lon="-4.42299">
        <ele>539.0</ele>
        <time>2018-06-09T08:40:47.165Z</time>
      </trkpt>
      <trkpt lat="37.44178333" lon="-4.42299">
        <ele>539.0</ele>
        <time>2018-06-09T08:40:48.187Z</time>
      </trkpt>
      <trkpt lat="37.441755" lon="-4.42296167">
        <ele>540.0</ele>
        <time>2018-06-09T08:40:49.194Z</time>
      </trkpt>
      <trkpt lat="37.44174167" lon="-4.42294833">
        <ele>540.0</ele>
        <time>2018-06-09T08:40:50.176Z</time>
      </trkpt>
      <trkpt lat="37.44174167" lon="-4.42294833">
        <ele>540.0</ele>
        <time>2018-06-09T08:40:51.196Z</time>
      </trkpt>
      <trkpt lat="37.441715" lon="-4.42292">
        <ele>540.0</ele>
        <time>2018-06-09T08:40:52.171Z</time>
      </trkpt>
      <trkpt lat="37.44170333" lon="-4.4229">
        <ele>540.0</ele>
        <time>2018-06-09T08:40:53.177Z</time>
      </trkpt>
      <trkpt lat="37.44170333" lon="-4.4229">
        <ele>540.0</ele>
        <time>2018-06-09T08:40:54.194Z</time>
      </trkpt>
      <trkpt lat="37.44167667" lon="-4.422865">
        <ele>541.0</ele>
        <time>2018-06-09T08:40:55.172Z</time>
      </trkpt>
      <trkpt lat="37.44166333" lon="-4.42284667">
        <ele>541.0</ele>
        <time>2018-06-09T08:40:56.169Z</time>
      </trkpt>
      <trkpt lat="37.44166333" lon="-4.42284667">
        <ele>541.0</ele>
        <time>2018-06-09T08:40:57.187Z</time>
      </trkpt>
      <trkpt lat="37.44163667" lon="-4.42281167">
        <ele>541.0</ele>
        <time>2018-06-09T08:40:58.196Z</time>
      </trkpt>
      <trkpt lat="37.44163667" lon="-4.42281167">
        <ele>541.0</ele>
        <time>2018-06-09T08:40:59.177Z</time>
      </trkpt>
      <trkpt lat="37.44161" lon="-4.422775">
        <ele>542.0</ele>
        <time>2018-06-09T08:41:00.184Z</time>
      </trkpt>
      <trkpt lat="37.44159667" lon="-4.42275667">
        <ele>542.0</ele>
        <time>2018-06-09T08:41:01.163Z</time>
      </trkpt>
      <trkpt lat="37.44158333" lon="-4.422735">
        <ele>542.0</ele>
        <time>2018-06-09T08:41:02.165Z</time>
      </trkpt>
      <trkpt lat="37.44158333" lon="-4.422735">
        <ele>542.0</ele>
        <time>2018-06-09T08:41:03.185Z</time>
      </trkpt>
      <trkpt lat="37.44155667" lon="-4.42269667">
        <ele>543.0</ele>
        <time>2018-06-09T08:41:04.161Z</time>
      </trkpt>
      <trkpt lat="37.44154333" lon="-4.42267833">
        <ele>543.0</ele>
        <time>2018-06-09T08:41:05.178Z</time>
      </trkpt>
      <trkpt lat="37.44154333" lon="-4.42267833">
        <ele>543.0</ele>
        <time>2018-06-09T08:41:06.161Z</time>
      </trkpt>
      <trkpt lat="37.441515" lon="-4.42264167">
        <ele>543.0</ele>
        <time>2018-06-09T08:41:07.170Z</time>
      </trkpt>
      <trkpt lat="37.44150167" lon="-4.42262167">
        <ele>544.0</ele>
        <time>2018-06-09T08:41:08.187Z</time>
      </trkpt>
      <trkpt lat="37.44150167" lon="-4.42262167">
        <ele>544.0</ele>
        <time>2018-06-09T08:41:09.184Z</time>
      </trkpt>
      <trkpt lat="37.441475" lon="-4.42257833">
        <ele>544.0</ele>
        <time>2018-06-09T08:41:10.190Z</time>
      </trkpt>
      <trkpt lat="37.44146333" lon="-4.42255667">
        <ele>544.0</ele>
        <time>2018-06-09T08:41:11.167Z</time>
      </trkpt>
      <trkpt lat="37.44145" lon="-4.42253667">
        <ele>544.0</ele>
        <time>2018-06-09T08:41:12.159Z</time>
      </trkpt>
      <trkpt lat="37.44145" lon="-4.42253667">
        <ele>544.0</ele>
        <time>2018-06-09T08:41:13.179Z</time>
      </trkpt>
      <trkpt lat="37.441425" lon="-4.422495">
        <ele>545.0</ele>
        <time>2018-06-09T08:41:14.186Z</time>
      </trkpt>
      <trkpt lat="37.441425" lon="-4.422495">
        <ele>545.0</ele>
        <time>2018-06-09T08:41:15.171Z</time>
      </trkpt>
      <trkpt lat="37.4414" lon="-4.422455">
        <ele>545.0</ele>
        <time>2018-06-09T08:41:16.204Z</time>
      </trkpt>
      <trkpt lat="37.4414" lon="-4.422455">
        <ele>545.0</ele>
        <time>2018-06-09T08:41:17.183Z</time>
      </trkpt>
      <trkpt lat="37.44137333" lon="-4.42241167">
        <ele>546.0</ele>
        <time>2018-06-09T08:41:18.161Z</time>
      </trkpt>
      <trkpt lat="37.44136167" lon="-4.42239">
        <ele>546.0</ele>
        <time>2018-06-09T08:41:19.196Z</time>
      </trkpt>
      <trkpt lat="37.44134833" lon="-4.42237">
        <ele>546.0</ele>
        <time>2018-06-09T08:41:20.184Z</time>
      </trkpt>
      <trkpt lat="37.44134833" lon="-4.42237">
        <ele>546.0</ele>
        <time>2018-06-09T08:41:21.165Z</time>
      </trkpt>
      <trkpt lat="37.44132667" lon="-4.422325">
        <ele>547.0</ele>
        <time>2018-06-09T08:41:22.176Z</time>
      </trkpt>
      <trkpt lat="37.44131333" lon="-4.4223">
        <ele>547.0</ele>
        <time>2018-06-09T08:41:23.189Z</time>
      </trkpt>
      <trkpt lat="37.44131333" lon="-4.4223">
        <ele>547.0</ele>
        <time>2018-06-09T08:41:24.165Z</time>
      </trkpt>
      <trkpt lat="37.44128833" lon="-4.42225">
        <ele>547.0</ele>
        <time>2018-06-09T08:41:25.196Z</time>
      </trkpt>
      <trkpt lat="37.44128833" lon="-4.42225">
        <ele>547.0</ele>
        <time>2018-06-09T08:41:26.188Z</time>
      </trkpt>
      <trkpt lat="37.44126667" lon="-4.42220167">
        <ele>548.0</ele>
        <time>2018-06-09T08:41:27.161Z</time>
      </trkpt>
      <trkpt lat="37.44125333" lon="-4.42218">
        <ele>548.0</ele>
        <time>2018-06-09T08:41:28.160Z</time>
      </trkpt>
      <trkpt lat="37.44125333" lon="-4.42218">
        <ele>548.0</ele>
        <time>2018-06-09T08:41:29.179Z</time>
      </trkpt>
      <trkpt lat="37.44123" lon="-4.42213667">
        <ele>548.0</ele>
        <time>2018-06-09T08:41:30.196Z</time>
      </trkpt>
      <trkpt lat="37.44121667" lon="-4.42211333">
        <ele>549.0</ele>
        <time>2018-06-09T08:41:31.173Z</time>
      </trkpt>
      <trkpt lat="37.441205" lon="-4.42209">
        <ele>549.0</ele>
        <time>2018-06-09T08:41:32.170Z</time>
      </trkpt>
      <trkpt lat="37.441205" lon="-4.42209">
        <ele>549.0</ele>
        <time>2018-06-09T08:41:33.166Z</time>
      </trkpt>
      <trkpt lat="37.44118167" lon="-4.42204167">
        <ele>549.0</ele>
        <time>2018-06-09T08:41:34.172Z</time>
      </trkpt>
      <trkpt lat="37.44118167" lon="-4.42204167">
        <ele>549.0</ele>
        <time>2018-06-09T08:41:35.191Z</time>
      </trkpt>
      <trkpt lat="37.44115667" lon="-4.42199333">
        <ele>550.0</ele>
        <time>2018-06-09T08:41:36.159Z</time>
      </trkpt>
      <trkpt lat="37.44114667" lon="-4.42196833">
        <ele>550.0</ele>
        <time>2018-06-09T08:41:37.174Z</time>
      </trkpt>
      <trkpt lat="37.44113667" lon="-4.42194167">
        <ele>550.0</ele>
        <time>2018-06-09T08:41:38.192Z</time>
      </trkpt>
      <trkpt lat="37.44113667" lon="-4.42194167">
        <ele>550.0</ele>
        <time>2018-06-09T08:41:39.169Z</time>
      </trkpt>
      <trkpt lat="37.44111167" lon="-4.42189333">
        <ele>550.0</ele>
        <time>2018-06-09T08:41:40.175Z</time>
      </trkpt>
      <trkpt lat="37.44109833" lon="-4.42186667">
        <ele>550.0</ele>
        <time>2018-06-09T08:41:41.190Z</time>
      </trkpt>
      <trkpt lat="37.44109833" lon="-4.42186667">
        <ele>550.0</ele>
        <time>2018-06-09T08:41:42.177Z</time>
      </trkpt>
      <trkpt lat="37.44107333" lon="-4.421815">
        <ele>551.0</ele>
        <time>2018-06-09T08:41:43.182Z</time>
      </trkpt>
      <trkpt lat="37.44106" lon="-4.42178833">
        <ele>551.0</ele>
        <time>2018-06-09T08:41:44.174Z</time>
      </trkpt>
      <trkpt lat="37.44106" lon="-4.42178833">
        <ele>551.0</ele>
        <time>2018-06-09T08:41:45.188Z</time>
      </trkpt>
      <trkpt lat="37.441035" lon="-4.42173667">
        <ele>551.0</ele>
        <time>2018-06-09T08:41:46.194Z</time>
      </trkpt>
      <trkpt lat="37.441035" lon="-4.42173667">
        <ele>551.0</ele>
        <time>2018-06-09T08:41:47.170Z</time>
      </trkpt>
      <trkpt lat="37.441005" lon="-4.42168833">
        <ele>551.0</ele>
        <time>2018-06-09T08:41:48.167Z</time>
      </trkpt>
      <trkpt lat="37.441005" lon="-4.42168833">
        <ele>551.0</ele>
        <time>2018-06-09T08:41:49.185Z</time>
      </trkpt>
      <trkpt lat="37.44098" lon="-4.42163333">
        <ele>551.0</ele>
        <time>2018-06-09T08:41:50.160Z</time>
      </trkpt>
      <trkpt lat="37.44098" lon="-4.42163333">
        <ele>551.0</ele>
        <time>2018-06-09T08:41:51.163Z</time>
      </trkpt>
      <trkpt lat="37.44095333" lon="-4.42157833">
        <ele>552.0</ele>
        <time>2018-06-09T08:41:52.170Z</time>
      </trkpt>
      <trkpt lat="37.44094" lon="-4.42155">
        <ele>552.0</ele>
        <time>2018-06-09T08:41:53.197Z</time>
      </trkpt>
      <trkpt lat="37.44094" lon="-4.42155">
        <ele>552.0</ele>
        <time>2018-06-09T08:41:54.166Z</time>
      </trkpt>
      <trkpt lat="37.44091167" lon="-4.42149333">
        <ele>552.0</ele>
        <time>2018-06-09T08:41:55.172Z</time>
      </trkpt>
      <trkpt lat="37.44089833" lon="-4.42146333">
        <ele>552.0</ele>
        <time>2018-06-09T08:41:56.191Z</time>
      </trkpt>
      <trkpt lat="37.44089833" lon="-4.42146333">
        <ele>552.0</ele>
        <time>2018-06-09T08:41:57.162Z</time>
      </trkpt>
      <trkpt lat="37.44087" lon="-4.42140167">
        <ele>552.0</ele>
        <time>2018-06-09T08:41:58.171Z</time>
      </trkpt>
      <trkpt lat="37.44087" lon="-4.42140167">
        <ele>552.0</ele>
        <time>2018-06-09T08:41:59.189Z</time>
      </trkpt>
      <trkpt lat="37.44084167" lon="-4.42134167">
        <ele>553.0</ele>
        <time>2018-06-09T08:42:00.190Z</time>
      </trkpt>
      <trkpt lat="37.44084167" lon="-4.42134167">
        <ele>553.0</ele>
        <time>2018-06-09T08:42:01.176Z</time>
      </trkpt>
      <trkpt lat="37.44081333" lon="-4.42128333">
        <ele>553.0</ele>
        <time>2018-06-09T08:42:02.183Z</time>
      </trkpt>
      <trkpt lat="37.44081333" lon="-4.42128333">
        <ele>553.0</ele>
        <time>2018-06-09T08:42:03.160Z</time>
      </trkpt>
      <trkpt lat="37.440785" lon="-4.42122667">
        <ele>553.0</ele>
        <time>2018-06-09T08:42:04.159Z</time>
      </trkpt>
      <trkpt lat="37.440785" lon="-4.42122667">
        <ele>553.0</ele>
        <time>2018-06-09T08:42:05.158Z</time>
      </trkpt>
      <trkpt lat="37.44075667" lon="-4.42117167">
        <ele>553.0</ele>
        <time>2018-06-09T08:42:06.164Z</time>
      </trkpt>
      <trkpt lat="37.44075667" lon="-4.42117167">
        <ele>553.0</ele>
        <time>2018-06-09T08:42:07.183Z</time>
      </trkpt>
      <trkpt lat="37.44072833" lon="-4.421115">
        <ele>553.0</ele>
        <time>2018-06-09T08:42:08.163Z</time>
      </trkpt>
      <trkpt lat="37.44072833" lon="-4.421115">
        <ele>553.0</ele>
        <time>2018-06-09T08:42:09.166Z</time>
      </trkpt>
      <trkpt lat="37.4407" lon="-4.42106">
        <ele>553.0</ele>
        <time>2018-06-09T08:42:10.172Z</time>
      </trkpt>
      <trkpt lat="37.440685" lon="-4.42103167">
        <ele>554.0</ele>
        <time>2018-06-09T08:42:11.190Z</time>
      </trkpt>
      <trkpt lat="37.440685" lon="-4.42103167">
        <ele>554.0</ele>
        <time>2018-06-09T08:42:12.184Z</time>
      </trkpt>
      <trkpt lat="37.44065833" lon="-4.420975">
        <ele>554.0</ele>
        <time>2018-06-09T08:42:13.190Z</time>
      </trkpt>
      <trkpt lat="37.44064333" lon="-4.42094667">
        <ele>554.0</ele>
        <time>2018-06-09T08:42:14.171Z</time>
      </trkpt>
      <trkpt lat="37.44064333" lon="-4.42094667">
        <ele>554.0</ele>
        <time>2018-06-09T08:42:15.182Z</time>
      </trkpt>
      <trkpt lat="37.44061333" lon="-4.42088667">
        <ele>554.0</ele>
        <time>2018-06-09T08:42:16.189Z</time>
      </trkpt>
      <trkpt lat="37.44061333" lon="-4.42088667">
        <ele>554.0</ele>
        <time>2018-06-09T08:42:17.165Z</time>
      </trkpt>
      <trkpt lat="37.44058333" lon="-4.42082333">
        <ele>554.0</ele>
        <time>2018-06-09T08:42:18.159Z</time>
      </trkpt>
      <trkpt lat="37.44058333" lon="-4.42082333">
        <ele>554.0</ele>
        <time>2018-06-09T08:42:19.159Z</time>
      </trkpt>
      <trkpt lat="37.44055333" lon="-4.42075833">
        <ele>554.0</ele>
        <time>2018-06-09T08:42:20.167Z</time>
      </trkpt>
      <trkpt lat="37.44055333" lon="-4.42075833">
        <ele>554.0</ele>
        <time>2018-06-09T08:42:21.184Z</time>
      </trkpt>
      <trkpt lat="37.44052" lon="-4.42069333">
        <ele>554.0</ele>
        <time>2018-06-09T08:42:22.194Z</time>
      </trkpt>
      <trkpt lat="37.44052" lon="-4.42069333">
        <ele>554.0</ele>
        <time>2018-06-09T08:42:23.160Z</time>
      </trkpt>
      <trkpt lat="37.44049" lon="-4.42063">
        <ele>554.0</ele>
        <time>2018-06-09T08:42:24.167Z</time>
      </trkpt>
      <trkpt lat="37.44049" lon="-4.42063">
        <ele>554.0</ele>
        <time>2018-06-09T08:42:25.173Z</time>
      </trkpt>
      <trkpt lat="37.44046" lon="-4.42056833">
        <ele>554.0</ele>
        <time>2018-06-09T08:42:26.179Z</time>
      </trkpt>
      <trkpt lat="37.44046" lon="-4.42056833">
        <ele>554.0</ele>
        <time>2018-06-09T08:42:27.184Z</time>
      </trkpt>
      <trkpt lat="37.44043" lon="-4.420505">
        <ele>555.0</ele>
        <time>2018-06-09T08:42:28.160Z</time>
      </trkpt>
      <trkpt lat="37.44043" lon="-4.420505">
        <ele>555.0</ele>
        <time>2018-06-09T08:42:29.176Z</time>
      </trkpt>
      <trkpt lat="37.4404" lon="-4.42043333">
        <ele>555.0</ele>
        <time>2018-06-09T08:42:30.182Z</time>
      </trkpt>
      <trkpt lat="37.440385" lon="-4.42039833">
        <ele>555.0</ele>
        <time>2018-06-09T08:42:31.160Z</time>
      </trkpt>
      <trkpt lat="37.44037167" lon="-4.42036333">
        <ele>555.0</ele>
        <time>2018-06-09T08:42:32.165Z</time>
      </trkpt>
      <trkpt lat="37.44037167" lon="-4.42036333">
        <ele>555.0</ele>
        <time>2018-06-09T08:42:33.182Z</time>
      </trkpt>
      <trkpt lat="37.44034333" lon="-4.42029">
        <ele>555.0</ele>
        <time>2018-06-09T08:42:34.197Z</time>
      </trkpt>
      <trkpt lat="37.44032833" lon="-4.420255">
        <ele>555.0</ele>
        <time>2018-06-09T08:42:35.186Z</time>
      </trkpt>
      <trkpt lat="37.44032833" lon="-4.420255">
        <ele>555.0</ele>
        <time>2018-06-09T08:42:36.164Z</time>
      </trkpt>
      <trkpt lat="37.440305" lon="-4.42018333">
        <ele>555.0</ele>
        <time>2018-06-09T08:42:37.197Z</time>
      </trkpt>
      <trkpt lat="37.44029" lon="-4.420145">
        <ele>555.0</ele>
        <time>2018-06-09T08:42:38.177Z</time>
      </trkpt>
      <trkpt lat="37.44029" lon="-4.420145">
        <ele>555.0</ele>
        <time>2018-06-09T08:42:39.157Z</time>
      </trkpt>
      <trkpt lat="37.44026167" lon="-4.42006833">
        <ele>555.0</ele>
        <time>2018-06-09T08:42:40.159Z</time>
      </trkpt>
      <trkpt lat="37.44026167" lon="-4.42006833">
        <ele>555.0</ele>
        <time>2018-06-09T08:42:41.172Z</time>
      </trkpt>
      <trkpt lat="37.44023167" lon="-4.41998167">
        <ele>555.0</ele>
        <time>2018-06-09T08:42:42.185Z</time>
      </trkpt>
      <trkpt lat="37.44023167" lon="-4.41998167">
        <ele>555.0</ele>
        <time>2018-06-09T08:42:43.166Z</time>
      </trkpt>
      <trkpt lat="37.44020167" lon="-4.41989">
        <ele>555.0</ele>
        <time>2018-06-09T08:42:44.170Z</time>
      </trkpt>
      <trkpt lat="37.44020167" lon="-4.41989">
        <ele>555.0</ele>
        <time>2018-06-09T08:42:45.194Z</time>
      </trkpt>
      <trkpt lat="37.44017" lon="-4.419795">
        <ele>555.0</ele>
        <time>2018-06-09T08:42:46.160Z</time>
      </trkpt>
      <trkpt lat="37.44015167" lon="-4.41974667">
        <ele>555.0</ele>
        <time>2018-06-09T08:42:47.176Z</time>
      </trkpt>
      <trkpt lat="37.44015167" lon="-4.41974667">
        <ele>555.0</ele>
        <time>2018-06-09T08:42:48.179Z</time>
      </trkpt>
      <trkpt lat="37.44011833" lon="-4.41964833">
        <ele>555.0</ele>
        <time>2018-06-09T08:42:49.191Z</time>
      </trkpt>
      <trkpt lat="37.44009833" lon="-4.41959833">
        <ele>554.0</ele>
        <time>2018-06-09T08:42:50.157Z</time>
      </trkpt>
      <trkpt lat="37.44009833" lon="-4.41959833">
        <ele>554.0</ele>
        <time>2018-06-09T08:42:51.176Z</time>
      </trkpt>
      <trkpt lat="37.44005833" lon="-4.419495">
        <ele>554.0</ele>
        <time>2018-06-09T08:42:52.183Z</time>
      </trkpt>
      <trkpt lat="37.44005833" lon="-4.419495">
        <ele>554.0</ele>
        <time>2018-06-09T08:42:53.181Z</time>
      </trkpt>
      <trkpt lat="37.44001167" lon="-4.41938667">
        <ele>554.0</ele>
        <time>2018-06-09T08:42:54.186Z</time>
      </trkpt>
      <trkpt lat="37.44001167" lon="-4.41938667">
        <ele>554.0</ele>
        <time>2018-06-09T08:42:55.164Z</time>
      </trkpt>
      <trkpt lat="37.43996" lon="-4.41928167">
        <ele>554.0</ele>
        <time>2018-06-09T08:42:56.160Z</time>
      </trkpt>
      <trkpt lat="37.43993333" lon="-4.41922833">
        <ele>554.0</ele>
        <time>2018-06-09T08:42:57.160Z</time>
      </trkpt>
      <trkpt lat="37.43993333" lon="-4.41922833">
        <ele>554.0</ele>
        <time>2018-06-09T08:42:58.177Z</time>
      </trkpt>
      <trkpt lat="37.43987333" lon="-4.419125">
        <ele>554.0</ele>
        <time>2018-06-09T08:42:59.194Z</time>
      </trkpt>
      <trkpt lat="37.43984333" lon="-4.41907333">
        <ele>554.0</ele>
        <time>2018-06-09T08:43:00.175Z</time>
      </trkpt>
      <trkpt lat="37.43981167" lon="-4.41902167">
        <ele>554.0</ele>
        <time>2018-06-09T08:43:01.194Z</time>
      </trkpt>
      <trkpt lat="37.43978" lon="-4.41897167">
        <ele>554.0</ele>
        <time>2018-06-09T08:43:02.177Z</time>
      </trkpt>
      <trkpt lat="37.43978" lon="-4.41897167">
        <ele>554.0</ele>
        <time>2018-06-09T08:43:03.157Z</time>
      </trkpt>
      <trkpt lat="37.439715" lon="-4.41887">
        <ele>554.0</ele>
        <time>2018-06-09T08:43:04.165Z</time>
      </trkpt>
      <trkpt lat="37.43968167" lon="-4.41882">
        <ele>554.0</ele>
        <time>2018-06-09T08:43:05.180Z</time>
      </trkpt>
      <trkpt lat="37.43968167" lon="-4.41882">
        <ele>554.0</ele>
        <time>2018-06-09T08:43:06.166Z</time>
      </trkpt>
      <trkpt lat="37.43961333" lon="-4.418715">
        <ele>553.0</ele>
        <time>2018-06-09T08:43:07.174Z</time>
      </trkpt>
      <trkpt lat="37.43958" lon="-4.41866333">
        <ele>553.0</ele>
        <time>2018-06-09T08:43:08.195Z</time>
      </trkpt>
      <trkpt lat="37.43958" lon="-4.41866333">
        <ele>553.0</ele>
        <time>2018-06-09T08:43:09.182Z</time>
      </trkpt>
      <trkpt lat="37.43951167" lon="-4.41855333">
        <ele>553.0</ele>
        <time>2018-06-09T08:43:10.157Z</time>
      </trkpt>
      <trkpt lat="37.43948" lon="-4.41849667">
        <ele>553.0</ele>
        <time>2018-06-09T08:43:11.170Z</time>
      </trkpt>
      <trkpt lat="37.43944833" lon="-4.41843833">
        <ele>553.0</ele>
        <time>2018-06-09T08:43:12.188Z</time>
      </trkpt>
      <trkpt lat="37.43944833" lon="-4.41843833">
        <ele>553.0</ele>
        <time>2018-06-09T08:43:13.165Z</time>
      </trkpt>
      <trkpt lat="37.43938667" lon="-4.41832">
        <ele>553.0</ele>
        <time>2018-06-09T08:43:14.171Z</time>
      </trkpt>
      <trkpt lat="37.43938667" lon="-4.41832">
        <ele>553.0</ele>
        <time>2018-06-09T08:43:15.171Z</time>
      </trkpt>
      <trkpt lat="37.43933" lon="-4.41820333">
        <ele>553.0</ele>
        <time>2018-06-09T08:43:16.196Z</time>
      </trkpt>
      <trkpt lat="37.43933" lon="-4.41820333">
        <ele>553.0</ele>
        <time>2018-06-09T08:43:17.157Z</time>
      </trkpt>
      <trkpt lat="37.43928167" lon="-4.418085">
        <ele>553.0</ele>
        <time>2018-06-09T08:43:18.164Z</time>
      </trkpt>
      <trkpt lat="37.43926" lon="-4.418025">
        <ele>553.0</ele>
        <time>2018-06-09T08:43:19.162Z</time>
      </trkpt>
      <trkpt lat="37.43924" lon="-4.41796667">
        <ele>553.0</ele>
        <time>2018-06-09T08:43:20.187Z</time>
      </trkpt>
      <trkpt lat="37.43924" lon="-4.41796667">
        <ele>553.0</ele>
        <time>2018-06-09T08:43:21.164Z</time>
      </trkpt>
      <trkpt lat="37.43920833" lon="-4.41785167">
        <ele>553.0</ele>
        <time>2018-06-09T08:43:22.170Z</time>
      </trkpt>
      <trkpt lat="37.439195" lon="-4.41779667">
        <ele>553.0</ele>
        <time>2018-06-09T08:43:23.163Z</time>
      </trkpt>
      <trkpt lat="37.439195" lon="-4.41779667">
        <ele>553.0</ele>
        <time>2018-06-09T08:43:24.194Z</time>
      </trkpt>
      <trkpt lat="37.43917" lon="-4.41769">
        <ele>553.0</ele>
        <time>2018-06-09T08:43:25.177Z</time>
      </trkpt>
      <trkpt lat="37.43917" lon="-4.41769">
        <ele>553.0</ele>
        <time>2018-06-09T08:43:26.183Z</time>
      </trkpt>
      <trkpt lat="37.43915" lon="-4.41758667">
        <ele>554.0</ele>
        <time>2018-06-09T08:43:27.160Z</time>
      </trkpt>
      <trkpt lat="37.43915" lon="-4.41758667">
        <ele>554.0</ele>
        <time>2018-06-09T08:43:28.165Z</time>
      </trkpt>
      <trkpt lat="37.43913333" lon="-4.41748667">
        <ele>554.0</ele>
        <time>2018-06-09T08:43:29.178Z</time>
      </trkpt>
      <trkpt lat="37.43912833" lon="-4.41743833">
        <ele>554.0</ele>
        <time>2018-06-09T08:43:30.186Z</time>
      </trkpt>
      <trkpt lat="37.43912833" lon="-4.41743833">
        <ele>554.0</ele>
        <time>2018-06-09T08:43:31.164Z</time>
      </trkpt>
      <trkpt lat="37.439115" lon="-4.41734833">
        <ele>554.0</ele>
        <time>2018-06-09T08:43:32.171Z</time>
      </trkpt>
      <trkpt lat="37.439115" lon="-4.41734833">
        <ele>554.0</ele>
        <time>2018-06-09T08:43:33.172Z</time>
      </trkpt>
      <trkpt lat="37.43911" lon="-4.41726">
        <ele>554.0</ele>
        <time>2018-06-09T08:43:34.165Z</time>
      </trkpt>
      <trkpt lat="37.43911" lon="-4.41726">
        <ele>554.0</ele>
        <time>2018-06-09T08:43:35.164Z</time>
      </trkpt>
      <trkpt lat="37.439105" lon="-4.41717833">
        <ele>555.0</ele>
        <time>2018-06-09T08:43:36.171Z</time>
      </trkpt>
      <trkpt lat="37.439105" lon="-4.41717833">
        <ele>555.0</ele>
        <time>2018-06-09T08:43:37.190Z</time>
      </trkpt>
      <trkpt lat="37.43910333" lon="-4.4171">
        <ele>555.0</ele>
        <time>2018-06-09T08:43:38.157Z</time>
      </trkpt>
      <trkpt lat="37.43910333" lon="-4.4171">
        <ele>555.0</ele>
        <time>2018-06-09T08:43:39.188Z</time>
      </trkpt>
      <trkpt lat="37.43910333" lon="-4.41702833">
        <ele>555.0</ele>
        <time>2018-06-09T08:43:40.194Z</time>
      </trkpt>
      <trkpt lat="37.43910333" lon="-4.41699167">
        <ele>555.0</ele>
        <time>2018-06-09T08:43:41.171Z</time>
      </trkpt>
      <trkpt lat="37.43910333" lon="-4.41699167">
        <ele>555.0</ele>
        <time>2018-06-09T08:43:42.183Z</time>
      </trkpt>
      <trkpt lat="37.439105" lon="-4.41692167">
        <ele>556.0</ele>
        <time>2018-06-09T08:43:43.190Z</time>
      </trkpt>
      <trkpt lat="37.43910667" lon="-4.416885">
        <ele>556.0</ele>
        <time>2018-06-09T08:43:44.161Z</time>
      </trkpt>
      <trkpt lat="37.43910667" lon="-4.416885">
        <ele>556.0</ele>
        <time>2018-06-09T08:43:45.163Z</time>
      </trkpt>
      <trkpt lat="37.43911" lon="-4.41681167">
        <ele>556.0</ele>
        <time>2018-06-09T08:43:46.170Z</time>
      </trkpt>
      <trkpt lat="37.43911" lon="-4.41681167">
        <ele>556.0</ele>
        <time>2018-06-09T08:43:47.166Z</time>
      </trkpt>
      <trkpt lat="37.43911667" lon="-4.41674">
        <ele>556.0</ele>
        <time>2018-06-09T08:43:48.186Z</time>
      </trkpt>
      <trkpt lat="37.43912" lon="-4.416705">
        <ele>556.0</ele>
        <time>2018-06-09T08:43:49.165Z</time>
      </trkpt>
      <trkpt lat="37.43912333" lon="-4.41667">
        <ele>556.0</ele>
        <time>2018-06-09T08:43:50.167Z</time>
      </trkpt>
      <trkpt lat="37.43912333" lon="-4.41667">
        <ele>556.0</ele>
        <time>2018-06-09T08:43:51.187Z</time>
      </trkpt>
      <trkpt lat="37.43913" lon="-4.4166">
        <ele>557.0</ele>
        <time>2018-06-09T08:43:52.194Z</time>
      </trkpt>
      <trkpt lat="37.43913" lon="-4.4166">
        <ele>557.0</ele>
        <time>2018-06-09T08:43:53.193Z</time>
      </trkpt>
      <trkpt lat="37.43913833" lon="-4.41653167">
        <ele>557.0</ele>
        <time>2018-06-09T08:43:54.162Z</time>
      </trkpt>
      <trkpt lat="37.43913833" lon="-4.41653167">
        <ele>557.0</ele>
        <time>2018-06-09T08:43:55.181Z</time>
      </trkpt>
      <trkpt lat="37.43914667" lon="-4.41646333">
        <ele>557.0</ele>
        <time>2018-06-09T08:43:56.160Z</time>
      </trkpt>
      <trkpt lat="37.43914667" lon="-4.41646333">
        <ele>557.0</ele>
        <time>2018-06-09T08:43:57.169Z</time>
      </trkpt>
      <trkpt lat="37.43915667" lon="-4.41639667">
        <ele>557.0</ele>
        <time>2018-06-09T08:43:58.175Z</time>
      </trkpt>
      <trkpt lat="37.43915667" lon="-4.41639667">
        <ele>557.0</ele>
        <time>2018-06-09T08:43:59.193Z</time>
      </trkpt>
      <trkpt lat="37.43916" lon="-4.41633167">
        <ele>558.0</ele>
        <time>2018-06-09T08:44:00.195Z</time>
      </trkpt>
      <trkpt lat="37.43916" lon="-4.41633167">
        <ele>558.0</ele>
        <time>2018-06-09T08:44:01.164Z</time>
      </trkpt>
      <trkpt lat="37.43916667" lon="-4.41626833">
        <ele>558.0</ele>
        <time>2018-06-09T08:44:02.173Z</time>
      </trkpt>
      <trkpt lat="37.43916667" lon="-4.41626833">
        <ele>558.0</ele>
        <time>2018-06-09T08:44:03.192Z</time>
      </trkpt>
      <trkpt lat="37.439175" lon="-4.41620167">
        <ele>558.0</ele>
        <time>2018-06-09T08:44:04.181Z</time>
      </trkpt>
      <trkpt lat="37.439175" lon="-4.41620167">
        <ele>558.0</ele>
        <time>2018-06-09T08:44:05.184Z</time>
      </trkpt>
      <trkpt lat="37.43918333" lon="-4.41613833">
        <ele>559.0</ele>
        <time>2018-06-09T08:44:06.190Z</time>
      </trkpt>
      <trkpt lat="37.43918833" lon="-4.41610833">
        <ele>559.0</ele>
        <time>2018-06-09T08:44:07.170Z</time>
      </trkpt>
      <trkpt lat="37.43918833" lon="-4.41610833">
        <ele>559.0</ele>
        <time>2018-06-09T08:44:08.162Z</time>
      </trkpt>
      <trkpt lat="37.43919667" lon="-4.41604333">
        <ele>559.0</ele>
        <time>2018-06-09T08:44:09.168Z</time>
      </trkpt>
      <trkpt lat="37.4392" lon="-4.41601167">
        <ele>559.0</ele>
        <time>2018-06-09T08:44:10.185Z</time>
      </trkpt>
      <trkpt lat="37.4392" lon="-4.41601167">
        <ele>559.0</ele>
        <time>2018-06-09T08:44:11.192Z</time>
      </trkpt>
      <trkpt lat="37.43920833" lon="-4.41595">
        <ele>559.0</ele>
        <time>2018-06-09T08:44:12.161Z</time>
      </trkpt>
      <trkpt lat="37.43920833" lon="-4.41595">
        <ele>559.0</ele>
        <time>2018-06-09T08:44:13.180Z</time>
      </trkpt>
      <trkpt lat="37.439215" lon="-4.41588167">
        <ele>560.0</ele>
        <time>2018-06-09T08:44:14.181Z</time>
      </trkpt>
      <trkpt lat="37.439215" lon="-4.41588167">
        <ele>560.0</ele>
        <time>2018-06-09T08:44:15.182Z</time>
      </trkpt>
      <trkpt lat="37.43922167" lon="-4.41581167">
        <ele>560.0</ele>
        <time>2018-06-09T08:44:16.188Z</time>
      </trkpt>
      <trkpt lat="37.43922167" lon="-4.41581167">
        <ele>560.0</ele>
        <time>2018-06-09T08:44:17.164Z</time>
      </trkpt>
      <trkpt lat="37.43922667" lon="-4.41574333">
        <ele>560.0</ele>
        <time>2018-06-09T08:44:18.180Z</time>
      </trkpt>
      <trkpt lat="37.43922667" lon="-4.41574333">
        <ele>560.0</ele>
        <time>2018-06-09T08:44:19.165Z</time>
      </trkpt>
      <trkpt lat="37.43923333" lon="-4.41567667">
        <ele>560.0</ele>
        <time>2018-06-09T08:44:20.173Z</time>
      </trkpt>
      <trkpt lat="37.43923333" lon="-4.41567667">
        <ele>560.0</ele>
        <time>2018-06-09T08:44:21.191Z</time>
      </trkpt>
      <trkpt lat="37.43924167" lon="-4.41561">
        <ele>561.0</ele>
        <time>2018-06-09T08:44:22.158Z</time>
      </trkpt>
      <trkpt lat="37.43924167" lon="-4.41561">
        <ele>561.0</ele>
        <time>2018-06-09T08:44:23.181Z</time>
      </trkpt>
      <trkpt lat="37.43924833" lon="-4.41554333">
        <ele>561.0</ele>
        <time>2018-06-09T08:44:24.187Z</time>
      </trkpt>
      <trkpt lat="37.43925167" lon="-4.41550833">
        <ele>561.0</ele>
        <time>2018-06-09T08:44:25.163Z</time>
      </trkpt>
      <trkpt lat="37.43925167" lon="-4.41550833">
        <ele>561.0</ele>
        <time>2018-06-09T08:44:26.165Z</time>
      </trkpt>
      <trkpt lat="37.43925667" lon="-4.41544">
        <ele>561.0</ele>
        <time>2018-06-09T08:44:27.172Z</time>
      </trkpt>
      <trkpt lat="37.43925667" lon="-4.41544">
        <ele>561.0</ele>
        <time>2018-06-09T08:44:28.165Z</time>
      </trkpt>
      <trkpt lat="37.43926167" lon="-4.415375">
        <ele>562.0</ele>
        <time>2018-06-09T08:44:29.160Z</time>
      </trkpt>
      <trkpt lat="37.43926167" lon="-4.415375">
        <ele>562.0</ele>
        <time>2018-06-09T08:44:30.159Z</time>
      </trkpt>
      <trkpt lat="37.43926667" lon="-4.41531333">
        <ele>562.0</ele>
        <time>2018-06-09T08:44:31.167Z</time>
      </trkpt>
      <trkpt lat="37.43926667" lon="-4.41528333">
        <ele>562.0</ele>
        <time>2018-06-09T08:44:32.160Z</time>
      </trkpt>
      <trkpt lat="37.43926667" lon="-4.41528333">
        <ele>562.0</ele>
        <time>2018-06-09T08:44:33.169Z</time>
      </trkpt>
      <trkpt lat="37.43926667" lon="-4.41521833">
        <ele>562.0</ele>
        <time>2018-06-09T08:44:34.159Z</time>
      </trkpt>
      <trkpt lat="37.439265" lon="-4.41518667">
        <ele>562.0</ele>
        <time>2018-06-09T08:44:35.160Z</time>
      </trkpt>
      <trkpt lat="37.439265" lon="-4.41518667">
        <ele>562.0</ele>
        <time>2018-06-09T08:44:36.168Z</time>
      </trkpt>
      <trkpt lat="37.43926667" lon="-4.41512333">
        <ele>563.0</ele>
        <time>2018-06-09T08:44:37.175Z</time>
      </trkpt>
      <trkpt lat="37.43926833" lon="-4.41509333">
        <ele>563.0</ele>
        <time>2018-06-09T08:44:38.175Z</time>
      </trkpt>
      <trkpt lat="37.43926833" lon="-4.41509333">
        <ele>563.0</ele>
        <time>2018-06-09T08:44:39.158Z</time>
      </trkpt>
      <trkpt lat="37.43927" lon="-4.41503333">
        <ele>563.0</ele>
        <time>2018-06-09T08:44:40.168Z</time>
      </trkpt>
      <trkpt lat="37.43927" lon="-4.41503333">
        <ele>563.0</ele>
        <time>2018-06-09T08:44:41.188Z</time>
      </trkpt>
      <trkpt lat="37.43926833" lon="-4.41497333">
        <ele>563.0</ele>
        <time>2018-06-09T08:44:42.197Z</time>
      </trkpt>
      <trkpt lat="37.43926833" lon="-4.41497333">
        <ele>563.0</ele>
        <time>2018-06-09T08:44:43.186Z</time>
      </trkpt>
      <trkpt lat="37.43926667" lon="-4.41491333">
        <ele>564.0</ele>
        <time>2018-06-09T08:44:44.193Z</time>
      </trkpt>
      <trkpt lat="37.439265" lon="-4.414885">
        <ele>564.0</ele>
        <time>2018-06-09T08:44:45.159Z</time>
      </trkpt>
      <trkpt lat="37.439265" lon="-4.414885">
        <ele>564.0</ele>
        <time>2018-06-09T08:44:46.165Z</time>
      </trkpt>
      <trkpt lat="37.43926167" lon="-4.41482667">
        <ele>564.0</ele>
        <time>2018-06-09T08:44:47.184Z</time>
      </trkpt>
      <trkpt lat="37.43926" lon="-4.41479667">
        <ele>564.0</ele>
        <time>2018-06-09T08:44:48.188Z</time>
      </trkpt>
      <trkpt lat="37.43926" lon="-4.41479667">
        <ele>564.0</ele>
        <time>2018-06-09T08:44:49.169Z</time>
      </trkpt>
      <trkpt lat="37.43925667" lon="-4.414735">
        <ele>565.0</ele>
        <time>2018-06-09T08:44:50.175Z</time>
      </trkpt>
      <trkpt lat="37.43925667" lon="-4.414735">
        <ele>565.0</ele>
        <time>2018-06-09T08:44:51.195Z</time>
      </trkpt>
      <trkpt lat="37.43925333" lon="-4.41467167">
        <ele>565.0</ele>
        <time>2018-06-09T08:44:52.160Z</time>
      </trkpt>
      <trkpt lat="37.43925333" lon="-4.41467167">
        <ele>565.0</ele>
        <time>2018-06-09T08:44:53.167Z</time>
      </trkpt>
      <trkpt lat="37.43924833" lon="-4.41460667">
        <ele>565.0</ele>
        <time>2018-06-09T08:44:54.174Z</time>
      </trkpt>
      <trkpt lat="37.439245" lon="-4.414575">
        <ele>565.0</ele>
        <time>2018-06-09T08:44:55.197Z</time>
      </trkpt>
      <trkpt lat="37.43924167" lon="-4.41454167">
        <ele>566.0</ele>
        <time>2018-06-09T08:44:56.175Z</time>
      </trkpt>
      <trkpt lat="37.43924167" lon="-4.41454167">
        <ele>566.0</ele>
        <time>2018-06-09T08:44:57.195Z</time>
      </trkpt>
      <trkpt lat="37.43923667" lon="-4.41447667">
        <ele>566.0</ele>
        <time>2018-06-09T08:44:58.173Z</time>
      </trkpt>
      <trkpt lat="37.43923667" lon="-4.41447667">
        <ele>566.0</ele>
        <time>2018-06-09T08:44:59.176Z</time>
      </trkpt>
      <trkpt lat="37.43923333" lon="-4.41441167">
        <ele>566.0</ele>
        <time>2018-06-09T08:45:00.182Z</time>
      </trkpt>
      <trkpt lat="37.43923333" lon="-4.41441167">
        <ele>566.0</ele>
        <time>2018-06-09T08:45:01.169Z</time>
      </trkpt>
      <trkpt lat="37.43923333" lon="-4.414345">
        <ele>567.0</ele>
        <time>2018-06-09T08:45:02.158Z</time>
      </trkpt>
      <trkpt lat="37.43923333" lon="-4.414345">
        <ele>567.0</ele>
        <time>2018-06-09T08:45:03.172Z</time>
      </trkpt>
      <trkpt lat="37.43923" lon="-4.41427833">
        <ele>567.0</ele>
        <time>2018-06-09T08:45:04.178Z</time>
      </trkpt>
      <trkpt lat="37.43923" lon="-4.41424667">
        <ele>567.0</ele>
        <time>2018-06-09T08:45:05.165Z</time>
      </trkpt>
      <trkpt lat="37.43923" lon="-4.41424667">
        <ele>567.0</ele>
        <time>2018-06-09T08:45:06.167Z</time>
      </trkpt>
      <trkpt lat="37.43922833" lon="-4.41417833">
        <ele>568.0</ele>
        <time>2018-06-09T08:45:07.174Z</time>
      </trkpt>
      <trkpt lat="37.43922833" lon="-4.41414333">
        <ele>568.0</ele>
        <time>2018-06-09T08:45:08.157Z</time>
      </trkpt>
      <trkpt lat="37.43922833" lon="-4.41414333">
        <ele>568.0</ele>
        <time>2018-06-09T08:45:09.164Z</time>
      </trkpt>
      <trkpt lat="37.43922833" lon="-4.41407667">
        <ele>568.0</ele>
        <time>2018-06-09T08:45:10.170Z</time>
      </trkpt>
      <trkpt lat="37.43923" lon="-4.41404333">
        <ele>568.0</ele>
        <time>2018-06-09T08:45:11.196Z</time>
      </trkpt>
      <trkpt lat="37.43923" lon="-4.41404333">
        <ele>568.0</ele>
        <time>2018-06-09T08:45:12.175Z</time>
      </trkpt>
      <trkpt lat="37.43923" lon="-4.413985">
        <ele>569.0</ele>
        <time>2018-06-09T08:45:13.183Z</time>
      </trkpt>
      <trkpt lat="37.43923" lon="-4.41395667">
        <ele>569.0</ele>
        <time>2018-06-09T08:45:14.178Z</time>
      </trkpt>
      <trkpt lat="37.43923" lon="-4.41395667">
        <ele>569.0</ele>
        <time>2018-06-09T08:45:15.157Z</time>
      </trkpt>
      <trkpt lat="37.43923167" lon="-4.41390167">
        <ele>569.0</ele>
        <time>2018-06-09T08:45:16.170Z</time>
      </trkpt>
      <trkpt lat="37.439235" lon="-4.413875">
        <ele>569.0</ele>
        <time>2018-06-09T08:45:17.159Z</time>
      </trkpt>
      <trkpt lat="37.439235" lon="-4.413875">
        <ele>569.0</ele>
        <time>2018-06-09T08:45:18.185Z</time>
      </trkpt>
      <trkpt lat="37.43923833" lon="-4.41381833">
        <ele>570.0</ele>
        <time>2018-06-09T08:45:19.191Z</time>
      </trkpt>
      <trkpt lat="37.43924167" lon="-4.41378833">
        <ele>570.0</ele>
        <time>2018-06-09T08:45:20.190Z</time>
      </trkpt>
      <trkpt lat="37.43924167" lon="-4.41378833">
        <ele>570.0</ele>
        <time>2018-06-09T08:45:21.158Z</time>
      </trkpt>
      <trkpt lat="37.43924833" lon="-4.41373333">
        <ele>570.0</ele>
        <time>2018-06-09T08:45:22.164Z</time>
      </trkpt>
      <trkpt lat="37.43925" lon="-4.413705">
        <ele>570.0</ele>
        <time>2018-06-09T08:45:23.164Z</time>
      </trkpt>
      <trkpt lat="37.43925" lon="-4.41367833">
        <ele>571.0</ele>
        <time>2018-06-09T08:45:24.176Z</time>
      </trkpt>
      <trkpt lat="37.43925" lon="-4.41367833">
        <ele>571.0</ele>
        <time>2018-06-09T08:45:25.195Z</time>
      </trkpt>
      <trkpt lat="37.439255" lon="-4.41362667">
        <ele>571.0</ele>
        <time>2018-06-09T08:45:26.178Z</time>
      </trkpt>
      <trkpt lat="37.43926167" lon="-4.41360167">
        <ele>571.0</ele>
        <time>2018-06-09T08:45:27.186Z</time>
      </trkpt>
      <trkpt lat="37.43926167" lon="-4.41360167">
        <ele>571.0</ele>
        <time>2018-06-09T08:45:28.166Z</time>
      </trkpt>
      <trkpt lat="37.439275" lon="-4.41355">
        <ele>571.0</ele>
        <time>2018-06-09T08:45:29.162Z</time>
      </trkpt>
      <trkpt lat="37.43928333" lon="-4.413525">
        <ele>571.0</ele>
        <time>2018-06-09T08:45:30.175Z</time>
      </trkpt>
      <trkpt lat="37.43928333" lon="-4.413525">
        <ele>571.0</ele>
        <time>2018-06-09T08:45:31.194Z</time>
      </trkpt>
      <trkpt lat="37.43929333" lon="-4.41347333">
        <ele>572.0</ele>
        <time>2018-06-09T08:45:32.164Z</time>
      </trkpt>
      <trkpt lat="37.43929333" lon="-4.41347333">
        <ele>572.0</ele>
        <time>2018-06-09T08:45:33.174Z</time>
      </trkpt>
      <trkpt lat="37.43930167" lon="-4.41342833">
        <ele>573.0</ele>
        <time>2018-06-09T08:45:34.190Z</time>
      </trkpt>
      <trkpt lat="37.43930833" lon="-4.41340667">
        <ele>573.0</ele>
        <time>2018-06-09T08:45:35.170Z</time>
      </trkpt>
      <trkpt lat="37.43931667" lon="-4.413385">
        <ele>573.0</ele>
        <time>2018-06-09T08:45:36.188Z</time>
      </trkpt>
      <trkpt lat="37.43931667" lon="-4.413385">
        <ele>573.0</ele>
        <time>2018-06-09T08:45:37.166Z</time>
      </trkpt>
      <trkpt lat="37.43932667" lon="-4.41334">
        <ele>574.0</ele>
        <time>2018-06-09T08:45:38.173Z</time>
      </trkpt>
      <trkpt lat="37.43932667" lon="-4.41334">
        <ele>574.0</ele>
        <time>2018-06-09T08:45:39.196Z</time>
      </trkpt>
      <trkpt lat="37.43933667" lon="-4.413295">
        <ele>574.0</ele>
        <time>2018-06-09T08:45:40.159Z</time>
      </trkpt>
      <trkpt lat="37.43933667" lon="-4.413295">
        <ele>574.0</ele>
        <time>2018-06-09T08:45:41.164Z</time>
      </trkpt>
      <trkpt lat="37.43935" lon="-4.41324833">
        <ele>575.0</ele>
        <time>2018-06-09T08:45:42.170Z</time>
      </trkpt>
      <trkpt lat="37.43935667" lon="-4.413225">
        <ele>575.0</ele>
        <time>2018-06-09T08:45:43.196Z</time>
      </trkpt>
      <trkpt lat="37.43936333" lon="-4.4132">
        <ele>575.0</ele>
        <time>2018-06-09T08:45:44.187Z</time>
      </trkpt>
      <trkpt lat="37.43936333" lon="-4.4132">
        <ele>575.0</ele>
        <time>2018-06-09T08:45:45.164Z</time>
      </trkpt>
      <trkpt lat="37.43937667" lon="-4.413155">
        <ele>576.0</ele>
        <time>2018-06-09T08:45:46.177Z</time>
      </trkpt>
      <trkpt lat="37.43937667" lon="-4.413155">
        <ele>576.0</ele>
        <time>2018-06-09T08:45:47.196Z</time>
      </trkpt>
      <trkpt lat="37.43939" lon="-4.41311">
        <ele>576.0</ele>
        <time>2018-06-09T08:45:48.166Z</time>
      </trkpt>
      <trkpt lat="37.43939667" lon="-4.41308667">
        <ele>576.0</ele>
        <time>2018-06-09T08:45:49.185Z</time>
      </trkpt>
      <trkpt lat="37.43940333" lon="-4.413065">
        <ele>576.0</ele>
        <time>2018-06-09T08:45:50.165Z</time>
      </trkpt>
      <trkpt lat="37.43940333" lon="-4.413065">
        <ele>576.0</ele>
        <time>2018-06-09T08:45:51.185Z</time>
      </trkpt>
      <trkpt lat="37.43942" lon="-4.41302167">
        <ele>577.0</ele>
        <time>2018-06-09T08:45:52.191Z</time>
      </trkpt>
      <trkpt lat="37.43942667" lon="-4.41299833">
        <ele>577.0</ele>
        <time>2018-06-09T08:45:53.176Z</time>
      </trkpt>
      <trkpt lat="37.43942667" lon="-4.41299833">
        <ele>577.0</ele>
        <time>2018-06-09T08:45:54.162Z</time>
      </trkpt>
      <trkpt lat="37.43944333" lon="-4.41295167">
        <ele>577.0</ele>
        <time>2018-06-09T08:45:55.170Z</time>
      </trkpt>
      <trkpt lat="37.43944333" lon="-4.41295167">
        <ele>577.0</ele>
        <time>2018-06-09T08:45:56.194Z</time>
      </trkpt>
      <trkpt lat="37.43945833" lon="-4.412905">
        <ele>578.0</ele>
        <time>2018-06-09T08:45:57.160Z</time>
      </trkpt>
      <trkpt lat="37.43945833" lon="-4.412905">
        <ele>578.0</ele>
        <time>2018-06-09T08:45:58.187Z</time>
      </trkpt>
      <trkpt lat="37.43947333" lon="-4.41285667">
        <ele>578.0</ele>
        <time>2018-06-09T08:45:59.193Z</time>
      </trkpt>
      <trkpt lat="37.43947333" lon="-4.41285667">
        <ele>578.0</ele>
        <time>2018-06-09T08:46:00.196Z</time>
      </trkpt>
      <trkpt lat="37.43948833" lon="-4.41281167">
        <ele>579.0</ele>
        <time>2018-06-09T08:46:01.165Z</time>
      </trkpt>
      <trkpt lat="37.43948833" lon="-4.41281167">
        <ele>579.0</ele>
        <time>2018-06-09T08:46:02.182Z</time>
      </trkpt>
      <trkpt lat="37.43950333" lon="-4.412765">
        <ele>579.0</ele>
        <time>2018-06-09T08:46:03.159Z</time>
      </trkpt>
      <trkpt lat="37.43950333" lon="-4.412765">
        <ele>579.0</ele>
        <time>2018-06-09T08:46:04.166Z</time>
      </trkpt>
      <trkpt lat="37.43951667" lon="-4.41271833">
        <ele>580.0</ele>
        <time>2018-06-09T08:46:05.173Z</time>
      </trkpt>
      <trkpt lat="37.43951667" lon="-4.41271833">
        <ele>580.0</ele>
        <time>2018-06-09T08:46:06.191Z</time>
      </trkpt>
      <trkpt lat="37.43953167" lon="-4.41267167">
        <ele>580.0</ele>
        <time>2018-06-09T08:46:07.160Z</time>
      </trkpt>
      <trkpt lat="37.43953167" lon="-4.41267167">
        <ele>580.0</ele>
        <time>2018-06-09T08:46:08.162Z</time>
      </trkpt>
      <trkpt lat="37.43954833" lon="-4.412625">
        <ele>580.0</ele>
        <time>2018-06-09T08:46:09.169Z</time>
      </trkpt>
      <trkpt lat="37.43954833" lon="-4.412625">
        <ele>580.0</ele>
        <time>2018-06-09T08:46:10.188Z</time>
      </trkpt>
      <trkpt lat="37.43956667" lon="-4.41257833">
        <ele>581.0</ele>
        <time>2018-06-09T08:46:11.189Z</time>
      </trkpt>
      <trkpt lat="37.43956667" lon="-4.41257833">
        <ele>581.0</ele>
        <time>2018-06-09T08:46:12.157Z</time>
      </trkpt>
      <trkpt lat="37.43958333" lon="-4.41253">
        <ele>581.0</ele>
        <time>2018-06-09T08:46:13.164Z</time>
      </trkpt>
      <trkpt lat="37.43959333" lon="-4.41250667">
        <ele>581.0</ele>
        <time>2018-06-09T08:46:14.158Z</time>
      </trkpt>
      <trkpt lat="37.43959333" lon="-4.41250667">
        <ele>581.0</ele>
        <time>2018-06-09T08:46:15.192Z</time>
      </trkpt>
      <trkpt lat="37.43961667" lon="-4.41245833">
        <ele>582.0</ele>
        <time>2018-06-09T08:46:16.166Z</time>
      </trkpt>
      <trkpt lat="37.43962667" lon="-4.412435">
        <ele>582.0</ele>
        <time>2018-06-09T08:46:17.184Z</time>
      </trkpt>
      <trkpt lat="37.43962667" lon="-4.412435">
        <ele>582.0</ele>
        <time>2018-06-09T08:46:18.160Z</time>
      </trkpt>
      <trkpt lat="37.43964833" lon="-4.41238667">
        <ele>582.0</ele>
        <time>2018-06-09T08:46:19.174Z</time>
      </trkpt>
      <trkpt lat="37.43965833" lon="-4.41236333">
        <ele>582.0</ele>
        <time>2018-06-09T08:46:20.191Z</time>
      </trkpt>
      <trkpt lat="37.43965833" lon="-4.41236333">
        <ele>582.0</ele>
        <time>2018-06-09T08:46:21.164Z</time>
      </trkpt>
      <trkpt lat="37.43968167" lon="-4.41231667">
        <ele>583.0</ele>
        <time>2018-06-09T08:46:22.171Z</time>
      </trkpt>
      <trkpt lat="37.43968167" lon="-4.41231667">
        <ele>583.0</ele>
        <time>2018-06-09T08:46:23.189Z</time>
      </trkpt>
      <trkpt lat="37.439705" lon="-4.412275">
        <ele>583.0</ele>
        <time>2018-06-09T08:46:24.171Z</time>
      </trkpt>
      <trkpt lat="37.439705" lon="-4.412275">
        <ele>583.0</ele>
        <time>2018-06-09T08:46:25.177Z</time>
      </trkpt>
      <trkpt lat="37.439725" lon="-4.41223167">
        <ele>584.0</ele>
        <time>2018-06-09T08:46:26.183Z</time>
      </trkpt>
      <trkpt lat="37.43973667" lon="-4.41221333">
        <ele>584.0</ele>
        <time>2018-06-09T08:46:27.161Z</time>
      </trkpt>
      <trkpt lat="37.43973667" lon="-4.41221333">
        <ele>584.0</ele>
        <time>2018-06-09T08:46:28.176Z</time>
      </trkpt>
      <trkpt lat="37.43976" lon="-4.412175">
        <ele>584.0</ele>
        <time>2018-06-09T08:46:29.165Z</time>
      </trkpt>
      <trkpt lat="37.43977" lon="-4.412155">
        <ele>584.0</ele>
        <time>2018-06-09T08:46:30.166Z</time>
      </trkpt>
      <trkpt lat="37.43978167" lon="-4.41213333">
        <ele>584.0</ele>
        <time>2018-06-09T08:46:31.167Z</time>
      </trkpt>
      <trkpt lat="37.43978167" lon="-4.41213333">
        <ele>584.0</ele>
        <time>2018-06-09T08:46:32.188Z</time>
      </trkpt>
      <trkpt lat="37.43980333" lon="-4.41209167">
        <ele>585.0</ele>
        <time>2018-06-09T08:46:33.165Z</time>
      </trkpt>
      <trkpt lat="37.43981667" lon="-4.41207">
        <ele>585.0</ele>
        <time>2018-06-09T08:46:34.180Z</time>
      </trkpt>
      <trkpt lat="37.43982833" lon="-4.41204833">
        <ele>585.0</ele>
        <time>2018-06-09T08:46:35.157Z</time>
      </trkpt>
      <trkpt lat="37.43982833" lon="-4.41204833">
        <ele>585.0</ele>
        <time>2018-06-09T08:46:36.175Z</time>
      </trkpt>
      <trkpt lat="37.439855" lon="-4.41200667">
        <ele>585.0</ele>
        <time>2018-06-09T08:46:37.181Z</time>
      </trkpt>
      <trkpt lat="37.439865" lon="-4.411985">
        <ele>586.0</ele>
        <time>2018-06-09T08:46:38.174Z</time>
      </trkpt>
      <trkpt lat="37.439865" lon="-4.411985">
        <ele>586.0</ele>
        <time>2018-06-09T08:46:39.187Z</time>
      </trkpt>
      <trkpt lat="37.43989" lon="-4.411945">
        <ele>586.0</ele>
        <time>2018-06-09T08:46:40.192Z</time>
      </trkpt>
      <trkpt lat="37.43990167" lon="-4.411925">
        <ele>586.0</ele>
        <time>2018-06-09T08:46:41.174Z</time>
      </trkpt>
      <trkpt lat="37.43990167" lon="-4.411925">
        <ele>586.0</ele>
        <time>2018-06-09T08:46:42.183Z</time>
      </trkpt>
      <trkpt lat="37.439925" lon="-4.41188333">
        <ele>586.0</ele>
        <time>2018-06-09T08:46:43.189Z</time>
      </trkpt>
      <trkpt lat="37.43993667" lon="-4.41186167">
        <ele>587.0</ele>
        <time>2018-06-09T08:46:44.176Z</time>
      </trkpt>
      <trkpt lat="37.43993667" lon="-4.41186167">
        <ele>587.0</ele>
        <time>2018-06-09T08:46:45.164Z</time>
      </trkpt>
      <trkpt lat="37.43996167" lon="-4.41182167">
        <ele>587.0</ele>
        <time>2018-06-09T08:46:46.171Z</time>
      </trkpt>
      <trkpt lat="37.43996167" lon="-4.41182167">
        <ele>587.0</ele>
        <time>2018-06-09T08:46:47.165Z</time>
      </trkpt>
      <trkpt lat="37.439985" lon="-4.41177833">
        <ele>587.0</ele>
        <time>2018-06-09T08:46:48.179Z</time>
      </trkpt>
      <trkpt lat="37.439985" lon="-4.41177833">
        <ele>587.0</ele>
        <time>2018-06-09T08:46:49.182Z</time>
      </trkpt>
      <trkpt lat="37.44000667" lon="-4.41173667">
        <ele>587.0</ele>
        <time>2018-06-09T08:46:50.157Z</time>
      </trkpt>
      <trkpt lat="37.44000667" lon="-4.41173667">
        <ele>587.0</ele>
        <time>2018-06-09T08:46:51.177Z</time>
      </trkpt>
      <trkpt lat="37.44003" lon="-4.41169667">
        <ele>587.0</ele>
        <time>2018-06-09T08:46:52.184Z</time>
      </trkpt>
      <trkpt lat="37.44004" lon="-4.411675">
        <ele>587.0</ele>
        <time>2018-06-09T08:46:53.165Z</time>
      </trkpt>
      <trkpt lat="37.44004" lon="-4.411675">
        <ele>587.0</ele>
        <time>2018-06-09T08:46:54.158Z</time>
      </trkpt>
      <trkpt lat="37.44006167" lon="-4.41163333">
        <ele>587.0</ele>
        <time>2018-06-09T08:46:55.166Z</time>
      </trkpt>
      <trkpt lat="37.44006167" lon="-4.41163333">
        <ele>587.0</ele>
        <time>2018-06-09T08:46:56.172Z</time>
      </trkpt>
      <trkpt lat="37.44008" lon="-4.41159">
        <ele>588.0</ele>
        <time>2018-06-09T08:46:57.159Z</time>
      </trkpt>
      <trkpt lat="37.44008" lon="-4.41159">
        <ele>588.0</ele>
        <time>2018-06-09T08:46:58.187Z</time>
      </trkpt>
      <trkpt lat="37.44009333" lon="-4.41154667">
        <ele>588.0</ele>
        <time>2018-06-09T08:46:59.193Z</time>
      </trkpt>
      <trkpt lat="37.44010167" lon="-4.411525">
        <ele>588.0</ele>
        <time>2018-06-09T08:47:00.159Z</time>
      </trkpt>
      <trkpt lat="37.44010167" lon="-4.411525">
        <ele>588.0</ele>
        <time>2018-06-09T08:47:01.196Z</time>
      </trkpt>
      <trkpt lat="37.44011833" lon="-4.41148">
        <ele>588.0</ele>
        <time>2018-06-09T08:47:02.167Z</time>
      </trkpt>
      <trkpt lat="37.44011833" lon="-4.41148">
        <ele>588.0</ele>
        <time>2018-06-09T08:47:03.186Z</time>
      </trkpt>
      <trkpt lat="37.440135" lon="-4.41143667">
        <ele>588.0</ele>
        <time>2018-06-09T08:47:04.157Z</time>
      </trkpt>
      <trkpt lat="37.440135" lon="-4.41143667">
        <ele>588.0</ele>
        <time>2018-06-09T08:47:05.172Z</time>
      </trkpt>
      <trkpt lat="37.44015" lon="-4.41139">
        <ele>589.0</ele>
        <time>2018-06-09T08:47:06.178Z</time>
      </trkpt>
      <trkpt lat="37.440155" lon="-4.411365">
        <ele>589.0</ele>
        <time>2018-06-09T08:47:07.157Z</time>
      </trkpt>
      <trkpt lat="37.44016" lon="-4.41134167">
        <ele>589.0</ele>
        <time>2018-06-09T08:47:08.165Z</time>
      </trkpt>
      <trkpt lat="37.44016" lon="-4.41134167">
        <ele>589.0</ele>
        <time>2018-06-09T08:47:09.183Z</time>
      </trkpt>
      <trkpt lat="37.44017" lon="-4.41129333">
        <ele>589.0</ele>
        <time>2018-06-09T08:47:10.193Z</time>
      </trkpt>
      <trkpt lat="37.44017" lon="-4.41129333">
        <ele>589.0</ele>
        <time>2018-06-09T08:47:11.164Z</time>
      </trkpt>
      <trkpt lat="37.44018167" lon="-4.41124667">
        <ele>590.0</ele>
        <time>2018-06-09T08:47:12.170Z</time>
      </trkpt>
      <trkpt lat="37.44018167" lon="-4.41124667">
        <ele>590.0</ele>
        <time>2018-06-09T08:47:13.191Z</time>
      </trkpt>
      <trkpt lat="37.44019" lon="-4.41120167">
        <ele>590.0</ele>
        <time>2018-06-09T08:47:14.158Z</time>
      </trkpt>
      <trkpt lat="37.44019" lon="-4.41120167">
        <ele>590.0</ele>
        <time>2018-06-09T08:47:15.173Z</time>
      </trkpt>
      <trkpt lat="37.4402" lon="-4.411155">
        <ele>590.0</ele>
        <time>2018-06-09T08:47:16.179Z</time>
      </trkpt>
      <trkpt lat="37.4402" lon="-4.411155">
        <ele>590.0</ele>
        <time>2018-06-09T08:47:17.196Z</time>
      </trkpt>
      <trkpt lat="37.44020833" lon="-4.41110667">
        <ele>590.0</ele>
        <time>2018-06-09T08:47:18.186Z</time>
      </trkpt>
      <trkpt lat="37.44020833" lon="-4.41110667">
        <ele>590.0</ele>
        <time>2018-06-09T08:47:19.191Z</time>
      </trkpt>
      <trkpt lat="37.44021167" lon="-4.41105833">
        <ele>591.0</ele>
        <time>2018-06-09T08:47:20.157Z</time>
      </trkpt>
      <trkpt lat="37.44021167" lon="-4.41105833">
        <ele>591.0</ele>
        <time>2018-06-09T08:47:21.173Z</time>
      </trkpt>
      <trkpt lat="37.44021833" lon="-4.41101167">
        <ele>591.0</ele>
        <time>2018-06-09T08:47:22.167Z</time>
      </trkpt>
      <trkpt lat="37.44021833" lon="-4.41101167">
        <ele>591.0</ele>
        <time>2018-06-09T08:47:23.166Z</time>
      </trkpt>
      <trkpt lat="37.44022667" lon="-4.410965">
        <ele>591.0</ele>
        <time>2018-06-09T08:47:24.172Z</time>
      </trkpt>
      <trkpt lat="37.44022667" lon="-4.410965">
        <ele>591.0</ele>
        <time>2018-06-09T08:47:25.190Z</time>
      </trkpt>
      <trkpt lat="37.44023167" lon="-4.41092">
        <ele>592.0</ele>
        <time>2018-06-09T08:47:26.193Z</time>
      </trkpt>
      <trkpt lat="37.44023167" lon="-4.41092">
        <ele>592.0</ele>
        <time>2018-06-09T08:47:27.186Z</time>
      </trkpt>
      <trkpt lat="37.44023833" lon="-4.41087333">
        <ele>593.0</ele>
        <time>2018-06-09T08:47:28.192Z</time>
      </trkpt>
      <trkpt lat="37.44024167" lon="-4.41085">
        <ele>593.0</ele>
        <time>2018-06-09T08:47:29.160Z</time>
      </trkpt>
      <trkpt lat="37.44024167" lon="-4.41085">
        <ele>593.0</ele>
        <time>2018-06-09T08:47:30.165Z</time>
      </trkpt>
      <trkpt lat="37.44024667" lon="-4.4108">
        <ele>593.0</ele>
        <time>2018-06-09T08:47:31.173Z</time>
      </trkpt>
      <trkpt lat="37.44024833" lon="-4.410775">
        <ele>593.0</ele>
        <time>2018-06-09T08:47:32.197Z</time>
      </trkpt>
      <trkpt lat="37.44024833" lon="-4.410775">
        <ele>593.0</ele>
        <time>2018-06-09T08:47:33.187Z</time>
      </trkpt>
      <trkpt lat="37.440255" lon="-4.41072833">
        <ele>594.0</ele>
        <time>2018-06-09T08:47:34.194Z</time>
      </trkpt>
      <trkpt lat="37.44025667" lon="-4.410705">
        <ele>594.0</ele>
        <time>2018-06-09T08:47:35.190Z</time>
      </trkpt>
      <trkpt lat="37.44025667" lon="-4.410705">
        <ele>594.0</ele>
        <time>2018-06-09T08:47:36.162Z</time>
      </trkpt>
      <trkpt lat="37.44026" lon="-4.41065833">
        <ele>594.0</ele>
        <time>2018-06-09T08:47:37.168Z</time>
      </trkpt>
      <trkpt lat="37.44026" lon="-4.41065833">
        <ele>594.0</ele>
        <time>2018-06-09T08:47:38.190Z</time>
      </trkpt>
      <trkpt lat="37.44026667" lon="-4.41061333">
        <ele>595.0</ele>
        <time>2018-06-09T08:47:39.159Z</time>
      </trkpt>
      <trkpt lat="37.44026667" lon="-4.41061333">
        <ele>595.0</ele>
        <time>2018-06-09T08:47:40.189Z</time>
      </trkpt>
      <trkpt lat="37.44027333" lon="-4.41056167">
        <ele>595.0</ele>
        <time>2018-06-09T08:47:41.195Z</time>
      </trkpt>
      <trkpt lat="37.44027833" lon="-4.41053667">
        <ele>595.0</ele>
        <time>2018-06-09T08:47:42.173Z</time>
      </trkpt>
      <trkpt lat="37.44027833" lon="-4.41053667">
        <ele>595.0</ele>
        <time>2018-06-09T08:47:43.188Z</time>
      </trkpt>
      <trkpt lat="37.44028833" lon="-4.41048667">
        <ele>596.0</ele>
        <time>2018-06-09T08:47:44.194Z</time>
      </trkpt>
      <trkpt lat="37.44028833" lon="-4.41048667">
        <ele>596.0</ele>
        <time>2018-06-09T08:47:45.172Z</time>
      </trkpt>
      <trkpt lat="37.440295" lon="-4.410435">
        <ele>596.0</ele>
        <time>2018-06-09T08:47:46.195Z</time>
      </trkpt>
      <trkpt lat="37.440295" lon="-4.410435">
        <ele>596.0</ele>
        <time>2018-06-09T08:47:47.185Z</time>
      </trkpt>
      <trkpt lat="37.440305" lon="-4.41038167">
        <ele>596.0</ele>
        <time>2018-06-09T08:47:48.193Z</time>
      </trkpt>
      <trkpt lat="37.44031" lon="-4.41035667">
        <ele>596.0</ele>
        <time>2018-06-09T08:47:49.173Z</time>
      </trkpt>
      <trkpt lat="37.44031" lon="-4.41035667">
        <ele>596.0</ele>
        <time>2018-06-09T08:47:50.166Z</time>
      </trkpt>
      <trkpt lat="37.44032" lon="-4.41030333">
        <ele>597.0</ele>
        <time>2018-06-09T08:47:51.176Z</time>
      </trkpt>
      <trkpt lat="37.44032" lon="-4.41030333">
        <ele>597.0</ele>
        <time>2018-06-09T08:47:52.181Z</time>
      </trkpt>
      <trkpt lat="37.44033333" lon="-4.41025">
        <ele>597.0</ele>
        <time>2018-06-09T08:47:53.190Z</time>
      </trkpt>
      <trkpt lat="37.44034167" lon="-4.41022333">
        <ele>597.0</ele>
        <time>2018-06-09T08:47:54.190Z</time>
      </trkpt>
      <trkpt lat="37.44034167" lon="-4.41022333">
        <ele>597.0</ele>
        <time>2018-06-09T08:47:55.186Z</time>
      </trkpt>
      <trkpt lat="37.440355" lon="-4.41016833">
        <ele>597.0</ele>
        <time>2018-06-09T08:47:56.193Z</time>
      </trkpt>
      <trkpt lat="37.44036167" lon="-4.41014167">
        <ele>597.0</ele>
        <time>2018-06-09T08:47:57.173Z</time>
      </trkpt>
      <trkpt lat="37.44036167" lon="-4.41014167">
        <ele>597.0</ele>
        <time>2018-06-09T08:47:58.173Z</time>
      </trkpt>
      <trkpt lat="37.44037667" lon="-4.410085">
        <ele>598.0</ele>
        <time>2018-06-09T08:47:59.180Z</time>
      </trkpt>
      <trkpt lat="37.44038333" lon="-4.41005667">
        <ele>598.0</ele>
        <time>2018-06-09T08:48:00.192Z</time>
      </trkpt>
      <trkpt lat="37.44038333" lon="-4.41005667">
        <ele>598.0</ele>
        <time>2018-06-09T08:48:01.175Z</time>
      </trkpt>
      <trkpt lat="37.44039833" lon="-4.41000167">
        <ele>599.0</ele>
        <time>2018-06-09T08:48:02.182Z</time>
      </trkpt>
      <trkpt lat="37.44040667" lon="-4.40997333">
        <ele>599.0</ele>
        <time>2018-06-09T08:48:03.158Z</time>
      </trkpt>
      <trkpt lat="37.44040667" lon="-4.40997333">
        <ele>599.0</ele>
        <time>2018-06-09T08:48:04.179Z</time>
      </trkpt>
      <trkpt lat="37.44042333" lon="-4.40991667">
        <ele>599.0</ele>
        <time>2018-06-09T08:48:05.185Z</time>
      </trkpt>
      <trkpt lat="37.44042333" lon="-4.40991667">
        <ele>599.0</ele>
        <time>2018-06-09T08:48:06.163Z</time>
      </trkpt>
      <trkpt lat="37.44043833" lon="-4.40986333">
        <ele>599.0</ele>
        <time>2018-06-09T08:48:07.159Z</time>
      </trkpt>
      <trkpt lat="37.44043833" lon="-4.40986333">
        <ele>599.0</ele>
        <time>2018-06-09T08:48:08.185Z</time>
      </trkpt>
      <trkpt lat="37.44045667" lon="-4.40981333">
        <ele>600.0</ele>
        <time>2018-06-09T08:48:09.191Z</time>
      </trkpt>
      <trkpt lat="37.440465" lon="-4.40978667">
        <ele>600.0</ele>
        <time>2018-06-09T08:48:10.196Z</time>
      </trkpt>
      <trkpt lat="37.44047167" lon="-4.40976167">
        <ele>600.0</ele>
        <time>2018-06-09T08:48:11.183Z</time>
      </trkpt>
      <trkpt lat="37.44047167" lon="-4.40976167">
        <ele>600.0</ele>
        <time>2018-06-09T08:48:12.165Z</time>
      </trkpt>
      <trkpt lat="37.44048667" lon="-4.40971333">
        <ele>600.0</ele>
        <time>2018-06-09T08:48:13.187Z</time>
      </trkpt>
      <trkpt lat="37.44049333" lon="-4.40968833">
        <ele>601.0</ele>
        <time>2018-06-09T08:48:14.187Z</time>
      </trkpt>
      <trkpt lat="37.44049333" lon="-4.40968833">
        <ele>601.0</ele>
        <time>2018-06-09T08:48:15.166Z</time>
      </trkpt>
      <trkpt lat="37.440505" lon="-4.40963833">
        <ele>601.0</ele>
        <time>2018-06-09T08:48:16.176Z</time>
      </trkpt>
      <trkpt lat="37.44051167" lon="-4.409615">
        <ele>601.0</ele>
        <time>2018-06-09T08:48:17.193Z</time>
      </trkpt>
      <trkpt lat="37.44051167" lon="-4.409615">
        <ele>601.0</ele>
        <time>2018-06-09T08:48:18.169Z</time>
      </trkpt>
      <trkpt lat="37.44052333" lon="-4.40956667">
        <ele>602.0</ele>
        <time>2018-06-09T08:48:19.159Z</time>
      </trkpt>
      <trkpt lat="37.44052333" lon="-4.40956667">
        <ele>602.0</ele>
        <time>2018-06-09T08:48:20.185Z</time>
      </trkpt>
      <trkpt lat="37.44054" lon="-4.40951833">
        <ele>602.0</ele>
        <time>2018-06-09T08:48:21.192Z</time>
      </trkpt>
      <trkpt lat="37.44054" lon="-4.40951833">
        <ele>602.0</ele>
        <time>2018-06-09T08:48:22.168Z</time>
      </trkpt>
      <trkpt lat="37.440555" lon="-4.40947">
        <ele>603.0</ele>
        <time>2018-06-09T08:48:23.193Z</time>
      </trkpt>
      <trkpt lat="37.440555" lon="-4.40947">
        <ele>603.0</ele>
        <time>2018-06-09T08:48:24.165Z</time>
      </trkpt>
      <trkpt lat="37.44056833" lon="-4.40942333">
        <ele>604.0</ele>
        <time>2018-06-09T08:48:25.189Z</time>
      </trkpt>
      <trkpt lat="37.44056833" lon="-4.40942333">
        <ele>604.0</ele>
        <time>2018-06-09T08:48:26.167Z</time>
      </trkpt>
      <trkpt lat="37.44058333" lon="-4.409375">
        <ele>604.0</ele>
        <time>2018-06-09T08:48:27.223Z</time>
      </trkpt>
      <trkpt lat="37.44058333" lon="-4.409375">
        <ele>604.0</ele>
        <time>2018-06-09T08:48:28.186Z</time>
      </trkpt>
      <trkpt lat="37.44060167" lon="-4.40932667">
        <ele>604.0</ele>
        <time>2018-06-09T08:48:29.193Z</time>
      </trkpt>
      <trkpt lat="37.44060167" lon="-4.40932667">
        <ele>604.0</ele>
        <time>2018-06-09T08:48:30.172Z</time>
      </trkpt>
      <trkpt lat="37.44062" lon="-4.40927667">
        <ele>605.0</ele>
        <time>2018-06-09T08:48:31.197Z</time>
      </trkpt>
      <trkpt lat="37.44062667" lon="-4.40925">
        <ele>605.0</ele>
        <time>2018-06-09T08:48:32.177Z</time>
      </trkpt>
      <trkpt lat="37.44062667" lon="-4.40925">
        <ele>605.0</ele>
        <time>2018-06-09T08:48:33.195Z</time>
      </trkpt>
      <trkpt lat="37.44064167" lon="-4.40919833">
        <ele>605.0</ele>
        <time>2018-06-09T08:48:34.168Z</time>
      </trkpt>
      <trkpt lat="37.44064167" lon="-4.40919833">
        <ele>605.0</ele>
        <time>2018-06-09T08:48:35.195Z</time>
      </trkpt>
      <trkpt lat="37.44065833" lon="-4.40914667">
        <ele>606.0</ele>
        <time>2018-06-09T08:48:36.162Z</time>
      </trkpt>
      <trkpt lat="37.44066667" lon="-4.40912167">
        <ele>606.0</ele>
        <time>2018-06-09T08:48:37.180Z</time>
      </trkpt>
      <trkpt lat="37.440675" lon="-4.40909833">
        <ele>606.0</ele>
        <time>2018-06-09T08:48:38.181Z</time>
      </trkpt>
      <trkpt lat="37.440675" lon="-4.40909833">
        <ele>606.0</ele>
        <time>2018-06-09T08:48:39.161Z</time>
      </trkpt>
      <trkpt lat="37.44069" lon="-4.40904833">
        <ele>606.0</ele>
        <time>2018-06-09T08:48:40.170Z</time>
      </trkpt>
      <trkpt lat="37.44069" lon="-4.40904833">
        <ele>606.0</ele>
        <time>2018-06-09T08:48:41.166Z</time>
      </trkpt>
      <trkpt lat="37.440705" lon="-4.40899833">
        <ele>607.0</ele>
        <time>2018-06-09T08:48:42.173Z</time>
      </trkpt>
      <trkpt lat="37.440705" lon="-4.40899833">
        <ele>607.0</ele>
        <time>2018-06-09T08:48:43.193Z</time>
      </trkpt>
      <trkpt lat="37.44071833" lon="-4.40895167">
        <ele>607.0</ele>
        <time>2018-06-09T08:48:44.190Z</time>
      </trkpt>
      <trkpt lat="37.44071833" lon="-4.40895167">
        <ele>607.0</ele>
        <time>2018-06-09T08:48:45.164Z</time>
      </trkpt>
      <trkpt lat="37.44073333" lon="-4.408905">
        <ele>607.0</ele>
        <time>2018-06-09T08:48:46.171Z</time>
      </trkpt>
      <trkpt lat="37.44074" lon="-4.40888333">
        <ele>607.0</ele>
        <time>2018-06-09T08:48:47.167Z</time>
      </trkpt>
      <trkpt lat="37.44074" lon="-4.40888333">
        <ele>607.0</ele>
        <time>2018-06-09T08:48:48.179Z</time>
      </trkpt>
      <trkpt lat="37.44075333" lon="-4.40883833">
        <ele>607.0</ele>
        <time>2018-06-09T08:48:49.193Z</time>
      </trkpt>
      <trkpt lat="37.44076" lon="-4.408815">
        <ele>608.0</ele>
        <time>2018-06-09T08:48:50.184Z</time>
      </trkpt>
      <trkpt lat="37.44076" lon="-4.408815">
        <ele>608.0</ele>
        <time>2018-06-09T08:48:51.163Z</time>
      </trkpt>
      <trkpt lat="37.44077167" lon="-4.40877">
        <ele>608.0</ele>
        <time>2018-06-09T08:48:52.169Z</time>
      </trkpt>
      <trkpt lat="37.44077167" lon="-4.40877">
        <ele>608.0</ele>
        <time>2018-06-09T08:48:53.172Z</time>
      </trkpt>
      <trkpt lat="37.44078833" lon="-4.408725">
        <ele>608.0</ele>
        <time>2018-06-09T08:48:54.178Z</time>
      </trkpt>
      <trkpt lat="37.44079833" lon="-4.40870167">
        <ele>608.0</ele>
        <time>2018-06-09T08:48:55.189Z</time>
      </trkpt>
      <trkpt lat="37.44079833" lon="-4.40870167">
        <ele>608.0</ele>
        <time>2018-06-09T08:48:56.196Z</time>
      </trkpt>
      <trkpt lat="37.44081667" lon="-4.408655">
        <ele>608.0</ele>
        <time>2018-06-09T08:48:57.169Z</time>
      </trkpt>
      <trkpt lat="37.44081667" lon="-4.408655">
        <ele>608.0</ele>
        <time>2018-06-09T08:48:58.182Z</time>
      </trkpt>
      <trkpt lat="37.44083333" lon="-4.408605">
        <ele>608.0</ele>
        <time>2018-06-09T08:48:59.159Z</time>
      </trkpt>
      <trkpt lat="37.44083333" lon="-4.408605">
        <ele>608.0</ele>
        <time>2018-06-09T08:49:00.176Z</time>
      </trkpt>
      <trkpt lat="37.44085" lon="-4.40855833">
        <ele>608.0</ele>
        <time>2018-06-09T08:49:01.182Z</time>
      </trkpt>
      <trkpt lat="37.44086" lon="-4.408535">
        <ele>609.0</ele>
        <time>2018-06-09T08:49:02.159Z</time>
      </trkpt>
      <trkpt lat="37.44086" lon="-4.408535">
        <ele>609.0</ele>
        <time>2018-06-09T08:49:03.166Z</time>
      </trkpt>
      <trkpt lat="37.44087667" lon="-4.40848667">
        <ele>609.0</ele>
        <time>2018-06-09T08:49:04.173Z</time>
      </trkpt>
      <trkpt lat="37.44087667" lon="-4.40848667">
        <ele>609.0</ele>
        <time>2018-06-09T08:49:05.192Z</time>
      </trkpt>
      <trkpt lat="37.440895" lon="-4.40843833">
        <ele>609.0</ele>
        <time>2018-06-09T08:49:06.190Z</time>
      </trkpt>
      <trkpt lat="37.440895" lon="-4.40843833">
        <ele>609.0</ele>
        <time>2018-06-09T08:49:07.162Z</time>
      </trkpt>
      <trkpt lat="37.440915" lon="-4.40839167">
        <ele>609.0</ele>
        <time>2018-06-09T08:49:08.169Z</time>
      </trkpt>
      <trkpt lat="37.440915" lon="-4.40839167">
        <ele>609.0</ele>
        <time>2018-06-09T08:49:09.186Z</time>
      </trkpt>
      <trkpt lat="37.44094" lon="-4.40834167">
        <ele>610.0</ele>
        <time>2018-06-09T08:49:10.190Z</time>
      </trkpt>
      <trkpt lat="37.44094" lon="-4.40834167">
        <ele>610.0</ele>
        <time>2018-06-09T08:49:11.163Z</time>
      </trkpt>
      <trkpt lat="37.440965" lon="-4.40829167">
        <ele>610.0</ele>
        <time>2018-06-09T08:49:12.170Z</time>
      </trkpt>
      <trkpt lat="37.44097833" lon="-4.40826667">
        <ele>610.0</ele>
        <time>2018-06-09T08:49:13.189Z</time>
      </trkpt>
      <trkpt lat="37.44098833" lon="-4.40824167">
        <ele>610.0</ele>
        <time>2018-06-09T08:49:14.189Z</time>
      </trkpt>
      <trkpt lat="37.44098833" lon="-4.40824167">
        <ele>610.0</ele>
        <time>2018-06-09T08:49:15.162Z</time>
      </trkpt>
      <trkpt lat="37.44101333" lon="-4.40819">
        <ele>610.0</ele>
        <time>2018-06-09T08:49:16.157Z</time>
      </trkpt>
      <trkpt lat="37.44101333" lon="-4.40819">
        <ele>610.0</ele>
        <time>2018-06-09T08:49:17.183Z</time>
      </trkpt>
      <trkpt lat="37.44104167" lon="-4.40814333">
        <ele>610.0</ele>
        <time>2018-06-09T08:49:18.189Z</time>
      </trkpt>
      <trkpt lat="37.44105667" lon="-4.40812">
        <ele>610.0</ele>
        <time>2018-06-09T08:49:19.166Z</time>
      </trkpt>
      <trkpt lat="37.44107167" lon="-4.40809833">
        <ele>610.0</ele>
        <time>2018-06-09T08:49:20.159Z</time>
      </trkpt>
      <trkpt lat="37.44107167" lon="-4.40809833">
        <ele>610.0</ele>
        <time>2018-06-09T08:49:21.187Z</time>
      </trkpt>
      <trkpt lat="37.44110167" lon="-4.40805167">
        <ele>610.0</ele>
        <time>2018-06-09T08:49:22.196Z</time>
      </trkpt>
      <trkpt lat="37.44110167" lon="-4.40805167">
        <ele>610.0</ele>
        <time>2018-06-09T08:49:23.175Z</time>
      </trkpt>
      <trkpt lat="37.44113167" lon="-4.40800333">
        <ele>610.0</ele>
        <time>2018-06-09T08:49:24.181Z</time>
      </trkpt>
      <trkpt lat="37.44114833" lon="-4.40798">
        <ele>610.0</ele>
        <time>2018-06-09T08:49:25.188Z</time>
      </trkpt>
      <trkpt lat="37.44114833" lon="-4.40798">
        <ele>610.0</ele>
        <time>2018-06-09T08:49:26.188Z</time>
      </trkpt>
      <trkpt lat="37.44118167" lon="-4.407935">
        <ele>610.0</ele>
        <time>2018-06-09T08:49:27.193Z</time>
      </trkpt>
      <trkpt lat="37.44118167" lon="-4.407935">
        <ele>610.0</ele>
        <time>2018-06-09T08:49:28.167Z</time>
      </trkpt>
      <trkpt lat="37.44121833" lon="-4.40788833">
        <ele>610.0</ele>
        <time>2018-06-09T08:49:29.160Z</time>
      </trkpt>
      <trkpt lat="37.44121833" lon="-4.40788833">
        <ele>610.0</ele>
        <time>2018-06-09T08:49:30.193Z</time>
      </trkpt>
      <trkpt lat="37.441255" lon="-4.40784333">
        <ele>611.0</ele>
        <time>2018-06-09T08:49:31.170Z</time>
      </trkpt>
      <trkpt lat="37.441255" lon="-4.40784333">
        <ele>611.0</ele>
        <time>2018-06-09T08:49:32.190Z</time>
      </trkpt>
      <trkpt lat="37.44129" lon="-4.40779833">
        <ele>611.0</ele>
        <time>2018-06-09T08:49:33.163Z</time>
      </trkpt>
      <trkpt lat="37.44129" lon="-4.40779833">
        <ele>611.0</ele>
        <time>2018-06-09T08:49:34.174Z</time>
      </trkpt>
      <trkpt lat="37.441325" lon="-4.40775167">
        <ele>611.0</ele>
        <time>2018-06-09T08:49:35.180Z</time>
      </trkpt>
      <trkpt lat="37.441325" lon="-4.40775167">
        <ele>611.0</ele>
        <time>2018-06-09T08:49:36.164Z</time>
      </trkpt>
      <trkpt lat="37.44136167" lon="-4.407705">
        <ele>611.0</ele>
        <time>2018-06-09T08:49:37.159Z</time>
      </trkpt>
      <trkpt lat="37.44138167" lon="-4.407685">
        <ele>611.0</ele>
        <time>2018-06-09T08:49:38.196Z</time>
      </trkpt>
      <trkpt lat="37.44138167" lon="-4.407685">
        <ele>611.0</ele>
        <time>2018-06-09T08:49:39.174Z</time>
      </trkpt>
      <trkpt lat="37.44141833" lon="-4.40764333">
        <ele>611.0</ele>
        <time>2018-06-09T08:49:40.168Z</time>
      </trkpt>
      <trkpt lat="37.44141833" lon="-4.40764333">
        <ele>611.0</ele>
        <time>2018-06-09T08:49:41.168Z</time>
      </trkpt>
      <trkpt lat="37.44144833" lon="-4.40760333">
        <ele>612.0</ele>
        <time>2018-06-09T08:49:42.174Z</time>
      </trkpt>
      <trkpt lat="37.44144833" lon="-4.40760333">
        <ele>612.0</ele>
        <time>2018-06-09T08:49:43.186Z</time>
      </trkpt>
      <trkpt lat="37.441475" lon="-4.407565">
        <ele>612.0</ele>
        <time>2018-06-09T08:49:44.159Z</time>
      </trkpt>
      <trkpt lat="37.441475" lon="-4.407565">
        <ele>612.0</ele>
        <time>2018-06-09T08:49:45.165Z</time>
      </trkpt>
      <trkpt lat="37.44150667" lon="-4.40753">
        <ele>612.0</ele>
        <time>2018-06-09T08:49:46.173Z</time>
      </trkpt>
      <trkpt lat="37.44150667" lon="-4.40753">
        <ele>612.0</ele>
        <time>2018-06-09T08:49:47.166Z</time>
      </trkpt>
      <trkpt lat="37.441535" lon="-4.40749333">
        <ele>612.0</ele>
        <time>2018-06-09T08:49:48.165Z</time>
      </trkpt>
      <trkpt lat="37.44154833" lon="-4.407475">
        <ele>612.0</ele>
        <time>2018-06-09T08:49:49.183Z</time>
      </trkpt>
      <trkpt lat="37.44156" lon="-4.40745667">
        <ele>612.0</ele>
        <time>2018-06-09T08:49:50.159Z</time>
      </trkpt>
      <trkpt lat="37.44156" lon="-4.40745667">
        <ele>612.0</ele>
        <time>2018-06-09T08:49:51.185Z</time>
      </trkpt>
      <trkpt lat="37.441585" lon="-4.40741833">
        <ele>613.0</ele>
        <time>2018-06-09T08:49:52.191Z</time>
      </trkpt>
      <trkpt lat="37.441585" lon="-4.40741833">
        <ele>613.0</ele>
        <time>2018-06-09T08:49:53.170Z</time>
      </trkpt>
      <trkpt lat="37.44161" lon="-4.40738167">
        <ele>613.0</ele>
        <time>2018-06-09T08:49:54.157Z</time>
      </trkpt>
      <trkpt lat="37.441625" lon="-4.40736167">
        <ele>613.0</ele>
        <time>2018-06-09T08:49:55.194Z</time>
      </trkpt>
      <trkpt lat="37.44163833" lon="-4.40734333">
        <ele>613.0</ele>
        <time>2018-06-09T08:49:56.171Z</time>
      </trkpt>
      <trkpt lat="37.44163833" lon="-4.40734333">
        <ele>613.0</ele>
        <time>2018-06-09T08:49:57.188Z</time>
      </trkpt>
      <trkpt lat="37.44166667" lon="-4.40730667">
        <ele>613.0</ele>
        <time>2018-06-09T08:49:58.194Z</time>
      </trkpt>
      <trkpt lat="37.44166667" lon="-4.40730667">
        <ele>613.0</ele>
        <time>2018-06-09T08:49:59.171Z</time>
      </trkpt>
      <trkpt lat="37.44169167" lon="-4.40726833">
        <ele>613.0</ele>
        <time>2018-06-09T08:50:00.159Z</time>
      </trkpt>
      <trkpt lat="37.44169167" lon="-4.40726833">
        <ele>613.0</ele>
        <time>2018-06-09T08:50:01.162Z</time>
      </trkpt>
      <trkpt lat="37.441715" lon="-4.40723">
        <ele>613.0</ele>
        <time>2018-06-09T08:50:02.169Z</time>
      </trkpt>
      <trkpt lat="37.441715" lon="-4.40723">
        <ele>613.0</ele>
        <time>2018-06-09T08:50:03.187Z</time>
      </trkpt>
      <trkpt lat="37.441735" lon="-4.40719">
        <ele>614.0</ele>
        <time>2018-06-09T08:50:04.157Z</time>
      </trkpt>
      <trkpt lat="37.441735" lon="-4.40719">
        <ele>614.0</ele>
        <time>2018-06-09T08:50:05.165Z</time>
      </trkpt>
      <trkpt lat="37.44175667" lon="-4.40715333">
        <ele>614.0</ele>
        <time>2018-06-09T08:50:06.173Z</time>
      </trkpt>
      <trkpt lat="37.44176667" lon="-4.40713667">
        <ele>614.0</ele>
        <time>2018-06-09T08:50:07.192Z</time>
      </trkpt>
      <trkpt lat="37.44177833" lon="-4.40712167">
        <ele>615.0</ele>
        <time>2018-06-09T08:50:08.159Z</time>
      </trkpt>
      <trkpt lat="37.44177833" lon="-4.40712167">
        <ele>615.0</ele>
        <time>2018-06-09T08:50:09.176Z</time>
      </trkpt>
      <trkpt lat="37.44179667" lon="-4.40709167">
        <ele>615.0</ele>
        <time>2018-06-09T08:50:10.180Z</time>
      </trkpt>
      <trkpt lat="37.44179667" lon="-4.40709167">
        <ele>615.0</ele>
        <time>2018-06-09T08:50:11.193Z</time>
      </trkpt>
      <trkpt lat="37.44181667" lon="-4.40705667">
        <ele>616.0</ele>
        <time>2018-06-09T08:50:12.165Z</time>
      </trkpt>
      <trkpt lat="37.441825" lon="-4.40704">
        <ele>616.0</ele>
        <time>2018-06-09T08:50:13.193Z</time>
      </trkpt>
      <trkpt lat="37.441835" lon="-4.40702167">
        <ele>616.0</ele>
        <time>2018-06-09T08:50:14.196Z</time>
      </trkpt>
      <trkpt lat="37.441835" lon="-4.40702167">
        <ele>616.0</ele>
        <time>2018-06-09T08:50:15.175Z</time>
      </trkpt>
      <trkpt lat="37.441855" lon="-4.40698667">
        <ele>616.0</ele>
        <time>2018-06-09T08:50:16.181Z</time>
      </trkpt>
      <trkpt lat="37.441865" lon="-4.40696833">
        <ele>616.0</ele>
        <time>2018-06-09T08:50:17.193Z</time>
      </trkpt>
      <trkpt lat="37.441865" lon="-4.40696833">
        <ele>616.0</ele>
        <time>2018-06-09T08:50:18.169Z</time>
      </trkpt>
      <trkpt lat="37.441885" lon="-4.40692833">
        <ele>617.0</ele>
        <time>2018-06-09T08:50:19.159Z</time>
      </trkpt>
      <trkpt lat="37.44189333" lon="-4.40690833">
        <ele>617.0</ele>
        <time>2018-06-09T08:50:20.196Z</time>
      </trkpt>
      <trkpt lat="37.44189333" lon="-4.40690833">
        <ele>617.0</ele>
        <time>2018-06-09T08:50:21.173Z</time>
      </trkpt>
      <trkpt lat="37.44191333" lon="-4.40686833">
        <ele>617.0</ele>
        <time>2018-06-09T08:50:22.179Z</time>
      </trkpt>
      <trkpt lat="37.44192333" lon="-4.40684667">
        <ele>617.0</ele>
        <time>2018-06-09T08:50:23.178Z</time>
      </trkpt>
      <trkpt lat="37.44193333" lon="-4.40682667">
        <ele>618.0</ele>
        <time>2018-06-09T08:50:24.163Z</time>
      </trkpt>
      <trkpt lat="37.44193333" lon="-4.40682667">
        <ele>618.0</ele>
        <time>2018-06-09T08:50:25.180Z</time>
      </trkpt>
      <trkpt lat="37.44195167" lon="-4.406785">
        <ele>618.0</ele>
        <time>2018-06-09T08:50:26.188Z</time>
      </trkpt>
      <trkpt lat="37.44195167" lon="-4.406785">
        <ele>618.0</ele>
        <time>2018-06-09T08:50:27.166Z</time>
      </trkpt>
      <trkpt lat="37.44197" lon="-4.40674333">
        <ele>618.0</ele>
        <time>2018-06-09T08:50:28.191Z</time>
      </trkpt>
      <trkpt lat="37.44197" lon="-4.40674333">
        <ele>618.0</ele>
        <time>2018-06-09T08:50:29.157Z</time>
      </trkpt>
      <trkpt lat="37.44198833" lon="-4.406705">
        <ele>619.0</ele>
        <time>2018-06-09T08:50:30.166Z</time>
      </trkpt>
      <trkpt lat="37.44198833" lon="-4.406705">
        <ele>619.0</ele>
        <time>2018-06-09T08:50:31.187Z</time>
      </trkpt>
      <trkpt lat="37.442005" lon="-4.40666333">
        <ele>619.0</ele>
        <time>2018-06-09T08:50:32.190Z</time>
      </trkpt>
      <trkpt lat="37.442005" lon="-4.40666333">
        <ele>619.0</ele>
        <time>2018-06-09T08:50:33.157Z</time>
      </trkpt>
      <trkpt lat="37.44202167" lon="-4.40662333">
        <ele>619.0</ele>
        <time>2018-06-09T08:50:34.165Z</time>
      </trkpt>
      <trkpt lat="37.44203" lon="-4.406605">
        <ele>620.0</ele>
        <time>2018-06-09T08:50:35.157Z</time>
      </trkpt>
      <trkpt lat="37.44203" lon="-4.406605">
        <ele>620.0</ele>
        <time>2018-06-09T08:50:36.185Z</time>
      </trkpt>
      <trkpt lat="37.44204833" lon="-4.406565">
        <ele>620.0</ele>
        <time>2018-06-09T08:50:37.191Z</time>
      </trkpt>
      <trkpt lat="37.44205333" lon="-4.406545">
        <ele>620.0</ele>
        <time>2018-06-09T08:50:38.159Z</time>
      </trkpt>
      <trkpt lat="37.44205333" lon="-4.406545">
        <ele>620.0</ele>
        <time>2018-06-09T08:50:39.166Z</time>
      </trkpt>
      <trkpt lat="37.44206667" lon="-4.40650667">
        <ele>621.0</ele>
        <time>2018-06-09T08:50:40.173Z</time>
      </trkpt>
      <trkpt lat="37.44206667" lon="-4.40650667">
        <ele>621.0</ele>
        <time>2018-06-09T08:50:41.192Z</time>
      </trkpt>
      <trkpt lat="37.44208" lon="-4.40647">
        <ele>621.0</ele>
        <time>2018-06-09T08:50:42.190Z</time>
      </trkpt>
      <trkpt lat="37.44208" lon="-4.40647">
        <ele>621.0</ele>
        <time>2018-06-09T08:50:43.192Z</time>
      </trkpt>
      <trkpt lat="37.44209167" lon="-4.40643167">
        <ele>622.0</ele>
        <time>2018-06-09T08:50:44.159Z</time>
      </trkpt>
      <trkpt lat="37.44209167" lon="-4.40643167">
        <ele>622.0</ele>
        <time>2018-06-09T08:50:45.185Z</time>
      </trkpt>
      <trkpt lat="37.442105" lon="-4.40639">
        <ele>622.0</ele>
        <time>2018-06-09T08:50:46.191Z</time>
      </trkpt>
      <trkpt lat="37.442105" lon="-4.40639">
        <ele>622.0</ele>
        <time>2018-06-09T08:50:47.173Z</time>
      </trkpt>
      <trkpt lat="37.442125" lon="-4.40635167">
        <ele>622.0</ele>
        <time>2018-06-09T08:50:48.183Z</time>
      </trkpt>
      <trkpt lat="37.44213667" lon="-4.40633333">
        <ele>623.0</ele>
        <time>2018-06-09T08:50:49.164Z</time>
      </trkpt>
      <trkpt lat="37.44213667" lon="-4.40633333">
        <ele>623.0</ele>
        <time>2018-06-09T08:50:50.181Z</time>
      </trkpt>
      <trkpt lat="37.44215667" lon="-4.40629667">
        <ele>623.0</ele>
        <time>2018-06-09T08:50:51.160Z</time>
      </trkpt>
      <trkpt lat="37.44215667" lon="-4.40629667">
        <ele>623.0</ele>
        <time>2018-06-09T08:50:52.173Z</time>
      </trkpt>
      <trkpt lat="37.44217167" lon="-4.40625667">
        <ele>624.0</ele>
        <time>2018-06-09T08:50:53.179Z</time>
      </trkpt>
      <trkpt lat="37.44217333" lon="-4.40623333">
        <ele>624.0</ele>
        <time>2018-06-09T08:50:54.157Z</time>
      </trkpt>
      <trkpt lat="37.44217333" lon="-4.40623333">
        <ele>624.0</ele>
        <time>2018-06-09T08:50:55.166Z</time>
      </trkpt>
      <trkpt lat="37.44217833" lon="-4.40619">
        <ele>624.0</ele>
        <time>2018-06-09T08:50:56.172Z</time>
      </trkpt>
      <trkpt lat="37.44217833" lon="-4.40619">
        <ele>624.0</ele>
        <time>2018-06-09T08:50:57.184Z</time>
      </trkpt>
      <trkpt lat="37.44219" lon="-4.40614833">
        <ele>625.0</ele>
        <time>2018-06-09T08:50:58.169Z</time>
      </trkpt>
      <trkpt lat="37.44219" lon="-4.40614833">
        <ele>625.0</ele>
        <time>2018-06-09T08:50:59.176Z</time>
      </trkpt>
      <trkpt lat="37.442205" lon="-4.40610667">
        <ele>625.0</ele>
        <time>2018-06-09T08:51:00.182Z</time>
      </trkpt>
      <trkpt lat="37.442205" lon="-4.40610667">
        <ele>625.0</ele>
        <time>2018-06-09T08:51:01.165Z</time>
      </trkpt>
      <trkpt lat="37.44221667" lon="-4.406065">
        <ele>625.0</ele>
        <time>2018-06-09T08:51:02.190Z</time>
      </trkpt>
      <trkpt lat="37.44221667" lon="-4.406065">
        <ele>625.0</ele>
        <time>2018-06-09T08:51:03.186Z</time>
      </trkpt>
      <trkpt lat="37.44223" lon="-4.406025">
        <ele>626.0</ele>
        <time>2018-06-09T08:51:04.192Z</time>
      </trkpt>
      <trkpt lat="37.44223667" lon="-4.40600667">
        <ele>626.0</ele>
        <time>2018-06-09T08:51:05.157Z</time>
      </trkpt>
      <trkpt lat="37.44223667" lon="-4.40600667">
        <ele>626.0</ele>
        <time>2018-06-09T08:51:06.176Z</time>
      </trkpt>
      <trkpt lat="37.44225167" lon="-4.40596667">
        <ele>626.0</ele>
        <time>2018-06-09T08:51:07.183Z</time>
      </trkpt>
      <trkpt lat="37.44225167" lon="-4.40596667">
        <ele>626.0</ele>
        <time>2018-06-09T08:51:08.175Z</time>
      </trkpt>
      <trkpt lat="37.44226667" lon="-4.40592667">
        <ele>627.0</ele>
        <time>2018-06-09T08:51:09.158Z</time>
      </trkpt>
      <trkpt lat="37.44226667" lon="-4.40592667">
        <ele>627.0</ele>
        <time>2018-06-09T08:51:10.168Z</time>
      </trkpt>
      <trkpt lat="37.44228" lon="-4.40588333">
        <ele>627.0</ele>
        <time>2018-06-09T08:51:11.174Z</time>
      </trkpt>
      <trkpt lat="37.44228" lon="-4.40588333">
        <ele>627.0</ele>
        <time>2018-06-09T08:51:12.195Z</time>
      </trkpt>
      <trkpt lat="37.44229167" lon="-4.40584167">
        <ele>627.0</ele>
        <time>2018-06-09T08:51:13.160Z</time>
      </trkpt>
      <trkpt lat="37.44229167" lon="-4.40584167">
        <ele>627.0</ele>
        <time>2018-06-09T08:51:14.178Z</time>
      </trkpt>
      <trkpt lat="37.442305" lon="-4.40580167">
        <ele>628.0</ele>
        <time>2018-06-09T08:51:15.184Z</time>
      </trkpt>
      <trkpt lat="37.44231167" lon="-4.40578167">
        <ele>628.0</ele>
        <time>2018-06-09T08:51:16.165Z</time>
      </trkpt>
      <trkpt lat="37.44231167" lon="-4.40578167">
        <ele>628.0</ele>
        <time>2018-06-09T08:51:17.160Z</time>
      </trkpt>
      <trkpt lat="37.44232833" lon="-4.40574333">
        <ele>628.0</ele>
        <time>2018-06-09T08:51:18.167Z</time>
      </trkpt>
      <trkpt lat="37.44232833" lon="-4.40574333">
        <ele>628.0</ele>
        <time>2018-06-09T08:51:19.184Z</time>
      </trkpt>
      <trkpt lat="37.442345" lon="-4.40570333">
        <ele>628.0</ele>
        <time>2018-06-09T08:51:20.159Z</time>
      </trkpt>
      <trkpt lat="37.442345" lon="-4.40570333">
        <ele>628.0</ele>
        <time>2018-06-09T08:51:21.183Z</time>
      </trkpt>
      <trkpt lat="37.44236" lon="-4.40566333">
        <ele>629.0</ele>
        <time>2018-06-09T08:51:22.189Z</time>
      </trkpt>
      <trkpt lat="37.44236" lon="-4.40566333">
        <ele>629.0</ele>
        <time>2018-06-09T08:51:23.165Z</time>
      </trkpt>
      <trkpt lat="37.44237333" lon="-4.40562167">
        <ele>629.0</ele>
        <time>2018-06-09T08:51:24.190Z</time>
      </trkpt>
      <trkpt lat="37.44237333" lon="-4.40562167">
        <ele>629.0</ele>
        <time>2018-06-09T08:51:25.182Z</time>
      </trkpt>
      <trkpt lat="37.44238667" lon="-4.40558">
        <ele>629.0</ele>
        <time>2018-06-09T08:51:26.189Z</time>
      </trkpt>
      <trkpt lat="37.44238667" lon="-4.40558">
        <ele>629.0</ele>
        <time>2018-06-09T08:51:27.166Z</time>
      </trkpt>
      <trkpt lat="37.44240167" lon="-4.40554">
        <ele>630.0</ele>
        <time>2018-06-09T08:51:28.192Z</time>
      </trkpt>
      <trkpt lat="37.44240167" lon="-4.40554">
        <ele>630.0</ele>
        <time>2018-06-09T08:51:29.169Z</time>
      </trkpt>
      <trkpt lat="37.44241667" lon="-4.40550167">
        <ele>630.0</ele>
        <time>2018-06-09T08:51:30.176Z</time>
      </trkpt>
      <trkpt lat="37.442425" lon="-4.40548333">
        <ele>630.0</ele>
        <time>2018-06-09T08:51:31.195Z</time>
      </trkpt>
      <trkpt lat="37.44243" lon="-4.40546333">
        <ele>630.0</ele>
        <time>2018-06-09T08:51:32.168Z</time>
      </trkpt>
      <trkpt lat="37.44243" lon="-4.40546333">
        <ele>630.0</ele>
        <time>2018-06-09T08:51:33.189Z</time>
      </trkpt>
      <trkpt lat="37.44243667" lon="-4.40542333">
        <ele>631.0</ele>
        <time>2018-06-09T08:51:34.195Z</time>
      </trkpt>
      <trkpt lat="37.44243667" lon="-4.40542333">
        <ele>631.0</ele>
        <time>2018-06-09T08:51:35.178Z</time>
      </trkpt>
      <trkpt lat="37.442455" lon="-4.40538833">
        <ele>631.0</ele>
        <time>2018-06-09T08:51:36.185Z</time>
      </trkpt>
      <trkpt lat="37.44246333" lon="-4.40536833">
        <ele>631.0</ele>
        <time>2018-06-09T08:51:37.159Z</time>
      </trkpt>
      <trkpt lat="37.44246333" lon="-4.40536833">
        <ele>631.0</ele>
        <time>2018-06-09T08:51:38.165Z</time>
      </trkpt>
      <trkpt lat="37.442475" lon="-4.405325">
        <ele>632.0</ele>
        <time>2018-06-09T08:51:39.174Z</time>
      </trkpt>
      <trkpt lat="37.44248333" lon="-4.40530333">
        <ele>632.0</ele>
        <time>2018-06-09T08:51:40.192Z</time>
      </trkpt>
      <trkpt lat="37.44248333" lon="-4.40530333">
        <ele>632.0</ele>
        <time>2018-06-09T08:51:41.166Z</time>
      </trkpt>
      <trkpt lat="37.44249667" lon="-4.40526167">
        <ele>632.0</ele>
        <time>2018-06-09T08:51:42.173Z</time>
      </trkpt>
      <trkpt lat="37.442505" lon="-4.40524">
        <ele>632.0</ele>
        <time>2018-06-09T08:51:43.198Z</time>
      </trkpt>
      <trkpt lat="37.44251333" lon="-4.40522">
        <ele>632.0</ele>
        <time>2018-06-09T08:51:44.162Z</time>
      </trkpt>
      <trkpt lat="37.44251333" lon="-4.40522">
        <ele>632.0</ele>
        <time>2018-06-09T08:51:45.180Z</time>
      </trkpt>
      <trkpt lat="37.44252833" lon="-4.40517667">
        <ele>633.0</ele>
        <time>2018-06-09T08:51:46.186Z</time>
      </trkpt>
      <trkpt lat="37.44252833" lon="-4.40517667">
        <ele>633.0</ele>
        <time>2018-06-09T08:51:47.162Z</time>
      </trkpt>
      <trkpt lat="37.44254333" lon="-4.40513667">
        <ele>633.0</ele>
        <time>2018-06-09T08:51:48.191Z</time>
      </trkpt>
      <trkpt lat="37.44254333" lon="-4.40513667">
        <ele>633.0</ele>
        <time>2018-06-09T08:51:49.168Z</time>
      </trkpt>
      <trkpt lat="37.44256" lon="-4.40509667">
        <ele>633.0</ele>
        <time>2018-06-09T08:51:50.176Z</time>
      </trkpt>
      <trkpt lat="37.44256" lon="-4.40509667">
        <ele>633.0</ele>
        <time>2018-06-09T08:51:51.195Z</time>
      </trkpt>
      <trkpt lat="37.44257333" lon="-4.40505167">
        <ele>633.0</ele>
        <time>2018-06-09T08:51:52.157Z</time>
      </trkpt>
      <trkpt lat="37.44257333" lon="-4.40505167">
        <ele>633.0</ele>
        <time>2018-06-09T08:51:53.192Z</time>
      </trkpt>
      <trkpt lat="37.44258667" lon="-4.40500833">
        <ele>634.0</ele>
        <time>2018-06-09T08:51:54.164Z</time>
      </trkpt>
      <trkpt lat="37.44259333" lon="-4.40498667">
        <ele>634.0</ele>
        <time>2018-06-09T08:51:55.167Z</time>
      </trkpt>
      <trkpt lat="37.44260167" lon="-4.404965">
        <ele>634.0</ele>
        <time>2018-06-09T08:51:56.195Z</time>
      </trkpt>
      <trkpt lat="37.44260167" lon="-4.404965">
        <ele>634.0</ele>
        <time>2018-06-09T08:51:57.172Z</time>
      </trkpt>
      <trkpt lat="37.44262" lon="-4.404925">
        <ele>634.0</ele>
        <time>2018-06-09T08:51:58.178Z</time>
      </trkpt>
      <trkpt lat="37.44262833" lon="-4.40490333">
        <ele>634.0</ele>
        <time>2018-06-09T08:51:59.194Z</time>
      </trkpt>
      <trkpt lat="37.44263667" lon="-4.40488167">
        <ele>635.0</ele>
        <time>2018-06-09T08:52:00.157Z</time>
      </trkpt>
      <trkpt lat="37.44263667" lon="-4.40488167">
        <ele>635.0</ele>
        <time>2018-06-09T08:52:01.163Z</time>
      </trkpt>
      <trkpt lat="37.44265" lon="-4.40483667">
        <ele>635.0</ele>
        <time>2018-06-09T08:52:02.169Z</time>
      </trkpt>
      <trkpt lat="37.44265833" lon="-4.404815">
        <ele>635.0</ele>
        <time>2018-06-09T08:52:03.157Z</time>
      </trkpt>
      <trkpt lat="37.44265833" lon="-4.404815">
        <ele>635.0</ele>
        <time>2018-06-09T08:52:04.186Z</time>
      </trkpt>
      <trkpt lat="37.44267333" lon="-4.40477">
        <ele>635.0</ele>
        <time>2018-06-09T08:52:05.192Z</time>
      </trkpt>
      <trkpt lat="37.44267333" lon="-4.40477">
        <ele>635.0</ele>
        <time>2018-06-09T08:52:06.169Z</time>
      </trkpt>
      <trkpt lat="37.44269167" lon="-4.40472667">
        <ele>635.0</ele>
        <time>2018-06-09T08:52:07.196Z</time>
      </trkpt>
      <trkpt lat="37.44269167" lon="-4.40472667">
        <ele>635.0</ele>
        <time>2018-06-09T08:52:08.164Z</time>
      </trkpt>
      <trkpt lat="37.44271" lon="-4.40468333">
        <ele>636.0</ele>
        <time>2018-06-09T08:52:09.172Z</time>
      </trkpt>
      <trkpt lat="37.44271667" lon="-4.40466167">
        <ele>636.0</ele>
        <time>2018-06-09T08:52:10.190Z</time>
      </trkpt>
      <trkpt lat="37.44271667" lon="-4.40466167">
        <ele>636.0</ele>
        <time>2018-06-09T08:52:11.176Z</time>
      </trkpt>
      <trkpt lat="37.44273" lon="-4.40461833">
        <ele>636.0</ele>
        <time>2018-06-09T08:52:12.182Z</time>
      </trkpt>
      <trkpt lat="37.44273667" lon="-4.40459833">
        <ele>636.0</ele>
        <time>2018-06-09T08:52:13.157Z</time>
      </trkpt>
      <trkpt lat="37.44274667" lon="-4.40457667">
        <ele>636.0</ele>
        <time>2018-06-09T08:52:14.187Z</time>
      </trkpt>
      <trkpt lat="37.44274667" lon="-4.40457667">
        <ele>636.0</ele>
        <time>2018-06-09T08:52:15.165Z</time>
      </trkpt>
      <trkpt lat="37.44276667" lon="-4.40453167">
        <ele>636.0</ele>
        <time>2018-06-09T08:52:16.172Z</time>
      </trkpt>
      <trkpt lat="37.44276667" lon="-4.40453167">
        <ele>636.0</ele>
        <time>2018-06-09T08:52:17.168Z</time>
      </trkpt>
      <trkpt lat="37.442785" lon="-4.40448667">
        <ele>637.0</ele>
        <time>2018-06-09T08:52:18.174Z</time>
      </trkpt>
      <trkpt lat="37.44279333" lon="-4.40446667">
        <ele>637.0</ele>
        <time>2018-06-09T08:52:19.195Z</time>
      </trkpt>
      <trkpt lat="37.44280333" lon="-4.404445">
        <ele>637.0</ele>
        <time>2018-06-09T08:52:20.183Z</time>
      </trkpt>
      <trkpt lat="37.44280333" lon="-4.404445">
        <ele>637.0</ele>
        <time>2018-06-09T08:52:21.164Z</time>
      </trkpt>
      <trkpt lat="37.44282" lon="-4.4044">
        <ele>637.0</ele>
        <time>2018-06-09T08:52:22.179Z</time>
      </trkpt>
      <trkpt lat="37.44282833" lon="-4.40437667">
        <ele>637.0</ele>
        <time>2018-06-09T08:52:23.196Z</time>
      </trkpt>
      <trkpt lat="37.44282833" lon="-4.40437667">
        <ele>637.0</ele>
        <time>2018-06-09T08:52:24.173Z</time>
      </trkpt>
      <trkpt lat="37.442845" lon="-4.40432833">
        <ele>638.0</ele>
        <time>2018-06-09T08:52:25.165Z</time>
      </trkpt>
      <trkpt lat="37.442845" lon="-4.40432833">
        <ele>638.0</ele>
        <time>2018-06-09T08:52:26.188Z</time>
      </trkpt>
      <trkpt lat="37.44286333" lon="-4.40428167">
        <ele>638.0</ele>
        <time>2018-06-09T08:52:27.187Z</time>
      </trkpt>
      <trkpt lat="37.44286333" lon="-4.40428167">
        <ele>638.0</ele>
        <time>2018-06-09T08:52:28.165Z</time>
      </trkpt>
      <trkpt lat="37.44288333" lon="-4.40423667">
        <ele>638.0</ele>
        <time>2018-06-09T08:52:29.172Z</time>
      </trkpt>
      <trkpt lat="37.44288333" lon="-4.40423667">
        <ele>638.0</ele>
        <time>2018-06-09T08:52:30.184Z</time>
      </trkpt>
      <trkpt lat="37.44290167" lon="-4.40419">
        <ele>638.0</ele>
        <time>2018-06-09T08:52:31.159Z</time>
      </trkpt>
      <trkpt lat="37.44290167" lon="-4.40419">
        <ele>638.0</ele>
        <time>2018-06-09T08:52:32.167Z</time>
      </trkpt>
      <trkpt lat="37.44291833" lon="-4.404145">
        <ele>639.0</ele>
        <time>2018-06-09T08:52:33.174Z</time>
      </trkpt>
      <trkpt lat="37.44293" lon="-4.40412167">
        <ele>639.0</ele>
        <time>2018-06-09T08:52:34.185Z</time>
      </trkpt>
      <trkpt lat="37.44293" lon="-4.40412167">
        <ele>639.0</ele>
        <time>2018-06-09T08:52:35.187Z</time>
      </trkpt>
      <trkpt lat="37.44295" lon="-4.40407667">
        <ele>639.0</ele>
        <time>2018-06-09T08:52:36.194Z</time>
      </trkpt>
      <trkpt lat="37.44296" lon="-4.40405333">
        <ele>639.0</ele>
        <time>2018-06-09T08:52:37.160Z</time>
      </trkpt>
      <trkpt lat="37.44297" lon="-4.40403167">
        <ele>639.0</ele>
        <time>2018-06-09T08:52:38.171Z</time>
      </trkpt>
      <trkpt lat="37.44297" lon="-4.40403167">
        <ele>639.0</ele>
        <time>2018-06-09T08:52:39.189Z</time>
      </trkpt>
      <trkpt lat="37.44298667" lon="-4.403985">
        <ele>640.0</ele>
        <time>2018-06-09T08:52:40.157Z</time>
      </trkpt>
      <trkpt lat="37.44298667" lon="-4.403985">
        <ele>640.0</ele>
        <time>2018-06-09T08:52:41.157Z</time>
      </trkpt>
      <trkpt lat="37.443005" lon="-4.40393667">
        <ele>640.0</ele>
        <time>2018-06-09T08:52:42.176Z</time>
      </trkpt>
      <trkpt lat="37.443015" lon="-4.40391333">
        <ele>640.0</ele>
        <time>2018-06-09T08:52:43.161Z</time>
      </trkpt>
      <trkpt lat="37.44302333" lon="-4.40389667">
        <ele>640.0</ele>
        <time>2018-06-09T08:52:44.169Z</time>
      </trkpt>
      <trkpt lat="37.44302333" lon="-4.40389667">
        <ele>640.0</ele>
        <time>2018-06-09T08:52:45.187Z</time>
      </trkpt>
      <trkpt lat="37.44304" lon="-4.40385667">
        <ele>640.0</ele>
        <time>2018-06-09T08:52:46.157Z</time>
      </trkpt>
      <trkpt lat="37.44304" lon="-4.40385667">
        <ele>640.0</ele>
        <time>2018-06-09T08:52:47.165Z</time>
      </trkpt>
      <trkpt lat="37.44306167" lon="-4.40381167">
        <ele>641.0</ele>
        <time>2018-06-09T08:52:48.169Z</time>
      </trkpt>
      <trkpt lat="37.44307333" lon="-4.40378667">
        <ele>641.0</ele>
        <time>2018-06-09T08:52:49.187Z</time>
      </trkpt>
      <trkpt lat="37.443085" lon="-4.40376333">
        <ele>641.0</ele>
        <time>2018-06-09T08:52:50.166Z</time>
      </trkpt>
      <trkpt lat="37.443085" lon="-4.40376333">
        <ele>641.0</ele>
        <time>2018-06-09T08:52:51.184Z</time>
      </trkpt>
      <trkpt lat="37.44311167" lon="-4.40371167">
        <ele>641.0</ele>
        <time>2018-06-09T08:52:52.193Z</time>
      </trkpt>
      <trkpt lat="37.44311167" lon="-4.40371167">
        <ele>641.0</ele>
        <time>2018-06-09T08:52:53.172Z</time>
      </trkpt>
      <trkpt lat="37.44313" lon="-4.40365667">
        <ele>642.0</ele>
        <time>2018-06-09T08:52:54.178Z</time>
      </trkpt>
      <trkpt lat="37.44313" lon="-4.40365667">
        <ele>642.0</ele>
        <time>2018-06-09T08:52:55.162Z</time>
      </trkpt>
      <trkpt lat="37.44314667" lon="-4.4036">
        <ele>642.0</ele>
        <time>2018-06-09T08:52:56.167Z</time>
      </trkpt>
      <trkpt lat="37.44314667" lon="-4.4036">
        <ele>642.0</ele>
        <time>2018-06-09T08:52:57.175Z</time>
      </trkpt>
      <trkpt lat="37.44317" lon="-4.403545">
        <ele>642.0</ele>
        <time>2018-06-09T08:52:58.181Z</time>
      </trkpt>
      <trkpt lat="37.44317" lon="-4.403545">
        <ele>642.0</ele>
        <time>2018-06-09T08:52:59.173Z</time>
      </trkpt>
      <trkpt lat="37.44319333" lon="-4.40349333">
        <ele>643.0</ele>
        <time>2018-06-09T08:53:00.191Z</time>
      </trkpt>
      <trkpt lat="37.44319333" lon="-4.40349333">
        <ele>643.0</ele>
        <time>2018-06-09T08:53:01.193Z</time>
      </trkpt>
      <trkpt lat="37.44321333" lon="-4.40344">
        <ele>643.0</ele>
        <time>2018-06-09T08:53:02.163Z</time>
      </trkpt>
      <trkpt lat="37.44321333" lon="-4.40344">
        <ele>643.0</ele>
        <time>2018-06-09T08:53:03.170Z</time>
      </trkpt>
      <trkpt lat="37.44323333" lon="-4.40339">
        <ele>643.0</ele>
        <time>2018-06-09T08:53:04.177Z</time>
      </trkpt>
      <trkpt lat="37.44323333" lon="-4.40339">
        <ele>643.0</ele>
        <time>2018-06-09T08:53:05.195Z</time>
      </trkpt>
      <trkpt lat="37.44325" lon="-4.40334167">
        <ele>644.0</ele>
        <time>2018-06-09T08:53:06.157Z</time>
      </trkpt>
      <trkpt lat="37.44325" lon="-4.40334167">
        <ele>644.0</ele>
        <time>2018-06-09T08:53:07.159Z</time>
      </trkpt>
      <trkpt lat="37.44326833" lon="-4.40329333">
        <ele>644.0</ele>
        <time>2018-06-09T08:53:08.167Z</time>
      </trkpt>
      <trkpt lat="37.44326833" lon="-4.40329333">
        <ele>644.0</ele>
        <time>2018-06-09T08:53:09.186Z</time>
      </trkpt>
      <trkpt lat="37.44328" lon="-4.40324167">
        <ele>645.0</ele>
        <time>2018-06-09T08:53:10.160Z</time>
      </trkpt>
      <trkpt lat="37.44328" lon="-4.40324167">
        <ele>645.0</ele>
        <time>2018-06-09T08:53:11.174Z</time>
      </trkpt>
      <trkpt lat="37.44329333" lon="-4.40318667">
        <ele>645.0</ele>
        <time>2018-06-09T08:53:12.180Z</time>
      </trkpt>
      <trkpt lat="37.44329333" lon="-4.40318667">
        <ele>645.0</ele>
        <time>2018-06-09T08:53:13.163Z</time>
      </trkpt>
      <trkpt lat="37.44331" lon="-4.40313333">
        <ele>645.0</ele>
        <time>2018-06-09T08:53:14.191Z</time>
      </trkpt>
      <trkpt lat="37.44331" lon="-4.40313333">
        <ele>645.0</ele>
        <time>2018-06-09T08:53:15.176Z</time>
      </trkpt>
      <trkpt lat="37.44332667" lon="-4.40308">
        <ele>646.0</ele>
        <time>2018-06-09T08:53:16.183Z</time>
      </trkpt>
      <trkpt lat="37.44332667" lon="-4.40308">
        <ele>646.0</ele>
        <time>2018-06-09T08:53:17.163Z</time>
      </trkpt>
      <trkpt lat="37.44334" lon="-4.40302667">
        <ele>646.0</ele>
        <time>2018-06-09T08:53:18.171Z</time>
      </trkpt>
      <trkpt lat="37.44334" lon="-4.40302667">
        <ele>646.0</ele>
        <time>2018-06-09T08:53:19.186Z</time>
      </trkpt>
      <trkpt lat="37.443355" lon="-4.40296833">
        <ele>646.0</ele>
        <time>2018-06-09T08:53:20.192Z</time>
      </trkpt>
      <trkpt lat="37.443355" lon="-4.40296833">
        <ele>646.0</ele>
        <time>2018-06-09T08:53:21.169Z</time>
      </trkpt>
      <trkpt lat="37.44336833" lon="-4.402915">
        <ele>647.0</ele>
        <time>2018-06-09T08:53:22.191Z</time>
      </trkpt>
      <trkpt lat="37.44336833" lon="-4.402915">
        <ele>647.0</ele>
        <time>2018-06-09T08:53:23.166Z</time>
      </trkpt>
      <trkpt lat="37.44338167" lon="-4.40286167">
        <ele>647.0</ele>
        <time>2018-06-09T08:53:24.172Z</time>
      </trkpt>
      <trkpt lat="37.44338667" lon="-4.40283333">
        <ele>648.0</ele>
        <time>2018-06-09T08:53:25.169Z</time>
      </trkpt>
      <trkpt lat="37.44338667" lon="-4.40283333">
        <ele>648.0</ele>
        <time>2018-06-09T08:53:26.158Z</time>
      </trkpt>
      <trkpt lat="37.44340167" lon="-4.40278">
        <ele>648.0</ele>
        <time>2018-06-09T08:53:27.168Z</time>
      </trkpt>
      <trkpt lat="37.44340167" lon="-4.40278">
        <ele>648.0</ele>
        <time>2018-06-09T08:53:28.185Z</time>
      </trkpt>
      <trkpt lat="37.44341333" lon="-4.40272667">
        <ele>649.0</ele>
        <time>2018-06-09T08:53:29.188Z</time>
      </trkpt>
      <trkpt lat="37.44341333" lon="-4.40272667">
        <ele>649.0</ele>
        <time>2018-06-09T08:53:30.166Z</time>
      </trkpt>
      <trkpt lat="37.443425" lon="-4.40267167">
        <ele>649.0</ele>
        <time>2018-06-09T08:53:31.174Z</time>
      </trkpt>
      <trkpt lat="37.44343167" lon="-4.402645">
        <ele>650.0</ele>
        <time>2018-06-09T08:53:32.193Z</time>
      </trkpt>
      <trkpt lat="37.44343167" lon="-4.402645">
        <ele>650.0</ele>
        <time>2018-06-09T08:53:33.186Z</time>
      </trkpt>
      <trkpt lat="37.443445" lon="-4.40259167">
        <ele>650.0</ele>
        <time>2018-06-09T08:53:34.158Z</time>
      </trkpt>
      <trkpt lat="37.443445" lon="-4.40259167">
        <ele>650.0</ele>
        <time>2018-06-09T08:53:35.176Z</time>
      </trkpt>
      <trkpt lat="37.44346" lon="-4.402535">
        <ele>651.0</ele>
        <time>2018-06-09T08:53:36.160Z</time>
      </trkpt>
      <trkpt lat="37.44346" lon="-4.402535">
        <ele>651.0</ele>
        <time>2018-06-09T08:53:37.160Z</time>
      </trkpt>
      <trkpt lat="37.44347333" lon="-4.40247667">
        <ele>651.0</ele>
        <time>2018-06-09T08:53:38.168Z</time>
      </trkpt>
      <trkpt lat="37.44347333" lon="-4.40247667">
        <ele>651.0</ele>
        <time>2018-06-09T08:53:39.190Z</time>
      </trkpt>
      <trkpt lat="37.44348667" lon="-4.40241833">
        <ele>651.0</ele>
        <time>2018-06-09T08:53:40.157Z</time>
      </trkpt>
      <trkpt lat="37.44348667" lon="-4.40241833">
        <ele>651.0</ele>
        <time>2018-06-09T08:53:41.183Z</time>
      </trkpt>
      <trkpt lat="37.44349833" lon="-4.40236167">
        <ele>652.0</ele>
        <time>2018-06-09T08:53:42.189Z</time>
      </trkpt>
      <trkpt lat="37.44349833" lon="-4.40236167">
        <ele>652.0</ele>
        <time>2018-06-09T08:53:43.175Z</time>
      </trkpt>
      <trkpt lat="37.44351167" lon="-4.402305">
        <ele>653.0</ele>
        <time>2018-06-09T08:53:44.181Z</time>
      </trkpt>
      <trkpt lat="37.44352167" lon="-4.40227833">
        <ele>653.0</ele>
        <time>2018-06-09T08:53:45.159Z</time>
      </trkpt>
      <trkpt lat="37.44352167" lon="-4.40227833">
        <ele>653.0</ele>
        <time>2018-06-09T08:53:46.186Z</time>
      </trkpt>
      <trkpt lat="37.443535" lon="-4.40222167">
        <ele>653.0</ele>
        <time>2018-06-09T08:53:47.187Z</time>
      </trkpt>
      <trkpt lat="37.443535" lon="-4.40222167">
        <ele>653.0</ele>
        <time>2018-06-09T08:53:48.167Z</time>
      </trkpt>
      <trkpt lat="37.44355" lon="-4.402165">
        <ele>653.0</ele>
        <time>2018-06-09T08:53:49.173Z</time>
      </trkpt>
      <trkpt lat="37.44355667" lon="-4.40213667">
        <ele>653.0</ele>
        <time>2018-06-09T08:53:50.159Z</time>
      </trkpt>
      <trkpt lat="37.44355667" lon="-4.40213667">
        <ele>653.0</ele>
        <time>2018-06-09T08:53:51.175Z</time>
      </trkpt>
      <trkpt lat="37.44357" lon="-4.40207833">
        <ele>654.0</ele>
        <time>2018-06-09T08:53:52.181Z</time>
      </trkpt>
      <trkpt lat="37.44357" lon="-4.40207833">
        <ele>654.0</ele>
        <time>2018-06-09T08:53:53.162Z</time>
      </trkpt>
      <trkpt lat="37.44358333" lon="-4.40201833">
        <ele>654.0</ele>
        <time>2018-06-09T08:53:54.169Z</time>
      </trkpt>
      <trkpt lat="37.44358333" lon="-4.40201833">
        <ele>654.0</ele>
        <time>2018-06-09T08:53:55.176Z</time>
      </trkpt>
      <trkpt lat="37.44359667" lon="-4.40195833">
        <ele>655.0</ele>
        <time>2018-06-09T08:53:56.182Z</time>
      </trkpt>
      <trkpt lat="37.44359667" lon="-4.40195833">
        <ele>655.0</ele>
        <time>2018-06-09T08:53:57.161Z</time>
      </trkpt>
      <trkpt lat="37.44360833" lon="-4.40190333">
        <ele>655.0</ele>
        <time>2018-06-09T08:53:58.157Z</time>
      </trkpt>
      <trkpt lat="37.44361667" lon="-4.40187667">
        <ele>655.0</ele>
        <time>2018-06-09T08:53:59.196Z</time>
      </trkpt>
      <trkpt lat="37.44361667" lon="-4.40187667">
        <ele>655.0</ele>
        <time>2018-06-09T08:54:00.173Z</time>
      </trkpt>
      <trkpt lat="37.44363" lon="-4.40182167">
        <ele>655.0</ele>
        <time>2018-06-09T08:54:01.179Z</time>
      </trkpt>
      <trkpt lat="37.443635" lon="-4.40179333">
        <ele>656.0</ele>
        <time>2018-06-09T08:54:02.159Z</time>
      </trkpt>
      <trkpt lat="37.443635" lon="-4.40179333">
        <ele>656.0</ele>
        <time>2018-06-09T08:54:03.166Z</time>
      </trkpt>
      <trkpt lat="37.44365" lon="-4.40173833">
        <ele>656.0</ele>
        <time>2018-06-09T08:54:04.173Z</time>
      </trkpt>
      <trkpt lat="37.44365" lon="-4.40173833">
        <ele>656.0</ele>
        <time>2018-06-09T08:54:05.192Z</time>
      </trkpt>
      <trkpt lat="37.44366333" lon="-4.40168167">
        <ele>656.0</ele>
        <time>2018-06-09T08:54:06.157Z</time>
      </trkpt>
      <trkpt lat="37.44366333" lon="-4.40168167">
        <ele>656.0</ele>
        <time>2018-06-09T08:54:07.166Z</time>
      </trkpt>
      <trkpt lat="37.44367667" lon="-4.40162">
        <ele>656.0</ele>
        <time>2018-06-09T08:54:08.173Z</time>
      </trkpt>
      <trkpt lat="37.44367667" lon="-4.40162">
        <ele>656.0</ele>
        <time>2018-06-09T08:54:09.187Z</time>
      </trkpt>
      <trkpt lat="37.44369333" lon="-4.40156167">
        <ele>656.0</ele>
        <time>2018-06-09T08:54:10.190Z</time>
      </trkpt>
      <trkpt lat="37.44369333" lon="-4.40156167">
        <ele>656.0</ele>
        <time>2018-06-09T08:54:11.184Z</time>
      </trkpt>
      <trkpt lat="37.443705" lon="-4.40150167">
        <ele>657.0</ele>
        <time>2018-06-09T08:54:12.190Z</time>
      </trkpt>
      <trkpt lat="37.44371" lon="-4.40147167">
        <ele>657.0</ele>
        <time>2018-06-09T08:54:13.196Z</time>
      </trkpt>
      <trkpt lat="37.44371667" lon="-4.40144">
        <ele>657.0</ele>
        <time>2018-06-09T08:54:14.177Z</time>
      </trkpt>
      <trkpt lat="37.44371667" lon="-4.40144">
        <ele>657.0</ele>
        <time>2018-06-09T08:54:15.194Z</time>
      </trkpt>
      <trkpt lat="37.44373167" lon="-4.40137667">
        <ele>657.0</ele>
        <time>2018-06-09T08:54:16.160Z</time>
      </trkpt>
      <trkpt lat="37.44374" lon="-4.40134333">
        <ele>657.0</ele>
        <time>2018-06-09T08:54:17.196Z</time>
      </trkpt>
      <trkpt lat="37.44374" lon="-4.40134333">
        <ele>657.0</ele>
        <time>2018-06-09T08:54:18.170Z</time>
      </trkpt>
      <trkpt lat="37.443755" lon="-4.40127667">
        <ele>658.0</ele>
        <time>2018-06-09T08:54:19.176Z</time>
      </trkpt>
      <trkpt lat="37.44376167" lon="-4.40124167">
        <ele>658.0</ele>
        <time>2018-06-09T08:54:20.157Z</time>
      </trkpt>
      <trkpt lat="37.44376167" lon="-4.40124167">
        <ele>658.0</ele>
        <time>2018-06-09T08:54:21.187Z</time>
      </trkpt>
      <trkpt lat="37.44377333" lon="-4.40117">
        <ele>658.0</ele>
        <time>2018-06-09T08:54:22.193Z</time>
      </trkpt>
      <trkpt lat="37.44377333" lon="-4.40117">
        <ele>658.0</ele>
        <time>2018-06-09T08:54:23.184Z</time>
      </trkpt>
      <trkpt lat="37.443785" lon="-4.401095">
        <ele>658.0</ele>
        <time>2018-06-09T08:54:24.190Z</time>
      </trkpt>
      <trkpt lat="37.443785" lon="-4.401095">
        <ele>658.0</ele>
        <time>2018-06-09T08:54:25.165Z</time>
      </trkpt>
      <trkpt lat="37.44379667" lon="-4.40101833">
        <ele>658.0</ele>
        <time>2018-06-09T08:54:26.175Z</time>
      </trkpt>
      <trkpt lat="37.44379667" lon="-4.40101833">
        <ele>658.0</ele>
        <time>2018-06-09T08:54:27.190Z</time>
      </trkpt>
      <trkpt lat="37.443805" lon="-4.40093833">
        <ele>658.0</ele>
        <time>2018-06-09T08:54:28.159Z</time>
      </trkpt>
      <trkpt lat="37.443805" lon="-4.40093833">
        <ele>658.0</ele>
        <time>2018-06-09T08:54:29.176Z</time>
      </trkpt>
      <trkpt lat="37.44381167" lon="-4.400855">
        <ele>658.0</ele>
        <time>2018-06-09T08:54:30.182Z</time>
      </trkpt>
      <trkpt lat="37.44381333" lon="-4.40081333">
        <ele>658.0</ele>
        <time>2018-06-09T08:54:31.173Z</time>
      </trkpt>
      <trkpt lat="37.443815" lon="-4.40077167">
        <ele>658.0</ele>
        <time>2018-06-09T08:54:32.159Z</time>
      </trkpt>
      <trkpt lat="37.443815" lon="-4.40077167">
        <ele>658.0</ele>
        <time>2018-06-09T08:54:33.188Z</time>
      </trkpt>
      <trkpt lat="37.44381833" lon="-4.400685">
        <ele>658.0</ele>
        <time>2018-06-09T08:54:34.194Z</time>
      </trkpt>
      <trkpt lat="37.44381833" lon="-4.400685">
        <ele>658.0</ele>
        <time>2018-06-09T08:54:35.174Z</time>
      </trkpt>
      <trkpt lat="37.44381833" lon="-4.40059833">
        <ele>658.0</ele>
        <time>2018-06-09T08:54:36.186Z</time>
      </trkpt>
      <trkpt lat="37.44381833" lon="-4.40059833">
        <ele>658.0</ele>
        <time>2018-06-09T08:54:37.166Z</time>
      </trkpt>
      <trkpt lat="37.44381667" lon="-4.40051">
        <ele>658.0</ele>
        <time>2018-06-09T08:54:38.174Z</time>
      </trkpt>
      <trkpt lat="37.44381667" lon="-4.400465">
        <ele>658.0</ele>
        <time>2018-06-09T08:54:39.196Z</time>
      </trkpt>
      <trkpt lat="37.44381667" lon="-4.400465">
        <ele>658.0</ele>
        <time>2018-06-09T08:54:40.184Z</time>
      </trkpt>
      <trkpt lat="37.443815" lon="-4.40037833">
        <ele>659.0</ele>
        <time>2018-06-09T08:54:41.191Z</time>
      </trkpt>
      <trkpt lat="37.443815" lon="-4.40037833">
        <ele>659.0</ele>
        <time>2018-06-09T08:54:42.168Z</time>
      </trkpt>
      <trkpt lat="37.443815" lon="-4.40029167">
        <ele>659.0</ele>
        <time>2018-06-09T08:54:43.170Z</time>
      </trkpt>
      <trkpt lat="37.44381667" lon="-4.40025">
        <ele>659.0</ele>
        <time>2018-06-09T08:54:44.157Z</time>
      </trkpt>
      <trkpt lat="37.44381667" lon="-4.40025">
        <ele>659.0</ele>
        <time>2018-06-09T08:54:45.175Z</time>
      </trkpt>
      <trkpt lat="37.44381667" lon="-4.40016667">
        <ele>659.0</ele>
        <time>2018-06-09T08:54:46.181Z</time>
      </trkpt>
      <trkpt lat="37.44381833" lon="-4.400125">
        <ele>659.0</ele>
        <time>2018-06-09T08:54:47.176Z</time>
      </trkpt>
      <trkpt lat="37.44381833" lon="-4.400125">
        <ele>659.0</ele>
        <time>2018-06-09T08:54:48.182Z</time>
      </trkpt>
      <trkpt lat="37.44382" lon="-4.40004333">
        <ele>659.0</ele>
        <time>2018-06-09T08:54:49.188Z</time>
      </trkpt>
      <trkpt lat="37.44382" lon="-4.400005">
        <ele>659.0</ele>
        <time>2018-06-09T08:54:50.167Z</time>
      </trkpt>
      <trkpt lat="37.44382" lon="-4.400005">
        <ele>659.0</ele>
        <time>2018-06-09T08:54:51.172Z</time>
      </trkpt>
      <trkpt lat="37.443825" lon="-4.39992833">
        <ele>659.0</ele>
        <time>2018-06-09T08:54:52.159Z</time>
      </trkpt>
      <trkpt lat="37.443825" lon="-4.39992833">
        <ele>659.0</ele>
        <time>2018-06-09T08:54:53.196Z</time>
      </trkpt>
      <trkpt lat="37.44383333" lon="-4.39985333">
        <ele>659.0</ele>
        <time>2018-06-09T08:54:54.173Z</time>
      </trkpt>
      <trkpt lat="37.44383667" lon="-4.39981667">
        <ele>660.0</ele>
        <time>2018-06-09T08:54:55.176Z</time>
      </trkpt>
      <trkpt lat="37.44384167" lon="-4.39978">
        <ele>660.0</ele>
        <time>2018-06-09T08:54:56.194Z</time>
      </trkpt>
      <trkpt lat="37.44384167" lon="-4.39978">
        <ele>660.0</ele>
        <time>2018-06-09T08:54:57.173Z</time>
      </trkpt>
      <trkpt lat="37.44385" lon="-4.39970667">
        <ele>660.0</ele>
        <time>2018-06-09T08:54:58.179Z</time>
      </trkpt>
      <trkpt lat="37.44385" lon="-4.39970667">
        <ele>660.0</ele>
        <time>2018-06-09T08:54:59.158Z</time>
      </trkpt>
      <trkpt lat="37.44386167" lon="-4.39963667">
        <ele>660.0</ele>
        <time>2018-06-09T08:55:00.159Z</time>
      </trkpt>
      <trkpt lat="37.44386167" lon="-4.39963667">
        <ele>660.0</ele>
        <time>2018-06-09T08:55:01.170Z</time>
      </trkpt>
      <trkpt lat="37.44387333" lon="-4.39956667">
        <ele>660.0</ele>
        <time>2018-06-09T08:55:02.185Z</time>
      </trkpt>
      <trkpt lat="37.44387333" lon="-4.39956667">
        <ele>660.0</ele>
        <time>2018-06-09T08:55:03.167Z</time>
      </trkpt>
      <trkpt lat="37.44388333" lon="-4.39949667">
        <ele>660.0</ele>
        <time>2018-06-09T08:55:04.159Z</time>
      </trkpt>
      <trkpt lat="37.44388333" lon="-4.39949667">
        <ele>660.0</ele>
        <time>2018-06-09T08:55:05.196Z</time>
      </trkpt>
      <trkpt lat="37.44389333" lon="-4.399425">
        <ele>661.0</ele>
        <time>2018-06-09T08:55:06.167Z</time>
      </trkpt>
      <trkpt lat="37.44389333" lon="-4.399425">
        <ele>661.0</ele>
        <time>2018-06-09T08:55:07.184Z</time>
      </trkpt>
      <trkpt lat="37.44390333" lon="-4.399355">
        <ele>661.0</ele>
        <time>2018-06-09T08:55:08.190Z</time>
      </trkpt>
      <trkpt lat="37.44390333" lon="-4.399355">
        <ele>661.0</ele>
        <time>2018-06-09T08:55:09.176Z</time>
      </trkpt>
      <trkpt lat="37.443915" lon="-4.39928333">
        <ele>661.0</ele>
        <time>2018-06-09T08:55:10.182Z</time>
      </trkpt>
      <trkpt lat="37.443915" lon="-4.39928333">
        <ele>661.0</ele>
        <time>2018-06-09T08:55:11.185Z</time>
      </trkpt>
      <trkpt lat="37.44392333" lon="-4.39921">
        <ele>662.0</ele>
        <time>2018-06-09T08:55:12.159Z</time>
      </trkpt>
      <trkpt lat="37.44392333" lon="-4.39921">
        <ele>662.0</ele>
        <time>2018-06-09T08:55:13.182Z</time>
      </trkpt>
      <trkpt lat="37.44393167" lon="-4.39913667">
        <ele>662.0</ele>
        <time>2018-06-09T08:55:14.188Z</time>
      </trkpt>
      <trkpt lat="37.443935" lon="-4.39910167">
        <ele>662.0</ele>
        <time>2018-06-09T08:55:15.190Z</time>
      </trkpt>
      <trkpt lat="37.443935" lon="-4.39910167">
        <ele>662.0</ele>
        <time>2018-06-09T08:55:16.167Z</time>
      </trkpt>
      <trkpt lat="37.44394167" lon="-4.39903167">
        <ele>662.0</ele>
        <time>2018-06-09T08:55:17.173Z</time>
      </trkpt>
      <trkpt lat="37.44394167" lon="-4.39903167">
        <ele>662.0</ele>
        <time>2018-06-09T08:55:18.194Z</time>
      </trkpt>
      <trkpt lat="37.44395" lon="-4.39896667">
        <ele>662.0</ele>
        <time>2018-06-09T08:55:19.195Z</time>
      </trkpt>
      <trkpt lat="37.44395" lon="-4.39896667">
        <ele>662.0</ele>
        <time>2018-06-09T08:55:20.169Z</time>
      </trkpt>
      <trkpt lat="37.44395333" lon="-4.39890167">
        <ele>663.0</ele>
        <time>2018-06-09T08:55:21.176Z</time>
      </trkpt>
      <trkpt lat="37.44395333" lon="-4.39890167">
        <ele>663.0</ele>
        <time>2018-06-09T08:55:22.193Z</time>
      </trkpt>
      <trkpt lat="37.443955" lon="-4.398835">
        <ele>663.0</ele>
        <time>2018-06-09T08:55:23.158Z</time>
      </trkpt>
      <trkpt lat="37.443955" lon="-4.398835">
        <ele>663.0</ele>
        <time>2018-06-09T08:55:24.187Z</time>
      </trkpt>
      <trkpt lat="37.443955" lon="-4.39877167">
        <ele>663.0</ele>
        <time>2018-06-09T08:55:25.193Z</time>
      </trkpt>
      <trkpt lat="37.44395333" lon="-4.39874">
        <ele>664.0</ele>
        <time>2018-06-09T08:55:26.159Z</time>
      </trkpt>
      <trkpt lat="37.44395333" lon="-4.39874">
        <ele>664.0</ele>
        <time>2018-06-09T08:55:27.167Z</time>
      </trkpt>
      <trkpt lat="37.443955" lon="-4.39868167">
        <ele>664.0</ele>
        <time>2018-06-09T08:55:28.173Z</time>
      </trkpt>
      <trkpt lat="37.443955" lon="-4.39868167">
        <ele>664.0</ele>
        <time>2018-06-09T08:55:29.169Z</time>
      </trkpt>
      <trkpt lat="37.44395167" lon="-4.398625">
        <ele>664.0</ele>
        <time>2018-06-09T08:55:30.159Z</time>
      </trkpt>
      <trkpt lat="37.44395167" lon="-4.398625">
        <ele>664.0</ele>
        <time>2018-06-09T08:55:31.196Z</time>
      </trkpt>
      <trkpt lat="37.44395167" lon="-4.39856667">
        <ele>665.0</ele>
        <time>2018-06-09T08:55:32.168Z</time>
      </trkpt>
      <trkpt lat="37.44395167" lon="-4.39856667">
        <ele>665.0</ele>
        <time>2018-06-09T08:55:33.185Z</time>
      </trkpt>
      <trkpt lat="37.44395167" lon="-4.39851">
        <ele>665.0</ele>
        <time>2018-06-09T08:55:34.170Z</time>
      </trkpt>
      <trkpt lat="37.44395167" lon="-4.39851">
        <ele>665.0</ele>
        <time>2018-06-09T08:55:35.166Z</time>
      </trkpt>
      <trkpt lat="37.44395" lon="-4.39845167">
        <ele>665.0</ele>
        <time>2018-06-09T08:55:36.175Z</time>
      </trkpt>
      <trkpt lat="37.44395" lon="-4.39845167">
        <ele>665.0</ele>
        <time>2018-06-09T08:55:37.185Z</time>
      </trkpt>
      <trkpt lat="37.44395" lon="-4.39839333">
        <ele>666.0</ele>
        <time>2018-06-09T08:55:38.159Z</time>
      </trkpt>
      <trkpt lat="37.44395" lon="-4.39839333">
        <ele>666.0</ele>
        <time>2018-06-09T08:55:39.196Z</time>
      </trkpt>
      <trkpt lat="37.44394833" lon="-4.398335">
        <ele>666.0</ele>
        <time>2018-06-09T08:55:40.164Z</time>
      </trkpt>
      <trkpt lat="37.44394833" lon="-4.398305">
        <ele>666.0</ele>
        <time>2018-06-09T08:55:41.197Z</time>
      </trkpt>
      <trkpt lat="37.44394833" lon="-4.398305">
        <ele>666.0</ele>
        <time>2018-06-09T08:55:42.177Z</time>
      </trkpt>
      <trkpt lat="37.44394833" lon="-4.39824333">
        <ele>666.0</ele>
        <time>2018-06-09T08:55:43.183Z</time>
      </trkpt>
      <trkpt lat="37.44394833" lon="-4.39821333">
        <ele>666.0</ele>
        <time>2018-06-09T08:55:44.159Z</time>
      </trkpt>
      <trkpt lat="37.44394833" lon="-4.39821333">
        <ele>666.0</ele>
        <time>2018-06-09T08:55:45.188Z</time>
      </trkpt>
      <trkpt lat="37.44394833" lon="-4.39815167">
        <ele>667.0</ele>
        <time>2018-06-09T08:55:46.194Z</time>
      </trkpt>
      <trkpt lat="37.44394833" lon="-4.39812167">
        <ele>667.0</ele>
        <time>2018-06-09T08:55:47.196Z</time>
      </trkpt>
      <trkpt lat="37.44394833" lon="-4.39812167">
        <ele>667.0</ele>
        <time>2018-06-09T08:55:48.174Z</time>
      </trkpt>
      <trkpt lat="37.44395167" lon="-4.39806167">
        <ele>667.0</ele>
        <time>2018-06-09T08:55:49.159Z</time>
      </trkpt>
      <trkpt lat="37.443955" lon="-4.39803167">
        <ele>667.0</ele>
        <time>2018-06-09T08:55:50.160Z</time>
      </trkpt>
      <trkpt lat="37.443955" lon="-4.39803167">
        <ele>667.0</ele>
        <time>2018-06-09T08:55:51.178Z</time>
      </trkpt>
      <trkpt lat="37.44395833" lon="-4.39797333">
        <ele>668.0</ele>
        <time>2018-06-09T08:55:52.189Z</time>
      </trkpt>
      <trkpt lat="37.44395833" lon="-4.39797333">
        <ele>668.0</ele>
        <time>2018-06-09T08:55:53.187Z</time>
      </trkpt>
      <trkpt lat="37.443965" lon="-4.397915">
        <ele>668.0</ele>
        <time>2018-06-09T08:55:54.196Z</time>
      </trkpt>
      <trkpt lat="37.44396833" lon="-4.397885">
        <ele>668.0</ele>
        <time>2018-06-09T08:55:55.190Z</time>
      </trkpt>
      <trkpt lat="37.44396833" lon="-4.397885">
        <ele>668.0</ele>
        <time>2018-06-09T08:55:56.185Z</time>
      </trkpt>
      <trkpt lat="37.44397833" lon="-4.39782833">
        <ele>668.0</ele>
        <time>2018-06-09T08:55:57.190Z</time>
      </trkpt>
      <trkpt lat="37.44397833" lon="-4.39782833">
        <ele>668.0</ele>
        <time>2018-06-09T08:55:58.169Z</time>
      </trkpt>
      <trkpt lat="37.44399" lon="-4.39777">
        <ele>669.0</ele>
        <time>2018-06-09T08:55:59.190Z</time>
      </trkpt>
      <trkpt lat="37.44399" lon="-4.39777">
        <ele>669.0</ele>
        <time>2018-06-09T08:56:00.166Z</time>
      </trkpt>
      <trkpt lat="37.44400333" lon="-4.397715">
        <ele>669.0</ele>
        <time>2018-06-09T08:56:01.173Z</time>
      </trkpt>
      <trkpt lat="37.44401" lon="-4.39768667">
        <ele>669.0</ele>
        <time>2018-06-09T08:56:02.195Z</time>
      </trkpt>
      <trkpt lat="37.44401" lon="-4.39768667">
        <ele>669.0</ele>
        <time>2018-06-09T08:56:03.189Z</time>
      </trkpt>
      <trkpt lat="37.444025" lon="-4.39763">
        <ele>670.0</ele>
        <time>2018-06-09T08:56:04.195Z</time>
      </trkpt>
      <trkpt lat="37.444025" lon="-4.39763">
        <ele>670.0</ele>
        <time>2018-06-09T08:56:05.174Z</time>
      </trkpt>
      <trkpt lat="37.44404167" lon="-4.39757167">
        <ele>670.0</ele>
        <time>2018-06-09T08:56:06.184Z</time>
      </trkpt>
      <trkpt lat="37.44404167" lon="-4.39757167">
        <ele>670.0</ele>
        <time>2018-06-09T08:56:07.186Z</time>
      </trkpt>
      <trkpt lat="37.44405833" lon="-4.39752">
        <ele>670.0</ele>
        <time>2018-06-09T08:56:08.192Z</time>
      </trkpt>
      <trkpt lat="37.44405833" lon="-4.39752">
        <ele>670.0</ele>
        <time>2018-06-09T08:56:09.170Z</time>
      </trkpt>
      <trkpt lat="37.44407333" lon="-4.39747">
        <ele>671.0</ele>
        <time>2018-06-09T08:56:10.159Z</time>
      </trkpt>
      <trkpt lat="37.44407333" lon="-4.39747">
        <ele>671.0</ele>
        <time>2018-06-09T08:56:11.187Z</time>
      </trkpt>
      <trkpt lat="37.44408167" lon="-4.39742167">
        <ele>671.0</ele>
        <time>2018-06-09T08:56:12.193Z</time>
      </trkpt>
      <trkpt lat="37.44408833" lon="-4.39739833">
        <ele>671.0</ele>
        <time>2018-06-09T08:56:13.190Z</time>
      </trkpt>
      <trkpt lat="37.44408833" lon="-4.39739833">
        <ele>671.0</ele>
        <time>2018-06-09T08:56:14.189Z</time>
      </trkpt>
      <trkpt lat="37.44410667" lon="-4.39735667">
        <ele>672.0</ele>
        <time>2018-06-09T08:56:15.195Z</time>
      </trkpt>
      <trkpt lat="37.44410667" lon="-4.39735667">
        <ele>672.0</ele>
        <time>2018-06-09T08:56:16.190Z</time>
      </trkpt>
      <trkpt lat="37.44412167" lon="-4.397315">
        <ele>672.0</ele>
        <time>2018-06-09T08:56:17.159Z</time>
      </trkpt>
      <trkpt lat="37.44412167" lon="-4.397315">
        <ele>672.0</ele>
        <time>2018-06-09T08:56:18.186Z</time>
      </trkpt>
      <trkpt lat="37.44413333" lon="-4.39727167">
        <ele>672.0</ele>
        <time>2018-06-09T08:56:19.192Z</time>
      </trkpt>
      <trkpt lat="37.44414" lon="-4.39725">
        <ele>673.0</ele>
        <time>2018-06-09T08:56:20.160Z</time>
      </trkpt>
      <trkpt lat="37.44414" lon="-4.39725">
        <ele>673.0</ele>
        <time>2018-06-09T08:56:21.166Z</time>
      </trkpt>
      <trkpt lat="37.44415167" lon="-4.397205">
        <ele>673.0</ele>
        <time>2018-06-09T08:56:22.174Z</time>
      </trkpt>
      <trkpt lat="37.44415667" lon="-4.39718333">
        <ele>673.0</ele>
        <time>2018-06-09T08:56:23.191Z</time>
      </trkpt>
      <trkpt lat="37.44415667" lon="-4.39718333">
        <ele>673.0</ele>
        <time>2018-06-09T08:56:24.162Z</time>
      </trkpt>
      <trkpt lat="37.44417" lon="-4.39713833">
        <ele>674.0</ele>
        <time>2018-06-09T08:56:25.169Z</time>
      </trkpt>
      <trkpt lat="37.44417667" lon="-4.39711667">
        <ele>674.0</ele>
        <time>2018-06-09T08:56:26.157Z</time>
      </trkpt>
      <trkpt lat="37.44417667" lon="-4.39711667">
        <ele>674.0</ele>
        <time>2018-06-09T08:56:27.167Z</time>
      </trkpt>
      <trkpt lat="37.44418667" lon="-4.39707333">
        <ele>674.0</ele>
        <time>2018-06-09T08:56:28.173Z</time>
      </trkpt>
      <trkpt lat="37.44418667" lon="-4.39707333">
        <ele>674.0</ele>
        <time>2018-06-09T08:56:29.177Z</time>
      </trkpt>
      <trkpt lat="37.44419833" lon="-4.39702833">
        <ele>674.0</ele>
        <time>2018-06-09T08:56:30.189Z</time>
      </trkpt>
      <trkpt lat="37.44419833" lon="-4.39702833">
        <ele>674.0</ele>
        <time>2018-06-09T08:56:31.173Z</time>
      </trkpt>
      <trkpt lat="37.44420667" lon="-4.396985">
        <ele>675.0</ele>
        <time>2018-06-09T08:56:32.180Z</time>
      </trkpt>
      <trkpt lat="37.44420667" lon="-4.396985">
        <ele>675.0</ele>
        <time>2018-06-09T08:56:33.196Z</time>
      </trkpt>
      <trkpt lat="37.44421833" lon="-4.39694167">
        <ele>675.0</ele>
        <time>2018-06-09T08:56:34.181Z</time>
      </trkpt>
      <trkpt lat="37.44422167" lon="-4.39691833">
        <ele>675.0</ele>
        <time>2018-06-09T08:56:35.176Z</time>
      </trkpt>
      <trkpt lat="37.44422167" lon="-4.39691833">
        <ele>675.0</ele>
        <time>2018-06-09T08:56:36.194Z</time>
      </trkpt>
      <trkpt lat="37.44422333" lon="-4.39687167">
        <ele>676.0</ele>
        <time>2018-06-09T08:56:37.174Z</time>
      </trkpt>
      <trkpt lat="37.444225" lon="-4.39684667">
        <ele>676.0</ele>
        <time>2018-06-09T08:56:38.172Z</time>
      </trkpt>
      <trkpt lat="37.444225" lon="-4.39684667">
        <ele>676.0</ele>
        <time>2018-06-09T08:56:39.191Z</time>
      </trkpt>
      <trkpt lat="37.44423333" lon="-4.3968">
        <ele>676.0</ele>
        <time>2018-06-09T08:56:40.158Z</time>
      </trkpt>
      <trkpt lat="37.44423333" lon="-4.3968">
        <ele>676.0</ele>
        <time>2018-06-09T08:56:41.173Z</time>
      </trkpt>
      <trkpt lat="37.44423833" lon="-4.39675833">
        <ele>676.0</ele>
        <time>2018-06-09T08:56:42.187Z</time>
      </trkpt>
      <trkpt lat="37.44423833" lon="-4.39675833">
        <ele>676.0</ele>
        <time>2018-06-09T08:56:43.184Z</time>
      </trkpt>
      <trkpt lat="37.44423833" lon="-4.39671167">
        <ele>677.0</ele>
        <time>2018-06-09T08:56:44.196Z</time>
      </trkpt>
      <trkpt lat="37.44423833" lon="-4.39669">
        <ele>677.0</ele>
        <time>2018-06-09T08:56:45.157Z</time>
      </trkpt>
      <trkpt lat="37.44423833" lon="-4.39669">
        <ele>677.0</ele>
        <time>2018-06-09T08:56:46.161Z</time>
      </trkpt>
      <trkpt lat="37.44424" lon="-4.39664833">
        <ele>677.0</ele>
        <time>2018-06-09T08:56:47.187Z</time>
      </trkpt>
      <trkpt lat="37.44424" lon="-4.39664833">
        <ele>677.0</ele>
        <time>2018-06-09T08:56:48.184Z</time>
      </trkpt>
      <trkpt lat="37.44424" lon="-4.396605">
        <ele>678.0</ele>
        <time>2018-06-09T08:56:49.190Z</time>
      </trkpt>
      <trkpt lat="37.44424167" lon="-4.396585">
        <ele>678.0</ele>
        <time>2018-06-09T08:56:50.191Z</time>
      </trkpt>
      <trkpt lat="37.44424167" lon="-4.396585">
        <ele>678.0</ele>
        <time>2018-06-09T08:56:51.195Z</time>
      </trkpt>
      <trkpt lat="37.44424167" lon="-4.39654333">
        <ele>678.0</ele>
        <time>2018-06-09T08:56:52.163Z</time>
      </trkpt>
      <trkpt lat="37.44424" lon="-4.39652333">
        <ele>678.0</ele>
        <time>2018-06-09T08:56:53.166Z</time>
      </trkpt>
      <trkpt lat="37.44424" lon="-4.39652333">
        <ele>678.0</ele>
        <time>2018-06-09T08:56:54.186Z</time>
      </trkpt>
      <trkpt lat="37.44423833" lon="-4.39648167">
        <ele>679.0</ele>
        <time>2018-06-09T08:56:55.158Z</time>
      </trkpt>
      <trkpt lat="37.44423833" lon="-4.39646">
        <ele>679.0</ele>
        <time>2018-06-09T08:56:56.160Z</time>
      </trkpt>
      <trkpt lat="37.44423833" lon="-4.39646">
        <ele>679.0</ele>
        <time>2018-06-09T08:56:57.176Z</time>
      </trkpt>
      <trkpt lat="37.44423333" lon="-4.39641667">
        <ele>679.0</ele>
        <time>2018-06-09T08:56:58.182Z</time>
      </trkpt>
      <trkpt lat="37.44423167" lon="-4.396395">
        <ele>679.0</ele>
        <time>2018-06-09T08:56:59.160Z</time>
      </trkpt>
      <trkpt lat="37.44423167" lon="-4.396395">
        <ele>679.0</ele>
        <time>2018-06-09T08:57:00.164Z</time>
      </trkpt>
      <trkpt lat="37.44422333" lon="-4.39635167">
        <ele>680.0</ele>
        <time>2018-06-09T08:57:01.172Z</time>
      </trkpt>
      <trkpt lat="37.44421833" lon="-4.39632833">
        <ele>680.0</ele>
        <time>2018-06-09T08:57:02.199Z</time>
      </trkpt>
      <trkpt lat="37.44421833" lon="-4.39632833">
        <ele>680.0</ele>
        <time>2018-06-09T08:57:03.177Z</time>
      </trkpt>
      <trkpt lat="37.44421" lon="-4.39628">
        <ele>680.0</ele>
        <time>2018-06-09T08:57:04.183Z</time>
      </trkpt>
      <trkpt lat="37.44420333" lon="-4.39625833">
        <ele>680.0</ele>
        <time>2018-06-09T08:57:05.194Z</time>
      </trkpt>
      <trkpt lat="37.44420333" lon="-4.39625833">
        <ele>680.0</ele>
        <time>2018-06-09T08:57:06.166Z</time>
      </trkpt>
      <trkpt lat="37.444195" lon="-4.39621333">
        <ele>681.0</ele>
        <time>2018-06-09T08:57:07.173Z</time>
      </trkpt>
      <trkpt lat="37.44419" lon="-4.39619167">
        <ele>681.0</ele>
        <time>2018-06-09T08:57:08.175Z</time>
      </trkpt>
      <trkpt lat="37.44419" lon="-4.39619167">
        <ele>681.0</ele>
        <time>2018-06-09T08:57:09.175Z</time>
      </trkpt>
      <trkpt lat="37.44418" lon="-4.39614667">
        <ele>682.0</ele>
        <time>2018-06-09T08:57:10.181Z</time>
      </trkpt>
      <trkpt lat="37.44417333" lon="-4.39612333">
        <ele>682.0</ele>
        <time>2018-06-09T08:57:11.167Z</time>
      </trkpt>
      <trkpt lat="37.44417333" lon="-4.39612333">
        <ele>682.0</ele>
        <time>2018-06-09T08:57:12.176Z</time>
      </trkpt>
      <trkpt lat="37.44416333" lon="-4.39608167">
        <ele>683.0</ele>
        <time>2018-06-09T08:57:13.181Z</time>
      </trkpt>
      <trkpt lat="37.44415667" lon="-4.39606167">
        <ele>683.0</ele>
        <time>2018-06-09T08:57:14.170Z</time>
      </trkpt>
      <trkpt lat="37.44415667" lon="-4.39606167">
        <ele>683.0</ele>
        <time>2018-06-09T08:57:15.173Z</time>
      </trkpt>
      <trkpt lat="37.44414167" lon="-4.39602">
        <ele>684.0</ele>
        <time>2018-06-09T08:57:16.180Z</time>
      </trkpt>
      <trkpt lat="37.44414167" lon="-4.39602">
        <ele>684.0</ele>
        <time>2018-06-09T08:57:17.158Z</time>
      </trkpt>
      <trkpt lat="37.44412833" lon="-4.39597833">
        <ele>684.0</ele>
        <time>2018-06-09T08:57:18.159Z</time>
      </trkpt>
      <trkpt lat="37.44412833" lon="-4.39597833">
        <ele>684.0</ele>
        <time>2018-06-09T08:57:19.167Z</time>
      </trkpt>
      <trkpt lat="37.44411333" lon="-4.39593833">
        <ele>685.0</ele>
        <time>2018-06-09T08:57:20.177Z</time>
      </trkpt>
      <trkpt lat="37.44411333" lon="-4.39593833">
        <ele>685.0</ele>
        <time>2018-06-09T08:57:21.196Z</time>
      </trkpt>
      <trkpt lat="37.44409667" lon="-4.3959">
        <ele>685.0</ele>
        <time>2018-06-09T08:57:22.157Z</time>
      </trkpt>
      <trkpt lat="37.44409667" lon="-4.3959">
        <ele>685.0</ele>
        <time>2018-06-09T08:57:23.190Z</time>
      </trkpt>
      <trkpt lat="37.44407833" lon="-4.39586333">
        <ele>685.0</ele>
        <time>2018-06-09T08:57:24.196Z</time>
      </trkpt>
      <trkpt lat="37.44406667" lon="-4.395845">
        <ele>685.0</ele>
        <time>2018-06-09T08:57:25.158Z</time>
      </trkpt>
      <trkpt lat="37.44405333" lon="-4.39582833">
        <ele>685.0</ele>
        <time>2018-06-09T08:57:26.166Z</time>
      </trkpt>
      <trkpt lat="37.44405333" lon="-4.39582833">
        <ele>685.0</ele>
        <time>2018-06-09T08:57:27.185Z</time>
      </trkpt>
      <trkpt lat="37.44403167" lon="-4.39579167">
        <ele>685.0</ele>
        <time>2018-06-09T08:57:28.159Z</time>
      </trkpt>
      <trkpt lat="37.44403167" lon="-4.39579167">
        <ele>685.0</ele>
        <time>2018-06-09T08:57:29.176Z</time>
      </trkpt>
      <trkpt lat="37.444005" lon="-4.39575667">
        <ele>686.0</ele>
        <time>2018-06-09T08:57:30.182Z</time>
      </trkpt>
      <trkpt lat="37.44399167" lon="-4.39574">
        <ele>686.0</ele>
        <time>2018-06-09T08:57:31.168Z</time>
      </trkpt>
      <trkpt lat="37.44397833" lon="-4.395725">
        <ele>686.0</ele>
        <time>2018-06-09T08:57:32.171Z</time>
      </trkpt>
      <trkpt lat="37.44397833" lon="-4.395725">
        <ele>686.0</ele>
        <time>2018-06-09T08:57:33.189Z</time>
      </trkpt>
      <trkpt lat="37.44395167" lon="-4.39568833">
        <ele>686.0</ele>
        <time>2018-06-09T08:57:34.163Z</time>
      </trkpt>
      <trkpt lat="37.44394" lon="-4.39566833">
        <ele>686.0</ele>
        <time>2018-06-09T08:57:35.171Z</time>
      </trkpt>
      <trkpt lat="37.44394" lon="-4.39566833">
        <ele>686.0</ele>
        <time>2018-06-09T08:57:36.189Z</time>
      </trkpt>
      <trkpt lat="37.443915" lon="-4.39563333">
        <ele>686.0</ele>
        <time>2018-06-09T08:57:37.195Z</time>
      </trkpt>
      <trkpt lat="37.443915" lon="-4.39563333">
        <ele>686.0</ele>
        <time>2018-06-09T08:57:38.175Z</time>
      </trkpt>
      <trkpt lat="37.44389" lon="-4.39560167">
        <ele>687.0</ele>
        <time>2018-06-09T08:57:39.186Z</time>
      </trkpt>
      <trkpt lat="37.44389" lon="-4.39560167">
        <ele>687.0</ele>
        <time>2018-06-09T08:57:40.189Z</time>
      </trkpt>
      <trkpt lat="37.44386333" lon="-4.39556833">
        <ele>687.0</ele>
        <time>2018-06-09T08:57:41.195Z</time>
      </trkpt>
      <trkpt lat="37.44385167" lon="-4.39555167">
        <ele>687.0</ele>
        <time>2018-06-09T08:57:42.167Z</time>
      </trkpt>
      <trkpt lat="37.44385167" lon="-4.39555167">
        <ele>687.0</ele>
        <time>2018-06-09T08:57:43.195Z</time>
      </trkpt>
      <trkpt lat="37.44382833" lon="-4.395515">
        <ele>687.0</ele>
        <time>2018-06-09T08:57:44.166Z</time>
      </trkpt>
      <trkpt lat="37.443815" lon="-4.39549833">
        <ele>687.0</ele>
        <time>2018-06-09T08:57:45.159Z</time>
      </trkpt>
      <trkpt lat="37.443815" lon="-4.39549833">
        <ele>687.0</ele>
        <time>2018-06-09T08:57:46.157Z</time>
      </trkpt>
      <trkpt lat="37.44378667" lon="-4.39546333">
        <ele>688.0</ele>
        <time>2018-06-09T08:57:47.187Z</time>
      </trkpt>
      <trkpt lat="37.44378667" lon="-4.39546333">
        <ele>688.0</ele>
        <time>2018-06-09T08:57:48.163Z</time>
      </trkpt>
      <trkpt lat="37.44376333" lon="-4.395425">
        <ele>688.0</ele>
        <time>2018-06-09T08:57:49.170Z</time>
      </trkpt>
      <trkpt lat="37.44375" lon="-4.395405">
        <ele>688.0</ele>
        <time>2018-06-09T08:57:50.159Z</time>
      </trkpt>
      <trkpt lat="37.44375" lon="-4.395405">
        <ele>688.0</ele>
        <time>2018-06-09T08:57:51.186Z</time>
      </trkpt>
      <trkpt lat="37.44372333" lon="-4.39537">
        <ele>688.0</ele>
        <time>2018-06-09T08:57:52.192Z</time>
      </trkpt>
      <trkpt lat="37.44371" lon="-4.39535167">
        <ele>688.0</ele>
        <time>2018-06-09T08:57:53.171Z</time>
      </trkpt>
      <trkpt lat="37.443695" lon="-4.395335">
        <ele>689.0</ele>
        <time>2018-06-09T08:57:54.176Z</time>
      </trkpt>
      <trkpt lat="37.443695" lon="-4.395335">
        <ele>689.0</ele>
        <time>2018-06-09T08:57:55.193Z</time>
      </trkpt>
      <trkpt lat="37.44366667" lon="-4.39530167">
        <ele>689.0</ele>
        <time>2018-06-09T08:57:56.166Z</time>
      </trkpt>
      <trkpt lat="37.44365333" lon="-4.395285">
        <ele>689.0</ele>
        <time>2018-06-09T08:57:57.168Z</time>
      </trkpt>
      <trkpt lat="37.44365333" lon="-4.395285">
        <ele>689.0</ele>
        <time>2018-06-09T08:57:58.185Z</time>
      </trkpt>
      <trkpt lat="37.44362667" lon="-4.39524833">
        <ele>689.0</ele>
        <time>2018-06-09T08:57:59.159Z</time>
      </trkpt>
      <trkpt lat="37.44362667" lon="-4.39524833">
        <ele>689.0</ele>
        <time>2018-06-09T08:58:00.177Z</time>
      </trkpt>
      <trkpt lat="37.4436" lon="-4.39521167">
        <ele>689.0</ele>
        <time>2018-06-09T08:58:01.186Z</time>
      </trkpt>
      <trkpt lat="37.4436" lon="-4.39521167">
        <ele>689.0</ele>
        <time>2018-06-09T08:58:02.171Z</time>
      </trkpt>
      <trkpt lat="37.44357333" lon="-4.395175">
        <ele>690.0</ele>
        <time>2018-06-09T08:58:03.197Z</time>
      </trkpt>
      <trkpt lat="37.44357333" lon="-4.395175">
        <ele>690.0</ele>
        <time>2018-06-09T08:58:04.196Z</time>
      </trkpt>
      <trkpt lat="37.443545" lon="-4.39514333">
        <ele>690.0</ele>
        <time>2018-06-09T08:58:05.168Z</time>
      </trkpt>
      <trkpt lat="37.44353167" lon="-4.39512667">
        <ele>690.0</ele>
        <time>2018-06-09T08:58:06.159Z</time>
      </trkpt>
      <trkpt lat="37.44353167" lon="-4.39512667">
        <ele>690.0</ele>
        <time>2018-06-09T08:58:07.196Z</time>
      </trkpt>
      <trkpt lat="37.443505" lon="-4.39509">
        <ele>691.0</ele>
        <time>2018-06-09T08:58:08.165Z</time>
      </trkpt>
      <trkpt lat="37.44349333" lon="-4.39507167">
        <ele>691.0</ele>
        <time>2018-06-09T08:58:09.190Z</time>
      </trkpt>
      <trkpt lat="37.44349333" lon="-4.39507167">
        <ele>691.0</ele>
        <time>2018-06-09T08:58:10.180Z</time>
      </trkpt>
      <trkpt lat="37.44346667" lon="-4.39503667">
        <ele>691.0</ele>
        <time>2018-06-09T08:58:11.187Z</time>
      </trkpt>
      <trkpt lat="37.44346667" lon="-4.39503667">
        <ele>691.0</ele>
        <time>2018-06-09T08:58:12.165Z</time>
      </trkpt>
      <trkpt lat="37.44344333" lon="-4.39500333">
        <ele>691.0</ele>
        <time>2018-06-09T08:58:13.169Z</time>
      </trkpt>
      <trkpt lat="37.44343167" lon="-4.39498833">
        <ele>691.0</ele>
        <time>2018-06-09T08:58:14.192Z</time>
      </trkpt>
      <trkpt lat="37.44343167" lon="-4.39498833">
        <ele>691.0</ele>
        <time>2018-06-09T08:58:15.170Z</time>
      </trkpt>
      <trkpt lat="37.44340667" lon="-4.39495833">
        <ele>692.0</ele>
        <time>2018-06-09T08:58:16.189Z</time>
      </trkpt>
      <trkpt lat="37.44340667" lon="-4.39495833">
        <ele>692.0</ele>
        <time>2018-06-09T08:58:17.176Z</time>
      </trkpt>
      <trkpt lat="37.44338333" lon="-4.39492333">
        <ele>692.0</ele>
        <time>2018-06-09T08:58:18.182Z</time>
      </trkpt>
      <trkpt lat="37.44337167" lon="-4.39490833">
        <ele>692.0</ele>
        <time>2018-06-09T08:58:19.179Z</time>
      </trkpt>
      <trkpt lat="37.44335833" lon="-4.39489">
        <ele>692.0</ele>
        <time>2018-06-09T08:58:20.170Z</time>
      </trkpt>
      <trkpt lat="37.44335833" lon="-4.39489">
        <ele>692.0</ele>
        <time>2018-06-09T08:58:21.186Z</time>
      </trkpt>
      <trkpt lat="37.44333167" lon="-4.39485667">
        <ele>692.0</ele>
        <time>2018-06-09T08:58:22.192Z</time>
      </trkpt>
      <trkpt lat="37.44333167" lon="-4.39485667">
        <ele>692.0</ele>
        <time>2018-06-09T08:58:23.196Z</time>
      </trkpt>
      <trkpt lat="37.44330333" lon="-4.39481833">
        <ele>693.0</ele>
        <time>2018-06-09T08:58:24.163Z</time>
      </trkpt>
      <trkpt lat="37.44330333" lon="-4.39481833">
        <ele>693.0</ele>
        <time>2018-06-09T08:58:25.181Z</time>
      </trkpt>
      <trkpt lat="37.44327333" lon="-4.39477833">
        <ele>693.0</ele>
        <time>2018-06-09T08:58:26.194Z</time>
      </trkpt>
      <trkpt lat="37.44327333" lon="-4.39477833">
        <ele>693.0</ele>
        <time>2018-06-09T08:58:27.191Z</time>
      </trkpt>
      <trkpt lat="37.44324333" lon="-4.39473833">
        <ele>694.0</ele>
        <time>2018-06-09T08:58:28.162Z</time>
      </trkpt>
      <trkpt lat="37.44324333" lon="-4.39473833">
        <ele>694.0</ele>
        <time>2018-06-09T08:58:29.187Z</time>
      </trkpt>
      <trkpt lat="37.44321333" lon="-4.39470167">
        <ele>694.0</ele>
        <time>2018-06-09T08:58:30.198Z</time>
      </trkpt>
      <trkpt lat="37.44321333" lon="-4.39470167">
        <ele>694.0</ele>
        <time>2018-06-09T08:58:31.172Z</time>
      </trkpt>
      <trkpt lat="37.44318167" lon="-4.394665">
        <ele>694.0</ele>
        <time>2018-06-09T08:58:32.180Z</time>
      </trkpt>
      <trkpt lat="37.44318167" lon="-4.394665">
        <ele>694.0</ele>
        <time>2018-06-09T08:58:33.157Z</time>
      </trkpt>
      <trkpt lat="37.44315167" lon="-4.39462833">
        <ele>695.0</ele>
        <time>2018-06-09T08:58:34.189Z</time>
      </trkpt>
      <trkpt lat="37.44315167" lon="-4.39462833">
        <ele>695.0</ele>
        <time>2018-06-09T08:58:35.165Z</time>
      </trkpt>
      <trkpt lat="37.44311833" lon="-4.39459667">
        <ele>695.0</ele>
        <time>2018-06-09T08:58:36.175Z</time>
      </trkpt>
      <trkpt lat="37.4431" lon="-4.39458">
        <ele>695.0</ele>
        <time>2018-06-09T08:58:37.198Z</time>
      </trkpt>
      <trkpt lat="37.44308167" lon="-4.394565">
        <ele>695.0</ele>
        <time>2018-06-09T08:58:38.186Z</time>
      </trkpt>
      <trkpt lat="37.44308167" lon="-4.394565">
        <ele>695.0</ele>
        <time>2018-06-09T08:58:39.167Z</time>
      </trkpt>
      <trkpt lat="37.443045" lon="-4.394535">
        <ele>696.0</ele>
        <time>2018-06-09T08:58:40.179Z</time>
      </trkpt>
      <trkpt lat="37.443045" lon="-4.394535">
        <ele>696.0</ele>
        <time>2018-06-09T08:58:41.173Z</time>
      </trkpt>
      <trkpt lat="37.443005" lon="-4.39451167">
        <ele>696.0</ele>
        <time>2018-06-09T08:58:42.179Z</time>
      </trkpt>
      <trkpt lat="37.443005" lon="-4.39451167">
        <ele>696.0</ele>
        <time>2018-06-09T08:58:43.164Z</time>
      </trkpt>
      <trkpt lat="37.44296667" lon="-4.39449333">
        <ele>696.0</ele>
        <time>2018-06-09T08:58:44.169Z</time>
      </trkpt>
      <trkpt lat="37.44296667" lon="-4.39449333">
        <ele>696.0</ele>
        <time>2018-06-09T08:58:45.176Z</time>
      </trkpt>
      <trkpt lat="37.442925" lon="-4.39447667">
        <ele>696.0</ele>
        <time>2018-06-09T08:58:46.182Z</time>
      </trkpt>
      <trkpt lat="37.442925" lon="-4.39447667">
        <ele>696.0</ele>
        <time>2018-06-09T08:58:47.175Z</time>
      </trkpt>
      <trkpt lat="37.44288333" lon="-4.394465">
        <ele>697.0</ele>
        <time>2018-06-09T08:58:48.179Z</time>
      </trkpt>
      <trkpt lat="37.44288333" lon="-4.394465">
        <ele>697.0</ele>
        <time>2018-06-09T08:58:49.196Z</time>
      </trkpt>
      <trkpt lat="37.44283667" lon="-4.39445833">
        <ele>697.0</ele>
        <time>2018-06-09T08:58:50.170Z</time>
      </trkpt>
      <trkpt lat="37.44283667" lon="-4.39445833">
        <ele>697.0</ele>
        <time>2018-06-09T08:58:51.180Z</time>
      </trkpt>
      <trkpt lat="37.44279167" lon="-4.39445667">
        <ele>697.0</ele>
        <time>2018-06-09T08:58:52.187Z</time>
      </trkpt>
      <trkpt lat="37.44276833" lon="-4.39445667">
        <ele>698.0</ele>
        <time>2018-06-09T08:58:53.168Z</time>
      </trkpt>
      <trkpt lat="37.44276833" lon="-4.39445667">
        <ele>698.0</ele>
        <time>2018-06-09T08:58:54.176Z</time>
      </trkpt>
      <trkpt lat="37.44272333" lon="-4.39446333">
        <ele>698.0</ele>
        <time>2018-06-09T08:58:55.187Z</time>
      </trkpt>
      <trkpt lat="37.4427" lon="-4.39446833">
        <ele>698.0</ele>
        <time>2018-06-09T08:58:56.179Z</time>
      </trkpt>
      <trkpt lat="37.4427" lon="-4.39446833">
        <ele>698.0</ele>
        <time>2018-06-09T08:58:57.188Z</time>
      </trkpt>
      <trkpt lat="37.44265333" lon="-4.39448">
        <ele>699.0</ele>
        <time>2018-06-09T08:58:58.194Z</time>
      </trkpt>
      <trkpt lat="37.44265333" lon="-4.39448">
        <ele>699.0</ele>
        <time>2018-06-09T08:58:59.174Z</time>
      </trkpt>
      <trkpt lat="37.442605" lon="-4.394495">
        <ele>699.0</ele>
        <time>2018-06-09T08:59:00.164Z</time>
      </trkpt>
      <trkpt lat="37.442605" lon="-4.394495">
        <ele>699.0</ele>
        <time>2018-06-09T08:59:01.174Z</time>
      </trkpt>
      <trkpt lat="37.442555" lon="-4.394515">
        <ele>699.0</ele>
        <time>2018-06-09T08:59:02.180Z</time>
      </trkpt>
      <trkpt lat="37.442555" lon="-4.394515">
        <ele>699.0</ele>
        <time>2018-06-09T08:59:03.158Z</time>
      </trkpt>
      <trkpt lat="37.44250333" lon="-4.39454167">
        <ele>700.0</ele>
        <time>2018-06-09T08:59:04.159Z</time>
      </trkpt>
      <trkpt lat="37.44250333" lon="-4.39454167">
        <ele>700.0</ele>
        <time>2018-06-09T08:59:05.185Z</time>
      </trkpt>
      <trkpt lat="37.44245167" lon="-4.39456833">
        <ele>700.0</ele>
        <time>2018-06-09T08:59:06.191Z</time>
      </trkpt>
      <trkpt lat="37.44242667" lon="-4.394585">
        <ele>700.0</ele>
        <time>2018-06-09T08:59:07.190Z</time>
      </trkpt>
      <trkpt lat="37.44242667" lon="-4.394585">
        <ele>700.0</ele>
        <time>2018-06-09T08:59:08.161Z</time>
      </trkpt>
      <trkpt lat="37.44237667" lon="-4.39461667">
        <ele>700.0</ele>
        <time>2018-06-09T08:59:09.168Z</time>
      </trkpt>
      <trkpt lat="37.442355" lon="-4.394635">
        <ele>701.0</ele>
        <time>2018-06-09T08:59:10.190Z</time>
      </trkpt>
      <trkpt lat="37.442355" lon="-4.394635">
        <ele>701.0</ele>
        <time>2018-06-09T08:59:11.196Z</time>
      </trkpt>
      <trkpt lat="37.44231333" lon="-4.394675">
        <ele>701.0</ele>
        <time>2018-06-09T08:59:12.163Z</time>
      </trkpt>
      <trkpt lat="37.44231333" lon="-4.394675">
        <ele>701.0</ele>
        <time>2018-06-09T08:59:13.177Z</time>
      </trkpt>
      <trkpt lat="37.442275" lon="-4.39471667">
        <ele>701.0</ele>
        <time>2018-06-09T08:59:14.159Z</time>
      </trkpt>
      <trkpt lat="37.442275" lon="-4.39471667">
        <ele>701.0</ele>
        <time>2018-06-09T08:59:15.187Z</time>
      </trkpt>
      <trkpt lat="37.44224" lon="-4.39476">
        <ele>702.0</ele>
        <time>2018-06-09T08:59:16.196Z</time>
      </trkpt>
      <trkpt lat="37.442225" lon="-4.39478167">
        <ele>702.0</ele>
        <time>2018-06-09T08:59:17.190Z</time>
      </trkpt>
      <trkpt lat="37.442225" lon="-4.39478167">
        <ele>702.0</ele>
        <time>2018-06-09T08:59:18.195Z</time>
      </trkpt>
      <trkpt lat="37.44219833" lon="-4.39482333">
        <ele>702.0</ele>
        <time>2018-06-09T08:59:19.170Z</time>
      </trkpt>
      <trkpt lat="37.44218333" lon="-4.39484667">
        <ele>703.0</ele>
        <time>2018-06-09T08:59:20.180Z</time>
      </trkpt>
      <trkpt lat="37.44218333" lon="-4.39484667">
        <ele>703.0</ele>
        <time>2018-06-09T08:59:21.183Z</time>
      </trkpt>
      <trkpt lat="37.44215333" lon="-4.39489">
        <ele>703.0</ele>
        <time>2018-06-09T08:59:22.189Z</time>
      </trkpt>
      <trkpt lat="37.44215333" lon="-4.39489">
        <ele>703.0</ele>
        <time>2018-06-09T08:59:23.167Z</time>
      </trkpt>
      <trkpt lat="37.442125" lon="-4.394935">
        <ele>704.0</ele>
        <time>2018-06-09T08:59:24.157Z</time>
      </trkpt>
      <trkpt lat="37.442125" lon="-4.394935">
        <ele>704.0</ele>
        <time>2018-06-09T08:59:25.188Z</time>
      </trkpt>
      <trkpt lat="37.44210333" lon="-4.39498">
        <ele>705.0</ele>
        <time>2018-06-09T08:59:26.195Z</time>
      </trkpt>
      <trkpt lat="37.44210333" lon="-4.39498">
        <ele>705.0</ele>
        <time>2018-06-09T08:59:27.172Z</time>
      </trkpt>
      <trkpt lat="37.44208333" lon="-4.39502333">
        <ele>706.0</ele>
        <time>2018-06-09T08:59:28.157Z</time>
      </trkpt>
      <trkpt lat="37.44208333" lon="-4.39502333">
        <ele>706.0</ele>
        <time>2018-06-09T08:59:29.195Z</time>
      </trkpt>
      <trkpt lat="37.44206333" lon="-4.39507">
        <ele>706.0</ele>
        <time>2018-06-09T08:59:30.167Z</time>
      </trkpt>
      <trkpt lat="37.44205333" lon="-4.39509667">
        <ele>707.0</ele>
        <time>2018-06-09T08:59:31.192Z</time>
      </trkpt>
      <trkpt lat="37.44204167" lon="-4.39512167">
        <ele>707.0</ele>
        <time>2018-06-09T08:59:32.172Z</time>
      </trkpt>
      <trkpt lat="37.44204167" lon="-4.39512167">
        <ele>707.0</ele>
        <time>2018-06-09T08:59:33.191Z</time>
      </trkpt>
      <trkpt lat="37.44202" lon="-4.39517167">
        <ele>708.0</ele>
        <time>2018-06-09T08:59:34.186Z</time>
      </trkpt>
      <trkpt lat="37.44202" lon="-4.39517167">
        <ele>708.0</ele>
        <time>2018-06-09T08:59:35.176Z</time>
      </trkpt>
      <trkpt lat="37.44199833" lon="-4.39522333">
        <ele>708.0</ele>
        <time>2018-06-09T08:59:36.183Z</time>
      </trkpt>
      <trkpt lat="37.44198833" lon="-4.39525">
        <ele>708.0</ele>
        <time>2018-06-09T08:59:37.158Z</time>
      </trkpt>
      <trkpt lat="37.44198833" lon="-4.39525">
        <ele>708.0</ele>
        <time>2018-06-09T08:59:38.196Z</time>
      </trkpt>
      <trkpt lat="37.44196" lon="-4.39530167">
        <ele>708.0</ele>
        <time>2018-06-09T08:59:39.162Z</time>
      </trkpt>
      <trkpt lat="37.441945" lon="-4.395325">
        <ele>708.0</ele>
        <time>2018-06-09T08:59:40.169Z</time>
      </trkpt>
      <trkpt lat="37.441945" lon="-4.395325">
        <ele>708.0</ele>
        <time>2018-06-09T08:59:41.167Z</time>
      </trkpt>
      <trkpt lat="37.44190833" lon="-4.39537">
        <ele>708.0</ele>
        <time>2018-06-09T08:59:42.174Z</time>
      </trkpt>
      <trkpt lat="37.44189" lon="-4.39539333">
        <ele>708.0</ele>
        <time>2018-06-09T08:59:43.170Z</time>
      </trkpt>
      <trkpt lat="37.44186833" lon="-4.39541333">
        <ele>709.0</ele>
        <time>2018-06-09T08:59:44.171Z</time>
      </trkpt>
      <trkpt lat="37.44186833" lon="-4.39541333">
        <ele>709.0</ele>
        <time>2018-06-09T08:59:45.188Z</time>
      </trkpt>
      <trkpt lat="37.44182167" lon="-4.39544667">
        <ele>709.0</ele>
        <time>2018-06-09T08:59:46.168Z</time>
      </trkpt>
      <trkpt lat="37.441795" lon="-4.39546">
        <ele>709.0</ele>
        <time>2018-06-09T08:59:47.176Z</time>
      </trkpt>
      <trkpt lat="37.441795" lon="-4.39546">
        <ele>709.0</ele>
        <time>2018-06-09T08:59:48.181Z</time>
      </trkpt>
      <trkpt lat="37.441745" lon="-4.39548167">
        <ele>709.0</ele>
        <time>2018-06-09T08:59:49.159Z</time>
      </trkpt>
      <trkpt lat="37.44171833" lon="-4.39548833">
        <ele>709.0</ele>
        <time>2018-06-09T08:59:50.178Z</time>
      </trkpt>
      <trkpt lat="37.44171833" lon="-4.39548833">
        <ele>709.0</ele>
        <time>2018-06-09T08:59:51.167Z</time>
      </trkpt>
      <trkpt lat="37.44166833" lon="-4.39549667">
        <ele>709.0</ele>
        <time>2018-06-09T08:59:52.176Z</time>
      </trkpt>
      <trkpt lat="37.44166833" lon="-4.39549667">
        <ele>709.0</ele>
        <time>2018-06-09T08:59:53.192Z</time>
      </trkpt>
      <trkpt lat="37.44161667" lon="-4.395495">
        <ele>709.0</ele>
        <time>2018-06-09T08:59:54.165Z</time>
      </trkpt>
      <trkpt lat="37.44161667" lon="-4.395495">
        <ele>709.0</ele>
        <time>2018-06-09T08:59:55.169Z</time>
      </trkpt>
      <trkpt lat="37.44156333" lon="-4.39548667">
        <ele>709.0</ele>
        <time>2018-06-09T08:59:56.176Z</time>
      </trkpt>
      <trkpt lat="37.44156333" lon="-4.39548667">
        <ele>709.0</ele>
        <time>2018-06-09T08:59:57.187Z</time>
      </trkpt>
      <trkpt lat="37.44151167" lon="-4.39547333">
        <ele>710.0</ele>
        <time>2018-06-09T08:59:58.191Z</time>
      </trkpt>
      <trkpt lat="37.44151167" lon="-4.39547333">
        <ele>710.0</ele>
        <time>2018-06-09T08:59:59.177Z</time>
      </trkpt>
      <trkpt lat="37.44146167" lon="-4.395455">
        <ele>710.0</ele>
        <time>2018-06-09T09:00:00.183Z</time>
      </trkpt>
      <trkpt lat="37.44143667" lon="-4.39544333">
        <ele>710.0</ele>
        <time>2018-06-09T09:00:01.182Z</time>
      </trkpt>
      <trkpt lat="37.44141" lon="-4.39543167">
        <ele>710.0</ele>
        <time>2018-06-09T09:00:02.168Z</time>
      </trkpt>
      <trkpt lat="37.44141" lon="-4.39543167">
        <ele>710.0</ele>
        <time>2018-06-09T09:00:03.186Z</time>
      </trkpt>
      <trkpt lat="37.44135667" lon="-4.39540833">
        <ele>710.0</ele>
        <time>2018-06-09T09:00:04.191Z</time>
      </trkpt>
      <trkpt lat="37.44133" lon="-4.39539833">
        <ele>710.0</ele>
        <time>2018-06-09T09:00:05.188Z</time>
      </trkpt>
      <trkpt lat="37.44133" lon="-4.39539833">
        <ele>710.0</ele>
        <time>2018-06-09T09:00:06.167Z</time>
      </trkpt>
      <trkpt lat="37.44127833" lon="-4.39537833">
        <ele>711.0</ele>
        <time>2018-06-09T09:00:07.179Z</time>
      </trkpt>
      <trkpt lat="37.44127833" lon="-4.39537833">
        <ele>711.0</ele>
        <time>2018-06-09T09:00:08.193Z</time>
      </trkpt>
      <trkpt lat="37.44122833" lon="-4.39536">
        <ele>711.0</ele>
        <time>2018-06-09T09:00:09.162Z</time>
      </trkpt>
      <trkpt lat="37.44122833" lon="-4.39536">
        <ele>711.0</ele>
        <time>2018-06-09T09:00:10.168Z</time>
      </trkpt>
      <trkpt lat="37.44117833" lon="-4.39534667">
        <ele>711.0</ele>
        <time>2018-06-09T09:00:11.177Z</time>
      </trkpt>
      <trkpt lat="37.44115333" lon="-4.39533833">
        <ele>711.0</ele>
        <time>2018-06-09T09:00:12.161Z</time>
      </trkpt>
      <trkpt lat="37.44115333" lon="-4.39533833">
        <ele>711.0</ele>
        <time>2018-06-09T09:00:13.186Z</time>
      </trkpt>
      <trkpt lat="37.44110333" lon="-4.39532833">
        <ele>711.0</ele>
        <time>2018-06-09T09:00:14.193Z</time>
      </trkpt>
      <trkpt lat="37.44107667" lon="-4.39532333">
        <ele>711.0</ele>
        <time>2018-06-09T09:00:15.198Z</time>
      </trkpt>
      <trkpt lat="37.44107667" lon="-4.39532333">
        <ele>711.0</ele>
        <time>2018-06-09T09:00:16.161Z</time>
      </trkpt>
      <trkpt lat="37.44102333" lon="-4.395315">
        <ele>711.0</ele>
        <time>2018-06-09T09:00:17.169Z</time>
      </trkpt>
      <trkpt lat="37.44102333" lon="-4.395315">
        <ele>711.0</ele>
        <time>2018-06-09T09:00:18.186Z</time>
      </trkpt>
      <trkpt lat="37.44097167" lon="-4.39531">
        <ele>711.0</ele>
        <time>2018-06-09T09:00:19.160Z</time>
      </trkpt>
      <trkpt lat="37.440945" lon="-4.39531">
        <ele>711.0</ele>
        <time>2018-06-09T09:00:20.178Z</time>
      </trkpt>
      <trkpt lat="37.440945" lon="-4.39531">
        <ele>711.0</ele>
        <time>2018-06-09T09:00:21.157Z</time>
      </trkpt>
      <trkpt lat="37.44089333" lon="-4.39531167">
        <ele>711.0</ele>
        <time>2018-06-09T09:00:22.191Z</time>
      </trkpt>
      <trkpt lat="37.44089333" lon="-4.39531167">
        <ele>711.0</ele>
        <time>2018-06-09T09:00:23.186Z</time>
      </trkpt>
      <trkpt lat="37.44084333" lon="-4.39531833">
        <ele>712.0</ele>
        <time>2018-06-09T09:00:24.160Z</time>
      </trkpt>
      <trkpt lat="37.44081833" lon="-4.39532167">
        <ele>712.0</ele>
        <time>2018-06-09T09:00:25.157Z</time>
      </trkpt>
      <trkpt lat="37.44081833" lon="-4.39532167">
        <ele>712.0</ele>
        <time>2018-06-09T09:00:26.174Z</time>
      </trkpt>
      <trkpt lat="37.44077167" lon="-4.39533">
        <ele>712.0</ele>
        <time>2018-06-09T09:00:27.180Z</time>
      </trkpt>
      <trkpt lat="37.44077167" lon="-4.39533">
        <ele>712.0</ele>
        <time>2018-06-09T09:00:28.186Z</time>
      </trkpt>
      <trkpt lat="37.44072" lon="-4.39533167">
        <ele>712.0</ele>
        <time>2018-06-09T09:00:29.179Z</time>
      </trkpt>
      <trkpt lat="37.44069333" lon="-4.39533167">
        <ele>713.0</ele>
        <time>2018-06-09T09:00:30.166Z</time>
      </trkpt>
      <trkpt lat="37.44069333" lon="-4.39533167">
        <ele>713.0</ele>
        <time>2018-06-09T09:00:31.192Z</time>
      </trkpt>
      <trkpt lat="37.44064" lon="-4.39533333">
        <ele>713.0</ele>
        <time>2018-06-09T09:00:32.159Z</time>
      </trkpt>
      <trkpt lat="37.44064" lon="-4.39533333">
        <ele>713.0</ele>
        <time>2018-06-09T09:00:33.177Z</time>
      </trkpt>
      <trkpt lat="37.44059167" lon="-4.39533333">
        <ele>714.0</ele>
        <time>2018-06-09T09:00:34.160Z</time>
      </trkpt>
      <trkpt lat="37.44059167" lon="-4.39533333">
        <ele>714.0</ele>
        <time>2018-06-09T09:00:35.183Z</time>
      </trkpt>
      <trkpt lat="37.44054" lon="-4.39533">
        <ele>714.0</ele>
        <time>2018-06-09T09:00:36.190Z</time>
      </trkpt>
      <trkpt lat="37.440515" lon="-4.39532667">
        <ele>714.0</ele>
        <time>2018-06-09T09:00:37.180Z</time>
      </trkpt>
      <trkpt lat="37.440515" lon="-4.39532667">
        <ele>714.0</ele>
        <time>2018-06-09T09:00:38.166Z</time>
      </trkpt>
      <trkpt lat="37.44046" lon="-4.39532333">
        <ele>715.0</ele>
        <time>2018-06-09T09:00:39.173Z</time>
      </trkpt>
      <trkpt lat="37.44043333" lon="-4.39532167">
        <ele>715.0</ele>
        <time>2018-06-09T09:00:40.181Z</time>
      </trkpt>
      <trkpt lat="37.44040667" lon="-4.39531833">
        <ele>715.0</ele>
        <time>2018-06-09T09:00:41.158Z</time>
      </trkpt>
      <trkpt lat="37.44040667" lon="-4.39531833">
        <ele>715.0</ele>
        <time>2018-06-09T09:00:42.175Z</time>
      </trkpt>
      <trkpt lat="37.44035333" lon="-4.39531167">
        <ele>716.0</ele>
        <time>2018-06-09T09:00:43.157Z</time>
      </trkpt>
      <trkpt lat="37.44035333" lon="-4.39531167">
        <ele>716.0</ele>
        <time>2018-06-09T09:00:44.184Z</time>
      </trkpt>
      <trkpt lat="37.44029833" lon="-4.39530167">
        <ele>716.0</ele>
        <time>2018-06-09T09:00:45.190Z</time>
      </trkpt>
      <trkpt lat="37.44029833" lon="-4.39530167">
        <ele>716.0</ele>
        <time>2018-06-09T09:00:46.179Z</time>
      </trkpt>
      <trkpt lat="37.44024667" lon="-4.39528333">
        <ele>716.0</ele>
        <time>2018-06-09T09:00:47.167Z</time>
      </trkpt>
      <trkpt lat="37.44024667" lon="-4.39528333">
        <ele>716.0</ele>
        <time>2018-06-09T09:00:48.194Z</time>
      </trkpt>
      <trkpt lat="37.44019333" lon="-4.39526667">
        <ele>716.0</ele>
        <time>2018-06-09T09:00:49.190Z</time>
      </trkpt>
      <trkpt lat="37.44016833" lon="-4.395255">
        <ele>717.0</ele>
        <time>2018-06-09T09:00:50.169Z</time>
      </trkpt>
      <trkpt lat="37.440145" lon="-4.39524333">
        <ele>717.0</ele>
        <time>2018-06-09T09:00:51.185Z</time>
      </trkpt>
      <trkpt lat="37.440145" lon="-4.39524333">
        <ele>717.0</ele>
        <time>2018-06-09T09:00:52.165Z</time>
      </trkpt>
      <trkpt lat="37.44009667" lon="-4.39522">
        <ele>717.0</ele>
        <time>2018-06-09T09:00:53.172Z</time>
      </trkpt>
      <trkpt lat="37.44009667" lon="-4.39522">
        <ele>717.0</ele>
        <time>2018-06-09T09:00:54.192Z</time>
      </trkpt>
      <trkpt lat="37.44005167" lon="-4.3952">
        <ele>718.0</ele>
        <time>2018-06-09T09:00:55.195Z</time>
      </trkpt>
      <trkpt lat="37.44005167" lon="-4.3952">
        <ele>718.0</ele>
        <time>2018-06-09T09:00:56.194Z</time>
      </trkpt>
      <trkpt lat="37.44001333" lon="-4.39517333">
        <ele>718.0</ele>
        <time>2018-06-09T09:00:57.160Z</time>
      </trkpt>
      <trkpt lat="37.44001333" lon="-4.39517333">
        <ele>718.0</ele>
        <time>2018-06-09T09:00:58.178Z</time>
      </trkpt>
      <trkpt lat="37.439975" lon="-4.395145">
        <ele>718.0</ele>
        <time>2018-06-09T09:00:59.190Z</time>
      </trkpt>
      <trkpt lat="37.439975" lon="-4.395145">
        <ele>718.0</ele>
        <time>2018-06-09T09:01:00.170Z</time>
      </trkpt>
      <trkpt lat="37.43993667" lon="-4.39511333">
        <ele>719.0</ele>
        <time>2018-06-09T09:01:01.176Z</time>
      </trkpt>
      <trkpt lat="37.43991667" lon="-4.39509833">
        <ele>719.0</ele>
        <time>2018-06-09T09:01:02.180Z</time>
      </trkpt>
      <trkpt lat="37.43991667" lon="-4.39509833">
        <ele>719.0</ele>
        <time>2018-06-09T09:01:03.178Z</time>
      </trkpt>
      <trkpt lat="37.43987667" lon="-4.39506667">
        <ele>719.0</ele>
        <time>2018-06-09T09:01:04.184Z</time>
      </trkpt>
      <trkpt lat="37.43985833" lon="-4.39505">
        <ele>720.0</ele>
        <time>2018-06-09T09:01:05.157Z</time>
      </trkpt>
      <trkpt lat="37.43985833" lon="-4.39505">
        <ele>720.0</ele>
        <time>2018-06-09T09:01:06.165Z</time>
      </trkpt>
      <trkpt lat="37.43982167" lon="-4.39501167">
        <ele>720.0</ele>
        <time>2018-06-09T09:01:07.182Z</time>
      </trkpt>
      <trkpt lat="37.43980333" lon="-4.39499167">
        <ele>720.0</ele>
        <time>2018-06-09T09:01:08.167Z</time>
      </trkpt>
      <trkpt lat="37.43980333" lon="-4.39499167">
        <ele>720.0</ele>
        <time>2018-06-09T09:01:09.172Z</time>
      </trkpt>
      <trkpt lat="37.43976667" lon="-4.39495">
        <ele>720.0</ele>
        <time>2018-06-09T09:01:10.178Z</time>
      </trkpt>
      <trkpt lat="37.43975" lon="-4.39492833">
        <ele>720.0</ele>
        <time>2018-06-09T09:01:11.190Z</time>
      </trkpt>
      <trkpt lat="37.43975" lon="-4.39492833">
        <ele>720.0</ele>
        <time>2018-06-09T09:01:12.184Z</time>
      </trkpt>
      <trkpt lat="37.43971833" lon="-4.39487667">
        <ele>720.0</ele>
        <time>2018-06-09T09:01:13.190Z</time>
      </trkpt>
      <trkpt lat="37.43970167" lon="-4.39485167">
        <ele>720.0</ele>
        <time>2018-06-09T09:01:14.190Z</time>
      </trkpt>
      <trkpt lat="37.43970167" lon="-4.39485167">
        <ele>720.0</ele>
        <time>2018-06-09T09:01:15.176Z</time>
      </trkpt>
      <trkpt lat="37.43966667" lon="-4.39480167">
        <ele>720.0</ele>
        <time>2018-06-09T09:01:16.183Z</time>
      </trkpt>
      <trkpt lat="37.43966667" lon="-4.39480167">
        <ele>720.0</ele>
        <time>2018-06-09T09:01:17.176Z</time>
      </trkpt>
      <trkpt lat="37.43963167" lon="-4.39474833">
        <ele>720.0</ele>
        <time>2018-06-09T09:01:18.185Z</time>
      </trkpt>
      <trkpt lat="37.43963167" lon="-4.39474833">
        <ele>720.0</ele>
        <time>2018-06-09T09:01:19.169Z</time>
      </trkpt>
      <trkpt lat="37.43959833" lon="-4.39469">
        <ele>721.0</ele>
        <time>2018-06-09T09:01:20.178Z</time>
      </trkpt>
      <trkpt lat="37.43959833" lon="-4.39469">
        <ele>721.0</ele>
        <time>2018-06-09T09:01:21.196Z</time>
      </trkpt>
      <trkpt lat="37.439565" lon="-4.39463">
        <ele>721.0</ele>
        <time>2018-06-09T09:01:22.191Z</time>
      </trkpt>
      <trkpt lat="37.439565" lon="-4.39463">
        <ele>721.0</ele>
        <time>2018-06-09T09:01:23.172Z</time>
      </trkpt>
      <trkpt lat="37.43953" lon="-4.39457333">
        <ele>721.0</ele>
        <time>2018-06-09T09:01:24.179Z</time>
      </trkpt>
      <trkpt lat="37.439515" lon="-4.39454167">
        <ele>721.0</ele>
        <time>2018-06-09T09:01:25.180Z</time>
      </trkpt>
      <trkpt lat="37.439515" lon="-4.39454167">
        <ele>721.0</ele>
        <time>2018-06-09T09:01:26.158Z</time>
      </trkpt>
      <trkpt lat="37.43948333" lon="-4.39448167">
        <ele>721.0</ele>
        <time>2018-06-09T09:01:27.167Z</time>
      </trkpt>
      <trkpt lat="37.43948333" lon="-4.39448167">
        <ele>721.0</ele>
        <time>2018-06-09T09:01:28.186Z</time>
      </trkpt>
      <trkpt lat="37.43944833" lon="-4.39442333">
        <ele>722.0</ele>
        <time>2018-06-09T09:01:29.167Z</time>
      </trkpt>
      <trkpt lat="37.43943" lon="-4.394395">
        <ele>722.0</ele>
        <time>2018-06-09T09:01:30.182Z</time>
      </trkpt>
      <trkpt lat="37.43943" lon="-4.394395">
        <ele>722.0</ele>
        <time>2018-06-09T09:01:31.159Z</time>
      </trkpt>
      <trkpt lat="37.43939167" lon="-4.394345">
        <ele>722.0</ele>
        <time>2018-06-09T09:01:32.169Z</time>
      </trkpt>
      <trkpt lat="37.439375" lon="-4.39432333">
        <ele>722.0</ele>
        <time>2018-06-09T09:01:33.190Z</time>
      </trkpt>
      <trkpt lat="37.439375" lon="-4.39432333">
        <ele>722.0</ele>
        <time>2018-06-09T09:01:34.196Z</time>
      </trkpt>
      <trkpt lat="37.43934667" lon="-4.39428667">
        <ele>722.0</ele>
        <time>2018-06-09T09:01:35.178Z</time>
      </trkpt>
      <trkpt lat="37.43933333" lon="-4.39427">
        <ele>722.0</ele>
        <time>2018-06-09T09:01:36.180Z</time>
      </trkpt>
      <trkpt lat="37.43933333" lon="-4.39427">
        <ele>722.0</ele>
        <time>2018-06-09T09:01:37.181Z</time>
      </trkpt>
      <trkpt lat="37.43929833" lon="-4.39423333">
        <ele>723.0</ele>
        <time>2018-06-09T09:01:38.188Z</time>
      </trkpt>
      <trkpt lat="37.43929833" lon="-4.39423333">
        <ele>723.0</ele>
        <time>2018-06-09T09:01:39.173Z</time>
      </trkpt>
      <trkpt lat="37.43926333" lon="-4.3942">
        <ele>724.0</ele>
        <time>2018-06-09T09:01:40.161Z</time>
      </trkpt>
      <trkpt lat="37.43926333" lon="-4.3942">
        <ele>724.0</ele>
        <time>2018-06-09T09:01:41.186Z</time>
      </trkpt>
      <trkpt lat="37.439225" lon="-4.39417">
        <ele>725.0</ele>
        <time>2018-06-09T09:01:42.192Z</time>
      </trkpt>
      <trkpt lat="37.439225" lon="-4.39417">
        <ele>725.0</ele>
        <time>2018-06-09T09:01:43.172Z</time>
      </trkpt>
      <trkpt lat="37.43919" lon="-4.394135">
        <ele>725.0</ele>
        <time>2018-06-09T09:01:44.179Z</time>
      </trkpt>
      <trkpt lat="37.43919" lon="-4.394135">
        <ele>725.0</ele>
        <time>2018-06-09T09:01:45.194Z</time>
      </trkpt>
      <trkpt lat="37.439155" lon="-4.39410667">
        <ele>725.0</ele>
        <time>2018-06-09T09:01:46.165Z</time>
      </trkpt>
      <trkpt lat="37.439135" lon="-4.394095">
        <ele>726.0</ele>
        <time>2018-06-09T09:01:47.168Z</time>
      </trkpt>
      <trkpt lat="37.439135" lon="-4.394095">
        <ele>726.0</ele>
        <time>2018-06-09T09:01:48.189Z</time>
      </trkpt>
      <trkpt lat="37.43909833" lon="-4.394075">
        <ele>727.0</ele>
        <time>2018-06-09T09:01:49.195Z</time>
      </trkpt>
      <trkpt lat="37.43908167" lon="-4.39405833">
        <ele>727.0</ele>
        <time>2018-06-09T09:01:50.170Z</time>
      </trkpt>
      <trkpt lat="37.43908167" lon="-4.39405833">
        <ele>727.0</ele>
        <time>2018-06-09T09:01:51.187Z</time>
      </trkpt>
      <trkpt lat="37.43904667" lon="-4.39403">
        <ele>728.0</ele>
        <time>2018-06-09T09:01:52.158Z</time>
      </trkpt>
      <trkpt lat="37.43904667" lon="-4.39403">
        <ele>728.0</ele>
        <time>2018-06-09T09:01:53.185Z</time>
      </trkpt>
      <trkpt lat="37.43901" lon="-4.394005">
        <ele>729.0</ele>
        <time>2018-06-09T09:01:54.193Z</time>
      </trkpt>
      <trkpt lat="37.438995" lon="-4.39398833">
        <ele>728.0</ele>
        <time>2018-06-09T09:01:55.190Z</time>
      </trkpt>
      <trkpt lat="37.438995" lon="-4.39398833">
        <ele>728.0</ele>
        <time>2018-06-09T09:01:56.157Z</time>
      </trkpt>
      <trkpt lat="37.438965" lon="-4.393955">
        <ele>729.0</ele>
        <time>2018-06-09T09:01:57.170Z</time>
      </trkpt>
      <trkpt lat="37.43894667" lon="-4.39393833">
        <ele>729.0</ele>
        <time>2018-06-09T09:01:58.158Z</time>
      </trkpt>
      <trkpt lat="37.43894667" lon="-4.39393833">
        <ele>729.0</ele>
        <time>2018-06-09T09:01:59.167Z</time>
      </trkpt>
      <trkpt lat="37.438905" lon="-4.39391833">
        <ele>730.0</ele>
        <time>2018-06-09T09:02:00.178Z</time>
      </trkpt>
      <trkpt lat="37.438905" lon="-4.39391833">
        <ele>730.0</ele>
        <time>2018-06-09T09:02:01.195Z</time>
      </trkpt>
      <trkpt lat="37.438865" lon="-4.3939">
        <ele>731.0</ele>
        <time>2018-06-09T09:02:02.190Z</time>
      </trkpt>
      <trkpt lat="37.438865" lon="-4.3939">
        <ele>731.0</ele>
        <time>2018-06-09T09:02:03.178Z</time>
      </trkpt>
      <trkpt lat="37.43883" lon="-4.39386833">
        <ele>732.0</ele>
        <time>2018-06-09T09:02:04.184Z</time>
      </trkpt>
      <trkpt lat="37.43883" lon="-4.39386833">
        <ele>732.0</ele>
        <time>2018-06-09T09:02:05.164Z</time>
      </trkpt>
      <trkpt lat="37.43880333" lon="-4.393825">
        <ele>732.0</ele>
        <time>2018-06-09T09:02:06.159Z</time>
      </trkpt>
      <trkpt lat="37.43880333" lon="-4.393825">
        <ele>732.0</ele>
        <time>2018-06-09T09:02:07.177Z</time>
      </trkpt>
      <trkpt lat="37.43877333" lon="-4.39378333">
        <ele>731.0</ele>
        <time>2018-06-09T09:02:08.183Z</time>
      </trkpt>
      <trkpt lat="37.43877333" lon="-4.39378333">
        <ele>731.0</ele>
        <time>2018-06-09T09:02:09.190Z</time>
      </trkpt>
      <trkpt lat="37.43874333" lon="-4.39374333">
        <ele>731.0</ele>
        <time>2018-06-09T09:02:10.196Z</time>
      </trkpt>
      <trkpt lat="37.43873" lon="-4.393725">
        <ele>731.0</ele>
        <time>2018-06-09T09:02:11.179Z</time>
      </trkpt>
      <trkpt lat="37.43873" lon="-4.393725">
        <ele>731.0</ele>
        <time>2018-06-09T09:02:12.196Z</time>
      </trkpt>
      <trkpt lat="37.438705" lon="-4.393685">
        <ele>730.0</ele>
        <time>2018-06-09T09:02:13.162Z</time>
      </trkpt>
      <trkpt lat="37.43869" lon="-4.39366833">
        <ele>731.0</ele>
        <time>2018-06-09T09:02:14.190Z</time>
      </trkpt>
      <trkpt lat="37.43869" lon="-4.39366833">
        <ele>731.0</ele>
        <time>2018-06-09T09:02:15.172Z</time>
      </trkpt>
      <trkpt lat="37.43866333" lon="-4.39363">
        <ele>731.0</ele>
        <time>2018-06-09T09:02:16.179Z</time>
      </trkpt>
      <trkpt lat="37.43866333" lon="-4.39363">
        <ele>731.0</ele>
        <time>2018-06-09T09:02:17.157Z</time>
      </trkpt>
      <trkpt lat="37.43863167" lon="-4.39359333">
        <ele>731.0</ele>
        <time>2018-06-09T09:02:18.199Z</time>
      </trkpt>
      <trkpt lat="37.43863167" lon="-4.39359333">
        <ele>731.0</ele>
        <time>2018-06-09T09:02:19.169Z</time>
      </trkpt>
      <trkpt lat="37.43859667" lon="-4.39356">
        <ele>731.0</ele>
        <time>2018-06-09T09:02:20.175Z</time>
      </trkpt>
      <trkpt lat="37.43859667" lon="-4.39356">
        <ele>731.0</ele>
        <time>2018-06-09T09:02:21.194Z</time>
      </trkpt>
      <trkpt lat="37.43856333" lon="-4.39353">
        <ele>732.0</ele>
        <time>2018-06-09T09:02:22.163Z</time>
      </trkpt>
      <trkpt lat="37.438545" lon="-4.39351667">
        <ele>732.0</ele>
        <time>2018-06-09T09:02:23.180Z</time>
      </trkpt>
      <trkpt lat="37.438545" lon="-4.39351667">
        <ele>732.0</ele>
        <time>2018-06-09T09:02:24.189Z</time>
      </trkpt>
      <trkpt lat="37.43851" lon="-4.393485">
        <ele>732.0</ele>
        <time>2018-06-09T09:02:25.171Z</time>
      </trkpt>
      <trkpt lat="37.43851" lon="-4.393485">
        <ele>732.0</ele>
        <time>2018-06-09T09:02:26.189Z</time>
      </trkpt>
      <trkpt lat="37.43847667" lon="-4.39345833">
        <ele>733.0</ele>
        <time>2018-06-09T09:02:27.159Z</time>
      </trkpt>
      <trkpt lat="37.43847667" lon="-4.39345833">
        <ele>733.0</ele>
        <time>2018-06-09T09:02:28.172Z</time>
      </trkpt>
      <trkpt lat="37.43844333" lon="-4.393435">
        <ele>733.0</ele>
        <time>2018-06-09T09:02:29.178Z</time>
      </trkpt>
      <trkpt lat="37.43842833" lon="-4.393425">
        <ele>733.0</ele>
        <time>2018-06-09T09:02:30.180Z</time>
      </trkpt>
      <trkpt lat="37.43842833" lon="-4.393425">
        <ele>733.0</ele>
        <time>2018-06-09T09:02:31.175Z</time>
      </trkpt>
      <trkpt lat="37.438395" lon="-4.39340833">
        <ele>734.0</ele>
        <time>2018-06-09T09:02:32.181Z</time>
      </trkpt>
      <trkpt lat="37.438395" lon="-4.39340833">
        <ele>734.0</ele>
        <time>2018-06-09T09:02:33.158Z</time>
      </trkpt>
      <trkpt lat="37.43835833" lon="-4.39339167">
        <ele>734.0</ele>
        <time>2018-06-09T09:02:34.159Z</time>
      </trkpt>
      <trkpt lat="37.43835833" lon="-4.39339167">
        <ele>734.0</ele>
        <time>2018-06-09T09:02:35.166Z</time>
      </trkpt>
      <trkpt lat="37.438325" lon="-4.39337667">
        <ele>735.0</ele>
        <time>2018-06-09T09:02:36.173Z</time>
      </trkpt>
      <trkpt lat="37.438325" lon="-4.39337667">
        <ele>735.0</ele>
        <time>2018-06-09T09:02:37.190Z</time>
      </trkpt>
      <trkpt lat="37.43829333" lon="-4.39336167">
        <ele>735.0</ele>
        <time>2018-06-09T09:02:38.196Z</time>
      </trkpt>
      <trkpt lat="37.43829333" lon="-4.39336167">
        <ele>735.0</ele>
        <time>2018-06-09T09:02:39.178Z</time>
      </trkpt>
      <trkpt lat="37.43826" lon="-4.39335">
        <ele>735.0</ele>
        <time>2018-06-09T09:02:40.184Z</time>
      </trkpt>
      <trkpt lat="37.43824167" lon="-4.393345">
        <ele>735.0</ele>
        <time>2018-06-09T09:02:41.167Z</time>
      </trkpt>
      <trkpt lat="37.43824167" lon="-4.393345">
        <ele>735.0</ele>
        <time>2018-06-09T09:02:42.168Z</time>
      </trkpt>
      <trkpt lat="37.438205" lon="-4.39333">
        <ele>736.0</ele>
        <time>2018-06-09T09:02:43.175Z</time>
      </trkpt>
      <trkpt lat="37.43818667" lon="-4.39332333">
        <ele>736.0</ele>
        <time>2018-06-09T09:02:44.179Z</time>
      </trkpt>
      <trkpt lat="37.43818667" lon="-4.39332333">
        <ele>736.0</ele>
        <time>2018-06-09T09:02:45.167Z</time>
      </trkpt>
      <trkpt lat="37.43815" lon="-4.39331167">
        <ele>736.0</ele>
        <time>2018-06-09T09:02:46.175Z</time>
      </trkpt>
      <trkpt lat="37.43815" lon="-4.39331167">
        <ele>736.0</ele>
        <time>2018-06-09T09:02:47.157Z</time>
      </trkpt>
      <trkpt lat="37.43811333" lon="-4.39329833">
        <ele>736.0</ele>
        <time>2018-06-09T09:02:48.169Z</time>
      </trkpt>
      <trkpt lat="37.438095" lon="-4.39329167">
        <ele>736.0</ele>
        <time>2018-06-09T09:02:49.160Z</time>
      </trkpt>
      <trkpt lat="37.438075" lon="-4.39328333">
        <ele>737.0</ele>
        <time>2018-06-09T09:02:50.170Z</time>
      </trkpt>
      <trkpt lat="37.438075" lon="-4.39328333">
        <ele>737.0</ele>
        <time>2018-06-09T09:02:51.187Z</time>
      </trkpt>
      <trkpt lat="37.438035" lon="-4.39326667">
        <ele>737.0</ele>
        <time>2018-06-09T09:02:52.157Z</time>
      </trkpt>
      <trkpt lat="37.438035" lon="-4.39326667">
        <ele>737.0</ele>
        <time>2018-06-09T09:02:53.166Z</time>
      </trkpt>
      <trkpt lat="37.43799333" lon="-4.39325667">
        <ele>737.0</ele>
        <time>2018-06-09T09:02:54.173Z</time>
      </trkpt>
      <trkpt lat="37.43797333" lon="-4.39325333">
        <ele>737.0</ele>
        <time>2018-06-09T09:02:55.176Z</time>
      </trkpt>
      <trkpt lat="37.43797333" lon="-4.39325333">
        <ele>737.0</ele>
        <time>2018-06-09T09:02:56.193Z</time>
      </trkpt>
      <trkpt lat="37.43793667" lon="-4.39324">
        <ele>737.0</ele>
        <time>2018-06-09T09:02:57.161Z</time>
      </trkpt>
      <trkpt lat="37.43793667" lon="-4.39324">
        <ele>737.0</ele>
        <time>2018-06-09T09:02:58.166Z</time>
      </trkpt>
      <trkpt lat="37.43789667" lon="-4.39323">
        <ele>738.0</ele>
        <time>2018-06-09T09:02:59.172Z</time>
      </trkpt>
      <trkpt lat="37.43787667" lon="-4.39322667">
        <ele>738.0</ele>
        <time>2018-06-09T09:03:00.195Z</time>
      </trkpt>
      <trkpt lat="37.43787667" lon="-4.39322667">
        <ele>738.0</ele>
        <time>2018-06-09T09:03:01.178Z</time>
      </trkpt>
      <trkpt lat="37.437835" lon="-4.39321667">
        <ele>738.0</ele>
        <time>2018-06-09T09:03:02.185Z</time>
      </trkpt>
      <trkpt lat="37.437835" lon="-4.39321667">
        <ele>738.0</ele>
        <time>2018-06-09T09:03:03.173Z</time>
      </trkpt>
      <trkpt lat="37.437795" lon="-4.39321">
        <ele>738.0</ele>
        <time>2018-06-09T09:03:04.180Z</time>
      </trkpt>
      <trkpt lat="37.437795" lon="-4.39321">
        <ele>738.0</ele>
        <time>2018-06-09T09:03:05.162Z</time>
      </trkpt>
      <trkpt lat="37.437755" lon="-4.39320333">
        <ele>738.0</ele>
        <time>2018-06-09T09:03:06.169Z</time>
      </trkpt>
      <trkpt lat="37.43773333" lon="-4.3932">
        <ele>738.0</ele>
        <time>2018-06-09T09:03:07.192Z</time>
      </trkpt>
      <trkpt lat="37.43773333" lon="-4.3932">
        <ele>738.0</ele>
        <time>2018-06-09T09:03:08.166Z</time>
      </trkpt>
      <trkpt lat="37.43769333" lon="-4.393195">
        <ele>739.0</ele>
        <time>2018-06-09T09:03:09.173Z</time>
      </trkpt>
      <trkpt lat="37.43767167" lon="-4.393195">
        <ele>739.0</ele>
        <time>2018-06-09T09:03:10.159Z</time>
      </trkpt>
      <trkpt lat="37.43767167" lon="-4.393195">
        <ele>739.0</ele>
        <time>2018-06-09T09:03:11.178Z</time>
      </trkpt>
      <trkpt lat="37.43763" lon="-4.39319167">
        <ele>739.0</ele>
        <time>2018-06-09T09:03:12.184Z</time>
      </trkpt>
      <trkpt lat="37.43760833" lon="-4.39319333">
        <ele>739.0</ele>
        <time>2018-06-09T09:03:13.169Z</time>
      </trkpt>
      <trkpt lat="37.43758667" lon="-4.393195">
        <ele>739.0</ele>
        <time>2018-06-09T09:03:14.169Z</time>
      </trkpt>
      <trkpt lat="37.43758667" lon="-4.393195">
        <ele>739.0</ele>
        <time>2018-06-09T09:03:15.192Z</time>
      </trkpt>
      <trkpt lat="37.43754333" lon="-4.39319833">
        <ele>739.0</ele>
        <time>2018-06-09T09:03:16.174Z</time>
      </trkpt>
      <trkpt lat="37.43752167" lon="-4.3932">
        <ele>739.0</ele>
        <time>2018-06-09T09:03:17.170Z</time>
      </trkpt>
      <trkpt lat="37.43752167" lon="-4.3932">
        <ele>739.0</ele>
        <time>2018-06-09T09:03:18.189Z</time>
      </trkpt>
      <trkpt lat="37.43748" lon="-4.39320167">
        <ele>739.0</ele>
        <time>2018-06-09T09:03:19.159Z</time>
      </trkpt>
      <trkpt lat="37.43748" lon="-4.39320167">
        <ele>739.0</ele>
        <time>2018-06-09T09:03:20.167Z</time>
      </trkpt>
      <trkpt lat="37.43743833" lon="-4.39320167">
        <ele>740.0</ele>
        <time>2018-06-09T09:03:21.173Z</time>
      </trkpt>
      <trkpt lat="37.43741833" lon="-4.39320333">
        <ele>740.0</ele>
        <time>2018-06-09T09:03:22.169Z</time>
      </trkpt>
      <trkpt lat="37.43741833" lon="-4.39320333">
        <ele>740.0</ele>
        <time>2018-06-09T09:03:23.166Z</time>
      </trkpt>
      <trkpt lat="37.43738167" lon="-4.39320333">
        <ele>740.0</ele>
        <time>2018-06-09T09:03:24.172Z</time>
      </trkpt>
      <trkpt lat="37.437365" lon="-4.393205">
        <ele>740.0</ele>
        <time>2018-06-09T09:03:25.157Z</time>
      </trkpt>
      <trkpt lat="37.437365" lon="-4.393205">
        <ele>740.0</ele>
        <time>2018-06-09T09:03:26.177Z</time>
      </trkpt>
      <trkpt lat="37.437325" lon="-4.393205">
        <ele>740.0</ele>
        <time>2018-06-09T09:03:27.191Z</time>
      </trkpt>
      <trkpt lat="37.437325" lon="-4.393205">
        <ele>740.0</ele>
        <time>2018-06-09T09:03:28.175Z</time>
      </trkpt>
      <trkpt lat="37.43728" lon="-4.39321">
        <ele>740.0</ele>
        <time>2018-06-09T09:03:29.159Z</time>
      </trkpt>
      <trkpt lat="37.43728" lon="-4.39321">
        <ele>740.0</ele>
        <time>2018-06-09T09:03:30.192Z</time>
      </trkpt>
      <trkpt lat="37.43724167" lon="-4.39321">
        <ele>741.0</ele>
        <time>2018-06-09T09:03:31.159Z</time>
      </trkpt>
      <trkpt lat="37.43722" lon="-4.39321167">
        <ele>741.0</ele>
        <time>2018-06-09T09:03:32.159Z</time>
      </trkpt>
      <trkpt lat="37.43722" lon="-4.39321167">
        <ele>741.0</ele>
        <time>2018-06-09T09:03:33.186Z</time>
      </trkpt>
      <trkpt lat="37.437175" lon="-4.393215">
        <ele>741.0</ele>
        <time>2018-06-09T09:03:34.196Z</time>
      </trkpt>
      <trkpt lat="37.437175" lon="-4.393215">
        <ele>741.0</ele>
        <time>2018-06-09T09:03:35.176Z</time>
      </trkpt>
      <trkpt lat="37.43712833" lon="-4.39321667">
        <ele>742.0</ele>
        <time>2018-06-09T09:03:36.159Z</time>
      </trkpt>
      <trkpt lat="37.43712833" lon="-4.39321667">
        <ele>742.0</ele>
        <time>2018-06-09T09:03:37.167Z</time>
      </trkpt>
      <trkpt lat="37.437085" lon="-4.39322333">
        <ele>742.0</ele>
        <time>2018-06-09T09:03:38.179Z</time>
      </trkpt>
      <trkpt lat="37.437085" lon="-4.39322333">
        <ele>742.0</ele>
        <time>2018-06-09T09:03:39.158Z</time>
      </trkpt>
      <trkpt lat="37.43704333" lon="-4.39322333">
        <ele>743.0</ele>
        <time>2018-06-09T09:03:40.160Z</time>
      </trkpt>
      <trkpt lat="37.43704333" lon="-4.39322333">
        <ele>743.0</ele>
        <time>2018-06-09T09:03:41.194Z</time>
      </trkpt>
      <trkpt lat="37.43700167" lon="-4.39321833">
        <ele>744.0</ele>
        <time>2018-06-09T09:03:42.162Z</time>
      </trkpt>
      <trkpt lat="37.43698" lon="-4.39322">
        <ele>744.0</ele>
        <time>2018-06-09T09:03:43.184Z</time>
      </trkpt>
      <trkpt lat="37.43698" lon="-4.39322">
        <ele>744.0</ele>
        <time>2018-06-09T09:03:44.164Z</time>
      </trkpt>
      <trkpt lat="37.43693833" lon="-4.39322167">
        <ele>745.0</ele>
        <time>2018-06-09T09:03:45.170Z</time>
      </trkpt>
      <trkpt lat="37.43693833" lon="-4.39322167">
        <ele>745.0</ele>
        <time>2018-06-09T09:03:46.189Z</time>
      </trkpt>
      <trkpt lat="37.43689667" lon="-4.39323167">
        <ele>745.0</ele>
        <time>2018-06-09T09:03:47.179Z</time>
      </trkpt>
      <trkpt lat="37.43689667" lon="-4.39323167">
        <ele>745.0</ele>
        <time>2018-06-09T09:03:48.166Z</time>
      </trkpt>
      <trkpt lat="37.43685667" lon="-4.39323167">
        <ele>746.0</ele>
        <time>2018-06-09T09:03:49.160Z</time>
      </trkpt>
      <trkpt lat="37.436835" lon="-4.393225">
        <ele>746.0</ele>
        <time>2018-06-09T09:03:50.190Z</time>
      </trkpt>
      <trkpt lat="37.436835" lon="-4.393225">
        <ele>746.0</ele>
        <time>2018-06-09T09:03:51.169Z</time>
      </trkpt>
      <trkpt lat="37.43679333" lon="-4.39321667">
        <ele>746.0</ele>
        <time>2018-06-09T09:03:52.157Z</time>
      </trkpt>
      <trkpt lat="37.43679333" lon="-4.39321667">
        <ele>746.0</ele>
        <time>2018-06-09T09:03:53.193Z</time>
      </trkpt>
      <trkpt lat="37.43674833" lon="-4.39320667">
        <ele>746.0</ele>
        <time>2018-06-09T09:03:54.160Z</time>
      </trkpt>
      <trkpt lat="37.43672333" lon="-4.39320167">
        <ele>746.0</ele>
        <time>2018-06-09T09:03:55.190Z</time>
      </trkpt>
      <trkpt lat="37.43672333" lon="-4.39320167">
        <ele>746.0</ele>
        <time>2018-06-09T09:03:56.179Z</time>
      </trkpt>
      <trkpt lat="37.43667833" lon="-4.393195">
        <ele>747.0</ele>
        <time>2018-06-09T09:03:57.185Z</time>
      </trkpt>
      <trkpt lat="37.43667833" lon="-4.393195">
        <ele>747.0</ele>
        <time>2018-06-09T09:03:58.172Z</time>
      </trkpt>
      <trkpt lat="37.436635" lon="-4.39317833">
        <ele>747.0</ele>
        <time>2018-06-09T09:03:59.169Z</time>
      </trkpt>
      <trkpt lat="37.436635" lon="-4.39317833">
        <ele>747.0</ele>
        <time>2018-06-09T09:04:00.167Z</time>
      </trkpt>
      <trkpt lat="37.43659833" lon="-4.39315333">
        <ele>747.0</ele>
        <time>2018-06-09T09:04:01.173Z</time>
      </trkpt>
      <trkpt lat="37.43659833" lon="-4.39315333">
        <ele>747.0</ele>
        <time>2018-06-09T09:04:02.192Z</time>
      </trkpt>
      <trkpt lat="37.43656167" lon="-4.39312">
        <ele>748.0</ele>
        <time>2018-06-09T09:04:03.160Z</time>
      </trkpt>
      <trkpt lat="37.43656167" lon="-4.39312">
        <ele>748.0</ele>
        <time>2018-06-09T09:04:04.197Z</time>
      </trkpt>
      <trkpt lat="37.43652833" lon="-4.39309667">
        <ele>748.0</ele>
        <time>2018-06-09T09:04:05.166Z</time>
      </trkpt>
      <trkpt lat="37.43652833" lon="-4.39309667">
        <ele>748.0</ele>
        <time>2018-06-09T09:04:06.183Z</time>
      </trkpt>
      <trkpt lat="37.436495" lon="-4.39307833">
        <ele>749.0</ele>
        <time>2018-06-09T09:04:07.170Z</time>
      </trkpt>
      <trkpt lat="37.436495" lon="-4.39307833">
        <ele>749.0</ele>
        <time>2018-06-09T09:04:08.196Z</time>
      </trkpt>
      <trkpt lat="37.43646" lon="-4.39305333">
        <ele>749.0</ele>
        <time>2018-06-09T09:04:09.166Z</time>
      </trkpt>
      <trkpt lat="37.43644167" lon="-4.39304333">
        <ele>750.0</ele>
        <time>2018-06-09T09:04:10.178Z</time>
      </trkpt>
      <trkpt lat="37.43644167" lon="-4.39304333">
        <ele>750.0</ele>
        <time>2018-06-09T09:04:11.168Z</time>
      </trkpt>
      <trkpt lat="37.43640167" lon="-4.39302167">
        <ele>750.0</ele>
        <time>2018-06-09T09:04:12.179Z</time>
      </trkpt>
      <trkpt lat="37.43640167" lon="-4.39302167">
        <ele>750.0</ele>
        <time>2018-06-09T09:04:13.196Z</time>
      </trkpt>
      <trkpt lat="37.43636167" lon="-4.39299833">
        <ele>750.0</ele>
        <time>2018-06-09T09:04:14.170Z</time>
      </trkpt>
      <trkpt lat="37.43636167" lon="-4.39299833">
        <ele>750.0</ele>
        <time>2018-06-09T09:04:15.196Z</time>
      </trkpt>
      <trkpt lat="37.43632" lon="-4.39297333">
        <ele>751.0</ele>
        <time>2018-06-09T09:04:16.165Z</time>
      </trkpt>
      <trkpt lat="37.43629833" lon="-4.39296333">
        <ele>751.0</ele>
        <time>2018-06-09T09:04:17.191Z</time>
      </trkpt>
      <trkpt lat="37.43629833" lon="-4.39296333">
        <ele>751.0</ele>
        <time>2018-06-09T09:04:18.158Z</time>
      </trkpt>
      <trkpt lat="37.43625667" lon="-4.39294">
        <ele>752.0</ele>
        <time>2018-06-09T09:04:19.168Z</time>
      </trkpt>
      <trkpt lat="37.436235" lon="-4.39292667">
        <ele>752.0</ele>
        <time>2018-06-09T09:04:20.205Z</time>
      </trkpt>
      <trkpt lat="37.436235" lon="-4.39292667">
        <ele>752.0</ele>
        <time>2018-06-09T09:04:21.181Z</time>
      </trkpt>
      <trkpt lat="37.43618833" lon="-4.39290833">
        <ele>753.0</ele>
        <time>2018-06-09T09:04:22.190Z</time>
      </trkpt>
      <trkpt lat="37.43616667" lon="-4.39290167">
        <ele>753.0</ele>
        <time>2018-06-09T09:04:23.195Z</time>
      </trkpt>
      <trkpt lat="37.43616667" lon="-4.39290167">
        <ele>753.0</ele>
        <time>2018-06-09T09:04:24.173Z</time>
      </trkpt>
      <trkpt lat="37.43612167" lon="-4.392895">
        <ele>753.0</ele>
        <time>2018-06-09T09:04:25.159Z</time>
      </trkpt>
      <trkpt lat="37.43609833" lon="-4.39288833">
        <ele>753.0</ele>
        <time>2018-06-09T09:04:26.158Z</time>
      </trkpt>
      <trkpt lat="37.43609833" lon="-4.39288833">
        <ele>753.0</ele>
        <time>2018-06-09T09:04:27.176Z</time>
      </trkpt>
      <trkpt lat="37.43605167" lon="-4.39287833">
        <ele>753.0</ele>
        <time>2018-06-09T09:04:28.182Z</time>
      </trkpt>
      <trkpt lat="37.43605167" lon="-4.39287833">
        <ele>753.0</ele>
        <time>2018-06-09T09:04:29.169Z</time>
      </trkpt>
      <trkpt lat="37.436005" lon="-4.39287667">
        <ele>752.0</ele>
        <time>2018-06-09T09:04:30.175Z</time>
      </trkpt>
      <trkpt lat="37.436005" lon="-4.39287667">
        <ele>752.0</ele>
        <time>2018-06-09T09:04:31.194Z</time>
      </trkpt>
      <trkpt lat="37.435955" lon="-4.39288167">
        <ele>753.0</ele>
        <time>2018-06-09T09:04:32.159Z</time>
      </trkpt>
      <trkpt lat="37.435955" lon="-4.39288167">
        <ele>753.0</ele>
        <time>2018-06-09T09:04:33.168Z</time>
      </trkpt>
      <trkpt lat="37.43590833" lon="-4.39288667">
        <ele>753.0</ele>
        <time>2018-06-09T09:04:34.177Z</time>
      </trkpt>
      <trkpt lat="37.43588333" lon="-4.39289167">
        <ele>753.0</ele>
        <time>2018-06-09T09:04:35.159Z</time>
      </trkpt>
      <trkpt lat="37.43588333" lon="-4.39289167">
        <ele>753.0</ele>
        <time>2018-06-09T09:04:36.187Z</time>
      </trkpt>
      <trkpt lat="37.43583833" lon="-4.39290167">
        <ele>753.0</ele>
        <time>2018-06-09T09:04:37.195Z</time>
      </trkpt>
      <trkpt lat="37.43583833" lon="-4.39290167">
        <ele>753.0</ele>
        <time>2018-06-09T09:04:38.173Z</time>
      </trkpt>
      <trkpt lat="37.43579167" lon="-4.39291833">
        <ele>753.0</ele>
        <time>2018-06-09T09:04:39.160Z</time>
      </trkpt>
      <trkpt lat="37.43579167" lon="-4.39291833">
        <ele>753.0</ele>
        <time>2018-06-09T09:04:40.188Z</time>
      </trkpt>
      <trkpt lat="37.43574333" lon="-4.39293">
        <ele>754.0</ele>
        <time>2018-06-09T09:04:41.195Z</time>
      </trkpt>
      <trkpt lat="37.43572333" lon="-4.39293333">
        <ele>754.0</ele>
        <time>2018-06-09T09:04:42.159Z</time>
      </trkpt>
      <trkpt lat="37.43570167" lon="-4.39293667">
        <ele>755.0</ele>
        <time>2018-06-09T09:04:43.170Z</time>
      </trkpt>
      <trkpt lat="37.43570167" lon="-4.39293667">
        <ele>755.0</ele>
        <time>2018-06-09T09:04:44.188Z</time>
      </trkpt>
      <trkpt lat="37.43566333" lon="-4.392955">
        <ele>755.0</ele>
        <time>2018-06-09T09:04:45.159Z</time>
      </trkpt>
      <trkpt lat="37.43566333" lon="-4.392955">
        <ele>755.0</ele>
        <time>2018-06-09T09:04:46.181Z</time>
      </trkpt>
      <trkpt lat="37.43562667" lon="-4.392965">
        <ele>756.0</ele>
        <time>2018-06-09T09:04:47.194Z</time>
      </trkpt>
      <trkpt lat="37.43562667" lon="-4.392965">
        <ele>756.0</ele>
        <time>2018-06-09T09:04:48.172Z</time>
      </trkpt>
      <trkpt lat="37.43558833" lon="-4.39297667">
        <ele>756.0</ele>
        <time>2018-06-09T09:04:49.179Z</time>
      </trkpt>
      <trkpt lat="37.43556833" lon="-4.39298167">
        <ele>757.0</ele>
        <time>2018-06-09T09:04:50.164Z</time>
      </trkpt>
      <trkpt lat="37.43556833" lon="-4.39298167">
        <ele>757.0</ele>
        <time>2018-06-09T09:04:51.170Z</time>
      </trkpt>
      <trkpt lat="37.43552833" lon="-4.39298833">
        <ele>757.0</ele>
        <time>2018-06-09T09:04:52.177Z</time>
      </trkpt>
      <trkpt lat="37.43552833" lon="-4.39298833">
        <ele>757.0</ele>
        <time>2018-06-09T09:04:53.196Z</time>
      </trkpt>
      <trkpt lat="37.43549" lon="-4.39299333">
        <ele>758.0</ele>
        <time>2018-06-09T09:04:54.167Z</time>
      </trkpt>
      <trkpt lat="37.43549" lon="-4.39299333">
        <ele>758.0</ele>
        <time>2018-06-09T09:04:55.196Z</time>
      </trkpt>
      <trkpt lat="37.43545" lon="-4.39299167">
        <ele>758.0</ele>
        <time>2018-06-09T09:04:56.169Z</time>
      </trkpt>
      <trkpt lat="37.43545" lon="-4.39299167">
        <ele>758.0</ele>
        <time>2018-06-09T09:04:57.187Z</time>
      </trkpt>
      <trkpt lat="37.43541" lon="-4.39299">
        <ele>758.0</ele>
        <time>2018-06-09T09:04:58.173Z</time>
      </trkpt>
      <trkpt lat="37.43541" lon="-4.39299">
        <ele>758.0</ele>
        <time>2018-06-09T09:04:59.183Z</time>
      </trkpt>
      <trkpt lat="37.43536833" lon="-4.39298667">
        <ele>759.0</ele>
        <time>2018-06-09T09:05:00.189Z</time>
      </trkpt>
      <trkpt lat="37.43536833" lon="-4.39298667">
        <ele>759.0</ele>
        <time>2018-06-09T09:05:01.167Z</time>
      </trkpt>
      <trkpt lat="37.43532833" lon="-4.39298333">
        <ele>759.0</ele>
        <time>2018-06-09T09:05:02.157Z</time>
      </trkpt>
      <trkpt lat="37.43532833" lon="-4.39298333">
        <ele>759.0</ele>
        <time>2018-06-09T09:05:03.187Z</time>
      </trkpt>
      <trkpt lat="37.435285" lon="-4.39298">
        <ele>760.0</ele>
        <time>2018-06-09T09:05:04.193Z</time>
      </trkpt>
      <trkpt lat="37.43526333" lon="-4.392975">
        <ele>760.0</ele>
        <time>2018-06-09T09:05:05.165Z</time>
      </trkpt>
      <trkpt lat="37.43526333" lon="-4.392975">
        <ele>760.0</ele>
        <time>2018-06-09T09:05:06.182Z</time>
      </trkpt>
      <trkpt lat="37.43521667" lon="-4.39296667">
        <ele>760.0</ele>
        <time>2018-06-09T09:05:07.188Z</time>
      </trkpt>
      <trkpt lat="37.43519167" lon="-4.39296167">
        <ele>760.0</ele>
        <time>2018-06-09T09:05:08.159Z</time>
      </trkpt>
      <trkpt lat="37.43519167" lon="-4.39296167">
        <ele>760.0</ele>
        <time>2018-06-09T09:05:09.192Z</time>
      </trkpt>
      <trkpt lat="37.43514" lon="-4.39294667">
        <ele>760.0</ele>
        <time>2018-06-09T09:05:10.157Z</time>
      </trkpt>
      <trkpt lat="37.43511333" lon="-4.39294">
        <ele>760.0</ele>
        <time>2018-06-09T09:05:11.176Z</time>
      </trkpt>
      <trkpt lat="37.43508667" lon="-4.39293333">
        <ele>761.0</ele>
        <time>2018-06-09T09:05:12.188Z</time>
      </trkpt>
      <trkpt lat="37.43508667" lon="-4.39293333">
        <ele>761.0</ele>
        <time>2018-06-09T09:05:13.168Z</time>
      </trkpt>
      <trkpt lat="37.43503" lon="-4.39292167">
        <ele>761.0</ele>
        <time>2018-06-09T09:05:14.178Z</time>
      </trkpt>
      <trkpt lat="37.43500167" lon="-4.39291333">
        <ele>761.0</ele>
        <time>2018-06-09T09:05:15.157Z</time>
      </trkpt>
      <trkpt lat="37.43500167" lon="-4.39291333">
        <ele>761.0</ele>
        <time>2018-06-09T09:05:16.173Z</time>
      </trkpt>
      <trkpt lat="37.43494667" lon="-4.3929">
        <ele>761.0</ele>
        <time>2018-06-09T09:05:17.190Z</time>
      </trkpt>
      <trkpt lat="37.43494667" lon="-4.3929">
        <ele>761.0</ele>
        <time>2018-06-09T09:05:18.172Z</time>
      </trkpt>
      <trkpt lat="37.43488667" lon="-4.39289667">
        <ele>761.0</ele>
        <time>2018-06-09T09:05:19.178Z</time>
      </trkpt>
      <trkpt lat="37.43488667" lon="-4.39289667">
        <ele>761.0</ele>
        <time>2018-06-09T09:05:20.195Z</time>
      </trkpt>
      <trkpt lat="37.43482167" lon="-4.39289833">
        <ele>761.0</ele>
        <time>2018-06-09T09:05:21.159Z</time>
      </trkpt>
      <trkpt lat="37.43482167" lon="-4.39289833">
        <ele>761.0</ele>
        <time>2018-06-09T09:05:22.188Z</time>
      </trkpt>
      <trkpt lat="37.43475167" lon="-4.3929">
        <ele>760.0</ele>
        <time>2018-06-09T09:05:23.194Z</time>
      </trkpt>
      <trkpt lat="37.43475167" lon="-4.3929">
        <ele>760.0</ele>
        <time>2018-06-09T09:05:24.171Z</time>
      </trkpt>
      <trkpt lat="37.43467833" lon="-4.392895">
        <ele>760.0</ele>
        <time>2018-06-09T09:05:25.170Z</time>
      </trkpt>
      <trkpt lat="37.43467833" lon="-4.392895">
        <ele>760.0</ele>
        <time>2018-06-09T09:05:26.175Z</time>
      </trkpt>
      <trkpt lat="37.43460333" lon="-4.39289333">
        <ele>760.0</ele>
        <time>2018-06-09T09:05:27.180Z</time>
      </trkpt>
      <trkpt lat="37.43460333" lon="-4.39289333">
        <ele>760.0</ele>
        <time>2018-06-09T09:05:28.158Z</time>
      </trkpt>
      <trkpt lat="37.434525" lon="-4.392895">
        <ele>760.0</ele>
        <time>2018-06-09T09:05:29.157Z</time>
      </trkpt>
      <trkpt lat="37.434525" lon="-4.392895">
        <ele>760.0</ele>
        <time>2018-06-09T09:05:30.183Z</time>
      </trkpt>
      <trkpt lat="37.434445" lon="-4.39289833">
        <ele>761.0</ele>
        <time>2018-06-09T09:05:31.190Z</time>
      </trkpt>
      <trkpt lat="37.434445" lon="-4.39289833">
        <ele>761.0</ele>
        <time>2018-06-09T09:05:32.170Z</time>
      </trkpt>
      <trkpt lat="37.43436333" lon="-4.3929">
        <ele>760.0</ele>
        <time>2018-06-09T09:05:33.189Z</time>
      </trkpt>
      <trkpt lat="37.43436333" lon="-4.3929">
        <ele>760.0</ele>
        <time>2018-06-09T09:05:34.166Z</time>
      </trkpt>
      <trkpt lat="37.43427667" lon="-4.39290167">
        <ele>760.0</ele>
        <time>2018-06-09T09:05:35.176Z</time>
      </trkpt>
      <trkpt lat="37.43427667" lon="-4.39290167">
        <ele>760.0</ele>
        <time>2018-06-09T09:05:36.194Z</time>
      </trkpt>
      <trkpt lat="37.434185" lon="-4.392895">
        <ele>760.0</ele>
        <time>2018-06-09T09:05:37.165Z</time>
      </trkpt>
      <trkpt lat="37.434185" lon="-4.392895">
        <ele>760.0</ele>
        <time>2018-06-09T09:05:38.177Z</time>
      </trkpt>
      <trkpt lat="37.43409" lon="-4.39288333">
        <ele>760.0</ele>
        <time>2018-06-09T09:05:39.184Z</time>
      </trkpt>
      <trkpt lat="37.43409" lon="-4.39288333">
        <ele>760.0</ele>
        <time>2018-06-09T09:05:40.180Z</time>
      </trkpt>
      <trkpt lat="37.43399333" lon="-4.39286167">
        <ele>760.0</ele>
        <time>2018-06-09T09:05:41.186Z</time>
      </trkpt>
      <trkpt lat="37.433945" lon="-4.39284333">
        <ele>760.0</ele>
        <time>2018-06-09T09:05:42.164Z</time>
      </trkpt>
      <trkpt lat="37.433945" lon="-4.39284333">
        <ele>760.0</ele>
        <time>2018-06-09T09:05:43.181Z</time>
      </trkpt>
      <trkpt lat="37.43384667" lon="-4.39279833">
        <ele>760.0</ele>
        <time>2018-06-09T09:05:44.159Z</time>
      </trkpt>
      <trkpt lat="37.43384667" lon="-4.39279833">
        <ele>760.0</ele>
        <time>2018-06-09T09:05:45.157Z</time>
      </trkpt>
      <trkpt lat="37.43375" lon="-4.39274">
        <ele>760.0</ele>
        <time>2018-06-09T09:05:46.167Z</time>
      </trkpt>
      <trkpt lat="37.43370167" lon="-4.392705">
        <ele>760.0</ele>
        <time>2018-06-09T09:05:47.196Z</time>
      </trkpt>
      <trkpt lat="37.43370167" lon="-4.392705">
        <ele>760.0</ele>
        <time>2018-06-09T09:05:48.194Z</time>
      </trkpt>
      <trkpt lat="37.43360667" lon="-4.39262833">
        <ele>760.0</ele>
        <time>2018-06-09T09:05:49.169Z</time>
      </trkpt>
      <trkpt lat="37.43355833" lon="-4.39259">
        <ele>760.0</ele>
        <time>2018-06-09T09:05:50.187Z</time>
      </trkpt>
      <trkpt lat="37.43355833" lon="-4.39259">
        <ele>760.0</ele>
        <time>2018-06-09T09:05:51.169Z</time>
      </trkpt>
      <trkpt lat="37.43345833" lon="-4.39251167">
        <ele>760.0</ele>
        <time>2018-06-09T09:05:52.176Z</time>
      </trkpt>
      <trkpt lat="37.43345833" lon="-4.39251167">
        <ele>760.0</ele>
        <time>2018-06-09T09:05:53.168Z</time>
      </trkpt>
      <trkpt lat="37.43335333" lon="-4.39244">
        <ele>760.0</ele>
        <time>2018-06-09T09:05:54.175Z</time>
      </trkpt>
      <trkpt lat="37.43335333" lon="-4.39244">
        <ele>760.0</ele>
        <time>2018-06-09T09:05:55.193Z</time>
      </trkpt>
      <trkpt lat="37.43324333" lon="-4.392375">
        <ele>760.0</ele>
        <time>2018-06-09T09:05:56.169Z</time>
      </trkpt>
      <trkpt lat="37.43324333" lon="-4.392375">
        <ele>760.0</ele>
        <time>2018-06-09T09:05:57.196Z</time>
      </trkpt>
      <trkpt lat="37.43313167" lon="-4.39232667">
        <ele>760.0</ele>
        <time>2018-06-09T09:05:58.167Z</time>
      </trkpt>
      <trkpt lat="37.43313167" lon="-4.39232667">
        <ele>760.0</ele>
        <time>2018-06-09T09:05:59.195Z</time>
      </trkpt>
      <trkpt lat="37.43302167" lon="-4.3923">
        <ele>760.0</ele>
        <time>2018-06-09T09:06:00.159Z</time>
      </trkpt>
      <trkpt lat="37.43302167" lon="-4.3923">
        <ele>760.0</ele>
        <time>2018-06-09T09:06:01.185Z</time>
      </trkpt>
      <trkpt lat="37.43292" lon="-4.392285">
        <ele>760.0</ele>
        <time>2018-06-09T09:06:02.191Z</time>
      </trkpt>
      <trkpt lat="37.43292" lon="-4.392285">
        <ele>760.0</ele>
        <time>2018-06-09T09:06:03.174Z</time>
      </trkpt>
      <trkpt lat="37.43282833" lon="-4.39227333">
        <ele>761.0</ele>
        <time>2018-06-09T09:06:04.159Z</time>
      </trkpt>
      <trkpt lat="37.43282833" lon="-4.39227333">
        <ele>761.0</ele>
        <time>2018-06-09T09:06:05.173Z</time>
      </trkpt>
      <trkpt lat="37.43274667" lon="-4.39226167">
        <ele>761.0</ele>
        <time>2018-06-09T09:06:06.179Z</time>
      </trkpt>
      <trkpt lat="37.43274667" lon="-4.39226167">
        <ele>761.0</ele>
        <time>2018-06-09T09:06:07.158Z</time>
      </trkpt>
      <trkpt lat="37.43267167" lon="-4.392255">
        <ele>761.0</ele>
        <time>2018-06-09T09:06:08.171Z</time>
      </trkpt>
      <trkpt lat="37.43267167" lon="-4.392255">
        <ele>761.0</ele>
        <time>2018-06-09T09:06:09.165Z</time>
      </trkpt>
      <trkpt lat="37.43259833" lon="-4.392245">
        <ele>761.0</ele>
        <time>2018-06-09T09:06:10.173Z</time>
      </trkpt>
      <trkpt lat="37.43259833" lon="-4.392245">
        <ele>761.0</ele>
        <time>2018-06-09T09:06:11.193Z</time>
      </trkpt>
      <trkpt lat="37.432525" lon="-4.39222833">
        <ele>762.0</ele>
        <time>2018-06-09T09:06:12.190Z</time>
      </trkpt>
      <trkpt lat="37.432525" lon="-4.39222833">
        <ele>762.0</ele>
        <time>2018-06-09T09:06:13.176Z</time>
      </trkpt>
      <trkpt lat="37.43244667" lon="-4.39221167">
        <ele>762.0</ele>
        <time>2018-06-09T09:06:14.183Z</time>
      </trkpt>
      <trkpt lat="37.43244667" lon="-4.39221167">
        <ele>762.0</ele>
        <time>2018-06-09T09:06:15.186Z</time>
      </trkpt>
      <trkpt lat="37.432365" lon="-4.392195">
        <ele>762.0</ele>
        <time>2018-06-09T09:06:16.158Z</time>
      </trkpt>
      <trkpt lat="37.432365" lon="-4.392195">
        <ele>762.0</ele>
        <time>2018-06-09T09:06:17.183Z</time>
      </trkpt>
      <trkpt lat="37.432285" lon="-4.392175">
        <ele>762.0</ele>
        <time>2018-06-09T09:06:18.190Z</time>
      </trkpt>
      <trkpt lat="37.432285" lon="-4.392175">
        <ele>762.0</ele>
        <time>2018-06-09T09:06:19.158Z</time>
      </trkpt>
      <trkpt lat="37.43220333" lon="-4.39215167">
        <ele>762.0</ele>
        <time>2018-06-09T09:06:20.190Z</time>
      </trkpt>
      <trkpt lat="37.43220333" lon="-4.39215167">
        <ele>762.0</ele>
        <time>2018-06-09T09:06:21.171Z</time>
      </trkpt>
      <trkpt lat="37.43212167" lon="-4.39213">
        <ele>762.0</ele>
        <time>2018-06-09T09:06:22.177Z</time>
      </trkpt>
      <trkpt lat="37.43207833" lon="-4.39212">
        <ele>762.0</ele>
        <time>2018-06-09T09:06:23.173Z</time>
      </trkpt>
      <trkpt lat="37.43207833" lon="-4.39212">
        <ele>762.0</ele>
        <time>2018-06-09T09:06:24.190Z</time>
      </trkpt>
      <trkpt lat="37.431995" lon="-4.39209667">
        <ele>762.0</ele>
        <time>2018-06-09T09:06:25.196Z</time>
      </trkpt>
      <trkpt lat="37.43195333" lon="-4.392085">
        <ele>762.0</ele>
        <time>2018-06-09T09:06:26.186Z</time>
      </trkpt>
      <trkpt lat="37.43195333" lon="-4.392085">
        <ele>762.0</ele>
        <time>2018-06-09T09:06:27.177Z</time>
      </trkpt>
      <trkpt lat="37.43187" lon="-4.39205833">
        <ele>763.0</ele>
        <time>2018-06-09T09:06:28.173Z</time>
      </trkpt>
      <trkpt lat="37.43187" lon="-4.39205833">
        <ele>763.0</ele>
        <time>2018-06-09T09:06:29.190Z</time>
      </trkpt>
      <trkpt lat="37.431785" lon="-4.392035">
        <ele>763.0</ele>
        <time>2018-06-09T09:06:30.188Z</time>
      </trkpt>
      <trkpt lat="37.431785" lon="-4.392035">
        <ele>763.0</ele>
        <time>2018-06-09T09:06:31.192Z</time>
      </trkpt>
      <trkpt lat="37.43169833" lon="-4.39201167">
        <ele>763.0</ele>
        <time>2018-06-09T09:06:32.158Z</time>
      </trkpt>
      <trkpt lat="37.43169833" lon="-4.39201167">
        <ele>763.0</ele>
        <time>2018-06-09T09:06:33.175Z</time>
      </trkpt>
      <trkpt lat="37.43160833" lon="-4.39198667">
        <ele>763.0</ele>
        <time>2018-06-09T09:06:34.189Z</time>
      </trkpt>
      <trkpt lat="37.43160833" lon="-4.39198667">
        <ele>763.0</ele>
        <time>2018-06-09T09:06:35.162Z</time>
      </trkpt>
      <trkpt lat="37.43152167" lon="-4.39196">
        <ele>763.0</ele>
        <time>2018-06-09T09:06:36.174Z</time>
      </trkpt>
      <trkpt lat="37.43148" lon="-4.39194333">
        <ele>763.0</ele>
        <time>2018-06-09T09:06:37.159Z</time>
      </trkpt>
      <trkpt lat="37.43143667" lon="-4.39192667">
        <ele>763.0</ele>
        <time>2018-06-09T09:06:38.196Z</time>
      </trkpt>
      <trkpt lat="37.43143667" lon="-4.39192667">
        <ele>763.0</ele>
        <time>2018-06-09T09:06:39.174Z</time>
      </trkpt>
      <trkpt lat="37.43135" lon="-4.39188333">
        <ele>763.0</ele>
        <time>2018-06-09T09:06:40.195Z</time>
      </trkpt>
      <trkpt lat="37.43130667" lon="-4.39185833">
        <ele>763.0</ele>
        <time>2018-06-09T09:06:41.172Z</time>
      </trkpt>
      <trkpt lat="37.431265" lon="-4.39183167">
        <ele>763.0</ele>
        <time>2018-06-09T09:06:42.188Z</time>
      </trkpt>
      <trkpt lat="37.431265" lon="-4.39183167">
        <ele>763.0</ele>
        <time>2018-06-09T09:06:43.167Z</time>
      </trkpt>
      <trkpt lat="37.431185" lon="-4.39177">
        <ele>763.0</ele>
        <time>2018-06-09T09:06:44.174Z</time>
      </trkpt>
      <trkpt lat="37.431185" lon="-4.39177">
        <ele>763.0</ele>
        <time>2018-06-09T09:06:45.191Z</time>
      </trkpt>
      <trkpt lat="37.431105" lon="-4.391705">
        <ele>763.0</ele>
        <time>2018-06-09T09:06:46.159Z</time>
      </trkpt>
      <trkpt lat="37.431105" lon="-4.391705">
        <ele>763.0</ele>
        <time>2018-06-09T09:06:47.194Z</time>
      </trkpt>
      <trkpt lat="37.43103" lon="-4.391635">
        <ele>763.0</ele>
        <time>2018-06-09T09:06:48.178Z</time>
      </trkpt>
      <trkpt lat="37.43099167" lon="-4.39159667">
        <ele>763.0</ele>
        <time>2018-06-09T09:06:49.159Z</time>
      </trkpt>
      <trkpt lat="37.43099167" lon="-4.39159667">
        <ele>763.0</ele>
        <time>2018-06-09T09:06:50.176Z</time>
      </trkpt>
      <trkpt lat="37.43091833" lon="-4.39151833">
        <ele>763.0</ele>
        <time>2018-06-09T09:06:51.163Z</time>
      </trkpt>
      <trkpt lat="37.43091833" lon="-4.39151833">
        <ele>763.0</ele>
        <time>2018-06-09T09:06:52.196Z</time>
      </trkpt>
      <trkpt lat="37.43084333" lon="-4.39143333">
        <ele>762.0</ele>
        <time>2018-06-09T09:06:53.169Z</time>
      </trkpt>
      <trkpt lat="37.43084333" lon="-4.39143333">
        <ele>762.0</ele>
        <time>2018-06-09T09:06:54.187Z</time>
      </trkpt>
      <trkpt lat="37.43076" lon="-4.39134667">
        <ele>762.0</ele>
        <time>2018-06-09T09:06:55.159Z</time>
      </trkpt>
      <trkpt lat="37.43076" lon="-4.39134667">
        <ele>762.0</ele>
        <time>2018-06-09T09:06:56.157Z</time>
      </trkpt>
      <trkpt lat="37.43066667" lon="-4.39126">
        <ele>762.0</ele>
        <time>2018-06-09T09:06:57.164Z</time>
      </trkpt>
      <trkpt lat="37.43061667" lon="-4.39121667">
        <ele>761.0</ele>
        <time>2018-06-09T09:06:58.170Z</time>
      </trkpt>
      <trkpt lat="37.43061667" lon="-4.39121667">
        <ele>761.0</ele>
        <time>2018-06-09T09:06:59.176Z</time>
      </trkpt>
      <trkpt lat="37.43050833" lon="-4.39113">
        <ele>761.0</ele>
        <time>2018-06-09T09:07:00.183Z</time>
      </trkpt>
      <trkpt lat="37.43050833" lon="-4.39113">
        <ele>761.0</ele>
        <time>2018-06-09T09:07:01.193Z</time>
      </trkpt>
      <trkpt lat="37.430385" lon="-4.39104">
        <ele>760.0</ele>
        <time>2018-06-09T09:07:02.175Z</time>
      </trkpt>
      <trkpt lat="37.430385" lon="-4.39104">
        <ele>760.0</ele>
        <time>2018-06-09T09:07:03.167Z</time>
      </trkpt>
      <trkpt lat="37.43025167" lon="-4.39095">
        <ele>759.0</ele>
        <time>2018-06-09T09:07:04.173Z</time>
      </trkpt>
      <trkpt lat="37.43017833" lon="-4.39090333">
        <ele>759.0</ele>
        <time>2018-06-09T09:07:05.159Z</time>
      </trkpt>
      <trkpt lat="37.43017833" lon="-4.39090333">
        <ele>759.0</ele>
        <time>2018-06-09T09:07:06.196Z</time>
      </trkpt>
      <trkpt lat="37.43002833" lon="-4.3908">
        <ele>757.0</ele>
        <time>2018-06-09T09:07:07.162Z</time>
      </trkpt>
      <trkpt lat="37.42994833" lon="-4.39074833">
        <ele>757.0</ele>
        <time>2018-06-09T09:07:08.159Z</time>
      </trkpt>
      <trkpt lat="37.42994833" lon="-4.39074833">
        <ele>757.0</ele>
        <time>2018-06-09T09:07:09.196Z</time>
      </trkpt>
      <trkpt lat="37.42978" lon="-4.39063667">
        <ele>756.0</ele>
        <time>2018-06-09T09:07:10.171Z</time>
      </trkpt>
      <trkpt lat="37.42978" lon="-4.39063667">
        <ele>756.0</ele>
        <time>2018-06-09T09:07:11.162Z</time>
      </trkpt>
      <trkpt lat="37.42959833" lon="-4.390525">
        <ele>754.0</ele>
        <time>2018-06-09T09:07:12.169Z</time>
      </trkpt>
      <trkpt lat="37.42950167" lon="-4.39047167">
        <ele>754.0</ele>
        <time>2018-06-09T09:07:13.180Z</time>
      </trkpt>
      <trkpt lat="37.4294" lon="-4.39042167">
        <ele>753.0</ele>
        <time>2018-06-09T09:07:14.182Z</time>
      </trkpt>
      <trkpt lat="37.4294" lon="-4.39042167">
        <ele>753.0</ele>
        <time>2018-06-09T09:07:15.159Z</time>
      </trkpt>
      <trkpt lat="37.42918833" lon="-4.39033333">
        <ele>751.0</ele>
        <time>2018-06-09T09:07:16.180Z</time>
      </trkpt>
      <trkpt lat="37.429075" lon="-4.39029833">
        <ele>750.0</ele>
        <time>2018-06-09T09:07:17.157Z</time>
      </trkpt>
      <trkpt lat="37.429075" lon="-4.39029833">
        <ele>750.0</ele>
        <time>2018-06-09T09:07:18.174Z</time>
      </trkpt>
      <trkpt lat="37.42883333" lon="-4.39025">
        <ele>748.0</ele>
        <time>2018-06-09T09:07:19.159Z</time>
      </trkpt>
      <trkpt lat="37.428705" lon="-4.39023667">
        <ele>746.0</ele>
        <time>2018-06-09T09:07:20.170Z</time>
      </trkpt>
      <trkpt lat="37.428705" lon="-4.39023667">
        <ele>746.0</ele>
        <time>2018-06-09T09:07:21.187Z</time>
      </trkpt>
      <trkpt lat="37.42843333" lon="-4.39023">
        <ele>743.0</ele>
        <time>2018-06-09T09:07:22.160Z</time>
      </trkpt>
      <trkpt lat="37.42843333" lon="-4.39023">
        <ele>743.0</ele>
        <time>2018-06-09T09:07:23.163Z</time>
      </trkpt>
      <trkpt lat="37.42815833" lon="-4.39024">
        <ele>741.0</ele>
        <time>2018-06-09T09:07:24.169Z</time>
      </trkpt>
      <trkpt lat="37.42802333" lon="-4.39024333">
        <ele>740.0</ele>
        <time>2018-06-09T09:07:25.159Z</time>
      </trkpt>
      <trkpt lat="37.42802333" lon="-4.39024333">
        <ele>740.0</ele>
        <time>2018-06-09T09:07:26.187Z</time>
      </trkpt>
      <trkpt lat="37.42776833" lon="-4.39022167">
        <ele>739.0</ele>
        <time>2018-06-09T09:07:27.163Z</time>
      </trkpt>
      <trkpt lat="37.42776833" lon="-4.39022167">
        <ele>739.0</ele>
        <time>2018-06-09T09:07:28.176Z</time>
      </trkpt>
      <trkpt lat="37.42753167" lon="-4.39016">
        <ele>738.0</ele>
        <time>2018-06-09T09:07:29.179Z</time>
      </trkpt>
      <trkpt lat="37.42753167" lon="-4.39016">
        <ele>738.0</ele>
        <time>2018-06-09T09:07:30.187Z</time>
      </trkpt>
      <trkpt lat="37.42731167" lon="-4.39005">
        <ele>736.0</ele>
        <time>2018-06-09T09:07:31.193Z</time>
      </trkpt>
      <trkpt lat="37.427205" lon="-4.389975">
        <ele>735.0</ele>
        <time>2018-06-09T09:07:32.173Z</time>
      </trkpt>
      <trkpt lat="37.427205" lon="-4.389975">
        <ele>735.0</ele>
        <time>2018-06-09T09:07:33.186Z</time>
      </trkpt>
      <trkpt lat="37.42699833" lon="-4.3898">
        <ele>732.0</ele>
        <time>2018-06-09T09:07:34.157Z</time>
      </trkpt>
      <trkpt lat="37.42699833" lon="-4.3898">
        <ele>732.0</ele>
        <time>2018-06-09T09:07:35.175Z</time>
      </trkpt>
      <trkpt lat="37.426805" lon="-4.38958833">
        <ele>728.0</ele>
        <time>2018-06-09T09:07:36.173Z</time>
      </trkpt>
      <trkpt lat="37.426805" lon="-4.38958833">
        <ele>728.0</ele>
        <time>2018-06-09T09:07:37.187Z</time>
      </trkpt>
      <trkpt lat="37.42662" lon="-4.38934333">
        <ele>724.0</ele>
        <time>2018-06-09T09:07:38.193Z</time>
      </trkpt>
      <trkpt lat="37.42662" lon="-4.38934333">
        <ele>724.0</ele>
        <time>2018-06-09T09:07:39.173Z</time>
      </trkpt>
      <trkpt lat="37.426435" lon="-4.38908167">
        <ele>720.0</ele>
        <time>2018-06-09T09:07:40.159Z</time>
      </trkpt>
      <trkpt lat="37.426435" lon="-4.38908167">
        <ele>720.0</ele>
        <time>2018-06-09T09:07:41.162Z</time>
      </trkpt>
      <trkpt lat="37.42624833" lon="-4.38880167">
        <ele>715.0</ele>
        <time>2018-06-09T09:07:42.169Z</time>
      </trkpt>
      <trkpt lat="37.42624833" lon="-4.38880167">
        <ele>715.0</ele>
        <time>2018-06-09T09:07:43.187Z</time>
      </trkpt>
      <trkpt lat="37.42605333" lon="-4.38850833">
        <ele>711.0</ele>
        <time>2018-06-09T09:07:44.203Z</time>
      </trkpt>
      <trkpt lat="37.42605333" lon="-4.38850833">
        <ele>711.0</ele>
        <time>2018-06-09T09:07:45.169Z</time>
      </trkpt>
      <trkpt lat="37.42585" lon="-4.38820667">
        <ele>707.0</ele>
        <time>2018-06-09T09:07:46.175Z</time>
      </trkpt>
      <trkpt lat="37.425745" lon="-4.38805333">
        <ele>705.0</ele>
        <time>2018-06-09T09:07:47.175Z</time>
      </trkpt>
      <trkpt lat="37.425745" lon="-4.38805333">
        <ele>705.0</ele>
        <time>2018-06-09T09:07:48.182Z</time>
      </trkpt>
      <trkpt lat="37.42554167" lon="-4.38777">
        <ele>701.0</ele>
        <time>2018-06-09T09:07:49.189Z</time>
      </trkpt>
      <trkpt lat="37.42554167" lon="-4.38777">
        <ele>701.0</ele>
        <time>2018-06-09T09:07:50.192Z</time>
      </trkpt>
      <trkpt lat="37.42533167" lon="-4.38753333">
        <ele>699.0</ele>
        <time>2018-06-09T09:07:51.158Z</time>
      </trkpt>
      <trkpt lat="37.42533167" lon="-4.38753333">
        <ele>699.0</ele>
        <time>2018-06-09T09:07:52.179Z</time>
      </trkpt>
      <trkpt lat="37.42509667" lon="-4.38734833">
        <ele>696.0</ele>
        <time>2018-06-09T09:07:53.162Z</time>
      </trkpt>
      <trkpt lat="37.42509667" lon="-4.38734833">
        <ele>696.0</ele>
        <time>2018-06-09T09:07:54.194Z</time>
      </trkpt>
      <trkpt lat="37.42486833" lon="-4.38716833">
        <ele>694.0</ele>
        <time>2018-06-09T09:07:55.164Z</time>
      </trkpt>
      <trkpt lat="37.42476833" lon="-4.38706">
        <ele>693.0</ele>
        <time>2018-06-09T09:07:56.182Z</time>
      </trkpt>
      <trkpt lat="37.42476833" lon="-4.38706">
        <ele>693.0</ele>
        <time>2018-06-09T09:07:57.186Z</time>
      </trkpt>
      <trkpt lat="37.42461667" lon="-4.38679167">
        <ele>691.0</ele>
        <time>2018-06-09T09:07:58.193Z</time>
      </trkpt>
      <trkpt lat="37.42461667" lon="-4.38679167">
        <ele>691.0</ele>
        <time>2018-06-09T09:07:59.173Z</time>
      </trkpt>
      <trkpt lat="37.42455167" lon="-4.38646833">
        <ele>689.0</ele>
        <time>2018-06-09T09:08:00.181Z</time>
      </trkpt>
      <trkpt lat="37.42455167" lon="-4.38646833">
        <ele>689.0</ele>
        <time>2018-06-09T09:08:01.169Z</time>
      </trkpt>
      <trkpt lat="37.42456" lon="-4.38613167">
        <ele>686.0</ele>
        <time>2018-06-09T09:08:02.181Z</time>
      </trkpt>
      <trkpt lat="37.42456" lon="-4.38613167">
        <ele>686.0</ele>
        <time>2018-06-09T09:08:03.160Z</time>
      </trkpt>
      <trkpt lat="37.42458833" lon="-4.38579833">
        <ele>685.0</ele>
        <time>2018-06-09T09:08:04.167Z</time>
      </trkpt>
      <trkpt lat="37.42458167" lon="-4.38563667">
        <ele>684.0</ele>
        <time>2018-06-09T09:08:05.170Z</time>
      </trkpt>
      <trkpt lat="37.42458167" lon="-4.38563667">
        <ele>684.0</ele>
        <time>2018-06-09T09:08:06.157Z</time>
      </trkpt>
      <trkpt lat="37.42450333" lon="-4.385335">
        <ele>682.0</ele>
        <time>2018-06-09T09:08:07.170Z</time>
      </trkpt>
      <trkpt lat="37.424435" lon="-4.38520167">
        <ele>682.0</ele>
        <time>2018-06-09T09:08:08.192Z</time>
      </trkpt>
      <trkpt lat="37.424435" lon="-4.38520167">
        <ele>682.0</ele>
        <time>2018-06-09T09:08:09.186Z</time>
      </trkpt>
      <trkpt lat="37.42427167" lon="-4.38497">
        <ele>680.0</ele>
        <time>2018-06-09T09:08:10.192Z</time>
      </trkpt>
      <trkpt lat="37.42418" lon="-4.38486333">
        <ele>679.0</ele>
        <time>2018-06-09T09:08:11.180Z</time>
      </trkpt>
      <trkpt lat="37.42418" lon="-4.38486333">
        <ele>679.0</ele>
        <time>2018-06-09T09:08:12.178Z</time>
      </trkpt>
      <trkpt lat="37.42401167" lon="-4.38463333">
        <ele>677.0</ele>
        <time>2018-06-09T09:08:13.186Z</time>
      </trkpt>
      <trkpt lat="37.423935" lon="-4.384505">
        <ele>676.0</ele>
        <time>2018-06-09T09:08:14.170Z</time>
      </trkpt>
      <trkpt lat="37.423935" lon="-4.384505">
        <ele>676.0</ele>
        <time>2018-06-09T09:08:15.167Z</time>
      </trkpt>
      <trkpt lat="37.42377667" lon="-4.384245">
        <ele>673.0</ele>
        <time>2018-06-09T09:08:16.173Z</time>
      </trkpt>
      <trkpt lat="37.42377667" lon="-4.384245">
        <ele>673.0</ele>
        <time>2018-06-09T09:08:17.189Z</time>
      </trkpt>
      <trkpt lat="37.423585" lon="-4.38400667">
        <ele>671.0</ele>
        <time>2018-06-09T09:08:18.161Z</time>
      </trkpt>
      <trkpt lat="37.423585" lon="-4.38400667">
        <ele>671.0</ele>
        <time>2018-06-09T09:08:19.187Z</time>
      </trkpt>
      <trkpt lat="37.42336333" lon="-4.38381167">
        <ele>669.0</ele>
        <time>2018-06-09T09:08:20.193Z</time>
      </trkpt>
      <trkpt lat="37.42336333" lon="-4.38381167">
        <ele>669.0</ele>
        <time>2018-06-09T09:08:21.158Z</time>
      </trkpt>
      <trkpt lat="37.423125" lon="-4.38367">
        <ele>668.0</ele>
        <time>2018-06-09T09:08:22.159Z</time>
      </trkpt>
      <trkpt lat="37.423125" lon="-4.38367">
        <ele>668.0</ele>
        <time>2018-06-09T09:08:23.165Z</time>
      </trkpt>
      <trkpt lat="37.42289667" lon="-4.38355167">
        <ele>668.0</ele>
        <time>2018-06-09T09:08:24.172Z</time>
      </trkpt>
      <trkpt lat="37.42289667" lon="-4.38355167">
        <ele>668.0</ele>
        <time>2018-06-09T09:08:25.159Z</time>
      </trkpt>
      <trkpt lat="37.42269167" lon="-4.38340833">
        <ele>668.0</ele>
        <time>2018-06-09T09:08:26.165Z</time>
      </trkpt>
      <trkpt lat="37.42269167" lon="-4.38340833">
        <ele>668.0</ele>
        <time>2018-06-09T09:08:27.185Z</time>
      </trkpt>
      <trkpt lat="37.42253167" lon="-4.38320667">
        <ele>667.0</ele>
        <time>2018-06-09T09:08:28.171Z</time>
      </trkpt>
      <trkpt lat="37.422475" lon="-4.38308667">
        <ele>667.0</ele>
        <time>2018-06-09T09:08:29.183Z</time>
      </trkpt>
      <trkpt lat="37.422475" lon="-4.38308667">
        <ele>667.0</ele>
        <time>2018-06-09T09:08:30.181Z</time>
      </trkpt>
      <trkpt lat="37.42239167" lon="-4.38283333">
        <ele>666.0</ele>
        <time>2018-06-09T09:08:31.188Z</time>
      </trkpt>
      <trkpt lat="37.42235833" lon="-4.38270167">
        <ele>665.0</ele>
        <time>2018-06-09T09:08:32.171Z</time>
      </trkpt>
      <trkpt lat="37.42235833" lon="-4.38270167">
        <ele>665.0</ele>
        <time>2018-06-09T09:08:33.188Z</time>
      </trkpt>
      <trkpt lat="37.42229833" lon="-4.38243667">
        <ele>664.0</ele>
        <time>2018-06-09T09:08:34.158Z</time>
      </trkpt>
      <trkpt lat="37.42229833" lon="-4.38243667">
        <ele>664.0</ele>
        <time>2018-06-09T09:08:35.158Z</time>
      </trkpt>
      <trkpt lat="37.42221833" lon="-4.38217833">
        <ele>662.0</ele>
        <time>2018-06-09T09:08:36.167Z</time>
      </trkpt>
      <trkpt lat="37.42216167" lon="-4.38205833">
        <ele>662.0</ele>
        <time>2018-06-09T09:08:37.191Z</time>
      </trkpt>
      <trkpt lat="37.42209333" lon="-4.38194667">
        <ele>661.0</ele>
        <time>2018-06-09T09:08:38.190Z</time>
      </trkpt>
      <trkpt lat="37.42209333" lon="-4.38194667">
        <ele>661.0</ele>
        <time>2018-06-09T09:08:39.169Z</time>
      </trkpt>
      <trkpt lat="37.421925" lon="-4.38175667">
        <ele>659.0</ele>
        <time>2018-06-09T09:08:40.194Z</time>
      </trkpt>
      <trkpt lat="37.421925" lon="-4.38175667">
        <ele>659.0</ele>
        <time>2018-06-09T09:08:41.195Z</time>
      </trkpt>
      <trkpt lat="37.42173833" lon="-4.38158833">
        <ele>657.0</ele>
        <time>2018-06-09T09:08:42.162Z</time>
      </trkpt>
      <trkpt lat="37.42173833" lon="-4.38158833">
        <ele>657.0</ele>
        <time>2018-06-09T09:08:43.180Z</time>
      </trkpt>
      <trkpt lat="37.42154667" lon="-4.38141833">
        <ele>656.0</ele>
        <time>2018-06-09T09:08:44.189Z</time>
      </trkpt>
      <trkpt lat="37.42154667" lon="-4.38141833">
        <ele>656.0</ele>
        <time>2018-06-09T09:08:45.187Z</time>
      </trkpt>
      <trkpt lat="37.42136167" lon="-4.38123167">
        <ele>654.0</ele>
        <time>2018-06-09T09:08:46.171Z</time>
      </trkpt>
      <trkpt lat="37.42136167" lon="-4.38123167">
        <ele>654.0</ele>
        <time>2018-06-09T09:08:47.185Z</time>
      </trkpt>
      <trkpt lat="37.42121167" lon="-4.381">
        <ele>652.0</ele>
        <time>2018-06-09T09:08:48.179Z</time>
      </trkpt>
      <trkpt lat="37.421165" lon="-4.38085833">
        <ele>650.0</ele>
        <time>2018-06-09T09:08:49.184Z</time>
      </trkpt>
      <trkpt lat="37.42114667" lon="-4.38070667">
        <ele>649.0</ele>
        <time>2018-06-09T09:08:50.174Z</time>
      </trkpt>
      <trkpt lat="37.42114667" lon="-4.38070667">
        <ele>649.0</ele>
        <time>2018-06-09T09:08:51.193Z</time>
      </trkpt>
      <trkpt lat="37.42120167" lon="-4.38041167">
        <ele>646.0</ele>
        <time>2018-06-09T09:08:52.159Z</time>
      </trkpt>
      <trkpt lat="37.42126667" lon="-4.38028">
        <ele>645.0</ele>
        <time>2018-06-09T09:08:53.184Z</time>
      </trkpt>
      <trkpt lat="37.42126667" lon="-4.38028">
        <ele>645.0</ele>
        <time>2018-06-09T09:08:54.158Z</time>
      </trkpt>
      <trkpt lat="37.42144" lon="-4.38005667">
        <ele>643.0</ele>
        <time>2018-06-09T09:08:55.164Z</time>
      </trkpt>
      <trkpt lat="37.42153667" lon="-4.37995667">
        <ele>642.0</ele>
        <time>2018-06-09T09:08:56.160Z</time>
      </trkpt>
      <trkpt lat="37.42153667" lon="-4.37995667">
        <ele>642.0</ele>
        <time>2018-06-09T09:08:57.196Z</time>
      </trkpt>
      <trkpt lat="37.42173333" lon="-4.37975667">
        <ele>641.0</ele>
        <time>2018-06-09T09:08:58.171Z</time>
      </trkpt>
      <trkpt lat="37.42173333" lon="-4.37975667">
        <ele>641.0</ele>
        <time>2018-06-09T09:08:59.190Z</time>
      </trkpt>
      <trkpt lat="37.42193333" lon="-4.37956167">
        <ele>639.0</ele>
        <time>2018-06-09T09:09:00.162Z</time>
      </trkpt>
      <trkpt lat="37.42193333" lon="-4.37956167">
        <ele>639.0</ele>
        <time>2018-06-09T09:09:01.177Z</time>
      </trkpt>
      <trkpt lat="37.42214333" lon="-4.3794">
        <ele>638.0</ele>
        <time>2018-06-09T09:09:02.184Z</time>
      </trkpt>
      <trkpt lat="37.42214333" lon="-4.3794">
        <ele>638.0</ele>
        <time>2018-06-09T09:09:03.189Z</time>
      </trkpt>
      <trkpt lat="37.42234167" lon="-4.379285">
        <ele>636.0</ele>
        <time>2018-06-09T09:09:04.160Z</time>
      </trkpt>
      <trkpt lat="37.42234167" lon="-4.379285">
        <ele>636.0</ele>
        <time>2018-06-09T09:09:05.196Z</time>
      </trkpt>
      <trkpt lat="37.42250667" lon="-4.37918333">
        <ele>636.0</ele>
        <time>2018-06-09T09:09:06.164Z</time>
      </trkpt>
      <trkpt lat="37.42250667" lon="-4.37918333">
        <ele>636.0</ele>
        <time>2018-06-09T09:09:07.182Z</time>
      </trkpt>
      <trkpt lat="37.42263833" lon="-4.37904833">
        <ele>634.0</ele>
        <time>2018-06-09T09:09:08.159Z</time>
      </trkpt>
      <trkpt lat="37.42263833" lon="-4.37904833">
        <ele>634.0</ele>
        <time>2018-06-09T09:09:09.194Z</time>
      </trkpt>
      <trkpt lat="37.42275333" lon="-4.37888167">
        <ele>633.0</ele>
        <time>2018-06-09T09:09:10.160Z</time>
      </trkpt>
      <trkpt lat="37.42275333" lon="-4.37888167">
        <ele>633.0</ele>
        <time>2018-06-09T09:09:11.192Z</time>
      </trkpt>
      <trkpt lat="37.42287167" lon="-4.3787">
        <ele>631.0</ele>
        <time>2018-06-09T09:09:12.159Z</time>
      </trkpt>
      <trkpt lat="37.42287167" lon="-4.3787">
        <ele>631.0</ele>
        <time>2018-06-09T09:09:13.177Z</time>
      </trkpt>
      <trkpt lat="37.42300667" lon="-4.37853833">
        <ele>629.0</ele>
        <time>2018-06-09T09:09:14.161Z</time>
      </trkpt>
      <trkpt lat="37.42300667" lon="-4.37853833">
        <ele>629.0</ele>
        <time>2018-06-09T09:09:15.157Z</time>
      </trkpt>
      <trkpt lat="37.423135" lon="-4.37840667">
        <ele>628.0</ele>
        <time>2018-06-09T09:09:16.163Z</time>
      </trkpt>
      <trkpt lat="37.42319" lon="-4.37835">
        <ele>628.0</ele>
        <time>2018-06-09T09:09:17.159Z</time>
      </trkpt>
      <trkpt lat="37.42319" lon="-4.37835">
        <ele>628.0</ele>
        <time>2018-06-09T09:09:18.157Z</time>
      </trkpt>
      <trkpt lat="37.42328833" lon="-4.37826">
        <ele>628.0</ele>
        <time>2018-06-09T09:09:19.171Z</time>
      </trkpt>
      <trkpt lat="37.42333" lon="-4.37822667">
        <ele>628.0</ele>
        <time>2018-06-09T09:09:20.175Z</time>
      </trkpt>
      <trkpt lat="37.42333" lon="-4.37822667">
        <ele>628.0</ele>
        <time>2018-06-09T09:09:21.160Z</time>
      </trkpt>
      <trkpt lat="37.423405" lon="-4.378175">
        <ele>628.0</ele>
        <time>2018-06-09T09:09:22.167Z</time>
      </trkpt>
      <trkpt lat="37.423435" lon="-4.378155">
        <ele>628.0</ele>
        <time>2018-06-09T09:09:23.159Z</time>
      </trkpt>
      <trkpt lat="37.423435" lon="-4.378155">
        <ele>628.0</ele>
        <time>2018-06-09T09:09:24.188Z</time>
      </trkpt>
      <trkpt lat="37.42347833" lon="-4.37813">
        <ele>628.0</ele>
        <time>2018-06-09T09:09:25.194Z</time>
      </trkpt>
      <trkpt lat="37.42347833" lon="-4.37813">
        <ele>628.0</ele>
        <time>2018-06-09T09:09:26.172Z</time>
      </trkpt>
      <trkpt lat="37.423485" lon="-4.37812333">
        <ele>628.0</ele>
        <time>2018-06-09T09:09:27.159Z</time>
      </trkpt>
      <trkpt lat="37.423485" lon="-4.37812333">
        <ele>628.0</ele>
        <time>2018-06-09T09:09:28.167Z</time>
      </trkpt>
      <trkpt lat="37.42349333" lon="-4.37812667">
        <ele>628.0</ele>
        <time>2018-06-09T09:09:29.174Z</time>
      </trkpt>
      <trkpt lat="37.42349667" lon="-4.37812833">
        <ele>628.0</ele>
        <time>2018-06-09T09:09:30.164Z</time>
      </trkpt>
      <trkpt lat="37.42343" lon="-4.37819333">
        <ele>634.0</ele>
        <time>2018-06-09T09:09:31.176Z</time>
      </trkpt>
      <trkpt lat="37.42343" lon="-4.37819333">
        <ele>634.0</ele>
        <time>2018-06-09T09:09:32.169Z</time>
      </trkpt>
      <trkpt lat="37.423405" lon="-4.37818167">
        <ele>634.0</ele>
        <time>2018-06-09T09:09:33.169Z</time>
      </trkpt>
      <trkpt lat="37.423405" lon="-4.37818167">
        <ele>634.0</ele>
        <time>2018-06-09T09:09:34.165Z</time>
      </trkpt>
      <trkpt lat="37.42337" lon="-4.37818667">
        <ele>634.0</ele>
        <time>2018-06-09T09:09:35.170Z</time>
      </trkpt>
      <trkpt lat="37.42337" lon="-4.37818667">
        <ele>634.0</ele>
        <time>2018-06-09T09:09:36.175Z</time>
      </trkpt>
      <trkpt lat="37.423335" lon="-4.37820833">
        <ele>634.0</ele>
        <time>2018-06-09T09:09:37.181Z</time>
      </trkpt>
      <trkpt lat="37.423335" lon="-4.37820833">
        <ele>634.0</ele>
        <time>2018-06-09T09:09:38.186Z</time>
      </trkpt>
      <trkpt lat="37.42329833" lon="-4.37824">
        <ele>634.0</ele>
        <time>2018-06-09T09:09:39.180Z</time>
      </trkpt>
      <trkpt lat="37.42329833" lon="-4.37824">
        <ele>634.0</ele>
        <time>2018-06-09T09:09:40.185Z</time>
      </trkpt>
      <trkpt lat="37.42325667" lon="-4.37828">
        <ele>633.0</ele>
        <time>2018-06-09T09:09:41.192Z</time>
      </trkpt>
      <trkpt lat="37.42323" lon="-4.37829">
        <ele>633.0</ele>
        <time>2018-06-09T09:09:42.159Z</time>
      </trkpt>
      <trkpt lat="37.4232" lon="-4.37829667">
        <ele>633.0</ele>
        <time>2018-06-09T09:09:43.171Z</time>
      </trkpt>
      <trkpt lat="37.4232" lon="-4.37829667">
        <ele>633.0</ele>
        <time>2018-06-09T09:09:44.176Z</time>
      </trkpt>
      <trkpt lat="37.42313" lon="-4.37831167">
        <ele>633.0</ele>
        <time>2018-06-09T09:09:45.182Z</time>
      </trkpt>
      <trkpt lat="37.42308667" lon="-4.37832167">
        <ele>633.0</ele>
        <time>2018-06-09T09:09:46.167Z</time>
      </trkpt>
      <trkpt lat="37.42308667" lon="-4.37832167">
        <ele>633.0</ele>
        <time>2018-06-09T09:09:47.181Z</time>
      </trkpt>
      <trkpt lat="37.42299333" lon="-4.378355">
        <ele>632.0</ele>
        <time>2018-06-09T09:09:48.188Z</time>
      </trkpt>
      <trkpt lat="37.42294333" lon="-4.37837167">
        <ele>632.0</ele>
        <time>2018-06-09T09:09:49.196Z</time>
      </trkpt>
      <trkpt lat="37.42294333" lon="-4.37837167">
        <ele>632.0</ele>
        <time>2018-06-09T09:09:50.172Z</time>
      </trkpt>
      <trkpt lat="37.422835" lon="-4.378415">
        <ele>632.0</ele>
        <time>2018-06-09T09:09:51.190Z</time>
      </trkpt>
      <trkpt lat="37.42277833" lon="-4.37843667">
        <ele>632.0</ele>
        <time>2018-06-09T09:09:52.178Z</time>
      </trkpt>
      <trkpt lat="37.42277833" lon="-4.37843667">
        <ele>632.0</ele>
        <time>2018-06-09T09:09:53.184Z</time>
      </trkpt>
      <trkpt lat="37.42266167" lon="-4.37846333">
        <ele>632.0</ele>
        <time>2018-06-09T09:09:54.192Z</time>
      </trkpt>
      <trkpt lat="37.42259833" lon="-4.37847">
        <ele>631.0</ele>
        <time>2018-06-09T09:09:55.177Z</time>
      </trkpt>
      <trkpt lat="37.42259833" lon="-4.37847">
        <ele>631.0</ele>
        <time>2018-06-09T09:09:56.183Z</time>
      </trkpt>
      <trkpt lat="37.42247333" lon="-4.378455">
        <ele>631.0</ele>
        <time>2018-06-09T09:09:57.190Z</time>
      </trkpt>
      <trkpt lat="37.42247333" lon="-4.378455">
        <ele>631.0</ele>
        <time>2018-06-09T09:09:58.158Z</time>
      </trkpt>
      <trkpt lat="37.42234667" lon="-4.37842333">
        <ele>631.0</ele>
        <time>2018-06-09T09:09:59.190Z</time>
      </trkpt>
      <trkpt lat="37.42234667" lon="-4.37842333">
        <ele>631.0</ele>
        <time>2018-06-09T09:10:00.157Z</time>
      </trkpt>
      <trkpt lat="37.422215" lon="-4.378365">
        <ele>630.0</ele>
        <time>2018-06-09T09:10:01.163Z</time>
      </trkpt>
      <trkpt lat="37.422215" lon="-4.378365">
        <ele>630.0</ele>
        <time>2018-06-09T09:10:02.169Z</time>
      </trkpt>
      <trkpt lat="37.42207" lon="-4.37832167">
        <ele>630.0</ele>
        <time>2018-06-09T09:10:03.159Z</time>
      </trkpt>
      <trkpt lat="37.42207" lon="-4.37832167">
        <ele>630.0</ele>
        <time>2018-06-09T09:10:04.164Z</time>
      </trkpt>
      <trkpt lat="37.42190833" lon="-4.37831333">
        <ele>629.0</ele>
        <time>2018-06-09T09:10:05.170Z</time>
      </trkpt>
      <trkpt lat="37.421825" lon="-4.37832167">
        <ele>627.0</ele>
        <time>2018-06-09T09:10:06.164Z</time>
      </trkpt>
      <trkpt lat="37.421825" lon="-4.37832167">
        <ele>627.0</ele>
        <time>2018-06-09T09:10:07.170Z</time>
      </trkpt>
      <trkpt lat="37.42165667" lon="-4.37836667">
        <ele>626.0</ele>
        <time>2018-06-09T09:10:08.189Z</time>
      </trkpt>
      <trkpt lat="37.42157167" lon="-4.37839833">
        <ele>626.0</ele>
        <time>2018-06-09T09:10:09.184Z</time>
      </trkpt>
      <trkpt lat="37.42157167" lon="-4.37839833">
        <ele>626.0</ele>
        <time>2018-06-09T09:10:10.190Z</time>
      </trkpt>
      <trkpt lat="37.4214" lon="-4.37846667">
        <ele>624.0</ele>
        <time>2018-06-09T09:10:11.160Z</time>
      </trkpt>
      <trkpt lat="37.4214" lon="-4.37846667">
        <ele>624.0</ele>
        <time>2018-06-09T09:10:12.164Z</time>
      </trkpt>
      <trkpt lat="37.42122333" lon="-4.37852333">
        <ele>623.0</ele>
        <time>2018-06-09T09:10:13.160Z</time>
      </trkpt>
      <trkpt lat="37.42122333" lon="-4.37852333">
        <ele>623.0</ele>
        <time>2018-06-09T09:10:14.166Z</time>
      </trkpt>
      <trkpt lat="37.42104333" lon="-4.378565">
        <ele>622.0</ele>
        <time>2018-06-09T09:10:15.172Z</time>
      </trkpt>
      <trkpt lat="37.42104333" lon="-4.378565">
        <ele>622.0</ele>
        <time>2018-06-09T09:10:16.178Z</time>
      </trkpt>
      <trkpt lat="37.42086167" lon="-4.37859333">
        <ele>621.0</ele>
        <time>2018-06-09T09:10:17.167Z</time>
      </trkpt>
      <trkpt lat="37.42086167" lon="-4.37859333">
        <ele>621.0</ele>
        <time>2018-06-09T09:10:18.174Z</time>
      </trkpt>
      <trkpt lat="37.42069167" lon="-4.37862">
        <ele>619.0</ele>
        <time>2018-06-09T09:10:19.181Z</time>
      </trkpt>
      <trkpt lat="37.42069167" lon="-4.37862">
        <ele>619.0</ele>
        <time>2018-06-09T09:10:20.173Z</time>
      </trkpt>
      <trkpt lat="37.42055" lon="-4.378655">
        <ele>618.0</ele>
        <time>2018-06-09T09:10:21.158Z</time>
      </trkpt>
      <trkpt lat="37.42055" lon="-4.378655">
        <ele>618.0</ele>
        <time>2018-06-09T09:10:22.163Z</time>
      </trkpt>
      <trkpt lat="37.42041667" lon="-4.37870667">
        <ele>616.0</ele>
        <time>2018-06-09T09:10:23.170Z</time>
      </trkpt>
      <trkpt lat="37.42034833" lon="-4.37873667">
        <ele>616.0</ele>
        <time>2018-06-09T09:10:24.191Z</time>
      </trkpt>
      <trkpt lat="37.42034833" lon="-4.37873667">
        <ele>616.0</ele>
        <time>2018-06-09T09:10:25.157Z</time>
      </trkpt>
      <trkpt lat="37.42022333" lon="-4.37880167">
        <ele>614.0</ele>
        <time>2018-06-09T09:10:26.165Z</time>
      </trkpt>
      <trkpt lat="37.42017167" lon="-4.37883833">
        <ele>614.0</ele>
        <time>2018-06-09T09:10:27.167Z</time>
      </trkpt>
      <trkpt lat="37.42017167" lon="-4.37883833">
        <ele>614.0</ele>
        <time>2018-06-09T09:10:28.172Z</time>
      </trkpt>
      <trkpt lat="37.4201" lon="-4.37894833">
        <ele>614.0</ele>
        <time>2018-06-09T09:10:29.194Z</time>
      </trkpt>
      <trkpt lat="37.4201" lon="-4.37894833">
        <ele>614.0</ele>
        <time>2018-06-09T09:10:30.165Z</time>
      </trkpt>
      <trkpt lat="37.42006167" lon="-4.37905">
        <ele>614.0</ele>
        <time>2018-06-09T09:10:31.179Z</time>
      </trkpt>
      <trkpt lat="37.42006167" lon="-4.37905">
        <ele>614.0</ele>
        <time>2018-06-09T09:10:32.185Z</time>
      </trkpt>
      <trkpt lat="37.420025" lon="-4.37913333">
        <ele>614.0</ele>
        <time>2018-06-09T09:10:33.193Z</time>
      </trkpt>
      <trkpt lat="37.42000833" lon="-4.37917333">
        <ele>614.0</ele>
        <time>2018-06-09T09:10:34.168Z</time>
      </trkpt>
      <trkpt lat="37.42000833" lon="-4.37917333">
        <ele>614.0</ele>
        <time>2018-06-09T09:10:35.173Z</time>
      </trkpt>
      <trkpt lat="37.41998167" lon="-4.379255">
        <ele>614.0</ele>
        <time>2018-06-09T09:10:36.180Z</time>
      </trkpt>
      <trkpt lat="37.41998167" lon="-4.379255">
        <ele>614.0</ele>
        <time>2018-06-09T09:10:37.186Z</time>
      </trkpt>
      <trkpt lat="37.41995833" lon="-4.379335">
        <ele>614.0</ele>
        <time>2018-06-09T09:10:38.161Z</time>
      </trkpt>
      <trkpt lat="37.41995833" lon="-4.379335">
        <ele>614.0</ele>
        <time>2018-06-09T09:10:39.166Z</time>
      </trkpt>
      <trkpt lat="37.41993833" lon="-4.37941167">
        <ele>615.0</ele>
        <time>2018-06-09T09:10:40.173Z</time>
      </trkpt>
      <trkpt lat="37.41993833" lon="-4.37941167">
        <ele>615.0</ele>
        <time>2018-06-09T09:10:41.178Z</time>
      </trkpt>
      <trkpt lat="37.41992167" lon="-4.37948167">
        <ele>616.0</ele>
        <time>2018-06-09T09:10:42.181Z</time>
      </trkpt>
      <trkpt lat="37.41992167" lon="-4.37948167">
        <ele>616.0</ele>
        <time>2018-06-09T09:10:43.193Z</time>
      </trkpt>
      <trkpt lat="37.41990667" lon="-4.37954167">
        <ele>616.0</ele>
        <time>2018-06-09T09:10:44.163Z</time>
      </trkpt>
      <trkpt lat="37.41990667" lon="-4.37954167">
        <ele>616.0</ele>
        <time>2018-06-09T09:10:45.168Z</time>
      </trkpt>
      <trkpt lat="37.41989667" lon="-4.3796">
        <ele>616.0</ele>
        <time>2018-06-09T09:10:46.187Z</time>
      </trkpt>
      <trkpt lat="37.41989667" lon="-4.3796">
        <ele>616.0</ele>
        <time>2018-06-09T09:10:47.183Z</time>
      </trkpt>
      <trkpt lat="37.41988833" lon="-4.37966333">
        <ele>617.0</ele>
        <time>2018-06-09T09:10:48.160Z</time>
      </trkpt>
      <trkpt lat="37.41988833" lon="-4.379695">
        <ele>617.0</ele>
        <time>2018-06-09T09:10:49.175Z</time>
      </trkpt>
      <trkpt lat="37.41988833" lon="-4.379695">
        <ele>617.0</ele>
        <time>2018-06-09T09:10:50.180Z</time>
      </trkpt>
      <trkpt lat="37.41988" lon="-4.37975667">
        <ele>618.0</ele>
        <time>2018-06-09T09:10:51.192Z</time>
      </trkpt>
      <trkpt lat="37.41987667" lon="-4.37978833">
        <ele>618.0</ele>
        <time>2018-06-09T09:10:52.169Z</time>
      </trkpt>
      <trkpt lat="37.41987333" lon="-4.37982167">
        <ele>618.0</ele>
        <time>2018-06-09T09:10:53.181Z</time>
      </trkpt>
      <trkpt lat="37.41987333" lon="-4.37982167">
        <ele>618.0</ele>
        <time>2018-06-09T09:10:54.187Z</time>
      </trkpt>
      <trkpt lat="37.419865" lon="-4.37989">
        <ele>619.0</ele>
        <time>2018-06-09T09:10:55.171Z</time>
      </trkpt>
      <trkpt lat="37.41986167" lon="-4.37992">
        <ele>619.0</ele>
        <time>2018-06-09T09:10:56.176Z</time>
      </trkpt>
      <trkpt lat="37.41985833" lon="-4.37995">
        <ele>620.0</ele>
        <time>2018-06-09T09:10:57.182Z</time>
      </trkpt>
      <trkpt lat="37.41985833" lon="-4.37995">
        <ele>620.0</ele>
        <time>2018-06-09T09:10:58.187Z</time>
      </trkpt>
      <trkpt lat="37.41985167" lon="-4.38000833">
        <ele>620.0</ele>
        <time>2018-06-09T09:10:59.161Z</time>
      </trkpt>
      <trkpt lat="37.41985167" lon="-4.38000833">
        <ele>620.0</ele>
        <time>2018-06-09T09:11:00.166Z</time>
      </trkpt>
      <trkpt lat="37.419845" lon="-4.38007">
        <ele>620.0</ele>
        <time>2018-06-09T09:11:01.180Z</time>
      </trkpt>
      <trkpt lat="37.41984167" lon="-4.3801">
        <ele>620.0</ele>
        <time>2018-06-09T09:11:02.189Z</time>
      </trkpt>
      <trkpt lat="37.41984167" lon="-4.3801">
        <ele>620.0</ele>
        <time>2018-06-09T09:11:03.196Z</time>
      </trkpt>
      <trkpt lat="37.41983333" lon="-4.38016333">
        <ele>621.0</ele>
        <time>2018-06-09T09:11:04.164Z</time>
      </trkpt>
      <trkpt lat="37.41983333" lon="-4.38016333">
        <ele>621.0</ele>
        <time>2018-06-09T09:11:05.169Z</time>
      </trkpt>
      <trkpt lat="37.41983" lon="-4.38023">
        <ele>621.0</ele>
        <time>2018-06-09T09:11:06.175Z</time>
      </trkpt>
      <trkpt lat="37.41983" lon="-4.38023">
        <ele>621.0</ele>
        <time>2018-06-09T09:11:07.181Z</time>
      </trkpt>
      <trkpt lat="37.41983333" lon="-4.38029667">
        <ele>621.0</ele>
        <time>2018-06-09T09:11:08.170Z</time>
      </trkpt>
      <trkpt lat="37.419835" lon="-4.38033">
        <ele>621.0</ele>
        <time>2018-06-09T09:11:09.178Z</time>
      </trkpt>
      <trkpt lat="37.419835" lon="-4.38033">
        <ele>621.0</ele>
        <time>2018-06-09T09:11:10.183Z</time>
      </trkpt>
      <trkpt lat="37.41984333" lon="-4.38039333">
        <ele>621.0</ele>
        <time>2018-06-09T09:11:11.190Z</time>
      </trkpt>
      <trkpt lat="37.41984333" lon="-4.38039333">
        <ele>621.0</ele>
        <time>2018-06-09T09:11:12.196Z</time>
      </trkpt>
      <trkpt lat="37.419855" lon="-4.38045667">
        <ele>621.0</ele>
        <time>2018-06-09T09:11:13.160Z</time>
      </trkpt>
      <trkpt lat="37.419855" lon="-4.38045667">
        <ele>621.0</ele>
        <time>2018-06-09T09:11:14.165Z</time>
      </trkpt>
      <trkpt lat="37.41986667" lon="-4.38052333">
        <ele>621.0</ele>
        <time>2018-06-09T09:11:15.171Z</time>
      </trkpt>
      <trkpt lat="37.41986667" lon="-4.38052333">
        <ele>621.0</ele>
        <time>2018-06-09T09:11:16.176Z</time>
      </trkpt>
      <trkpt lat="37.41988333" lon="-4.38059333">
        <ele>622.0</ele>
        <time>2018-06-09T09:11:17.161Z</time>
      </trkpt>
      <trkpt lat="37.41988333" lon="-4.38059333">
        <ele>622.0</ele>
        <time>2018-06-09T09:11:18.166Z</time>
      </trkpt>
      <trkpt lat="37.4199" lon="-4.380665">
        <ele>621.0</ele>
        <time>2018-06-09T09:11:19.172Z</time>
      </trkpt>
      <trkpt lat="37.4199" lon="-4.380665">
        <ele>621.0</ele>
        <time>2018-06-09T09:11:20.181Z</time>
      </trkpt>
      <trkpt lat="37.41992" lon="-4.38073833">
        <ele>621.0</ele>
        <time>2018-06-09T09:11:21.171Z</time>
      </trkpt>
      <trkpt lat="37.41992" lon="-4.38073833">
        <ele>621.0</ele>
        <time>2018-06-09T09:11:22.176Z</time>
      </trkpt>
      <trkpt lat="37.41994" lon="-4.38081167">
        <ele>621.0</ele>
        <time>2018-06-09T09:11:23.162Z</time>
      </trkpt>
      <trkpt lat="37.41995167" lon="-4.38085">
        <ele>621.0</ele>
        <time>2018-06-09T09:11:24.168Z</time>
      </trkpt>
      <trkpt lat="37.41995167" lon="-4.38085">
        <ele>621.0</ele>
        <time>2018-06-09T09:11:25.174Z</time>
      </trkpt>
      <trkpt lat="37.41997333" lon="-4.38092833">
        <ele>621.0</ele>
        <time>2018-06-09T09:11:26.162Z</time>
      </trkpt>
      <trkpt lat="37.41998333" lon="-4.38096833">
        <ele>621.0</ele>
        <time>2018-06-09T09:11:27.168Z</time>
      </trkpt>
      <trkpt lat="37.41998333" lon="-4.38096833">
        <ele>621.0</ele>
        <time>2018-06-09T09:11:28.174Z</time>
      </trkpt>
      <trkpt lat="37.42000167" lon="-4.38104667">
        <ele>621.0</ele>
        <time>2018-06-09T09:11:29.177Z</time>
      </trkpt>
      <trkpt lat="37.42000167" lon="-4.38104667">
        <ele>621.0</ele>
        <time>2018-06-09T09:11:30.183Z</time>
      </trkpt>
      <trkpt lat="37.42002167" lon="-4.38111833">
        <ele>621.0</ele>
        <time>2018-06-09T09:11:31.189Z</time>
      </trkpt>
      <trkpt lat="37.42002167" lon="-4.38111833">
        <ele>621.0</ele>
        <time>2018-06-09T09:11:32.194Z</time>
      </trkpt>
      <trkpt lat="37.42004167" lon="-4.381185">
        <ele>621.0</ele>
        <time>2018-06-09T09:11:33.169Z</time>
      </trkpt>
      <trkpt lat="37.42004167" lon="-4.381185">
        <ele>621.0</ele>
        <time>2018-06-09T09:11:34.176Z</time>
      </trkpt>
      <trkpt lat="37.42006" lon="-4.38126">
        <ele>621.0</ele>
        <time>2018-06-09T09:11:35.159Z</time>
      </trkpt>
      <trkpt lat="37.42006" lon="-4.38126">
        <ele>621.0</ele>
        <time>2018-06-09T09:11:36.164Z</time>
      </trkpt>
      <trkpt lat="37.420065" lon="-4.38134167">
        <ele>621.0</ele>
        <time>2018-06-09T09:11:37.196Z</time>
      </trkpt>
      <trkpt lat="37.420065" lon="-4.38134167">
        <ele>621.0</ele>
        <time>2018-06-09T09:11:38.161Z</time>
      </trkpt>
      <trkpt lat="37.42005833" lon="-4.381425">
        <ele>621.0</ele>
        <time>2018-06-09T09:11:39.168Z</time>
      </trkpt>
      <trkpt lat="37.42005333" lon="-4.38146667">
        <ele>621.0</ele>
        <time>2018-06-09T09:11:40.161Z</time>
      </trkpt>
      <trkpt lat="37.42005333" lon="-4.38146667">
        <ele>621.0</ele>
        <time>2018-06-09T09:11:41.166Z</time>
      </trkpt>
      <trkpt lat="37.42004667" lon="-4.38154833">
        <ele>621.0</ele>
        <time>2018-06-09T09:11:42.186Z</time>
      </trkpt>
      <trkpt lat="37.42004667" lon="-4.38159">
        <ele>621.0</ele>
        <time>2018-06-09T09:11:43.170Z</time>
      </trkpt>
      <trkpt lat="37.42004667" lon="-4.38159">
        <ele>621.0</ele>
        <time>2018-06-09T09:11:44.175Z</time>
      </trkpt>
      <trkpt lat="37.42004833" lon="-4.38167333">
        <ele>621.0</ele>
        <time>2018-06-09T09:11:45.182Z</time>
      </trkpt>
      <trkpt lat="37.42004833" lon="-4.38167333">
        <ele>621.0</ele>
        <time>2018-06-09T09:11:46.187Z</time>
      </trkpt>
      <trkpt lat="37.42005" lon="-4.38177">
        <ele>621.0</ele>
        <time>2018-06-09T09:11:47.170Z</time>
      </trkpt>
      <trkpt lat="37.42005" lon="-4.38177">
        <ele>621.0</ele>
        <time>2018-06-09T09:11:48.185Z</time>
      </trkpt>
      <trkpt lat="37.42005333" lon="-4.38186833">
        <ele>621.0</ele>
        <time>2018-06-09T09:11:49.157Z</time>
      </trkpt>
      <trkpt lat="37.42005333" lon="-4.38186833">
        <ele>621.0</ele>
        <time>2018-06-09T09:11:50.162Z</time>
      </trkpt>
      <trkpt lat="37.42006" lon="-4.38197">
        <ele>621.0</ele>
        <time>2018-06-09T09:11:51.168Z</time>
      </trkpt>
      <trkpt lat="37.42006" lon="-4.38197">
        <ele>621.0</ele>
        <time>2018-06-09T09:11:52.174Z</time>
      </trkpt>
      <trkpt lat="37.42006333" lon="-4.38207833">
        <ele>621.0</ele>
        <time>2018-06-09T09:11:53.164Z</time>
      </trkpt>
      <trkpt lat="37.42006333" lon="-4.38207833">
        <ele>621.0</ele>
        <time>2018-06-09T09:11:54.169Z</time>
      </trkpt>
      <trkpt lat="37.42006833" lon="-4.38218667">
        <ele>621.0</ele>
        <time>2018-06-09T09:11:55.176Z</time>
      </trkpt>
      <trkpt lat="37.42007333" lon="-4.382245">
        <ele>621.0</ele>
        <time>2018-06-09T09:11:56.188Z</time>
      </trkpt>
      <trkpt lat="37.42007333" lon="-4.382245">
        <ele>621.0</ele>
        <time>2018-06-09T09:11:57.158Z</time>
      </trkpt>
      <trkpt lat="37.42008" lon="-4.38236333">
        <ele>621.0</ele>
        <time>2018-06-09T09:11:58.165Z</time>
      </trkpt>
      <trkpt lat="37.42008" lon="-4.38236333">
        <ele>621.0</ele>
        <time>2018-06-09T09:11:59.169Z</time>
      </trkpt>
      <trkpt lat="37.420085" lon="-4.38248167">
        <ele>621.0</ele>
        <time>2018-06-09T09:12:00.175Z</time>
      </trkpt>
      <trkpt lat="37.420085" lon="-4.38248167">
        <ele>621.0</ele>
        <time>2018-06-09T09:12:01.180Z</time>
      </trkpt>
      <trkpt lat="37.42009" lon="-4.3826">
        <ele>621.0</ele>
        <time>2018-06-09T09:12:02.187Z</time>
      </trkpt>
      <trkpt lat="37.42009" lon="-4.3826">
        <ele>621.0</ele>
        <time>2018-06-09T09:12:03.163Z</time>
      </trkpt>
      <trkpt lat="37.42009" lon="-4.38271667">
        <ele>621.0</ele>
        <time>2018-06-09T09:12:04.193Z</time>
      </trkpt>
      <trkpt lat="37.42009" lon="-4.38271667">
        <ele>621.0</ele>
        <time>2018-06-09T09:12:05.159Z</time>
      </trkpt>
      <trkpt lat="37.42009167" lon="-4.38282833">
        <ele>621.0</ele>
        <time>2018-06-09T09:12:06.165Z</time>
      </trkpt>
      <trkpt lat="37.420095" lon="-4.38288">
        <ele>621.0</ele>
        <time>2018-06-09T09:12:07.157Z</time>
      </trkpt>
      <trkpt lat="37.420095" lon="-4.38288">
        <ele>621.0</ele>
        <time>2018-06-09T09:12:08.162Z</time>
      </trkpt>
      <trkpt lat="37.4201" lon="-4.38298333">
        <ele>621.0</ele>
        <time>2018-06-09T09:12:09.169Z</time>
      </trkpt>
      <trkpt lat="37.4201" lon="-4.38298333">
        <ele>621.0</ele>
        <time>2018-06-09T09:12:10.174Z</time>
      </trkpt>
      <trkpt lat="37.42011167" lon="-4.383085">
        <ele>621.0</ele>
        <time>2018-06-09T09:12:11.171Z</time>
      </trkpt>
      <trkpt lat="37.42011167" lon="-4.383085">
        <ele>621.0</ele>
        <time>2018-06-09T09:12:12.177Z</time>
      </trkpt>
      <trkpt lat="37.42013167" lon="-4.38317833">
        <ele>621.0</ele>
        <time>2018-06-09T09:12:13.183Z</time>
      </trkpt>
      <trkpt lat="37.42013167" lon="-4.38317833">
        <ele>621.0</ele>
        <time>2018-06-09T09:12:14.188Z</time>
      </trkpt>
      <trkpt lat="37.42016" lon="-4.38326167">
        <ele>621.0</ele>
        <time>2018-06-09T09:12:15.167Z</time>
      </trkpt>
      <trkpt lat="37.42017" lon="-4.38330667">
        <ele>621.0</ele>
        <time>2018-06-09T09:12:16.173Z</time>
      </trkpt>
      <trkpt lat="37.42017" lon="-4.38330667">
        <ele>621.0</ele>
        <time>2018-06-09T09:12:17.178Z</time>
      </trkpt>
      <trkpt lat="37.42018333" lon="-4.38340167">
        <ele>621.0</ele>
        <time>2018-06-09T09:12:18.180Z</time>
      </trkpt>
      <trkpt lat="37.42018333" lon="-4.38340167">
        <ele>621.0</ele>
        <time>2018-06-09T09:12:19.186Z</time>
      </trkpt>
      <trkpt lat="37.42017667" lon="-4.38349">
        <ele>621.0</ele>
        <time>2018-06-09T09:12:20.192Z</time>
      </trkpt>
      <trkpt lat="37.42017667" lon="-4.38349">
        <ele>621.0</ele>
        <time>2018-06-09T09:12:21.160Z</time>
      </trkpt>
      <trkpt lat="37.42014667" lon="-4.38358333">
        <ele>620.0</ele>
        <time>2018-06-09T09:12:22.181Z</time>
      </trkpt>
      <trkpt lat="37.42014667" lon="-4.38358333">
        <ele>620.0</ele>
        <time>2018-06-09T09:12:23.192Z</time>
      </trkpt>
      <trkpt lat="37.42009333" lon="-4.38366833">
        <ele>620.0</ele>
        <time>2018-06-09T09:12:24.158Z</time>
      </trkpt>
      <trkpt lat="37.42006833" lon="-4.38370667">
        <ele>620.0</ele>
        <time>2018-06-09T09:12:25.180Z</time>
      </trkpt>
      <trkpt lat="37.42006833" lon="-4.38370667">
        <ele>620.0</ele>
        <time>2018-06-09T09:12:26.185Z</time>
      </trkpt>
      <trkpt lat="37.420015" lon="-4.38378">
        <ele>620.0</ele>
        <time>2018-06-09T09:12:27.161Z</time>
      </trkpt>
      <trkpt lat="37.41999167" lon="-4.38381833">
        <ele>620.0</ele>
        <time>2018-06-09T09:12:28.171Z</time>
      </trkpt>
      <trkpt lat="37.41999167" lon="-4.38381833">
        <ele>620.0</ele>
        <time>2018-06-09T09:12:29.175Z</time>
      </trkpt>
      <trkpt lat="37.41994833" lon="-4.38388833">
        <ele>621.0</ele>
        <time>2018-06-09T09:12:30.160Z</time>
      </trkpt>
      <trkpt lat="37.41992667" lon="-4.38392333">
        <ele>621.0</ele>
        <time>2018-06-09T09:12:31.178Z</time>
      </trkpt>
      <trkpt lat="37.41992667" lon="-4.38392333">
        <ele>621.0</ele>
        <time>2018-06-09T09:12:32.184Z</time>
      </trkpt>
      <trkpt lat="37.41989167" lon="-4.383995">
        <ele>623.0</ele>
        <time>2018-06-09T09:12:33.190Z</time>
      </trkpt>
      <trkpt lat="37.41989167" lon="-4.383995">
        <ele>623.0</ele>
        <time>2018-06-09T09:12:34.182Z</time>
      </trkpt>
      <trkpt lat="37.41986333" lon="-4.384055">
        <ele>623.0</ele>
        <time>2018-06-09T09:12:35.171Z</time>
      </trkpt>
      <trkpt lat="37.41986333" lon="-4.384055">
        <ele>623.0</ele>
        <time>2018-06-09T09:12:36.176Z</time>
      </trkpt>
      <trkpt lat="37.41983667" lon="-4.38409833">
        <ele>624.0</ele>
        <time>2018-06-09T09:12:37.187Z</time>
      </trkpt>
      <trkpt lat="37.41983667" lon="-4.38409833">
        <ele>624.0</ele>
        <time>2018-06-09T09:12:38.168Z</time>
      </trkpt>
      <trkpt lat="37.41981167" lon="-4.38413">
        <ele>624.0</ele>
        <time>2018-06-09T09:12:39.166Z</time>
      </trkpt>
      <trkpt lat="37.41981167" lon="-4.38413">
        <ele>624.0</ele>
        <time>2018-06-09T09:12:40.171Z</time>
      </trkpt>
      <trkpt lat="37.41979167" lon="-4.38416167">
        <ele>625.0</ele>
        <time>2018-06-09T09:12:41.177Z</time>
      </trkpt>
      <trkpt lat="37.41979167" lon="-4.38416167">
        <ele>625.0</ele>
        <time>2018-06-09T09:12:42.182Z</time>
      </trkpt>
      <trkpt lat="37.41977833" lon="-4.38419667">
        <ele>625.0</ele>
        <time>2018-06-09T09:12:43.157Z</time>
      </trkpt>
      <trkpt lat="37.41977833" lon="-4.38419667">
        <ele>625.0</ele>
        <time>2018-06-09T09:12:44.163Z</time>
      </trkpt>
      <trkpt lat="37.419765" lon="-4.38423167">
        <ele>626.0</ele>
        <time>2018-06-09T09:12:45.169Z</time>
      </trkpt>
      <trkpt lat="37.419765" lon="-4.38423167">
        <ele>626.0</ele>
        <time>2018-06-09T09:12:46.177Z</time>
      </trkpt>
      <trkpt lat="37.41975" lon="-4.384265">
        <ele>627.0</ele>
        <time>2018-06-09T09:12:47.170Z</time>
      </trkpt>
      <trkpt lat="37.41975" lon="-4.384265">
        <ele>627.0</ele>
        <time>2018-06-09T09:12:48.171Z</time>
      </trkpt>
      <trkpt lat="37.41973333" lon="-4.38429833">
        <ele>627.0</ele>
        <time>2018-06-09T09:12:49.178Z</time>
      </trkpt>
      <trkpt lat="37.41973333" lon="-4.38429833">
        <ele>627.0</ele>
        <time>2018-06-09T09:12:50.184Z</time>
      </trkpt>
      <trkpt lat="37.419715" lon="-4.38433167">
        <ele>628.0</ele>
        <time>2018-06-09T09:12:51.191Z</time>
      </trkpt>
      <trkpt lat="37.419715" lon="-4.38433167">
        <ele>628.0</ele>
        <time>2018-06-09T09:12:52.163Z</time>
      </trkpt>
      <trkpt lat="37.41969833" lon="-4.384365">
        <ele>628.0</ele>
        <time>2018-06-09T09:12:53.159Z</time>
      </trkpt>
      <trkpt lat="37.41969833" lon="-4.384365">
        <ele>628.0</ele>
        <time>2018-06-09T09:12:54.166Z</time>
      </trkpt>
      <trkpt lat="37.41968" lon="-4.38439333">
        <ele>628.0</ele>
        <time>2018-06-09T09:12:55.172Z</time>
      </trkpt>
      <trkpt lat="37.41968" lon="-4.38439333">
        <ele>628.0</ele>
        <time>2018-06-09T09:12:56.181Z</time>
      </trkpt>
      <trkpt lat="37.41966167" lon="-4.38442333">
        <ele>628.0</ele>
        <time>2018-06-09T09:12:57.171Z</time>
      </trkpt>
      <trkpt lat="37.41966167" lon="-4.38442333">
        <ele>628.0</ele>
        <time>2018-06-09T09:12:58.182Z</time>
      </trkpt>
      <trkpt lat="37.41964333" lon="-4.38445333">
        <ele>629.0</ele>
        <time>2018-06-09T09:12:59.190Z</time>
      </trkpt>
      <trkpt lat="37.41964333" lon="-4.38445333">
        <ele>629.0</ele>
        <time>2018-06-09T09:13:00.158Z</time>
      </trkpt>
      <trkpt lat="37.419625" lon="-4.38448333">
        <ele>630.0</ele>
        <time>2018-06-09T09:13:01.165Z</time>
      </trkpt>
      <trkpt lat="37.419625" lon="-4.38448333">
        <ele>630.0</ele>
        <time>2018-06-09T09:13:02.170Z</time>
      </trkpt>
      <trkpt lat="37.419605" lon="-4.38451333">
        <ele>630.0</ele>
        <time>2018-06-09T09:13:03.180Z</time>
      </trkpt>
      <trkpt lat="37.419605" lon="-4.38451333">
        <ele>630.0</ele>
        <time>2018-06-09T09:13:04.186Z</time>
      </trkpt>
      <trkpt lat="37.41958333" lon="-4.38453667">
        <ele>630.0</ele>
        <time>2018-06-09T09:13:05.159Z</time>
      </trkpt>
      <trkpt lat="37.41957167" lon="-4.38454667">
        <ele>631.0</ele>
        <time>2018-06-09T09:13:06.181Z</time>
      </trkpt>
      <trkpt lat="37.41956" lon="-4.38455833">
        <ele>631.0</ele>
        <time>2018-06-09T09:13:07.188Z</time>
      </trkpt>
      <trkpt lat="37.41956" lon="-4.38455833">
        <ele>631.0</ele>
        <time>2018-06-09T09:13:08.160Z</time>
      </trkpt>
      <trkpt lat="37.419535" lon="-4.38457833">
        <ele>632.0</ele>
        <time>2018-06-09T09:13:09.181Z</time>
      </trkpt>
      <trkpt lat="37.419535" lon="-4.38457833">
        <ele>632.0</ele>
        <time>2018-06-09T09:13:10.186Z</time>
      </trkpt>
      <trkpt lat="37.41951" lon="-4.38459333">
        <ele>632.0</ele>
        <time>2018-06-09T09:13:11.159Z</time>
      </trkpt>
      <trkpt lat="37.41951" lon="-4.38459333">
        <ele>632.0</ele>
        <time>2018-06-09T09:13:12.166Z</time>
      </trkpt>
      <trkpt lat="37.41948167" lon="-4.38460167">
        <ele>633.0</ele>
        <time>2018-06-09T09:13:13.163Z</time>
      </trkpt>
      <trkpt lat="37.41948167" lon="-4.38460167">
        <ele>633.0</ele>
        <time>2018-06-09T09:13:14.169Z</time>
      </trkpt>
      <trkpt lat="37.419455" lon="-4.384615">
        <ele>634.0</ele>
        <time>2018-06-09T09:13:15.176Z</time>
      </trkpt>
      <trkpt lat="37.419455" lon="-4.384615">
        <ele>634.0</ele>
        <time>2018-06-09T09:13:16.181Z</time>
      </trkpt>
      <trkpt lat="37.41943167" lon="-4.38462333">
        <ele>635.0</ele>
        <time>2018-06-09T09:13:17.162Z</time>
      </trkpt>
      <trkpt lat="37.41943167" lon="-4.38462333">
        <ele>635.0</ele>
        <time>2018-06-09T09:13:18.167Z</time>
      </trkpt>
      <trkpt lat="37.41940833" lon="-4.38463667">
        <ele>635.0</ele>
        <time>2018-06-09T09:13:19.173Z</time>
      </trkpt>
      <trkpt lat="37.41940833" lon="-4.38463667">
        <ele>635.0</ele>
        <time>2018-06-09T09:13:20.178Z</time>
      </trkpt>
      <trkpt lat="37.41938667" lon="-4.38465333">
        <ele>636.0</ele>
        <time>2018-06-09T09:13:21.168Z</time>
      </trkpt>
      <trkpt lat="37.41938667" lon="-4.38465333">
        <ele>636.0</ele>
        <time>2018-06-09T09:13:22.181Z</time>
      </trkpt>
      <trkpt lat="37.41936833" lon="-4.38467667">
        <ele>636.0</ele>
        <time>2018-06-09T09:13:23.158Z</time>
      </trkpt>
      <trkpt lat="37.41935833" lon="-4.384685">
        <ele>636.0</ele>
        <time>2018-06-09T09:13:24.160Z</time>
      </trkpt>
      <trkpt lat="37.41935" lon="-4.38469333">
        <ele>636.0</ele>
        <time>2018-06-09T09:13:25.165Z</time>
      </trkpt>
      <trkpt lat="37.41935" lon="-4.38469333">
        <ele>636.0</ele>
        <time>2018-06-09T09:13:26.170Z</time>
      </trkpt>
      <trkpt lat="37.41932833" lon="-4.38471167">
        <ele>637.0</ele>
        <time>2018-06-09T09:13:27.191Z</time>
      </trkpt>
      <trkpt lat="37.41932833" lon="-4.38471167">
        <ele>637.0</ele>
        <time>2018-06-09T09:13:28.158Z</time>
      </trkpt>
      <trkpt lat="37.41930167" lon="-4.38471667">
        <ele>637.0</ele>
        <time>2018-06-09T09:13:29.169Z</time>
      </trkpt>
      <trkpt lat="37.41928833" lon="-4.38472">
        <ele>638.0</ele>
        <time>2018-06-09T09:13:30.160Z</time>
      </trkpt>
      <trkpt lat="37.41928833" lon="-4.38472">
        <ele>638.0</ele>
        <time>2018-06-09T09:13:31.165Z</time>
      </trkpt>
      <trkpt lat="37.419265" lon="-4.38473">
        <ele>638.0</ele>
        <time>2018-06-09T09:13:32.173Z</time>
      </trkpt>
      <trkpt lat="37.419265" lon="-4.38473">
        <ele>638.0</ele>
        <time>2018-06-09T09:13:33.179Z</time>
      </trkpt>
      <trkpt lat="37.41924167" lon="-4.38474167">
        <ele>639.0</ele>
        <time>2018-06-09T09:13:34.172Z</time>
      </trkpt>
      <trkpt lat="37.41924167" lon="-4.38474167">
        <ele>639.0</ele>
        <time>2018-06-09T09:13:35.177Z</time>
      </trkpt>
      <trkpt lat="37.41922333" lon="-4.38475667">
        <ele>639.0</ele>
        <time>2018-06-09T09:13:36.184Z</time>
      </trkpt>
      <trkpt lat="37.41922333" lon="-4.38475667">
        <ele>639.0</ele>
        <time>2018-06-09T09:13:37.190Z</time>
      </trkpt>
      <trkpt lat="37.41920333" lon="-4.38477667">
        <ele>640.0</ele>
        <time>2018-06-09T09:13:38.196Z</time>
      </trkpt>
      <trkpt lat="37.41920333" lon="-4.38477667">
        <ele>640.0</ele>
        <time>2018-06-09T09:13:39.161Z</time>
      </trkpt>
      <trkpt lat="37.41918167" lon="-4.38479833">
        <ele>640.0</ele>
        <time>2018-06-09T09:13:40.168Z</time>
      </trkpt>
      <trkpt lat="37.41918167" lon="-4.38479833">
        <ele>640.0</ele>
        <time>2018-06-09T09:13:41.173Z</time>
      </trkpt>
      <trkpt lat="37.41916167" lon="-4.38482">
        <ele>640.0</ele>
        <time>2018-06-09T09:13:42.165Z</time>
      </trkpt>
      <trkpt lat="37.41915167" lon="-4.38483167">
        <ele>640.0</ele>
        <time>2018-06-09T09:13:43.172Z</time>
      </trkpt>
      <trkpt lat="37.41915167" lon="-4.38483167">
        <ele>640.0</ele>
        <time>2018-06-09T09:13:44.177Z</time>
      </trkpt>
      <trkpt lat="37.41912667" lon="-4.38485333">
        <ele>640.0</ele>
        <time>2018-06-09T09:13:45.169Z</time>
      </trkpt>
      <trkpt lat="37.41912667" lon="-4.38485333">
        <ele>640.0</ele>
        <time>2018-06-09T09:13:46.175Z</time>
      </trkpt>
      <trkpt lat="37.41910667" lon="-4.38487">
        <ele>640.0</ele>
        <time>2018-06-09T09:13:47.178Z</time>
      </trkpt>
      <trkpt lat="37.41909667" lon="-4.38488333">
        <ele>640.0</ele>
        <time>2018-06-09T09:13:48.179Z</time>
      </trkpt>
      <trkpt lat="37.41908833" lon="-4.38489833">
        <ele>641.0</ele>
        <time>2018-06-09T09:13:49.186Z</time>
      </trkpt>
      <trkpt lat="37.41908833" lon="-4.38489833">
        <ele>641.0</ele>
        <time>2018-06-09T09:13:50.191Z</time>
      </trkpt>
      <trkpt lat="37.419085" lon="-4.38493333">
        <ele>641.0</ele>
        <time>2018-06-09T09:13:51.171Z</time>
      </trkpt>
      <trkpt lat="37.419085" lon="-4.38493333">
        <ele>641.0</ele>
        <time>2018-06-09T09:13:52.177Z</time>
      </trkpt>
      <trkpt lat="37.419085" lon="-4.38496833">
        <ele>642.0</ele>
        <time>2018-06-09T09:13:53.184Z</time>
      </trkpt>
      <trkpt lat="37.419085" lon="-4.38496833">
        <ele>642.0</ele>
        <time>2018-06-09T09:13:54.192Z</time>
      </trkpt>
      <trkpt lat="37.41908167" lon="-4.38499833">
        <ele>643.0</ele>
        <time>2018-06-09T09:13:55.181Z</time>
      </trkpt>
      <trkpt lat="37.41908167" lon="-4.38499833">
        <ele>643.0</ele>
        <time>2018-06-09T09:13:56.186Z</time>
      </trkpt>
      <trkpt lat="37.41909" lon="-4.38502667">
        <ele>643.0</ele>
        <time>2018-06-09T09:13:57.159Z</time>
      </trkpt>
      <trkpt lat="37.41909" lon="-4.38502667">
        <ele>643.0</ele>
        <time>2018-06-09T09:13:58.165Z</time>
      </trkpt>
      <trkpt lat="37.41910167" lon="-4.385055">
        <ele>644.0</ele>
        <time>2018-06-09T09:13:59.182Z</time>
      </trkpt>
      <trkpt lat="37.41910167" lon="-4.385055">
        <ele>644.0</ele>
        <time>2018-06-09T09:14:00.187Z</time>
      </trkpt>
      <trkpt lat="37.41909667" lon="-4.385085">
        <ele>645.0</ele>
        <time>2018-06-09T09:14:01.160Z</time>
      </trkpt>
      <trkpt lat="37.41909667" lon="-4.385085">
        <ele>645.0</ele>
        <time>2018-06-09T09:14:02.166Z</time>
      </trkpt>
      <trkpt lat="37.41908833" lon="-4.38511333">
        <ele>645.0</ele>
        <time>2018-06-09T09:14:03.180Z</time>
      </trkpt>
      <trkpt lat="37.41908833" lon="-4.38511333">
        <ele>645.0</ele>
        <time>2018-06-09T09:14:04.186Z</time>
      </trkpt>
      <trkpt lat="37.41909" lon="-4.38514167">
        <ele>646.0</ele>
        <time>2018-06-09T09:14:05.158Z</time>
      </trkpt>
      <trkpt lat="37.419095" lon="-4.38515667">
        <ele>646.0</ele>
        <time>2018-06-09T09:14:06.170Z</time>
      </trkpt>
      <trkpt lat="37.41909667" lon="-4.38517333">
        <ele>647.0</ele>
        <time>2018-06-09T09:14:07.182Z</time>
      </trkpt>
      <trkpt lat="37.41909667" lon="-4.38517333">
        <ele>647.0</ele>
        <time>2018-06-09T09:14:08.188Z</time>
      </trkpt>
      <trkpt lat="37.41908667" lon="-4.38519667">
        <ele>648.0</ele>
        <time>2018-06-09T09:14:09.158Z</time>
      </trkpt>
      <trkpt lat="37.419085" lon="-4.38521">
        <ele>648.0</ele>
        <time>2018-06-09T09:14:10.189Z</time>
      </trkpt>
      <trkpt lat="37.419085" lon="-4.38521">
        <ele>648.0</ele>
        <time>2018-06-09T09:14:11.195Z</time>
      </trkpt>
      <trkpt lat="37.419085" lon="-4.38523667">
        <ele>649.0</ele>
        <time>2018-06-09T09:14:12.163Z</time>
      </trkpt>
      <trkpt lat="37.419085" lon="-4.38523667">
        <ele>649.0</ele>
        <time>2018-06-09T09:14:13.169Z</time>
      </trkpt>
      <trkpt lat="37.41908333" lon="-4.38526667">
        <ele>650.0</ele>
        <time>2018-06-09T09:14:14.179Z</time>
      </trkpt>
      <trkpt lat="37.41908333" lon="-4.38526667">
        <ele>650.0</ele>
        <time>2018-06-09T09:14:15.184Z</time>
      </trkpt>
      <trkpt lat="37.41908333" lon="-4.38529833">
        <ele>650.0</ele>
        <time>2018-06-09T09:14:16.190Z</time>
      </trkpt>
      <trkpt lat="37.41908333" lon="-4.38529833">
        <ele>650.0</ele>
        <time>2018-06-09T09:14:17.167Z</time>
      </trkpt>
      <trkpt lat="37.41908167" lon="-4.38532833">
        <ele>651.0</ele>
        <time>2018-06-09T09:14:18.170Z</time>
      </trkpt>
      <trkpt lat="37.41908167" lon="-4.38532833">
        <ele>651.0</ele>
        <time>2018-06-09T09:14:19.175Z</time>
      </trkpt>
      <trkpt lat="37.41907833" lon="-4.38536">
        <ele>652.0</ele>
        <time>2018-06-09T09:14:20.182Z</time>
      </trkpt>
      <trkpt lat="37.41907833" lon="-4.38536">
        <ele>652.0</ele>
        <time>2018-06-09T09:14:21.187Z</time>
      </trkpt>
      <trkpt lat="37.419075" lon="-4.38539333">
        <ele>653.0</ele>
        <time>2018-06-09T09:14:22.165Z</time>
      </trkpt>
      <trkpt lat="37.419075" lon="-4.38539333">
        <ele>653.0</ele>
        <time>2018-06-09T09:14:23.170Z</time>
      </trkpt>
      <trkpt lat="37.419075" lon="-4.38542333">
        <ele>654.0</ele>
        <time>2018-06-09T09:14:24.176Z</time>
      </trkpt>
      <trkpt lat="37.419075" lon="-4.38542333">
        <ele>654.0</ele>
        <time>2018-06-09T09:14:25.181Z</time>
      </trkpt>
      <trkpt lat="37.41907" lon="-4.38545">
        <ele>655.0</ele>
        <time>2018-06-09T09:14:26.194Z</time>
      </trkpt>
      <trkpt lat="37.41907" lon="-4.38545">
        <ele>655.0</ele>
        <time>2018-06-09T09:14:27.159Z</time>
      </trkpt>
      <trkpt lat="37.419065" lon="-4.38548167">
        <ele>655.0</ele>
        <time>2018-06-09T09:14:28.166Z</time>
      </trkpt>
      <trkpt lat="37.419065" lon="-4.38548167">
        <ele>655.0</ele>
        <time>2018-06-09T09:14:29.170Z</time>
      </trkpt>
      <trkpt lat="37.41906333" lon="-4.38551167">
        <ele>656.0</ele>
        <time>2018-06-09T09:14:30.175Z</time>
      </trkpt>
      <trkpt lat="37.41906333" lon="-4.38551167">
        <ele>656.0</ele>
        <time>2018-06-09T09:14:31.180Z</time>
      </trkpt>
      <trkpt lat="37.41905833" lon="-4.38554333">
        <ele>656.0</ele>
        <time>2018-06-09T09:14:32.195Z</time>
      </trkpt>
      <trkpt lat="37.41905833" lon="-4.385555">
        <ele>657.0</ele>
        <time>2018-06-09T09:14:33.161Z</time>
      </trkpt>
      <trkpt lat="37.41905833" lon="-4.385555">
        <ele>657.0</ele>
        <time>2018-06-09T09:14:34.167Z</time>
      </trkpt>
      <trkpt lat="37.419055" lon="-4.38558167">
        <ele>657.0</ele>
        <time>2018-06-09T09:14:35.161Z</time>
      </trkpt>
      <trkpt lat="37.419055" lon="-4.385595">
        <ele>657.0</ele>
        <time>2018-06-09T09:14:36.178Z</time>
      </trkpt>
      <trkpt lat="37.419055" lon="-4.385595">
        <ele>657.0</ele>
        <time>2018-06-09T09:14:37.183Z</time>
      </trkpt>
      <trkpt lat="37.41906" lon="-4.38562333">
        <ele>658.0</ele>
        <time>2018-06-09T09:14:38.163Z</time>
      </trkpt>
      <trkpt lat="37.41906333" lon="-4.38563667">
        <ele>658.0</ele>
        <time>2018-06-09T09:14:39.168Z</time>
      </trkpt>
      <trkpt lat="37.41906333" lon="-4.38563667">
        <ele>658.0</ele>
        <time>2018-06-09T09:14:40.174Z</time>
      </trkpt>
      <trkpt lat="37.41907" lon="-4.38567167">
        <ele>659.0</ele>
        <time>2018-06-09T09:14:41.177Z</time>
      </trkpt>
      <trkpt lat="37.41907" lon="-4.38567167">
        <ele>659.0</ele>
        <time>2018-06-09T09:14:42.183Z</time>
      </trkpt>
      <trkpt lat="37.41906833" lon="-4.38570333">
        <ele>659.0</ele>
        <time>2018-06-09T09:14:43.190Z</time>
      </trkpt>
      <trkpt lat="37.41906833" lon="-4.38570333">
        <ele>659.0</ele>
        <time>2018-06-09T09:14:44.170Z</time>
      </trkpt>
      <trkpt lat="37.419065" lon="-4.38573167">
        <ele>660.0</ele>
        <time>2018-06-09T09:14:45.179Z</time>
      </trkpt>
      <trkpt lat="37.419065" lon="-4.38573167">
        <ele>660.0</ele>
        <time>2018-06-09T09:14:46.190Z</time>
      </trkpt>
      <trkpt lat="37.41907167" lon="-4.38576167">
        <ele>660.0</ele>
        <time>2018-06-09T09:14:47.176Z</time>
      </trkpt>
      <trkpt lat="37.419075" lon="-4.385775">
        <ele>661.0</ele>
        <time>2018-06-09T09:14:48.185Z</time>
      </trkpt>
      <trkpt lat="37.41907833" lon="-4.38579167">
        <ele>661.0</ele>
        <time>2018-06-09T09:14:49.190Z</time>
      </trkpt>
      <trkpt lat="37.41907833" lon="-4.38579167">
        <ele>661.0</ele>
        <time>2018-06-09T09:14:50.159Z</time>
      </trkpt>
      <trkpt lat="37.41907833" lon="-4.38583">
        <ele>661.0</ele>
        <time>2018-06-09T09:14:51.192Z</time>
      </trkpt>
      <trkpt lat="37.41907833" lon="-4.38583">
        <ele>661.0</ele>
        <time>2018-06-09T09:14:52.160Z</time>
      </trkpt>
      <trkpt lat="37.419075" lon="-4.38586333">
        <ele>662.0</ele>
        <time>2018-06-09T09:14:53.188Z</time>
      </trkpt>
      <trkpt lat="37.41907" lon="-4.38587833">
        <ele>662.0</ele>
        <time>2018-06-09T09:14:54.175Z</time>
      </trkpt>
      <trkpt lat="37.41907" lon="-4.38587833">
        <ele>662.0</ele>
        <time>2018-06-09T09:14:55.181Z</time>
      </trkpt>
      <trkpt lat="37.41906167" lon="-4.38591167">
        <ele>663.0</ele>
        <time>2018-06-09T09:14:56.188Z</time>
      </trkpt>
      <trkpt lat="37.41906167" lon="-4.38592833">
        <ele>663.0</ele>
        <time>2018-06-09T09:14:57.166Z</time>
      </trkpt>
      <trkpt lat="37.41906167" lon="-4.38592833">
        <ele>663.0</ele>
        <time>2018-06-09T09:14:58.171Z</time>
      </trkpt>
      <trkpt lat="37.41906833" lon="-4.38595667">
        <ele>664.0</ele>
        <time>2018-06-09T09:14:59.177Z</time>
      </trkpt>
      <trkpt lat="37.41906833" lon="-4.38595667">
        <ele>664.0</ele>
        <time>2018-06-09T09:15:00.182Z</time>
      </trkpt>
      <trkpt lat="37.41906167" lon="-4.38598833">
        <ele>665.0</ele>
        <time>2018-06-09T09:15:01.161Z</time>
      </trkpt>
      <trkpt lat="37.41906167" lon="-4.38598833">
        <ele>665.0</ele>
        <time>2018-06-09T09:15:02.166Z</time>
      </trkpt>
      <trkpt lat="37.41905667" lon="-4.386015">
        <ele>665.0</ele>
        <time>2018-06-09T09:15:03.172Z</time>
      </trkpt>
      <trkpt lat="37.41905667" lon="-4.386015">
        <ele>665.0</ele>
        <time>2018-06-09T09:15:04.177Z</time>
      </trkpt>
      <trkpt lat="37.41906" lon="-4.38604333">
        <ele>666.0</ele>
        <time>2018-06-09T09:15:05.161Z</time>
      </trkpt>
      <trkpt lat="37.41906" lon="-4.38604333">
        <ele>666.0</ele>
        <time>2018-06-09T09:15:06.166Z</time>
      </trkpt>
      <trkpt lat="37.41906" lon="-4.38608">
        <ele>667.0</ele>
        <time>2018-06-09T09:15:07.172Z</time>
      </trkpt>
      <trkpt lat="37.41906" lon="-4.38608">
        <ele>667.0</ele>
        <time>2018-06-09T09:15:08.182Z</time>
      </trkpt>
      <trkpt lat="37.419055" lon="-4.38611833">
        <ele>667.0</ele>
        <time>2018-06-09T09:15:09.161Z</time>
      </trkpt>
      <trkpt lat="37.419055" lon="-4.38611833">
        <ele>667.0</ele>
        <time>2018-06-09T09:15:10.166Z</time>
      </trkpt>
      <trkpt lat="37.41905" lon="-4.38615667">
        <ele>668.0</ele>
        <time>2018-06-09T09:15:11.172Z</time>
      </trkpt>
      <trkpt lat="37.41905" lon="-4.38615667">
        <ele>668.0</ele>
        <time>2018-06-09T09:15:12.177Z</time>
      </trkpt>
      <trkpt lat="37.41904833" lon="-4.38619667">
        <ele>668.0</ele>
        <time>2018-06-09T09:15:13.168Z</time>
      </trkpt>
      <trkpt lat="37.41904833" lon="-4.38619667">
        <ele>668.0</ele>
        <time>2018-06-09T09:15:14.174Z</time>
      </trkpt>
      <trkpt lat="37.41905167" lon="-4.38623833">
        <ele>669.0</ele>
        <time>2018-06-09T09:15:15.185Z</time>
      </trkpt>
      <trkpt lat="37.41905667" lon="-4.386255">
        <ele>669.0</ele>
        <time>2018-06-09T09:15:16.191Z</time>
      </trkpt>
      <trkpt lat="37.41905667" lon="-4.386255">
        <ele>669.0</ele>
        <time>2018-06-09T09:15:17.159Z</time>
      </trkpt>
      <trkpt lat="37.419065" lon="-4.38629">
        <ele>669.0</ele>
        <time>2018-06-09T09:15:18.168Z</time>
      </trkpt>
      <trkpt lat="37.41907" lon="-4.38631">
        <ele>669.0</ele>
        <time>2018-06-09T09:15:19.174Z</time>
      </trkpt>
      <trkpt lat="37.41907" lon="-4.38631">
        <ele>669.0</ele>
        <time>2018-06-09T09:15:20.182Z</time>
      </trkpt>
      <trkpt lat="37.41908167" lon="-4.38635">
        <ele>670.0</ele>
        <time>2018-06-09T09:15:21.193Z</time>
      </trkpt>
      <trkpt lat="37.41908167" lon="-4.38635">
        <ele>670.0</ele>
        <time>2018-06-09T09:15:22.159Z</time>
      </trkpt>
      <trkpt lat="37.41909333" lon="-4.38638833">
        <ele>670.0</ele>
        <time>2018-06-09T09:15:23.166Z</time>
      </trkpt>
      <trkpt lat="37.41909667" lon="-4.38640667">
        <ele>670.0</ele>
        <time>2018-06-09T09:15:24.162Z</time>
      </trkpt>
      <trkpt lat="37.41909667" lon="-4.38640667">
        <ele>670.0</ele>
        <time>2018-06-09T09:15:25.167Z</time>
      </trkpt>
      <trkpt lat="37.419105" lon="-4.38644667">
        <ele>670.0</ele>
        <time>2018-06-09T09:15:26.181Z</time>
      </trkpt>
      <trkpt lat="37.41911" lon="-4.38647">
        <ele>670.0</ele>
        <time>2018-06-09T09:15:27.182Z</time>
      </trkpt>
      <trkpt lat="37.41911" lon="-4.38647">
        <ele>670.0</ele>
        <time>2018-06-09T09:15:28.187Z</time>
      </trkpt>
      <trkpt lat="37.41911833" lon="-4.38651333">
        <ele>671.0</ele>
        <time>2018-06-09T09:15:29.158Z</time>
      </trkpt>
      <trkpt lat="37.41911833" lon="-4.38651333">
        <ele>671.0</ele>
        <time>2018-06-09T09:15:30.163Z</time>
      </trkpt>
      <trkpt lat="37.41912333" lon="-4.38655167">
        <ele>671.0</ele>
        <time>2018-06-09T09:15:31.180Z</time>
      </trkpt>
      <trkpt lat="37.41912667" lon="-4.38657167">
        <ele>671.0</ele>
        <time>2018-06-09T09:15:32.186Z</time>
      </trkpt>
      <trkpt lat="37.41912667" lon="-4.38657167">
        <ele>671.0</ele>
        <time>2018-06-09T09:15:33.192Z</time>
      </trkpt>
      <trkpt lat="37.41913833" lon="-4.38661667">
        <ele>672.0</ele>
        <time>2018-06-09T09:15:34.161Z</time>
      </trkpt>
      <trkpt lat="37.41913833" lon="-4.38661667">
        <ele>672.0</ele>
        <time>2018-06-09T09:15:35.166Z</time>
      </trkpt>
      <trkpt lat="37.41913333" lon="-4.38666333">
        <ele>672.0</ele>
        <time>2018-06-09T09:15:36.171Z</time>
      </trkpt>
      <trkpt lat="37.41913667" lon="-4.38668833">
        <ele>672.0</ele>
        <time>2018-06-09T09:15:37.160Z</time>
      </trkpt>
      <trkpt lat="37.41913667" lon="-4.38668833">
        <ele>672.0</ele>
        <time>2018-06-09T09:15:38.165Z</time>
      </trkpt>
      <trkpt lat="37.41913833" lon="-4.38673667">
        <ele>673.0</ele>
        <time>2018-06-09T09:15:39.171Z</time>
      </trkpt>
      <trkpt lat="37.41913833" lon="-4.38673667">
        <ele>673.0</ele>
        <time>2018-06-09T09:15:40.177Z</time>
      </trkpt>
      <trkpt lat="37.41914" lon="-4.386785">
        <ele>673.0</ele>
        <time>2018-06-09T09:15:41.160Z</time>
      </trkpt>
      <trkpt lat="37.41914" lon="-4.386785">
        <ele>673.0</ele>
        <time>2018-06-09T09:15:42.166Z</time>
      </trkpt>
      <trkpt lat="37.41913833" lon="-4.38683167">
        <ele>674.0</ele>
        <time>2018-06-09T09:15:43.172Z</time>
      </trkpt>
      <trkpt lat="37.41913833" lon="-4.38683167">
        <ele>674.0</ele>
        <time>2018-06-09T09:15:44.179Z</time>
      </trkpt>
      <trkpt lat="37.419135" lon="-4.38687">
        <ele>674.0</ele>
        <time>2018-06-09T09:15:45.172Z</time>
      </trkpt>
      <trkpt lat="37.41913833" lon="-4.38688833">
        <ele>674.0</ele>
        <time>2018-06-09T09:15:46.182Z</time>
      </trkpt>
      <trkpt lat="37.41913833" lon="-4.38688833">
        <ele>674.0</ele>
        <time>2018-06-09T09:15:47.191Z</time>
      </trkpt>
      <trkpt lat="37.41914667" lon="-4.38693">
        <ele>675.0</ele>
        <time>2018-06-09T09:15:48.162Z</time>
      </trkpt>
      <trkpt lat="37.41915333" lon="-4.38695">
        <ele>675.0</ele>
        <time>2018-06-09T09:15:49.169Z</time>
      </trkpt>
      <trkpt lat="37.41915333" lon="-4.38695">
        <ele>675.0</ele>
        <time>2018-06-09T09:15:50.175Z</time>
      </trkpt>
      <trkpt lat="37.419165" lon="-4.38698833">
        <ele>676.0</ele>
        <time>2018-06-09T09:15:51.159Z</time>
      </trkpt>
      <trkpt lat="37.419165" lon="-4.38698833">
        <ele>676.0</ele>
        <time>2018-06-09T09:15:52.166Z</time>
      </trkpt>
      <trkpt lat="37.41917667" lon="-4.387025">
        <ele>676.0</ele>
        <time>2018-06-09T09:15:53.178Z</time>
      </trkpt>
      <trkpt lat="37.41917667" lon="-4.387025">
        <ele>676.0</ele>
        <time>2018-06-09T09:15:54.184Z</time>
      </trkpt>
      <trkpt lat="37.41919" lon="-4.38705833">
        <ele>677.0</ele>
        <time>2018-06-09T09:15:55.190Z</time>
      </trkpt>
      <trkpt lat="37.41919" lon="-4.38705833">
        <ele>677.0</ele>
        <time>2018-06-09T09:15:56.167Z</time>
      </trkpt>
      <trkpt lat="37.41920667" lon="-4.387085">
        <ele>677.0</ele>
        <time>2018-06-09T09:15:57.174Z</time>
      </trkpt>
      <trkpt lat="37.41920667" lon="-4.387085">
        <ele>677.0</ele>
        <time>2018-06-09T09:15:58.179Z</time>
      </trkpt>
      <trkpt lat="37.41922167" lon="-4.38711333">
        <ele>678.0</ele>
        <time>2018-06-09T09:15:59.191Z</time>
      </trkpt>
      <trkpt lat="37.41922167" lon="-4.38711333">
        <ele>678.0</ele>
        <time>2018-06-09T09:16:00.158Z</time>
      </trkpt>
      <trkpt lat="37.41924167" lon="-4.38713667">
        <ele>678.0</ele>
        <time>2018-06-09T09:16:01.164Z</time>
      </trkpt>
      <trkpt lat="37.41924167" lon="-4.38713667">
        <ele>678.0</ele>
        <time>2018-06-09T09:16:02.169Z</time>
      </trkpt>
      <trkpt lat="37.41926333" lon="-4.38715333">
        <ele>679.0</ele>
        <time>2018-06-09T09:16:03.171Z</time>
      </trkpt>
      <trkpt lat="37.41926333" lon="-4.38715333">
        <ele>679.0</ele>
        <time>2018-06-09T09:16:04.176Z</time>
      </trkpt>
      <trkpt lat="37.41928" lon="-4.38718167">
        <ele>679.0</ele>
        <time>2018-06-09T09:16:05.183Z</time>
      </trkpt>
      <trkpt lat="37.41928" lon="-4.38718167">
        <ele>679.0</ele>
        <time>2018-06-09T09:16:06.189Z</time>
      </trkpt>
      <trkpt lat="37.41929167" lon="-4.38720833">
        <ele>680.0</ele>
        <time>2018-06-09T09:16:07.161Z</time>
      </trkpt>
      <trkpt lat="37.41929167" lon="-4.38720833">
        <ele>680.0</ele>
        <time>2018-06-09T09:16:08.166Z</time>
      </trkpt>
      <trkpt lat="37.41931167" lon="-4.38723667">
        <ele>681.0</ele>
        <time>2018-06-09T09:16:09.173Z</time>
      </trkpt>
      <trkpt lat="37.41931167" lon="-4.38723667">
        <ele>681.0</ele>
        <time>2018-06-09T09:16:10.183Z</time>
      </trkpt>
      <trkpt lat="37.41933" lon="-4.38726833">
        <ele>681.0</ele>
        <time>2018-06-09T09:16:11.182Z</time>
      </trkpt>
      <trkpt lat="37.41933" lon="-4.38726833">
        <ele>681.0</ele>
        <time>2018-06-09T09:16:12.189Z</time>
      </trkpt>
      <trkpt lat="37.41933833" lon="-4.387305">
        <ele>682.0</ele>
        <time>2018-06-09T09:16:13.160Z</time>
      </trkpt>
      <trkpt lat="37.41933833" lon="-4.387305">
        <ele>682.0</ele>
        <time>2018-06-09T09:16:14.182Z</time>
      </trkpt>
      <trkpt lat="37.41935667" lon="-4.38733667">
        <ele>683.0</ele>
        <time>2018-06-09T09:16:15.194Z</time>
      </trkpt>
      <trkpt lat="37.41935667" lon="-4.38733667">
        <ele>683.0</ele>
        <time>2018-06-09T09:16:16.160Z</time>
      </trkpt>
      <trkpt lat="37.41937833" lon="-4.38736333">
        <ele>683.0</ele>
        <time>2018-06-09T09:16:17.166Z</time>
      </trkpt>
      <trkpt lat="37.41937833" lon="-4.38736333">
        <ele>683.0</ele>
        <time>2018-06-09T09:16:18.171Z</time>
      </trkpt>
      <trkpt lat="37.419395" lon="-4.38739333">
        <ele>684.0</ele>
        <time>2018-06-09T09:16:19.166Z</time>
      </trkpt>
      <trkpt lat="37.419395" lon="-4.38739333">
        <ele>684.0</ele>
        <time>2018-06-09T09:16:20.171Z</time>
      </trkpt>
      <trkpt lat="37.41941" lon="-4.38741833">
        <ele>684.0</ele>
        <time>2018-06-09T09:16:21.178Z</time>
      </trkpt>
      <trkpt lat="37.41941" lon="-4.38741833">
        <ele>684.0</ele>
        <time>2018-06-09T09:16:22.185Z</time>
      </trkpt>
      <trkpt lat="37.419425" lon="-4.38744667">
        <ele>684.0</ele>
        <time>2018-06-09T09:16:23.163Z</time>
      </trkpt>
      <trkpt lat="37.419425" lon="-4.38744667">
        <ele>684.0</ele>
        <time>2018-06-09T09:16:24.163Z</time>
      </trkpt>
      <trkpt lat="37.41944" lon="-4.38747833">
        <ele>684.0</ele>
        <time>2018-06-09T09:16:25.170Z</time>
      </trkpt>
      <trkpt lat="37.41944" lon="-4.38747833">
        <ele>684.0</ele>
        <time>2018-06-09T09:16:26.175Z</time>
      </trkpt>
      <trkpt lat="37.41944833" lon="-4.387515">
        <ele>684.0</ele>
        <time>2018-06-09T09:16:27.172Z</time>
      </trkpt>
      <trkpt lat="37.41945167" lon="-4.38753167">
        <ele>685.0</ele>
        <time>2018-06-09T09:16:28.178Z</time>
      </trkpt>
      <trkpt lat="37.41945167" lon="-4.38753167">
        <ele>685.0</ele>
        <time>2018-06-09T09:16:29.184Z</time>
      </trkpt>
      <trkpt lat="37.41946" lon="-4.38757">
        <ele>685.0</ele>
        <time>2018-06-09T09:16:30.180Z</time>
      </trkpt>
      <trkpt lat="37.419465" lon="-4.38758667">
        <ele>686.0</ele>
        <time>2018-06-09T09:16:31.179Z</time>
      </trkpt>
      <trkpt lat="37.419465" lon="-4.38758667">
        <ele>686.0</ele>
        <time>2018-06-09T09:16:32.186Z</time>
      </trkpt>
      <trkpt lat="37.41947" lon="-4.38762">
        <ele>686.0</ele>
        <time>2018-06-09T09:16:33.192Z</time>
      </trkpt>
      <trkpt lat="37.41947" lon="-4.38762">
        <ele>686.0</ele>
        <time>2018-06-09T09:16:34.159Z</time>
      </trkpt>
      <trkpt lat="37.41947833" lon="-4.387655">
        <ele>686.0</ele>
        <time>2018-06-09T09:16:35.170Z</time>
      </trkpt>
      <trkpt lat="37.41947833" lon="-4.387655">
        <ele>686.0</ele>
        <time>2018-06-09T09:16:36.176Z</time>
      </trkpt>
      <trkpt lat="37.419485" lon="-4.38769">
        <ele>686.0</ele>
        <time>2018-06-09T09:16:37.196Z</time>
      </trkpt>
      <trkpt lat="37.41948333" lon="-4.38770833">
        <ele>686.0</ele>
        <time>2018-06-09T09:16:38.189Z</time>
      </trkpt>
      <trkpt lat="37.41948333" lon="-4.38770833">
        <ele>686.0</ele>
        <time>2018-06-09T09:16:39.160Z</time>
      </trkpt>
      <trkpt lat="37.419485" lon="-4.38774667">
        <ele>687.0</ele>
        <time>2018-06-09T09:16:40.167Z</time>
      </trkpt>
      <trkpt lat="37.41949" lon="-4.38776667">
        <ele>687.0</ele>
        <time>2018-06-09T09:16:41.173Z</time>
      </trkpt>
      <trkpt lat="37.41949" lon="-4.38776667">
        <ele>687.0</ele>
        <time>2018-06-09T09:16:42.182Z</time>
      </trkpt>
      <trkpt lat="37.419495" lon="-4.387805">
        <ele>688.0</ele>
        <time>2018-06-09T09:16:43.179Z</time>
      </trkpt>
      <trkpt lat="37.419495" lon="-4.387805">
        <ele>688.0</ele>
        <time>2018-06-09T09:16:44.184Z</time>
      </trkpt>
      <trkpt lat="37.41950167" lon="-4.38784833">
        <ele>688.0</ele>
        <time>2018-06-09T09:16:45.190Z</time>
      </trkpt>
      <trkpt lat="37.41950167" lon="-4.38784833">
        <ele>688.0</ele>
        <time>2018-06-09T09:16:46.196Z</time>
      </trkpt>
      <trkpt lat="37.41950667" lon="-4.38788833">
        <ele>688.0</ele>
        <time>2018-06-09T09:16:47.160Z</time>
      </trkpt>
      <trkpt lat="37.41950667" lon="-4.38788833">
        <ele>688.0</ele>
        <time>2018-06-09T09:16:48.179Z</time>
      </trkpt>
      <trkpt lat="37.41951333" lon="-4.38792667">
        <ele>689.0</ele>
        <time>2018-06-09T09:16:49.186Z</time>
      </trkpt>
      <trkpt lat="37.41951333" lon="-4.38792667">
        <ele>689.0</ele>
        <time>2018-06-09T09:16:50.191Z</time>
      </trkpt>
      <trkpt lat="37.41952167" lon="-4.38796667">
        <ele>689.0</ele>
        <time>2018-06-09T09:16:51.162Z</time>
      </trkpt>
      <trkpt lat="37.419525" lon="-4.38798667">
        <ele>690.0</ele>
        <time>2018-06-09T09:16:52.168Z</time>
      </trkpt>
      <trkpt lat="37.419525" lon="-4.38798667">
        <ele>690.0</ele>
        <time>2018-06-09T09:16:53.173Z</time>
      </trkpt>
      <trkpt lat="37.41953667" lon="-4.38802833">
        <ele>690.0</ele>
        <time>2018-06-09T09:16:54.172Z</time>
      </trkpt>
      <trkpt lat="37.41953667" lon="-4.38802833">
        <ele>690.0</ele>
        <time>2018-06-09T09:16:55.178Z</time>
      </trkpt>
      <trkpt lat="37.41955" lon="-4.38806833">
        <ele>690.0</ele>
        <time>2018-06-09T09:16:56.186Z</time>
      </trkpt>
      <trkpt lat="37.41955" lon="-4.38806833">
        <ele>690.0</ele>
        <time>2018-06-09T09:16:57.192Z</time>
      </trkpt>
      <trkpt lat="37.41955833" lon="-4.38810833">
        <ele>691.0</ele>
        <time>2018-06-09T09:16:58.162Z</time>
      </trkpt>
      <trkpt lat="37.41955833" lon="-4.38810833">
        <ele>691.0</ele>
        <time>2018-06-09T09:16:59.168Z</time>
      </trkpt>
      <trkpt lat="37.41957167" lon="-4.38814667">
        <ele>691.0</ele>
        <time>2018-06-09T09:17:00.175Z</time>
      </trkpt>
      <trkpt lat="37.41957833" lon="-4.38816667">
        <ele>691.0</ele>
        <time>2018-06-09T09:17:01.190Z</time>
      </trkpt>
      <trkpt lat="37.41958667" lon="-4.388185">
        <ele>691.0</ele>
        <time>2018-06-09T09:17:02.175Z</time>
      </trkpt>
      <trkpt lat="37.41958667" lon="-4.388185">
        <ele>691.0</ele>
        <time>2018-06-09T09:17:03.181Z</time>
      </trkpt>
      <trkpt lat="37.419605" lon="-4.38822">
        <ele>691.0</ele>
        <time>2018-06-09T09:17:04.187Z</time>
      </trkpt>
      <trkpt lat="37.419605" lon="-4.38822">
        <ele>691.0</ele>
        <time>2018-06-09T09:17:05.157Z</time>
      </trkpt>
      <trkpt lat="37.41962667" lon="-4.38825667">
        <ele>692.0</ele>
        <time>2018-06-09T09:17:06.188Z</time>
      </trkpt>
      <trkpt lat="37.41964" lon="-4.38827333">
        <ele>692.0</ele>
        <time>2018-06-09T09:17:07.163Z</time>
      </trkpt>
      <trkpt lat="37.41964" lon="-4.38827333">
        <ele>692.0</ele>
        <time>2018-06-09T09:17:08.168Z</time>
      </trkpt>
      <trkpt lat="37.419665" lon="-4.38830833">
        <ele>692.0</ele>
        <time>2018-06-09T09:17:09.191Z</time>
      </trkpt>
      <trkpt lat="37.41967833" lon="-4.388325">
        <ele>692.0</ele>
        <time>2018-06-09T09:17:10.160Z</time>
      </trkpt>
      <trkpt lat="37.41967833" lon="-4.388325">
        <ele>692.0</ele>
        <time>2018-06-09T09:17:11.165Z</time>
      </trkpt>
      <trkpt lat="37.41970333" lon="-4.38836">
        <ele>692.0</ele>
        <time>2018-06-09T09:17:12.160Z</time>
      </trkpt>
      <trkpt lat="37.41971333" lon="-4.38838">
        <ele>692.0</ele>
        <time>2018-06-09T09:17:13.170Z</time>
      </trkpt>
      <trkpt lat="37.41971333" lon="-4.38838">
        <ele>692.0</ele>
        <time>2018-06-09T09:17:14.175Z</time>
      </trkpt>
      <trkpt lat="37.41972833" lon="-4.38842333">
        <ele>692.0</ele>
        <time>2018-06-09T09:17:15.182Z</time>
      </trkpt>
      <trkpt lat="37.41972833" lon="-4.38842333">
        <ele>692.0</ele>
        <time>2018-06-09T09:17:16.191Z</time>
      </trkpt>
      <trkpt lat="37.41975167" lon="-4.38846">
        <ele>693.0</ele>
        <time>2018-06-09T09:17:17.170Z</time>
      </trkpt>
      <trkpt lat="37.41975167" lon="-4.38846">
        <ele>693.0</ele>
        <time>2018-06-09T09:17:18.175Z</time>
      </trkpt>
      <trkpt lat="37.41978167" lon="-4.388495">
        <ele>694.0</ele>
        <time>2018-06-09T09:17:19.182Z</time>
      </trkpt>
      <trkpt lat="37.41978167" lon="-4.388495">
        <ele>694.0</ele>
        <time>2018-06-09T09:17:20.187Z</time>
      </trkpt>
      <trkpt lat="37.41981333" lon="-4.38852833">
        <ele>694.0</ele>
        <time>2018-06-09T09:17:21.194Z</time>
      </trkpt>
      <trkpt lat="37.41981333" lon="-4.38852833">
        <ele>694.0</ele>
        <time>2018-06-09T09:17:22.160Z</time>
      </trkpt>
      <trkpt lat="37.41984667" lon="-4.38856167">
        <ele>695.0</ele>
        <time>2018-06-09T09:17:23.169Z</time>
      </trkpt>
      <trkpt lat="37.41984667" lon="-4.38856167">
        <ele>695.0</ele>
        <time>2018-06-09T09:17:24.174Z</time>
      </trkpt>
      <trkpt lat="37.41988167" lon="-4.388595">
        <ele>695.0</ele>
        <time>2018-06-09T09:17:25.192Z</time>
      </trkpt>
      <trkpt lat="37.41988167" lon="-4.388595">
        <ele>695.0</ele>
        <time>2018-06-09T09:17:26.159Z</time>
      </trkpt>
      <trkpt lat="37.419915" lon="-4.38863333">
        <ele>695.0</ele>
        <time>2018-06-09T09:17:27.167Z</time>
      </trkpt>
      <trkpt lat="37.41993167" lon="-4.388655">
        <ele>696.0</ele>
        <time>2018-06-09T09:17:28.171Z</time>
      </trkpt>
      <trkpt lat="37.41993167" lon="-4.388655">
        <ele>696.0</ele>
        <time>2018-06-09T09:17:29.186Z</time>
      </trkpt>
      <trkpt lat="37.41996333" lon="-4.38869667">
        <ele>696.0</ele>
        <time>2018-06-09T09:17:30.195Z</time>
      </trkpt>
      <trkpt lat="37.41998" lon="-4.388715">
        <ele>695.0</ele>
        <time>2018-06-09T09:17:31.158Z</time>
      </trkpt>
      <trkpt lat="37.41998" lon="-4.388715">
        <ele>695.0</ele>
        <time>2018-06-09T09:17:32.164Z</time>
      </trkpt>
      <trkpt lat="37.42001167" lon="-4.38875333">
        <ele>696.0</ele>
        <time>2018-06-09T09:17:33.180Z</time>
      </trkpt>
      <trkpt lat="37.42002833" lon="-4.388775">
        <ele>696.0</ele>
        <time>2018-06-09T09:17:34.181Z</time>
      </trkpt>
      <trkpt lat="37.42002833" lon="-4.388775">
        <ele>696.0</ele>
        <time>2018-06-09T09:17:35.187Z</time>
      </trkpt>
      <trkpt lat="37.42006167" lon="-4.38882167">
        <ele>696.0</ele>
        <time>2018-06-09T09:17:36.165Z</time>
      </trkpt>
      <trkpt lat="37.42006167" lon="-4.38882167">
        <ele>696.0</ele>
        <time>2018-06-09T09:17:37.172Z</time>
      </trkpt>
      <trkpt lat="37.42009333" lon="-4.38887167">
        <ele>697.0</ele>
        <time>2018-06-09T09:17:38.180Z</time>
      </trkpt>
      <trkpt lat="37.42009333" lon="-4.38887167">
        <ele>697.0</ele>
        <time>2018-06-09T09:17:39.185Z</time>
      </trkpt>
      <trkpt lat="37.42012833" lon="-4.38891333">
        <ele>697.0</ele>
        <time>2018-06-09T09:17:40.192Z</time>
      </trkpt>
      <trkpt lat="37.42014333" lon="-4.38893333">
        <ele>698.0</ele>
        <time>2018-06-09T09:17:41.158Z</time>
      </trkpt>
      <trkpt lat="37.42014333" lon="-4.38893333">
        <ele>698.0</ele>
        <time>2018-06-09T09:17:42.165Z</time>
      </trkpt>
      <trkpt lat="37.42017" lon="-4.38897167">
        <ele>698.0</ele>
        <time>2018-06-09T09:17:43.179Z</time>
      </trkpt>
      <trkpt lat="37.42017" lon="-4.38897167">
        <ele>698.0</ele>
        <time>2018-06-09T09:17:44.184Z</time>
      </trkpt>
      <trkpt lat="37.420195" lon="-4.38901">
        <ele>698.0</ele>
        <time>2018-06-09T09:17:45.191Z</time>
      </trkpt>
      <trkpt lat="37.420195" lon="-4.38901">
        <ele>698.0</ele>
        <time>2018-06-09T09:17:46.171Z</time>
      </trkpt>
      <trkpt lat="37.42021" lon="-4.38905667">
        <ele>699.0</ele>
        <time>2018-06-09T09:17:47.186Z</time>
      </trkpt>
      <trkpt lat="37.42021" lon="-4.38905667">
        <ele>699.0</ele>
        <time>2018-06-09T09:17:48.189Z</time>
      </trkpt>
      <trkpt lat="37.420225" lon="-4.389105">
        <ele>700.0</ele>
        <time>2018-06-09T09:17:49.162Z</time>
      </trkpt>
      <trkpt lat="37.420225" lon="-4.389105">
        <ele>700.0</ele>
        <time>2018-06-09T09:17:50.167Z</time>
      </trkpt>
      <trkpt lat="37.42023333" lon="-4.38915167">
        <ele>701.0</ele>
        <time>2018-06-09T09:17:51.174Z</time>
      </trkpt>
      <trkpt lat="37.42023333" lon="-4.38915167">
        <ele>701.0</ele>
        <time>2018-06-09T09:17:52.180Z</time>
      </trkpt>
      <trkpt lat="37.42023333" lon="-4.3892">
        <ele>701.0</ele>
        <time>2018-06-09T09:17:53.157Z</time>
      </trkpt>
      <trkpt lat="37.42023333" lon="-4.3892">
        <ele>701.0</ele>
        <time>2018-06-09T09:17:54.163Z</time>
      </trkpt>
      <trkpt lat="37.42023833" lon="-4.38925833">
        <ele>702.0</ele>
        <time>2018-06-09T09:17:55.169Z</time>
      </trkpt>
      <trkpt lat="37.42023833" lon="-4.38925833">
        <ele>702.0</ele>
        <time>2018-06-09T09:17:56.175Z</time>
      </trkpt>
      <trkpt lat="37.42024167" lon="-4.38932">
        <ele>703.0</ele>
        <time>2018-06-09T09:17:57.171Z</time>
      </trkpt>
      <trkpt lat="37.42024167" lon="-4.38932">
        <ele>703.0</ele>
        <time>2018-06-09T09:17:58.177Z</time>
      </trkpt>
      <trkpt lat="37.42024" lon="-4.38938333">
        <ele>703.0</ele>
        <time>2018-06-09T09:17:59.183Z</time>
      </trkpt>
      <trkpt lat="37.42024" lon="-4.38938333">
        <ele>703.0</ele>
        <time>2018-06-09T09:18:00.188Z</time>
      </trkpt>
      <trkpt lat="37.42024167" lon="-4.38945">
        <ele>704.0</ele>
        <time>2018-06-09T09:18:01.157Z</time>
      </trkpt>
      <trkpt lat="37.42024167" lon="-4.38945">
        <ele>704.0</ele>
        <time>2018-06-09T09:18:02.173Z</time>
      </trkpt>
      <trkpt lat="37.42023667" lon="-4.38952">
        <ele>704.0</ele>
        <time>2018-06-09T09:18:03.180Z</time>
      </trkpt>
      <trkpt lat="37.420235" lon="-4.389555">
        <ele>704.0</ele>
        <time>2018-06-09T09:18:04.166Z</time>
      </trkpt>
      <trkpt lat="37.420235" lon="-4.389555">
        <ele>704.0</ele>
        <time>2018-06-09T09:18:05.171Z</time>
      </trkpt>
      <trkpt lat="37.420235" lon="-4.389625">
        <ele>704.0</ele>
        <time>2018-06-09T09:18:06.192Z</time>
      </trkpt>
      <trkpt lat="37.420235" lon="-4.38966167">
        <ele>704.0</ele>
        <time>2018-06-09T09:18:07.160Z</time>
      </trkpt>
      <trkpt lat="37.420235" lon="-4.38966167">
        <ele>704.0</ele>
        <time>2018-06-09T09:18:08.165Z</time>
      </trkpt>
      <trkpt lat="37.42023333" lon="-4.389745">
        <ele>704.0</ele>
        <time>2018-06-09T09:18:09.172Z</time>
      </trkpt>
      <trkpt lat="37.42023333" lon="-4.389745">
        <ele>704.0</ele>
        <time>2018-06-09T09:18:10.177Z</time>
      </trkpt>
      <trkpt lat="37.42023333" lon="-4.38983333">
        <ele>703.0</ele>
        <time>2018-06-09T09:18:11.161Z</time>
      </trkpt>
      <trkpt lat="37.42023333" lon="-4.38983333">
        <ele>703.0</ele>
        <time>2018-06-09T09:18:12.166Z</time>
      </trkpt>
      <trkpt lat="37.42024167" lon="-4.38992">
        <ele>703.0</ele>
        <time>2018-06-09T09:18:13.195Z</time>
      </trkpt>
      <trkpt lat="37.42024167" lon="-4.38992">
        <ele>703.0</ele>
        <time>2018-06-09T09:18:14.183Z</time>
      </trkpt>
      <trkpt lat="37.42025" lon="-4.39001167">
        <ele>703.0</ele>
        <time>2018-06-09T09:18:15.189Z</time>
      </trkpt>
      <trkpt lat="37.42025" lon="-4.39001167">
        <ele>703.0</ele>
        <time>2018-06-09T09:18:16.159Z</time>
      </trkpt>
      <trkpt lat="37.420255" lon="-4.39010833">
        <ele>703.0</ele>
        <time>2018-06-09T09:18:17.190Z</time>
      </trkpt>
      <trkpt lat="37.420255" lon="-4.39016">
        <ele>703.0</ele>
        <time>2018-06-09T09:18:18.171Z</time>
      </trkpt>
      <trkpt lat="37.420255" lon="-4.39016">
        <ele>703.0</ele>
        <time>2018-06-09T09:18:19.176Z</time>
      </trkpt>
      <trkpt lat="37.42025" lon="-4.39026667">
        <ele>703.0</ele>
        <time>2018-06-09T09:18:20.189Z</time>
      </trkpt>
      <trkpt lat="37.42025" lon="-4.39026667">
        <ele>703.0</ele>
        <time>2018-06-09T09:18:21.158Z</time>
      </trkpt>
      <trkpt lat="37.42025167" lon="-4.39037333">
        <ele>703.0</ele>
        <time>2018-06-09T09:18:22.161Z</time>
      </trkpt>
      <trkpt lat="37.42025167" lon="-4.39042667">
        <ele>703.0</ele>
        <time>2018-06-09T09:18:23.166Z</time>
      </trkpt>
      <trkpt lat="37.42025167" lon="-4.39042667">
        <ele>703.0</ele>
        <time>2018-06-09T09:18:24.171Z</time>
      </trkpt>
      <trkpt lat="37.42025167" lon="-4.39053667">
        <ele>703.0</ele>
        <time>2018-06-09T09:18:25.192Z</time>
      </trkpt>
      <trkpt lat="37.42025167" lon="-4.39053667">
        <ele>703.0</ele>
        <time>2018-06-09T09:18:26.158Z</time>
      </trkpt>
      <trkpt lat="37.420255" lon="-4.39065">
        <ele>703.0</ele>
        <time>2018-06-09T09:18:27.165Z</time>
      </trkpt>
      <trkpt lat="37.42025667" lon="-4.390705">
        <ele>703.0</ele>
        <time>2018-06-09T09:18:28.162Z</time>
      </trkpt>
      <trkpt lat="37.42025667" lon="-4.390705">
        <ele>703.0</ele>
        <time>2018-06-09T09:18:29.167Z</time>
      </trkpt>
      <trkpt lat="37.42026" lon="-4.39082">
        <ele>702.0</ele>
        <time>2018-06-09T09:18:30.173Z</time>
      </trkpt>
      <trkpt lat="37.42026" lon="-4.39087833">
        <ele>702.0</ele>
        <time>2018-06-09T09:18:31.171Z</time>
      </trkpt>
      <trkpt lat="37.42026" lon="-4.39087833">
        <ele>702.0</ele>
        <time>2018-06-09T09:18:32.177Z</time>
      </trkpt>
      <trkpt lat="37.42026" lon="-4.39099833">
        <ele>702.0</ele>
        <time>2018-06-09T09:18:33.185Z</time>
      </trkpt>
      <trkpt lat="37.42026" lon="-4.39099833">
        <ele>702.0</ele>
        <time>2018-06-09T09:18:34.194Z</time>
      </trkpt>
      <trkpt lat="37.42026667" lon="-4.39112167">
        <ele>702.0</ele>
        <time>2018-06-09T09:18:35.191Z</time>
      </trkpt>
      <trkpt lat="37.42026667" lon="-4.39112167">
        <ele>702.0</ele>
        <time>2018-06-09T09:18:36.159Z</time>
      </trkpt>
      <trkpt lat="37.420275" lon="-4.39125167">
        <ele>702.0</ele>
        <time>2018-06-09T09:18:37.168Z</time>
      </trkpt>
      <trkpt lat="37.420275" lon="-4.39125167">
        <ele>702.0</ele>
        <time>2018-06-09T09:18:38.173Z</time>
      </trkpt>
      <trkpt lat="37.42028667" lon="-4.391385">
        <ele>701.0</ele>
        <time>2018-06-09T09:18:39.181Z</time>
      </trkpt>
      <trkpt lat="37.42028667" lon="-4.391385">
        <ele>701.0</ele>
        <time>2018-06-09T09:18:40.186Z</time>
      </trkpt>
      <trkpt lat="37.4203" lon="-4.39152">
        <ele>701.0</ele>
        <time>2018-06-09T09:18:41.157Z</time>
      </trkpt>
      <trkpt lat="37.4203" lon="-4.39152">
        <ele>701.0</ele>
        <time>2018-06-09T09:18:42.162Z</time>
      </trkpt>
      <trkpt lat="37.420315" lon="-4.39165667">
        <ele>702.0</ele>
        <time>2018-06-09T09:18:43.162Z</time>
      </trkpt>
      <trkpt lat="37.420315" lon="-4.39165667">
        <ele>702.0</ele>
        <time>2018-06-09T09:18:44.168Z</time>
      </trkpt>
      <trkpt lat="37.42033667" lon="-4.39178833">
        <ele>702.0</ele>
        <time>2018-06-09T09:18:45.175Z</time>
      </trkpt>
      <trkpt lat="37.42034833" lon="-4.391855">
        <ele>702.0</ele>
        <time>2018-06-09T09:18:46.161Z</time>
      </trkpt>
      <trkpt lat="37.42034833" lon="-4.391855">
        <ele>702.0</ele>
        <time>2018-06-09T09:18:47.163Z</time>
      </trkpt>
      <trkpt lat="37.420375" lon="-4.39198">
        <ele>702.0</ele>
        <time>2018-06-09T09:18:48.177Z</time>
      </trkpt>
      <trkpt lat="37.42038833" lon="-4.39204">
        <ele>702.0</ele>
        <time>2018-06-09T09:18:49.191Z</time>
      </trkpt>
      <trkpt lat="37.42038833" lon="-4.39204">
        <ele>702.0</ele>
        <time>2018-06-09T09:18:50.159Z</time>
      </trkpt>
      <trkpt lat="37.42040833" lon="-4.39216167">
        <ele>701.0</ele>
        <time>2018-06-09T09:18:51.170Z</time>
      </trkpt>
      <trkpt lat="37.42040833" lon="-4.39216167">
        <ele>701.0</ele>
        <time>2018-06-09T09:18:52.176Z</time>
      </trkpt>
      <trkpt lat="37.42040667" lon="-4.39228667">
        <ele>701.0</ele>
        <time>2018-06-09T09:18:53.168Z</time>
      </trkpt>
      <trkpt lat="37.42040167" lon="-4.39234833">
        <ele>701.0</ele>
        <time>2018-06-09T09:18:54.173Z</time>
      </trkpt>
      <trkpt lat="37.42039167" lon="-4.39241">
        <ele>701.0</ele>
        <time>2018-06-09T09:18:55.179Z</time>
      </trkpt>
      <trkpt lat="37.42039167" lon="-4.39241">
        <ele>701.0</ele>
        <time>2018-06-09T09:18:56.185Z</time>
      </trkpt>
      <trkpt lat="37.42035833" lon="-4.39252667">
        <ele>700.0</ele>
        <time>2018-06-09T09:18:57.192Z</time>
      </trkpt>
      <trkpt lat="37.42033667" lon="-4.39258667">
        <ele>700.0</ele>
        <time>2018-06-09T09:18:58.181Z</time>
      </trkpt>
      <trkpt lat="37.42033667" lon="-4.39258667">
        <ele>700.0</ele>
        <time>2018-06-09T09:18:59.186Z</time>
      </trkpt>
      <trkpt lat="37.42028" lon="-4.39270167">
        <ele>700.0</ele>
        <time>2018-06-09T09:19:00.192Z</time>
      </trkpt>
      <trkpt lat="37.42024333" lon="-4.39276">
        <ele>699.0</ele>
        <time>2018-06-09T09:19:01.191Z</time>
      </trkpt>
      <trkpt lat="37.42024333" lon="-4.39276">
        <ele>699.0</ele>
        <time>2018-06-09T09:19:02.159Z</time>
      </trkpt>
      <trkpt lat="37.420155" lon="-4.392885">
        <ele>698.0</ele>
        <time>2018-06-09T09:19:03.167Z</time>
      </trkpt>
      <trkpt lat="37.42010833" lon="-4.39295333">
        <ele>697.0</ele>
        <time>2018-06-09T09:19:04.157Z</time>
      </trkpt>
      <trkpt lat="37.42010833" lon="-4.39295333">
        <ele>697.0</ele>
        <time>2018-06-09T09:19:05.162Z</time>
      </trkpt>
      <trkpt lat="37.420015" lon="-4.39309667">
        <ele>696.0</ele>
        <time>2018-06-09T09:19:06.169Z</time>
      </trkpt>
      <trkpt lat="37.41997167" lon="-4.393165">
        <ele>696.0</ele>
        <time>2018-06-09T09:19:07.174Z</time>
      </trkpt>
      <trkpt lat="37.41997167" lon="-4.393165">
        <ele>696.0</ele>
        <time>2018-06-09T09:19:08.180Z</time>
      </trkpt>
      <trkpt lat="37.4199" lon="-4.39328833">
        <ele>696.0</ele>
        <time>2018-06-09T09:19:09.188Z</time>
      </trkpt>
      <trkpt lat="37.41986667" lon="-4.39334333">
        <ele>696.0</ele>
        <time>2018-06-09T09:19:10.186Z</time>
      </trkpt>
      <trkpt lat="37.41986667" lon="-4.39334333">
        <ele>696.0</ele>
        <time>2018-06-09T09:19:11.191Z</time>
      </trkpt>
      <trkpt lat="37.41980667" lon="-4.39345">
        <ele>695.0</ele>
        <time>2018-06-09T09:19:12.158Z</time>
      </trkpt>
      <trkpt lat="37.41978167" lon="-4.39350333">
        <ele>695.0</ele>
        <time>2018-06-09T09:19:13.196Z</time>
      </trkpt>
      <trkpt lat="37.41978167" lon="-4.39350333">
        <ele>695.0</ele>
        <time>2018-06-09T09:19:14.162Z</time>
      </trkpt>
      <trkpt lat="37.41973667" lon="-4.39360833">
        <ele>695.0</ele>
        <time>2018-06-09T09:19:15.168Z</time>
      </trkpt>
      <trkpt lat="37.41973667" lon="-4.39360833">
        <ele>695.0</ele>
        <time>2018-06-09T09:19:16.174Z</time>
      </trkpt>
      <trkpt lat="37.419695" lon="-4.393715">
        <ele>695.0</ele>
        <time>2018-06-09T09:19:17.192Z</time>
      </trkpt>
      <trkpt lat="37.419695" lon="-4.393715">
        <ele>695.0</ele>
        <time>2018-06-09T09:19:18.157Z</time>
      </trkpt>
      <trkpt lat="37.41965333" lon="-4.39382">
        <ele>695.0</ele>
        <time>2018-06-09T09:19:19.165Z</time>
      </trkpt>
      <trkpt lat="37.41965333" lon="-4.39382">
        <ele>695.0</ele>
        <time>2018-06-09T09:19:20.170Z</time>
      </trkpt>
      <trkpt lat="37.41961" lon="-4.39391833">
        <ele>695.0</ele>
        <time>2018-06-09T09:19:21.161Z</time>
      </trkpt>
      <trkpt lat="37.41961" lon="-4.39391833">
        <ele>695.0</ele>
        <time>2018-06-09T09:19:22.166Z</time>
      </trkpt>
      <trkpt lat="37.419565" lon="-4.393985">
        <ele>694.0</ele>
        <time>2018-06-09T09:19:23.172Z</time>
      </trkpt>
      <trkpt lat="37.419565" lon="-4.393985">
        <ele>694.0</ele>
        <time>2018-06-09T09:19:24.176Z</time>
      </trkpt>
      <trkpt lat="37.41950833" lon="-4.39396333">
        <ele>695.0</ele>
        <time>2018-06-09T09:19:25.160Z</time>
      </trkpt>
      <trkpt lat="37.41950833" lon="-4.39396333">
        <ele>695.0</ele>
        <time>2018-06-09T09:19:26.165Z</time>
      </trkpt>
      <trkpt lat="37.41948167" lon="-4.393915">
        <ele>695.0</ele>
        <time>2018-06-09T09:19:27.181Z</time>
      </trkpt>
      <trkpt lat="37.419475" lon="-4.39389">
        <ele>695.0</ele>
        <time>2018-06-09T09:19:28.181Z</time>
      </trkpt>
      <trkpt lat="37.419475" lon="-4.39389">
        <ele>695.0</ele>
        <time>2018-06-09T09:19:29.186Z</time>
      </trkpt>
      <trkpt lat="37.41946333" lon="-4.39384">
        <ele>695.0</ele>
        <time>2018-06-09T09:19:30.157Z</time>
      </trkpt>
      <trkpt lat="37.41946" lon="-4.39381167">
        <ele>696.0</ele>
        <time>2018-06-09T09:19:31.164Z</time>
      </trkpt>
      <trkpt lat="37.41946" lon="-4.39381167">
        <ele>696.0</ele>
        <time>2018-06-09T09:19:32.176Z</time>
      </trkpt>
      <trkpt lat="37.419455" lon="-4.39375833">
        <ele>696.0</ele>
        <time>2018-06-09T09:19:33.195Z</time>
      </trkpt>
      <trkpt lat="37.41945167" lon="-4.39373167">
        <ele>696.0</ele>
        <time>2018-06-09T09:19:34.161Z</time>
      </trkpt>
      <trkpt lat="37.41945167" lon="-4.39373167">
        <ele>696.0</ele>
        <time>2018-06-09T09:19:35.166Z</time>
      </trkpt>
      <trkpt lat="37.41944167" lon="-4.39368">
        <ele>696.0</ele>
        <time>2018-06-09T09:19:36.172Z</time>
      </trkpt>
      <trkpt lat="37.419435" lon="-4.393655">
        <ele>697.0</ele>
        <time>2018-06-09T09:19:37.165Z</time>
      </trkpt>
      <trkpt lat="37.419435" lon="-4.393655">
        <ele>697.0</ele>
        <time>2018-06-09T09:19:38.171Z</time>
      </trkpt>
      <trkpt lat="37.41942333" lon="-4.39362167">
        <ele>698.0</ele>
        <time>2018-06-09T09:19:39.178Z</time>
      </trkpt>
      <trkpt lat="37.419415" lon="-4.393605">
        <ele>699.0</ele>
        <time>2018-06-09T09:19:40.181Z</time>
      </trkpt>
      <trkpt lat="37.419415" lon="-4.393605">
        <ele>699.0</ele>
        <time>2018-06-09T09:19:41.186Z</time>
      </trkpt>
      <trkpt lat="37.41939833" lon="-4.39357667">
        <ele>700.0</ele>
        <time>2018-06-09T09:19:42.161Z</time>
      </trkpt>
      <trkpt lat="37.41939833" lon="-4.39357667">
        <ele>700.0</ele>
        <time>2018-06-09T09:19:43.166Z</time>
      </trkpt>
      <trkpt lat="37.419375" lon="-4.39355333">
        <ele>700.0</ele>
        <time>2018-06-09T09:19:44.171Z</time>
      </trkpt>
      <trkpt lat="37.419375" lon="-4.39355333">
        <ele>700.0</ele>
        <time>2018-06-09T09:19:45.176Z</time>
      </trkpt>
      <trkpt lat="37.41935667" lon="-4.39352667">
        <ele>701.0</ele>
        <time>2018-06-09T09:19:46.182Z</time>
      </trkpt>
      <trkpt lat="37.41935667" lon="-4.39352667">
        <ele>701.0</ele>
        <time>2018-06-09T09:19:47.185Z</time>
      </trkpt>
      <trkpt lat="37.419335" lon="-4.39349833">
        <ele>702.0</ele>
        <time>2018-06-09T09:19:48.170Z</time>
      </trkpt>
      <trkpt lat="37.41932333" lon="-4.39348667">
        <ele>702.0</ele>
        <time>2018-06-09T09:19:49.187Z</time>
      </trkpt>
      <trkpt lat="37.41932333" lon="-4.39348667">
        <ele>702.0</ele>
        <time>2018-06-09T09:19:50.192Z</time>
      </trkpt>
      <trkpt lat="37.41930333" lon="-4.39346333">
        <ele>702.0</ele>
        <time>2018-06-09T09:19:51.165Z</time>
      </trkpt>
      <trkpt lat="37.41930333" lon="-4.39346333">
        <ele>702.0</ele>
        <time>2018-06-09T09:19:52.171Z</time>
      </trkpt>
      <trkpt lat="37.41928167" lon="-4.39344167">
        <ele>703.0</ele>
        <time>2018-06-09T09:19:53.185Z</time>
      </trkpt>
      <trkpt lat="37.41928167" lon="-4.39344167">
        <ele>703.0</ele>
        <time>2018-06-09T09:19:54.165Z</time>
      </trkpt>
      <trkpt lat="37.41926333" lon="-4.39342">
        <ele>704.0</ele>
        <time>2018-06-09T09:19:55.170Z</time>
      </trkpt>
      <trkpt lat="37.41926333" lon="-4.39342">
        <ele>704.0</ele>
        <time>2018-06-09T09:19:56.175Z</time>
      </trkpt>
      <trkpt lat="37.41924333" lon="-4.39340167">
        <ele>704.0</ele>
        <time>2018-06-09T09:19:57.182Z</time>
      </trkpt>
      <trkpt lat="37.41924333" lon="-4.39340167">
        <ele>704.0</ele>
        <time>2018-06-09T09:19:58.187Z</time>
      </trkpt>
      <trkpt lat="37.419225" lon="-4.39338333">
        <ele>704.0</ele>
        <time>2018-06-09T09:19:59.161Z</time>
      </trkpt>
      <trkpt lat="37.419225" lon="-4.39338333">
        <ele>704.0</ele>
        <time>2018-06-09T09:20:00.166Z</time>
      </trkpt>
      <trkpt lat="37.419205" lon="-4.393365">
        <ele>705.0</ele>
        <time>2018-06-09T09:20:01.173Z</time>
      </trkpt>
      <trkpt lat="37.419205" lon="-4.393365">
        <ele>705.0</ele>
        <time>2018-06-09T09:20:02.184Z</time>
      </trkpt>
      <trkpt lat="37.41918" lon="-4.39335">
        <ele>705.0</ele>
        <time>2018-06-09T09:20:03.186Z</time>
      </trkpt>
      <trkpt lat="37.41918" lon="-4.39335">
        <ele>705.0</ele>
        <time>2018-06-09T09:20:04.160Z</time>
      </trkpt>
      <trkpt lat="37.419155" lon="-4.39333333">
        <ele>706.0</ele>
        <time>2018-06-09T09:20:05.166Z</time>
      </trkpt>
      <trkpt lat="37.419145" lon="-4.39332167">
        <ele>706.0</ele>
        <time>2018-06-09T09:20:06.172Z</time>
      </trkpt>
      <trkpt lat="37.419135" lon="-4.39331">
        <ele>706.0</ele>
        <time>2018-06-09T09:20:07.170Z</time>
      </trkpt>
      <trkpt lat="37.419135" lon="-4.39331">
        <ele>706.0</ele>
        <time>2018-06-09T09:20:08.185Z</time>
      </trkpt>
      <trkpt lat="37.41911833" lon="-4.393285">
        <ele>706.0</ele>
        <time>2018-06-09T09:20:09.192Z</time>
      </trkpt>
      <trkpt lat="37.41910833" lon="-4.393275">
        <ele>706.0</ele>
        <time>2018-06-09T09:20:10.164Z</time>
      </trkpt>
      <trkpt lat="37.41910833" lon="-4.393275">
        <ele>706.0</ele>
        <time>2018-06-09T09:20:11.170Z</time>
      </trkpt>
      <trkpt lat="37.41908833" lon="-4.39325333">
        <ele>707.0</ele>
        <time>2018-06-09T09:20:12.175Z</time>
      </trkpt>
      <trkpt lat="37.41907833" lon="-4.39324167">
        <ele>707.0</ele>
        <time>2018-06-09T09:20:13.182Z</time>
      </trkpt>
      <trkpt lat="37.41907833" lon="-4.39324167">
        <ele>707.0</ele>
        <time>2018-06-09T09:20:14.187Z</time>
      </trkpt>
      <trkpt lat="37.41905833" lon="-4.39321833">
        <ele>707.0</ele>
        <time>2018-06-09T09:20:15.186Z</time>
      </trkpt>
      <trkpt lat="37.41905833" lon="-4.39321833">
        <ele>707.0</ele>
        <time>2018-06-09T09:20:16.191Z</time>
      </trkpt>
      <trkpt lat="37.41904167" lon="-4.39319667">
        <ele>708.0</ele>
        <time>2018-06-09T09:20:17.158Z</time>
      </trkpt>
      <trkpt lat="37.41904167" lon="-4.39319667">
        <ele>708.0</ele>
        <time>2018-06-09T09:20:18.163Z</time>
      </trkpt>
      <trkpt lat="37.41903" lon="-4.39317167">
        <ele>708.0</ele>
        <time>2018-06-09T09:20:19.167Z</time>
      </trkpt>
      <trkpt lat="37.41903" lon="-4.39317167">
        <ele>708.0</ele>
        <time>2018-06-09T09:20:20.172Z</time>
      </trkpt>
      <trkpt lat="37.41901333" lon="-4.39314667">
        <ele>708.0</ele>
        <time>2018-06-09T09:20:21.190Z</time>
      </trkpt>
      <trkpt lat="37.41900333" lon="-4.39313667">
        <ele>708.0</ele>
        <time>2018-06-09T09:20:22.186Z</time>
      </trkpt>
      <trkpt lat="37.41900333" lon="-4.39313667">
        <ele>708.0</ele>
        <time>2018-06-09T09:20:23.191Z</time>
      </trkpt>
      <trkpt lat="37.418985" lon="-4.39311833">
        <ele>709.0</ele>
        <time>2018-06-09T09:20:24.158Z</time>
      </trkpt>
      <trkpt lat="37.41897667" lon="-4.39310833">
        <ele>709.0</ele>
        <time>2018-06-09T09:20:25.190Z</time>
      </trkpt>
      <trkpt lat="37.41897667" lon="-4.39310833">
        <ele>709.0</ele>
        <time>2018-06-09T09:20:26.158Z</time>
      </trkpt>
      <trkpt lat="37.41896" lon="-4.393085">
        <ele>710.0</ele>
        <time>2018-06-09T09:20:27.164Z</time>
      </trkpt>
      <trkpt lat="37.41896" lon="-4.393085">
        <ele>710.0</ele>
        <time>2018-06-09T09:20:28.169Z</time>
      </trkpt>
      <trkpt lat="37.418945" lon="-4.393065">
        <ele>710.0</ele>
        <time>2018-06-09T09:20:29.181Z</time>
      </trkpt>
      <trkpt lat="37.418945" lon="-4.393065">
        <ele>710.0</ele>
        <time>2018-06-09T09:20:30.187Z</time>
      </trkpt>
      <trkpt lat="37.41893167" lon="-4.39304333">
        <ele>711.0</ele>
        <time>2018-06-09T09:20:31.172Z</time>
      </trkpt>
      <trkpt lat="37.41893167" lon="-4.39304333">
        <ele>711.0</ele>
        <time>2018-06-09T09:20:32.178Z</time>
      </trkpt>
      <trkpt lat="37.41891333" lon="-4.39302">
        <ele>711.0</ele>
        <time>2018-06-09T09:20:33.173Z</time>
      </trkpt>
      <trkpt lat="37.41891333" lon="-4.39302">
        <ele>711.0</ele>
        <time>2018-06-09T09:20:34.179Z</time>
      </trkpt>
      <trkpt lat="37.41889333" lon="-4.39299667">
        <ele>712.0</ele>
        <time>2018-06-09T09:20:35.186Z</time>
      </trkpt>
      <trkpt lat="37.41889333" lon="-4.39299667">
        <ele>712.0</ele>
        <time>2018-06-09T09:20:36.191Z</time>
      </trkpt>
      <trkpt lat="37.41887333" lon="-4.392975">
        <ele>712.0</ele>
        <time>2018-06-09T09:20:37.191Z</time>
      </trkpt>
      <trkpt lat="37.41887333" lon="-4.392975">
        <ele>712.0</ele>
        <time>2018-06-09T09:20:38.161Z</time>
      </trkpt>
      <trkpt lat="37.41885333" lon="-4.39295333">
        <ele>713.0</ele>
        <time>2018-06-09T09:20:39.168Z</time>
      </trkpt>
      <trkpt lat="37.41885333" lon="-4.39295333">
        <ele>713.0</ele>
        <time>2018-06-09T09:20:40.174Z</time>
      </trkpt>
      <trkpt lat="37.41885333" lon="-4.39295167">
        <ele>713.0</ele>
        <time>2018-06-09T09:20:41.177Z</time>
      </trkpt>
      <trkpt lat="37.41885333" lon="-4.39295167">
        <ele>713.0</ele>
        <time>2018-06-09T09:20:42.182Z</time>
      </trkpt>
      <trkpt lat="37.41884333" lon="-4.39294333">
        <ele>714.0</ele>
        <time>2018-06-09T09:20:43.183Z</time>
      </trkpt>
      <trkpt lat="37.41884333" lon="-4.39294333">
        <ele>714.0</ele>
        <time>2018-06-09T09:20:44.190Z</time>
      </trkpt>
      <trkpt lat="37.41879167" lon="-4.39287333">
        <ele>715.0</ele>
        <time>2018-06-09T09:20:45.196Z</time>
      </trkpt>
      <trkpt lat="37.41879167" lon="-4.39287333">
        <ele>715.0</ele>
        <time>2018-06-09T09:20:46.167Z</time>
      </trkpt>
      <trkpt lat="37.41878167" lon="-4.39286">
        <ele>715.0</ele>
        <time>2018-06-09T09:20:47.196Z</time>
      </trkpt>
      <trkpt lat="37.41878167" lon="-4.39286">
        <ele>715.0</ele>
        <time>2018-06-09T09:20:48.163Z</time>
      </trkpt>
      <trkpt lat="37.41877" lon="-4.39284667">
        <ele>716.0</ele>
        <time>2018-06-09T09:20:49.170Z</time>
      </trkpt>
      <trkpt lat="37.41877" lon="-4.39284667">
        <ele>716.0</ele>
        <time>2018-06-09T09:20:50.176Z</time>
      </trkpt>
      <trkpt lat="37.41875667" lon="-4.39283333">
        <ele>716.0</ele>
        <time>2018-06-09T09:20:51.183Z</time>
      </trkpt>
      <trkpt lat="37.41875667" lon="-4.39283333">
        <ele>716.0</ele>
        <time>2018-06-09T09:20:52.189Z</time>
      </trkpt>
      <trkpt lat="37.418745" lon="-4.39282">
        <ele>716.0</ele>
        <time>2018-06-09T09:20:53.191Z</time>
      </trkpt>
      <trkpt lat="37.418745" lon="-4.39282">
        <ele>716.0</ele>
        <time>2018-06-09T09:20:54.157Z</time>
      </trkpt>
      <trkpt lat="37.418735" lon="-4.39280667">
        <ele>716.0</ele>
        <time>2018-06-09T09:20:55.164Z</time>
      </trkpt>
      <trkpt lat="37.418735" lon="-4.39280667">
        <ele>716.0</ele>
        <time>2018-06-09T09:20:56.170Z</time>
      </trkpt>
      <trkpt lat="37.41872667" lon="-4.39279333">
        <ele>717.0</ele>
        <time>2018-06-09T09:20:57.157Z</time>
      </trkpt>
      <trkpt lat="37.41872667" lon="-4.39279333">
        <ele>717.0</ele>
        <time>2018-06-09T09:20:58.165Z</time>
      </trkpt>
      <trkpt lat="37.41871667" lon="-4.392785">
        <ele>717.0</ele>
        <time>2018-06-09T09:20:59.186Z</time>
      </trkpt>
      <trkpt lat="37.41871167" lon="-4.39277667">
        <ele>717.0</ele>
        <time>2018-06-09T09:21:00.187Z</time>
      </trkpt>
      <trkpt lat="37.41871167" lon="-4.39277667">
        <ele>717.0</ele>
        <time>2018-06-09T09:21:01.192Z</time>
      </trkpt>
      <trkpt lat="37.41869833" lon="-4.39276167">
        <ele>717.0</ele>
        <time>2018-06-09T09:21:02.159Z</time>
      </trkpt>
      <trkpt lat="37.41869167" lon="-4.39275">
        <ele>717.0</ele>
        <time>2018-06-09T09:21:03.179Z</time>
      </trkpt>
      <trkpt lat="37.41869167" lon="-4.39275">
        <ele>717.0</ele>
        <time>2018-06-09T09:21:04.184Z</time>
      </trkpt>
      <trkpt lat="37.418685" lon="-4.392735">
        <ele>718.0</ele>
        <time>2018-06-09T09:21:05.191Z</time>
      </trkpt>
      <trkpt lat="37.418685" lon="-4.392735">
        <ele>718.0</ele>
        <time>2018-06-09T09:21:06.174Z</time>
      </trkpt>
      <trkpt lat="37.41868333" lon="-4.39272333">
        <ele>718.0</ele>
        <time>2018-06-09T09:21:07.168Z</time>
      </trkpt>
      <trkpt lat="37.41868333" lon="-4.39272333">
        <ele>718.0</ele>
        <time>2018-06-09T09:21:08.174Z</time>
      </trkpt>
      <trkpt lat="37.41868333" lon="-4.39271">
        <ele>718.0</ele>
        <time>2018-06-09T09:21:09.180Z</time>
      </trkpt>
      <trkpt lat="37.41868333" lon="-4.39271">
        <ele>718.0</ele>
        <time>2018-06-09T09:21:10.185Z</time>
      </trkpt>
      <trkpt lat="37.41868333" lon="-4.39269667">
        <ele>718.0</ele>
        <time>2018-06-09T09:21:11.157Z</time>
      </trkpt>
      <trkpt lat="37.41868333" lon="-4.39269667">
        <ele>718.0</ele>
        <time>2018-06-09T09:21:12.167Z</time>
      </trkpt>
      <trkpt lat="37.41868667" lon="-4.39268333">
        <ele>719.0</ele>
        <time>2018-06-09T09:21:13.177Z</time>
      </trkpt>
      <trkpt lat="37.41868667" lon="-4.39268333">
        <ele>719.0</ele>
        <time>2018-06-09T09:21:14.182Z</time>
      </trkpt>
      <trkpt lat="37.41869" lon="-4.39267">
        <ele>719.0</ele>
        <time>2018-06-09T09:21:15.189Z</time>
      </trkpt>
      <trkpt lat="37.41869" lon="-4.39267">
        <ele>719.0</ele>
        <time>2018-06-09T09:21:16.194Z</time>
      </trkpt>
      <trkpt lat="37.41869333" lon="-4.39265667">
        <ele>719.0</ele>
        <time>2018-06-09T09:21:17.162Z</time>
      </trkpt>
      <trkpt lat="37.41869333" lon="-4.39265667">
        <ele>719.0</ele>
        <time>2018-06-09T09:21:18.168Z</time>
      </trkpt>
      <trkpt lat="37.41869667" lon="-4.39264">
        <ele>720.0</ele>
        <time>2018-06-09T09:21:19.175Z</time>
      </trkpt>
      <trkpt lat="37.41869667" lon="-4.39264">
        <ele>720.0</ele>
        <time>2018-06-09T09:21:20.184Z</time>
      </trkpt>
      <trkpt lat="37.41869833" lon="-4.39262167">
        <ele>720.0</ele>
        <time>2018-06-09T09:21:21.186Z</time>
      </trkpt>
      <trkpt lat="37.41869833" lon="-4.39262167">
        <ele>720.0</ele>
        <time>2018-06-09T09:21:22.192Z</time>
      </trkpt>
      <trkpt lat="37.41869833" lon="-4.39260333">
        <ele>720.0</ele>
        <time>2018-06-09T09:21:23.157Z</time>
      </trkpt>
      <trkpt lat="37.41869833" lon="-4.39260333">
        <ele>720.0</ele>
        <time>2018-06-09T09:21:24.162Z</time>
      </trkpt>
      <trkpt lat="37.41869667" lon="-4.392585">
        <ele>721.0</ele>
        <time>2018-06-09T09:21:25.166Z</time>
      </trkpt>
      <trkpt lat="37.41869333" lon="-4.39257667">
        <ele>721.0</ele>
        <time>2018-06-09T09:21:26.173Z</time>
      </trkpt>
      <trkpt lat="37.41869333" lon="-4.39257667">
        <ele>721.0</ele>
        <time>2018-06-09T09:21:27.178Z</time>
      </trkpt>
      <trkpt lat="37.41868667" lon="-4.39256">
        <ele>721.0</ele>
        <time>2018-06-09T09:21:28.192Z</time>
      </trkpt>
      <trkpt lat="37.41868667" lon="-4.39256">
        <ele>721.0</ele>
        <time>2018-06-09T09:21:29.157Z</time>
      </trkpt>
      <trkpt lat="37.41868" lon="-4.39254333">
        <ele>722.0</ele>
        <time>2018-06-09T09:21:30.166Z</time>
      </trkpt>
      <trkpt lat="37.41867667" lon="-4.39253667">
        <ele>722.0</ele>
        <time>2018-06-09T09:21:31.189Z</time>
      </trkpt>
      <trkpt lat="37.41867667" lon="-4.39253667">
        <ele>722.0</ele>
        <time>2018-06-09T09:21:32.195Z</time>
      </trkpt>
      <trkpt lat="37.41866833" lon="-4.39252333">
        <ele>722.0</ele>
        <time>2018-06-09T09:21:33.172Z</time>
      </trkpt>
      <trkpt lat="37.41866833" lon="-4.39252333">
        <ele>722.0</ele>
        <time>2018-06-09T09:21:34.182Z</time>
      </trkpt>
      <trkpt lat="37.41865833" lon="-4.39251">
        <ele>722.0</ele>
        <time>2018-06-09T09:21:35.194Z</time>
      </trkpt>
      <trkpt lat="37.41865833" lon="-4.39251">
        <ele>722.0</ele>
        <time>2018-06-09T09:21:36.162Z</time>
      </trkpt>
      <trkpt lat="37.41864667" lon="-4.392495">
        <ele>722.0</ele>
        <time>2018-06-09T09:21:37.168Z</time>
      </trkpt>
      <trkpt lat="37.41864" lon="-4.39248667">
        <ele>723.0</ele>
        <time>2018-06-09T09:21:38.184Z</time>
      </trkpt>
      <trkpt lat="37.41863333" lon="-4.39248">
        <ele>723.0</ele>
        <time>2018-06-09T09:21:39.190Z</time>
      </trkpt>
      <trkpt lat="37.41863333" lon="-4.39248">
        <ele>723.0</ele>
        <time>2018-06-09T09:21:40.196Z</time>
      </trkpt>
      <trkpt lat="37.41861667" lon="-4.39246333">
        <ele>723.0</ele>
        <time>2018-06-09T09:21:41.163Z</time>
      </trkpt>
      <trkpt lat="37.41860833" lon="-4.39245667">
        <ele>723.0</ele>
        <time>2018-06-09T09:21:42.170Z</time>
      </trkpt>
      <trkpt lat="37.41860833" lon="-4.39245667">
        <ele>723.0</ele>
        <time>2018-06-09T09:21:43.175Z</time>
      </trkpt>
      <trkpt lat="37.41859667" lon="-4.392445">
        <ele>724.0</ele>
        <time>2018-06-09T09:21:44.177Z</time>
      </trkpt>
      <trkpt lat="37.41858833" lon="-4.39243833">
        <ele>724.0</ele>
        <time>2018-06-09T09:21:45.183Z</time>
      </trkpt>
      <trkpt lat="37.41858833" lon="-4.39243833">
        <ele>724.0</ele>
        <time>2018-06-09T09:21:46.189Z</time>
      </trkpt>
      <trkpt lat="37.418575" lon="-4.39242833">
        <ele>724.0</ele>
        <time>2018-06-09T09:21:47.165Z</time>
      </trkpt>
      <trkpt lat="37.418575" lon="-4.39242833">
        <ele>724.0</ele>
        <time>2018-06-09T09:21:48.162Z</time>
      </trkpt>
      <trkpt lat="37.41856167" lon="-4.39242667">
        <ele>724.0</ele>
        <time>2018-06-09T09:21:49.184Z</time>
      </trkpt>
      <trkpt lat="37.41856167" lon="-4.39242667">
        <ele>724.0</ele>
        <time>2018-06-09T09:21:50.190Z</time>
      </trkpt>
      <trkpt lat="37.418545" lon="-4.39243167">
        <ele>724.0</ele>
        <time>2018-06-09T09:21:51.161Z</time>
      </trkpt>
      <trkpt lat="37.418545" lon="-4.39243167">
        <ele>724.0</ele>
        <time>2018-06-09T09:21:52.177Z</time>
      </trkpt>
      <trkpt lat="37.418525" lon="-4.39243667">
        <ele>724.0</ele>
        <time>2018-06-09T09:21:53.169Z</time>
      </trkpt>
      <trkpt lat="37.418525" lon="-4.39243667">
        <ele>724.0</ele>
        <time>2018-06-09T09:21:54.174Z</time>
      </trkpt>
      <trkpt lat="37.41850167" lon="-4.39244167">
        <ele>725.0</ele>
        <time>2018-06-09T09:21:55.181Z</time>
      </trkpt>
      <trkpt lat="37.41850167" lon="-4.39244167">
        <ele>725.0</ele>
        <time>2018-06-09T09:21:56.187Z</time>
      </trkpt>
      <trkpt lat="37.41848167" lon="-4.39245">
        <ele>724.0</ele>
        <time>2018-06-09T09:21:57.169Z</time>
      </trkpt>
      <trkpt lat="37.41848167" lon="-4.39245">
        <ele>724.0</ele>
        <time>2018-06-09T09:21:58.174Z</time>
      </trkpt>
      <trkpt lat="37.41845667" lon="-4.39245833">
        <ele>724.0</ele>
        <time>2018-06-09T09:21:59.182Z</time>
      </trkpt>
      <trkpt lat="37.41844667" lon="-4.39245833">
        <ele>725.0</ele>
        <time>2018-06-09T09:22:00.185Z</time>
      </trkpt>
      <trkpt lat="37.41844667" lon="-4.39245833">
        <ele>725.0</ele>
        <time>2018-06-09T09:22:01.191Z</time>
      </trkpt>
      <trkpt lat="37.41842333" lon="-4.39245">
        <ele>725.0</ele>
        <time>2018-06-09T09:22:02.158Z</time>
      </trkpt>
      <trkpt lat="37.41841333" lon="-4.39244333">
        <ele>725.0</ele>
        <time>2018-06-09T09:22:03.157Z</time>
      </trkpt>
      <trkpt lat="37.41841333" lon="-4.39244333">
        <ele>725.0</ele>
        <time>2018-06-09T09:22:04.166Z</time>
      </trkpt>
      <trkpt lat="37.41839667" lon="-4.39243">
        <ele>726.0</ele>
        <time>2018-06-09T09:22:05.182Z</time>
      </trkpt>
      <trkpt lat="37.41838667" lon="-4.39242167">
        <ele>726.0</ele>
        <time>2018-06-09T09:22:06.193Z</time>
      </trkpt>
      <trkpt lat="37.41838667" lon="-4.39242167">
        <ele>726.0</ele>
        <time>2018-06-09T09:22:07.160Z</time>
      </trkpt>
      <trkpt lat="37.41837" lon="-4.39240833">
        <ele>726.0</ele>
        <time>2018-06-09T09:22:08.170Z</time>
      </trkpt>
      <trkpt lat="37.41837" lon="-4.39240833">
        <ele>726.0</ele>
        <time>2018-06-09T09:22:09.176Z</time>
      </trkpt>
      <trkpt lat="37.41835667" lon="-4.39239667">
        <ele>727.0</ele>
        <time>2018-06-09T09:22:10.157Z</time>
      </trkpt>
      <trkpt lat="37.41835667" lon="-4.39239667">
        <ele>727.0</ele>
        <time>2018-06-09T09:22:11.162Z</time>
      </trkpt>
      <trkpt lat="37.41834167" lon="-4.39238667">
        <ele>727.0</ele>
        <time>2018-06-09T09:22:12.170Z</time>
      </trkpt>
      <trkpt lat="37.41834167" lon="-4.39238667">
        <ele>727.0</ele>
        <time>2018-06-09T09:22:13.174Z</time>
      </trkpt>
      <trkpt lat="37.41832833" lon="-4.39237667">
        <ele>728.0</ele>
        <time>2018-06-09T09:22:14.165Z</time>
      </trkpt>
      <trkpt lat="37.41832167" lon="-4.39237333">
        <ele>728.0</ele>
        <time>2018-06-09T09:22:15.171Z</time>
      </trkpt>
      <trkpt lat="37.41832167" lon="-4.39237333">
        <ele>728.0</ele>
        <time>2018-06-09T09:22:16.177Z</time>
      </trkpt>
      <trkpt lat="37.41831167" lon="-4.39236833">
        <ele>728.0</ele>
        <time>2018-06-09T09:22:17.178Z</time>
      </trkpt>
      <trkpt lat="37.41831167" lon="-4.39236833">
        <ele>728.0</ele>
        <time>2018-06-09T09:22:18.184Z</time>
      </trkpt>
      <trkpt lat="37.4183" lon="-4.39235833">
        <ele>729.0</ele>
        <time>2018-06-09T09:22:19.168Z</time>
      </trkpt>
      <trkpt lat="37.4183" lon="-4.39235833">
        <ele>729.0</ele>
        <time>2018-06-09T09:22:20.173Z</time>
      </trkpt>
      <trkpt lat="37.41828667" lon="-4.392345">
        <ele>729.0</ele>
        <time>2018-06-09T09:22:21.180Z</time>
      </trkpt>
      <trkpt lat="37.41828667" lon="-4.392345">
        <ele>729.0</ele>
        <time>2018-06-09T09:22:22.185Z</time>
      </trkpt>
      <trkpt lat="37.418275" lon="-4.39233167">
        <ele>729.0</ele>
        <time>2018-06-09T09:22:23.184Z</time>
      </trkpt>
      <trkpt lat="37.418275" lon="-4.39233167">
        <ele>729.0</ele>
        <time>2018-06-09T09:22:24.190Z</time>
      </trkpt>
      <trkpt lat="37.41826333" lon="-4.39231833">
        <ele>730.0</ele>
        <time>2018-06-09T09:22:25.196Z</time>
      </trkpt>
      <trkpt lat="37.41826333" lon="-4.39231833">
        <ele>730.0</ele>
        <time>2018-06-09T09:22:26.164Z</time>
      </trkpt>
      <trkpt lat="37.41825333" lon="-4.39230333">
        <ele>730.0</ele>
        <time>2018-06-09T09:22:27.167Z</time>
      </trkpt>
      <trkpt lat="37.41825333" lon="-4.39230333">
        <ele>730.0</ele>
        <time>2018-06-09T09:22:28.173Z</time>
      </trkpt>
      <trkpt lat="37.41824" lon="-4.39228833">
        <ele>730.0</ele>
        <time>2018-06-09T09:22:29.183Z</time>
      </trkpt>
      <trkpt lat="37.41823333" lon="-4.39228167">
        <ele>730.0</ele>
        <time>2018-06-09T09:22:30.192Z</time>
      </trkpt>
      <trkpt lat="37.41823333" lon="-4.39228167">
        <ele>730.0</ele>
        <time>2018-06-09T09:22:31.182Z</time>
      </trkpt>
      <trkpt lat="37.41821833" lon="-4.39226833">
        <ele>731.0</ele>
        <time>2018-06-09T09:22:32.189Z</time>
      </trkpt>
      <trkpt lat="37.41821167" lon="-4.39226167">
        <ele>731.0</ele>
        <time>2018-06-09T09:22:33.177Z</time>
      </trkpt>
      <trkpt lat="37.41821167" lon="-4.39226167">
        <ele>731.0</ele>
        <time>2018-06-09T09:22:34.183Z</time>
      </trkpt>
      <trkpt lat="37.41819667" lon="-4.39224833">
        <ele>731.0</ele>
        <time>2018-06-09T09:22:35.166Z</time>
      </trkpt>
      <trkpt lat="37.41819667" lon="-4.39224833">
        <ele>731.0</ele>
        <time>2018-06-09T09:22:36.190Z</time>
      </trkpt>
      <trkpt lat="37.41817833" lon="-4.39223667">
        <ele>731.0</ele>
        <time>2018-06-09T09:22:37.178Z</time>
      </trkpt>
      <trkpt lat="37.41817833" lon="-4.39223667">
        <ele>731.0</ele>
        <time>2018-06-09T09:22:38.184Z</time>
      </trkpt>
      <trkpt lat="37.41816" lon="-4.39222667">
        <ele>732.0</ele>
        <time>2018-06-09T09:22:39.192Z</time>
      </trkpt>
      <trkpt lat="37.41816" lon="-4.39222667">
        <ele>732.0</ele>
        <time>2018-06-09T09:22:40.160Z</time>
      </trkpt>
      <trkpt lat="37.418145" lon="-4.39222333">
        <ele>732.0</ele>
        <time>2018-06-09T09:22:41.167Z</time>
      </trkpt>
      <trkpt lat="37.418145" lon="-4.39222333">
        <ele>732.0</ele>
        <time>2018-06-09T09:22:42.173Z</time>
      </trkpt>
      <trkpt lat="37.41813833" lon="-4.39223">
        <ele>732.0</ele>
        <time>2018-06-09T09:22:43.173Z</time>
      </trkpt>
      <trkpt lat="37.41798333" lon="-4.392275">
        <ele>734.0</ele>
        <time>2018-06-09T09:22:44.165Z</time>
      </trkpt>
      <trkpt lat="37.41796833" lon="-4.392285">
        <ele>734.0</ele>
        <time>2018-06-09T09:22:45.192Z</time>
      </trkpt>
      <trkpt lat="37.41795167" lon="-4.39229333">
        <ele>734.0</ele>
        <time>2018-06-09T09:22:46.170Z</time>
      </trkpt>
      <trkpt lat="37.41795167" lon="-4.39229333">
        <ele>734.0</ele>
        <time>2018-06-09T09:22:47.296Z</time>
      </trkpt>
      <trkpt lat="37.41791167" lon="-4.39231833">
        <ele>734.0</ele>
        <time>2018-06-09T09:22:48.179Z</time>
      </trkpt>
      <trkpt lat="37.41791167" lon="-4.39231833">
        <ele>734.0</ele>
        <time>2018-06-09T09:22:49.157Z</time>
      </trkpt>
      <trkpt lat="37.41787667" lon="-4.39233">
        <ele>734.0</ele>
        <time>2018-06-09T09:22:50.163Z</time>
      </trkpt>
      <trkpt lat="37.41787667" lon="-4.39233">
        <ele>734.0</ele>
        <time>2018-06-09T09:22:51.190Z</time>
      </trkpt>
      <trkpt lat="37.41784833" lon="-4.39233333">
        <ele>735.0</ele>
        <time>2018-06-09T09:22:52.170Z</time>
      </trkpt>
      <trkpt lat="37.41784833" lon="-4.39233333">
        <ele>735.0</ele>
        <time>2018-06-09T09:22:53.193Z</time>
      </trkpt>
      <trkpt lat="37.41782" lon="-4.392335">
        <ele>736.0</ele>
        <time>2018-06-09T09:22:54.159Z</time>
      </trkpt>
      <trkpt lat="37.41782" lon="-4.392335">
        <ele>736.0</ele>
        <time>2018-06-09T09:22:55.180Z</time>
      </trkpt>
      <trkpt lat="37.41779167" lon="-4.39234">
        <ele>737.0</ele>
        <time>2018-06-09T09:22:56.161Z</time>
      </trkpt>
      <trkpt lat="37.41779167" lon="-4.39234">
        <ele>737.0</ele>
        <time>2018-06-09T09:22:57.175Z</time>
      </trkpt>
      <trkpt lat="37.41776333" lon="-4.39234833">
        <ele>738.0</ele>
        <time>2018-06-09T09:22:58.184Z</time>
      </trkpt>
      <trkpt lat="37.41776333" lon="-4.39234833">
        <ele>738.0</ele>
        <time>2018-06-09T09:22:59.173Z</time>
      </trkpt>
      <trkpt lat="37.41773667" lon="-4.392355">
        <ele>738.0</ele>
        <time>2018-06-09T09:23:00.173Z</time>
      </trkpt>
      <trkpt lat="37.41773667" lon="-4.392355">
        <ele>738.0</ele>
        <time>2018-06-09T09:23:01.186Z</time>
      </trkpt>
      <trkpt lat="37.41771" lon="-4.392365">
        <ele>739.0</ele>
        <time>2018-06-09T09:23:02.194Z</time>
      </trkpt>
      <trkpt lat="37.41769667" lon="-4.39236833">
        <ele>739.0</ele>
        <time>2018-06-09T09:23:03.165Z</time>
      </trkpt>
      <trkpt lat="37.41769667" lon="-4.39236833">
        <ele>739.0</ele>
        <time>2018-06-09T09:23:04.182Z</time>
      </trkpt>
      <trkpt lat="37.41767" lon="-4.39236167">
        <ele>740.0</ele>
        <time>2018-06-09T09:23:05.161Z</time>
      </trkpt>
      <trkpt lat="37.41767" lon="-4.39236167">
        <ele>740.0</ele>
        <time>2018-06-09T09:23:06.192Z</time>
      </trkpt>
      <trkpt lat="37.41764667" lon="-4.39235">
        <ele>740.0</ele>
        <time>2018-06-09T09:23:07.160Z</time>
      </trkpt>
      <trkpt lat="37.41764667" lon="-4.39235">
        <ele>740.0</ele>
        <time>2018-06-09T09:23:08.189Z</time>
      </trkpt>
      <trkpt lat="37.41762833" lon="-4.39232333">
        <ele>741.0</ele>
        <time>2018-06-09T09:23:09.160Z</time>
      </trkpt>
      <trkpt lat="37.41762167" lon="-4.39231167">
        <ele>741.0</ele>
        <time>2018-06-09T09:23:10.176Z</time>
      </trkpt>
      <trkpt lat="37.41762167" lon="-4.39231167">
        <ele>741.0</ele>
        <time>2018-06-09T09:23:11.193Z</time>
      </trkpt>
      <trkpt lat="37.417605" lon="-4.39228667">
        <ele>741.0</ele>
        <time>2018-06-09T09:23:12.184Z</time>
      </trkpt>
      <trkpt lat="37.41759667" lon="-4.39227833">
        <ele>742.0</ele>
        <time>2018-06-09T09:23:13.187Z</time>
      </trkpt>
      <trkpt lat="37.41759667" lon="-4.39227833">
        <ele>742.0</ele>
        <time>2018-06-09T09:23:14.162Z</time>
      </trkpt>
      <trkpt lat="37.41757667" lon="-4.39226333">
        <ele>742.0</ele>
        <time>2018-06-09T09:23:15.173Z</time>
      </trkpt>
      <trkpt lat="37.417565" lon="-4.392255">
        <ele>742.0</ele>
        <time>2018-06-09T09:23:16.184Z</time>
      </trkpt>
      <trkpt lat="37.417565" lon="-4.392255">
        <ele>742.0</ele>
        <time>2018-06-09T09:23:17.161Z</time>
      </trkpt>
      <trkpt lat="37.417545" lon="-4.392235">
        <ele>743.0</ele>
        <time>2018-06-09T09:23:18.177Z</time>
      </trkpt>
      <trkpt lat="37.417545" lon="-4.392235">
        <ele>743.0</ele>
        <time>2018-06-09T09:23:19.169Z</time>
      </trkpt>
      <trkpt lat="37.41753667" lon="-4.39221167">
        <ele>743.0</ele>
        <time>2018-06-09T09:23:20.184Z</time>
      </trkpt>
      <trkpt lat="37.41753667" lon="-4.39221167">
        <ele>743.0</ele>
        <time>2018-06-09T09:23:21.160Z</time>
      </trkpt>
      <trkpt lat="37.41752833" lon="-4.39218167">
        <ele>743.0</ele>
        <time>2018-06-09T09:23:22.175Z</time>
      </trkpt>
      <trkpt lat="37.41752833" lon="-4.39218167">
        <ele>743.0</ele>
        <time>2018-06-09T09:23:23.165Z</time>
      </trkpt>
      <trkpt lat="37.41751" lon="-4.39216333">
        <ele>743.0</ele>
        <time>2018-06-09T09:23:24.171Z</time>
      </trkpt>
      <trkpt lat="37.41750167" lon="-4.39216">
        <ele>743.0</ele>
        <time>2018-06-09T09:23:25.188Z</time>
      </trkpt>
      <trkpt lat="37.41750167" lon="-4.39216">
        <ele>743.0</ele>
        <time>2018-06-09T09:23:26.191Z</time>
      </trkpt>
      <trkpt lat="37.41748167" lon="-4.39215333">
        <ele>743.0</ele>
        <time>2018-06-09T09:23:27.171Z</time>
      </trkpt>
      <trkpt lat="37.41747167" lon="-4.39215333">
        <ele>743.0</ele>
        <time>2018-06-09T09:23:28.157Z</time>
      </trkpt>
      <trkpt lat="37.41747167" lon="-4.39215333">
        <ele>743.0</ele>
        <time>2018-06-09T09:23:29.168Z</time>
      </trkpt>
      <trkpt lat="37.417445" lon="-4.39215667">
        <ele>743.0</ele>
        <time>2018-06-09T09:23:30.183Z</time>
      </trkpt>
      <trkpt lat="37.41743167" lon="-4.39216">
        <ele>743.0</ele>
        <time>2018-06-09T09:23:31.193Z</time>
      </trkpt>
      <trkpt lat="37.41743167" lon="-4.39216">
        <ele>743.0</ele>
        <time>2018-06-09T09:23:32.164Z</time>
      </trkpt>
      <trkpt lat="37.417395" lon="-4.39215667">
        <ele>743.0</ele>
        <time>2018-06-09T09:23:33.170Z</time>
      </trkpt>
      <trkpt lat="37.417395" lon="-4.39215667">
        <ele>743.0</ele>
        <time>2018-06-09T09:23:34.191Z</time>
      </trkpt>
      <trkpt lat="37.41736667" lon="-4.39214167">
        <ele>744.0</ele>
        <time>2018-06-09T09:23:35.174Z</time>
      </trkpt>
      <trkpt lat="37.41736667" lon="-4.39214167">
        <ele>744.0</ele>
        <time>2018-06-09T09:23:36.182Z</time>
      </trkpt>
      <trkpt lat="37.417345" lon="-4.39212833">
        <ele>745.0</ele>
        <time>2018-06-09T09:23:37.188Z</time>
      </trkpt>
      <trkpt lat="37.417345" lon="-4.39212833">
        <ele>745.0</ele>
        <time>2018-06-09T09:23:38.185Z</time>
      </trkpt>
      <trkpt lat="37.417325" lon="-4.39210833">
        <ele>745.0</ele>
        <time>2018-06-09T09:23:39.191Z</time>
      </trkpt>
      <trkpt lat="37.417315" lon="-4.39209833">
        <ele>745.0</ele>
        <time>2018-06-09T09:23:40.170Z</time>
      </trkpt>
      <trkpt lat="37.417315" lon="-4.39209833">
        <ele>745.0</ele>
        <time>2018-06-09T09:23:41.190Z</time>
      </trkpt>
      <trkpt lat="37.4173" lon="-4.39207667">
        <ele>745.0</ele>
        <time>2018-06-09T09:23:42.196Z</time>
      </trkpt>
      <trkpt lat="37.41729333" lon="-4.39206667">
        <ele>745.0</ele>
        <time>2018-06-09T09:23:43.174Z</time>
      </trkpt>
      <trkpt lat="37.41729333" lon="-4.39206667">
        <ele>745.0</ele>
        <time>2018-06-09T09:23:44.191Z</time>
      </trkpt>
      <trkpt lat="37.41727667" lon="-4.39204333">
        <ele>746.0</ele>
        <time>2018-06-09T09:23:45.158Z</time>
      </trkpt>
      <trkpt lat="37.41727167" lon="-4.39203167">
        <ele>746.0</ele>
        <time>2018-06-09T09:23:46.179Z</time>
      </trkpt>
      <trkpt lat="37.41727167" lon="-4.39203167">
        <ele>746.0</ele>
        <time>2018-06-09T09:23:47.291Z</time>
      </trkpt>
      <trkpt lat="37.41725333" lon="-4.39201333">
        <ele>747.0</ele>
        <time>2018-06-09T09:23:48.177Z</time>
      </trkpt>
      <trkpt lat="37.41725333" lon="-4.39201333">
        <ele>747.0</ele>
        <time>2018-06-09T09:23:49.194Z</time>
      </trkpt>
      <trkpt lat="37.417235" lon="-4.39199167">
        <ele>747.0</ele>
        <time>2018-06-09T09:23:50.160Z</time>
      </trkpt>
      <trkpt lat="37.417235" lon="-4.39199167">
        <ele>747.0</ele>
        <time>2018-06-09T09:23:51.182Z</time>
      </trkpt>
      <trkpt lat="37.41722333" lon="-4.39197167">
        <ele>748.0</ele>
        <time>2018-06-09T09:23:52.173Z</time>
      </trkpt>
      <trkpt lat="37.41722333" lon="-4.39197167">
        <ele>748.0</ele>
        <time>2018-06-09T09:23:53.178Z</time>
      </trkpt>
      <trkpt lat="37.41720833" lon="-4.39195667">
        <ele>748.0</ele>
        <time>2018-06-09T09:23:54.184Z</time>
      </trkpt>
      <trkpt lat="37.4172" lon="-4.39194333">
        <ele>749.0</ele>
        <time>2018-06-09T09:23:55.165Z</time>
      </trkpt>
      <trkpt lat="37.41719167" lon="-4.39193167">
        <ele>749.0</ele>
        <time>2018-06-09T09:23:56.165Z</time>
      </trkpt>
      <trkpt lat="37.41719167" lon="-4.39193167">
        <ele>749.0</ele>
        <time>2018-06-09T09:23:57.182Z</time>
      </trkpt>
      <trkpt lat="37.41717333" lon="-4.39191">
        <ele>749.0</ele>
        <time>2018-06-09T09:23:58.161Z</time>
      </trkpt>
      <trkpt lat="37.41717333" lon="-4.39191">
        <ele>749.0</ele>
        <time>2018-06-09T09:23:59.162Z</time>
      </trkpt>
      <trkpt lat="37.41716167" lon="-4.391885">
        <ele>750.0</ele>
        <time>2018-06-09T09:24:00.169Z</time>
      </trkpt>
      <trkpt lat="37.41716167" lon="-4.391885">
        <ele>750.0</ele>
        <time>2018-06-09T09:24:01.191Z</time>
      </trkpt>
      <trkpt lat="37.41714833" lon="-4.391865">
        <ele>750.0</ele>
        <time>2018-06-09T09:24:02.161Z</time>
      </trkpt>
      <trkpt lat="37.41714" lon="-4.39185333">
        <ele>751.0</ele>
        <time>2018-06-09T09:24:03.186Z</time>
      </trkpt>
      <trkpt lat="37.417135" lon="-4.39184333">
        <ele>751.0</ele>
        <time>2018-06-09T09:24:04.164Z</time>
      </trkpt>
      <trkpt lat="37.417135" lon="-4.39184333">
        <ele>751.0</ele>
        <time>2018-06-09T09:24:05.182Z</time>
      </trkpt>
      <trkpt lat="37.41712167" lon="-4.39182">
        <ele>752.0</ele>
        <time>2018-06-09T09:24:06.190Z</time>
      </trkpt>
      <trkpt lat="37.41712167" lon="-4.39182">
        <ele>752.0</ele>
        <time>2018-06-09T09:24:07.166Z</time>
      </trkpt>
      <trkpt lat="37.41710333" lon="-4.39179833">
        <ele>752.0</ele>
        <time>2018-06-09T09:24:08.175Z</time>
      </trkpt>
      <trkpt lat="37.41710333" lon="-4.39179833">
        <ele>752.0</ele>
        <time>2018-06-09T09:24:09.164Z</time>
      </trkpt>
      <trkpt lat="37.417085" lon="-4.391775">
        <ele>752.0</ele>
        <time>2018-06-09T09:24:10.178Z</time>
      </trkpt>
      <trkpt lat="37.417085" lon="-4.391775">
        <ele>752.0</ele>
        <time>2018-06-09T09:24:11.165Z</time>
      </trkpt>
      <trkpt lat="37.41706667" lon="-4.39175">
        <ele>753.0</ele>
        <time>2018-06-09T09:24:12.173Z</time>
      </trkpt>
      <trkpt lat="37.41706667" lon="-4.39175">
        <ele>753.0</ele>
        <time>2018-06-09T09:24:13.165Z</time>
      </trkpt>
      <trkpt lat="37.41705" lon="-4.39172833">
        <ele>753.0</ele>
        <time>2018-06-09T09:24:14.171Z</time>
      </trkpt>
      <trkpt lat="37.41704167" lon="-4.391715">
        <ele>754.0</ele>
        <time>2018-06-09T09:24:15.193Z</time>
      </trkpt>
      <trkpt lat="37.417035" lon="-4.39170333">
        <ele>754.0</ele>
        <time>2018-06-09T09:24:16.167Z</time>
      </trkpt>
      <trkpt lat="37.417035" lon="-4.39170333">
        <ele>754.0</ele>
        <time>2018-06-09T09:24:17.184Z</time>
      </trkpt>
      <trkpt lat="37.41701667" lon="-4.39168333">
        <ele>754.0</ele>
        <time>2018-06-09T09:24:18.200Z</time>
      </trkpt>
      <trkpt lat="37.41700833" lon="-4.39167167">
        <ele>754.0</ele>
        <time>2018-06-09T09:24:19.165Z</time>
      </trkpt>
      <trkpt lat="37.41700833" lon="-4.39167167">
        <ele>754.0</ele>
        <time>2018-06-09T09:24:20.183Z</time>
      </trkpt>
      <trkpt lat="37.41699333" lon="-4.39165333">
        <ele>755.0</ele>
        <time>2018-06-09T09:24:21.173Z</time>
      </trkpt>
      <trkpt lat="37.41698667" lon="-4.39164">
        <ele>755.0</ele>
        <time>2018-06-09T09:24:22.186Z</time>
      </trkpt>
      <trkpt lat="37.41698667" lon="-4.39164">
        <ele>755.0</ele>
        <time>2018-06-09T09:24:23.162Z</time>
      </trkpt>
      <trkpt lat="37.41696833" lon="-4.39162">
        <ele>756.0</ele>
        <time>2018-06-09T09:24:24.186Z</time>
      </trkpt>
      <trkpt lat="37.41696" lon="-4.39161167">
        <ele>756.0</ele>
        <time>2018-06-09T09:24:25.164Z</time>
      </trkpt>
      <trkpt lat="37.41695" lon="-4.39160167">
        <ele>756.0</ele>
        <time>2018-06-09T09:24:26.174Z</time>
      </trkpt>
      <trkpt lat="37.41695" lon="-4.39160167">
        <ele>756.0</ele>
        <time>2018-06-09T09:24:27.190Z</time>
      </trkpt>
      <trkpt lat="37.41693167" lon="-4.39158167">
        <ele>757.0</ele>
        <time>2018-06-09T09:24:28.196Z</time>
      </trkpt>
      <trkpt lat="37.41693167" lon="-4.39158167">
        <ele>757.0</ele>
        <time>2018-06-09T09:24:29.175Z</time>
      </trkpt>
      <trkpt lat="37.41692333" lon="-4.39155167">
        <ele>757.0</ele>
        <time>2018-06-09T09:24:30.183Z</time>
      </trkpt>
      <trkpt lat="37.41692333" lon="-4.39155167">
        <ele>757.0</ele>
        <time>2018-06-09T09:24:31.166Z</time>
      </trkpt>
      <trkpt lat="37.41691667" lon="-4.39152">
        <ele>758.0</ele>
        <time>2018-06-09T09:24:32.175Z</time>
      </trkpt>
      <trkpt lat="37.41691667" lon="-4.39152">
        <ele>758.0</ele>
        <time>2018-06-09T09:24:33.173Z</time>
      </trkpt>
      <trkpt lat="37.416915" lon="-4.39148667">
        <ele>758.0</ele>
        <time>2018-06-09T09:24:34.185Z</time>
      </trkpt>
      <trkpt lat="37.416915" lon="-4.39148667">
        <ele>758.0</ele>
        <time>2018-06-09T09:24:35.165Z</time>
      </trkpt>
      <trkpt lat="37.41692333" lon="-4.391455">
        <ele>759.0</ele>
        <time>2018-06-09T09:24:36.178Z</time>
      </trkpt>
      <trkpt lat="37.41692333" lon="-4.391455">
        <ele>759.0</ele>
        <time>2018-06-09T09:24:37.170Z</time>
      </trkpt>
      <trkpt lat="37.416935" lon="-4.39143167">
        <ele>759.0</ele>
        <time>2018-06-09T09:24:38.183Z</time>
      </trkpt>
      <trkpt lat="37.41694167" lon="-4.39142">
        <ele>760.0</ele>
        <time>2018-06-09T09:24:39.164Z</time>
      </trkpt>
      <trkpt lat="37.41694667" lon="-4.391405">
        <ele>760.0</ele>
        <time>2018-06-09T09:24:40.176Z</time>
      </trkpt>
      <trkpt lat="37.41694667" lon="-4.391405">
        <ele>760.0</ele>
        <time>2018-06-09T09:24:41.193Z</time>
      </trkpt>
      <trkpt lat="37.416935" lon="-4.39138167">
        <ele>760.0</ele>
        <time>2018-06-09T09:24:42.173Z</time>
      </trkpt>
      <trkpt lat="37.416935" lon="-4.39138167">
        <ele>760.0</ele>
        <time>2018-06-09T09:24:43.161Z</time>
      </trkpt>
      <trkpt lat="37.41691667" lon="-4.39136167">
        <ele>761.0</ele>
        <time>2018-06-09T09:24:44.176Z</time>
      </trkpt>
      <trkpt lat="37.41690833" lon="-4.39135">
        <ele>761.0</ele>
        <time>2018-06-09T09:24:45.176Z</time>
      </trkpt>
      <trkpt lat="37.41690833" lon="-4.39135">
        <ele>761.0</ele>
        <time>2018-06-09T09:24:46.177Z</time>
      </trkpt>
      <trkpt lat="37.41688833" lon="-4.39133667">
        <ele>761.0</ele>
        <time>2018-06-09T09:24:47.288Z</time>
      </trkpt>
      <trkpt lat="37.41688833" lon="-4.39133667">
        <ele>761.0</ele>
        <time>2018-06-09T09:24:48.159Z</time>
      </trkpt>
      <trkpt lat="37.41687167" lon="-4.39131833">
        <ele>761.0</ele>
        <time>2018-06-09T09:24:49.168Z</time>
      </trkpt>
      <trkpt lat="37.41687167" lon="-4.39131833">
        <ele>761.0</ele>
        <time>2018-06-09T09:24:50.183Z</time>
      </trkpt>
      <trkpt lat="37.41686333" lon="-4.39128833">
        <ele>761.0</ele>
        <time>2018-06-09T09:24:51.173Z</time>
      </trkpt>
      <trkpt lat="37.41686" lon="-4.39127333">
        <ele>761.0</ele>
        <time>2018-06-09T09:24:52.167Z</time>
      </trkpt>
      <trkpt lat="37.41686" lon="-4.39127333">
        <ele>761.0</ele>
        <time>2018-06-09T09:24:53.185Z</time>
      </trkpt>
      <trkpt lat="37.41684333" lon="-4.39124833">
        <ele>761.0</ele>
        <time>2018-06-09T09:24:54.203Z</time>
      </trkpt>
      <trkpt lat="37.41683833" lon="-4.39123833">
        <ele>761.0</ele>
        <time>2018-06-09T09:24:55.185Z</time>
      </trkpt>
      <trkpt lat="37.41683833" lon="-4.39123833">
        <ele>761.0</ele>
        <time>2018-06-09T09:24:56.162Z</time>
      </trkpt>
      <trkpt lat="37.416825" lon="-4.39121333">
        <ele>761.0</ele>
        <time>2018-06-09T09:24:57.184Z</time>
      </trkpt>
      <trkpt lat="37.41681667" lon="-4.3912">
        <ele>761.0</ele>
        <time>2018-06-09T09:24:58.189Z</time>
      </trkpt>
      <trkpt lat="37.41681667" lon="-4.3912">
        <ele>761.0</ele>
        <time>2018-06-09T09:24:59.165Z</time>
      </trkpt>
      <trkpt lat="37.41680667" lon="-4.39117">
        <ele>761.0</ele>
        <time>2018-06-09T09:25:00.171Z</time>
      </trkpt>
      <trkpt lat="37.41680333" lon="-4.391155">
        <ele>761.0</ele>
        <time>2018-06-09T09:25:01.193Z</time>
      </trkpt>
      <trkpt lat="37.41680167" lon="-4.39113833">
        <ele>761.0</ele>
        <time>2018-06-09T09:25:02.195Z</time>
      </trkpt>
      <trkpt lat="37.41680167" lon="-4.39113833">
        <ele>761.0</ele>
        <time>2018-06-09T09:25:03.172Z</time>
      </trkpt>
      <trkpt lat="37.4168" lon="-4.39110833">
        <ele>761.0</ele>
        <time>2018-06-09T09:25:04.199Z</time>
      </trkpt>
      <trkpt lat="37.4168" lon="-4.39110833">
        <ele>761.0</ele>
        <time>2018-06-09T09:25:05.176Z</time>
      </trkpt>
      <trkpt lat="37.41679833" lon="-4.39106333">
        <ele>761.0</ele>
        <time>2018-06-09T09:25:06.185Z</time>
      </trkpt>
      <trkpt lat="37.4168" lon="-4.391045">
        <ele>761.0</ele>
        <time>2018-06-09T09:25:07.174Z</time>
      </trkpt>
      <trkpt lat="37.4168" lon="-4.391045">
        <ele>761.0</ele>
        <time>2018-06-09T09:25:08.160Z</time>
      </trkpt>
      <trkpt lat="37.41679833" lon="-4.39100667">
        <ele>761.0</ele>
        <time>2018-06-09T09:25:09.170Z</time>
      </trkpt>
      <trkpt lat="37.41679833" lon="-4.39098833">
        <ele>761.0</ele>
        <time>2018-06-09T09:25:10.175Z</time>
      </trkpt>
      <trkpt lat="37.41679833" lon="-4.39098833">
        <ele>761.0</ele>
        <time>2018-06-09T09:25:11.185Z</time>
      </trkpt>
      <trkpt lat="37.416795" lon="-4.390945">
        <ele>761.0</ele>
        <time>2018-06-09T09:25:12.193Z</time>
      </trkpt>
      <trkpt lat="37.41679333" lon="-4.390915">
        <ele>761.0</ele>
        <time>2018-06-09T09:25:13.180Z</time>
      </trkpt>
      <trkpt lat="37.41679333" lon="-4.390915">
        <ele>761.0</ele>
        <time>2018-06-09T09:25:14.193Z</time>
      </trkpt>
      <trkpt lat="37.41679167" lon="-4.39085667">
        <ele>761.0</ele>
        <time>2018-06-09T09:25:15.159Z</time>
      </trkpt>
      <trkpt lat="37.41679167" lon="-4.39082667">
        <ele>760.0</ele>
        <time>2018-06-09T09:25:16.193Z</time>
      </trkpt>
      <trkpt lat="37.41679167" lon="-4.39082667">
        <ele>760.0</ele>
        <time>2018-06-09T09:25:17.186Z</time>
      </trkpt>
      <trkpt lat="37.416785" lon="-4.39074833">
        <ele>759.0</ele>
        <time>2018-06-09T09:25:18.192Z</time>
      </trkpt>
      <trkpt lat="37.416785" lon="-4.39074833">
        <ele>759.0</ele>
        <time>2018-06-09T09:25:19.168Z</time>
      </trkpt>
      <trkpt lat="37.41678167" lon="-4.390655">
        <ele>758.0</ele>
        <time>2018-06-09T09:25:20.175Z</time>
      </trkpt>
      <trkpt lat="37.41678167" lon="-4.390655">
        <ele>758.0</ele>
        <time>2018-06-09T09:25:21.194Z</time>
      </trkpt>
      <trkpt lat="37.416765" lon="-4.39055">
        <ele>757.0</ele>
        <time>2018-06-09T09:25:22.160Z</time>
      </trkpt>
      <trkpt lat="37.41676167" lon="-4.39051167">
        <ele>757.0</ele>
        <time>2018-06-09T09:25:23.180Z</time>
      </trkpt>
      <trkpt lat="37.41676167" lon="-4.39051167">
        <ele>757.0</ele>
        <time>2018-06-09T09:25:24.160Z</time>
      </trkpt>
      <trkpt lat="37.41675833" lon="-4.39046833">
        <ele>758.0</ele>
        <time>2018-06-09T09:25:25.170Z</time>
      </trkpt>
      <trkpt lat="37.41675833" lon="-4.39046833">
        <ele>758.0</ele>
        <time>2018-06-09T09:25:26.187Z</time>
      </trkpt>
      <trkpt lat="37.41675167" lon="-4.39043333">
        <ele>757.0</ele>
        <time>2018-06-09T09:25:27.173Z</time>
      </trkpt>
      <trkpt lat="37.41674833" lon="-4.390415">
        <ele>758.0</ele>
        <time>2018-06-09T09:25:28.196Z</time>
      </trkpt>
      <trkpt lat="37.41674833" lon="-4.390415">
        <ele>758.0</ele>
        <time>2018-06-09T09:25:29.170Z</time>
      </trkpt>
      <trkpt lat="37.416745" lon="-4.39038167">
        <ele>757.0</ele>
        <time>2018-06-09T09:25:30.185Z</time>
      </trkpt>
      <trkpt lat="37.416745" lon="-4.39038167">
        <ele>757.0</ele>
        <time>2018-06-09T09:25:31.166Z</time>
      </trkpt>
      <trkpt lat="37.41674833" lon="-4.39037333">
        <ele>757.0</ele>
        <time>2018-06-09T09:25:32.173Z</time>
      </trkpt>
      <trkpt lat="37.41674667" lon="-4.39036667">
        <ele>757.0</ele>
        <time>2018-06-09T09:25:33.167Z</time>
      </trkpt>
      <trkpt lat="37.41674333" lon="-4.390355">
        <ele>757.0</ele>
        <time>2018-06-09T09:25:34.194Z</time>
      </trkpt>
      <trkpt lat="37.41674" lon="-4.39032">
        <ele>758.0</ele>
        <time>2018-06-09T09:25:35.188Z</time>
      </trkpt>
      <trkpt lat="37.41674" lon="-4.39032">
        <ele>758.0</ele>
        <time>2018-06-09T09:25:36.194Z</time>
      </trkpt>
      <trkpt lat="37.416735" lon="-4.3903">
        <ele>758.0</ele>
        <time>2018-06-09T09:25:37.159Z</time>
      </trkpt>
      <trkpt lat="37.416735" lon="-4.3903">
        <ele>758.0</ele>
        <time>2018-06-09T09:25:38.171Z</time>
      </trkpt>
      <trkpt lat="37.41673167" lon="-4.39028">
        <ele>759.0</ele>
        <time>2018-06-09T09:25:39.196Z</time>
      </trkpt>
      <trkpt lat="37.41673167" lon="-4.39028">
        <ele>759.0</ele>
        <time>2018-06-09T09:25:40.175Z</time>
      </trkpt>
      <trkpt lat="37.41673" lon="-4.39026333">
        <ele>759.0</ele>
        <time>2018-06-09T09:25:41.181Z</time>
      </trkpt>
      <trkpt lat="37.41673" lon="-4.39026333">
        <ele>759.0</ele>
        <time>2018-06-09T09:25:42.159Z</time>
      </trkpt>
      <trkpt lat="37.416725" lon="-4.39024167">
        <ele>760.0</ele>
        <time>2018-06-09T09:25:43.193Z</time>
      </trkpt>
      <trkpt lat="37.416725" lon="-4.39024167">
        <ele>760.0</ele>
        <time>2018-06-09T09:25:44.163Z</time>
      </trkpt>
      <trkpt lat="37.41672167" lon="-4.390225">
        <ele>760.0</ele>
        <time>2018-06-09T09:25:45.170Z</time>
      </trkpt>
      <trkpt lat="37.41672167" lon="-4.390225">
        <ele>760.0</ele>
        <time>2018-06-09T09:25:46.193Z</time>
      </trkpt>
      <trkpt lat="37.41671833" lon="-4.39021">
        <ele>761.0</ele>
        <time>2018-06-09T09:25:47.181Z</time>
      </trkpt>
      <trkpt lat="37.41671667" lon="-4.39020333">
        <ele>761.0</ele>
        <time>2018-06-09T09:25:48.162Z</time>
      </trkpt>
      <trkpt lat="37.416715" lon="-4.390195">
        <ele>761.0</ele>
        <time>2018-06-09T09:25:49.182Z</time>
      </trkpt>
      <trkpt lat="37.416715" lon="-4.390195">
        <ele>761.0</ele>
        <time>2018-06-09T09:25:50.173Z</time>
      </trkpt>
      <trkpt lat="37.41671167" lon="-4.39018">
        <ele>761.0</ele>
        <time>2018-06-09T09:25:51.179Z</time>
      </trkpt>
      <trkpt lat="37.41671167" lon="-4.39017333">
        <ele>762.0</ele>
        <time>2018-06-09T09:25:52.162Z</time>
      </trkpt>
      <trkpt lat="37.41671167" lon="-4.39017333">
        <ele>762.0</ele>
        <time>2018-06-09T09:25:53.185Z</time>
      </trkpt>
      <trkpt lat="37.41670833" lon="-4.39016">
        <ele>762.0</ele>
        <time>2018-06-09T09:25:54.183Z</time>
      </trkpt>
      <trkpt lat="37.41670667" lon="-4.39015167">
        <ele>762.0</ele>
        <time>2018-06-09T09:25:55.174Z</time>
      </trkpt>
      <trkpt lat="37.41670667" lon="-4.39015167">
        <ele>762.0</ele>
        <time>2018-06-09T09:25:56.192Z</time>
      </trkpt>
      <trkpt lat="37.41670333" lon="-4.39014167">
        <ele>762.0</ele>
        <time>2018-06-09T09:25:57.173Z</time>
      </trkpt>
      <trkpt lat="37.41670333" lon="-4.39013667">
        <ele>762.0</ele>
        <time>2018-06-09T09:25:58.176Z</time>
      </trkpt>
      <trkpt lat="37.4167" lon="-4.39011667">
        <ele>763.0</ele>
        <time>2018-06-09T09:25:59.159Z</time>
      </trkpt>
      <trkpt lat="37.4167" lon="-4.39011667">
        <ele>763.0</ele>
        <time>2018-06-09T09:26:00.165Z</time>
      </trkpt>
      <trkpt lat="37.41669667" lon="-4.39010333">
        <ele>763.0</ele>
        <time>2018-06-09T09:26:01.171Z</time>
      </trkpt>
      <trkpt lat="37.41669333" lon="-4.390095">
        <ele>763.0</ele>
        <time>2018-06-09T09:26:02.191Z</time>
      </trkpt>
      <trkpt lat="37.41669333" lon="-4.390095">
        <ele>763.0</ele>
        <time>2018-06-09T09:26:03.169Z</time>
      </trkpt>
      <trkpt lat="37.41669" lon="-4.390085">
        <ele>763.0</ele>
        <time>2018-06-09T09:26:04.178Z</time>
      </trkpt>
      <trkpt lat="37.41669" lon="-4.390085">
        <ele>763.0</ele>
        <time>2018-06-09T09:26:05.169Z</time>
      </trkpt>
      <trkpt lat="37.41669" lon="-4.39007667">
        <ele>763.0</ele>
        <time>2018-06-09T09:26:06.192Z</time>
      </trkpt>
      <trkpt lat="37.41669" lon="-4.39007667">
        <ele>763.0</ele>
        <time>2018-06-09T09:26:07.168Z</time>
      </trkpt>
      <trkpt lat="37.41669" lon="-4.39006833">
        <ele>763.0</ele>
        <time>2018-06-09T09:26:08.174Z</time>
      </trkpt>
      <trkpt lat="37.41669" lon="-4.39006833">
        <ele>763.0</ele>
        <time>2018-06-09T09:26:09.193Z</time>
      </trkpt>
      <trkpt lat="37.41669" lon="-4.39005667">
        <ele>764.0</ele>
        <time>2018-06-09T09:26:10.165Z</time>
      </trkpt>
      <trkpt lat="37.41669" lon="-4.39005667">
        <ele>764.0</ele>
        <time>2018-06-09T09:26:11.183Z</time>
      </trkpt>
      <trkpt lat="37.41669" lon="-4.39004667">
        <ele>764.0</ele>
        <time>2018-06-09T09:26:12.175Z</time>
      </trkpt>
      <trkpt lat="37.41669" lon="-4.39004667">
        <ele>764.0</ele>
        <time>2018-06-09T09:26:13.185Z</time>
      </trkpt>
      <trkpt lat="37.41666333" lon="-4.38993833">
        <ele>767.0</ele>
        <time>2018-06-09T09:26:14.186Z</time>
      </trkpt>
      <trkpt lat="37.41666333" lon="-4.38993833">
        <ele>767.0</ele>
        <time>2018-06-09T09:26:15.162Z</time>
      </trkpt>
      <trkpt lat="37.41666" lon="-4.38992167">
        <ele>768.0</ele>
        <time>2018-06-09T09:26:16.168Z</time>
      </trkpt>
      <trkpt lat="37.41666" lon="-4.38991333">
        <ele>768.0</ele>
        <time>2018-06-09T09:26:17.192Z</time>
      </trkpt>
      <trkpt lat="37.41666" lon="-4.38991333">
        <ele>768.0</ele>
        <time>2018-06-09T09:26:18.168Z</time>
      </trkpt>
      <trkpt lat="37.41665833" lon="-4.38989833">
        <ele>768.0</ele>
        <time>2018-06-09T09:26:19.181Z</time>
      </trkpt>
      <trkpt lat="37.41665667" lon="-4.38989">
        <ele>768.0</ele>
        <time>2018-06-09T09:26:20.180Z</time>
      </trkpt>
      <trkpt lat="37.41665667" lon="-4.38989">
        <ele>768.0</ele>
        <time>2018-06-09T09:26:21.157Z</time>
      </trkpt>
      <trkpt lat="37.41665333" lon="-4.38987333">
        <ele>769.0</ele>
        <time>2018-06-09T09:26:22.198Z</time>
      </trkpt>
      <trkpt lat="37.41665167" lon="-4.38986333">
        <ele>769.0</ele>
        <time>2018-06-09T09:26:23.190Z</time>
      </trkpt>
      <trkpt lat="37.41665167" lon="-4.38986333">
        <ele>769.0</ele>
        <time>2018-06-09T09:26:24.167Z</time>
      </trkpt>
      <trkpt lat="37.41664833" lon="-4.38984333">
        <ele>769.0</ele>
        <time>2018-06-09T09:26:25.180Z</time>
      </trkpt>
      <trkpt lat="37.416645" lon="-4.38983333">
        <ele>769.0</ele>
        <time>2018-06-09T09:26:26.185Z</time>
      </trkpt>
      <trkpt lat="37.416645" lon="-4.38983333">
        <ele>769.0</ele>
        <time>2018-06-09T09:26:27.183Z</time>
      </trkpt>
      <trkpt lat="37.41664167" lon="-4.38981667">
        <ele>769.0</ele>
        <time>2018-06-09T09:26:28.190Z</time>
      </trkpt>
      <trkpt lat="37.41663833" lon="-4.38980667">
        <ele>769.0</ele>
        <time>2018-06-09T09:26:29.189Z</time>
      </trkpt>
      <trkpt lat="37.41663833" lon="-4.38980667">
        <ele>769.0</ele>
        <time>2018-06-09T09:26:30.165Z</time>
      </trkpt>
      <trkpt lat="37.41663167" lon="-4.38978833">
        <ele>769.0</ele>
        <time>2018-06-09T09:26:31.171Z</time>
      </trkpt>
      <trkpt lat="37.41663167" lon="-4.38978833">
        <ele>769.0</ele>
        <time>2018-06-09T09:26:32.190Z</time>
      </trkpt>
      <trkpt lat="37.416625" lon="-4.389775">
        <ele>769.0</ele>
        <time>2018-06-09T09:26:33.158Z</time>
      </trkpt>
      <trkpt lat="37.416625" lon="-4.389775">
        <ele>769.0</ele>
        <time>2018-06-09T09:26:34.180Z</time>
      </trkpt>
      <trkpt lat="37.41662167" lon="-4.38976">
        <ele>770.0</ele>
        <time>2018-06-09T09:26:35.191Z</time>
      </trkpt>
      <trkpt lat="37.41662" lon="-4.389755">
        <ele>770.0</ele>
        <time>2018-06-09T09:26:36.160Z</time>
      </trkpt>
      <trkpt lat="37.41662" lon="-4.389755">
        <ele>770.0</ele>
        <time>2018-06-09T09:26:37.181Z</time>
      </trkpt>
      <trkpt lat="37.416615" lon="-4.38975">
        <ele>770.0</ele>
        <time>2018-06-09T09:26:38.171Z</time>
      </trkpt>
      <trkpt lat="37.416615" lon="-4.38975">
        <ele>770.0</ele>
        <time>2018-06-09T09:26:39.190Z</time>
      </trkpt>
      <trkpt lat="37.41657" lon="-4.38981833">
        <ele>770.0</ele>
        <time>2018-06-09T09:26:40.186Z</time>
      </trkpt>
      <trkpt lat="37.41657" lon="-4.38981833">
        <ele>770.0</ele>
        <time>2018-06-09T09:26:41.182Z</time>
      </trkpt>
      <trkpt lat="37.41654667" lon="-4.389825">
        <ele>770.0</ele>
        <time>2018-06-09T09:26:42.183Z</time>
      </trkpt>
      <trkpt lat="37.416535" lon="-4.38982667">
        <ele>770.0</ele>
        <time>2018-06-09T09:26:43.159Z</time>
      </trkpt>
      <trkpt lat="37.416535" lon="-4.38982667">
        <ele>770.0</ele>
        <time>2018-06-09T09:26:44.175Z</time>
      </trkpt>
      <trkpt lat="37.416515" lon="-4.38983">
        <ele>770.0</ele>
        <time>2018-06-09T09:26:45.183Z</time>
      </trkpt>
      <trkpt lat="37.416505" lon="-4.38983333">
        <ele>770.0</ele>
        <time>2018-06-09T09:26:46.159Z</time>
      </trkpt>
      <trkpt lat="37.416505" lon="-4.38983333">
        <ele>770.0</ele>
        <time>2018-06-09T09:26:47.179Z</time>
      </trkpt>
      <trkpt lat="37.416485" lon="-4.38984">
        <ele>770.0</ele>
        <time>2018-06-09T09:26:48.186Z</time>
      </trkpt>
      <trkpt lat="37.416485" lon="-4.38984">
        <ele>770.0</ele>
        <time>2018-06-09T09:26:49.192Z</time>
      </trkpt>
      <trkpt lat="37.41646333" lon="-4.389835">
        <ele>769.0</ele>
        <time>2018-06-09T09:26:50.188Z</time>
      </trkpt>
      <trkpt lat="37.41646333" lon="-4.389835">
        <ele>769.0</ele>
        <time>2018-06-09T09:26:51.179Z</time>
      </trkpt>
      <trkpt lat="37.41644167" lon="-4.38983">
        <ele>769.0</ele>
        <time>2018-06-09T09:26:52.186Z</time>
      </trkpt>
      <trkpt lat="37.41643333" lon="-4.38982833">
        <ele>769.0</ele>
        <time>2018-06-09T09:26:53.167Z</time>
      </trkpt>
      <trkpt lat="37.41643333" lon="-4.38982833">
        <ele>769.0</ele>
        <time>2018-06-09T09:26:54.184Z</time>
      </trkpt>
      <trkpt lat="37.41641667" lon="-4.38983333">
        <ele>768.0</ele>
        <time>2018-06-09T09:26:55.175Z</time>
      </trkpt>
      <trkpt lat="37.41640833" lon="-4.38983833">
        <ele>768.0</ele>
        <time>2018-06-09T09:26:56.192Z</time>
      </trkpt>
      <trkpt lat="37.41640833" lon="-4.38983833">
        <ele>768.0</ele>
        <time>2018-06-09T09:26:57.175Z</time>
      </trkpt>
      <trkpt lat="37.41639333" lon="-4.38984667">
        <ele>768.0</ele>
        <time>2018-06-09T09:26:58.162Z</time>
      </trkpt>
      <trkpt lat="37.41639333" lon="-4.38984667">
        <ele>768.0</ele>
        <time>2018-06-09T09:26:59.179Z</time>
      </trkpt>
      <trkpt lat="37.41637333" lon="-4.38985833">
        <ele>767.0</ele>
        <time>2018-06-09T09:27:00.186Z</time>
      </trkpt>
      <trkpt lat="37.41637333" lon="-4.38985833">
        <ele>767.0</ele>
        <time>2018-06-09T09:27:01.181Z</time>
      </trkpt>
      <trkpt lat="37.41635333" lon="-4.389875">
        <ele>766.0</ele>
        <time>2018-06-09T09:27:02.161Z</time>
      </trkpt>
      <trkpt lat="37.41635333" lon="-4.389875">
        <ele>766.0</ele>
        <time>2018-06-09T09:27:03.174Z</time>
      </trkpt>
      <trkpt lat="37.41633333" lon="-4.38989333">
        <ele>766.0</ele>
        <time>2018-06-09T09:27:04.182Z</time>
      </trkpt>
      <trkpt lat="37.41632333" lon="-4.3899">
        <ele>766.0</ele>
        <time>2018-06-09T09:27:05.183Z</time>
      </trkpt>
      <trkpt lat="37.41632333" lon="-4.3899">
        <ele>766.0</ele>
        <time>2018-06-09T09:27:06.159Z</time>
      </trkpt>
      <trkpt lat="37.416305" lon="-4.38990833">
        <ele>765.0</ele>
        <time>2018-06-09T09:27:07.165Z</time>
      </trkpt>
      <trkpt lat="37.41629667" lon="-4.38991167">
        <ele>765.0</ele>
        <time>2018-06-09T09:27:08.181Z</time>
      </trkpt>
      <trkpt lat="37.41629667" lon="-4.38991167">
        <ele>765.0</ele>
        <time>2018-06-09T09:27:09.191Z</time>
      </trkpt>
      <trkpt lat="37.41627667" lon="-4.38991833">
        <ele>764.0</ele>
        <time>2018-06-09T09:27:10.163Z</time>
      </trkpt>
      <trkpt lat="37.41627667" lon="-4.38991833">
        <ele>764.0</ele>
        <time>2018-06-09T09:27:11.187Z</time>
      </trkpt>
      <trkpt lat="37.41625667" lon="-4.38993">
        <ele>763.0</ele>
        <time>2018-06-09T09:27:12.194Z</time>
      </trkpt>
      <trkpt lat="37.41625667" lon="-4.38993">
        <ele>763.0</ele>
        <time>2018-06-09T09:27:13.182Z</time>
      </trkpt>
      <trkpt lat="37.41623833" lon="-4.38993833">
        <ele>762.0</ele>
        <time>2018-06-09T09:27:14.194Z</time>
      </trkpt>
      <trkpt lat="37.41623833" lon="-4.38993833">
        <ele>762.0</ele>
        <time>2018-06-09T09:27:15.170Z</time>
      </trkpt>
      <trkpt lat="37.41622" lon="-4.389945">
        <ele>761.0</ele>
        <time>2018-06-09T09:27:16.178Z</time>
      </trkpt>
      <trkpt lat="37.41621167" lon="-4.38994833">
        <ele>761.0</ele>
        <time>2018-06-09T09:27:17.169Z</time>
      </trkpt>
      <trkpt lat="37.41621167" lon="-4.38994833">
        <ele>761.0</ele>
        <time>2018-06-09T09:27:18.187Z</time>
      </trkpt>
      <trkpt lat="37.41619667" lon="-4.389955">
        <ele>760.0</ele>
        <time>2018-06-09T09:27:19.193Z</time>
      </trkpt>
      <trkpt lat="37.41618667" lon="-4.38996">
        <ele>760.0</ele>
        <time>2018-06-09T09:27:20.173Z</time>
      </trkpt>
      <trkpt lat="37.41618667" lon="-4.38996">
        <ele>760.0</ele>
        <time>2018-06-09T09:27:21.190Z</time>
      </trkpt>
      <trkpt lat="37.41616833" lon="-4.38997167">
        <ele>759.0</ele>
        <time>2018-06-09T09:27:22.196Z</time>
      </trkpt>
      <trkpt lat="37.41616833" lon="-4.38997167">
        <ele>759.0</ele>
        <time>2018-06-09T09:27:23.161Z</time>
      </trkpt>
      <trkpt lat="37.41615333" lon="-4.389985">
        <ele>758.0</ele>
        <time>2018-06-09T09:27:24.181Z</time>
      </trkpt>
      <trkpt lat="37.41615333" lon="-4.389985">
        <ele>758.0</ele>
        <time>2018-06-09T09:27:25.157Z</time>
      </trkpt>
      <trkpt lat="37.41614167" lon="-4.38999667">
        <ele>758.0</ele>
        <time>2018-06-09T09:27:26.163Z</time>
      </trkpt>
      <trkpt lat="37.41614167" lon="-4.38999667">
        <ele>758.0</ele>
        <time>2018-06-09T09:27:27.191Z</time>
      </trkpt>
      <trkpt lat="37.41613" lon="-4.39000667">
        <ele>758.0</ele>
        <time>2018-06-09T09:27:28.180Z</time>
      </trkpt>
      <trkpt lat="37.41613" lon="-4.39000667">
        <ele>758.0</ele>
        <time>2018-06-09T09:27:29.193Z</time>
      </trkpt>
      <trkpt lat="37.41612167" lon="-4.39002333">
        <ele>757.0</ele>
        <time>2018-06-09T09:27:30.159Z</time>
      </trkpt>
      <trkpt lat="37.41612167" lon="-4.39002333">
        <ele>757.0</ele>
        <time>2018-06-09T09:27:31.165Z</time>
      </trkpt>
      <trkpt lat="37.41611667" lon="-4.390045">
        <ele>757.0</ele>
        <time>2018-06-09T09:27:32.177Z</time>
      </trkpt>
      <trkpt lat="37.41611667" lon="-4.390045">
        <ele>757.0</ele>
        <time>2018-06-09T09:27:33.194Z</time>
      </trkpt>
      <trkpt lat="37.416105" lon="-4.39006333">
        <ele>756.0</ele>
        <time>2018-06-09T09:27:34.182Z</time>
      </trkpt>
      <trkpt lat="37.416105" lon="-4.39006333">
        <ele>756.0</ele>
        <time>2018-06-09T09:27:35.159Z</time>
      </trkpt>
      <trkpt lat="37.41609333" lon="-4.39008167">
        <ele>756.0</ele>
        <time>2018-06-09T09:27:36.167Z</time>
      </trkpt>
      <trkpt lat="37.41609333" lon="-4.39008167">
        <ele>756.0</ele>
        <time>2018-06-09T09:27:37.187Z</time>
      </trkpt>
      <trkpt lat="37.41608833" lon="-4.39010667">
        <ele>756.0</ele>
        <time>2018-06-09T09:27:38.169Z</time>
      </trkpt>
      <trkpt lat="37.41608833" lon="-4.39010667">
        <ele>756.0</ele>
        <time>2018-06-09T09:27:39.186Z</time>
      </trkpt>
      <trkpt lat="37.41608333" lon="-4.39013333">
        <ele>755.0</ele>
        <time>2018-06-09T09:27:40.180Z</time>
      </trkpt>
      <trkpt lat="37.41608" lon="-4.39015">
        <ele>755.0</ele>
        <time>2018-06-09T09:27:41.165Z</time>
      </trkpt>
      <trkpt lat="37.41608" lon="-4.39015">
        <ele>755.0</ele>
        <time>2018-06-09T09:27:42.181Z</time>
      </trkpt>
      <trkpt lat="37.416075" lon="-4.39017833">
        <ele>754.0</ele>
        <time>2018-06-09T09:27:43.188Z</time>
      </trkpt>
      <trkpt lat="37.416075" lon="-4.390195">
        <ele>754.0</ele>
        <time>2018-06-09T09:27:44.173Z</time>
      </trkpt>
      <trkpt lat="37.416075" lon="-4.390195">
        <ele>754.0</ele>
        <time>2018-06-09T09:27:45.191Z</time>
      </trkpt>
      <trkpt lat="37.41607" lon="-4.39022333">
        <ele>753.0</ele>
        <time>2018-06-09T09:27:46.158Z</time>
      </trkpt>
      <trkpt lat="37.41607" lon="-4.39022333">
        <ele>753.0</ele>
        <time>2018-06-09T09:27:47.165Z</time>
      </trkpt>
      <trkpt lat="37.41606333" lon="-4.39024833">
        <ele>753.0</ele>
        <time>2018-06-09T09:27:48.167Z</time>
      </trkpt>
      <trkpt lat="37.41606" lon="-4.39026167">
        <ele>752.0</ele>
        <time>2018-06-09T09:27:49.185Z</time>
      </trkpt>
      <trkpt lat="37.41605833" lon="-4.39027333">
        <ele>752.0</ele>
        <time>2018-06-09T09:27:50.161Z</time>
      </trkpt>
      <trkpt lat="37.41605833" lon="-4.39027333">
        <ele>752.0</ele>
        <time>2018-06-09T09:27:51.177Z</time>
      </trkpt>
      <trkpt lat="37.41605333" lon="-4.39029167">
        <ele>752.0</ele>
        <time>2018-06-09T09:27:52.184Z</time>
      </trkpt>
      <trkpt lat="37.41605333" lon="-4.39029833">
        <ele>752.0</ele>
        <time>2018-06-09T09:27:53.161Z</time>
      </trkpt>
      <trkpt lat="37.41605333" lon="-4.39029833">
        <ele>752.0</ele>
        <time>2018-06-09T09:27:54.182Z</time>
      </trkpt>
      <trkpt lat="37.41605833" lon="-4.390315">
        <ele>751.0</ele>
        <time>2018-06-09T09:27:55.175Z</time>
      </trkpt>
      <trkpt lat="37.41606333" lon="-4.390325">
        <ele>751.0</ele>
        <time>2018-06-09T09:27:56.193Z</time>
      </trkpt>
      <trkpt lat="37.41606333" lon="-4.390325">
        <ele>751.0</ele>
        <time>2018-06-09T09:27:57.158Z</time>
      </trkpt>
      <trkpt lat="37.41607" lon="-4.39034667">
        <ele>751.0</ele>
        <time>2018-06-09T09:27:58.193Z</time>
      </trkpt>
      <trkpt lat="37.41607" lon="-4.39034667">
        <ele>751.0</ele>
        <time>2018-06-09T09:27:59.170Z</time>
      </trkpt>
      <trkpt lat="37.41608333" lon="-4.39037">
        <ele>750.0</ele>
        <time>2018-06-09T09:28:00.197Z</time>
      </trkpt>
      <trkpt lat="37.41609" lon="-4.39038167">
        <ele>750.0</ele>
        <time>2018-06-09T09:28:01.176Z</time>
      </trkpt>
      <trkpt lat="37.41609" lon="-4.39038167">
        <ele>750.0</ele>
        <time>2018-06-09T09:28:02.192Z</time>
      </trkpt>
      <trkpt lat="37.41611" lon="-4.39039833">
        <ele>750.0</ele>
        <time>2018-06-09T09:28:03.172Z</time>
      </trkpt>
      <trkpt lat="37.41611833" lon="-4.390405">
        <ele>750.0</ele>
        <time>2018-06-09T09:28:04.188Z</time>
      </trkpt>
      <trkpt lat="37.41611833" lon="-4.390405">
        <ele>750.0</ele>
        <time>2018-06-09T09:28:05.164Z</time>
      </trkpt>
      <trkpt lat="37.41612667" lon="-4.39042667">
        <ele>750.0</ele>
        <time>2018-06-09T09:28:06.189Z</time>
      </trkpt>
      <trkpt lat="37.41612667" lon="-4.39043833">
        <ele>749.0</ele>
        <time>2018-06-09T09:28:07.166Z</time>
      </trkpt>
      <trkpt lat="37.416125" lon="-4.39044833">
        <ele>749.0</ele>
        <time>2018-06-09T09:28:08.185Z</time>
      </trkpt>
      <trkpt lat="37.416125" lon="-4.39044833">
        <ele>749.0</ele>
        <time>2018-06-09T09:28:09.167Z</time>
      </trkpt>
      <trkpt lat="37.41612" lon="-4.39047">
        <ele>748.0</ele>
        <time>2018-06-09T09:28:10.198Z</time>
      </trkpt>
      <trkpt lat="37.41612" lon="-4.39047833">
        <ele>748.0</ele>
        <time>2018-06-09T09:28:11.184Z</time>
      </trkpt>
      <trkpt lat="37.41612" lon="-4.39047833">
        <ele>748.0</ele>
        <time>2018-06-09T09:28:12.166Z</time>
      </trkpt>
      <trkpt lat="37.41612333" lon="-4.3905">
        <ele>747.0</ele>
        <time>2018-06-09T09:28:13.176Z</time>
      </trkpt>
      <trkpt lat="37.41612833" lon="-4.39051333">
        <ele>747.0</ele>
        <time>2018-06-09T09:28:14.185Z</time>
      </trkpt>
      <trkpt lat="37.41612833" lon="-4.39051333">
        <ele>747.0</ele>
        <time>2018-06-09T09:28:15.164Z</time>
      </trkpt>
      <trkpt lat="37.41614167" lon="-4.39053667">
        <ele>746.0</ele>
        <time>2018-06-09T09:28:16.172Z</time>
      </trkpt>
      <trkpt lat="37.41614833" lon="-4.39054833">
        <ele>746.0</ele>
        <time>2018-06-09T09:28:17.164Z</time>
      </trkpt>
      <trkpt lat="37.41614833" lon="-4.39054833">
        <ele>746.0</ele>
        <time>2018-06-09T09:28:18.175Z</time>
      </trkpt>
      <trkpt lat="37.41616" lon="-4.39057333">
        <ele>745.0</ele>
        <time>2018-06-09T09:28:19.190Z</time>
      </trkpt>
      <trkpt lat="37.41616333" lon="-4.390585">
        <ele>745.0</ele>
        <time>2018-06-09T09:28:20.174Z</time>
      </trkpt>
      <trkpt lat="37.41616333" lon="-4.390585">
        <ele>745.0</ele>
        <time>2018-06-09T09:28:21.190Z</time>
      </trkpt>
      <trkpt lat="37.41616667" lon="-4.39060833">
        <ele>745.0</ele>
        <time>2018-06-09T09:28:22.196Z</time>
      </trkpt>
      <trkpt lat="37.41616833" lon="-4.39062">
        <ele>745.0</ele>
        <time>2018-06-09T09:28:23.165Z</time>
      </trkpt>
      <trkpt lat="37.41616833" lon="-4.39062">
        <ele>745.0</ele>
        <time>2018-06-09T09:28:24.182Z</time>
      </trkpt>
      <trkpt lat="37.41617" lon="-4.39064833">
        <ele>744.0</ele>
        <time>2018-06-09T09:28:25.188Z</time>
      </trkpt>
      <trkpt lat="37.41617" lon="-4.39066167">
        <ele>743.0</ele>
        <time>2018-06-09T09:28:26.179Z</time>
      </trkpt>
      <trkpt lat="37.41617" lon="-4.39066167">
        <ele>743.0</ele>
        <time>2018-06-09T09:28:27.195Z</time>
      </trkpt>
      <trkpt lat="37.41617167" lon="-4.39068667">
        <ele>743.0</ele>
        <time>2018-06-09T09:28:28.167Z</time>
      </trkpt>
      <trkpt lat="37.41617333" lon="-4.3907">
        <ele>742.0</ele>
        <time>2018-06-09T09:28:29.172Z</time>
      </trkpt>
      <trkpt lat="37.41617333" lon="-4.3907">
        <ele>742.0</ele>
        <time>2018-06-09T09:28:30.191Z</time>
      </trkpt>
      <trkpt lat="37.41617667" lon="-4.390725">
        <ele>742.0</ele>
        <time>2018-06-09T09:28:31.175Z</time>
      </trkpt>
      <trkpt lat="37.41618" lon="-4.39073667">
        <ele>741.0</ele>
        <time>2018-06-09T09:28:32.184Z</time>
      </trkpt>
      <trkpt lat="37.41618" lon="-4.39073667">
        <ele>741.0</ele>
        <time>2018-06-09T09:28:33.161Z</time>
      </trkpt>
      <trkpt lat="37.41618667" lon="-4.39075667">
        <ele>741.0</ele>
        <time>2018-06-09T09:28:34.169Z</time>
      </trkpt>
      <trkpt lat="37.41618667" lon="-4.39075667">
        <ele>741.0</ele>
        <time>2018-06-09T09:28:35.186Z</time>
      </trkpt>
      <trkpt lat="37.416195" lon="-4.39078667">
        <ele>740.0</ele>
        <time>2018-06-09T09:28:36.173Z</time>
      </trkpt>
      <trkpt lat="37.416195" lon="-4.39078667">
        <ele>740.0</ele>
        <time>2018-06-09T09:28:37.191Z</time>
      </trkpt>
      <trkpt lat="37.41620333" lon="-4.39081333">
        <ele>740.0</ele>
        <time>2018-06-09T09:28:38.158Z</time>
      </trkpt>
      <trkpt lat="37.41620333" lon="-4.39081333">
        <ele>740.0</ele>
        <time>2018-06-09T09:28:39.157Z</time>
      </trkpt>
      <trkpt lat="37.41621" lon="-4.39084">
        <ele>739.0</ele>
        <time>2018-06-09T09:28:40.196Z</time>
      </trkpt>
      <trkpt lat="37.41621" lon="-4.39084">
        <ele>739.0</ele>
        <time>2018-06-09T09:28:41.173Z</time>
      </trkpt>
      <trkpt lat="37.41621167" lon="-4.39086833">
        <ele>739.0</ele>
        <time>2018-06-09T09:28:42.179Z</time>
      </trkpt>
      <trkpt lat="37.41621167" lon="-4.39086833">
        <ele>739.0</ele>
        <time>2018-06-09T09:28:43.157Z</time>
      </trkpt>
      <trkpt lat="37.41620667" lon="-4.39088833">
        <ele>738.0</ele>
        <time>2018-06-09T09:28:44.176Z</time>
      </trkpt>
      <trkpt lat="37.41620667" lon="-4.39088833">
        <ele>738.0</ele>
        <time>2018-06-09T09:28:45.194Z</time>
      </trkpt>
      <trkpt lat="37.41623167" lon="-4.39099333">
        <ele>736.0</ele>
        <time>2018-06-09T09:28:46.196Z</time>
      </trkpt>
      <trkpt lat="37.41623167" lon="-4.39099333">
        <ele>736.0</ele>
        <time>2018-06-09T09:28:47.175Z</time>
      </trkpt>
      <trkpt lat="37.41624333" lon="-4.39103">
        <ele>736.0</ele>
        <time>2018-06-09T09:28:48.188Z</time>
      </trkpt>
      <trkpt lat="37.41624333" lon="-4.39103">
        <ele>736.0</ele>
        <time>2018-06-09T09:28:49.194Z</time>
      </trkpt>
      <trkpt lat="37.41624667" lon="-4.39105833">
        <ele>736.0</ele>
        <time>2018-06-09T09:28:50.173Z</time>
      </trkpt>
      <trkpt lat="37.41624667" lon="-4.39105833">
        <ele>736.0</ele>
        <time>2018-06-09T09:28:51.185Z</time>
      </trkpt>
      <trkpt lat="37.41623333" lon="-4.39108">
        <ele>736.0</ele>
        <time>2018-06-09T09:28:52.193Z</time>
      </trkpt>
      <trkpt lat="37.41622" lon="-4.39108333">
        <ele>735.0</ele>
        <time>2018-06-09T09:28:53.168Z</time>
      </trkpt>
      <trkpt lat="37.41620667" lon="-4.39108667">
        <ele>735.0</ele>
        <time>2018-06-09T09:28:54.191Z</time>
      </trkpt>
      <trkpt lat="37.41620667" lon="-4.39108667">
        <ele>735.0</ele>
        <time>2018-06-09T09:28:55.170Z</time>
      </trkpt>
      <trkpt lat="37.41618333" lon="-4.39110333">
        <ele>734.0</ele>
        <time>2018-06-09T09:28:56.168Z</time>
      </trkpt>
      <trkpt lat="37.41617667" lon="-4.391115">
        <ele>734.0</ele>
        <time>2018-06-09T09:28:57.169Z</time>
      </trkpt>
      <trkpt lat="37.41617667" lon="-4.391115">
        <ele>734.0</ele>
        <time>2018-06-09T09:28:58.188Z</time>
      </trkpt>
      <trkpt lat="37.41616167" lon="-4.391145">
        <ele>733.0</ele>
        <time>2018-06-09T09:28:59.194Z</time>
      </trkpt>
      <trkpt lat="37.41615667" lon="-4.39116">
        <ele>733.0</ele>
        <time>2018-06-09T09:29:00.168Z</time>
      </trkpt>
      <trkpt lat="37.41615667" lon="-4.39116">
        <ele>733.0</ele>
        <time>2018-06-09T09:29:01.193Z</time>
      </trkpt>
      <trkpt lat="37.41615333" lon="-4.39118667">
        <ele>732.0</ele>
        <time>2018-06-09T09:29:02.160Z</time>
      </trkpt>
      <trkpt lat="37.41615" lon="-4.39119833">
        <ele>732.0</ele>
        <time>2018-06-09T09:29:03.172Z</time>
      </trkpt>
      <trkpt lat="37.41615" lon="-4.39119833">
        <ele>732.0</ele>
        <time>2018-06-09T09:29:04.192Z</time>
      </trkpt>
      <trkpt lat="37.41613667" lon="-4.39123">
        <ele>732.0</ele>
        <time>2018-06-09T09:29:05.159Z</time>
      </trkpt>
      <trkpt lat="37.41613667" lon="-4.39123">
        <ele>732.0</ele>
        <time>2018-06-09T09:29:06.180Z</time>
      </trkpt>
      <trkpt lat="37.41611667" lon="-4.391245">
        <ele>731.0</ele>
        <time>2018-06-09T09:29:07.175Z</time>
      </trkpt>
      <trkpt lat="37.41611667" lon="-4.391245">
        <ele>731.0</ele>
        <time>2018-06-09T09:29:08.167Z</time>
      </trkpt>
      <trkpt lat="37.41609333" lon="-4.39126">
        <ele>730.0</ele>
        <time>2018-06-09T09:29:09.173Z</time>
      </trkpt>
      <trkpt lat="37.416085" lon="-4.39127167">
        <ele>730.0</ele>
        <time>2018-06-09T09:29:10.194Z</time>
      </trkpt>
      <trkpt lat="37.416085" lon="-4.39127167">
        <ele>730.0</ele>
        <time>2018-06-09T09:29:11.190Z</time>
      </trkpt>
      <trkpt lat="37.41606667" lon="-4.39129333">
        <ele>729.0</ele>
        <time>2018-06-09T09:29:12.196Z</time>
      </trkpt>
      <trkpt lat="37.41606667" lon="-4.39129333">
        <ele>729.0</ele>
        <time>2018-06-09T09:29:13.163Z</time>
      </trkpt>
      <trkpt lat="37.41604833" lon="-4.391305">
        <ele>729.0</ele>
        <time>2018-06-09T09:29:14.168Z</time>
      </trkpt>
      <trkpt lat="37.41604833" lon="-4.391305">
        <ele>729.0</ele>
        <time>2018-06-09T09:29:15.158Z</time>
      </trkpt>
      <trkpt lat="37.41602333" lon="-4.39131333">
        <ele>728.0</ele>
        <time>2018-06-09T09:29:16.164Z</time>
      </trkpt>
      <trkpt lat="37.41601333" lon="-4.39131833">
        <ele>728.0</ele>
        <time>2018-06-09T09:29:17.188Z</time>
      </trkpt>
      <trkpt lat="37.41600333" lon="-4.391325">
        <ele>728.0</ele>
        <time>2018-06-09T09:29:18.185Z</time>
      </trkpt>
      <trkpt lat="37.41600333" lon="-4.391325">
        <ele>728.0</ele>
        <time>2018-06-09T09:29:19.175Z</time>
      </trkpt>
      <trkpt lat="37.41598333" lon="-4.39133667">
        <ele>727.0</ele>
        <time>2018-06-09T09:29:20.188Z</time>
      </trkpt>
      <trkpt lat="37.41597333" lon="-4.391345">
        <ele>726.0</ele>
        <time>2018-06-09T09:29:21.179Z</time>
      </trkpt>
      <trkpt lat="37.41597333" lon="-4.391345">
        <ele>726.0</ele>
        <time>2018-06-09T09:29:22.157Z</time>
      </trkpt>
      <trkpt lat="37.41595667" lon="-4.39136167">
        <ele>726.0</ele>
        <time>2018-06-09T09:29:23.168Z</time>
      </trkpt>
      <trkpt lat="37.41595667" lon="-4.39136167">
        <ele>726.0</ele>
        <time>2018-06-09T09:29:24.169Z</time>
      </trkpt>
      <trkpt lat="37.41593" lon="-4.39138167">
        <ele>725.0</ele>
        <time>2018-06-09T09:29:25.175Z</time>
      </trkpt>
      <trkpt lat="37.41593" lon="-4.39138167">
        <ele>725.0</ele>
        <time>2018-06-09T09:29:26.193Z</time>
      </trkpt>
      <trkpt lat="37.4159" lon="-4.39138833">
        <ele>725.0</ele>
        <time>2018-06-09T09:29:27.166Z</time>
      </trkpt>
      <trkpt lat="37.41588833" lon="-4.39139333">
        <ele>725.0</ele>
        <time>2018-06-09T09:29:28.157Z</time>
      </trkpt>
      <trkpt lat="37.41588833" lon="-4.39139333">
        <ele>725.0</ele>
        <time>2018-06-09T09:29:29.174Z</time>
      </trkpt>
      <trkpt lat="37.41588833" lon="-4.39139333">
        <ele>725.0</ele>
        <time>2018-06-09T09:29:30.208Z</time>
      </trkpt>
      <trkpt lat="37.415865" lon="-4.39140167">
        <ele>724.0</ele>
        <time>2018-06-09T09:29:31.164Z</time>
      </trkpt>
      <trkpt lat="37.41585" lon="-4.39138333">
        <ele>724.0</ele>
        <time>2018-06-09T09:29:32.175Z</time>
      </trkpt>
      <trkpt lat="37.41585167" lon="-4.391375">
        <ele>724.0</ele>
        <time>2018-06-09T09:29:33.168Z</time>
      </trkpt>
      <trkpt lat="37.41585" lon="-4.39136833">
        <ele>724.0</ele>
        <time>2018-06-09T09:29:34.193Z</time>
      </trkpt>
      <trkpt lat="37.41585" lon="-4.39136833">
        <ele>724.0</ele>
        <time>2018-06-09T09:29:35.173Z</time>
      </trkpt>
      <trkpt lat="37.41584" lon="-4.39134167">
        <ele>724.0</ele>
        <time>2018-06-09T09:29:36.168Z</time>
      </trkpt>
      <trkpt lat="37.41584" lon="-4.39134167">
        <ele>724.0</ele>
        <time>2018-06-09T09:29:37.157Z</time>
      </trkpt>
      <trkpt lat="37.41582833" lon="-4.39131">
        <ele>723.0</ele>
        <time>2018-06-09T09:29:38.171Z</time>
      </trkpt>
      <trkpt lat="37.41581833" lon="-4.39128833">
        <ele>723.0</ele>
        <time>2018-06-09T09:29:39.176Z</time>
      </trkpt>
      <trkpt lat="37.41581833" lon="-4.39128833">
        <ele>723.0</ele>
        <time>2018-06-09T09:29:40.168Z</time>
      </trkpt>
      <trkpt lat="37.4158" lon="-4.39123667">
        <ele>723.0</ele>
        <time>2018-06-09T09:29:41.175Z</time>
      </trkpt>
      <trkpt lat="37.41578833" lon="-4.39121167">
        <ele>723.0</ele>
        <time>2018-06-09T09:29:42.196Z</time>
      </trkpt>
      <trkpt lat="37.41578833" lon="-4.39121167">
        <ele>723.0</ele>
        <time>2018-06-09T09:29:43.187Z</time>
      </trkpt>
      <trkpt lat="37.41575833" lon="-4.39116167">
        <ele>724.0</ele>
        <time>2018-06-09T09:29:44.194Z</time>
      </trkpt>
      <trkpt lat="37.41574333" lon="-4.39114">
        <ele>724.0</ele>
        <time>2018-06-09T09:29:45.173Z</time>
      </trkpt>
      <trkpt lat="37.41574333" lon="-4.39114">
        <ele>724.0</ele>
        <time>2018-06-09T09:29:46.167Z</time>
      </trkpt>
      <trkpt lat="37.41570833" lon="-4.391095">
        <ele>724.0</ele>
        <time>2018-06-09T09:29:47.170Z</time>
      </trkpt>
      <trkpt lat="37.41569167" lon="-4.39107333">
        <ele>725.0</ele>
        <time>2018-06-09T09:29:48.192Z</time>
      </trkpt>
      <trkpt lat="37.41567333" lon="-4.39105333">
        <ele>725.0</ele>
        <time>2018-06-09T09:29:49.172Z</time>
      </trkpt>
      <trkpt lat="37.41567333" lon="-4.39105333">
        <ele>725.0</ele>
        <time>2018-06-09T09:29:50.184Z</time>
      </trkpt>
      <trkpt lat="37.41563167" lon="-4.39101">
        <ele>724.0</ele>
        <time>2018-06-09T09:29:51.191Z</time>
      </trkpt>
      <trkpt lat="37.41560667" lon="-4.39098333">
        <ele>724.0</ele>
        <time>2018-06-09T09:29:52.196Z</time>
      </trkpt>
      <trkpt lat="37.41558" lon="-4.390955">
        <ele>724.0</ele>
        <time>2018-06-09T09:29:53.184Z</time>
      </trkpt>
      <trkpt lat="37.41558" lon="-4.390955">
        <ele>724.0</ele>
        <time>2018-06-09T09:29:54.165Z</time>
      </trkpt>
      <trkpt lat="37.41553" lon="-4.390895">
        <ele>724.0</ele>
        <time>2018-06-09T09:29:55.172Z</time>
      </trkpt>
      <trkpt lat="37.41550667" lon="-4.39086333">
        <ele>724.0</ele>
        <time>2018-06-09T09:29:56.173Z</time>
      </trkpt>
      <trkpt lat="37.41550667" lon="-4.39086333">
        <ele>724.0</ele>
        <time>2018-06-09T09:29:57.185Z</time>
      </trkpt>
      <trkpt lat="37.41546" lon="-4.3908">
        <ele>725.0</ele>
        <time>2018-06-09T09:29:58.192Z</time>
      </trkpt>
      <trkpt lat="37.41543333" lon="-4.390775">
        <ele>725.0</ele>
        <time>2018-06-09T09:29:59.168Z</time>
      </trkpt>
      <trkpt lat="37.4154" lon="-4.39075667">
        <ele>725.0</ele>
        <time>2018-06-09T09:30:00.158Z</time>
      </trkpt>
      <trkpt lat="37.4154" lon="-4.39075667">
        <ele>725.0</ele>
        <time>2018-06-09T09:30:01.175Z</time>
      </trkpt>
      <trkpt lat="37.41531833" lon="-4.39071667">
        <ele>722.0</ele>
        <time>2018-06-09T09:30:02.175Z</time>
      </trkpt>
      <trkpt lat="37.41531833" lon="-4.39071667">
        <ele>722.0</ele>
        <time>2018-06-09T09:30:03.174Z</time>
      </trkpt>
      <trkpt lat="37.41523833" lon="-4.39064333">
        <ele>720.0</ele>
        <time>2018-06-09T09:30:04.184Z</time>
      </trkpt>
      <trkpt lat="37.41520167" lon="-4.3906">
        <ele>719.0</ele>
        <time>2018-06-09T09:30:05.165Z</time>
      </trkpt>
      <trkpt lat="37.41520167" lon="-4.3906">
        <ele>719.0</ele>
        <time>2018-06-09T09:30:06.196Z</time>
      </trkpt>
      <trkpt lat="37.41514167" lon="-4.39050333">
        <ele>720.0</ele>
        <time>2018-06-09T09:30:07.162Z</time>
      </trkpt>
      <trkpt lat="37.41512" lon="-4.39045167">
        <ele>719.0</ele>
        <time>2018-06-09T09:30:08.168Z</time>
      </trkpt>
      <trkpt lat="37.41512" lon="-4.39045167">
        <ele>719.0</ele>
        <time>2018-06-09T09:30:09.158Z</time>
      </trkpt>
      <trkpt lat="37.415095" lon="-4.39035833">
        <ele>719.0</ele>
        <time>2018-06-09T09:30:10.164Z</time>
      </trkpt>
      <trkpt lat="37.415095" lon="-4.39035833">
        <ele>719.0</ele>
        <time>2018-06-09T09:30:11.191Z</time>
      </trkpt>
      <trkpt lat="37.41508667" lon="-4.39027667">
        <ele>719.0</ele>
        <time>2018-06-09T09:30:12.168Z</time>
      </trkpt>
      <trkpt lat="37.41508667" lon="-4.39027667">
        <ele>719.0</ele>
        <time>2018-06-09T09:30:13.162Z</time>
      </trkpt>
      <trkpt lat="37.41508" lon="-4.39021">
        <ele>719.0</ele>
        <time>2018-06-09T09:30:14.169Z</time>
      </trkpt>
      <trkpt lat="37.41507333" lon="-4.390175">
        <ele>719.0</ele>
        <time>2018-06-09T09:30:15.190Z</time>
      </trkpt>
      <trkpt lat="37.41507333" lon="-4.390175">
        <ele>719.0</ele>
        <time>2018-06-09T09:30:16.183Z</time>
      </trkpt>
      <trkpt lat="37.41504667" lon="-4.390105">
        <ele>718.0</ele>
        <time>2018-06-09T09:30:17.189Z</time>
      </trkpt>
      <trkpt lat="37.41502667" lon="-4.39006667">
        <ele>718.0</ele>
        <time>2018-06-09T09:30:18.158Z</time>
      </trkpt>
      <trkpt lat="37.41502667" lon="-4.39006667">
        <ele>718.0</ele>
        <time>2018-06-09T09:30:19.176Z</time>
      </trkpt>
      <trkpt lat="37.41498667" lon="-4.389985">
        <ele>718.0</ele>
        <time>2018-06-09T09:30:20.189Z</time>
      </trkpt>
      <trkpt lat="37.41498667" lon="-4.389985">
        <ele>718.0</ele>
        <time>2018-06-09T09:30:21.160Z</time>
      </trkpt>
      <trkpt lat="37.41495" lon="-4.38990667">
        <ele>717.0</ele>
        <time>2018-06-09T09:30:22.169Z</time>
      </trkpt>
      <trkpt lat="37.41492833" lon="-4.38986333">
        <ele>716.0</ele>
        <time>2018-06-09T09:30:23.188Z</time>
      </trkpt>
      <trkpt lat="37.41492833" lon="-4.38986333">
        <ele>716.0</ele>
        <time>2018-06-09T09:30:24.167Z</time>
      </trkpt>
      <trkpt lat="37.41487833" lon="-4.38977">
        <ele>715.0</ele>
        <time>2018-06-09T09:30:25.172Z</time>
      </trkpt>
      <trkpt lat="37.41487833" lon="-4.38977">
        <ele>715.0</ele>
        <time>2018-06-09T09:30:26.167Z</time>
      </trkpt>
      <trkpt lat="37.414835" lon="-4.38967333">
        <ele>714.0</ele>
        <time>2018-06-09T09:30:27.172Z</time>
      </trkpt>
      <trkpt lat="37.414835" lon="-4.38967333">
        <ele>714.0</ele>
        <time>2018-06-09T09:30:28.173Z</time>
      </trkpt>
      <trkpt lat="37.414805" lon="-4.389575">
        <ele>713.0</ele>
        <time>2018-06-09T09:30:29.181Z</time>
      </trkpt>
      <trkpt lat="37.41480167" lon="-4.38951833">
        <ele>713.0</ele>
        <time>2018-06-09T09:30:30.165Z</time>
      </trkpt>
      <trkpt lat="37.41480167" lon="-4.38951833">
        <ele>713.0</ele>
        <time>2018-06-09T09:30:31.189Z</time>
      </trkpt>
      <trkpt lat="37.41481333" lon="-4.38938">
        <ele>711.0</ele>
        <time>2018-06-09T09:30:32.195Z</time>
      </trkpt>
      <trkpt lat="37.41482167" lon="-4.38931333">
        <ele>711.0</ele>
        <time>2018-06-09T09:30:33.160Z</time>
      </trkpt>
      <trkpt lat="37.41482167" lon="-4.38931333">
        <ele>711.0</ele>
        <time>2018-06-09T09:30:34.177Z</time>
      </trkpt>
      <trkpt lat="37.41482833" lon="-4.38920167">
        <ele>710.0</ele>
        <time>2018-06-09T09:30:35.186Z</time>
      </trkpt>
      <trkpt lat="37.41482833" lon="-4.38915167">
        <ele>709.0</ele>
        <time>2018-06-09T09:30:36.191Z</time>
      </trkpt>
      <trkpt lat="37.41482833" lon="-4.38915167">
        <ele>709.0</ele>
        <time>2018-06-09T09:30:37.163Z</time>
      </trkpt>
      <trkpt lat="37.41481833" lon="-4.38904667">
        <ele>708.0</ele>
        <time>2018-06-09T09:30:38.169Z</time>
      </trkpt>
      <trkpt lat="37.41481833" lon="-4.38904667">
        <ele>708.0</ele>
        <time>2018-06-09T09:30:39.186Z</time>
      </trkpt>
      <trkpt lat="37.414795" lon="-4.388945">
        <ele>707.0</ele>
        <time>2018-06-09T09:30:40.165Z</time>
      </trkpt>
      <trkpt lat="37.41478" lon="-4.388895">
        <ele>707.0</ele>
        <time>2018-06-09T09:30:41.183Z</time>
      </trkpt>
      <trkpt lat="37.41476833" lon="-4.38884333">
        <ele>706.0</ele>
        <time>2018-06-09T09:30:42.161Z</time>
      </trkpt>
      <trkpt lat="37.41476833" lon="-4.38884333">
        <ele>706.0</ele>
        <time>2018-06-09T09:30:43.193Z</time>
      </trkpt>
      <trkpt lat="37.41474833" lon="-4.38872">
        <ele>706.0</ele>
        <time>2018-06-09T09:30:44.169Z</time>
      </trkpt>
      <trkpt lat="37.41474833" lon="-4.38872">
        <ele>706.0</ele>
        <time>2018-06-09T09:30:45.168Z</time>
      </trkpt>
      <trkpt lat="37.414715" lon="-4.38859667">
        <ele>706.0</ele>
        <time>2018-06-09T09:30:46.178Z</time>
      </trkpt>
      <trkpt lat="37.41469167" lon="-4.38853667">
        <ele>706.0</ele>
        <time>2018-06-09T09:30:47.176Z</time>
      </trkpt>
      <trkpt lat="37.414665" lon="-4.38848333">
        <ele>706.0</ele>
        <time>2018-06-09T09:30:48.192Z</time>
      </trkpt>
      <trkpt lat="37.414665" lon="-4.38848333">
        <ele>706.0</ele>
        <time>2018-06-09T09:30:49.171Z</time>
      </trkpt>
      <trkpt lat="37.41461333" lon="-4.38839">
        <ele>708.0</ele>
        <time>2018-06-09T09:30:50.177Z</time>
      </trkpt>
      <trkpt lat="37.41461333" lon="-4.38839">
        <ele>708.0</ele>
        <time>2018-06-09T09:30:51.196Z</time>
      </trkpt>
      <trkpt lat="37.41456833" lon="-4.38832667">
        <ele>709.0</ele>
        <time>2018-06-09T09:30:52.168Z</time>
      </trkpt>
      <trkpt lat="37.41455167" lon="-4.388305">
        <ele>709.0</ele>
        <time>2018-06-09T09:30:53.184Z</time>
      </trkpt>
      <trkpt lat="37.41453167" lon="-4.38828333">
        <ele>709.0</ele>
        <time>2018-06-09T09:30:54.161Z</time>
      </trkpt>
      <trkpt lat="37.41453167" lon="-4.38828333">
        <ele>709.0</ele>
        <time>2018-06-09T09:30:55.187Z</time>
      </trkpt>
      <trkpt lat="37.41449667" lon="-4.38825167">
        <ele>710.0</ele>
        <time>2018-06-09T09:30:56.194Z</time>
      </trkpt>
      <trkpt lat="37.41449667" lon="-4.38825167">
        <ele>710.0</ele>
        <time>2018-06-09T09:30:57.177Z</time>
      </trkpt>
      <trkpt lat="37.41446333" lon="-4.38821333">
        <ele>711.0</ele>
        <time>2018-06-09T09:30:58.166Z</time>
      </trkpt>
      <trkpt lat="37.41446333" lon="-4.38821333">
        <ele>711.0</ele>
        <time>2018-06-09T09:30:59.174Z</time>
      </trkpt>
      <trkpt lat="37.414435" lon="-4.38817">
        <ele>713.0</ele>
        <time>2018-06-09T09:31:00.190Z</time>
      </trkpt>
      <trkpt lat="37.414435" lon="-4.38817">
        <ele>713.0</ele>
        <time>2018-06-09T09:31:01.166Z</time>
      </trkpt>
      <trkpt lat="37.4144" lon="-4.38813">
        <ele>714.0</ele>
        <time>2018-06-09T09:31:02.173Z</time>
      </trkpt>
      <trkpt lat="37.4144" lon="-4.38813">
        <ele>714.0</ele>
        <time>2018-06-09T09:31:03.193Z</time>
      </trkpt>
      <trkpt lat="37.414365" lon="-4.38809667">
        <ele>715.0</ele>
        <time>2018-06-09T09:31:04.169Z</time>
      </trkpt>
      <trkpt lat="37.414365" lon="-4.38809667">
        <ele>715.0</ele>
        <time>2018-06-09T09:31:05.187Z</time>
      </trkpt>
      <trkpt lat="37.41433167" lon="-4.388065">
        <ele>716.0</ele>
        <time>2018-06-09T09:31:06.194Z</time>
      </trkpt>
      <trkpt lat="37.41433167" lon="-4.388065">
        <ele>716.0</ele>
        <time>2018-06-09T09:31:07.173Z</time>
      </trkpt>
      <trkpt lat="37.4143" lon="-4.38802667">
        <ele>717.0</ele>
        <time>2018-06-09T09:31:08.173Z</time>
      </trkpt>
      <trkpt lat="37.4143" lon="-4.38802667">
        <ele>717.0</ele>
        <time>2018-06-09T09:31:09.179Z</time>
      </trkpt>
      <trkpt lat="37.41426667" lon="-4.38798667">
        <ele>718.0</ele>
        <time>2018-06-09T09:31:10.185Z</time>
      </trkpt>
      <trkpt lat="37.41425167" lon="-4.38796833">
        <ele>718.0</ele>
        <time>2018-06-09T09:31:11.168Z</time>
      </trkpt>
      <trkpt lat="37.41424" lon="-4.38795">
        <ele>718.0</ele>
        <time>2018-06-09T09:31:12.175Z</time>
      </trkpt>
      <trkpt lat="37.41424" lon="-4.38795">
        <ele>718.0</ele>
        <time>2018-06-09T09:31:13.194Z</time>
      </trkpt>
      <trkpt lat="37.41421667" lon="-4.38790667">
        <ele>718.0</ele>
        <time>2018-06-09T09:31:14.179Z</time>
      </trkpt>
      <trkpt lat="37.41421667" lon="-4.38790667">
        <ele>718.0</ele>
        <time>2018-06-09T09:31:15.178Z</time>
      </trkpt>
      <trkpt lat="37.41419167" lon="-4.38786333">
        <ele>718.0</ele>
        <time>2018-06-09T09:31:16.184Z</time>
      </trkpt>
      <trkpt lat="37.41417833" lon="-4.387845">
        <ele>719.0</ele>
        <time>2018-06-09T09:31:17.168Z</time>
      </trkpt>
      <trkpt lat="37.41416167" lon="-4.38782833">
        <ele>719.0</ele>
        <time>2018-06-09T09:31:18.175Z</time>
      </trkpt>
      <trkpt lat="37.41416167" lon="-4.38782833">
        <ele>719.0</ele>
        <time>2018-06-09T09:31:19.192Z</time>
      </trkpt>
      <trkpt lat="37.41413333" lon="-4.38779333">
        <ele>719.0</ele>
        <time>2018-06-09T09:31:20.158Z</time>
      </trkpt>
      <trkpt lat="37.41412" lon="-4.387775">
        <ele>719.0</ele>
        <time>2018-06-09T09:31:21.162Z</time>
      </trkpt>
      <trkpt lat="37.41412" lon="-4.387775">
        <ele>719.0</ele>
        <time>2018-06-09T09:31:22.188Z</time>
      </trkpt>
      <trkpt lat="37.41412" lon="-4.387775">
        <ele>719.0</ele>
        <time>2018-06-09T09:31:23.231Z</time>
      </trkpt>
      <trkpt lat="37.41407333" lon="-4.38772833">
        <ele>719.0</ele>
        <time>2018-06-09T09:31:24.174Z</time>
      </trkpt>
      <trkpt lat="37.41407333" lon="-4.38772833">
        <ele>719.0</ele>
        <time>2018-06-09T09:31:25.193Z</time>
      </trkpt>
      <trkpt lat="37.414035" lon="-4.3877">
        <ele>720.0</ele>
        <time>2018-06-09T09:31:26.159Z</time>
      </trkpt>
      <trkpt lat="37.414035" lon="-4.3877">
        <ele>720.0</ele>
        <time>2018-06-09T09:31:27.166Z</time>
      </trkpt>
      <trkpt lat="37.414" lon="-4.38767167">
        <ele>721.0</ele>
        <time>2018-06-09T09:31:28.174Z</time>
      </trkpt>
      <trkpt lat="37.413985" lon="-4.38766">
        <ele>721.0</ele>
        <time>2018-06-09T09:31:29.162Z</time>
      </trkpt>
      <trkpt lat="37.413985" lon="-4.38766">
        <ele>721.0</ele>
        <time>2018-06-09T09:31:30.186Z</time>
      </trkpt>
      <trkpt lat="37.41395667" lon="-4.38763333">
        <ele>721.0</ele>
        <time>2018-06-09T09:31:31.169Z</time>
      </trkpt>
      <trkpt lat="37.41395667" lon="-4.38763333">
        <ele>721.0</ele>
        <time>2018-06-09T09:31:32.165Z</time>
      </trkpt>
      <trkpt lat="37.41393333" lon="-4.38760667">
        <ele>722.0</ele>
        <time>2018-06-09T09:31:33.175Z</time>
      </trkpt>
      <trkpt lat="37.41393333" lon="-4.38760667">
        <ele>722.0</ele>
        <time>2018-06-09T09:31:34.188Z</time>
      </trkpt>
      <trkpt lat="37.41391333" lon="-4.38758">
        <ele>722.0</ele>
        <time>2018-06-09T09:31:35.172Z</time>
      </trkpt>
      <trkpt lat="37.41390167" lon="-4.38756333">
        <ele>722.0</ele>
        <time>2018-06-09T09:31:36.168Z</time>
      </trkpt>
      <trkpt lat="37.41390167" lon="-4.38756333">
        <ele>722.0</ele>
        <time>2018-06-09T09:31:37.186Z</time>
      </trkpt>
      <trkpt lat="37.41387167" lon="-4.387525">
        <ele>722.0</ele>
        <time>2018-06-09T09:31:38.168Z</time>
      </trkpt>
      <trkpt lat="37.41385667" lon="-4.387505">
        <ele>722.0</ele>
        <time>2018-06-09T09:31:39.157Z</time>
      </trkpt>
      <trkpt lat="37.41385667" lon="-4.387505">
        <ele>722.0</ele>
        <time>2018-06-09T09:31:40.174Z</time>
      </trkpt>
      <trkpt lat="37.41382667" lon="-4.38747167">
        <ele>722.0</ele>
        <time>2018-06-09T09:31:41.178Z</time>
      </trkpt>
      <trkpt lat="37.41381333" lon="-4.38745833">
        <ele>723.0</ele>
        <time>2018-06-09T09:31:42.165Z</time>
      </trkpt>
      <trkpt lat="37.41381333" lon="-4.38745833">
        <ele>723.0</ele>
        <time>2018-06-09T09:31:43.186Z</time>
      </trkpt>
      <trkpt lat="37.41378333" lon="-4.387435">
        <ele>723.0</ele>
        <time>2018-06-09T09:31:44.168Z</time>
      </trkpt>
      <trkpt lat="37.41378333" lon="-4.387435">
        <ele>723.0</ele>
        <time>2018-06-09T09:31:45.188Z</time>
      </trkpt>
      <trkpt lat="37.41375667" lon="-4.38740833">
        <ele>724.0</ele>
        <time>2018-06-09T09:31:46.195Z</time>
      </trkpt>
      <trkpt lat="37.413745" lon="-4.38739333">
        <ele>724.0</ele>
        <time>2018-06-09T09:31:47.183Z</time>
      </trkpt>
      <trkpt lat="37.413745" lon="-4.38739333">
        <ele>724.0</ele>
        <time>2018-06-09T09:31:48.183Z</time>
      </trkpt>
      <trkpt lat="37.41373333" lon="-4.38736167">
        <ele>724.0</ele>
        <time>2018-06-09T09:31:49.194Z</time>
      </trkpt>
      <trkpt lat="37.41373333" lon="-4.38736167">
        <ele>724.0</ele>
        <time>2018-06-09T09:31:50.175Z</time>
      </trkpt>
      <trkpt lat="37.41373" lon="-4.38730333">
        <ele>724.0</ele>
        <time>2018-06-09T09:31:51.187Z</time>
      </trkpt>
      <trkpt lat="37.41373" lon="-4.38730333">
        <ele>724.0</ele>
        <time>2018-06-09T09:31:52.184Z</time>
      </trkpt>
      <trkpt lat="37.41372167" lon="-4.38721833">
        <ele>724.0</ele>
        <time>2018-06-09T09:31:53.192Z</time>
      </trkpt>
      <trkpt lat="37.41371833" lon="-4.38716167">
        <ele>724.0</ele>
        <time>2018-06-09T09:31:54.168Z</time>
      </trkpt>
      <trkpt lat="37.41371833" lon="-4.38716167">
        <ele>724.0</ele>
        <time>2018-06-09T09:31:55.183Z</time>
      </trkpt>
      <trkpt lat="37.413705" lon="-4.38705">
        <ele>724.0</ele>
        <time>2018-06-09T09:31:56.190Z</time>
      </trkpt>
      <trkpt lat="37.41370333" lon="-4.38701">
        <ele>723.0</ele>
        <time>2018-06-09T09:31:57.178Z</time>
      </trkpt>
      <trkpt lat="37.41370333" lon="-4.38701">
        <ele>723.0</ele>
        <time>2018-06-09T09:31:58.168Z</time>
      </trkpt>
      <trkpt lat="37.41370667" lon="-4.386945">
        <ele>722.0</ele>
        <time>2018-06-09T09:31:59.173Z</time>
      </trkpt>
      <trkpt lat="37.41370833" lon="-4.38691667">
        <ele>721.0</ele>
        <time>2018-06-09T09:32:00.196Z</time>
      </trkpt>
      <trkpt lat="37.41370833" lon="-4.38691667">
        <ele>721.0</ele>
        <time>2018-06-09T09:32:01.193Z</time>
      </trkpt>
      <trkpt lat="37.4137" lon="-4.38686333">
        <ele>719.0</ele>
        <time>2018-06-09T09:32:02.158Z</time>
      </trkpt>
      <trkpt lat="37.4137" lon="-4.38686333">
        <ele>719.0</ele>
        <time>2018-06-09T09:32:03.157Z</time>
      </trkpt>
      <trkpt lat="37.41367333" lon="-4.38680833">
        <ele>717.0</ele>
        <time>2018-06-09T09:32:04.165Z</time>
      </trkpt>
      <trkpt lat="37.41367333" lon="-4.38680833">
        <ele>717.0</ele>
        <time>2018-06-09T09:32:05.191Z</time>
      </trkpt>
      <trkpt lat="37.413635" lon="-4.38676833">
        <ele>717.0</ele>
        <time>2018-06-09T09:32:06.172Z</time>
      </trkpt>
      <trkpt lat="37.413635" lon="-4.38676833">
        <ele>717.0</ele>
        <time>2018-06-09T09:32:07.157Z</time>
      </trkpt>
      <trkpt lat="37.4136" lon="-4.38673667">
        <ele>716.0</ele>
        <time>2018-06-09T09:32:08.163Z</time>
      </trkpt>
      <trkpt lat="37.4136" lon="-4.38673667">
        <ele>716.0</ele>
        <time>2018-06-09T09:32:09.191Z</time>
      </trkpt>
      <trkpt lat="37.41356667" lon="-4.38670667">
        <ele>715.0</ele>
        <time>2018-06-09T09:32:10.172Z</time>
      </trkpt>
      <trkpt lat="37.41356667" lon="-4.38670667">
        <ele>715.0</ele>
        <time>2018-06-09T09:32:11.186Z</time>
      </trkpt>
      <trkpt lat="37.41353667" lon="-4.38667">
        <ele>713.0</ele>
        <time>2018-06-09T09:32:12.196Z</time>
      </trkpt>
      <trkpt lat="37.41352167" lon="-4.38665167">
        <ele>713.0</ele>
        <time>2018-06-09T09:32:13.167Z</time>
      </trkpt>
      <trkpt lat="37.41352167" lon="-4.38665167">
        <ele>713.0</ele>
        <time>2018-06-09T09:32:14.169Z</time>
      </trkpt>
      <trkpt lat="37.41350167" lon="-4.386615">
        <ele>712.0</ele>
        <time>2018-06-09T09:32:15.178Z</time>
      </trkpt>
      <trkpt lat="37.41350167" lon="-4.386615">
        <ele>712.0</ele>
        <time>2018-06-09T09:32:16.196Z</time>
      </trkpt>
      <trkpt lat="37.41349167" lon="-4.386565">
        <ele>710.0</ele>
        <time>2018-06-09T09:32:17.172Z</time>
      </trkpt>
      <trkpt lat="37.41348833" lon="-4.38653333">
        <ele>709.0</ele>
        <time>2018-06-09T09:32:18.167Z</time>
      </trkpt>
      <trkpt lat="37.41348833" lon="-4.38653333">
        <ele>709.0</ele>
        <time>2018-06-09T09:32:19.172Z</time>
      </trkpt>
      <trkpt lat="37.41347833" lon="-4.38646333">
        <ele>708.0</ele>
        <time>2018-06-09T09:32:20.193Z</time>
      </trkpt>
      <trkpt lat="37.41347" lon="-4.38642667">
        <ele>707.0</ele>
        <time>2018-06-09T09:32:21.163Z</time>
      </trkpt>
      <trkpt lat="37.41347" lon="-4.38642667">
        <ele>707.0</ele>
        <time>2018-06-09T09:32:22.180Z</time>
      </trkpt>
      <trkpt lat="37.41343167" lon="-4.386345">
        <ele>706.0</ele>
        <time>2018-06-09T09:32:23.188Z</time>
      </trkpt>
      <trkpt lat="37.4134" lon="-4.386305">
        <ele>705.0</ele>
        <time>2018-06-09T09:32:24.176Z</time>
      </trkpt>
      <trkpt lat="37.4134" lon="-4.386305">
        <ele>705.0</ele>
        <time>2018-06-09T09:32:25.195Z</time>
      </trkpt>
      <trkpt lat="37.41332" lon="-4.38621667">
        <ele>704.0</ele>
        <time>2018-06-09T09:32:26.160Z</time>
      </trkpt>
      <trkpt lat="37.413275" lon="-4.38617667">
        <ele>703.0</ele>
        <time>2018-06-09T09:32:27.168Z</time>
      </trkpt>
      <trkpt lat="37.413275" lon="-4.38617667">
        <ele>703.0</ele>
        <time>2018-06-09T09:32:28.167Z</time>
      </trkpt>
      <trkpt lat="37.41317833" lon="-4.38611833">
        <ele>703.0</ele>
        <time>2018-06-09T09:32:29.173Z</time>
      </trkpt>
      <trkpt lat="37.41313333" lon="-4.38608833">
        <ele>702.0</ele>
        <time>2018-06-09T09:32:30.172Z</time>
      </trkpt>
      <trkpt lat="37.41313333" lon="-4.38608833">
        <ele>702.0</ele>
        <time>2018-06-09T09:32:31.157Z</time>
      </trkpt>
      <trkpt lat="37.413065" lon="-4.386">
        <ele>701.0</ele>
        <time>2018-06-09T09:32:32.167Z</time>
      </trkpt>
      <trkpt lat="37.413035" lon="-4.38595833">
        <ele>700.0</ele>
        <time>2018-06-09T09:32:33.157Z</time>
      </trkpt>
      <trkpt lat="37.413035" lon="-4.38595833">
        <ele>700.0</ele>
        <time>2018-06-09T09:32:34.175Z</time>
      </trkpt>
      <trkpt lat="37.41295667" lon="-4.38589833">
        <ele>699.0</ele>
        <time>2018-06-09T09:32:35.189Z</time>
      </trkpt>
      <trkpt lat="37.41295667" lon="-4.38589833">
        <ele>699.0</ele>
        <time>2018-06-09T09:32:36.189Z</time>
      </trkpt>
      <trkpt lat="37.41287167" lon="-4.38585833">
        <ele>698.0</ele>
        <time>2018-06-09T09:32:37.195Z</time>
      </trkpt>
      <trkpt lat="37.41283833" lon="-4.38583667">
        <ele>697.0</ele>
        <time>2018-06-09T09:32:38.173Z</time>
      </trkpt>
      <trkpt lat="37.41283833" lon="-4.38583667">
        <ele>697.0</ele>
        <time>2018-06-09T09:32:39.166Z</time>
      </trkpt>
      <trkpt lat="37.41278833" lon="-4.38578333">
        <ele>695.0</ele>
        <time>2018-06-09T09:32:40.171Z</time>
      </trkpt>
      <trkpt lat="37.412775" lon="-4.38574667">
        <ele>695.0</ele>
        <time>2018-06-09T09:32:41.185Z</time>
      </trkpt>
      <trkpt lat="37.412775" lon="-4.38574667">
        <ele>695.0</ele>
        <time>2018-06-09T09:32:42.188Z</time>
      </trkpt>
      <trkpt lat="37.41276" lon="-4.385675">
        <ele>693.0</ele>
        <time>2018-06-09T09:32:43.195Z</time>
      </trkpt>
      <trkpt lat="37.41276" lon="-4.385675">
        <ele>693.0</ele>
        <time>2018-06-09T09:32:44.190Z</time>
      </trkpt>
      <trkpt lat="37.41275" lon="-4.38561167">
        <ele>692.0</ele>
        <time>2018-06-09T09:32:45.179Z</time>
      </trkpt>
      <trkpt lat="37.41275" lon="-4.38561167">
        <ele>692.0</ele>
        <time>2018-06-09T09:32:46.157Z</time>
      </trkpt>
      <trkpt lat="37.412725" lon="-4.38556333">
        <ele>690.0</ele>
        <time>2018-06-09T09:32:47.168Z</time>
      </trkpt>
      <trkpt lat="37.41270333" lon="-4.385545">
        <ele>690.0</ele>
        <time>2018-06-09T09:32:48.189Z</time>
      </trkpt>
      <trkpt lat="37.41270333" lon="-4.385545">
        <ele>690.0</ele>
        <time>2018-06-09T09:32:49.182Z</time>
      </trkpt>
      <trkpt lat="37.41265333" lon="-4.38552167">
        <ele>688.0</ele>
        <time>2018-06-09T09:32:50.189Z</time>
      </trkpt>
      <trkpt lat="37.41265333" lon="-4.38552167">
        <ele>688.0</ele>
        <time>2018-06-09T09:32:51.170Z</time>
      </trkpt>
      <trkpt lat="37.41259833" lon="-4.385505">
        <ele>687.0</ele>
        <time>2018-06-09T09:32:52.175Z</time>
      </trkpt>
      <trkpt lat="37.41256667" lon="-4.38550333">
        <ele>686.0</ele>
        <time>2018-06-09T09:32:53.184Z</time>
      </trkpt>
      <trkpt lat="37.41256667" lon="-4.38550333">
        <ele>686.0</ele>
        <time>2018-06-09T09:32:54.166Z</time>
      </trkpt>
      <trkpt lat="37.412495" lon="-4.385505">
        <ele>684.0</ele>
        <time>2018-06-09T09:32:55.184Z</time>
      </trkpt>
      <trkpt lat="37.412495" lon="-4.385505">
        <ele>684.0</ele>
        <time>2018-06-09T09:32:56.180Z</time>
      </trkpt>
      <trkpt lat="37.41242167" lon="-4.38549">
        <ele>682.0</ele>
        <time>2018-06-09T09:32:57.191Z</time>
      </trkpt>
      <trkpt lat="37.412385" lon="-4.38547667">
        <ele>681.0</ele>
        <time>2018-06-09T09:32:58.165Z</time>
      </trkpt>
      <trkpt lat="37.412385" lon="-4.38547667">
        <ele>681.0</ele>
        <time>2018-06-09T09:32:59.185Z</time>
      </trkpt>
      <trkpt lat="37.412295" lon="-4.38545667">
        <ele>679.0</ele>
        <time>2018-06-09T09:33:00.191Z</time>
      </trkpt>
      <trkpt lat="37.412295" lon="-4.38545667">
        <ele>679.0</ele>
        <time>2018-06-09T09:33:01.157Z</time>
      </trkpt>
      <trkpt lat="37.4122" lon="-4.38543667">
        <ele>677.0</ele>
        <time>2018-06-09T09:33:02.163Z</time>
      </trkpt>
      <trkpt lat="37.41215167" lon="-4.38542167">
        <ele>676.0</ele>
        <time>2018-06-09T09:33:03.182Z</time>
      </trkpt>
      <trkpt lat="37.41215167" lon="-4.38542167">
        <ele>676.0</ele>
        <time>2018-06-09T09:33:04.169Z</time>
      </trkpt>
      <trkpt lat="37.412045" lon="-4.38539">
        <ele>673.0</ele>
        <time>2018-06-09T09:33:05.175Z</time>
      </trkpt>
      <trkpt lat="37.412045" lon="-4.38539">
        <ele>673.0</ele>
        <time>2018-06-09T09:33:06.195Z</time>
      </trkpt>
      <trkpt lat="37.41192833" lon="-4.38535333">
        <ele>670.0</ele>
        <time>2018-06-09T09:33:07.168Z</time>
      </trkpt>
      <trkpt lat="37.41192833" lon="-4.38535333">
        <ele>670.0</ele>
        <time>2018-06-09T09:33:08.188Z</time>
      </trkpt>
      <trkpt lat="37.41183167" lon="-4.38532">
        <ele>668.0</ele>
        <time>2018-06-09T09:33:09.194Z</time>
      </trkpt>
      <trkpt lat="37.41183167" lon="-4.38532">
        <ele>668.0</ele>
        <time>2018-06-09T09:33:10.160Z</time>
      </trkpt>
      <trkpt lat="37.41177333" lon="-4.38525833">
        <ele>666.0</ele>
        <time>2018-06-09T09:33:11.179Z</time>
      </trkpt>
      <trkpt lat="37.41176" lon="-4.38521667">
        <ele>665.0</ele>
        <time>2018-06-09T09:33:12.157Z</time>
      </trkpt>
      <trkpt lat="37.41176" lon="-4.38521667">
        <ele>665.0</ele>
        <time>2018-06-09T09:33:13.174Z</time>
      </trkpt>
      <trkpt lat="37.41174167" lon="-4.38513">
        <ele>663.0</ele>
        <time>2018-06-09T09:33:14.217Z</time>
      </trkpt>
      <trkpt lat="37.41174167" lon="-4.38513">
        <ele>663.0</ele>
        <time>2018-06-09T09:33:15.177Z</time>
      </trkpt>
      <trkpt lat="37.41172167" lon="-4.385035">
        <ele>661.0</ele>
        <time>2018-06-09T09:33:16.184Z</time>
      </trkpt>
      <trkpt lat="37.41171167" lon="-4.38499">
        <ele>660.0</ele>
        <time>2018-06-09T09:33:17.169Z</time>
      </trkpt>
      <trkpt lat="37.41170167" lon="-4.38494167">
        <ele>659.0</ele>
        <time>2018-06-09T09:33:18.192Z</time>
      </trkpt>
      <trkpt lat="37.41170167" lon="-4.38494167">
        <ele>659.0</ele>
        <time>2018-06-09T09:33:19.169Z</time>
      </trkpt>
      <trkpt lat="37.41168167" lon="-4.38484167">
        <ele>657.0</ele>
        <time>2018-06-09T09:33:20.178Z</time>
      </trkpt>
      <trkpt lat="37.41168167" lon="-4.38484167">
        <ele>657.0</ele>
        <time>2018-06-09T09:33:21.195Z</time>
      </trkpt>
      <trkpt lat="37.41166" lon="-4.384735">
        <ele>656.0</ele>
        <time>2018-06-09T09:33:22.168Z</time>
      </trkpt>
      <trkpt lat="37.41164667" lon="-4.38467833">
        <ele>654.0</ele>
        <time>2018-06-09T09:33:23.157Z</time>
      </trkpt>
      <trkpt lat="37.41164667" lon="-4.38467833">
        <ele>654.0</ele>
        <time>2018-06-09T09:33:24.174Z</time>
      </trkpt>
      <trkpt lat="37.41161833" lon="-4.38455667">
        <ele>652.0</ele>
        <time>2018-06-09T09:33:25.186Z</time>
      </trkpt>
      <trkpt lat="37.41161833" lon="-4.38455667">
        <ele>652.0</ele>
        <time>2018-06-09T09:33:26.177Z</time>
      </trkpt>
      <trkpt lat="37.41158833" lon="-4.384425">
        <ele>648.0</ele>
        <time>2018-06-09T09:33:27.184Z</time>
      </trkpt>
      <trkpt lat="37.41157333" lon="-4.38435833">
        <ele>647.0</ele>
        <time>2018-06-09T09:33:28.168Z</time>
      </trkpt>
      <trkpt lat="37.41155667" lon="-4.38429">
        <ele>645.0</ele>
        <time>2018-06-09T09:33:29.195Z</time>
      </trkpt>
      <trkpt lat="37.41155667" lon="-4.38429">
        <ele>645.0</ele>
        <time>2018-06-09T09:33:30.175Z</time>
      </trkpt>
      <trkpt lat="37.411525" lon="-4.38415333">
        <ele>642.0</ele>
        <time>2018-06-09T09:33:31.158Z</time>
      </trkpt>
      <trkpt lat="37.41150833" lon="-4.38409">
        <ele>641.0</ele>
        <time>2018-06-09T09:33:32.167Z</time>
      </trkpt>
      <trkpt lat="37.41150833" lon="-4.38409">
        <ele>641.0</ele>
        <time>2018-06-09T09:33:33.185Z</time>
      </trkpt>
      <trkpt lat="37.41147833" lon="-4.38397667">
        <ele>638.0</ele>
        <time>2018-06-09T09:33:34.195Z</time>
      </trkpt>
      <trkpt lat="37.41146667" lon="-4.38392167">
        <ele>637.0</ele>
        <time>2018-06-09T09:33:35.196Z</time>
      </trkpt>
      <trkpt lat="37.41145833" lon="-4.38386">
        <ele>635.0</ele>
        <time>2018-06-09T09:33:36.174Z</time>
      </trkpt>
      <trkpt lat="37.41145833" lon="-4.38386">
        <ele>635.0</ele>
        <time>2018-06-09T09:33:37.191Z</time>
      </trkpt>
      <trkpt lat="37.41144667" lon="-4.38374667">
        <ele>634.0</ele>
        <time>2018-06-09T09:33:38.197Z</time>
      </trkpt>
      <trkpt lat="37.41144667" lon="-4.38374667">
        <ele>634.0</ele>
        <time>2018-06-09T09:33:39.175Z</time>
      </trkpt>
      <trkpt lat="37.411435" lon="-4.38366667">
        <ele>632.0</ele>
        <time>2018-06-09T09:33:40.176Z</time>
      </trkpt>
      <trkpt lat="37.41143" lon="-4.38362833">
        <ele>631.0</ele>
        <time>2018-06-09T09:33:41.169Z</time>
      </trkpt>
      <trkpt lat="37.41143" lon="-4.38362833">
        <ele>631.0</ele>
        <time>2018-06-09T09:33:42.187Z</time>
      </trkpt>
      <trkpt lat="37.41142333" lon="-4.38352833">
        <ele>629.0</ele>
        <time>2018-06-09T09:33:43.168Z</time>
      </trkpt>
      <trkpt lat="37.41142333" lon="-4.38352833">
        <ele>629.0</ele>
        <time>2018-06-09T09:33:44.164Z</time>
      </trkpt>
      <trkpt lat="37.4114" lon="-4.38341833">
        <ele>627.0</ele>
        <time>2018-06-09T09:33:45.175Z</time>
      </trkpt>
      <trkpt lat="37.4114" lon="-4.38341833">
        <ele>627.0</ele>
        <time>2018-06-09T09:33:46.176Z</time>
      </trkpt>
      <trkpt lat="37.41136667" lon="-4.38329667">
        <ele>625.0</ele>
        <time>2018-06-09T09:33:47.178Z</time>
      </trkpt>
      <trkpt lat="37.41136667" lon="-4.38329667">
        <ele>625.0</ele>
        <time>2018-06-09T09:33:48.195Z</time>
      </trkpt>
      <trkpt lat="37.41133167" lon="-4.38316833">
        <ele>622.0</ele>
        <time>2018-06-09T09:33:49.160Z</time>
      </trkpt>
      <trkpt lat="37.41133167" lon="-4.38316833">
        <ele>622.0</ele>
        <time>2018-06-09T09:33:50.178Z</time>
      </trkpt>
      <trkpt lat="37.41130167" lon="-4.38304833">
        <ele>620.0</ele>
        <time>2018-06-09T09:33:51.187Z</time>
      </trkpt>
      <trkpt lat="37.41130167" lon="-4.38304833">
        <ele>620.0</ele>
        <time>2018-06-09T09:33:52.175Z</time>
      </trkpt>
      <trkpt lat="37.41126167" lon="-4.38289667">
        <ele>618.0</ele>
        <time>2018-06-09T09:33:53.185Z</time>
      </trkpt>
      <trkpt lat="37.41123833" lon="-4.38280667">
        <ele>617.0</ele>
        <time>2018-06-09T09:33:54.164Z</time>
      </trkpt>
      <trkpt lat="37.41121333" lon="-4.38271667">
        <ele>615.0</ele>
        <time>2018-06-09T09:33:55.179Z</time>
      </trkpt>
      <trkpt lat="37.41121333" lon="-4.38271667">
        <ele>615.0</ele>
        <time>2018-06-09T09:33:56.157Z</time>
      </trkpt>
      <trkpt lat="37.41117167" lon="-4.38254">
        <ele>614.0</ele>
        <time>2018-06-09T09:33:57.165Z</time>
      </trkpt>
      <trkpt lat="37.41115833" lon="-4.38246333">
        <ele>613.0</ele>
        <time>2018-06-09T09:33:58.174Z</time>
      </trkpt>
      <trkpt lat="37.41115833" lon="-4.38246333">
        <ele>613.0</ele>
        <time>2018-06-09T09:33:59.193Z</time>
      </trkpt>
      <trkpt lat="37.411135" lon="-4.38231833">
        <ele>612.0</ele>
        <time>2018-06-09T09:34:00.161Z</time>
      </trkpt>
      <trkpt lat="37.411135" lon="-4.38231833">
        <ele>612.0</ele>
        <time>2018-06-09T09:34:01.179Z</time>
      </trkpt>
      <trkpt lat="37.411105" lon="-4.3822">
        <ele>612.0</ele>
        <time>2018-06-09T09:34:02.177Z</time>
      </trkpt>
      <trkpt lat="37.411105" lon="-4.3822">
        <ele>612.0</ele>
        <time>2018-06-09T09:34:03.168Z</time>
      </trkpt>
      <trkpt lat="37.41107" lon="-4.38211667">
        <ele>611.0</ele>
        <time>2018-06-09T09:34:04.175Z</time>
      </trkpt>
      <trkpt lat="37.41107" lon="-4.38211667">
        <ele>611.0</ele>
        <time>2018-06-09T09:34:05.167Z</time>
      </trkpt>
      <trkpt lat="37.41104333" lon="-4.38204667">
        <ele>610.0</ele>
        <time>2018-06-09T09:34:06.178Z</time>
      </trkpt>
      <trkpt lat="37.41104333" lon="-4.38204667">
        <ele>610.0</ele>
        <time>2018-06-09T09:34:07.196Z</time>
      </trkpt>
      <trkpt lat="37.41102667" lon="-4.38197167">
        <ele>610.0</ele>
        <time>2018-06-09T09:34:08.162Z</time>
      </trkpt>
      <trkpt lat="37.41102667" lon="-4.38197167">
        <ele>610.0</ele>
        <time>2018-06-09T09:34:09.180Z</time>
      </trkpt>
      <trkpt lat="37.41100333" lon="-4.381915">
        <ele>610.0</ele>
        <time>2018-06-09T09:34:10.186Z</time>
      </trkpt>
      <trkpt lat="37.41100333" lon="-4.381915">
        <ele>610.0</ele>
        <time>2018-06-09T09:34:11.189Z</time>
      </trkpt>
      <trkpt lat="37.41096167" lon="-4.38192">
        <ele>609.0</ele>
        <time>2018-06-09T09:34:12.196Z</time>
      </trkpt>
      <trkpt lat="37.41096167" lon="-4.38192">
        <ele>609.0</ele>
        <time>2018-06-09T09:34:13.177Z</time>
      </trkpt>
      <trkpt lat="37.41092333" lon="-4.38196167">
        <ele>609.0</ele>
        <time>2018-06-09T09:34:14.157Z</time>
      </trkpt>
      <trkpt lat="37.41092333" lon="-4.38196167">
        <ele>609.0</ele>
        <time>2018-06-09T09:34:15.183Z</time>
      </trkpt>
      <trkpt lat="37.41089" lon="-4.38201333">
        <ele>610.0</ele>
        <time>2018-06-09T09:34:16.191Z</time>
      </trkpt>
      <trkpt lat="37.41087333" lon="-4.38203833">
        <ele>609.0</ele>
        <time>2018-06-09T09:34:17.172Z</time>
      </trkpt>
      <trkpt lat="37.41087333" lon="-4.38203833">
        <ele>609.0</ele>
        <time>2018-06-09T09:34:18.189Z</time>
      </trkpt>
      <trkpt lat="37.41084" lon="-4.382085">
        <ele>609.0</ele>
        <time>2018-06-09T09:34:19.196Z</time>
      </trkpt>
      <trkpt lat="37.41084" lon="-4.382085">
        <ele>609.0</ele>
        <time>2018-06-09T09:34:20.184Z</time>
      </trkpt>
      <trkpt lat="37.41080167" lon="-4.38213">
        <ele>609.0</ele>
        <time>2018-06-09T09:34:21.190Z</time>
      </trkpt>
      <trkpt lat="37.41078167" lon="-4.38215167">
        <ele>609.0</ele>
        <time>2018-06-09T09:34:22.169Z</time>
      </trkpt>
      <trkpt lat="37.41078167" lon="-4.38215167">
        <ele>609.0</ele>
        <time>2018-06-09T09:34:23.187Z</time>
      </trkpt>
      <trkpt lat="37.41074333" lon="-4.38218833">
        <ele>609.0</ele>
        <time>2018-06-09T09:34:24.189Z</time>
      </trkpt>
      <trkpt lat="37.410725" lon="-4.38220667">
        <ele>609.0</ele>
        <time>2018-06-09T09:34:25.189Z</time>
      </trkpt>
      <trkpt lat="37.410725" lon="-4.38220667">
        <ele>609.0</ele>
        <time>2018-06-09T09:34:26.166Z</time>
      </trkpt>
      <trkpt lat="37.41069667" lon="-4.38224667">
        <ele>609.0</ele>
        <time>2018-06-09T09:34:27.175Z</time>
      </trkpt>
      <trkpt lat="37.410685" lon="-4.38226667">
        <ele>609.0</ele>
        <time>2018-06-09T09:34:28.188Z</time>
      </trkpt>
      <trkpt lat="37.410685" lon="-4.38226667">
        <ele>609.0</ele>
        <time>2018-06-09T09:34:29.186Z</time>
      </trkpt>
      <trkpt lat="37.41066167" lon="-4.38230667">
        <ele>610.0</ele>
        <time>2018-06-09T09:34:30.160Z</time>
      </trkpt>
      <trkpt lat="37.41066167" lon="-4.38230667">
        <ele>610.0</ele>
        <time>2018-06-09T09:34:31.186Z</time>
      </trkpt>
      <trkpt lat="37.41063667" lon="-4.38233833">
        <ele>610.0</ele>
        <time>2018-06-09T09:34:32.196Z</time>
      </trkpt>
      <trkpt lat="37.41063667" lon="-4.38233833">
        <ele>610.0</ele>
        <time>2018-06-09T09:34:33.168Z</time>
      </trkpt>
      <trkpt lat="37.41061" lon="-4.38236333">
        <ele>610.0</ele>
        <time>2018-06-09T09:34:34.184Z</time>
      </trkpt>
      <trkpt lat="37.41061" lon="-4.38236333">
        <ele>610.0</ele>
        <time>2018-06-09T09:34:35.168Z</time>
      </trkpt>
      <trkpt lat="37.41059" lon="-4.38239333">
        <ele>609.0</ele>
        <time>2018-06-09T09:34:36.178Z</time>
      </trkpt>
      <trkpt lat="37.41059" lon="-4.38239333">
        <ele>609.0</ele>
        <time>2018-06-09T09:34:37.195Z</time>
      </trkpt>
      <trkpt lat="37.41057167" lon="-4.38242">
        <ele>609.0</ele>
        <time>2018-06-09T09:34:38.162Z</time>
      </trkpt>
      <trkpt lat="37.41056333" lon="-4.38243333">
        <ele>609.0</ele>
        <time>2018-06-09T09:34:39.181Z</time>
      </trkpt>
      <trkpt lat="37.410555" lon="-4.38244667">
        <ele>609.0</ele>
        <time>2018-06-09T09:34:40.177Z</time>
      </trkpt>
      <trkpt lat="37.410555" lon="-4.38244667">
        <ele>609.0</ele>
        <time>2018-06-09T09:34:41.171Z</time>
      </trkpt>
      <trkpt lat="37.410535" lon="-4.382465">
        <ele>609.0</ele>
        <time>2018-06-09T09:34:42.164Z</time>
      </trkpt>
      <trkpt lat="37.410535" lon="-4.382465">
        <ele>609.0</ele>
        <time>2018-06-09T09:34:43.189Z</time>
      </trkpt>
      <trkpt lat="37.41051833" lon="-4.38249">
        <ele>609.0</ele>
        <time>2018-06-09T09:34:44.163Z</time>
      </trkpt>
      <trkpt lat="37.41051833" lon="-4.38249">
        <ele>609.0</ele>
        <time>2018-06-09T09:34:45.183Z</time>
      </trkpt>
      <trkpt lat="37.410515" lon="-4.38249167">
        <ele>609.0</ele>
        <time>2018-06-09T09:34:46.170Z</time>
      </trkpt>
      <trkpt lat="37.410515" lon="-4.38249167">
        <ele>609.0</ele>
        <time>2018-06-09T09:34:47.170Z</time>
      </trkpt>
      <trkpt lat="37.410515" lon="-4.38249167">
        <ele>609.0</ele>
        <time>2018-06-09T09:34:48.183Z</time>
      </trkpt>
      <trkpt lat="37.410515" lon="-4.38249167">
        <ele>609.0</ele>
        <time>2018-06-09T09:34:49.158Z</time>
      </trkpt>
      <trkpt lat="37.410515" lon="-4.38249167">
        <ele>609.0</ele>
        <time>2018-06-09T09:34:50.186Z</time>
      </trkpt>
      <trkpt lat="37.410515" lon="-4.38249167">
        <ele>609.0</ele>
        <time>2018-06-09T09:34:51.182Z</time>
      </trkpt>
      <trkpt lat="37.410515" lon="-4.38249167">
        <ele>609.0</ele>
        <time>2018-06-09T09:34:52.160Z</time>
      </trkpt>
      <trkpt lat="37.410515" lon="-4.38249167">
        <ele>609.0</ele>
        <time>2018-06-09T09:34:53.191Z</time>
      </trkpt>
      <trkpt lat="37.410515" lon="-4.38249167">
        <ele>609.0</ele>
        <time>2018-06-09T09:34:54.185Z</time>
      </trkpt>
      <trkpt lat="37.4105" lon="-4.38251333">
        <ele>609.0</ele>
        <time>2018-06-09T09:34:55.188Z</time>
      </trkpt>
      <trkpt lat="37.4105" lon="-4.38251333">
        <ele>609.0</ele>
        <time>2018-06-09T09:34:56.184Z</time>
      </trkpt>
      <trkpt lat="37.410485" lon="-4.38254">
        <ele>609.0</ele>
        <time>2018-06-09T09:34:57.192Z</time>
      </trkpt>
      <trkpt lat="37.410485" lon="-4.38254">
        <ele>609.0</ele>
        <time>2018-06-09T09:34:58.180Z</time>
      </trkpt>
      <trkpt lat="37.41046333" lon="-4.382565">
        <ele>609.0</ele>
        <time>2018-06-09T09:34:59.167Z</time>
      </trkpt>
      <trkpt lat="37.41046333" lon="-4.382565">
        <ele>609.0</ele>
        <time>2018-06-09T09:35:00.169Z</time>
      </trkpt>
      <trkpt lat="37.41043667" lon="-4.38259833">
        <ele>609.0</ele>
        <time>2018-06-09T09:35:01.181Z</time>
      </trkpt>
      <trkpt lat="37.41043667" lon="-4.38259833">
        <ele>609.0</ele>
        <time>2018-06-09T09:35:02.188Z</time>
      </trkpt>
      <trkpt lat="37.41041" lon="-4.38263833">
        <ele>609.0</ele>
        <time>2018-06-09T09:35:03.167Z</time>
      </trkpt>
      <trkpt lat="37.410395" lon="-4.38265667">
        <ele>609.0</ele>
        <time>2018-06-09T09:35:04.171Z</time>
      </trkpt>
      <trkpt lat="37.410395" lon="-4.38265667">
        <ele>609.0</ele>
        <time>2018-06-09T09:35:05.185Z</time>
      </trkpt>
      <trkpt lat="37.41036333" lon="-4.38269333">
        <ele>609.0</ele>
        <time>2018-06-09T09:35:06.171Z</time>
      </trkpt>
      <trkpt lat="37.41036333" lon="-4.38269333">
        <ele>609.0</ele>
        <time>2018-06-09T09:35:07.178Z</time>
      </trkpt>
      <trkpt lat="37.41033833" lon="-4.38272833">
        <ele>609.0</ele>
        <time>2018-06-09T09:35:08.164Z</time>
      </trkpt>
      <trkpt lat="37.41033833" lon="-4.38272833">
        <ele>609.0</ele>
        <time>2018-06-09T09:35:09.186Z</time>
      </trkpt>
      <trkpt lat="37.410315" lon="-4.38276667">
        <ele>609.0</ele>
        <time>2018-06-09T09:35:10.193Z</time>
      </trkpt>
      <trkpt lat="37.41030167" lon="-4.382785">
        <ele>609.0</ele>
        <time>2018-06-09T09:35:11.190Z</time>
      </trkpt>
      <trkpt lat="37.41030167" lon="-4.382785">
        <ele>609.0</ele>
        <time>2018-06-09T09:35:12.177Z</time>
      </trkpt>
      <trkpt lat="37.41027167" lon="-4.38282333">
        <ele>609.0</ele>
        <time>2018-06-09T09:35:13.163Z</time>
      </trkpt>
      <trkpt lat="37.41027167" lon="-4.38282333">
        <ele>609.0</ele>
        <time>2018-06-09T09:35:14.190Z</time>
      </trkpt>
      <trkpt lat="37.41024333" lon="-4.38286833">
        <ele>610.0</ele>
        <time>2018-06-09T09:35:15.187Z</time>
      </trkpt>
      <trkpt lat="37.41024333" lon="-4.38286833">
        <ele>610.0</ele>
        <time>2018-06-09T09:35:16.174Z</time>
      </trkpt>
      <trkpt lat="37.410215" lon="-4.382915">
        <ele>609.0</ele>
        <time>2018-06-09T09:35:17.167Z</time>
      </trkpt>
      <trkpt lat="37.410215" lon="-4.382915">
        <ele>609.0</ele>
        <time>2018-06-09T09:35:18.184Z</time>
      </trkpt>
      <trkpt lat="37.41019" lon="-4.382965">
        <ele>610.0</ele>
        <time>2018-06-09T09:35:19.162Z</time>
      </trkpt>
      <trkpt lat="37.41017333" lon="-4.38299">
        <ele>609.0</ele>
        <time>2018-06-09T09:35:20.160Z</time>
      </trkpt>
      <trkpt lat="37.41017333" lon="-4.38299">
        <ele>609.0</ele>
        <time>2018-06-09T09:35:21.174Z</time>
      </trkpt>
      <trkpt lat="37.410135" lon="-4.38304167">
        <ele>609.0</ele>
        <time>2018-06-09T09:35:22.166Z</time>
      </trkpt>
      <trkpt lat="37.410115" lon="-4.38307">
        <ele>609.0</ele>
        <time>2018-06-09T09:35:23.163Z</time>
      </trkpt>
      <trkpt lat="37.410115" lon="-4.38307">
        <ele>609.0</ele>
        <time>2018-06-09T09:35:24.184Z</time>
      </trkpt>
      <trkpt lat="37.41009" lon="-4.38313667">
        <ele>609.0</ele>
        <time>2018-06-09T09:35:25.177Z</time>
      </trkpt>
      <trkpt lat="37.41009" lon="-4.38313667">
        <ele>609.0</ele>
        <time>2018-06-09T09:35:26.185Z</time>
      </trkpt>
      <trkpt lat="37.41008667" lon="-4.383205">
        <ele>609.0</ele>
        <time>2018-06-09T09:35:27.172Z</time>
      </trkpt>
      <trkpt lat="37.41008667" lon="-4.383205">
        <ele>609.0</ele>
        <time>2018-06-09T09:35:28.195Z</time>
      </trkpt>
      <trkpt lat="37.41007833" lon="-4.38327167">
        <ele>610.0</ele>
        <time>2018-06-09T09:35:29.175Z</time>
      </trkpt>
      <trkpt lat="37.41007833" lon="-4.38327167">
        <ele>610.0</ele>
        <time>2018-06-09T09:35:30.158Z</time>
      </trkpt>
      <trkpt lat="37.41005167" lon="-4.38333">
        <ele>609.0</ele>
        <time>2018-06-09T09:35:31.193Z</time>
      </trkpt>
      <trkpt lat="37.41003333" lon="-4.38336">
        <ele>609.0</ele>
        <time>2018-06-09T09:35:32.185Z</time>
      </trkpt>
      <trkpt lat="37.41001167" lon="-4.38338667">
        <ele>609.0</ele>
        <time>2018-06-09T09:35:33.171Z</time>
      </trkpt>
      <trkpt lat="37.41001167" lon="-4.38338667">
        <ele>609.0</ele>
        <time>2018-06-09T09:35:34.194Z</time>
      </trkpt>
      <trkpt lat="37.40996333" lon="-4.38344667">
        <ele>609.0</ele>
        <time>2018-06-09T09:35:35.194Z</time>
      </trkpt>
      <trkpt lat="37.40996333" lon="-4.38344667">
        <ele>609.0</ele>
        <time>2018-06-09T09:35:36.162Z</time>
      </trkpt>
      <trkpt lat="37.40991333" lon="-4.38351">
        <ele>609.0</ele>
        <time>2018-06-09T09:35:37.163Z</time>
      </trkpt>
      <trkpt lat="37.40991333" lon="-4.38351">
        <ele>609.0</ele>
        <time>2018-06-09T09:35:38.193Z</time>
      </trkpt>
      <trkpt lat="37.40986667" lon="-4.38357333">
        <ele>609.0</ele>
        <time>2018-06-09T09:35:39.174Z</time>
      </trkpt>
      <trkpt lat="37.409845" lon="-4.38360333">
        <ele>609.0</ele>
        <time>2018-06-09T09:35:40.163Z</time>
      </trkpt>
      <trkpt lat="37.40982333" lon="-4.383635">
        <ele>609.0</ele>
        <time>2018-06-09T09:35:41.186Z</time>
      </trkpt>
      <trkpt lat="37.40982333" lon="-4.383635">
        <ele>609.0</ele>
        <time>2018-06-09T09:35:42.193Z</time>
      </trkpt>
      <trkpt lat="37.40977833" lon="-4.38369333">
        <ele>609.0</ele>
        <time>2018-06-09T09:35:43.176Z</time>
      </trkpt>
      <trkpt lat="37.40977833" lon="-4.38369333">
        <ele>609.0</ele>
        <time>2018-06-09T09:35:44.184Z</time>
      </trkpt>
      <trkpt lat="37.40974" lon="-4.383745">
        <ele>609.0</ele>
        <time>2018-06-09T09:35:45.160Z</time>
      </trkpt>
      <trkpt lat="37.409725" lon="-4.38376833">
        <ele>610.0</ele>
        <time>2018-06-09T09:35:46.161Z</time>
      </trkpt>
      <trkpt lat="37.409725" lon="-4.38376833">
        <ele>610.0</ele>
        <time>2018-06-09T09:35:47.176Z</time>
      </trkpt>
      <trkpt lat="37.40969167" lon="-4.383815">
        <ele>610.0</ele>
        <time>2018-06-09T09:35:48.167Z</time>
      </trkpt>
      <trkpt lat="37.40969167" lon="-4.383815">
        <ele>610.0</ele>
        <time>2018-06-09T09:35:49.160Z</time>
      </trkpt>
      <trkpt lat="37.40966" lon="-4.38385833">
        <ele>610.0</ele>
        <time>2018-06-09T09:35:50.189Z</time>
      </trkpt>
      <trkpt lat="37.40966" lon="-4.38385833">
        <ele>610.0</ele>
        <time>2018-06-09T09:35:51.161Z</time>
      </trkpt>
      <trkpt lat="37.40962833" lon="-4.38390333">
        <ele>610.0</ele>
        <time>2018-06-09T09:35:52.189Z</time>
      </trkpt>
      <trkpt lat="37.40961" lon="-4.38392667">
        <ele>611.0</ele>
        <time>2018-06-09T09:35:53.188Z</time>
      </trkpt>
      <trkpt lat="37.40961" lon="-4.38392667">
        <ele>611.0</ele>
        <time>2018-06-09T09:35:54.168Z</time>
      </trkpt>
      <trkpt lat="37.409575" lon="-4.38397333">
        <ele>611.0</ele>
        <time>2018-06-09T09:35:55.159Z</time>
      </trkpt>
      <trkpt lat="37.40955667" lon="-4.38399667">
        <ele>611.0</ele>
        <time>2018-06-09T09:35:56.179Z</time>
      </trkpt>
      <trkpt lat="37.40955667" lon="-4.38399667">
        <ele>611.0</ele>
        <time>2018-06-09T09:35:57.196Z</time>
      </trkpt>
      <trkpt lat="37.40952167" lon="-4.384045">
        <ele>611.0</ele>
        <time>2018-06-09T09:35:58.176Z</time>
      </trkpt>
      <trkpt lat="37.40950333" lon="-4.38407">
        <ele>611.0</ele>
        <time>2018-06-09T09:35:59.183Z</time>
      </trkpt>
      <trkpt lat="37.40950333" lon="-4.38407">
        <ele>611.0</ele>
        <time>2018-06-09T09:36:00.192Z</time>
      </trkpt>
      <trkpt lat="37.40947167" lon="-4.38411333">
        <ele>611.0</ele>
        <time>2018-06-09T09:36:01.167Z</time>
      </trkpt>
      <trkpt lat="37.409455" lon="-4.38413333">
        <ele>611.0</ele>
        <time>2018-06-09T09:36:02.191Z</time>
      </trkpt>
      <trkpt lat="37.409455" lon="-4.38413333">
        <ele>611.0</ele>
        <time>2018-06-09T09:36:03.170Z</time>
      </trkpt>
      <trkpt lat="37.409425" lon="-4.38417333">
        <ele>612.0</ele>
        <time>2018-06-09T09:36:04.190Z</time>
      </trkpt>
      <trkpt lat="37.40940833" lon="-4.38419333">
        <ele>612.0</ele>
        <time>2018-06-09T09:36:05.186Z</time>
      </trkpt>
      <trkpt lat="37.40940833" lon="-4.38419333">
        <ele>612.0</ele>
        <time>2018-06-09T09:36:06.166Z</time>
      </trkpt>
      <trkpt lat="37.40937833" lon="-4.38423167">
        <ele>612.0</ele>
        <time>2018-06-09T09:36:07.157Z</time>
      </trkpt>
      <trkpt lat="37.40936333" lon="-4.38425">
        <ele>612.0</ele>
        <time>2018-06-09T09:36:08.177Z</time>
      </trkpt>
      <trkpt lat="37.40936333" lon="-4.38425">
        <ele>612.0</ele>
        <time>2018-06-09T09:36:09.167Z</time>
      </trkpt>
      <trkpt lat="37.40933333" lon="-4.38428833">
        <ele>613.0</ele>
        <time>2018-06-09T09:36:10.191Z</time>
      </trkpt>
      <trkpt lat="37.40932" lon="-4.38430833">
        <ele>613.0</ele>
        <time>2018-06-09T09:36:11.177Z</time>
      </trkpt>
      <trkpt lat="37.40932" lon="-4.38430833">
        <ele>613.0</ele>
        <time>2018-06-09T09:36:12.183Z</time>
      </trkpt>
      <trkpt lat="37.409295" lon="-4.38434833">
        <ele>613.0</ele>
        <time>2018-06-09T09:36:13.178Z</time>
      </trkpt>
      <trkpt lat="37.40928333" lon="-4.38437">
        <ele>613.0</ele>
        <time>2018-06-09T09:36:14.171Z</time>
      </trkpt>
      <trkpt lat="37.40928333" lon="-4.38437">
        <ele>613.0</ele>
        <time>2018-06-09T09:36:15.183Z</time>
      </trkpt>
      <trkpt lat="37.40925833" lon="-4.384405">
        <ele>614.0</ele>
        <time>2018-06-09T09:36:16.160Z</time>
      </trkpt>
      <trkpt lat="37.40925833" lon="-4.384405">
        <ele>614.0</ele>
        <time>2018-06-09T09:36:17.190Z</time>
      </trkpt>
      <trkpt lat="37.409225" lon="-4.384435">
        <ele>614.0</ele>
        <time>2018-06-09T09:36:18.174Z</time>
      </trkpt>
      <trkpt lat="37.409225" lon="-4.384435">
        <ele>614.0</ele>
        <time>2018-06-09T09:36:19.190Z</time>
      </trkpt>
      <trkpt lat="37.40919333" lon="-4.38447">
        <ele>614.0</ele>
        <time>2018-06-09T09:36:20.185Z</time>
      </trkpt>
      <trkpt lat="37.40917833" lon="-4.38448833">
        <ele>615.0</ele>
        <time>2018-06-09T09:36:21.189Z</time>
      </trkpt>
      <trkpt lat="37.40917833" lon="-4.38448833">
        <ele>615.0</ele>
        <time>2018-06-09T09:36:22.177Z</time>
      </trkpt>
      <trkpt lat="37.40915167" lon="-4.38452333">
        <ele>615.0</ele>
        <time>2018-06-09T09:36:23.193Z</time>
      </trkpt>
      <trkpt lat="37.40915167" lon="-4.38452333">
        <ele>615.0</ele>
        <time>2018-06-09T09:36:24.176Z</time>
      </trkpt>
      <trkpt lat="37.409125" lon="-4.38456167">
        <ele>615.0</ele>
        <time>2018-06-09T09:36:25.196Z</time>
      </trkpt>
      <trkpt lat="37.40911167" lon="-4.38458167">
        <ele>615.0</ele>
        <time>2018-06-09T09:36:26.191Z</time>
      </trkpt>
      <trkpt lat="37.40909833" lon="-4.38460167">
        <ele>616.0</ele>
        <time>2018-06-09T09:36:27.179Z</time>
      </trkpt>
      <trkpt lat="37.40909833" lon="-4.38460167">
        <ele>616.0</ele>
        <time>2018-06-09T09:36:28.185Z</time>
      </trkpt>
      <trkpt lat="37.40907167" lon="-4.38464">
        <ele>616.0</ele>
        <time>2018-06-09T09:36:29.181Z</time>
      </trkpt>
      <trkpt lat="37.40907167" lon="-4.38464">
        <ele>616.0</ele>
        <time>2018-06-09T09:36:30.169Z</time>
      </trkpt>
      <trkpt lat="37.409045" lon="-4.38468167">
        <ele>616.0</ele>
        <time>2018-06-09T09:36:31.157Z</time>
      </trkpt>
      <trkpt lat="37.40903167" lon="-4.38470167">
        <ele>616.0</ele>
        <time>2018-06-09T09:36:32.174Z</time>
      </trkpt>
      <trkpt lat="37.40903167" lon="-4.38470167">
        <ele>616.0</ele>
        <time>2018-06-09T09:36:33.187Z</time>
      </trkpt>
      <trkpt lat="37.40900333" lon="-4.38474">
        <ele>617.0</ele>
        <time>2018-06-09T09:36:34.182Z</time>
      </trkpt>
      <trkpt lat="37.40899" lon="-4.38475833">
        <ele>617.0</ele>
        <time>2018-06-09T09:36:35.172Z</time>
      </trkpt>
      <trkpt lat="37.40899" lon="-4.38475833">
        <ele>617.0</ele>
        <time>2018-06-09T09:36:36.178Z</time>
      </trkpt>
      <trkpt lat="37.40896167" lon="-4.38479667">
        <ele>617.0</ele>
        <time>2018-06-09T09:36:37.162Z</time>
      </trkpt>
      <trkpt lat="37.40896167" lon="-4.38479667">
        <ele>617.0</ele>
        <time>2018-06-09T09:36:38.188Z</time>
      </trkpt>
      <trkpt lat="37.408935" lon="-4.384835">
        <ele>617.0</ele>
        <time>2018-06-09T09:36:39.166Z</time>
      </trkpt>
      <trkpt lat="37.408935" lon="-4.384835">
        <ele>617.0</ele>
        <time>2018-06-09T09:36:40.179Z</time>
      </trkpt>
      <trkpt lat="37.40890833" lon="-4.38487167">
        <ele>618.0</ele>
        <time>2018-06-09T09:36:41.195Z</time>
      </trkpt>
      <trkpt lat="37.40890833" lon="-4.38487167">
        <ele>618.0</ele>
        <time>2018-06-09T09:36:42.176Z</time>
      </trkpt>
      <trkpt lat="37.40888333" lon="-4.384905">
        <ele>618.0</ele>
        <time>2018-06-09T09:36:43.196Z</time>
      </trkpt>
      <trkpt lat="37.40888333" lon="-4.384905">
        <ele>618.0</ele>
        <time>2018-06-09T09:36:44.163Z</time>
      </trkpt>
      <trkpt lat="37.40886" lon="-4.38494">
        <ele>619.0</ele>
        <time>2018-06-09T09:36:45.186Z</time>
      </trkpt>
      <trkpt lat="37.40886" lon="-4.38494">
        <ele>619.0</ele>
        <time>2018-06-09T09:36:46.191Z</time>
      </trkpt>
      <trkpt lat="37.40883667" lon="-4.38497333">
        <ele>619.0</ele>
        <time>2018-06-09T09:36:47.195Z</time>
      </trkpt>
      <trkpt lat="37.40882333" lon="-4.38499">
        <ele>619.0</ele>
        <time>2018-06-09T09:36:48.182Z</time>
      </trkpt>
      <trkpt lat="37.40882333" lon="-4.38499">
        <ele>619.0</ele>
        <time>2018-06-09T09:36:49.163Z</time>
      </trkpt>
      <trkpt lat="37.40879833" lon="-4.38501833">
        <ele>620.0</ele>
        <time>2018-06-09T09:36:50.191Z</time>
      </trkpt>
      <trkpt lat="37.40879833" lon="-4.38501833">
        <ele>620.0</ele>
        <time>2018-06-09T09:36:51.173Z</time>
      </trkpt>
      <trkpt lat="37.40877167" lon="-4.38504167">
        <ele>620.0</ele>
        <time>2018-06-09T09:36:52.160Z</time>
      </trkpt>
      <trkpt lat="37.408755" lon="-4.38505167">
        <ele>620.0</ele>
        <time>2018-06-09T09:36:53.192Z</time>
      </trkpt>
      <trkpt lat="37.408755" lon="-4.38505167">
        <ele>620.0</ele>
        <time>2018-06-09T09:36:54.159Z</time>
      </trkpt>
      <trkpt lat="37.40873333" lon="-4.38507833">
        <ele>621.0</ele>
        <time>2018-06-09T09:36:55.180Z</time>
      </trkpt>
      <trkpt lat="37.40873333" lon="-4.38507833">
        <ele>621.0</ele>
        <time>2018-06-09T09:36:56.158Z</time>
      </trkpt>
      <trkpt lat="37.40871667" lon="-4.38511167">
        <ele>621.0</ele>
        <time>2018-06-09T09:36:57.188Z</time>
      </trkpt>
      <trkpt lat="37.408705" lon="-4.38512833">
        <ele>622.0</ele>
        <time>2018-06-09T09:36:58.183Z</time>
      </trkpt>
      <trkpt lat="37.408695" lon="-4.38514333">
        <ele>622.0</ele>
        <time>2018-06-09T09:36:59.173Z</time>
      </trkpt>
      <trkpt lat="37.408695" lon="-4.38514333">
        <ele>622.0</ele>
        <time>2018-06-09T09:37:00.158Z</time>
      </trkpt>
      <trkpt lat="37.40867833" lon="-4.385175">
        <ele>623.0</ele>
        <time>2018-06-09T09:37:01.193Z</time>
      </trkpt>
      <trkpt lat="37.40867" lon="-4.38518667">
        <ele>623.0</ele>
        <time>2018-06-09T09:37:02.173Z</time>
      </trkpt>
      <trkpt lat="37.40867" lon="-4.38518667">
        <ele>623.0</ele>
        <time>2018-06-09T09:37:03.163Z</time>
      </trkpt>
      <trkpt lat="37.40864667" lon="-4.38521">
        <ele>623.0</ele>
        <time>2018-06-09T09:37:04.188Z</time>
      </trkpt>
      <trkpt lat="37.40864667" lon="-4.38521">
        <ele>623.0</ele>
        <time>2018-06-09T09:37:05.164Z</time>
      </trkpt>
      <trkpt lat="37.40862167" lon="-4.38523333">
        <ele>624.0</ele>
        <time>2018-06-09T09:37:06.187Z</time>
      </trkpt>
      <trkpt lat="37.40862167" lon="-4.38523333">
        <ele>624.0</ele>
        <time>2018-06-09T09:37:07.163Z</time>
      </trkpt>
      <trkpt lat="37.40859667" lon="-4.38525667">
        <ele>624.0</ele>
        <time>2018-06-09T09:37:08.162Z</time>
      </trkpt>
      <trkpt lat="37.40859" lon="-4.38526667">
        <ele>625.0</ele>
        <time>2018-06-09T09:37:09.188Z</time>
      </trkpt>
      <trkpt lat="37.40859" lon="-4.38526667">
        <ele>625.0</ele>
        <time>2018-06-09T09:37:10.196Z</time>
      </trkpt>
      <trkpt lat="37.408565" lon="-4.38528667">
        <ele>625.0</ele>
        <time>2018-06-09T09:37:11.187Z</time>
      </trkpt>
      <trkpt lat="37.40855167" lon="-4.385295">
        <ele>625.0</ele>
        <time>2018-06-09T09:37:12.169Z</time>
      </trkpt>
      <trkpt lat="37.40855167" lon="-4.385295">
        <ele>625.0</ele>
        <time>2018-06-09T09:37:13.184Z</time>
      </trkpt>
      <trkpt lat="37.40852833" lon="-4.38532167">
        <ele>626.0</ele>
        <time>2018-06-09T09:37:14.165Z</time>
      </trkpt>
      <trkpt lat="37.40852833" lon="-4.38532167">
        <ele>626.0</ele>
        <time>2018-06-09T09:37:15.190Z</time>
      </trkpt>
      <trkpt lat="37.408515" lon="-4.38535833">
        <ele>627.0</ele>
        <time>2018-06-09T09:37:16.173Z</time>
      </trkpt>
      <trkpt lat="37.40850333" lon="-4.38537">
        <ele>627.0</ele>
        <time>2018-06-09T09:37:17.165Z</time>
      </trkpt>
      <trkpt lat="37.40850333" lon="-4.38537">
        <ele>627.0</ele>
        <time>2018-06-09T09:37:18.176Z</time>
      </trkpt>
      <trkpt lat="37.40848333" lon="-4.385395">
        <ele>627.0</ele>
        <time>2018-06-09T09:37:19.165Z</time>
      </trkpt>
      <trkpt lat="37.40847333" lon="-4.38541333">
        <ele>627.0</ele>
        <time>2018-06-09T09:37:20.189Z</time>
      </trkpt>
      <trkpt lat="37.40847333" lon="-4.38541333">
        <ele>627.0</ele>
        <time>2018-06-09T09:37:21.162Z</time>
      </trkpt>
      <trkpt lat="37.40845167" lon="-4.38543833">
        <ele>628.0</ele>
        <time>2018-06-09T09:37:22.191Z</time>
      </trkpt>
      <trkpt lat="37.40844167" lon="-4.38545167">
        <ele>628.0</ele>
        <time>2018-06-09T09:37:23.182Z</time>
      </trkpt>
      <trkpt lat="37.40844167" lon="-4.38545167">
        <ele>628.0</ele>
        <time>2018-06-09T09:37:24.161Z</time>
      </trkpt>
      <trkpt lat="37.40842" lon="-4.38547833">
        <ele>628.0</ele>
        <time>2018-06-09T09:37:25.182Z</time>
      </trkpt>
      <trkpt lat="37.40841" lon="-4.38549167">
        <ele>628.0</ele>
        <time>2018-06-09T09:37:26.177Z</time>
      </trkpt>
      <trkpt lat="37.40841" lon="-4.38549167">
        <ele>628.0</ele>
        <time>2018-06-09T09:37:27.158Z</time>
      </trkpt>
      <trkpt lat="37.40838833" lon="-4.38551667">
        <ele>628.0</ele>
        <time>2018-06-09T09:37:28.185Z</time>
      </trkpt>
      <trkpt lat="37.40837833" lon="-4.38553167">
        <ele>628.0</ele>
        <time>2018-06-09T09:37:29.192Z</time>
      </trkpt>
      <trkpt lat="37.40837833" lon="-4.38553167">
        <ele>628.0</ele>
        <time>2018-06-09T09:37:30.157Z</time>
      </trkpt>
      <trkpt lat="37.40835833" lon="-4.38556333">
        <ele>629.0</ele>
        <time>2018-06-09T09:37:31.193Z</time>
      </trkpt>
      <trkpt lat="37.40835833" lon="-4.38556333">
        <ele>629.0</ele>
        <time>2018-06-09T09:37:32.182Z</time>
      </trkpt>
      <trkpt lat="37.40834167" lon="-4.38559667">
        <ele>629.0</ele>
        <time>2018-06-09T09:37:33.172Z</time>
      </trkpt>
      <trkpt lat="37.408335" lon="-4.385615">
        <ele>629.0</ele>
        <time>2018-06-09T09:37:34.173Z</time>
      </trkpt>
      <trkpt lat="37.40832833" lon="-4.38563333">
        <ele>629.0</ele>
        <time>2018-06-09T09:37:35.195Z</time>
      </trkpt>
      <trkpt lat="37.40832833" lon="-4.38563333">
        <ele>629.0</ele>
        <time>2018-06-09T09:37:36.161Z</time>
      </trkpt>
      <trkpt lat="37.40831333" lon="-4.38566833">
        <ele>630.0</ele>
        <time>2018-06-09T09:37:37.183Z</time>
      </trkpt>
      <trkpt lat="37.40831333" lon="-4.38566833">
        <ele>630.0</ele>
        <time>2018-06-09T09:37:38.189Z</time>
      </trkpt>
      <trkpt lat="37.40830667" lon="-4.38570333">
        <ele>630.0</ele>
        <time>2018-06-09T09:37:39.174Z</time>
      </trkpt>
      <trkpt lat="37.40830667" lon="-4.38570333">
        <ele>630.0</ele>
        <time>2018-06-09T09:37:40.197Z</time>
      </trkpt>
      <trkpt lat="37.40831" lon="-4.38573833">
        <ele>630.0</ele>
        <time>2018-06-09T09:37:41.180Z</time>
      </trkpt>
      <trkpt lat="37.40831" lon="-4.38573833">
        <ele>630.0</ele>
        <time>2018-06-09T09:37:42.187Z</time>
      </trkpt>
      <trkpt lat="37.40831833" lon="-4.38578">
        <ele>631.0</ele>
        <time>2018-06-09T09:37:43.176Z</time>
      </trkpt>
      <trkpt lat="37.40832333" lon="-4.3858">
        <ele>631.0</ele>
        <time>2018-06-09T09:37:44.175Z</time>
      </trkpt>
      <trkpt lat="37.40832333" lon="-4.3858">
        <ele>631.0</ele>
        <time>2018-06-09T09:37:45.181Z</time>
      </trkpt>
      <trkpt lat="37.40833667" lon="-4.38583667">
        <ele>631.0</ele>
        <time>2018-06-09T09:37:46.162Z</time>
      </trkpt>
      <trkpt lat="37.40833667" lon="-4.38583667">
        <ele>631.0</ele>
        <time>2018-06-09T09:37:47.172Z</time>
      </trkpt>
      <trkpt lat="37.40835833" lon="-4.38587333">
        <ele>631.0</ele>
        <time>2018-06-09T09:37:48.195Z</time>
      </trkpt>
      <trkpt lat="37.40835833" lon="-4.38587333">
        <ele>631.0</ele>
        <time>2018-06-09T09:37:49.173Z</time>
      </trkpt>
      <trkpt lat="37.40838667" lon="-4.385905">
        <ele>631.0</ele>
        <time>2018-06-09T09:37:50.201Z</time>
      </trkpt>
      <trkpt lat="37.40840333" lon="-4.38592">
        <ele>631.0</ele>
        <time>2018-06-09T09:37:51.193Z</time>
      </trkpt>
      <trkpt lat="37.40842167" lon="-4.38593167">
        <ele>631.0</ele>
        <time>2018-06-09T09:37:52.188Z</time>
      </trkpt>
      <trkpt lat="37.40842167" lon="-4.38593167">
        <ele>631.0</ele>
        <time>2018-06-09T09:37:53.175Z</time>
      </trkpt>
      <trkpt lat="37.40846333" lon="-4.38594167">
        <ele>631.0</ele>
        <time>2018-06-09T09:37:54.160Z</time>
      </trkpt>
      <trkpt lat="37.40846333" lon="-4.38594167">
        <ele>631.0</ele>
        <time>2018-06-09T09:37:55.176Z</time>
      </trkpt>
      <trkpt lat="37.408505" lon="-4.385945">
        <ele>631.0</ele>
        <time>2018-06-09T09:37:56.196Z</time>
      </trkpt>
      <trkpt lat="37.40852333" lon="-4.38595167">
        <ele>632.0</ele>
        <time>2018-06-09T09:37:57.184Z</time>
      </trkpt>
      <trkpt lat="37.40852333" lon="-4.38595167">
        <ele>632.0</ele>
        <time>2018-06-09T09:37:58.160Z</time>
      </trkpt>
      <trkpt lat="37.40856" lon="-4.38597833">
        <ele>632.0</ele>
        <time>2018-06-09T09:37:59.193Z</time>
      </trkpt>
      <trkpt lat="37.40856" lon="-4.38597833">
        <ele>632.0</ele>
        <time>2018-06-09T09:38:00.159Z</time>
      </trkpt>
      <trkpt lat="37.40859" lon="-4.38601667">
        <ele>632.0</ele>
        <time>2018-06-09T09:38:01.183Z</time>
      </trkpt>
      <trkpt lat="37.408605" lon="-4.38603667">
        <ele>632.0</ele>
        <time>2018-06-09T09:38:02.186Z</time>
      </trkpt>
      <trkpt lat="37.408605" lon="-4.38603667">
        <ele>632.0</ele>
        <time>2018-06-09T09:38:03.193Z</time>
      </trkpt>
      <trkpt lat="37.408635" lon="-4.38607667">
        <ele>632.0</ele>
        <time>2018-06-09T09:38:04.170Z</time>
      </trkpt>
      <trkpt lat="37.40865167" lon="-4.38609833">
        <ele>632.0</ele>
        <time>2018-06-09T09:38:05.176Z</time>
      </trkpt>
      <trkpt lat="37.40865167" lon="-4.38609833">
        <ele>632.0</ele>
        <time>2018-06-09T09:38:06.195Z</time>
      </trkpt>
      <trkpt lat="37.40868833" lon="-4.38614833">
        <ele>632.0</ele>
        <time>2018-06-09T09:38:07.182Z</time>
      </trkpt>
      <trkpt lat="37.40868833" lon="-4.38614833">
        <ele>632.0</ele>
        <time>2018-06-09T09:38:08.187Z</time>
      </trkpt>
      <trkpt lat="37.40873667" lon="-4.38621">
        <ele>631.0</ele>
        <time>2018-06-09T09:38:09.177Z</time>
      </trkpt>
      <trkpt lat="37.408765" lon="-4.38624667">
        <ele>631.0</ele>
        <time>2018-06-09T09:38:10.158Z</time>
      </trkpt>
      <trkpt lat="37.408765" lon="-4.38624667">
        <ele>631.0</ele>
        <time>2018-06-09T09:38:11.175Z</time>
      </trkpt>
      <trkpt lat="37.408825" lon="-4.38632833">
        <ele>630.0</ele>
        <time>2018-06-09T09:38:12.164Z</time>
      </trkpt>
      <trkpt lat="37.408825" lon="-4.38632833">
        <ele>630.0</ele>
        <time>2018-06-09T09:38:13.175Z</time>
      </trkpt>
      <trkpt lat="37.40889" lon="-4.38641833">
        <ele>629.0</ele>
        <time>2018-06-09T09:38:14.160Z</time>
      </trkpt>
      <trkpt lat="37.408925" lon="-4.38646333">
        <ele>629.0</ele>
        <time>2018-06-09T09:38:15.161Z</time>
      </trkpt>
      <trkpt lat="37.408925" lon="-4.38646333">
        <ele>629.0</ele>
        <time>2018-06-09T09:38:16.169Z</time>
      </trkpt>
      <trkpt lat="37.40898833" lon="-4.38654833">
        <ele>628.0</ele>
        <time>2018-06-09T09:38:17.195Z</time>
      </trkpt>
      <trkpt lat="37.409015" lon="-4.38659333">
        <ele>627.0</ele>
        <time>2018-06-09T09:38:18.170Z</time>
      </trkpt>
      <trkpt lat="37.409015" lon="-4.38659333">
        <ele>627.0</ele>
        <time>2018-06-09T09:38:19.189Z</time>
      </trkpt>
      <trkpt lat="37.409045" lon="-4.38669167">
        <ele>627.0</ele>
        <time>2018-06-09T09:38:20.165Z</time>
      </trkpt>
      <trkpt lat="37.40903833" lon="-4.38674">
        <ele>626.0</ele>
        <time>2018-06-09T09:38:21.196Z</time>
      </trkpt>
      <trkpt lat="37.40903833" lon="-4.38674">
        <ele>626.0</ele>
        <time>2018-06-09T09:38:22.162Z</time>
      </trkpt>
      <trkpt lat="37.40900833" lon="-4.38684333">
        <ele>625.0</ele>
        <time>2018-06-09T09:38:23.184Z</time>
      </trkpt>
      <trkpt lat="37.40900833" lon="-4.38684333">
        <ele>625.0</ele>
        <time>2018-06-09T09:38:24.162Z</time>
      </trkpt>
      <trkpt lat="37.40898" lon="-4.38695667">
        <ele>624.0</ele>
        <time>2018-06-09T09:38:25.195Z</time>
      </trkpt>
      <trkpt lat="37.40898" lon="-4.38695667">
        <ele>624.0</ele>
        <time>2018-06-09T09:38:26.173Z</time>
      </trkpt>
      <trkpt lat="37.40895333" lon="-4.387075">
        <ele>622.0</ele>
        <time>2018-06-09T09:38:27.192Z</time>
      </trkpt>
      <trkpt lat="37.40895333" lon="-4.387075">
        <ele>622.0</ele>
        <time>2018-06-09T09:38:28.175Z</time>
      </trkpt>
      <trkpt lat="37.40893" lon="-4.38718833">
        <ele>621.0</ele>
        <time>2018-06-09T09:38:29.166Z</time>
      </trkpt>
      <trkpt lat="37.40893" lon="-4.38718833">
        <ele>621.0</ele>
        <time>2018-06-09T09:38:30.170Z</time>
      </trkpt>
      <trkpt lat="37.40888833" lon="-4.38729333">
        <ele>620.0</ele>
        <time>2018-06-09T09:38:31.200Z</time>
      </trkpt>
      <trkpt lat="37.40886833" lon="-4.38735333">
        <ele>619.0</ele>
        <time>2018-06-09T09:38:32.168Z</time>
      </trkpt>
      <trkpt lat="37.40886833" lon="-4.38735333">
        <ele>619.0</ele>
        <time>2018-06-09T09:38:33.173Z</time>
      </trkpt>
      <trkpt lat="37.40884" lon="-4.38747667">
        <ele>618.0</ele>
        <time>2018-06-09T09:38:34.194Z</time>
      </trkpt>
      <trkpt lat="37.40884" lon="-4.38747667">
        <ele>618.0</ele>
        <time>2018-06-09T09:38:35.178Z</time>
      </trkpt>
      <trkpt lat="37.40881833" lon="-4.38758667">
        <ele>615.0</ele>
        <time>2018-06-09T09:38:36.190Z</time>
      </trkpt>
      <trkpt lat="37.40881833" lon="-4.38763667">
        <ele>615.0</ele>
        <time>2018-06-09T09:38:37.187Z</time>
      </trkpt>
      <trkpt lat="37.40881833" lon="-4.38763667">
        <ele>615.0</ele>
        <time>2018-06-09T09:38:38.164Z</time>
      </trkpt>
      <trkpt lat="37.40880833" lon="-4.387745">
        <ele>613.0</ele>
        <time>2018-06-09T09:38:39.194Z</time>
      </trkpt>
      <trkpt lat="37.40880833" lon="-4.387745">
        <ele>613.0</ele>
        <time>2018-06-09T09:38:40.159Z</time>
      </trkpt>
      <trkpt lat="37.40878333" lon="-4.38784667">
        <ele>612.0</ele>
        <time>2018-06-09T09:38:41.189Z</time>
      </trkpt>
      <trkpt lat="37.40878333" lon="-4.38784667">
        <ele>612.0</ele>
        <time>2018-06-09T09:38:42.172Z</time>
      </trkpt>
      <trkpt lat="37.40875667" lon="-4.38794167">
        <ele>610.0</ele>
        <time>2018-06-09T09:38:43.195Z</time>
      </trkpt>
      <trkpt lat="37.40875667" lon="-4.38794167">
        <ele>610.0</ele>
        <time>2018-06-09T09:38:44.173Z</time>
      </trkpt>
      <trkpt lat="37.40873667" lon="-4.388035">
        <ele>609.0</ele>
        <time>2018-06-09T09:38:45.158Z</time>
      </trkpt>
      <trkpt lat="37.40873667" lon="-4.388035">
        <ele>609.0</ele>
        <time>2018-06-09T09:38:46.189Z</time>
      </trkpt>
      <trkpt lat="37.40871833" lon="-4.38810833">
        <ele>607.0</ele>
        <time>2018-06-09T09:38:47.172Z</time>
      </trkpt>
      <trkpt lat="37.40871833" lon="-4.38810833">
        <ele>607.0</ele>
        <time>2018-06-09T09:38:48.160Z</time>
      </trkpt>
      <trkpt lat="37.408715" lon="-4.38817833">
        <ele>606.0</ele>
        <time>2018-06-09T09:38:49.190Z</time>
      </trkpt>
      <trkpt lat="37.408725" lon="-4.38820667">
        <ele>605.0</ele>
        <time>2018-06-09T09:38:50.190Z</time>
      </trkpt>
      <trkpt lat="37.408725" lon="-4.38820667">
        <ele>605.0</ele>
        <time>2018-06-09T09:38:51.175Z</time>
      </trkpt>
      <trkpt lat="37.40876167" lon="-4.38824833">
        <ele>604.0</ele>
        <time>2018-06-09T09:38:52.161Z</time>
      </trkpt>
      <trkpt lat="37.40878167" lon="-4.38827167">
        <ele>604.0</ele>
        <time>2018-06-09T09:38:53.194Z</time>
      </trkpt>
      <trkpt lat="37.40878167" lon="-4.38827167">
        <ele>604.0</ele>
        <time>2018-06-09T09:38:54.181Z</time>
      </trkpt>
      <trkpt lat="37.40882167" lon="-4.38833167">
        <ele>602.0</ele>
        <time>2018-06-09T09:38:55.175Z</time>
      </trkpt>
      <trkpt lat="37.40885" lon="-4.38837167">
        <ele>601.0</ele>
        <time>2018-06-09T09:38:56.159Z</time>
      </trkpt>
      <trkpt lat="37.40888833" lon="-4.38842667">
        <ele>601.0</ele>
        <time>2018-06-09T09:38:57.160Z</time>
      </trkpt>
      <trkpt lat="37.40888833" lon="-4.38842667">
        <ele>601.0</ele>
        <time>2018-06-09T09:38:58.166Z</time>
      </trkpt>
      <trkpt lat="37.408945" lon="-4.38854">
        <ele>600.0</ele>
        <time>2018-06-09T09:38:59.186Z</time>
      </trkpt>
      <trkpt lat="37.408945" lon="-4.38854">
        <ele>600.0</ele>
        <time>2018-06-09T09:39:00.165Z</time>
      </trkpt>
      <trkpt lat="37.40898" lon="-4.38861667">
        <ele>599.0</ele>
        <time>2018-06-09T09:39:01.187Z</time>
      </trkpt>
      <trkpt lat="37.408995" lon="-4.38864667">
        <ele>598.0</ele>
        <time>2018-06-09T09:39:02.177Z</time>
      </trkpt>
      <trkpt lat="37.408995" lon="-4.38864667">
        <ele>598.0</ele>
        <time>2018-06-09T09:39:03.185Z</time>
      </trkpt>
      <trkpt lat="37.40902667" lon="-4.38869667">
        <ele>599.0</ele>
        <time>2018-06-09T09:39:04.171Z</time>
      </trkpt>
      <trkpt lat="37.40904167" lon="-4.38872167">
        <ele>599.0</ele>
        <time>2018-06-09T09:39:05.196Z</time>
      </trkpt>
      <trkpt lat="37.40904167" lon="-4.38872167">
        <ele>599.0</ele>
        <time>2018-06-09T09:39:06.174Z</time>
      </trkpt>
      <trkpt lat="37.40907667" lon="-4.38877833">
        <ele>600.0</ele>
        <time>2018-06-09T09:39:07.162Z</time>
      </trkpt>
      <trkpt lat="37.40907667" lon="-4.38877833">
        <ele>600.0</ele>
        <time>2018-06-09T09:39:08.175Z</time>
      </trkpt>
      <trkpt lat="37.40911167" lon="-4.38883833">
        <ele>600.0</ele>
        <time>2018-06-09T09:39:09.158Z</time>
      </trkpt>
      <trkpt lat="37.40911167" lon="-4.38883833">
        <ele>600.0</ele>
        <time>2018-06-09T09:39:10.163Z</time>
      </trkpt>
      <trkpt lat="37.40914167" lon="-4.38890333">
        <ele>600.0</ele>
        <time>2018-06-09T09:39:11.199Z</time>
      </trkpt>
      <trkpt lat="37.40914167" lon="-4.38890333">
        <ele>600.0</ele>
        <time>2018-06-09T09:39:12.175Z</time>
      </trkpt>
      <trkpt lat="37.40917333" lon="-4.38897333">
        <ele>600.0</ele>
        <time>2018-06-09T09:39:13.158Z</time>
      </trkpt>
      <trkpt lat="37.40917333" lon="-4.38897333">
        <ele>600.0</ele>
        <time>2018-06-09T09:39:14.165Z</time>
      </trkpt>
      <trkpt lat="37.409205" lon="-4.389045">
        <ele>600.0</ele>
        <time>2018-06-09T09:39:15.184Z</time>
      </trkpt>
      <trkpt lat="37.409205" lon="-4.389045">
        <ele>600.0</ele>
        <time>2018-06-09T09:39:16.191Z</time>
      </trkpt>
      <trkpt lat="37.40924167" lon="-4.38912333">
        <ele>600.0</ele>
        <time>2018-06-09T09:39:17.169Z</time>
      </trkpt>
      <trkpt lat="37.40924167" lon="-4.38912333">
        <ele>600.0</ele>
        <time>2018-06-09T09:39:18.176Z</time>
      </trkpt>
      <trkpt lat="37.40927333" lon="-4.38919333">
        <ele>600.0</ele>
        <time>2018-06-09T09:39:19.163Z</time>
      </trkpt>
      <trkpt lat="37.40927333" lon="-4.38919333">
        <ele>600.0</ele>
        <time>2018-06-09T09:39:20.181Z</time>
      </trkpt>
      <trkpt lat="37.40930167" lon="-4.38925833">
        <ele>601.0</ele>
        <time>2018-06-09T09:39:21.167Z</time>
      </trkpt>
      <trkpt lat="37.40930167" lon="-4.38925833">
        <ele>601.0</ele>
        <time>2018-06-09T09:39:22.182Z</time>
      </trkpt>
      <trkpt lat="37.40933667" lon="-4.38932167">
        <ele>601.0</ele>
        <time>2018-06-09T09:39:23.172Z</time>
      </trkpt>
      <trkpt lat="37.40933667" lon="-4.38932167">
        <ele>601.0</ele>
        <time>2018-06-09T09:39:24.161Z</time>
      </trkpt>
      <trkpt lat="37.40935667" lon="-4.38936167">
        <ele>601.0</ele>
        <time>2018-06-09T09:39:25.174Z</time>
      </trkpt>
      <trkpt lat="37.40935667" lon="-4.38936167">
        <ele>601.0</ele>
        <time>2018-06-09T09:39:26.190Z</time>
      </trkpt>
      <trkpt lat="37.40937333" lon="-4.38940167">
        <ele>602.0</ele>
        <time>2018-06-09T09:39:27.168Z</time>
      </trkpt>
      <trkpt lat="37.40937333" lon="-4.38940167">
        <ele>602.0</ele>
        <time>2018-06-09T09:39:28.175Z</time>
      </trkpt>
      <trkpt lat="37.40938333" lon="-4.38945667">
        <ele>602.0</ele>
        <time>2018-06-09T09:39:29.182Z</time>
      </trkpt>
      <trkpt lat="37.40938333" lon="-4.38945667">
        <ele>602.0</ele>
        <time>2018-06-09T09:39:30.188Z</time>
      </trkpt>
      <trkpt lat="37.40937167" lon="-4.38953">
        <ele>602.0</ele>
        <time>2018-06-09T09:39:31.167Z</time>
      </trkpt>
      <trkpt lat="37.40937" lon="-4.38957333">
        <ele>602.0</ele>
        <time>2018-06-09T09:39:32.191Z</time>
      </trkpt>
      <trkpt lat="37.40937333" lon="-4.38961333">
        <ele>602.0</ele>
        <time>2018-06-09T09:39:33.166Z</time>
      </trkpt>
      <trkpt lat="37.40937333" lon="-4.38961333">
        <ele>602.0</ele>
        <time>2018-06-09T09:39:34.172Z</time>
      </trkpt>
      <trkpt lat="37.409395" lon="-4.38968333">
        <ele>602.0</ele>
        <time>2018-06-09T09:39:35.163Z</time>
      </trkpt>
      <trkpt lat="37.409395" lon="-4.38968333">
        <ele>602.0</ele>
        <time>2018-06-09T09:39:36.176Z</time>
      </trkpt>
      <trkpt lat="37.40942833" lon="-4.38973833">
        <ele>602.0</ele>
        <time>2018-06-09T09:39:37.159Z</time>
      </trkpt>
      <trkpt lat="37.40942833" lon="-4.38973833">
        <ele>602.0</ele>
        <time>2018-06-09T09:39:38.184Z</time>
      </trkpt>
      <trkpt lat="37.40945667" lon="-4.38979333">
        <ele>602.0</ele>
        <time>2018-06-09T09:39:39.165Z</time>
      </trkpt>
      <trkpt lat="37.40945667" lon="-4.38979333">
        <ele>602.0</ele>
        <time>2018-06-09T09:39:40.173Z</time>
      </trkpt>
      <trkpt lat="37.40948333" lon="-4.38984167">
        <ele>602.0</ele>
        <time>2018-06-09T09:39:41.159Z</time>
      </trkpt>
      <trkpt lat="37.40948333" lon="-4.38984167">
        <ele>602.0</ele>
        <time>2018-06-09T09:39:42.164Z</time>
      </trkpt>
      <trkpt lat="37.40951" lon="-4.38988833">
        <ele>602.0</ele>
        <time>2018-06-09T09:39:43.191Z</time>
      </trkpt>
      <trkpt lat="37.409525" lon="-4.38991">
        <ele>603.0</ele>
        <time>2018-06-09T09:39:44.191Z</time>
      </trkpt>
      <trkpt lat="37.409525" lon="-4.38991">
        <ele>603.0</ele>
        <time>2018-06-09T09:39:45.171Z</time>
      </trkpt>
      <trkpt lat="37.40955167" lon="-4.38995667">
        <ele>604.0</ele>
        <time>2018-06-09T09:39:46.158Z</time>
      </trkpt>
      <trkpt lat="37.409565" lon="-4.38997833">
        <ele>605.0</ele>
        <time>2018-06-09T09:39:47.195Z</time>
      </trkpt>
      <trkpt lat="37.409565" lon="-4.38997833">
        <ele>605.0</ele>
        <time>2018-06-09T09:39:48.171Z</time>
      </trkpt>
      <trkpt lat="37.40959167" lon="-4.39002">
        <ele>606.0</ele>
        <time>2018-06-09T09:39:49.192Z</time>
      </trkpt>
      <trkpt lat="37.40959167" lon="-4.39002">
        <ele>606.0</ele>
        <time>2018-06-09T09:39:50.158Z</time>
      </trkpt>
      <trkpt lat="37.409615" lon="-4.390065">
        <ele>606.0</ele>
        <time>2018-06-09T09:39:51.181Z</time>
      </trkpt>
      <trkpt lat="37.409615" lon="-4.390065">
        <ele>606.0</ele>
        <time>2018-06-09T09:39:52.187Z</time>
      </trkpt>
      <trkpt lat="37.40964" lon="-4.39010833">
        <ele>607.0</ele>
        <time>2018-06-09T09:39:53.178Z</time>
      </trkpt>
      <trkpt lat="37.40964" lon="-4.39010833">
        <ele>607.0</ele>
        <time>2018-06-09T09:39:54.183Z</time>
      </trkpt>
      <trkpt lat="37.40966833" lon="-4.390155">
        <ele>608.0</ele>
        <time>2018-06-09T09:39:55.181Z</time>
      </trkpt>
      <trkpt lat="37.40968167" lon="-4.39017833">
        <ele>608.0</ele>
        <time>2018-06-09T09:39:56.184Z</time>
      </trkpt>
      <trkpt lat="37.40968167" lon="-4.39017833">
        <ele>608.0</ele>
        <time>2018-06-09T09:39:57.158Z</time>
      </trkpt>
      <trkpt lat="37.40970667" lon="-4.39022167">
        <ele>609.0</ele>
        <time>2018-06-09T09:39:58.181Z</time>
      </trkpt>
      <trkpt lat="37.40970667" lon="-4.39022167">
        <ele>609.0</ele>
        <time>2018-06-09T09:39:59.165Z</time>
      </trkpt>
      <trkpt lat="37.40972667" lon="-4.39026167">
        <ele>609.0</ele>
        <time>2018-06-09T09:40:00.158Z</time>
      </trkpt>
      <trkpt lat="37.40972667" lon="-4.39026167">
        <ele>609.0</ele>
        <time>2018-06-09T09:40:01.163Z</time>
      </trkpt>
      <trkpt lat="37.40975" lon="-4.39030333">
        <ele>610.0</ele>
        <time>2018-06-09T09:40:02.157Z</time>
      </trkpt>
      <trkpt lat="37.40976" lon="-4.39032333">
        <ele>610.0</ele>
        <time>2018-06-09T09:40:03.177Z</time>
      </trkpt>
      <trkpt lat="37.40976" lon="-4.39032333">
        <ele>610.0</ele>
        <time>2018-06-09T09:40:04.158Z</time>
      </trkpt>
      <trkpt lat="37.409785" lon="-4.39036833">
        <ele>610.0</ele>
        <time>2018-06-09T09:40:05.183Z</time>
      </trkpt>
      <trkpt lat="37.409785" lon="-4.39036833">
        <ele>610.0</ele>
        <time>2018-06-09T09:40:06.161Z</time>
      </trkpt>
      <trkpt lat="37.40982333" lon="-4.3904">
        <ele>610.0</ele>
        <time>2018-06-09T09:40:07.188Z</time>
      </trkpt>
      <trkpt lat="37.40984667" lon="-4.390405">
        <ele>610.0</ele>
        <time>2018-06-09T09:40:08.189Z</time>
      </trkpt>
      <trkpt lat="37.40984667" lon="-4.390405">
        <ele>610.0</ele>
        <time>2018-06-09T09:40:09.167Z</time>
      </trkpt>
      <trkpt lat="37.40989333" lon="-4.39040667">
        <ele>612.0</ele>
        <time>2018-06-09T09:40:10.189Z</time>
      </trkpt>
      <trkpt lat="37.40991333" lon="-4.39041167">
        <ele>612.0</ele>
        <time>2018-06-09T09:40:11.177Z</time>
      </trkpt>
      <trkpt lat="37.40991333" lon="-4.39041167">
        <ele>612.0</ele>
        <time>2018-06-09T09:40:12.158Z</time>
      </trkpt>
      <trkpt lat="37.40994167" lon="-4.39044">
        <ele>613.0</ele>
        <time>2018-06-09T09:40:13.176Z</time>
      </trkpt>
      <trkpt lat="37.40994167" lon="-4.39044">
        <ele>613.0</ele>
        <time>2018-06-09T09:40:14.188Z</time>
      </trkpt>
      <trkpt lat="37.40996333" lon="-4.390475">
        <ele>613.0</ele>
        <time>2018-06-09T09:40:15.175Z</time>
      </trkpt>
      <trkpt lat="37.409975" lon="-4.39049333">
        <ele>612.0</ele>
        <time>2018-06-09T09:40:16.162Z</time>
      </trkpt>
      <trkpt lat="37.409975" lon="-4.39049333">
        <ele>612.0</ele>
        <time>2018-06-09T09:40:17.175Z</time>
      </trkpt>
      <trkpt lat="37.41001333" lon="-4.39052667">
        <ele>613.0</ele>
        <time>2018-06-09T09:40:18.183Z</time>
      </trkpt>
      <trkpt lat="37.41001333" lon="-4.39052667">
        <ele>613.0</ele>
        <time>2018-06-09T09:40:19.190Z</time>
      </trkpt>
      <trkpt lat="37.41005333" lon="-4.390535">
        <ele>614.0</ele>
        <time>2018-06-09T09:40:20.168Z</time>
      </trkpt>
      <trkpt lat="37.41007333" lon="-4.39054">
        <ele>614.0</ele>
        <time>2018-06-09T09:40:21.187Z</time>
      </trkpt>
      <trkpt lat="37.41007333" lon="-4.39054">
        <ele>614.0</ele>
        <time>2018-06-09T09:40:22.192Z</time>
      </trkpt>
      <trkpt lat="37.41011667" lon="-4.39054833">
        <ele>616.0</ele>
        <time>2018-06-09T09:40:23.182Z</time>
      </trkpt>
      <trkpt lat="37.41011667" lon="-4.39054833">
        <ele>616.0</ele>
        <time>2018-06-09T09:40:24.166Z</time>
      </trkpt>
      <trkpt lat="37.41014833" lon="-4.39056833">
        <ele>616.0</ele>
        <time>2018-06-09T09:40:25.198Z</time>
      </trkpt>
      <trkpt lat="37.41016" lon="-4.390585">
        <ele>616.0</ele>
        <time>2018-06-09T09:40:26.182Z</time>
      </trkpt>
      <trkpt lat="37.41016" lon="-4.390585">
        <ele>616.0</ele>
        <time>2018-06-09T09:40:27.188Z</time>
      </trkpt>
      <trkpt lat="37.410185" lon="-4.39062">
        <ele>616.0</ele>
        <time>2018-06-09T09:40:28.194Z</time>
      </trkpt>
      <trkpt lat="37.410185" lon="-4.39062">
        <ele>616.0</ele>
        <time>2018-06-09T09:40:29.180Z</time>
      </trkpt>
      <trkpt lat="37.41022" lon="-4.390645">
        <ele>616.0</ele>
        <time>2018-06-09T09:40:30.164Z</time>
      </trkpt>
      <trkpt lat="37.41023833" lon="-4.39064667">
        <ele>616.0</ele>
        <time>2018-06-09T09:40:31.158Z</time>
      </trkpt>
      <trkpt lat="37.41023833" lon="-4.39064667">
        <ele>616.0</ele>
        <time>2018-06-09T09:40:32.164Z</time>
      </trkpt>
      <trkpt lat="37.41027333" lon="-4.39064833">
        <ele>617.0</ele>
        <time>2018-06-09T09:40:33.188Z</time>
      </trkpt>
      <trkpt lat="37.41027333" lon="-4.39064833">
        <ele>617.0</ele>
        <time>2018-06-09T09:40:34.167Z</time>
      </trkpt>
      <trkpt lat="37.41031" lon="-4.39066167">
        <ele>618.0</ele>
        <time>2018-06-09T09:40:35.194Z</time>
      </trkpt>
      <trkpt lat="37.41031" lon="-4.39066167">
        <ele>618.0</ele>
        <time>2018-06-09T09:40:36.159Z</time>
      </trkpt>
      <trkpt lat="37.41034" lon="-4.39068833">
        <ele>619.0</ele>
        <time>2018-06-09T09:40:37.195Z</time>
      </trkpt>
      <trkpt lat="37.41034" lon="-4.39068833">
        <ele>619.0</ele>
        <time>2018-06-09T09:40:38.164Z</time>
      </trkpt>
      <trkpt lat="37.41036333" lon="-4.39071833">
        <ele>621.0</ele>
        <time>2018-06-09T09:40:39.190Z</time>
      </trkpt>
      <trkpt lat="37.41036333" lon="-4.39071833">
        <ele>621.0</ele>
        <time>2018-06-09T09:40:40.170Z</time>
      </trkpt>
      <trkpt lat="37.41038667" lon="-4.39074833">
        <ele>621.0</ele>
        <time>2018-06-09T09:40:41.193Z</time>
      </trkpt>
      <trkpt lat="37.41038667" lon="-4.39074833">
        <ele>621.0</ele>
        <time>2018-06-09T09:40:42.176Z</time>
      </trkpt>
      <trkpt lat="37.41041167" lon="-4.39077833">
        <ele>621.0</ele>
        <time>2018-06-09T09:40:43.167Z</time>
      </trkpt>
      <trkpt lat="37.41042333" lon="-4.39078667">
        <ele>621.0</ele>
        <time>2018-06-09T09:40:44.200Z</time>
      </trkpt>
      <trkpt lat="37.41042333" lon="-4.39078667">
        <ele>621.0</ele>
        <time>2018-06-09T09:40:45.176Z</time>
      </trkpt>
      <trkpt lat="37.41045" lon="-4.390805">
        <ele>621.0</ele>
        <time>2018-06-09T09:40:46.188Z</time>
      </trkpt>
      <trkpt lat="37.41045" lon="-4.390805">
        <ele>621.0</ele>
        <time>2018-06-09T09:40:47.174Z</time>
      </trkpt>
      <trkpt lat="37.41048333" lon="-4.39082">
        <ele>622.0</ele>
        <time>2018-06-09T09:40:48.168Z</time>
      </trkpt>
      <trkpt lat="37.4105" lon="-4.39082333">
        <ele>622.0</ele>
        <time>2018-06-09T09:40:49.157Z</time>
      </trkpt>
      <trkpt lat="37.4105" lon="-4.39082333">
        <ele>622.0</ele>
        <time>2018-06-09T09:40:50.164Z</time>
      </trkpt>
      <trkpt lat="37.41053167" lon="-4.39082833">
        <ele>622.0</ele>
        <time>2018-06-09T09:40:51.187Z</time>
      </trkpt>
      <trkpt lat="37.41053167" lon="-4.39082833">
        <ele>622.0</ele>
        <time>2018-06-09T09:40:52.166Z</time>
      </trkpt>
      <trkpt lat="37.41056333" lon="-4.39082667">
        <ele>623.0</ele>
        <time>2018-06-09T09:40:53.195Z</time>
      </trkpt>
      <trkpt lat="37.41056333" lon="-4.39082667">
        <ele>623.0</ele>
        <time>2018-06-09T09:40:54.179Z</time>
      </trkpt>
      <trkpt lat="37.410595" lon="-4.390825">
        <ele>624.0</ele>
        <time>2018-06-09T09:40:55.158Z</time>
      </trkpt>
      <trkpt lat="37.410595" lon="-4.390825">
        <ele>624.0</ele>
        <time>2018-06-09T09:40:56.171Z</time>
      </trkpt>
      <trkpt lat="37.41062833" lon="-4.39082333">
        <ele>625.0</ele>
        <time>2018-06-09T09:40:57.190Z</time>
      </trkpt>
      <trkpt lat="37.41064667" lon="-4.39082667">
        <ele>626.0</ele>
        <time>2018-06-09T09:40:58.190Z</time>
      </trkpt>
      <trkpt lat="37.41064667" lon="-4.39082667">
        <ele>626.0</ele>
        <time>2018-06-09T09:40:59.196Z</time>
      </trkpt>
      <trkpt lat="37.41067833" lon="-4.39084667">
        <ele>627.0</ele>
        <time>2018-06-09T09:41:00.182Z</time>
      </trkpt>
      <trkpt lat="37.41069333" lon="-4.39086">
        <ele>628.0</ele>
        <time>2018-06-09T09:41:01.192Z</time>
      </trkpt>
      <trkpt lat="37.41069333" lon="-4.39086">
        <ele>628.0</ele>
        <time>2018-06-09T09:41:02.162Z</time>
      </trkpt>
      <trkpt lat="37.410725" lon="-4.39088833">
        <ele>628.0</ele>
        <time>2018-06-09T09:41:03.166Z</time>
      </trkpt>
      <trkpt lat="37.41074333" lon="-4.39090667">
        <ele>629.0</ele>
        <time>2018-06-09T09:41:04.193Z</time>
      </trkpt>
      <trkpt lat="37.41074333" lon="-4.39090667">
        <ele>629.0</ele>
        <time>2018-06-09T09:41:05.159Z</time>
      </trkpt>
      <trkpt lat="37.41076833" lon="-4.390935">
        <ele>629.0</ele>
        <time>2018-06-09T09:41:06.191Z</time>
      </trkpt>
      <trkpt lat="37.41076833" lon="-4.390935">
        <ele>629.0</ele>
        <time>2018-06-09T09:41:07.196Z</time>
      </trkpt>
      <trkpt lat="37.410795" lon="-4.39096">
        <ele>629.0</ele>
        <time>2018-06-09T09:41:08.183Z</time>
      </trkpt>
      <trkpt lat="37.41081" lon="-4.390975">
        <ele>629.0</ele>
        <time>2018-06-09T09:41:09.193Z</time>
      </trkpt>
      <trkpt lat="37.41081" lon="-4.390975">
        <ele>629.0</ele>
        <time>2018-06-09T09:41:10.158Z</time>
      </trkpt>
      <trkpt lat="37.41083333" lon="-4.39100167">
        <ele>629.0</ele>
        <time>2018-06-09T09:41:11.174Z</time>
      </trkpt>
      <trkpt lat="37.41083333" lon="-4.39100167">
        <ele>629.0</ele>
        <time>2018-06-09T09:41:12.179Z</time>
      </trkpt>
      <trkpt lat="37.41085333" lon="-4.39103333">
        <ele>629.0</ele>
        <time>2018-06-09T09:41:13.179Z</time>
      </trkpt>
      <trkpt lat="37.41085333" lon="-4.39103333">
        <ele>629.0</ele>
        <time>2018-06-09T09:41:14.184Z</time>
      </trkpt>
      <trkpt lat="37.410875" lon="-4.39106833">
        <ele>628.0</ele>
        <time>2018-06-09T09:41:15.172Z</time>
      </trkpt>
      <trkpt lat="37.41088333" lon="-4.39109167">
        <ele>628.0</ele>
        <time>2018-06-09T09:41:16.157Z</time>
      </trkpt>
      <trkpt lat="37.41088333" lon="-4.39109167">
        <ele>628.0</ele>
        <time>2018-06-09T09:41:17.178Z</time>
      </trkpt>
      <trkpt lat="37.41090833" lon="-4.39113333">
        <ele>627.0</ele>
        <time>2018-06-09T09:41:18.168Z</time>
      </trkpt>
      <trkpt lat="37.41090833" lon="-4.39113333">
        <ele>627.0</ele>
        <time>2018-06-09T09:41:19.165Z</time>
      </trkpt>
      <trkpt lat="37.410945" lon="-4.39117833">
        <ele>627.0</ele>
        <time>2018-06-09T09:41:20.160Z</time>
      </trkpt>
      <trkpt lat="37.41096" lon="-4.3912">
        <ele>627.0</ele>
        <time>2018-06-09T09:41:21.192Z</time>
      </trkpt>
      <trkpt lat="37.410975" lon="-4.39121833">
        <ele>627.0</ele>
        <time>2018-06-09T09:41:22.178Z</time>
      </trkpt>
      <trkpt lat="37.410975" lon="-4.39121833">
        <ele>627.0</ele>
        <time>2018-06-09T09:41:23.185Z</time>
      </trkpt>
      <trkpt lat="37.41100667" lon="-4.39123833">
        <ele>626.0</ele>
        <time>2018-06-09T09:41:24.168Z</time>
      </trkpt>
      <trkpt lat="37.41100667" lon="-4.39123833">
        <ele>626.0</ele>
        <time>2018-06-09T09:41:25.176Z</time>
      </trkpt>
      <trkpt lat="37.41103667" lon="-4.39125167">
        <ele>627.0</ele>
        <time>2018-06-09T09:41:26.195Z</time>
      </trkpt>
      <trkpt lat="37.41103667" lon="-4.39125167">
        <ele>627.0</ele>
        <time>2018-06-09T09:41:27.176Z</time>
      </trkpt>
      <trkpt lat="37.41106167" lon="-4.39128">
        <ele>627.0</ele>
        <time>2018-06-09T09:41:28.162Z</time>
      </trkpt>
      <trkpt lat="37.41107333" lon="-4.3913">
        <ele>627.0</ele>
        <time>2018-06-09T09:41:29.190Z</time>
      </trkpt>
      <trkpt lat="37.41107333" lon="-4.3913">
        <ele>627.0</ele>
        <time>2018-06-09T09:41:30.166Z</time>
      </trkpt>
      <trkpt lat="37.41110167" lon="-4.39133667">
        <ele>627.0</ele>
        <time>2018-06-09T09:41:31.183Z</time>
      </trkpt>
      <trkpt lat="37.41110167" lon="-4.39133667">
        <ele>627.0</ele>
        <time>2018-06-09T09:41:32.165Z</time>
      </trkpt>
      <trkpt lat="37.41112833" lon="-4.39136333">
        <ele>627.0</ele>
        <time>2018-06-09T09:41:33.182Z</time>
      </trkpt>
      <trkpt lat="37.41114167" lon="-4.39136833">
        <ele>626.0</ele>
        <time>2018-06-09T09:41:34.169Z</time>
      </trkpt>
      <trkpt lat="37.41115667" lon="-4.39137167">
        <ele>626.0</ele>
        <time>2018-06-09T09:41:35.175Z</time>
      </trkpt>
      <trkpt lat="37.41115667" lon="-4.39137167">
        <ele>626.0</ele>
        <time>2018-06-09T09:41:36.181Z</time>
      </trkpt>
      <trkpt lat="37.41118667" lon="-4.39138333">
        <ele>627.0</ele>
        <time>2018-06-09T09:41:37.171Z</time>
      </trkpt>
      <trkpt lat="37.41120167" lon="-4.39138833">
        <ele>627.0</ele>
        <time>2018-06-09T09:41:38.161Z</time>
      </trkpt>
      <trkpt lat="37.41120167" lon="-4.39138833">
        <ele>627.0</ele>
        <time>2018-06-09T09:41:39.169Z</time>
      </trkpt>
      <trkpt lat="37.41123" lon="-4.391395">
        <ele>628.0</ele>
        <time>2018-06-09T09:41:40.193Z</time>
      </trkpt>
      <trkpt lat="37.41124333" lon="-4.391395">
        <ele>628.0</ele>
        <time>2018-06-09T09:41:41.165Z</time>
      </trkpt>
      <trkpt lat="37.41124333" lon="-4.391395">
        <ele>628.0</ele>
        <time>2018-06-09T09:41:42.170Z</time>
      </trkpt>
      <trkpt lat="37.41127167" lon="-4.39139167">
        <ele>629.0</ele>
        <time>2018-06-09T09:41:43.193Z</time>
      </trkpt>
      <trkpt lat="37.41127167" lon="-4.39139167">
        <ele>629.0</ele>
        <time>2018-06-09T09:41:44.187Z</time>
      </trkpt>
      <trkpt lat="37.4113" lon="-4.391405">
        <ele>630.0</ele>
        <time>2018-06-09T09:41:45.167Z</time>
      </trkpt>
      <trkpt lat="37.4113" lon="-4.391405">
        <ele>630.0</ele>
        <time>2018-06-09T09:41:46.175Z</time>
      </trkpt>
      <trkpt lat="37.41132833" lon="-4.39141833">
        <ele>631.0</ele>
        <time>2018-06-09T09:41:47.181Z</time>
      </trkpt>
      <trkpt lat="37.41132833" lon="-4.39141833">
        <ele>631.0</ele>
        <time>2018-06-09T09:41:48.168Z</time>
      </trkpt>
      <trkpt lat="37.41136" lon="-4.391435">
        <ele>632.0</ele>
        <time>2018-06-09T09:41:49.157Z</time>
      </trkpt>
      <trkpt lat="37.41136" lon="-4.391435">
        <ele>632.0</ele>
        <time>2018-06-09T09:41:50.170Z</time>
      </trkpt>
      <trkpt lat="37.41138667" lon="-4.39145667">
        <ele>633.0</ele>
        <time>2018-06-09T09:41:51.193Z</time>
      </trkpt>
      <trkpt lat="37.41138667" lon="-4.39145667">
        <ele>633.0</ele>
        <time>2018-06-09T09:41:52.160Z</time>
      </trkpt>
      <trkpt lat="37.41142167" lon="-4.39148667">
        <ele>633.0</ele>
        <time>2018-06-09T09:41:53.179Z</time>
      </trkpt>
      <trkpt lat="37.41142167" lon="-4.39148667">
        <ele>633.0</ele>
        <time>2018-06-09T09:41:54.184Z</time>
      </trkpt>
      <trkpt lat="37.411465" lon="-4.391525">
        <ele>634.0</ele>
        <time>2018-06-09T09:41:55.183Z</time>
      </trkpt>
      <trkpt lat="37.41147833" lon="-4.39153833">
        <ele>634.0</ele>
        <time>2018-06-09T09:41:56.172Z</time>
      </trkpt>
      <trkpt lat="37.41147833" lon="-4.39153833">
        <ele>634.0</ele>
        <time>2018-06-09T09:41:57.178Z</time>
      </trkpt>
      <trkpt lat="37.41150333" lon="-4.39158">
        <ele>634.0</ele>
        <time>2018-06-09T09:41:58.172Z</time>
      </trkpt>
      <trkpt lat="37.41151833" lon="-4.391595">
        <ele>634.0</ele>
        <time>2018-06-09T09:41:59.194Z</time>
      </trkpt>
      <trkpt lat="37.41151833" lon="-4.391595">
        <ele>634.0</ele>
        <time>2018-06-09T09:42:00.160Z</time>
      </trkpt>
      <trkpt lat="37.41155667" lon="-4.39161833">
        <ele>634.0</ele>
        <time>2018-06-09T09:42:01.176Z</time>
      </trkpt>
      <trkpt lat="37.41155667" lon="-4.39161833">
        <ele>634.0</ele>
        <time>2018-06-09T09:42:02.181Z</time>
      </trkpt>
      <trkpt lat="37.41159167" lon="-4.39163833">
        <ele>633.0</ele>
        <time>2018-06-09T09:42:03.162Z</time>
      </trkpt>
      <trkpt lat="37.41159167" lon="-4.39163833">
        <ele>633.0</ele>
        <time>2018-06-09T09:42:04.175Z</time>
      </trkpt>
      <trkpt lat="37.41161833" lon="-4.39165833">
        <ele>633.0</ele>
        <time>2018-06-09T09:42:05.157Z</time>
      </trkpt>
      <trkpt lat="37.41163333" lon="-4.39166667">
        <ele>633.0</ele>
        <time>2018-06-09T09:42:06.190Z</time>
      </trkpt>
      <trkpt lat="37.41163333" lon="-4.39166667">
        <ele>633.0</ele>
        <time>2018-06-09T09:42:07.174Z</time>
      </trkpt>
      <trkpt lat="37.41166333" lon="-4.39167667">
        <ele>633.0</ele>
        <time>2018-06-09T09:42:08.157Z</time>
      </trkpt>
      <trkpt lat="37.41166333" lon="-4.39167667">
        <ele>633.0</ele>
        <time>2018-06-09T09:42:09.178Z</time>
      </trkpt>
      <trkpt lat="37.41169" lon="-4.39169167">
        <ele>632.0</ele>
        <time>2018-06-09T09:42:10.177Z</time>
      </trkpt>
      <trkpt lat="37.41170167" lon="-4.39170167">
        <ele>632.0</ele>
        <time>2018-06-09T09:42:11.169Z</time>
      </trkpt>
      <trkpt lat="37.41170167" lon="-4.39170167">
        <ele>632.0</ele>
        <time>2018-06-09T09:42:12.177Z</time>
      </trkpt>
      <trkpt lat="37.411725" lon="-4.39172167">
        <ele>632.0</ele>
        <time>2018-06-09T09:42:13.161Z</time>
      </trkpt>
      <trkpt lat="37.41173833" lon="-4.39173167">
        <ele>632.0</ele>
        <time>2018-06-09T09:42:14.195Z</time>
      </trkpt>
      <trkpt lat="37.41173833" lon="-4.39173167">
        <ele>632.0</ele>
        <time>2018-06-09T09:42:15.161Z</time>
      </trkpt>
      <trkpt lat="37.411765" lon="-4.39175167">
        <ele>633.0</ele>
        <time>2018-06-09T09:42:16.191Z</time>
      </trkpt>
      <trkpt lat="37.41178167" lon="-4.39175833">
        <ele>633.0</ele>
        <time>2018-06-09T09:42:17.190Z</time>
      </trkpt>
      <trkpt lat="37.41178167" lon="-4.39175833">
        <ele>633.0</ele>
        <time>2018-06-09T09:42:18.196Z</time>
      </trkpt>
      <trkpt lat="37.41181" lon="-4.39176">
        <ele>634.0</ele>
        <time>2018-06-09T09:42:19.174Z</time>
      </trkpt>
      <trkpt lat="37.411825" lon="-4.39176">
        <ele>634.0</ele>
        <time>2018-06-09T09:42:20.192Z</time>
      </trkpt>
      <trkpt lat="37.411825" lon="-4.39176">
        <ele>634.0</ele>
        <time>2018-06-09T09:42:21.157Z</time>
      </trkpt>
      <trkpt lat="37.411855" lon="-4.39176167">
        <ele>635.0</ele>
        <time>2018-06-09T09:42:22.177Z</time>
      </trkpt>
      <trkpt lat="37.41187167" lon="-4.39176333">
        <ele>636.0</ele>
        <time>2018-06-09T09:42:23.196Z</time>
      </trkpt>
      <trkpt lat="37.41187167" lon="-4.39176333">
        <ele>636.0</ele>
        <time>2018-06-09T09:42:24.181Z</time>
      </trkpt>
      <trkpt lat="37.4119" lon="-4.39177667">
        <ele>637.0</ele>
        <time>2018-06-09T09:42:25.170Z</time>
      </trkpt>
      <trkpt lat="37.4119" lon="-4.39177667">
        <ele>637.0</ele>
        <time>2018-06-09T09:42:26.184Z</time>
      </trkpt>
      <trkpt lat="37.41193" lon="-4.391805">
        <ele>638.0</ele>
        <time>2018-06-09T09:42:27.166Z</time>
      </trkpt>
      <trkpt lat="37.41193" lon="-4.391805">
        <ele>638.0</ele>
        <time>2018-06-09T09:42:28.174Z</time>
      </trkpt>
      <trkpt lat="37.411955" lon="-4.39183833">
        <ele>638.0</ele>
        <time>2018-06-09T09:42:29.189Z</time>
      </trkpt>
      <trkpt lat="37.411955" lon="-4.39183833">
        <ele>638.0</ele>
        <time>2018-06-09T09:42:30.166Z</time>
      </trkpt>
      <trkpt lat="37.41198333" lon="-4.39187">
        <ele>639.0</ele>
        <time>2018-06-09T09:42:31.159Z</time>
      </trkpt>
      <trkpt lat="37.41199667" lon="-4.39188167">
        <ele>639.0</ele>
        <time>2018-06-09T09:42:32.196Z</time>
      </trkpt>
      <trkpt lat="37.41199667" lon="-4.39188167">
        <ele>639.0</ele>
        <time>2018-06-09T09:42:33.175Z</time>
      </trkpt>
      <trkpt lat="37.41201833" lon="-4.391905">
        <ele>640.0</ele>
        <time>2018-06-09T09:42:34.164Z</time>
      </trkpt>
      <trkpt lat="37.41201833" lon="-4.391905">
        <ele>640.0</ele>
        <time>2018-06-09T09:42:35.177Z</time>
      </trkpt>
      <trkpt lat="37.41204333" lon="-4.39192333">
        <ele>640.0</ele>
        <time>2018-06-09T09:42:36.163Z</time>
      </trkpt>
      <trkpt lat="37.41204333" lon="-4.39192333">
        <ele>640.0</ele>
        <time>2018-06-09T09:42:37.169Z</time>
      </trkpt>
      <trkpt lat="37.41207167" lon="-4.39193167">
        <ele>641.0</ele>
        <time>2018-06-09T09:42:38.166Z</time>
      </trkpt>
      <trkpt lat="37.412085" lon="-4.39193667">
        <ele>641.0</ele>
        <time>2018-06-09T09:42:39.192Z</time>
      </trkpt>
      <trkpt lat="37.412085" lon="-4.39193667">
        <ele>641.0</ele>
        <time>2018-06-09T09:42:40.177Z</time>
      </trkpt>
      <trkpt lat="37.412115" lon="-4.391955">
        <ele>642.0</ele>
        <time>2018-06-09T09:42:41.163Z</time>
      </trkpt>
      <trkpt lat="37.412115" lon="-4.391955">
        <ele>642.0</ele>
        <time>2018-06-09T09:42:42.174Z</time>
      </trkpt>
      <trkpt lat="37.41215167" lon="-4.39197167">
        <ele>643.0</ele>
        <time>2018-06-09T09:42:43.167Z</time>
      </trkpt>
      <trkpt lat="37.41215167" lon="-4.39197167">
        <ele>643.0</ele>
        <time>2018-06-09T09:42:44.174Z</time>
      </trkpt>
      <trkpt lat="37.41218667" lon="-4.39199167">
        <ele>644.0</ele>
        <time>2018-06-09T09:42:45.168Z</time>
      </trkpt>
      <trkpt lat="37.41220167" lon="-4.39200167">
        <ele>645.0</ele>
        <time>2018-06-09T09:42:46.190Z</time>
      </trkpt>
      <trkpt lat="37.41220167" lon="-4.39200167">
        <ele>645.0</ele>
        <time>2018-06-09T09:42:47.178Z</time>
      </trkpt>
      <trkpt lat="37.41223333" lon="-4.39200833">
        <ele>646.0</ele>
        <time>2018-06-09T09:42:48.189Z</time>
      </trkpt>
      <trkpt lat="37.41223333" lon="-4.39200833">
        <ele>646.0</ele>
        <time>2018-06-09T09:42:49.195Z</time>
      </trkpt>
      <trkpt lat="37.41226333" lon="-4.39200833">
        <ele>646.0</ele>
        <time>2018-06-09T09:42:50.170Z</time>
      </trkpt>
      <trkpt lat="37.41227833" lon="-4.39201333">
        <ele>647.0</ele>
        <time>2018-06-09T09:42:51.171Z</time>
      </trkpt>
      <trkpt lat="37.41227833" lon="-4.39201333">
        <ele>647.0</ele>
        <time>2018-06-09T09:42:52.179Z</time>
      </trkpt>
      <trkpt lat="37.41230333" lon="-4.392025">
        <ele>647.0</ele>
        <time>2018-06-09T09:42:53.166Z</time>
      </trkpt>
      <trkpt lat="37.41230333" lon="-4.392025">
        <ele>647.0</ele>
        <time>2018-06-09T09:42:54.177Z</time>
      </trkpt>
      <trkpt lat="37.41232333" lon="-4.392055">
        <ele>647.0</ele>
        <time>2018-06-09T09:42:55.157Z</time>
      </trkpt>
      <trkpt lat="37.41233" lon="-4.39207333">
        <ele>646.0</ele>
        <time>2018-06-09T09:42:56.175Z</time>
      </trkpt>
      <trkpt lat="37.41233" lon="-4.39207333">
        <ele>646.0</ele>
        <time>2018-06-09T09:42:57.191Z</time>
      </trkpt>
      <trkpt lat="37.41234667" lon="-4.39211">
        <ele>646.0</ele>
        <time>2018-06-09T09:42:58.191Z</time>
      </trkpt>
      <trkpt lat="37.41235333" lon="-4.39212667">
        <ele>646.0</ele>
        <time>2018-06-09T09:42:59.180Z</time>
      </trkpt>
      <trkpt lat="37.41235333" lon="-4.39212667">
        <ele>646.0</ele>
        <time>2018-06-09T09:43:00.186Z</time>
      </trkpt>
      <trkpt lat="37.412375" lon="-4.39218333">
        <ele>646.0</ele>
        <time>2018-06-09T09:43:01.182Z</time>
      </trkpt>
      <trkpt lat="37.412375" lon="-4.39218333">
        <ele>646.0</ele>
        <time>2018-06-09T09:43:02.187Z</time>
      </trkpt>
      <trkpt lat="37.41240833" lon="-4.39223333">
        <ele>646.0</ele>
        <time>2018-06-09T09:43:03.162Z</time>
      </trkpt>
      <trkpt lat="37.412425" lon="-4.39225">
        <ele>646.0</ele>
        <time>2018-06-09T09:43:04.191Z</time>
      </trkpt>
      <trkpt lat="37.41244167" lon="-4.39226667">
        <ele>646.0</ele>
        <time>2018-06-09T09:43:05.182Z</time>
      </trkpt>
      <trkpt lat="37.41244167" lon="-4.39226667">
        <ele>646.0</ele>
        <time>2018-06-09T09:43:06.187Z</time>
      </trkpt>
      <trkpt lat="37.41247167" lon="-4.39229167">
        <ele>647.0</ele>
        <time>2018-06-09T09:43:07.170Z</time>
      </trkpt>
      <trkpt lat="37.41247167" lon="-4.39229167">
        <ele>647.0</ele>
        <time>2018-06-09T09:43:08.175Z</time>
      </trkpt>
      <trkpt lat="37.412505" lon="-4.392315">
        <ele>646.0</ele>
        <time>2018-06-09T09:43:09.196Z</time>
      </trkpt>
      <trkpt lat="37.412505" lon="-4.392315">
        <ele>646.0</ele>
        <time>2018-06-09T09:43:10.177Z</time>
      </trkpt>
      <trkpt lat="37.41253333" lon="-4.39234">
        <ele>646.0</ele>
        <time>2018-06-09T09:43:11.159Z</time>
      </trkpt>
      <trkpt lat="37.41253333" lon="-4.39234">
        <ele>646.0</ele>
        <time>2018-06-09T09:43:12.175Z</time>
      </trkpt>
      <trkpt lat="37.41256333" lon="-4.39236667">
        <ele>646.0</ele>
        <time>2018-06-09T09:43:13.196Z</time>
      </trkpt>
      <trkpt lat="37.41256333" lon="-4.39236667">
        <ele>646.0</ele>
        <time>2018-06-09T09:43:14.179Z</time>
      </trkpt>
      <trkpt lat="37.4126" lon="-4.39239167">
        <ele>647.0</ele>
        <time>2018-06-09T09:43:15.166Z</time>
      </trkpt>
      <trkpt lat="37.4126" lon="-4.39239167">
        <ele>647.0</ele>
        <time>2018-06-09T09:43:16.188Z</time>
      </trkpt>
      <trkpt lat="37.412635" lon="-4.39242333">
        <ele>648.0</ele>
        <time>2018-06-09T09:43:17.176Z</time>
      </trkpt>
      <trkpt lat="37.412635" lon="-4.39242333">
        <ele>648.0</ele>
        <time>2018-06-09T09:43:18.181Z</time>
      </trkpt>
      <trkpt lat="37.41264833" lon="-4.39245833">
        <ele>648.0</ele>
        <time>2018-06-09T09:43:19.159Z</time>
      </trkpt>
      <trkpt lat="37.41265333" lon="-4.39247333">
        <ele>649.0</ele>
        <time>2018-06-09T09:43:20.168Z</time>
      </trkpt>
      <trkpt lat="37.41265333" lon="-4.39247333">
        <ele>649.0</ele>
        <time>2018-06-09T09:43:21.175Z</time>
      </trkpt>
      <trkpt lat="37.412655" lon="-4.39250667">
        <ele>649.0</ele>
        <time>2018-06-09T09:43:22.169Z</time>
      </trkpt>
      <trkpt lat="37.41265833" lon="-4.392525">
        <ele>649.0</ele>
        <time>2018-06-09T09:43:23.195Z</time>
      </trkpt>
      <trkpt lat="37.41265833" lon="-4.392525">
        <ele>649.0</ele>
        <time>2018-06-09T09:43:24.159Z</time>
      </trkpt>
      <trkpt lat="37.41266167" lon="-4.39256167">
        <ele>649.0</ele>
        <time>2018-06-09T09:43:25.191Z</time>
      </trkpt>
      <trkpt lat="37.41266167" lon="-4.39256167">
        <ele>649.0</ele>
        <time>2018-06-09T09:43:26.168Z</time>
      </trkpt>
      <trkpt lat="37.41267" lon="-4.39260167">
        <ele>649.0</ele>
        <time>2018-06-09T09:43:27.193Z</time>
      </trkpt>
      <trkpt lat="37.41267" lon="-4.39260167">
        <ele>649.0</ele>
        <time>2018-06-09T09:43:28.181Z</time>
      </trkpt>
      <trkpt lat="37.41267667" lon="-4.392645">
        <ele>649.0</ele>
        <time>2018-06-09T09:43:29.170Z</time>
      </trkpt>
      <trkpt lat="37.41267667" lon="-4.392645">
        <ele>649.0</ele>
        <time>2018-06-09T09:43:30.185Z</time>
      </trkpt>
      <trkpt lat="37.41265833" lon="-4.39267167">
        <ele>648.0</ele>
        <time>2018-06-09T09:43:31.171Z</time>
      </trkpt>
      <trkpt lat="37.41265" lon="-4.39268833">
        <ele>649.0</ele>
        <time>2018-06-09T09:43:32.179Z</time>
      </trkpt>
      <trkpt lat="37.41265" lon="-4.39268833">
        <ele>649.0</ele>
        <time>2018-06-09T09:43:33.188Z</time>
      </trkpt>
      <trkpt lat="37.41264833" lon="-4.39272167">
        <ele>649.0</ele>
        <time>2018-06-09T09:43:34.172Z</time>
      </trkpt>
      <trkpt lat="37.41265167" lon="-4.39273667">
        <ele>650.0</ele>
        <time>2018-06-09T09:43:35.170Z</time>
      </trkpt>
      <trkpt lat="37.41265167" lon="-4.39273667">
        <ele>650.0</ele>
        <time>2018-06-09T09:43:36.195Z</time>
      </trkpt>
      <trkpt lat="37.41266" lon="-4.39277167">
        <ele>650.0</ele>
        <time>2018-06-09T09:43:37.178Z</time>
      </trkpt>
      <trkpt lat="37.41266" lon="-4.39277167">
        <ele>650.0</ele>
        <time>2018-06-09T09:43:38.191Z</time>
      </trkpt>
      <trkpt lat="37.412675" lon="-4.39280667">
        <ele>651.0</ele>
        <time>2018-06-09T09:43:39.174Z</time>
      </trkpt>
      <trkpt lat="37.412675" lon="-4.39280667">
        <ele>651.0</ele>
        <time>2018-06-09T09:43:40.158Z</time>
      </trkpt>
      <trkpt lat="37.41267833" lon="-4.39283833">
        <ele>651.0</ele>
        <time>2018-06-09T09:43:41.190Z</time>
      </trkpt>
      <trkpt lat="37.41267833" lon="-4.39283833">
        <ele>651.0</ele>
        <time>2018-06-09T09:43:42.196Z</time>
      </trkpt>
      <trkpt lat="37.41267667" lon="-4.39286833">
        <ele>651.0</ele>
        <time>2018-06-09T09:43:43.179Z</time>
      </trkpt>
      <trkpt lat="37.41267667" lon="-4.39286833">
        <ele>651.0</ele>
        <time>2018-06-09T09:43:44.187Z</time>
      </trkpt>
      <trkpt lat="37.41267167" lon="-4.39289833">
        <ele>652.0</ele>
        <time>2018-06-09T09:43:45.187Z</time>
      </trkpt>
      <trkpt lat="37.41267167" lon="-4.39289833">
        <ele>652.0</ele>
        <time>2018-06-09T09:43:46.193Z</time>
      </trkpt>
      <trkpt lat="37.41266833" lon="-4.39292833">
        <ele>653.0</ele>
        <time>2018-06-09T09:43:47.159Z</time>
      </trkpt>
      <trkpt lat="37.41266833" lon="-4.39292833">
        <ele>653.0</ele>
        <time>2018-06-09T09:43:48.178Z</time>
      </trkpt>
      <trkpt lat="37.412655" lon="-4.39295667">
        <ele>653.0</ele>
        <time>2018-06-09T09:43:49.157Z</time>
      </trkpt>
      <trkpt lat="37.412655" lon="-4.39295667">
        <ele>653.0</ele>
        <time>2018-06-09T09:43:50.181Z</time>
      </trkpt>
      <trkpt lat="37.41263833" lon="-4.39298333">
        <ele>653.0</ele>
        <time>2018-06-09T09:43:51.163Z</time>
      </trkpt>
      <trkpt lat="37.41263833" lon="-4.39298333">
        <ele>653.0</ele>
        <time>2018-06-09T09:43:52.186Z</time>
      </trkpt>
      <trkpt lat="37.41262167" lon="-4.39300667">
        <ele>654.0</ele>
        <time>2018-06-09T09:43:53.182Z</time>
      </trkpt>
      <trkpt lat="37.41262167" lon="-4.39300667">
        <ele>654.0</ele>
        <time>2018-06-09T09:43:54.187Z</time>
      </trkpt>
      <trkpt lat="37.41261667" lon="-4.39303">
        <ele>654.0</ele>
        <time>2018-06-09T09:43:55.162Z</time>
      </trkpt>
      <trkpt lat="37.41261667" lon="-4.39303">
        <ele>654.0</ele>
        <time>2018-06-09T09:43:56.175Z</time>
      </trkpt>
      <trkpt lat="37.41260333" lon="-4.39306333">
        <ele>654.0</ele>
        <time>2018-06-09T09:43:57.196Z</time>
      </trkpt>
      <trkpt lat="37.41260333" lon="-4.39306333">
        <ele>654.0</ele>
        <time>2018-06-09T09:43:58.165Z</time>
      </trkpt>
      <trkpt lat="37.41259" lon="-4.39309333">
        <ele>654.0</ele>
        <time>2018-06-09T09:43:59.192Z</time>
      </trkpt>
      <trkpt lat="37.41259" lon="-4.39309333">
        <ele>654.0</ele>
        <time>2018-06-09T09:44:00.157Z</time>
      </trkpt>
      <trkpt lat="37.412585" lon="-4.39312167">
        <ele>654.0</ele>
        <time>2018-06-09T09:44:01.170Z</time>
      </trkpt>
      <trkpt lat="37.412585" lon="-4.39312167">
        <ele>654.0</ele>
        <time>2018-06-09T09:44:02.180Z</time>
      </trkpt>
      <trkpt lat="37.41258167" lon="-4.39314833">
        <ele>655.0</ele>
        <time>2018-06-09T09:44:03.171Z</time>
      </trkpt>
      <trkpt lat="37.41258" lon="-4.39316167">
        <ele>655.0</ele>
        <time>2018-06-09T09:44:04.158Z</time>
      </trkpt>
      <trkpt lat="37.41257833" lon="-4.39317667">
        <ele>655.0</ele>
        <time>2018-06-09T09:44:05.172Z</time>
      </trkpt>
      <trkpt lat="37.41257833" lon="-4.39317667">
        <ele>655.0</ele>
        <time>2018-06-09T09:44:06.190Z</time>
      </trkpt>
      <trkpt lat="37.41257667" lon="-4.39320667">
        <ele>656.0</ele>
        <time>2018-06-09T09:44:07.178Z</time>
      </trkpt>
      <trkpt lat="37.41257667" lon="-4.39320667">
        <ele>656.0</ele>
        <time>2018-06-09T09:44:08.185Z</time>
      </trkpt>
      <trkpt lat="37.412575" lon="-4.393235">
        <ele>656.0</ele>
        <time>2018-06-09T09:44:09.182Z</time>
      </trkpt>
      <trkpt lat="37.412575" lon="-4.393235">
        <ele>656.0</ele>
        <time>2018-06-09T09:44:10.164Z</time>
      </trkpt>
      <trkpt lat="37.41257167" lon="-4.393265">
        <ele>657.0</ele>
        <time>2018-06-09T09:44:11.193Z</time>
      </trkpt>
      <trkpt lat="37.41257167" lon="-4.393265">
        <ele>657.0</ele>
        <time>2018-06-09T09:44:12.160Z</time>
      </trkpt>
      <trkpt lat="37.412565" lon="-4.39329333">
        <ele>657.0</ele>
        <time>2018-06-09T09:44:13.192Z</time>
      </trkpt>
      <trkpt lat="37.412565" lon="-4.39329333">
        <ele>657.0</ele>
        <time>2018-06-09T09:44:14.171Z</time>
      </trkpt>
      <trkpt lat="37.41255667" lon="-4.39332">
        <ele>657.0</ele>
        <time>2018-06-09T09:44:15.185Z</time>
      </trkpt>
      <trkpt lat="37.412555" lon="-4.39333333">
        <ele>658.0</ele>
        <time>2018-06-09T09:44:16.172Z</time>
      </trkpt>
      <trkpt lat="37.412555" lon="-4.39333333">
        <ele>658.0</ele>
        <time>2018-06-09T09:44:17.179Z</time>
      </trkpt>
      <trkpt lat="37.412545" lon="-4.39335833">
        <ele>658.0</ele>
        <time>2018-06-09T09:44:18.172Z</time>
      </trkpt>
      <trkpt lat="37.412545" lon="-4.39335833">
        <ele>658.0</ele>
        <time>2018-06-09T09:44:19.183Z</time>
      </trkpt>
      <trkpt lat="37.41253333" lon="-4.39337833">
        <ele>658.0</ele>
        <time>2018-06-09T09:44:20.180Z</time>
      </trkpt>
      <trkpt lat="37.41253333" lon="-4.39337833">
        <ele>658.0</ele>
        <time>2018-06-09T09:44:21.162Z</time>
      </trkpt>
      <trkpt lat="37.41252333" lon="-4.39339667">
        <ele>658.0</ele>
        <time>2018-06-09T09:44:22.188Z</time>
      </trkpt>
      <trkpt lat="37.41252" lon="-4.393405">
        <ele>658.0</ele>
        <time>2018-06-09T09:44:23.194Z</time>
      </trkpt>
      <trkpt lat="37.41252" lon="-4.393405">
        <ele>658.0</ele>
        <time>2018-06-09T09:44:24.187Z</time>
      </trkpt>
      <trkpt lat="37.41251167" lon="-4.39342833">
        <ele>659.0</ele>
        <time>2018-06-09T09:44:25.173Z</time>
      </trkpt>
      <trkpt lat="37.41250833" lon="-4.39344333">
        <ele>659.0</ele>
        <time>2018-06-09T09:44:26.163Z</time>
      </trkpt>
      <trkpt lat="37.41250833" lon="-4.39344333">
        <ele>659.0</ele>
        <time>2018-06-09T09:44:27.177Z</time>
      </trkpt>
      <trkpt lat="37.41250833" lon="-4.39347333">
        <ele>659.0</ele>
        <time>2018-06-09T09:44:28.170Z</time>
      </trkpt>
      <trkpt lat="37.41250833" lon="-4.39348833">
        <ele>660.0</ele>
        <time>2018-06-09T09:44:29.195Z</time>
      </trkpt>
      <trkpt lat="37.41250833" lon="-4.39348833">
        <ele>660.0</ele>
        <time>2018-06-09T09:44:30.159Z</time>
      </trkpt>
      <trkpt lat="37.412505" lon="-4.393505">
        <ele>660.0</ele>
        <time>2018-06-09T09:44:31.184Z</time>
      </trkpt>
      <trkpt lat="37.412505" lon="-4.393505">
        <ele>660.0</ele>
        <time>2018-06-09T09:44:32.189Z</time>
      </trkpt>
      <trkpt lat="37.41249333" lon="-4.39352667">
        <ele>660.0</ele>
        <time>2018-06-09T09:44:33.180Z</time>
      </trkpt>
      <trkpt lat="37.41249333" lon="-4.39352667">
        <ele>660.0</ele>
        <time>2018-06-09T09:44:34.185Z</time>
      </trkpt>
      <trkpt lat="37.41248333" lon="-4.39354">
        <ele>660.0</ele>
        <time>2018-06-09T09:44:35.163Z</time>
      </trkpt>
      <trkpt lat="37.41248333" lon="-4.39354">
        <ele>660.0</ele>
        <time>2018-06-09T09:44:36.179Z</time>
      </trkpt>
      <trkpt lat="37.41248333" lon="-4.39356667">
        <ele>660.0</ele>
        <time>2018-06-09T09:44:37.179Z</time>
      </trkpt>
      <trkpt lat="37.412485" lon="-4.39358">
        <ele>660.0</ele>
        <time>2018-06-09T09:44:38.168Z</time>
      </trkpt>
      <trkpt lat="37.41248167" lon="-4.393595">
        <ele>660.0</ele>
        <time>2018-06-09T09:44:39.163Z</time>
      </trkpt>
      <trkpt lat="37.41248167" lon="-4.393595">
        <ele>660.0</ele>
        <time>2018-06-09T09:44:40.179Z</time>
      </trkpt>
      <trkpt lat="37.41247833" lon="-4.39362167">
        <ele>661.0</ele>
        <time>2018-06-09T09:44:41.164Z</time>
      </trkpt>
      <trkpt lat="37.41247833" lon="-4.39362167">
        <ele>661.0</ele>
        <time>2018-06-09T09:44:42.173Z</time>
      </trkpt>
      <trkpt lat="37.41247333" lon="-4.39365333">
        <ele>661.0</ele>
        <time>2018-06-09T09:44:43.160Z</time>
      </trkpt>
      <trkpt lat="37.41247333" lon="-4.39365333">
        <ele>661.0</ele>
        <time>2018-06-09T09:44:44.177Z</time>
      </trkpt>
      <trkpt lat="37.41247167" lon="-4.39368333">
        <ele>662.0</ele>
        <time>2018-06-09T09:44:45.158Z</time>
      </trkpt>
      <trkpt lat="37.41247167" lon="-4.393695">
        <ele>662.0</ele>
        <time>2018-06-09T09:44:46.182Z</time>
      </trkpt>
      <trkpt lat="37.41247167" lon="-4.393695">
        <ele>662.0</ele>
        <time>2018-06-09T09:44:47.179Z</time>
      </trkpt>
      <trkpt lat="37.41247167" lon="-4.39372667">
        <ele>662.0</ele>
        <time>2018-06-09T09:44:48.174Z</time>
      </trkpt>
      <trkpt lat="37.41247167" lon="-4.39372667">
        <ele>662.0</ele>
        <time>2018-06-09T09:44:49.184Z</time>
      </trkpt>
      <trkpt lat="37.41247" lon="-4.39375333">
        <ele>663.0</ele>
        <time>2018-06-09T09:44:50.169Z</time>
      </trkpt>
      <trkpt lat="37.41247" lon="-4.39375333">
        <ele>663.0</ele>
        <time>2018-06-09T09:44:51.178Z</time>
      </trkpt>
      <trkpt lat="37.41246667" lon="-4.39378333">
        <ele>663.0</ele>
        <time>2018-06-09T09:44:52.157Z</time>
      </trkpt>
      <trkpt lat="37.41246667" lon="-4.39378333">
        <ele>663.0</ele>
        <time>2018-06-09T09:44:53.164Z</time>
      </trkpt>
      <trkpt lat="37.41246" lon="-4.39381333">
        <ele>664.0</ele>
        <time>2018-06-09T09:44:54.197Z</time>
      </trkpt>
      <trkpt lat="37.41246" lon="-4.39381333">
        <ele>664.0</ele>
        <time>2018-06-09T09:44:55.177Z</time>
      </trkpt>
      <trkpt lat="37.41245333" lon="-4.393845">
        <ele>664.0</ele>
        <time>2018-06-09T09:44:56.172Z</time>
      </trkpt>
      <trkpt lat="37.41245333" lon="-4.393845">
        <ele>664.0</ele>
        <time>2018-06-09T09:44:57.191Z</time>
      </trkpt>
      <trkpt lat="37.41243833" lon="-4.39387">
        <ele>663.0</ele>
        <time>2018-06-09T09:44:58.178Z</time>
      </trkpt>
      <trkpt lat="37.41243" lon="-4.39387833">
        <ele>663.0</ele>
        <time>2018-06-09T09:44:59.181Z</time>
      </trkpt>
      <trkpt lat="37.41243" lon="-4.39387833">
        <ele>663.0</ele>
        <time>2018-06-09T09:45:00.165Z</time>
      </trkpt>
      <trkpt lat="37.41240333" lon="-4.39389167">
        <ele>663.0</ele>
        <time>2018-06-09T09:45:01.177Z</time>
      </trkpt>
      <trkpt lat="37.41238667" lon="-4.39389333">
        <ele>663.0</ele>
        <time>2018-06-09T09:45:02.184Z</time>
      </trkpt>
      <trkpt lat="37.41238667" lon="-4.39389333">
        <ele>663.0</ele>
        <time>2018-06-09T09:45:03.194Z</time>
      </trkpt>
      <trkpt lat="37.41235667" lon="-4.39388667">
        <ele>663.0</ele>
        <time>2018-06-09T09:45:04.172Z</time>
      </trkpt>
      <trkpt lat="37.41234333" lon="-4.39388">
        <ele>664.0</ele>
        <time>2018-06-09T09:45:05.166Z</time>
      </trkpt>
      <trkpt lat="37.41233" lon="-4.39387333">
        <ele>664.0</ele>
        <time>2018-06-09T09:45:06.193Z</time>
      </trkpt>
      <trkpt lat="37.41233" lon="-4.39387333">
        <ele>664.0</ele>
        <time>2018-06-09T09:45:07.163Z</time>
      </trkpt>
      <trkpt lat="37.41230667" lon="-4.39385167">
        <ele>664.0</ele>
        <time>2018-06-09T09:45:08.187Z</time>
      </trkpt>
      <trkpt lat="37.41230667" lon="-4.39385167">
        <ele>664.0</ele>
        <time>2018-06-09T09:45:09.193Z</time>
      </trkpt>
      <trkpt lat="37.41228833" lon="-4.39382">
        <ele>664.0</ele>
        <time>2018-06-09T09:45:10.182Z</time>
      </trkpt>
      <trkpt lat="37.41228" lon="-4.393805">
        <ele>664.0</ele>
        <time>2018-06-09T09:45:11.186Z</time>
      </trkpt>
      <trkpt lat="37.41228" lon="-4.393805">
        <ele>664.0</ele>
        <time>2018-06-09T09:45:12.192Z</time>
      </trkpt>
      <trkpt lat="37.41226667" lon="-4.39377167">
        <ele>665.0</ele>
        <time>2018-06-09T09:45:13.178Z</time>
      </trkpt>
      <trkpt lat="37.41226667" lon="-4.39377167">
        <ele>665.0</ele>
        <time>2018-06-09T09:45:14.185Z</time>
      </trkpt>
      <trkpt lat="37.41225833" lon="-4.39374167">
        <ele>665.0</ele>
        <time>2018-06-09T09:45:15.157Z</time>
      </trkpt>
      <trkpt lat="37.41225667" lon="-4.39373">
        <ele>665.0</ele>
        <time>2018-06-09T09:45:16.174Z</time>
      </trkpt>
      <trkpt lat="37.41225667" lon="-4.39373">
        <ele>665.0</ele>
        <time>2018-06-09T09:45:17.188Z</time>
      </trkpt>
      <trkpt lat="37.412235" lon="-4.39370333">
        <ele>666.0</ele>
        <time>2018-06-09T09:45:18.182Z</time>
      </trkpt>
      <trkpt lat="37.412235" lon="-4.39370333">
        <ele>666.0</ele>
        <time>2018-06-09T09:45:19.188Z</time>
      </trkpt>
      <trkpt lat="37.412215" lon="-4.393675">
        <ele>666.0</ele>
        <time>2018-06-09T09:45:20.174Z</time>
      </trkpt>
      <trkpt lat="37.412215" lon="-4.393675">
        <ele>666.0</ele>
        <time>2018-06-09T09:45:21.193Z</time>
      </trkpt>
      <trkpt lat="37.4122" lon="-4.39365333">
        <ele>667.0</ele>
        <time>2018-06-09T09:45:22.171Z</time>
      </trkpt>
      <trkpt lat="37.4122" lon="-4.39365333">
        <ele>667.0</ele>
        <time>2018-06-09T09:45:23.178Z</time>
      </trkpt>
      <trkpt lat="37.41218667" lon="-4.393625">
        <ele>667.0</ele>
        <time>2018-06-09T09:45:24.161Z</time>
      </trkpt>
      <trkpt lat="37.41218667" lon="-4.393625">
        <ele>667.0</ele>
        <time>2018-06-09T09:45:25.167Z</time>
      </trkpt>
      <trkpt lat="37.41216333" lon="-4.3936">
        <ele>667.0</ele>
        <time>2018-06-09T09:45:26.168Z</time>
      </trkpt>
      <trkpt lat="37.41216333" lon="-4.3936">
        <ele>667.0</ele>
        <time>2018-06-09T09:45:27.186Z</time>
      </trkpt>
      <trkpt lat="37.41214667" lon="-4.39357167">
        <ele>667.0</ele>
        <time>2018-06-09T09:45:28.166Z</time>
      </trkpt>
      <trkpt lat="37.41214667" lon="-4.39357167">
        <ele>667.0</ele>
        <time>2018-06-09T09:45:29.185Z</time>
      </trkpt>
      <trkpt lat="37.41212833" lon="-4.39354167">
        <ele>667.0</ele>
        <time>2018-06-09T09:45:30.164Z</time>
      </trkpt>
      <trkpt lat="37.41212833" lon="-4.39354167">
        <ele>667.0</ele>
        <time>2018-06-09T09:45:31.169Z</time>
      </trkpt>
      <trkpt lat="37.41209667" lon="-4.39351667">
        <ele>667.0</ele>
        <time>2018-06-09T09:45:32.194Z</time>
      </trkpt>
      <trkpt lat="37.41208333" lon="-4.39350833">
        <ele>667.0</ele>
        <time>2018-06-09T09:45:33.182Z</time>
      </trkpt>
      <trkpt lat="37.41208333" lon="-4.39350833">
        <ele>667.0</ele>
        <time>2018-06-09T09:45:34.163Z</time>
      </trkpt>
      <trkpt lat="37.412065" lon="-4.39349333">
        <ele>668.0</ele>
        <time>2018-06-09T09:45:35.189Z</time>
      </trkpt>
      <trkpt lat="37.412065" lon="-4.39349333">
        <ele>668.0</ele>
        <time>2018-06-09T09:45:36.165Z</time>
      </trkpt>
      <trkpt lat="37.41204167" lon="-4.393485">
        <ele>668.0</ele>
        <time>2018-06-09T09:45:37.186Z</time>
      </trkpt>
      <trkpt lat="37.41204167" lon="-4.393485">
        <ele>668.0</ele>
        <time>2018-06-09T09:45:38.191Z</time>
      </trkpt>
      <trkpt lat="37.41201667" lon="-4.39347833">
        <ele>669.0</ele>
        <time>2018-06-09T09:45:39.163Z</time>
      </trkpt>
      <trkpt lat="37.41201667" lon="-4.39347833">
        <ele>669.0</ele>
        <time>2018-06-09T09:45:40.168Z</time>
      </trkpt>
      <trkpt lat="37.411995" lon="-4.39349">
        <ele>669.0</ele>
        <time>2018-06-09T09:45:41.188Z</time>
      </trkpt>
      <trkpt lat="37.411995" lon="-4.39349">
        <ele>669.0</ele>
        <time>2018-06-09T09:45:42.165Z</time>
      </trkpt>
      <trkpt lat="37.41197333" lon="-4.393505">
        <ele>670.0</ele>
        <time>2018-06-09T09:45:43.188Z</time>
      </trkpt>
      <trkpt lat="37.41197333" lon="-4.393505">
        <ele>670.0</ele>
        <time>2018-06-09T09:45:44.194Z</time>
      </trkpt>
      <trkpt lat="37.41194833" lon="-4.39351333">
        <ele>671.0</ele>
        <time>2018-06-09T09:45:45.172Z</time>
      </trkpt>
      <trkpt lat="37.41193667" lon="-4.393515">
        <ele>671.0</ele>
        <time>2018-06-09T09:45:46.164Z</time>
      </trkpt>
      <trkpt lat="37.41193667" lon="-4.393515">
        <ele>671.0</ele>
        <time>2018-06-09T09:45:47.174Z</time>
      </trkpt>
      <trkpt lat="37.41190667" lon="-4.393515">
        <ele>672.0</ele>
        <time>2018-06-09T09:45:48.162Z</time>
      </trkpt>
      <trkpt lat="37.41190667" lon="-4.393515">
        <ele>672.0</ele>
        <time>2018-06-09T09:45:49.179Z</time>
      </trkpt>
      <trkpt lat="37.41188167" lon="-4.39352167">
        <ele>672.0</ele>
        <time>2018-06-09T09:45:50.168Z</time>
      </trkpt>
      <trkpt lat="37.41187" lon="-4.39352">
        <ele>673.0</ele>
        <time>2018-06-09T09:45:51.187Z</time>
      </trkpt>
      <trkpt lat="37.41187" lon="-4.39352">
        <ele>673.0</ele>
        <time>2018-06-09T09:45:52.164Z</time>
      </trkpt>
      <trkpt lat="37.41184" lon="-4.39351667">
        <ele>673.0</ele>
        <time>2018-06-09T09:45:53.180Z</time>
      </trkpt>
      <trkpt lat="37.41184" lon="-4.39351667">
        <ele>673.0</ele>
        <time>2018-06-09T09:45:54.160Z</time>
      </trkpt>
      <trkpt lat="37.411815" lon="-4.39352167">
        <ele>674.0</ele>
        <time>2018-06-09T09:45:55.186Z</time>
      </trkpt>
      <trkpt lat="37.41180333" lon="-4.39352833">
        <ele>674.0</ele>
        <time>2018-06-09T09:45:56.174Z</time>
      </trkpt>
      <trkpt lat="37.41180333" lon="-4.39352833">
        <ele>674.0</ele>
        <time>2018-06-09T09:45:57.180Z</time>
      </trkpt>
      <trkpt lat="37.41177667" lon="-4.39353">
        <ele>675.0</ele>
        <time>2018-06-09T09:45:58.162Z</time>
      </trkpt>
      <trkpt lat="37.41176333" lon="-4.39353333">
        <ele>675.0</ele>
        <time>2018-06-09T09:45:59.167Z</time>
      </trkpt>
      <trkpt lat="37.41176333" lon="-4.39353333">
        <ele>675.0</ele>
        <time>2018-06-09T09:46:00.182Z</time>
      </trkpt>
      <trkpt lat="37.411735" lon="-4.393535">
        <ele>676.0</ele>
        <time>2018-06-09T09:46:01.165Z</time>
      </trkpt>
      <trkpt lat="37.411735" lon="-4.393535">
        <ele>676.0</ele>
        <time>2018-06-09T09:46:02.187Z</time>
      </trkpt>
      <trkpt lat="37.41171" lon="-4.39354">
        <ele>676.0</ele>
        <time>2018-06-09T09:46:03.167Z</time>
      </trkpt>
      <trkpt lat="37.41169667" lon="-4.39354167">
        <ele>676.0</ele>
        <time>2018-06-09T09:46:04.160Z</time>
      </trkpt>
      <trkpt lat="37.41168333" lon="-4.39354167">
        <ele>677.0</ele>
        <time>2018-06-09T09:46:05.189Z</time>
      </trkpt>
      <trkpt lat="37.41168333" lon="-4.39354167">
        <ele>677.0</ele>
        <time>2018-06-09T09:46:06.166Z</time>
      </trkpt>
      <trkpt lat="37.41166" lon="-4.393545">
        <ele>677.0</ele>
        <time>2018-06-09T09:46:07.158Z</time>
      </trkpt>
      <trkpt lat="37.41166" lon="-4.393545">
        <ele>677.0</ele>
        <time>2018-06-09T09:46:08.167Z</time>
      </trkpt>
      <trkpt lat="37.411635" lon="-4.39354333">
        <ele>677.0</ele>
        <time>2018-06-09T09:46:09.157Z</time>
      </trkpt>
      <trkpt lat="37.411635" lon="-4.39354333">
        <ele>677.0</ele>
        <time>2018-06-09T09:46:10.167Z</time>
      </trkpt>
      <trkpt lat="37.41161167" lon="-4.393545">
        <ele>678.0</ele>
        <time>2018-06-09T09:46:11.190Z</time>
      </trkpt>
      <trkpt lat="37.41161167" lon="-4.393545">
        <ele>678.0</ele>
        <time>2018-06-09T09:46:12.158Z</time>
      </trkpt>
      <trkpt lat="37.41158833" lon="-4.39355">
        <ele>678.0</ele>
        <time>2018-06-09T09:46:13.181Z</time>
      </trkpt>
      <trkpt lat="37.41157833" lon="-4.39355167">
        <ele>678.0</ele>
        <time>2018-06-09T09:46:14.172Z</time>
      </trkpt>
      <trkpt lat="37.41157833" lon="-4.39355167">
        <ele>678.0</ele>
        <time>2018-06-09T09:46:15.178Z</time>
      </trkpt>
      <trkpt lat="37.411555" lon="-4.39355167">
        <ele>679.0</ele>
        <time>2018-06-09T09:46:16.187Z</time>
      </trkpt>
      <trkpt lat="37.411555" lon="-4.39355167">
        <ele>679.0</ele>
        <time>2018-06-09T09:46:17.165Z</time>
      </trkpt>
      <trkpt lat="37.41153167" lon="-4.39355167">
        <ele>679.0</ele>
        <time>2018-06-09T09:46:18.171Z</time>
      </trkpt>
      <trkpt lat="37.41153167" lon="-4.39355167">
        <ele>679.0</ele>
        <time>2018-06-09T09:46:19.164Z</time>
      </trkpt>
      <trkpt lat="37.411505" lon="-4.393545">
        <ele>679.0</ele>
        <time>2018-06-09T09:46:20.194Z</time>
      </trkpt>
      <trkpt lat="37.411505" lon="-4.393545">
        <ele>679.0</ele>
        <time>2018-06-09T09:46:21.159Z</time>
      </trkpt>
      <trkpt lat="37.41147667" lon="-4.39353667">
        <ele>680.0</ele>
        <time>2018-06-09T09:46:22.189Z</time>
      </trkpt>
      <trkpt lat="37.41147667" lon="-4.39353667">
        <ele>680.0</ele>
        <time>2018-06-09T09:46:23.165Z</time>
      </trkpt>
      <trkpt lat="37.41145167" lon="-4.39353667">
        <ele>680.0</ele>
        <time>2018-06-09T09:46:24.193Z</time>
      </trkpt>
      <trkpt lat="37.41144" lon="-4.39353667">
        <ele>680.0</ele>
        <time>2018-06-09T09:46:25.161Z</time>
      </trkpt>
      <trkpt lat="37.41144" lon="-4.39353667">
        <ele>680.0</ele>
        <time>2018-06-09T09:46:26.183Z</time>
      </trkpt>
      <trkpt lat="37.411415" lon="-4.39353667">
        <ele>680.0</ele>
        <time>2018-06-09T09:46:27.173Z</time>
      </trkpt>
      <trkpt lat="37.411415" lon="-4.39353667">
        <ele>680.0</ele>
        <time>2018-06-09T09:46:28.193Z</time>
      </trkpt>
      <trkpt lat="37.41139167" lon="-4.39353667">
        <ele>681.0</ele>
        <time>2018-06-09T09:46:29.170Z</time>
      </trkpt>
      <trkpt lat="37.41139167" lon="-4.39353667">
        <ele>681.0</ele>
        <time>2018-06-09T09:46:30.182Z</time>
      </trkpt>
      <trkpt lat="37.41137" lon="-4.393545">
        <ele>681.0</ele>
        <time>2018-06-09T09:46:31.169Z</time>
      </trkpt>
      <trkpt lat="37.41135833" lon="-4.39355">
        <ele>681.0</ele>
        <time>2018-06-09T09:46:32.157Z</time>
      </trkpt>
      <trkpt lat="37.41135833" lon="-4.39355">
        <ele>681.0</ele>
        <time>2018-06-09T09:46:33.163Z</time>
      </trkpt>
      <trkpt lat="37.41133333" lon="-4.39356">
        <ele>681.0</ele>
        <time>2018-06-09T09:46:34.184Z</time>
      </trkpt>
      <trkpt lat="37.41132" lon="-4.39356333">
        <ele>681.0</ele>
        <time>2018-06-09T09:46:35.174Z</time>
      </trkpt>
      <trkpt lat="37.41132" lon="-4.39356333">
        <ele>681.0</ele>
        <time>2018-06-09T09:46:36.185Z</time>
      </trkpt>
      <trkpt lat="37.411295" lon="-4.39357167">
        <ele>681.0</ele>
        <time>2018-06-09T09:46:37.173Z</time>
      </trkpt>
      <trkpt lat="37.411295" lon="-4.39357167">
        <ele>681.0</ele>
        <time>2018-06-09T09:46:38.193Z</time>
      </trkpt>
      <trkpt lat="37.41127333" lon="-4.39358167">
        <ele>681.0</ele>
        <time>2018-06-09T09:46:39.181Z</time>
      </trkpt>
      <trkpt lat="37.41127333" lon="-4.39358167">
        <ele>681.0</ele>
        <time>2018-06-09T09:46:40.181Z</time>
      </trkpt>
      <trkpt lat="37.411255" lon="-4.39359">
        <ele>682.0</ele>
        <time>2018-06-09T09:46:41.177Z</time>
      </trkpt>
      <trkpt lat="37.411255" lon="-4.39359">
        <ele>682.0</ele>
        <time>2018-06-09T09:46:42.182Z</time>
      </trkpt>
      <trkpt lat="37.41123" lon="-4.3936">
        <ele>682.0</ele>
        <time>2018-06-09T09:46:43.183Z</time>
      </trkpt>
      <trkpt lat="37.41121333" lon="-4.39360667">
        <ele>682.0</ele>
        <time>2018-06-09T09:46:44.159Z</time>
      </trkpt>
      <trkpt lat="37.41121333" lon="-4.39360667">
        <ele>682.0</ele>
        <time>2018-06-09T09:46:45.189Z</time>
      </trkpt>
      <trkpt lat="37.41117833" lon="-4.393625">
        <ele>682.0</ele>
        <time>2018-06-09T09:46:46.176Z</time>
      </trkpt>
      <trkpt lat="37.41117833" lon="-4.393625">
        <ele>682.0</ele>
        <time>2018-06-09T09:46:47.180Z</time>
      </trkpt>
      <trkpt lat="37.41113167" lon="-4.39364833">
        <ele>682.0</ele>
        <time>2018-06-09T09:46:48.183Z</time>
      </trkpt>
      <trkpt lat="37.41110667" lon="-4.39366167">
        <ele>682.0</ele>
        <time>2018-06-09T09:46:49.191Z</time>
      </trkpt>
      <trkpt lat="37.41110667" lon="-4.39366167">
        <ele>682.0</ele>
        <time>2018-06-09T09:46:50.176Z</time>
      </trkpt>
      <trkpt lat="37.41106167" lon="-4.39369">
        <ele>682.0</ele>
        <time>2018-06-09T09:46:51.193Z</time>
      </trkpt>
      <trkpt lat="37.41106167" lon="-4.39369">
        <ele>682.0</ele>
        <time>2018-06-09T09:46:52.159Z</time>
      </trkpt>
      <trkpt lat="37.411015" lon="-4.39372167">
        <ele>682.0</ele>
        <time>2018-06-09T09:46:53.185Z</time>
      </trkpt>
      <trkpt lat="37.411015" lon="-4.39372167">
        <ele>682.0</ele>
        <time>2018-06-09T09:46:54.159Z</time>
      </trkpt>
      <trkpt lat="37.41097" lon="-4.39376">
        <ele>682.0</ele>
        <time>2018-06-09T09:46:55.189Z</time>
      </trkpt>
      <trkpt lat="37.41097" lon="-4.39376">
        <ele>682.0</ele>
        <time>2018-06-09T09:46:56.170Z</time>
      </trkpt>
      <trkpt lat="37.41093833" lon="-4.39379333">
        <ele>681.0</ele>
        <time>2018-06-09T09:46:57.196Z</time>
      </trkpt>
      <trkpt lat="37.41093833" lon="-4.39379333">
        <ele>681.0</ele>
        <time>2018-06-09T09:46:58.161Z</time>
      </trkpt>
      <trkpt lat="37.41091333" lon="-4.39382167">
        <ele>682.0</ele>
        <time>2018-06-09T09:46:59.192Z</time>
      </trkpt>
      <trkpt lat="37.41091333" lon="-4.39382167">
        <ele>682.0</ele>
        <time>2018-06-09T09:47:00.162Z</time>
      </trkpt>
      <trkpt lat="37.41088833" lon="-4.39385167">
        <ele>682.0</ele>
        <time>2018-06-09T09:47:01.186Z</time>
      </trkpt>
      <trkpt lat="37.410875" lon="-4.393865">
        <ele>682.0</ele>
        <time>2018-06-09T09:47:02.185Z</time>
      </trkpt>
      <trkpt lat="37.410875" lon="-4.393865">
        <ele>682.0</ele>
        <time>2018-06-09T09:47:03.164Z</time>
      </trkpt>
      <trkpt lat="37.410845" lon="-4.39387333">
        <ele>683.0</ele>
        <time>2018-06-09T09:47:04.188Z</time>
      </trkpt>
      <trkpt lat="37.41082167" lon="-4.39387167">
        <ele>682.0</ele>
        <time>2018-06-09T09:47:05.194Z</time>
      </trkpt>
      <trkpt lat="37.41082167" lon="-4.39387167">
        <ele>682.0</ele>
        <time>2018-06-09T09:47:06.176Z</time>
      </trkpt>
      <trkpt lat="37.410765" lon="-4.39387833">
        <ele>682.0</ele>
        <time>2018-06-09T09:47:07.157Z</time>
      </trkpt>
      <trkpt lat="37.410765" lon="-4.39387833">
        <ele>682.0</ele>
        <time>2018-06-09T09:47:08.183Z</time>
      </trkpt>
      <trkpt lat="37.410715" lon="-4.39391167">
        <ele>681.0</ele>
        <time>2018-06-09T09:47:09.160Z</time>
      </trkpt>
      <trkpt lat="37.410715" lon="-4.39391167">
        <ele>681.0</ele>
        <time>2018-06-09T09:47:10.166Z</time>
      </trkpt>
      <trkpt lat="37.410675" lon="-4.39394167">
        <ele>681.0</ele>
        <time>2018-06-09T09:47:11.157Z</time>
      </trkpt>
      <trkpt lat="37.410675" lon="-4.39394167">
        <ele>681.0</ele>
        <time>2018-06-09T09:47:12.177Z</time>
      </trkpt>
      <trkpt lat="37.41063333" lon="-4.39397">
        <ele>681.0</ele>
        <time>2018-06-09T09:47:13.196Z</time>
      </trkpt>
      <trkpt lat="37.41063333" lon="-4.39397">
        <ele>681.0</ele>
        <time>2018-06-09T09:47:14.161Z</time>
      </trkpt>
      <trkpt lat="37.41059" lon="-4.39399833">
        <ele>681.0</ele>
        <time>2018-06-09T09:47:15.181Z</time>
      </trkpt>
      <trkpt lat="37.41059" lon="-4.39399833">
        <ele>681.0</ele>
        <time>2018-06-09T09:47:16.164Z</time>
      </trkpt>
      <trkpt lat="37.41054833" lon="-4.39402833">
        <ele>681.0</ele>
        <time>2018-06-09T09:47:17.195Z</time>
      </trkpt>
      <trkpt lat="37.41054833" lon="-4.39402833">
        <ele>681.0</ele>
        <time>2018-06-09T09:47:18.176Z</time>
      </trkpt>
      <trkpt lat="37.41050667" lon="-4.394055">
        <ele>682.0</ele>
        <time>2018-06-09T09:47:19.170Z</time>
      </trkpt>
      <trkpt lat="37.41050667" lon="-4.394055">
        <ele>682.0</ele>
        <time>2018-06-09T09:47:20.176Z</time>
      </trkpt>
      <trkpt lat="37.41047167" lon="-4.394085">
        <ele>682.0</ele>
        <time>2018-06-09T09:47:21.162Z</time>
      </trkpt>
      <trkpt lat="37.41047167" lon="-4.394085">
        <ele>682.0</ele>
        <time>2018-06-09T09:47:22.167Z</time>
      </trkpt>
      <trkpt lat="37.41043" lon="-4.39411333">
        <ele>682.0</ele>
        <time>2018-06-09T09:47:23.194Z</time>
      </trkpt>
      <trkpt lat="37.41040833" lon="-4.39413">
        <ele>682.0</ele>
        <time>2018-06-09T09:47:24.157Z</time>
      </trkpt>
      <trkpt lat="37.41040833" lon="-4.39413">
        <ele>682.0</ele>
        <time>2018-06-09T09:47:25.165Z</time>
      </trkpt>
      <trkpt lat="37.41036667" lon="-4.39416">
        <ele>682.0</ele>
        <time>2018-06-09T09:47:26.196Z</time>
      </trkpt>
      <trkpt lat="37.41036667" lon="-4.39416">
        <ele>682.0</ele>
        <time>2018-06-09T09:47:27.178Z</time>
      </trkpt>
      <trkpt lat="37.41033333" lon="-4.39418333">
        <ele>683.0</ele>
        <time>2018-06-09T09:47:28.192Z</time>
      </trkpt>
      <trkpt lat="37.41033333" lon="-4.39418333">
        <ele>683.0</ele>
        <time>2018-06-09T09:47:29.168Z</time>
      </trkpt>
      <trkpt lat="37.41030833" lon="-4.3942">
        <ele>683.0</ele>
        <time>2018-06-09T09:47:30.187Z</time>
      </trkpt>
      <trkpt lat="37.41030833" lon="-4.3942">
        <ele>683.0</ele>
        <time>2018-06-09T09:47:31.158Z</time>
      </trkpt>
      <trkpt lat="37.41028333" lon="-4.39421667">
        <ele>684.0</ele>
        <time>2018-06-09T09:47:32.180Z</time>
      </trkpt>
      <trkpt lat="37.41028333" lon="-4.39421667">
        <ele>684.0</ele>
        <time>2018-06-09T09:47:33.188Z</time>
      </trkpt>
      <trkpt lat="37.41026" lon="-4.39423333">
        <ele>684.0</ele>
        <time>2018-06-09T09:47:34.183Z</time>
      </trkpt>
      <trkpt lat="37.41024667" lon="-4.39424">
        <ele>685.0</ele>
        <time>2018-06-09T09:47:35.178Z</time>
      </trkpt>
      <trkpt lat="37.41024667" lon="-4.39424">
        <ele>685.0</ele>
        <time>2018-06-09T09:47:36.195Z</time>
      </trkpt>
      <trkpt lat="37.41021833" lon="-4.39425333">
        <ele>685.0</ele>
        <time>2018-06-09T09:47:37.189Z</time>
      </trkpt>
      <trkpt lat="37.41021833" lon="-4.39425333">
        <ele>685.0</ele>
        <time>2018-06-09T09:47:38.195Z</time>
      </trkpt>
      <trkpt lat="37.410195" lon="-4.39427">
        <ele>685.0</ele>
        <time>2018-06-09T09:47:39.180Z</time>
      </trkpt>
      <trkpt lat="37.410195" lon="-4.39427">
        <ele>685.0</ele>
        <time>2018-06-09T09:47:40.186Z</time>
      </trkpt>
      <trkpt lat="37.41017" lon="-4.39428">
        <ele>686.0</ele>
        <time>2018-06-09T09:47:41.177Z</time>
      </trkpt>
      <trkpt lat="37.41017" lon="-4.39428">
        <ele>686.0</ele>
        <time>2018-06-09T09:47:42.193Z</time>
      </trkpt>
      <trkpt lat="37.41014" lon="-4.394295">
        <ele>687.0</ele>
        <time>2018-06-09T09:47:43.177Z</time>
      </trkpt>
      <trkpt lat="37.41014" lon="-4.394295">
        <ele>687.0</ele>
        <time>2018-06-09T09:47:44.194Z</time>
      </trkpt>
      <trkpt lat="37.41011" lon="-4.39431333">
        <ele>688.0</ele>
        <time>2018-06-09T09:47:45.174Z</time>
      </trkpt>
      <trkpt lat="37.410095" lon="-4.39432167">
        <ele>688.0</ele>
        <time>2018-06-09T09:47:46.194Z</time>
      </trkpt>
      <trkpt lat="37.410095" lon="-4.39432167">
        <ele>688.0</ele>
        <time>2018-06-09T09:47:47.175Z</time>
      </trkpt>
      <trkpt lat="37.41006" lon="-4.394345">
        <ele>689.0</ele>
        <time>2018-06-09T09:47:48.186Z</time>
      </trkpt>
      <trkpt lat="37.41004833" lon="-4.39435667">
        <ele>690.0</ele>
        <time>2018-06-09T09:47:49.179Z</time>
      </trkpt>
      <trkpt lat="37.41004833" lon="-4.39435667">
        <ele>690.0</ele>
        <time>2018-06-09T09:47:50.188Z</time>
      </trkpt>
      <trkpt lat="37.41001833" lon="-4.39438833">
        <ele>691.0</ele>
        <time>2018-06-09T09:47:51.179Z</time>
      </trkpt>
      <trkpt lat="37.41001833" lon="-4.39438833">
        <ele>691.0</ele>
        <time>2018-06-09T09:47:52.159Z</time>
      </trkpt>
      <trkpt lat="37.40999167" lon="-4.39442">
        <ele>692.0</ele>
        <time>2018-06-09T09:47:53.189Z</time>
      </trkpt>
      <trkpt lat="37.40999167" lon="-4.39442">
        <ele>692.0</ele>
        <time>2018-06-09T09:47:54.167Z</time>
      </trkpt>
      <trkpt lat="37.40996333" lon="-4.39444833">
        <ele>693.0</ele>
        <time>2018-06-09T09:47:55.192Z</time>
      </trkpt>
      <trkpt lat="37.40996333" lon="-4.39444833">
        <ele>693.0</ele>
        <time>2018-06-09T09:47:56.167Z</time>
      </trkpt>
      <trkpt lat="37.40993333" lon="-4.39446333">
        <ele>694.0</ele>
        <time>2018-06-09T09:47:57.196Z</time>
      </trkpt>
      <trkpt lat="37.40993333" lon="-4.39446333">
        <ele>694.0</ele>
        <time>2018-06-09T09:47:58.167Z</time>
      </trkpt>
      <trkpt lat="37.40991" lon="-4.39447667">
        <ele>694.0</ele>
        <time>2018-06-09T09:47:59.196Z</time>
      </trkpt>
      <trkpt lat="37.40991" lon="-4.39447667">
        <ele>694.0</ele>
        <time>2018-06-09T09:48:00.167Z</time>
      </trkpt>
      <trkpt lat="37.40988833" lon="-4.394495">
        <ele>695.0</ele>
        <time>2018-06-09T09:48:01.157Z</time>
      </trkpt>
      <trkpt lat="37.40987667" lon="-4.39450667">
        <ele>695.0</ele>
        <time>2018-06-09T09:48:02.163Z</time>
      </trkpt>
      <trkpt lat="37.40987667" lon="-4.39450667">
        <ele>695.0</ele>
        <time>2018-06-09T09:48:03.181Z</time>
      </trkpt>
      <trkpt lat="37.40986" lon="-4.39452667">
        <ele>696.0</ele>
        <time>2018-06-09T09:48:04.179Z</time>
      </trkpt>
      <trkpt lat="37.40985167" lon="-4.39453667">
        <ele>696.0</ele>
        <time>2018-06-09T09:48:05.170Z</time>
      </trkpt>
      <trkpt lat="37.40985167" lon="-4.39453667">
        <ele>696.0</ele>
        <time>2018-06-09T09:48:06.188Z</time>
      </trkpt>
      <trkpt lat="37.40983667" lon="-4.39455667">
        <ele>697.0</ele>
        <time>2018-06-09T09:48:07.172Z</time>
      </trkpt>
      <trkpt lat="37.40983667" lon="-4.39455667">
        <ele>697.0</ele>
        <time>2018-06-09T09:48:08.180Z</time>
      </trkpt>
      <trkpt lat="37.40982333" lon="-4.39457833">
        <ele>697.0</ele>
        <time>2018-06-09T09:48:09.169Z</time>
      </trkpt>
      <trkpt lat="37.40982333" lon="-4.39457833">
        <ele>697.0</ele>
        <time>2018-06-09T09:48:10.183Z</time>
      </trkpt>
      <trkpt lat="37.40980833" lon="-4.39460333">
        <ele>698.0</ele>
        <time>2018-06-09T09:48:11.167Z</time>
      </trkpt>
      <trkpt lat="37.40980833" lon="-4.39460333">
        <ele>698.0</ele>
        <time>2018-06-09T09:48:12.192Z</time>
      </trkpt>
      <trkpt lat="37.40979333" lon="-4.394625">
        <ele>699.0</ele>
        <time>2018-06-09T09:48:13.181Z</time>
      </trkpt>
      <trkpt lat="37.40979333" lon="-4.394625">
        <ele>699.0</ele>
        <time>2018-06-09T09:48:14.194Z</time>
      </trkpt>
      <trkpt lat="37.409775" lon="-4.39464667">
        <ele>700.0</ele>
        <time>2018-06-09T09:48:15.175Z</time>
      </trkpt>
      <trkpt lat="37.409765" lon="-4.39466">
        <ele>700.0</ele>
        <time>2018-06-09T09:48:16.170Z</time>
      </trkpt>
      <trkpt lat="37.409765" lon="-4.39466">
        <ele>700.0</ele>
        <time>2018-06-09T09:48:17.163Z</time>
      </trkpt>
      <trkpt lat="37.409745" lon="-4.39468">
        <ele>700.0</ele>
        <time>2018-06-09T09:48:18.190Z</time>
      </trkpt>
      <trkpt lat="37.409745" lon="-4.39468">
        <ele>700.0</ele>
        <time>2018-06-09T09:48:19.166Z</time>
      </trkpt>
      <trkpt lat="37.40973" lon="-4.3947">
        <ele>700.0</ele>
        <time>2018-06-09T09:48:20.195Z</time>
      </trkpt>
      <trkpt lat="37.40973" lon="-4.3947">
        <ele>700.0</ele>
        <time>2018-06-09T09:48:21.170Z</time>
      </trkpt>
      <trkpt lat="37.40971667" lon="-4.39472">
        <ele>700.0</ele>
        <time>2018-06-09T09:48:22.167Z</time>
      </trkpt>
      <trkpt lat="37.40970833" lon="-4.39473167">
        <ele>700.0</ele>
        <time>2018-06-09T09:48:23.183Z</time>
      </trkpt>
      <trkpt lat="37.40970833" lon="-4.39473167">
        <ele>700.0</ele>
        <time>2018-06-09T09:48:24.158Z</time>
      </trkpt>
      <trkpt lat="37.40968833" lon="-4.394755">
        <ele>700.0</ele>
        <time>2018-06-09T09:48:25.180Z</time>
      </trkpt>
      <trkpt lat="37.40967833" lon="-4.39476">
        <ele>700.0</ele>
        <time>2018-06-09T09:48:26.183Z</time>
      </trkpt>
      <trkpt lat="37.40967833" lon="-4.39476">
        <ele>700.0</ele>
        <time>2018-06-09T09:48:27.165Z</time>
      </trkpt>
      <trkpt lat="37.409655" lon="-4.39477">
        <ele>699.0</ele>
        <time>2018-06-09T09:48:28.187Z</time>
      </trkpt>
      <trkpt lat="37.409655" lon="-4.39477">
        <ele>699.0</ele>
        <time>2018-06-09T09:48:29.170Z</time>
      </trkpt>
      <trkpt lat="37.40963833" lon="-4.39478833">
        <ele>699.0</ele>
        <time>2018-06-09T09:48:30.197Z</time>
      </trkpt>
      <trkpt lat="37.40963833" lon="-4.39478833">
        <ele>699.0</ele>
        <time>2018-06-09T09:48:31.173Z</time>
      </trkpt>
      <trkpt lat="37.409625" lon="-4.39481667">
        <ele>699.0</ele>
        <time>2018-06-09T09:48:32.161Z</time>
      </trkpt>
      <trkpt lat="37.409625" lon="-4.39481667">
        <ele>699.0</ele>
        <time>2018-06-09T09:48:33.174Z</time>
      </trkpt>
      <trkpt lat="37.40960333" lon="-4.394845">
        <ele>699.0</ele>
        <time>2018-06-09T09:48:34.162Z</time>
      </trkpt>
      <trkpt lat="37.40960333" lon="-4.394845">
        <ele>699.0</ele>
        <time>2018-06-09T09:48:35.167Z</time>
      </trkpt>
      <trkpt lat="37.40956667" lon="-4.39483167">
        <ele>698.0</ele>
        <time>2018-06-09T09:48:36.195Z</time>
      </trkpt>
      <trkpt lat="37.40956667" lon="-4.39483167">
        <ele>698.0</ele>
        <time>2018-06-09T09:48:37.160Z</time>
      </trkpt>
      <trkpt lat="37.40955" lon="-4.39478833">
        <ele>698.0</ele>
        <time>2018-06-09T09:48:38.184Z</time>
      </trkpt>
      <trkpt lat="37.40955" lon="-4.39478833">
        <ele>698.0</ele>
        <time>2018-06-09T09:48:39.163Z</time>
      </trkpt>
      <trkpt lat="37.409565" lon="-4.39476">
        <ele>697.0</ele>
        <time>2018-06-09T09:48:40.182Z</time>
      </trkpt>
      <trkpt lat="37.40957667" lon="-4.39475167">
        <ele>697.0</ele>
        <time>2018-06-09T09:48:41.175Z</time>
      </trkpt>
      <trkpt lat="37.40957667" lon="-4.39475167">
        <ele>697.0</ele>
        <time>2018-06-09T09:48:42.195Z</time>
      </trkpt>
      <trkpt lat="37.4096" lon="-4.39473833">
        <ele>697.0</ele>
        <time>2018-06-09T09:48:43.192Z</time>
      </trkpt>
      <trkpt lat="37.40961333" lon="-4.394735">
        <ele>697.0</ele>
        <time>2018-06-09T09:48:44.181Z</time>
      </trkpt>
      <trkpt lat="37.40961333" lon="-4.394735">
        <ele>697.0</ele>
        <time>2018-06-09T09:48:45.160Z</time>
      </trkpt>
      <trkpt lat="37.40963833" lon="-4.39472667">
        <ele>697.0</ele>
        <time>2018-06-09T09:48:46.186Z</time>
      </trkpt>
      <trkpt lat="37.40963833" lon="-4.39472667">
        <ele>697.0</ele>
        <time>2018-06-09T09:48:47.168Z</time>
      </trkpt>
      <trkpt lat="37.40965667" lon="-4.39472">
        <ele>696.0</ele>
        <time>2018-06-09T09:48:48.172Z</time>
      </trkpt>
      <trkpt lat="37.40967" lon="-4.39471667">
        <ele>696.0</ele>
        <time>2018-06-09T09:48:49.180Z</time>
      </trkpt>
      <trkpt lat="37.40968167" lon="-4.39471167">
        <ele>696.0</ele>
        <time>2018-06-09T09:48:50.174Z</time>
      </trkpt>
      <trkpt lat="37.40968167" lon="-4.39471167">
        <ele>696.0</ele>
        <time>2018-06-09T09:48:51.162Z</time>
      </trkpt>
      <trkpt lat="37.40970167" lon="-4.39469667">
        <ele>697.0</ele>
        <time>2018-06-09T09:48:52.182Z</time>
      </trkpt>
      <trkpt lat="37.40970167" lon="-4.39469667">
        <ele>697.0</ele>
        <time>2018-06-09T09:48:53.159Z</time>
      </trkpt>
      <trkpt lat="37.40972333" lon="-4.39467833">
        <ele>697.0</ele>
        <time>2018-06-09T09:48:54.181Z</time>
      </trkpt>
      <trkpt lat="37.40972333" lon="-4.39467833">
        <ele>697.0</ele>
        <time>2018-06-09T09:48:55.158Z</time>
      </trkpt>
      <trkpt lat="37.40974667" lon="-4.39466">
        <ele>697.0</ele>
        <time>2018-06-09T09:48:56.180Z</time>
      </trkpt>
      <trkpt lat="37.40974667" lon="-4.39466">
        <ele>697.0</ele>
        <time>2018-06-09T09:48:57.157Z</time>
      </trkpt>
      <trkpt lat="37.40977" lon="-4.39463667">
        <ele>697.0</ele>
        <time>2018-06-09T09:48:58.164Z</time>
      </trkpt>
      <trkpt lat="37.40977" lon="-4.39463667">
        <ele>697.0</ele>
        <time>2018-06-09T09:48:59.181Z</time>
      </trkpt>
      <trkpt lat="37.40978833" lon="-4.39461667">
        <ele>697.0</ele>
        <time>2018-06-09T09:49:00.193Z</time>
      </trkpt>
      <trkpt lat="37.40978833" lon="-4.39461667">
        <ele>697.0</ele>
        <time>2018-06-09T09:49:01.164Z</time>
      </trkpt>
      <trkpt lat="37.40981" lon="-4.39458167">
        <ele>696.0</ele>
        <time>2018-06-09T09:49:02.170Z</time>
      </trkpt>
      <trkpt lat="37.40981" lon="-4.39458167">
        <ele>696.0</ele>
        <time>2018-06-09T09:49:03.192Z</time>
      </trkpt>
      <trkpt lat="37.40983667" lon="-4.394525">
        <ele>695.0</ele>
        <time>2018-06-09T09:49:04.192Z</time>
      </trkpt>
      <trkpt lat="37.409855" lon="-4.39449667">
        <ele>695.0</ele>
        <time>2018-06-09T09:49:05.172Z</time>
      </trkpt>
      <trkpt lat="37.409855" lon="-4.39449667">
        <ele>695.0</ele>
        <time>2018-06-09T09:49:06.188Z</time>
      </trkpt>
      <trkpt lat="37.40989667" lon="-4.39444833">
        <ele>693.0</ele>
        <time>2018-06-09T09:49:07.194Z</time>
      </trkpt>
      <trkpt lat="37.40990833" lon="-4.39442333">
        <ele>693.0</ele>
        <time>2018-06-09T09:49:08.171Z</time>
      </trkpt>
      <trkpt lat="37.40990833" lon="-4.39442333">
        <ele>693.0</ele>
        <time>2018-06-09T09:49:09.186Z</time>
      </trkpt>
      <trkpt lat="37.409905" lon="-4.39437">
        <ele>692.0</ele>
        <time>2018-06-09T09:49:10.193Z</time>
      </trkpt>
      <trkpt lat="37.409905" lon="-4.39437">
        <ele>692.0</ele>
        <time>2018-06-09T09:49:11.180Z</time>
      </trkpt>
      <trkpt lat="37.40987167" lon="-4.39431667">
        <ele>690.0</ele>
        <time>2018-06-09T09:49:12.195Z</time>
      </trkpt>
      <trkpt lat="37.40987167" lon="-4.39431667">
        <ele>690.0</ele>
        <time>2018-06-09T09:49:13.187Z</time>
      </trkpt>
      <trkpt lat="37.409825" lon="-4.39428333">
        <ele>689.0</ele>
        <time>2018-06-09T09:49:14.192Z</time>
      </trkpt>
      <trkpt lat="37.409825" lon="-4.39428333">
        <ele>689.0</ele>
        <time>2018-06-09T09:49:15.169Z</time>
      </trkpt>
      <trkpt lat="37.40977333" lon="-4.39425">
        <ele>688.0</ele>
        <time>2018-06-09T09:49:16.193Z</time>
      </trkpt>
      <trkpt lat="37.40975167" lon="-4.39422">
        <ele>688.0</ele>
        <time>2018-06-09T09:49:17.189Z</time>
      </trkpt>
      <trkpt lat="37.40975167" lon="-4.39422">
        <ele>688.0</ele>
        <time>2018-06-09T09:49:18.165Z</time>
      </trkpt>
      <trkpt lat="37.40971667" lon="-4.394145">
        <ele>687.0</ele>
        <time>2018-06-09T09:49:19.178Z</time>
      </trkpt>
      <trkpt lat="37.40971667" lon="-4.394145">
        <ele>687.0</ele>
        <time>2018-06-09T09:49:20.195Z</time>
      </trkpt>
      <trkpt lat="37.409675" lon="-4.39407667">
        <ele>686.0</ele>
        <time>2018-06-09T09:49:21.164Z</time>
      </trkpt>
      <trkpt lat="37.40964667" lon="-4.394055">
        <ele>686.0</ele>
        <time>2018-06-09T09:49:22.186Z</time>
      </trkpt>
      <trkpt lat="37.409615" lon="-4.39404">
        <ele>686.0</ele>
        <time>2018-06-09T09:49:23.163Z</time>
      </trkpt>
      <trkpt lat="37.409615" lon="-4.39404">
        <ele>686.0</ele>
        <time>2018-06-09T09:49:24.178Z</time>
      </trkpt>
      <trkpt lat="37.40955667" lon="-4.39402">
        <ele>686.0</ele>
        <time>2018-06-09T09:49:25.184Z</time>
      </trkpt>
      <trkpt lat="37.40955667" lon="-4.39402">
        <ele>686.0</ele>
        <time>2018-06-09T09:49:26.161Z</time>
      </trkpt>
      <trkpt lat="37.40950333" lon="-4.39397167">
        <ele>685.0</ele>
        <time>2018-06-09T09:49:27.158Z</time>
      </trkpt>
      <trkpt lat="37.40950333" lon="-4.39397167">
        <ele>685.0</ele>
        <time>2018-06-09T09:49:28.177Z</time>
      </trkpt>
      <trkpt lat="37.40947167" lon="-4.39389333">
        <ele>685.0</ele>
        <time>2018-06-09T09:49:29.184Z</time>
      </trkpt>
      <trkpt lat="37.40947167" lon="-4.39389333">
        <ele>685.0</ele>
        <time>2018-06-09T09:49:30.159Z</time>
      </trkpt>
      <trkpt lat="37.40945167" lon="-4.39382333">
        <ele>684.0</ele>
        <time>2018-06-09T09:49:31.182Z</time>
      </trkpt>
      <trkpt lat="37.40945167" lon="-4.39382333">
        <ele>684.0</ele>
        <time>2018-06-09T09:49:32.161Z</time>
      </trkpt>
      <trkpt lat="37.40944" lon="-4.39377333">
        <ele>683.0</ele>
        <time>2018-06-09T09:49:33.190Z</time>
      </trkpt>
      <trkpt lat="37.40944" lon="-4.39377333">
        <ele>683.0</ele>
        <time>2018-06-09T09:49:34.167Z</time>
      </trkpt>
      <trkpt lat="37.409435" lon="-4.39372167">
        <ele>682.0</ele>
        <time>2018-06-09T09:49:35.175Z</time>
      </trkpt>
      <trkpt lat="37.409435" lon="-4.39372167">
        <ele>682.0</ele>
        <time>2018-06-09T09:49:36.190Z</time>
      </trkpt>
      <trkpt lat="37.409435" lon="-4.39369">
        <ele>681.0</ele>
        <time>2018-06-09T09:49:37.192Z</time>
      </trkpt>
      <trkpt lat="37.409435" lon="-4.39369">
        <ele>681.0</ele>
        <time>2018-06-09T09:49:38.172Z</time>
      </trkpt>
      <trkpt lat="37.40943667" lon="-4.393665">
        <ele>680.0</ele>
        <time>2018-06-09T09:49:39.179Z</time>
      </trkpt>
      <trkpt lat="37.40943667" lon="-4.393665">
        <ele>680.0</ele>
        <time>2018-06-09T09:49:40.196Z</time>
      </trkpt>
      <trkpt lat="37.40943667" lon="-4.39363833">
        <ele>680.0</ele>
        <time>2018-06-09T09:49:41.172Z</time>
      </trkpt>
      <trkpt lat="37.40943833" lon="-4.39362833">
        <ele>680.0</ele>
        <time>2018-06-09T09:49:42.158Z</time>
      </trkpt>
      <trkpt lat="37.40943833" lon="-4.39362833">
        <ele>680.0</ele>
        <time>2018-06-09T09:49:43.175Z</time>
      </trkpt>
      <trkpt lat="37.40945833" lon="-4.39362667">
        <ele>680.0</ele>
        <time>2018-06-09T09:49:44.181Z</time>
      </trkpt>
      <trkpt lat="37.40945833" lon="-4.39362667">
        <ele>680.0</ele>
        <time>2018-06-09T09:49:45.158Z</time>
      </trkpt>
      <trkpt lat="37.40946833" lon="-4.39365667">
        <ele>680.0</ele>
        <time>2018-06-09T09:49:46.169Z</time>
      </trkpt>
      <trkpt lat="37.40946833" lon="-4.39365667">
        <ele>680.0</ele>
        <time>2018-06-09T09:49:47.175Z</time>
      </trkpt>
      <trkpt lat="37.40945" lon="-4.39368">
        <ele>680.0</ele>
        <time>2018-06-09T09:49:48.168Z</time>
      </trkpt>
      <trkpt lat="37.40945" lon="-4.39368">
        <ele>680.0</ele>
        <time>2018-06-09T09:49:49.187Z</time>
      </trkpt>
      <trkpt lat="37.40943833" lon="-4.39371167">
        <ele>681.0</ele>
        <time>2018-06-09T09:49:50.193Z</time>
      </trkpt>
      <trkpt lat="37.40943833" lon="-4.39371167">
        <ele>681.0</ele>
        <time>2018-06-09T09:49:51.169Z</time>
      </trkpt>
      <trkpt lat="37.40942833" lon="-4.39374">
        <ele>681.0</ele>
        <time>2018-06-09T09:49:52.174Z</time>
      </trkpt>
      <trkpt lat="37.40942833" lon="-4.39374">
        <ele>681.0</ele>
        <time>2018-06-09T09:49:53.160Z</time>
      </trkpt>
      <trkpt lat="37.40942833" lon="-4.39377167">
        <ele>681.0</ele>
        <time>2018-06-09T09:49:54.168Z</time>
      </trkpt>
      <trkpt lat="37.40942833" lon="-4.39377167">
        <ele>681.0</ele>
        <time>2018-06-09T09:49:55.187Z</time>
      </trkpt>
      <trkpt lat="37.409435" lon="-4.39380167">
        <ele>682.0</ele>
        <time>2018-06-09T09:49:56.189Z</time>
      </trkpt>
      <trkpt lat="37.409435" lon="-4.39380167">
        <ele>682.0</ele>
        <time>2018-06-09T09:49:57.168Z</time>
      </trkpt>
      <trkpt lat="37.409445" lon="-4.39382667">
        <ele>682.0</ele>
        <time>2018-06-09T09:49:58.178Z</time>
      </trkpt>
      <trkpt lat="37.40944667" lon="-4.39384167">
        <ele>682.0</ele>
        <time>2018-06-09T09:49:59.164Z</time>
      </trkpt>
      <trkpt lat="37.40944667" lon="-4.39384167">
        <ele>682.0</ele>
        <time>2018-06-09T09:50:00.180Z</time>
      </trkpt>
      <trkpt lat="37.40945333" lon="-4.39387">
        <ele>682.0</ele>
        <time>2018-06-09T09:50:01.157Z</time>
      </trkpt>
      <trkpt lat="37.40945333" lon="-4.39387">
        <ele>682.0</ele>
        <time>2018-06-09T09:50:02.179Z</time>
      </trkpt>
      <trkpt lat="37.40946" lon="-4.39389667">
        <ele>682.0</ele>
        <time>2018-06-09T09:50:03.185Z</time>
      </trkpt>
      <trkpt lat="37.40946" lon="-4.39389667">
        <ele>682.0</ele>
        <time>2018-06-09T09:50:04.173Z</time>
      </trkpt>
      <trkpt lat="37.40947" lon="-4.39392667">
        <ele>683.0</ele>
        <time>2018-06-09T09:50:05.183Z</time>
      </trkpt>
      <trkpt lat="37.40947" lon="-4.39392667">
        <ele>683.0</ele>
        <time>2018-06-09T09:50:06.188Z</time>
      </trkpt>
      <trkpt lat="37.40948167" lon="-4.393955">
        <ele>683.0</ele>
        <time>2018-06-09T09:50:07.163Z</time>
      </trkpt>
      <trkpt lat="37.40948667" lon="-4.39396833">
        <ele>683.0</ele>
        <time>2018-06-09T09:50:08.182Z</time>
      </trkpt>
      <trkpt lat="37.40948667" lon="-4.39396833">
        <ele>683.0</ele>
        <time>2018-06-09T09:50:09.160Z</time>
      </trkpt>
      <trkpt lat="37.40950333" lon="-4.39399167">
        <ele>684.0</ele>
        <time>2018-06-09T09:50:10.183Z</time>
      </trkpt>
      <trkpt lat="37.409515" lon="-4.394">
        <ele>684.0</ele>
        <time>2018-06-09T09:50:11.163Z</time>
      </trkpt>
      <trkpt lat="37.409515" lon="-4.394">
        <ele>684.0</ele>
        <time>2018-06-09T09:50:12.175Z</time>
      </trkpt>
      <trkpt lat="37.40954167" lon="-4.39400833">
        <ele>684.0</ele>
        <time>2018-06-09T09:50:13.183Z</time>
      </trkpt>
      <trkpt lat="37.40954167" lon="-4.39400833">
        <ele>684.0</ele>
        <time>2018-06-09T09:50:14.159Z</time>
      </trkpt>
      <trkpt lat="37.40957" lon="-4.39402333">
        <ele>685.0</ele>
        <time>2018-06-09T09:50:15.182Z</time>
      </trkpt>
      <trkpt lat="37.40957" lon="-4.39402333">
        <ele>685.0</ele>
        <time>2018-06-09T09:50:16.186Z</time>
      </trkpt>
      <trkpt lat="37.409595" lon="-4.39403667">
        <ele>686.0</ele>
        <time>2018-06-09T09:50:17.159Z</time>
      </trkpt>
      <trkpt lat="37.409595" lon="-4.39403667">
        <ele>686.0</ele>
        <time>2018-06-09T09:50:18.183Z</time>
      </trkpt>
      <trkpt lat="37.40962333" lon="-4.394045">
        <ele>686.0</ele>
        <time>2018-06-09T09:50:19.190Z</time>
      </trkpt>
      <trkpt lat="37.40962333" lon="-4.394045">
        <ele>686.0</ele>
        <time>2018-06-09T09:50:20.170Z</time>
      </trkpt>
      <trkpt lat="37.40964833" lon="-4.39405833">
        <ele>686.0</ele>
        <time>2018-06-09T09:50:21.192Z</time>
      </trkpt>
      <trkpt lat="37.40964833" lon="-4.39405833">
        <ele>686.0</ele>
        <time>2018-06-09T09:50:22.162Z</time>
      </trkpt>
      <trkpt lat="37.40967333" lon="-4.39407667">
        <ele>686.0</ele>
        <time>2018-06-09T09:50:23.168Z</time>
      </trkpt>
      <trkpt lat="37.40967333" lon="-4.39407667">
        <ele>686.0</ele>
        <time>2018-06-09T09:50:24.184Z</time>
      </trkpt>
      <trkpt lat="37.40969333" lon="-4.394095">
        <ele>686.0</ele>
        <time>2018-06-09T09:50:25.175Z</time>
      </trkpt>
      <trkpt lat="37.40969333" lon="-4.394095">
        <ele>686.0</ele>
        <time>2018-06-09T09:50:26.191Z</time>
      </trkpt>
      <trkpt lat="37.40971333" lon="-4.39410167">
        <ele>686.0</ele>
        <time>2018-06-09T09:50:27.158Z</time>
      </trkpt>
      <trkpt lat="37.40971333" lon="-4.39410167">
        <ele>686.0</ele>
        <time>2018-06-09T09:50:28.195Z</time>
      </trkpt>
      <trkpt lat="37.409735" lon="-4.3941">
        <ele>686.0</ele>
        <time>2018-06-09T09:50:29.162Z</time>
      </trkpt>
      <trkpt lat="37.409735" lon="-4.3941">
        <ele>686.0</ele>
        <time>2018-06-09T09:50:30.178Z</time>
      </trkpt>
      <trkpt lat="37.409765" lon="-4.39409333">
        <ele>686.0</ele>
        <time>2018-06-09T09:50:31.192Z</time>
      </trkpt>
      <trkpt lat="37.409765" lon="-4.39409333">
        <ele>686.0</ele>
        <time>2018-06-09T09:50:32.196Z</time>
      </trkpt>
      <trkpt lat="37.40979833" lon="-4.3941">
        <ele>685.0</ele>
        <time>2018-06-09T09:50:33.172Z</time>
      </trkpt>
      <trkpt lat="37.40979833" lon="-4.3941">
        <ele>685.0</ele>
        <time>2018-06-09T09:50:34.188Z</time>
      </trkpt>
      <trkpt lat="37.40981667" lon="-4.394115">
        <ele>685.0</ele>
        <time>2018-06-09T09:50:35.183Z</time>
      </trkpt>
      <trkpt lat="37.40981667" lon="-4.394115">
        <ele>685.0</ele>
        <time>2018-06-09T09:50:36.162Z</time>
      </trkpt>
      <trkpt lat="37.40982333" lon="-4.39414">
        <ele>685.0</ele>
        <time>2018-06-09T09:50:37.188Z</time>
      </trkpt>
      <trkpt lat="37.40982333" lon="-4.39414">
        <ele>685.0</ele>
        <time>2018-06-09T09:50:38.166Z</time>
      </trkpt>
      <trkpt lat="37.40981833" lon="-4.39417167">
        <ele>685.0</ele>
        <time>2018-06-09T09:50:39.180Z</time>
      </trkpt>
      <trkpt lat="37.40981833" lon="-4.39417167">
        <ele>685.0</ele>
        <time>2018-06-09T09:50:40.161Z</time>
      </trkpt>
      <trkpt lat="37.40979667" lon="-4.39418833">
        <ele>686.0</ele>
        <time>2018-06-09T09:50:41.159Z</time>
      </trkpt>
      <trkpt lat="37.40979667" lon="-4.39418833">
        <ele>686.0</ele>
        <time>2018-06-09T09:50:42.166Z</time>
      </trkpt>
      <trkpt lat="37.40977833" lon="-4.39420167">
        <ele>686.0</ele>
        <time>2018-06-09T09:50:43.180Z</time>
      </trkpt>
      <trkpt lat="37.40977333" lon="-4.394205">
        <ele>686.0</ele>
        <time>2018-06-09T09:50:44.160Z</time>
      </trkpt>
      <trkpt lat="37.40977333" lon="-4.394205">
        <ele>686.0</ele>
        <time>2018-06-09T09:50:45.178Z</time>
      </trkpt>
      <trkpt lat="37.40975333" lon="-4.39421167">
        <ele>687.0</ele>
        <time>2018-06-09T09:50:46.172Z</time>
      </trkpt>
      <trkpt lat="37.40975333" lon="-4.39421167">
        <ele>687.0</ele>
        <time>2018-06-09T09:50:47.157Z</time>
      </trkpt>
      <trkpt lat="37.40973" lon="-4.394195">
        <ele>688.0</ele>
        <time>2018-06-09T09:50:48.171Z</time>
      </trkpt>
      <trkpt lat="37.40971833" lon="-4.39417333">
        <ele>688.0</ele>
        <time>2018-06-09T09:50:49.191Z</time>
      </trkpt>
      <trkpt lat="37.40971833" lon="-4.39417333">
        <ele>688.0</ele>
        <time>2018-06-09T09:50:50.168Z</time>
      </trkpt>
      <trkpt lat="37.40969333" lon="-4.39412333">
        <ele>688.0</ele>
        <time>2018-06-09T09:50:51.178Z</time>
      </trkpt>
      <trkpt lat="37.40967833" lon="-4.39409833">
        <ele>687.0</ele>
        <time>2018-06-09T09:50:52.159Z</time>
      </trkpt>
      <trkpt lat="37.40967833" lon="-4.39409833">
        <ele>687.0</ele>
        <time>2018-06-09T09:50:53.179Z</time>
      </trkpt>
      <trkpt lat="37.40963667" lon="-4.39405667">
        <ele>686.0</ele>
        <time>2018-06-09T09:50:54.186Z</time>
      </trkpt>
      <trkpt lat="37.40961333" lon="-4.394045">
        <ele>686.0</ele>
        <time>2018-06-09T09:50:55.194Z</time>
      </trkpt>
      <trkpt lat="37.40961333" lon="-4.394045">
        <ele>686.0</ele>
        <time>2018-06-09T09:50:56.169Z</time>
      </trkpt>
      <trkpt lat="37.40957667" lon="-4.39402667">
        <ele>685.0</ele>
        <time>2018-06-09T09:50:57.176Z</time>
      </trkpt>
      <trkpt lat="37.40957667" lon="-4.39402667">
        <ele>685.0</ele>
        <time>2018-06-09T09:50:58.194Z</time>
      </trkpt>
      <trkpt lat="37.40953333" lon="-4.39402167">
        <ele>685.0</ele>
        <time>2018-06-09T09:50:59.162Z</time>
      </trkpt>
      <trkpt lat="37.40953333" lon="-4.39402167">
        <ele>685.0</ele>
        <time>2018-06-09T09:51:00.179Z</time>
      </trkpt>
      <trkpt lat="37.40949167" lon="-4.394045">
        <ele>684.0</ele>
        <time>2018-06-09T09:51:01.164Z</time>
      </trkpt>
      <trkpt lat="37.40949167" lon="-4.394045">
        <ele>684.0</ele>
        <time>2018-06-09T09:51:02.174Z</time>
      </trkpt>
      <trkpt lat="37.409465" lon="-4.394075">
        <ele>684.0</ele>
        <time>2018-06-09T09:51:03.181Z</time>
      </trkpt>
      <trkpt lat="37.40946" lon="-4.39407833">
        <ele>685.0</ele>
        <time>2018-06-09T09:51:04.192Z</time>
      </trkpt>
      <trkpt lat="37.40946" lon="-4.39407833">
        <ele>685.0</ele>
        <time>2018-06-09T09:51:05.178Z</time>
      </trkpt>
      <trkpt lat="37.40945833" lon="-4.39408">
        <ele>685.0</ele>
        <time>2018-06-09T09:51:06.184Z</time>
      </trkpt>
      <trkpt lat="37.40945833" lon="-4.39408">
        <ele>685.0</ele>
        <time>2018-06-09T09:51:07.181Z</time>
      </trkpt>
      <trkpt lat="37.409475" lon="-4.39414">
        <ele>684.0</ele>
        <time>2018-06-09T09:51:08.182Z</time>
      </trkpt>
      <trkpt lat="37.409475" lon="-4.39414">
        <ele>684.0</ele>
        <time>2018-06-09T09:51:09.178Z</time>
      </trkpt>
      <trkpt lat="37.40949833" lon="-4.39413333">
        <ele>685.0</ele>
        <time>2018-06-09T09:51:10.175Z</time>
      </trkpt>
      <trkpt lat="37.40951" lon="-4.39413">
        <ele>685.0</ele>
        <time>2018-06-09T09:51:11.192Z</time>
      </trkpt>
      <trkpt lat="37.40951" lon="-4.39413">
        <ele>685.0</ele>
        <time>2018-06-09T09:51:12.168Z</time>
      </trkpt>
      <trkpt lat="37.40954" lon="-4.394125">
        <ele>685.0</ele>
        <time>2018-06-09T09:51:13.174Z</time>
      </trkpt>
      <trkpt lat="37.40954" lon="-4.394125">
        <ele>685.0</ele>
        <time>2018-06-09T09:51:14.191Z</time>
      </trkpt>
      <trkpt lat="37.40957" lon="-4.39413167">
        <ele>686.0</ele>
        <time>2018-06-09T09:51:15.187Z</time>
      </trkpt>
      <trkpt lat="37.40958167" lon="-4.39413667">
        <ele>686.0</ele>
        <time>2018-06-09T09:51:16.160Z</time>
      </trkpt>
      <trkpt lat="37.40958167" lon="-4.39413667">
        <ele>686.0</ele>
        <time>2018-06-09T09:51:17.176Z</time>
      </trkpt>
      <trkpt lat="37.40960333" lon="-4.39415333">
        <ele>687.0</ele>
        <time>2018-06-09T09:51:18.183Z</time>
      </trkpt>
      <trkpt lat="37.40960333" lon="-4.39415333">
        <ele>687.0</ele>
        <time>2018-06-09T09:51:19.158Z</time>
      </trkpt>
      <trkpt lat="37.409625" lon="-4.39417167">
        <ele>687.0</ele>
        <time>2018-06-09T09:51:20.164Z</time>
      </trkpt>
      <trkpt lat="37.409625" lon="-4.39417167">
        <ele>687.0</ele>
        <time>2018-06-09T09:51:21.181Z</time>
      </trkpt>
      <trkpt lat="37.40964167" lon="-4.39419333">
        <ele>688.0</ele>
        <time>2018-06-09T09:51:22.195Z</time>
      </trkpt>
      <trkpt lat="37.40965167" lon="-4.39420833">
        <ele>688.0</ele>
        <time>2018-06-09T09:51:23.175Z</time>
      </trkpt>
      <trkpt lat="37.40965167" lon="-4.39420833">
        <ele>688.0</ele>
        <time>2018-06-09T09:51:24.192Z</time>
      </trkpt>
      <trkpt lat="37.40967" lon="-4.39423333">
        <ele>689.0</ele>
        <time>2018-06-09T09:51:25.176Z</time>
      </trkpt>
      <trkpt lat="37.40967" lon="-4.39423333">
        <ele>689.0</ele>
        <time>2018-06-09T09:51:26.194Z</time>
      </trkpt>
      <trkpt lat="37.40968833" lon="-4.39424667">
        <ele>689.0</ele>
        <time>2018-06-09T09:51:27.160Z</time>
      </trkpt>
      <trkpt lat="37.40970167" lon="-4.39424667">
        <ele>689.0</ele>
        <time>2018-06-09T09:51:28.175Z</time>
      </trkpt>
      <trkpt lat="37.40970167" lon="-4.39424667">
        <ele>689.0</ele>
        <time>2018-06-09T09:51:29.194Z</time>
      </trkpt>
      <trkpt lat="37.40973333" lon="-4.39425167">
        <ele>689.0</ele>
        <time>2018-06-09T09:51:30.166Z</time>
      </trkpt>
      <trkpt lat="37.40973333" lon="-4.39425167">
        <ele>689.0</ele>
        <time>2018-06-09T09:51:31.184Z</time>
      </trkpt>
      <trkpt lat="37.40976833" lon="-4.39426833">
        <ele>690.0</ele>
        <time>2018-06-09T09:51:32.158Z</time>
      </trkpt>
      <trkpt lat="37.40976833" lon="-4.39426833">
        <ele>690.0</ele>
        <time>2018-06-09T09:51:33.164Z</time>
      </trkpt>
      <trkpt lat="37.40979667" lon="-4.39428167">
        <ele>690.0</ele>
        <time>2018-06-09T09:51:34.175Z</time>
      </trkpt>
      <trkpt lat="37.40980833" lon="-4.39429167">
        <ele>690.0</ele>
        <time>2018-06-09T09:51:35.191Z</time>
      </trkpt>
      <trkpt lat="37.40980833" lon="-4.39429167">
        <ele>690.0</ele>
        <time>2018-06-09T09:51:36.167Z</time>
      </trkpt>
      <trkpt lat="37.40983667" lon="-4.39431667">
        <ele>691.0</ele>
        <time>2018-06-09T09:51:37.174Z</time>
      </trkpt>
      <trkpt lat="37.40983667" lon="-4.39431667">
        <ele>691.0</ele>
        <time>2018-06-09T09:51:38.190Z</time>
      </trkpt>
      <trkpt lat="37.40985833" lon="-4.39434">
        <ele>691.0</ele>
        <time>2018-06-09T09:51:39.167Z</time>
      </trkpt>
      <trkpt lat="37.40985833" lon="-4.39434">
        <ele>691.0</ele>
        <time>2018-06-09T09:51:40.183Z</time>
      </trkpt>
      <trkpt lat="37.40987167" lon="-4.394365">
        <ele>691.0</ele>
        <time>2018-06-09T09:51:41.190Z</time>
      </trkpt>
      <trkpt lat="37.40987167" lon="-4.394365">
        <ele>691.0</ele>
        <time>2018-06-09T09:51:42.167Z</time>
      </trkpt>
      <trkpt lat="37.40988667" lon="-4.39439333">
        <ele>692.0</ele>
        <time>2018-06-09T09:51:43.186Z</time>
      </trkpt>
      <trkpt lat="37.40989333" lon="-4.39441">
        <ele>692.0</ele>
        <time>2018-06-09T09:51:44.162Z</time>
      </trkpt>
      <trkpt lat="37.40989333" lon="-4.39441">
        <ele>692.0</ele>
        <time>2018-06-09T09:51:45.179Z</time>
      </trkpt>
      <trkpt lat="37.40990333" lon="-4.394445">
        <ele>693.0</ele>
        <time>2018-06-09T09:51:46.159Z</time>
      </trkpt>
      <trkpt lat="37.40990333" lon="-4.394445">
        <ele>693.0</ele>
        <time>2018-06-09T09:51:47.166Z</time>
      </trkpt>
      <trkpt lat="37.40989167" lon="-4.394485">
        <ele>693.0</ele>
        <time>2018-06-09T09:51:48.196Z</time>
      </trkpt>
      <trkpt lat="37.40988" lon="-4.394505">
        <ele>694.0</ele>
        <time>2018-06-09T09:51:49.174Z</time>
      </trkpt>
      <trkpt lat="37.40986833" lon="-4.39452167">
        <ele>694.0</ele>
        <time>2018-06-09T09:51:50.194Z</time>
      </trkpt>
      <trkpt lat="37.40986833" lon="-4.39452167">
        <ele>694.0</ele>
        <time>2018-06-09T09:51:51.170Z</time>
      </trkpt>
      <trkpt lat="37.40984833" lon="-4.39454833">
        <ele>695.0</ele>
        <time>2018-06-09T09:51:52.185Z</time>
      </trkpt>
      <trkpt lat="37.40984" lon="-4.39455833">
        <ele>695.0</ele>
        <time>2018-06-09T09:51:53.189Z</time>
      </trkpt>
      <trkpt lat="37.40984" lon="-4.39455833">
        <ele>695.0</ele>
        <time>2018-06-09T09:51:54.167Z</time>
      </trkpt>
      <trkpt lat="37.40982167" lon="-4.39458">
        <ele>695.0</ele>
        <time>2018-06-09T09:51:55.174Z</time>
      </trkpt>
      <trkpt lat="37.409815" lon="-4.39459167">
        <ele>696.0</ele>
        <time>2018-06-09T09:51:56.192Z</time>
      </trkpt>
      <trkpt lat="37.409815" lon="-4.39459167">
        <ele>696.0</ele>
        <time>2018-06-09T09:51:57.168Z</time>
      </trkpt>
      <trkpt lat="37.4098" lon="-4.39461167">
        <ele>696.0</ele>
        <time>2018-06-09T09:51:58.177Z</time>
      </trkpt>
      <trkpt lat="37.40979333" lon="-4.394625">
        <ele>696.0</ele>
        <time>2018-06-09T09:51:59.195Z</time>
      </trkpt>
      <trkpt lat="37.40979333" lon="-4.394625">
        <ele>696.0</ele>
        <time>2018-06-09T09:52:00.160Z</time>
      </trkpt>
      <trkpt lat="37.409775" lon="-4.39464">
        <ele>697.0</ele>
        <time>2018-06-09T09:52:01.174Z</time>
      </trkpt>
      <trkpt lat="37.409775" lon="-4.39464">
        <ele>697.0</ele>
        <time>2018-06-09T09:52:02.191Z</time>
      </trkpt>
      <trkpt lat="37.40975333" lon="-4.39466333">
        <ele>697.0</ele>
        <time>2018-06-09T09:52:03.186Z</time>
      </trkpt>
      <trkpt lat="37.40974" lon="-4.39467667">
        <ele>697.0</ele>
        <time>2018-06-09T09:52:04.162Z</time>
      </trkpt>
      <trkpt lat="37.409725" lon="-4.39469167">
        <ele>697.0</ele>
        <time>2018-06-09T09:52:05.181Z</time>
      </trkpt>
      <trkpt lat="37.409725" lon="-4.39469167">
        <ele>697.0</ele>
        <time>2018-06-09T09:52:06.157Z</time>
      </trkpt>
      <trkpt lat="37.409685" lon="-4.39472167">
        <ele>697.0</ele>
        <time>2018-06-09T09:52:07.163Z</time>
      </trkpt>
      <trkpt lat="37.409685" lon="-4.39472167">
        <ele>697.0</ele>
        <time>2018-06-09T09:52:08.180Z</time>
      </trkpt>
      <trkpt lat="37.409635" lon="-4.39474833">
        <ele>697.0</ele>
        <time>2018-06-09T09:52:09.192Z</time>
      </trkpt>
      <trkpt lat="37.40960667" lon="-4.39476">
        <ele>696.0</ele>
        <time>2018-06-09T09:52:10.172Z</time>
      </trkpt>
      <trkpt lat="37.40960667" lon="-4.39476">
        <ele>696.0</ele>
        <time>2018-06-09T09:52:11.188Z</time>
      </trkpt>
      <trkpt lat="37.409555" lon="-4.3948">
        <ele>696.0</ele>
        <time>2018-06-09T09:52:12.194Z</time>
      </trkpt>
      <trkpt lat="37.409555" lon="-4.3948">
        <ele>696.0</ele>
        <time>2018-06-09T09:52:13.170Z</time>
      </trkpt>
      <trkpt lat="37.40953167" lon="-4.39488">
        <ele>696.0</ele>
        <time>2018-06-09T09:52:14.176Z</time>
      </trkpt>
      <trkpt lat="37.40952333" lon="-4.39492667">
        <ele>696.0</ele>
        <time>2018-06-09T09:52:15.178Z</time>
      </trkpt>
      <trkpt lat="37.40951667" lon="-4.39497667">
        <ele>696.0</ele>
        <time>2018-06-09T09:52:16.196Z</time>
      </trkpt>
      <trkpt lat="37.40951667" lon="-4.39497667">
        <ele>696.0</ele>
        <time>2018-06-09T09:52:17.172Z</time>
      </trkpt>
      <trkpt lat="37.409495" lon="-4.39507667">
        <ele>696.0</ele>
        <time>2018-06-09T09:52:18.180Z</time>
      </trkpt>
      <trkpt lat="37.409495" lon="-4.39507667">
        <ele>696.0</ele>
        <time>2018-06-09T09:52:19.196Z</time>
      </trkpt>
      <trkpt lat="37.40946833" lon="-4.39517167">
        <ele>696.0</ele>
        <time>2018-06-09T09:52:20.162Z</time>
      </trkpt>
      <trkpt lat="37.40945667" lon="-4.395215">
        <ele>696.0</ele>
        <time>2018-06-09T09:52:21.177Z</time>
      </trkpt>
      <trkpt lat="37.40944333" lon="-4.395255">
        <ele>696.0</ele>
        <time>2018-06-09T09:52:22.195Z</time>
      </trkpt>
      <trkpt lat="37.40944333" lon="-4.395255">
        <ele>696.0</ele>
        <time>2018-06-09T09:52:23.187Z</time>
      </trkpt>
      <trkpt lat="37.40941667" lon="-4.39532667">
        <ele>696.0</ele>
        <time>2018-06-09T09:52:24.194Z</time>
      </trkpt>
      <trkpt lat="37.40941667" lon="-4.39532667">
        <ele>696.0</ele>
        <time>2018-06-09T09:52:25.170Z</time>
      </trkpt>
      <trkpt lat="37.40940333" lon="-4.39539">
        <ele>697.0</ele>
        <time>2018-06-09T09:52:26.192Z</time>
      </trkpt>
      <trkpt lat="37.40940333" lon="-4.39539">
        <ele>697.0</ele>
        <time>2018-06-09T09:52:27.173Z</time>
      </trkpt>
      <trkpt lat="37.40939833" lon="-4.39543667">
        <ele>697.0</ele>
        <time>2018-06-09T09:52:28.183Z</time>
      </trkpt>
      <trkpt lat="37.40939833" lon="-4.39543667">
        <ele>697.0</ele>
        <time>2018-06-09T09:52:29.160Z</time>
      </trkpt>
      <trkpt lat="37.40938667" lon="-4.39548">
        <ele>697.0</ele>
        <time>2018-06-09T09:52:30.181Z</time>
      </trkpt>
      <trkpt lat="37.40938667" lon="-4.39548">
        <ele>697.0</ele>
        <time>2018-06-09T09:52:31.158Z</time>
      </trkpt>
      <trkpt lat="37.40937167" lon="-4.39552">
        <ele>697.0</ele>
        <time>2018-06-09T09:52:32.165Z</time>
      </trkpt>
      <trkpt lat="37.40937167" lon="-4.39552">
        <ele>697.0</ele>
        <time>2018-06-09T09:52:33.188Z</time>
      </trkpt>
      <trkpt lat="37.40933833" lon="-4.395545">
        <ele>698.0</ele>
        <time>2018-06-09T09:52:34.195Z</time>
      </trkpt>
      <trkpt lat="37.409315" lon="-4.39554333">
        <ele>698.0</ele>
        <time>2018-06-09T09:52:35.160Z</time>
      </trkpt>
      <trkpt lat="37.409315" lon="-4.39554333">
        <ele>698.0</ele>
        <time>2018-06-09T09:52:36.181Z</time>
      </trkpt>
      <trkpt lat="37.409275" lon="-4.39552833">
        <ele>698.0</ele>
        <time>2018-06-09T09:52:37.197Z</time>
      </trkpt>
      <trkpt lat="37.409275" lon="-4.39552833">
        <ele>698.0</ele>
        <time>2018-06-09T09:52:38.173Z</time>
      </trkpt>
      <trkpt lat="37.40923333" lon="-4.395515">
        <ele>698.0</ele>
        <time>2018-06-09T09:52:39.187Z</time>
      </trkpt>
      <trkpt lat="37.40921167" lon="-4.39550833">
        <ele>698.0</ele>
        <time>2018-06-09T09:52:40.161Z</time>
      </trkpt>
      <trkpt lat="37.40921167" lon="-4.39550833">
        <ele>698.0</ele>
        <time>2018-06-09T09:52:41.177Z</time>
      </trkpt>
      <trkpt lat="37.409165" lon="-4.39549333">
        <ele>698.0</ele>
        <time>2018-06-09T09:52:42.184Z</time>
      </trkpt>
      <trkpt lat="37.409165" lon="-4.39549333">
        <ele>698.0</ele>
        <time>2018-06-09T09:52:43.168Z</time>
      </trkpt>
      <trkpt lat="37.409115" lon="-4.39549">
        <ele>697.0</ele>
        <time>2018-06-09T09:52:44.164Z</time>
      </trkpt>
      <trkpt lat="37.40909167" lon="-4.39549">
        <ele>697.0</ele>
        <time>2018-06-09T09:52:45.166Z</time>
      </trkpt>
      <trkpt lat="37.40909167" lon="-4.39549">
        <ele>697.0</ele>
        <time>2018-06-09T09:52:46.182Z</time>
      </trkpt>
      <trkpt lat="37.40905" lon="-4.395495">
        <ele>697.0</ele>
        <time>2018-06-09T09:52:47.162Z</time>
      </trkpt>
      <trkpt lat="37.40903167" lon="-4.3955">
        <ele>697.0</ele>
        <time>2018-06-09T09:52:48.189Z</time>
      </trkpt>
      <trkpt lat="37.40903167" lon="-4.3955">
        <ele>697.0</ele>
        <time>2018-06-09T09:52:49.164Z</time>
      </trkpt>
      <trkpt lat="37.40900333" lon="-4.39552333">
        <ele>698.0</ele>
        <time>2018-06-09T09:52:50.173Z</time>
      </trkpt>
      <trkpt lat="37.40900333" lon="-4.39552333">
        <ele>698.0</ele>
        <time>2018-06-09T09:52:51.191Z</time>
      </trkpt>
      <trkpt lat="37.408975" lon="-4.39554167">
        <ele>698.0</ele>
        <time>2018-06-09T09:52:52.165Z</time>
      </trkpt>
      <trkpt lat="37.408975" lon="-4.39554167">
        <ele>698.0</ele>
        <time>2018-06-09T09:52:53.175Z</time>
      </trkpt>
      <trkpt lat="37.40894667" lon="-4.39555667">
        <ele>699.0</ele>
        <time>2018-06-09T09:52:54.181Z</time>
      </trkpt>
      <trkpt lat="37.40894667" lon="-4.39555667">
        <ele>699.0</ele>
        <time>2018-06-09T09:52:55.159Z</time>
      </trkpt>
      <trkpt lat="37.40891667" lon="-4.39557">
        <ele>699.0</ele>
        <time>2018-06-09T09:52:56.175Z</time>
      </trkpt>
      <trkpt lat="37.40891667" lon="-4.39557">
        <ele>699.0</ele>
        <time>2018-06-09T09:52:57.193Z</time>
      </trkpt>
      <trkpt lat="37.40889" lon="-4.39559">
        <ele>699.0</ele>
        <time>2018-06-09T09:52:58.165Z</time>
      </trkpt>
      <trkpt lat="37.40887667" lon="-4.3956">
        <ele>699.0</ele>
        <time>2018-06-09T09:52:59.165Z</time>
      </trkpt>
      <trkpt lat="37.40887667" lon="-4.3956">
        <ele>699.0</ele>
        <time>2018-06-09T09:53:00.173Z</time>
      </trkpt>
      <trkpt lat="37.40884833" lon="-4.39562667">
        <ele>699.0</ele>
        <time>2018-06-09T09:53:01.180Z</time>
      </trkpt>
      <trkpt lat="37.40883333" lon="-4.39564167">
        <ele>700.0</ele>
        <time>2018-06-09T09:53:02.175Z</time>
      </trkpt>
      <trkpt lat="37.40883333" lon="-4.39564167">
        <ele>700.0</ele>
        <time>2018-06-09T09:53:03.193Z</time>
      </trkpt>
      <trkpt lat="37.40880167" lon="-4.39567">
        <ele>700.0</ele>
        <time>2018-06-09T09:53:04.159Z</time>
      </trkpt>
      <trkpt lat="37.40878667" lon="-4.39568667">
        <ele>700.0</ele>
        <time>2018-06-09T09:53:05.173Z</time>
      </trkpt>
      <trkpt lat="37.40878667" lon="-4.39568667">
        <ele>700.0</ele>
        <time>2018-06-09T09:53:06.189Z</time>
      </trkpt>
      <trkpt lat="37.40876167" lon="-4.39572">
        <ele>700.0</ele>
        <time>2018-06-09T09:53:07.159Z</time>
      </trkpt>
      <trkpt lat="37.40875167" lon="-4.395735">
        <ele>700.0</ele>
        <time>2018-06-09T09:53:08.177Z</time>
      </trkpt>
      <trkpt lat="37.40875167" lon="-4.395735">
        <ele>700.0</ele>
        <time>2018-06-09T09:53:09.194Z</time>
      </trkpt>
      <trkpt lat="37.40873167" lon="-4.395765">
        <ele>700.0</ele>
        <time>2018-06-09T09:53:10.195Z</time>
      </trkpt>
      <trkpt lat="37.40872167" lon="-4.39578333">
        <ele>700.0</ele>
        <time>2018-06-09T09:53:11.174Z</time>
      </trkpt>
      <trkpt lat="37.40872167" lon="-4.39578333">
        <ele>700.0</ele>
        <time>2018-06-09T09:53:12.190Z</time>
      </trkpt>
      <trkpt lat="37.40870333" lon="-4.39582">
        <ele>701.0</ele>
        <time>2018-06-09T09:53:13.164Z</time>
      </trkpt>
      <trkpt lat="37.40870333" lon="-4.39582">
        <ele>701.0</ele>
        <time>2018-06-09T09:53:14.181Z</time>
      </trkpt>
      <trkpt lat="37.40868667" lon="-4.39585833">
        <ele>701.0</ele>
        <time>2018-06-09T09:53:15.188Z</time>
      </trkpt>
      <trkpt lat="37.40868167" lon="-4.39588667">
        <ele>701.0</ele>
        <time>2018-06-09T09:53:16.170Z</time>
      </trkpt>
      <trkpt lat="37.40868167" lon="-4.39588667">
        <ele>701.0</ele>
        <time>2018-06-09T09:53:17.187Z</time>
      </trkpt>
      <trkpt lat="37.40867833" lon="-4.39594667">
        <ele>702.0</ele>
        <time>2018-06-09T09:53:18.194Z</time>
      </trkpt>
      <trkpt lat="37.40868333" lon="-4.395975">
        <ele>702.0</ele>
        <time>2018-06-09T09:53:19.172Z</time>
      </trkpt>
      <trkpt lat="37.40868333" lon="-4.395975">
        <ele>702.0</ele>
        <time>2018-06-09T09:53:20.190Z</time>
      </trkpt>
      <trkpt lat="37.408695" lon="-4.39601833">
        <ele>703.0</ele>
        <time>2018-06-09T09:53:21.194Z</time>
      </trkpt>
      <trkpt lat="37.408695" lon="-4.39601833">
        <ele>703.0</ele>
        <time>2018-06-09T09:53:22.181Z</time>
      </trkpt>
      <trkpt lat="37.40870667" lon="-4.396055">
        <ele>704.0</ele>
        <time>2018-06-09T09:53:23.192Z</time>
      </trkpt>
      <trkpt lat="37.40870667" lon="-4.396055">
        <ele>704.0</ele>
        <time>2018-06-09T09:53:24.167Z</time>
      </trkpt>
      <trkpt lat="37.408715" lon="-4.396085">
        <ele>705.0</ele>
        <time>2018-06-09T09:53:25.161Z</time>
      </trkpt>
      <trkpt lat="37.408715" lon="-4.396085">
        <ele>705.0</ele>
        <time>2018-06-09T09:53:26.177Z</time>
      </trkpt>
      <trkpt lat="37.40872167" lon="-4.39612333">
        <ele>705.0</ele>
        <time>2018-06-09T09:53:27.183Z</time>
      </trkpt>
      <trkpt lat="37.40872167" lon="-4.39612333">
        <ele>705.0</ele>
        <time>2018-06-09T09:53:28.160Z</time>
      </trkpt>
      <trkpt lat="37.40872833" lon="-4.39616333">
        <ele>706.0</ele>
        <time>2018-06-09T09:53:29.175Z</time>
      </trkpt>
      <trkpt lat="37.40872833" lon="-4.39616333">
        <ele>706.0</ele>
        <time>2018-06-09T09:53:30.163Z</time>
      </trkpt>
      <trkpt lat="37.40873" lon="-4.39619833">
        <ele>706.0</ele>
        <time>2018-06-09T09:53:31.161Z</time>
      </trkpt>
      <trkpt lat="37.40873" lon="-4.39619833">
        <ele>706.0</ele>
        <time>2018-06-09T09:53:32.180Z</time>
      </trkpt>
      <trkpt lat="37.408735" lon="-4.39622833">
        <ele>707.0</ele>
        <time>2018-06-09T09:53:33.191Z</time>
      </trkpt>
      <trkpt lat="37.40873833" lon="-4.396245">
        <ele>707.0</ele>
        <time>2018-06-09T09:53:34.165Z</time>
      </trkpt>
      <trkpt lat="37.40873833" lon="-4.396245">
        <ele>707.0</ele>
        <time>2018-06-09T09:53:35.158Z</time>
      </trkpt>
      <trkpt lat="37.40875167" lon="-4.39627333">
        <ele>708.0</ele>
        <time>2018-06-09T09:53:36.164Z</time>
      </trkpt>
      <trkpt lat="37.40875167" lon="-4.39627333">
        <ele>708.0</ele>
        <time>2018-06-09T09:53:37.182Z</time>
      </trkpt>
      <trkpt lat="37.40877" lon="-4.396315">
        <ele>708.0</ele>
        <time>2018-06-09T09:53:38.168Z</time>
      </trkpt>
      <trkpt lat="37.40877" lon="-4.396315">
        <ele>708.0</ele>
        <time>2018-06-09T09:53:39.182Z</time>
      </trkpt>
      <trkpt lat="37.40877" lon="-4.39636167">
        <ele>709.0</ele>
        <time>2018-06-09T09:53:40.189Z</time>
      </trkpt>
      <trkpt lat="37.40876667" lon="-4.39638167">
        <ele>709.0</ele>
        <time>2018-06-09T09:53:41.167Z</time>
      </trkpt>
      <trkpt lat="37.40876667" lon="-4.39638167">
        <ele>709.0</ele>
        <time>2018-06-09T09:53:42.185Z</time>
      </trkpt>
      <trkpt lat="37.408755" lon="-4.39642167">
        <ele>710.0</ele>
        <time>2018-06-09T09:53:43.178Z</time>
      </trkpt>
      <trkpt lat="37.40874833" lon="-4.39644333">
        <ele>710.0</ele>
        <time>2018-06-09T09:53:44.195Z</time>
      </trkpt>
      <trkpt lat="37.40874167" lon="-4.396465">
        <ele>710.0</ele>
        <time>2018-06-09T09:53:45.174Z</time>
      </trkpt>
      <trkpt lat="37.40874167" lon="-4.396465">
        <ele>710.0</ele>
        <time>2018-06-09T09:53:46.190Z</time>
      </trkpt>
      <trkpt lat="37.40872167" lon="-4.39651">
        <ele>710.0</ele>
        <time>2018-06-09T09:53:47.166Z</time>
      </trkpt>
      <trkpt lat="37.40871" lon="-4.39653833">
        <ele>710.0</ele>
        <time>2018-06-09T09:53:48.187Z</time>
      </trkpt>
      <trkpt lat="37.4087" lon="-4.39656667">
        <ele>710.0</ele>
        <time>2018-06-09T09:53:49.168Z</time>
      </trkpt>
      <trkpt lat="37.4087" lon="-4.39656667">
        <ele>710.0</ele>
        <time>2018-06-09T09:53:50.186Z</time>
      </trkpt>
      <trkpt lat="37.40868" lon="-4.39663167">
        <ele>710.0</ele>
        <time>2018-06-09T09:53:51.192Z</time>
      </trkpt>
      <trkpt lat="37.40867" lon="-4.396665">
        <ele>709.0</ele>
        <time>2018-06-09T09:53:52.191Z</time>
      </trkpt>
      <trkpt lat="37.40867" lon="-4.396665">
        <ele>709.0</ele>
        <time>2018-06-09T09:53:53.159Z</time>
      </trkpt>
      <trkpt lat="37.40864333" lon="-4.396735">
        <ele>709.0</ele>
        <time>2018-06-09T09:53:54.176Z</time>
      </trkpt>
      <trkpt lat="37.40864333" lon="-4.396735">
        <ele>709.0</ele>
        <time>2018-06-09T09:53:55.168Z</time>
      </trkpt>
      <trkpt lat="37.40859833" lon="-4.39681833">
        <ele>709.0</ele>
        <time>2018-06-09T09:53:56.159Z</time>
      </trkpt>
      <trkpt lat="37.40859833" lon="-4.39681833">
        <ele>709.0</ele>
        <time>2018-06-09T09:53:57.176Z</time>
      </trkpt>
      <trkpt lat="37.40855833" lon="-4.396925">
        <ele>709.0</ele>
        <time>2018-06-09T09:53:58.182Z</time>
      </trkpt>
      <trkpt lat="37.40855833" lon="-4.396925">
        <ele>709.0</ele>
        <time>2018-06-09T09:53:59.161Z</time>
      </trkpt>
      <trkpt lat="37.40853333" lon="-4.39703">
        <ele>709.0</ele>
        <time>2018-06-09T09:54:00.175Z</time>
      </trkpt>
      <trkpt lat="37.40853333" lon="-4.39703">
        <ele>709.0</ele>
        <time>2018-06-09T09:54:01.193Z</time>
      </trkpt>
      <trkpt lat="37.40851333" lon="-4.39712667">
        <ele>709.0</ele>
        <time>2018-06-09T09:54:02.192Z</time>
      </trkpt>
      <trkpt lat="37.40851333" lon="-4.39712667">
        <ele>709.0</ele>
        <time>2018-06-09T09:54:03.171Z</time>
      </trkpt>
      <trkpt lat="37.40849667" lon="-4.39721">
        <ele>709.0</ele>
        <time>2018-06-09T09:54:04.184Z</time>
      </trkpt>
      <trkpt lat="37.40849" lon="-4.39724833">
        <ele>709.0</ele>
        <time>2018-06-09T09:54:05.160Z</time>
      </trkpt>
      <trkpt lat="37.40849" lon="-4.39724833">
        <ele>709.0</ele>
        <time>2018-06-09T09:54:06.177Z</time>
      </trkpt>
      <trkpt lat="37.408475" lon="-4.39731667">
        <ele>709.0</ele>
        <time>2018-06-09T09:54:07.174Z</time>
      </trkpt>
      <trkpt lat="37.408475" lon="-4.39731667">
        <ele>709.0</ele>
        <time>2018-06-09T09:54:08.190Z</time>
      </trkpt>
      <trkpt lat="37.40846167" lon="-4.39738">
        <ele>709.0</ele>
        <time>2018-06-09T09:54:09.196Z</time>
      </trkpt>
      <trkpt lat="37.40846167" lon="-4.39738">
        <ele>709.0</ele>
        <time>2018-06-09T09:54:10.174Z</time>
      </trkpt>
      <trkpt lat="37.40844667" lon="-4.39745">
        <ele>709.0</ele>
        <time>2018-06-09T09:54:11.195Z</time>
      </trkpt>
      <trkpt lat="37.40844667" lon="-4.39745">
        <ele>709.0</ele>
        <time>2018-06-09T09:54:12.174Z</time>
      </trkpt>
      <trkpt lat="37.40843" lon="-4.39752167">
        <ele>708.0</ele>
        <time>2018-06-09T09:54:13.181Z</time>
      </trkpt>
      <trkpt lat="37.40842333" lon="-4.39756333">
        <ele>708.0</ele>
        <time>2018-06-09T09:54:14.167Z</time>
      </trkpt>
      <trkpt lat="37.40842333" lon="-4.39756333">
        <ele>708.0</ele>
        <time>2018-06-09T09:54:15.186Z</time>
      </trkpt>
      <trkpt lat="37.40840667" lon="-4.39765333">
        <ele>708.0</ele>
        <time>2018-06-09T09:54:16.194Z</time>
      </trkpt>
      <trkpt lat="37.40839667" lon="-4.39770333">
        <ele>707.0</ele>
        <time>2018-06-09T09:54:17.173Z</time>
      </trkpt>
      <trkpt lat="37.40838667" lon="-4.39776">
        <ele>707.0</ele>
        <time>2018-06-09T09:54:18.195Z</time>
      </trkpt>
      <trkpt lat="37.40838667" lon="-4.39776">
        <ele>707.0</ele>
        <time>2018-06-09T09:54:19.173Z</time>
      </trkpt>
      <trkpt lat="37.408365" lon="-4.397875">
        <ele>707.0</ele>
        <time>2018-06-09T09:54:20.180Z</time>
      </trkpt>
      <trkpt lat="37.408355" lon="-4.397935">
        <ele>706.0</ele>
        <time>2018-06-09T09:54:21.166Z</time>
      </trkpt>
      <trkpt lat="37.40834167" lon="-4.397995">
        <ele>706.0</ele>
        <time>2018-06-09T09:54:22.184Z</time>
      </trkpt>
      <trkpt lat="37.40834167" lon="-4.397995">
        <ele>706.0</ele>
        <time>2018-06-09T09:54:23.160Z</time>
      </trkpt>
      <trkpt lat="37.40831333" lon="-4.39811">
        <ele>705.0</ele>
        <time>2018-06-09T09:54:24.176Z</time>
      </trkpt>
      <trkpt lat="37.408295" lon="-4.39815667">
        <ele>705.0</ele>
        <time>2018-06-09T09:54:25.161Z</time>
      </trkpt>
      <trkpt lat="37.408295" lon="-4.39815667">
        <ele>705.0</ele>
        <time>2018-06-09T09:54:26.179Z</time>
      </trkpt>
      <trkpt lat="37.408215" lon="-4.39821833">
        <ele>705.0</ele>
        <time>2018-06-09T09:54:27.186Z</time>
      </trkpt>
      <trkpt lat="37.40816667" lon="-4.39823333">
        <ele>704.0</ele>
        <time>2018-06-09T09:54:28.195Z</time>
      </trkpt>
      <trkpt lat="37.40811167" lon="-4.39823667">
        <ele>703.0</ele>
        <time>2018-06-09T09:54:29.181Z</time>
      </trkpt>
      <trkpt lat="37.40811167" lon="-4.39823667">
        <ele>703.0</ele>
        <time>2018-06-09T09:54:30.157Z</time>
      </trkpt>
      <trkpt lat="37.40799" lon="-4.39821333">
        <ele>702.0</ele>
        <time>2018-06-09T09:54:31.164Z</time>
      </trkpt>
      <trkpt lat="37.40792667" lon="-4.398195">
        <ele>701.0</ele>
        <time>2018-06-09T09:54:32.182Z</time>
      </trkpt>
      <trkpt lat="37.40792667" lon="-4.398195">
        <ele>701.0</ele>
        <time>2018-06-09T09:54:33.161Z</time>
      </trkpt>
      <trkpt lat="37.407795" lon="-4.39816833">
        <ele>700.0</ele>
        <time>2018-06-09T09:54:34.184Z</time>
      </trkpt>
      <trkpt lat="37.407735" lon="-4.39817167">
        <ele>699.0</ele>
        <time>2018-06-09T09:54:35.178Z</time>
      </trkpt>
      <trkpt lat="37.407735" lon="-4.39817167">
        <ele>699.0</ele>
        <time>2018-06-09T09:54:36.194Z</time>
      </trkpt>
      <trkpt lat="37.40764" lon="-4.39824">
        <ele>698.0</ele>
        <time>2018-06-09T09:54:37.161Z</time>
      </trkpt>
      <trkpt lat="37.4076" lon="-4.39829333">
        <ele>698.0</ele>
        <time>2018-06-09T09:54:38.164Z</time>
      </trkpt>
      <trkpt lat="37.4076" lon="-4.39829333">
        <ele>698.0</ele>
        <time>2018-06-09T09:54:39.181Z</time>
      </trkpt>
      <trkpt lat="37.40752" lon="-4.39839667">
        <ele>696.0</ele>
        <time>2018-06-09T09:54:40.164Z</time>
      </trkpt>
      <trkpt lat="37.407475" lon="-4.39844167">
        <ele>696.0</ele>
        <time>2018-06-09T09:54:41.157Z</time>
      </trkpt>
      <trkpt lat="37.407475" lon="-4.39844167">
        <ele>696.0</ele>
        <time>2018-06-09T09:54:42.174Z</time>
      </trkpt>
      <trkpt lat="37.40736833" lon="-4.39852667">
        <ele>695.0</ele>
        <time>2018-06-09T09:54:43.181Z</time>
      </trkpt>
      <trkpt lat="37.40736833" lon="-4.39852667">
        <ele>695.0</ele>
        <time>2018-06-09T09:54:44.175Z</time>
      </trkpt>
      <trkpt lat="37.40725167" lon="-4.398615">
        <ele>691.0</ele>
        <time>2018-06-09T09:54:45.175Z</time>
      </trkpt>
      <trkpt lat="37.40725167" lon="-4.398615">
        <ele>691.0</ele>
        <time>2018-06-09T09:54:46.191Z</time>
      </trkpt>
      <trkpt lat="37.40713" lon="-4.398695">
        <ele>687.0</ele>
        <time>2018-06-09T09:54:47.164Z</time>
      </trkpt>
      <trkpt lat="37.40713" lon="-4.398695">
        <ele>687.0</ele>
        <time>2018-06-09T09:54:48.186Z</time>
      </trkpt>
      <trkpt lat="37.40699" lon="-4.39876333">
        <ele>686.0</ele>
        <time>2018-06-09T09:54:49.195Z</time>
      </trkpt>
      <trkpt lat="37.40699" lon="-4.39876333">
        <ele>686.0</ele>
        <time>2018-06-09T09:54:50.175Z</time>
      </trkpt>
      <trkpt lat="37.40684667" lon="-4.39882">
        <ele>683.0</ele>
        <time>2018-06-09T09:54:51.182Z</time>
      </trkpt>
      <trkpt lat="37.40677333" lon="-4.39885">
        <ele>681.0</ele>
        <time>2018-06-09T09:54:52.193Z</time>
      </trkpt>
      <trkpt lat="37.40677333" lon="-4.39885">
        <ele>681.0</ele>
        <time>2018-06-09T09:54:53.174Z</time>
      </trkpt>
      <trkpt lat="37.40662167" lon="-4.39891333">
        <ele>679.0</ele>
        <time>2018-06-09T09:54:54.163Z</time>
      </trkpt>
      <trkpt lat="37.40662167" lon="-4.39891333">
        <ele>679.0</ele>
        <time>2018-06-09T09:54:55.181Z</time>
      </trkpt>
      <trkpt lat="37.40646667" lon="-4.39896333">
        <ele>676.0</ele>
        <time>2018-06-09T09:54:56.175Z</time>
      </trkpt>
      <trkpt lat="37.40646667" lon="-4.39896333">
        <ele>676.0</ele>
        <time>2018-06-09T09:54:57.193Z</time>
      </trkpt>
      <trkpt lat="37.40631833" lon="-4.39897333">
        <ele>675.0</ele>
        <time>2018-06-09T09:54:58.162Z</time>
      </trkpt>
      <trkpt lat="37.40624333" lon="-4.39897333">
        <ele>674.0</ele>
        <time>2018-06-09T09:54:59.186Z</time>
      </trkpt>
      <trkpt lat="37.40624333" lon="-4.39897333">
        <ele>674.0</ele>
        <time>2018-06-09T09:55:00.162Z</time>
      </trkpt>
      <trkpt lat="37.40609333" lon="-4.39898">
        <ele>673.0</ele>
        <time>2018-06-09T09:55:01.175Z</time>
      </trkpt>
      <trkpt lat="37.40602167" lon="-4.39899">
        <ele>673.0</ele>
        <time>2018-06-09T09:55:02.193Z</time>
      </trkpt>
      <trkpt lat="37.40602167" lon="-4.39899">
        <ele>673.0</ele>
        <time>2018-06-09T09:55:03.174Z</time>
      </trkpt>
      <trkpt lat="37.40590167" lon="-4.39903333">
        <ele>673.0</ele>
        <time>2018-06-09T09:55:04.184Z</time>
      </trkpt>
      <trkpt lat="37.40585167" lon="-4.39906667">
        <ele>672.0</ele>
        <time>2018-06-09T09:55:05.164Z</time>
      </trkpt>
      <trkpt lat="37.40585167" lon="-4.39906667">
        <ele>672.0</ele>
        <time>2018-06-09T09:55:06.182Z</time>
      </trkpt>
      <trkpt lat="37.40576833" lon="-4.39913">
        <ele>671.0</ele>
        <time>2018-06-09T09:55:07.188Z</time>
      </trkpt>
      <trkpt lat="37.40576833" lon="-4.39913">
        <ele>671.0</ele>
        <time>2018-06-09T09:55:08.169Z</time>
      </trkpt>
      <trkpt lat="37.405695" lon="-4.39918667">
        <ele>670.0</ele>
        <time>2018-06-09T09:55:09.158Z</time>
      </trkpt>
      <trkpt lat="37.40565667" lon="-4.39921667">
        <ele>670.0</ele>
        <time>2018-06-09T09:55:10.179Z</time>
      </trkpt>
      <trkpt lat="37.40565667" lon="-4.39921667">
        <ele>670.0</ele>
        <time>2018-06-09T09:55:11.157Z</time>
      </trkpt>
      <trkpt lat="37.40557167" lon="-4.39927">
        <ele>668.0</ele>
        <time>2018-06-09T09:55:12.186Z</time>
      </trkpt>
      <trkpt lat="37.40557167" lon="-4.39927">
        <ele>668.0</ele>
        <time>2018-06-09T09:55:13.164Z</time>
      </trkpt>
      <trkpt lat="37.405475" lon="-4.39934333">
        <ele>667.0</ele>
        <time>2018-06-09T09:55:14.178Z</time>
      </trkpt>
      <trkpt lat="37.405475" lon="-4.39934333">
        <ele>667.0</ele>
        <time>2018-06-09T09:55:15.157Z</time>
      </trkpt>
      <trkpt lat="37.405375" lon="-4.39942667">
        <ele>665.0</ele>
        <time>2018-06-09T09:55:16.163Z</time>
      </trkpt>
      <trkpt lat="37.40533167" lon="-4.399475">
        <ele>664.0</ele>
        <time>2018-06-09T09:55:17.183Z</time>
      </trkpt>
      <trkpt lat="37.40533167" lon="-4.399475">
        <ele>664.0</ele>
        <time>2018-06-09T09:55:18.161Z</time>
      </trkpt>
      <trkpt lat="37.40525" lon="-4.39958833">
        <ele>663.0</ele>
        <time>2018-06-09T09:55:19.172Z</time>
      </trkpt>
      <trkpt lat="37.4052" lon="-4.39963">
        <ele>662.0</ele>
        <time>2018-06-09T09:55:20.190Z</time>
      </trkpt>
      <trkpt lat="37.4052" lon="-4.39963">
        <ele>662.0</ele>
        <time>2018-06-09T09:55:21.169Z</time>
      </trkpt>
      <trkpt lat="37.40508667" lon="-4.39970167">
        <ele>661.0</ele>
        <time>2018-06-09T09:55:22.195Z</time>
      </trkpt>
      <trkpt lat="37.40508667" lon="-4.39970167">
        <ele>661.0</ele>
        <time>2018-06-09T09:55:23.173Z</time>
      </trkpt>
      <trkpt lat="37.40497833" lon="-4.39978167">
        <ele>660.0</ele>
        <time>2018-06-09T09:55:24.187Z</time>
      </trkpt>
      <trkpt lat="37.40492833" lon="-4.399825">
        <ele>659.0</ele>
        <time>2018-06-09T09:55:25.164Z</time>
      </trkpt>
      <trkpt lat="37.40492833" lon="-4.399825">
        <ele>659.0</ele>
        <time>2018-06-09T09:55:26.182Z</time>
      </trkpt>
      <trkpt lat="37.40484167" lon="-4.399905">
        <ele>658.0</ele>
        <time>2018-06-09T09:55:27.168Z</time>
      </trkpt>
      <trkpt lat="37.40484167" lon="-4.399905">
        <ele>658.0</ele>
        <time>2018-06-09T09:55:28.183Z</time>
      </trkpt>
      <trkpt lat="37.404765" lon="-4.39999833">
        <ele>658.0</ele>
        <time>2018-06-09T09:55:29.189Z</time>
      </trkpt>
      <trkpt lat="37.404765" lon="-4.39999833">
        <ele>658.0</ele>
        <time>2018-06-09T09:55:30.171Z</time>
      </trkpt>
      <trkpt lat="37.404705" lon="-4.40009333">
        <ele>657.0</ele>
        <time>2018-06-09T09:55:31.175Z</time>
      </trkpt>
      <trkpt lat="37.404705" lon="-4.40009333">
        <ele>657.0</ele>
        <time>2018-06-09T09:55:32.193Z</time>
      </trkpt>
      <trkpt lat="37.40468" lon="-4.40021167">
        <ele>656.0</ele>
        <time>2018-06-09T09:55:33.157Z</time>
      </trkpt>
      <trkpt lat="37.40467167" lon="-4.40027833">
        <ele>655.0</ele>
        <time>2018-06-09T09:55:34.185Z</time>
      </trkpt>
      <trkpt lat="37.40466333" lon="-4.40034">
        <ele>655.0</ele>
        <time>2018-06-09T09:55:35.164Z</time>
      </trkpt>
      <trkpt lat="37.40466333" lon="-4.40034">
        <ele>655.0</ele>
        <time>2018-06-09T09:55:36.183Z</time>
      </trkpt>
      <trkpt lat="37.40462" lon="-4.40043667">
        <ele>654.0</ele>
        <time>2018-06-09T09:55:37.189Z</time>
      </trkpt>
      <trkpt lat="37.40462" lon="-4.40043667">
        <ele>654.0</ele>
        <time>2018-06-09T09:55:38.174Z</time>
      </trkpt>
      <trkpt lat="37.40454167" lon="-4.40049333">
        <ele>653.0</ele>
        <time>2018-06-09T09:55:39.195Z</time>
      </trkpt>
      <trkpt lat="37.40454167" lon="-4.40049333">
        <ele>653.0</ele>
        <time>2018-06-09T09:55:40.172Z</time>
      </trkpt>
      <trkpt lat="37.40443333" lon="-4.40057167">
        <ele>651.0</ele>
        <time>2018-06-09T09:55:41.186Z</time>
      </trkpt>
      <trkpt lat="37.40443333" lon="-4.40057167">
        <ele>651.0</ele>
        <time>2018-06-09T09:55:42.166Z</time>
      </trkpt>
      <trkpt lat="37.40432" lon="-4.40065">
        <ele>649.0</ele>
        <time>2018-06-09T09:55:43.165Z</time>
      </trkpt>
      <trkpt lat="37.404265" lon="-4.40069">
        <ele>648.0</ele>
        <time>2018-06-09T09:55:44.191Z</time>
      </trkpt>
      <trkpt lat="37.404265" lon="-4.40069">
        <ele>648.0</ele>
        <time>2018-06-09T09:55:45.169Z</time>
      </trkpt>
      <trkpt lat="37.40417167" lon="-4.40075167">
        <ele>646.0</ele>
        <time>2018-06-09T09:55:46.176Z</time>
      </trkpt>
      <trkpt lat="37.40413667" lon="-4.40077333">
        <ele>646.0</ele>
        <time>2018-06-09T09:55:47.165Z</time>
      </trkpt>
      <trkpt lat="37.40413667" lon="-4.40077333">
        <ele>646.0</ele>
        <time>2018-06-09T09:55:48.171Z</time>
      </trkpt>
      <trkpt lat="37.40409167" lon="-4.400835">
        <ele>645.0</ele>
        <time>2018-06-09T09:55:49.177Z</time>
      </trkpt>
      <trkpt lat="37.40409167" lon="-4.400835">
        <ele>645.0</ele>
        <time>2018-06-09T09:55:50.157Z</time>
      </trkpt>
      <trkpt lat="37.404085" lon="-4.400915">
        <ele>645.0</ele>
        <time>2018-06-09T09:55:51.163Z</time>
      </trkpt>
      <trkpt lat="37.404085" lon="-4.400915">
        <ele>645.0</ele>
        <time>2018-06-09T09:55:52.179Z</time>
      </trkpt>
      <trkpt lat="37.40408833" lon="-4.401">
        <ele>644.0</ele>
        <time>2018-06-09T09:55:53.186Z</time>
      </trkpt>
      <trkpt lat="37.40408833" lon="-4.401">
        <ele>644.0</ele>
        <time>2018-06-09T09:55:54.165Z</time>
      </trkpt>
      <trkpt lat="37.404085" lon="-4.40108667">
        <ele>644.0</ele>
        <time>2018-06-09T09:55:55.171Z</time>
      </trkpt>
      <trkpt lat="37.404085" lon="-4.40108667">
        <ele>644.0</ele>
        <time>2018-06-09T09:55:56.188Z</time>
      </trkpt>
      <trkpt lat="37.40408833" lon="-4.40118333">
        <ele>643.0</ele>
        <time>2018-06-09T09:55:57.195Z</time>
      </trkpt>
      <trkpt lat="37.40408833" lon="-4.40118333">
        <ele>643.0</ele>
        <time>2018-06-09T09:55:58.174Z</time>
      </trkpt>
      <trkpt lat="37.40410667" lon="-4.40129">
        <ele>642.0</ele>
        <time>2018-06-09T09:55:59.196Z</time>
      </trkpt>
      <trkpt lat="37.40410667" lon="-4.40129">
        <ele>642.0</ele>
        <time>2018-06-09T09:56:00.173Z</time>
      </trkpt>
      <trkpt lat="37.40411667" lon="-4.40140833">
        <ele>642.0</ele>
        <time>2018-06-09T09:56:01.184Z</time>
      </trkpt>
      <trkpt lat="37.40411667" lon="-4.40140833">
        <ele>642.0</ele>
        <time>2018-06-09T09:56:02.189Z</time>
      </trkpt>
      <trkpt lat="37.40410167" lon="-4.401515">
        <ele>642.0</ele>
        <time>2018-06-09T09:56:03.196Z</time>
      </trkpt>
      <trkpt lat="37.40410167" lon="-4.401515">
        <ele>642.0</ele>
        <time>2018-06-09T09:56:04.181Z</time>
      </trkpt>
      <trkpt lat="37.40409167" lon="-4.40162">
        <ele>642.0</ele>
        <time>2018-06-09T09:56:05.165Z</time>
      </trkpt>
      <trkpt lat="37.40409167" lon="-4.40162">
        <ele>642.0</ele>
        <time>2018-06-09T09:56:06.182Z</time>
      </trkpt>
      <trkpt lat="37.40409" lon="-4.401725">
        <ele>641.0</ele>
        <time>2018-06-09T09:56:07.188Z</time>
      </trkpt>
      <trkpt lat="37.40409" lon="-4.401725">
        <ele>641.0</ele>
        <time>2018-06-09T09:56:08.166Z</time>
      </trkpt>
      <trkpt lat="37.40409" lon="-4.40183333">
        <ele>641.0</ele>
        <time>2018-06-09T09:56:09.192Z</time>
      </trkpt>
      <trkpt lat="37.40409" lon="-4.40183333">
        <ele>641.0</ele>
        <time>2018-06-09T09:56:10.169Z</time>
      </trkpt>
      <trkpt lat="37.40409" lon="-4.40194833">
        <ele>641.0</ele>
        <time>2018-06-09T09:56:11.177Z</time>
      </trkpt>
      <trkpt lat="37.40409" lon="-4.40194833">
        <ele>641.0</ele>
        <time>2018-06-09T09:56:12.196Z</time>
      </trkpt>
      <trkpt lat="37.40408833" lon="-4.40206167">
        <ele>641.0</ele>
        <time>2018-06-09T09:56:13.181Z</time>
      </trkpt>
      <trkpt lat="37.40408833" lon="-4.40206167">
        <ele>641.0</ele>
        <time>2018-06-09T09:56:14.187Z</time>
      </trkpt>
      <trkpt lat="37.40408" lon="-4.40217167">
        <ele>640.0</ele>
        <time>2018-06-09T09:56:15.195Z</time>
      </trkpt>
      <trkpt lat="37.40408" lon="-4.40217167">
        <ele>640.0</ele>
        <time>2018-06-09T09:56:16.173Z</time>
      </trkpt>
      <trkpt lat="37.40407" lon="-4.40228833">
        <ele>640.0</ele>
        <time>2018-06-09T09:56:17.185Z</time>
      </trkpt>
      <trkpt lat="37.40407" lon="-4.40228833">
        <ele>640.0</ele>
        <time>2018-06-09T09:56:18.163Z</time>
      </trkpt>
      <trkpt lat="37.40406333" lon="-4.40241">
        <ele>639.0</ele>
        <time>2018-06-09T09:56:19.173Z</time>
      </trkpt>
      <trkpt lat="37.40406333" lon="-4.40241">
        <ele>639.0</ele>
        <time>2018-06-09T09:56:20.191Z</time>
      </trkpt>
      <trkpt lat="37.40405833" lon="-4.40253833">
        <ele>638.0</ele>
        <time>2018-06-09T09:56:21.167Z</time>
      </trkpt>
      <trkpt lat="37.40405833" lon="-4.40253833">
        <ele>638.0</ele>
        <time>2018-06-09T09:56:22.182Z</time>
      </trkpt>
      <trkpt lat="37.40405667" lon="-4.40267">
        <ele>638.0</ele>
        <time>2018-06-09T09:56:23.189Z</time>
      </trkpt>
      <trkpt lat="37.40405667" lon="-4.40267">
        <ele>638.0</ele>
        <time>2018-06-09T09:56:24.196Z</time>
      </trkpt>
      <trkpt lat="37.40405667" lon="-4.40280167">
        <ele>637.0</ele>
        <time>2018-06-09T09:56:25.178Z</time>
      </trkpt>
      <trkpt lat="37.40405667" lon="-4.40280167">
        <ele>637.0</ele>
        <time>2018-06-09T09:56:26.195Z</time>
      </trkpt>
      <trkpt lat="37.40406333" lon="-4.40293833">
        <ele>637.0</ele>
        <time>2018-06-09T09:56:27.161Z</time>
      </trkpt>
      <trkpt lat="37.404065" lon="-4.40300833">
        <ele>637.0</ele>
        <time>2018-06-09T09:56:28.158Z</time>
      </trkpt>
      <trkpt lat="37.40406833" lon="-4.40308">
        <ele>636.0</ele>
        <time>2018-06-09T09:56:29.177Z</time>
      </trkpt>
      <trkpt lat="37.40406833" lon="-4.40308">
        <ele>636.0</ele>
        <time>2018-06-09T09:56:30.182Z</time>
      </trkpt>
      <trkpt lat="37.40407667" lon="-4.40323">
        <ele>636.0</ele>
        <time>2018-06-09T09:56:31.170Z</time>
      </trkpt>
      <trkpt lat="37.40407667" lon="-4.40323">
        <ele>636.0</ele>
        <time>2018-06-09T09:56:32.186Z</time>
      </trkpt>
      <trkpt lat="37.40408333" lon="-4.40338333">
        <ele>635.0</ele>
        <time>2018-06-09T09:56:33.193Z</time>
      </trkpt>
      <trkpt lat="37.40408167" lon="-4.40346167">
        <ele>635.0</ele>
        <time>2018-06-09T09:56:34.196Z</time>
      </trkpt>
      <trkpt lat="37.40408167" lon="-4.40346167">
        <ele>635.0</ele>
        <time>2018-06-09T09:56:35.172Z</time>
      </trkpt>
      <trkpt lat="37.40408167" lon="-4.40359833">
        <ele>635.0</ele>
        <time>2018-06-09T09:56:36.182Z</time>
      </trkpt>
      <trkpt lat="37.40407833" lon="-4.40366">
        <ele>635.0</ele>
        <time>2018-06-09T09:56:37.193Z</time>
      </trkpt>
      <trkpt lat="37.40407833" lon="-4.40366">
        <ele>635.0</ele>
        <time>2018-06-09T09:56:38.177Z</time>
      </trkpt>
      <trkpt lat="37.40406833" lon="-4.403785">
        <ele>634.0</ele>
        <time>2018-06-09T09:56:39.184Z</time>
      </trkpt>
      <trkpt lat="37.40406833" lon="-4.40384833">
        <ele>634.0</ele>
        <time>2018-06-09T09:56:40.164Z</time>
      </trkpt>
      <trkpt lat="37.40406833" lon="-4.40384833">
        <ele>634.0</ele>
        <time>2018-06-09T09:56:41.181Z</time>
      </trkpt>
      <trkpt lat="37.40406833" lon="-4.40397667">
        <ele>634.0</ele>
        <time>2018-06-09T09:56:42.190Z</time>
      </trkpt>
      <trkpt lat="37.40406833" lon="-4.40397667">
        <ele>634.0</ele>
        <time>2018-06-09T09:56:43.161Z</time>
      </trkpt>
      <trkpt lat="37.40406833" lon="-4.40410667">
        <ele>633.0</ele>
        <time>2018-06-09T09:56:44.173Z</time>
      </trkpt>
      <trkpt lat="37.40406833" lon="-4.40417167">
        <ele>633.0</ele>
        <time>2018-06-09T09:56:45.174Z</time>
      </trkpt>
      <trkpt lat="37.40406833" lon="-4.40417167">
        <ele>633.0</ele>
        <time>2018-06-09T09:56:46.191Z</time>
      </trkpt>
      <trkpt lat="37.40405" lon="-4.40428333">
        <ele>633.0</ele>
        <time>2018-06-09T09:56:47.162Z</time>
      </trkpt>
      <trkpt lat="37.40405" lon="-4.40428333">
        <ele>633.0</ele>
        <time>2018-06-09T09:56:48.190Z</time>
      </trkpt>
      <trkpt lat="37.40400333" lon="-4.40438333">
        <ele>632.0</ele>
        <time>2018-06-09T09:56:49.157Z</time>
      </trkpt>
      <trkpt lat="37.40400333" lon="-4.40438333">
        <ele>632.0</ele>
        <time>2018-06-09T09:56:50.173Z</time>
      </trkpt>
      <trkpt lat="37.40399333" lon="-4.40450167">
        <ele>632.0</ele>
        <time>2018-06-09T09:56:51.195Z</time>
      </trkpt>
      <trkpt lat="37.40399333" lon="-4.40450167">
        <ele>632.0</ele>
        <time>2018-06-09T09:56:52.163Z</time>
      </trkpt>
      <trkpt lat="37.40399833" lon="-4.40461833">
        <ele>632.0</ele>
        <time>2018-06-09T09:56:53.170Z</time>
      </trkpt>
      <trkpt lat="37.40399833" lon="-4.40461833">
        <ele>632.0</ele>
        <time>2018-06-09T09:56:54.188Z</time>
      </trkpt>
      <trkpt lat="37.40400333" lon="-4.40473333">
        <ele>632.0</ele>
        <time>2018-06-09T09:56:55.157Z</time>
      </trkpt>
      <trkpt lat="37.40400333" lon="-4.40473333">
        <ele>632.0</ele>
        <time>2018-06-09T09:56:56.173Z</time>
      </trkpt>
      <trkpt lat="37.404005" lon="-4.40484833">
        <ele>632.0</ele>
        <time>2018-06-09T09:56:57.183Z</time>
      </trkpt>
      <trkpt lat="37.404005" lon="-4.40484833">
        <ele>632.0</ele>
        <time>2018-06-09T09:56:58.162Z</time>
      </trkpt>
      <trkpt lat="37.40400667" lon="-4.40496333">
        <ele>631.0</ele>
        <time>2018-06-09T09:56:59.193Z</time>
      </trkpt>
      <trkpt lat="37.40400667" lon="-4.40496333">
        <ele>631.0</ele>
        <time>2018-06-09T09:57:00.189Z</time>
      </trkpt>
      <trkpt lat="37.40399667" lon="-4.40508">
        <ele>631.0</ele>
        <time>2018-06-09T09:57:01.175Z</time>
      </trkpt>
      <trkpt lat="37.40399667" lon="-4.40508">
        <ele>631.0</ele>
        <time>2018-06-09T09:57:02.175Z</time>
      </trkpt>
      <trkpt lat="37.40393833" lon="-4.40518">
        <ele>630.0</ele>
        <time>2018-06-09T09:57:03.182Z</time>
      </trkpt>
      <trkpt lat="37.40393833" lon="-4.40518">
        <ele>630.0</ele>
        <time>2018-06-09T09:57:04.160Z</time>
      </trkpt>
      <trkpt lat="37.40385333" lon="-4.40525333">
        <ele>629.0</ele>
        <time>2018-06-09T09:57:05.195Z</time>
      </trkpt>
      <trkpt lat="37.40385333" lon="-4.40525333">
        <ele>629.0</ele>
        <time>2018-06-09T09:57:06.173Z</time>
      </trkpt>
      <trkpt lat="37.40380667" lon="-4.40532">
        <ele>629.0</ele>
        <time>2018-06-09T09:57:07.180Z</time>
      </trkpt>
      <trkpt lat="37.40380667" lon="-4.40532">
        <ele>629.0</ele>
        <time>2018-06-09T09:57:08.157Z</time>
      </trkpt>
      <trkpt lat="37.40380167" lon="-4.40540667">
        <ele>629.0</ele>
        <time>2018-06-09T09:57:09.174Z</time>
      </trkpt>
      <trkpt lat="37.40380167" lon="-4.40540667">
        <ele>629.0</ele>
        <time>2018-06-09T09:57:10.190Z</time>
      </trkpt>
      <trkpt lat="37.40380333" lon="-4.40550667">
        <ele>628.0</ele>
        <time>2018-06-09T09:57:11.197Z</time>
      </trkpt>
      <trkpt lat="37.40380333" lon="-4.40550667">
        <ele>628.0</ele>
        <time>2018-06-09T09:57:12.172Z</time>
      </trkpt>
      <trkpt lat="37.403835" lon="-4.405565">
        <ele>628.0</ele>
        <time>2018-06-09T09:57:13.165Z</time>
      </trkpt>
      <trkpt lat="37.40385833" lon="-4.405585">
        <ele>628.0</ele>
        <time>2018-06-09T09:57:14.181Z</time>
      </trkpt>
      <trkpt lat="37.40385833" lon="-4.405585">
        <ele>628.0</ele>
        <time>2018-06-09T09:57:15.159Z</time>
      </trkpt>
      <trkpt lat="37.403885" lon="-4.40565333">
        <ele>628.0</ele>
        <time>2018-06-09T09:57:16.195Z</time>
      </trkpt>
      <trkpt lat="37.403885" lon="-4.40565333">
        <ele>628.0</ele>
        <time>2018-06-09T09:57:17.170Z</time>
      </trkpt>
      <trkpt lat="37.40389" lon="-4.40574667">
        <ele>628.0</ele>
        <time>2018-06-09T09:57:18.177Z</time>
      </trkpt>
      <trkpt lat="37.40389" lon="-4.40579667">
        <ele>628.0</ele>
        <time>2018-06-09T09:57:19.179Z</time>
      </trkpt>
      <trkpt lat="37.40389" lon="-4.40579667">
        <ele>628.0</ele>
        <time>2018-06-09T09:57:20.195Z</time>
      </trkpt>
      <trkpt lat="37.40388667" lon="-4.405905">
        <ele>627.0</ele>
        <time>2018-06-09T09:57:21.163Z</time>
      </trkpt>
      <trkpt lat="37.40388667" lon="-4.405905">
        <ele>627.0</ele>
        <time>2018-06-09T09:57:22.179Z</time>
      </trkpt>
      <trkpt lat="37.40389167" lon="-4.40602167">
        <ele>627.0</ele>
        <time>2018-06-09T09:57:23.157Z</time>
      </trkpt>
      <trkpt lat="37.40389167" lon="-4.40602167">
        <ele>627.0</ele>
        <time>2018-06-09T09:57:24.174Z</time>
      </trkpt>
      <trkpt lat="37.40388667" lon="-4.406145">
        <ele>626.0</ele>
        <time>2018-06-09T09:57:25.182Z</time>
      </trkpt>
      <trkpt lat="37.40388333" lon="-4.40621">
        <ele>626.0</ele>
        <time>2018-06-09T09:57:26.159Z</time>
      </trkpt>
      <trkpt lat="37.40388167" lon="-4.406275">
        <ele>626.0</ele>
        <time>2018-06-09T09:57:27.175Z</time>
      </trkpt>
      <trkpt lat="37.40388167" lon="-4.406275">
        <ele>626.0</ele>
        <time>2018-06-09T09:57:28.192Z</time>
      </trkpt>
      <trkpt lat="37.40388833" lon="-4.40640667">
        <ele>625.0</ele>
        <time>2018-06-09T09:57:29.180Z</time>
      </trkpt>
      <trkpt lat="37.40388833" lon="-4.40640667">
        <ele>625.0</ele>
        <time>2018-06-09T09:57:30.196Z</time>
      </trkpt>
      <trkpt lat="37.40389167" lon="-4.40653833">
        <ele>625.0</ele>
        <time>2018-06-09T09:57:31.162Z</time>
      </trkpt>
      <trkpt lat="37.40389167" lon="-4.40653833">
        <ele>625.0</ele>
        <time>2018-06-09T09:57:32.188Z</time>
      </trkpt>
      <trkpt lat="37.403885" lon="-4.40665667">
        <ele>624.0</ele>
        <time>2018-06-09T09:57:33.184Z</time>
      </trkpt>
      <trkpt lat="37.403885" lon="-4.40665667">
        <ele>624.0</ele>
        <time>2018-06-09T09:57:34.163Z</time>
      </trkpt>
      <trkpt lat="37.40386333" lon="-4.40675167">
        <ele>624.0</ele>
        <time>2018-06-09T09:57:35.189Z</time>
      </trkpt>
      <trkpt lat="37.40386333" lon="-4.40675167">
        <ele>624.0</ele>
        <time>2018-06-09T09:57:36.167Z</time>
      </trkpt>
      <trkpt lat="37.40381333" lon="-4.40682667">
        <ele>624.0</ele>
        <time>2018-06-09T09:57:37.186Z</time>
      </trkpt>
      <trkpt lat="37.40381333" lon="-4.40682667">
        <ele>624.0</ele>
        <time>2018-06-09T09:57:38.163Z</time>
      </trkpt>
      <trkpt lat="37.40379333" lon="-4.40693667">
        <ele>623.0</ele>
        <time>2018-06-09T09:57:39.174Z</time>
      </trkpt>
      <trkpt lat="37.40379333" lon="-4.40693667">
        <ele>623.0</ele>
        <time>2018-06-09T09:57:40.192Z</time>
      </trkpt>
      <trkpt lat="37.40379" lon="-4.407065">
        <ele>623.0</ele>
        <time>2018-06-09T09:57:41.185Z</time>
      </trkpt>
      <trkpt lat="37.40379" lon="-4.407065">
        <ele>623.0</ele>
        <time>2018-06-09T09:57:42.187Z</time>
      </trkpt>
      <trkpt lat="37.40378833" lon="-4.40719667">
        <ele>622.0</ele>
        <time>2018-06-09T09:57:43.193Z</time>
      </trkpt>
      <trkpt lat="37.40378833" lon="-4.40719667">
        <ele>622.0</ele>
        <time>2018-06-09T09:57:44.169Z</time>
      </trkpt>
      <trkpt lat="37.40377833" lon="-4.40732167">
        <ele>622.0</ele>
        <time>2018-06-09T09:57:45.181Z</time>
      </trkpt>
      <trkpt lat="37.40377833" lon="-4.40732167">
        <ele>622.0</ele>
        <time>2018-06-09T09:57:46.162Z</time>
      </trkpt>
      <trkpt lat="37.40374833" lon="-4.40744333">
        <ele>622.0</ele>
        <time>2018-06-09T09:57:47.163Z</time>
      </trkpt>
      <trkpt lat="37.40374833" lon="-4.40744333">
        <ele>622.0</ele>
        <time>2018-06-09T09:57:48.193Z</time>
      </trkpt>
      <trkpt lat="37.40369667" lon="-4.407555">
        <ele>622.0</ele>
        <time>2018-06-09T09:57:49.160Z</time>
      </trkpt>
      <trkpt lat="37.40369667" lon="-4.407555">
        <ele>622.0</ele>
        <time>2018-06-09T09:57:50.177Z</time>
      </trkpt>
      <trkpt lat="37.40363" lon="-4.407635">
        <ele>621.0</ele>
        <time>2018-06-09T09:57:51.183Z</time>
      </trkpt>
      <trkpt lat="37.403605" lon="-4.40767">
        <ele>621.0</ele>
        <time>2018-06-09T09:57:52.177Z</time>
      </trkpt>
      <trkpt lat="37.40358833" lon="-4.40770333">
        <ele>621.0</ele>
        <time>2018-06-09T09:57:53.193Z</time>
      </trkpt>
      <trkpt lat="37.40358833" lon="-4.40770333">
        <ele>621.0</ele>
        <time>2018-06-09T09:57:54.175Z</time>
      </trkpt>
      <trkpt lat="37.40358" lon="-4.40776">
        <ele>621.0</ele>
        <time>2018-06-09T09:57:55.182Z</time>
      </trkpt>
      <trkpt lat="37.40359" lon="-4.40778833">
        <ele>621.0</ele>
        <time>2018-06-09T09:57:56.184Z</time>
      </trkpt>
      <trkpt lat="37.40359" lon="-4.40778833">
        <ele>621.0</ele>
        <time>2018-06-09T09:57:57.162Z</time>
      </trkpt>
      <trkpt lat="37.40361833" lon="-4.40785833">
        <ele>620.0</ele>
        <time>2018-06-09T09:57:58.169Z</time>
      </trkpt>
      <trkpt lat="37.40361833" lon="-4.40785833">
        <ele>620.0</ele>
        <time>2018-06-09T09:57:59.187Z</time>
      </trkpt>
      <trkpt lat="37.40364833" lon="-4.40794">
        <ele>620.0</ele>
        <time>2018-06-09T09:58:00.193Z</time>
      </trkpt>
      <trkpt lat="37.40364833" lon="-4.40794">
        <ele>620.0</ele>
        <time>2018-06-09T09:58:01.173Z</time>
      </trkpt>
      <trkpt lat="37.40368667" lon="-4.40802667">
        <ele>620.0</ele>
        <time>2018-06-09T09:58:02.194Z</time>
      </trkpt>
      <trkpt lat="37.40368667" lon="-4.40802667">
        <ele>620.0</ele>
        <time>2018-06-09T09:58:03.159Z</time>
      </trkpt>
      <trkpt lat="37.403725" lon="-4.40811833">
        <ele>620.0</ele>
        <time>2018-06-09T09:58:04.166Z</time>
      </trkpt>
      <trkpt lat="37.40374333" lon="-4.40816667">
        <ele>619.0</ele>
        <time>2018-06-09T09:58:05.165Z</time>
      </trkpt>
      <trkpt lat="37.40374333" lon="-4.40816667">
        <ele>619.0</ele>
        <time>2018-06-09T09:58:06.157Z</time>
      </trkpt>
      <trkpt lat="37.40378667" lon="-4.40827">
        <ele>619.0</ele>
        <time>2018-06-09T09:58:07.164Z</time>
      </trkpt>
      <trkpt lat="37.40378667" lon="-4.40827">
        <ele>619.0</ele>
        <time>2018-06-09T09:58:08.180Z</time>
      </trkpt>
      <trkpt lat="37.403835" lon="-4.40837833">
        <ele>619.0</ele>
        <time>2018-06-09T09:58:09.186Z</time>
      </trkpt>
      <trkpt lat="37.403835" lon="-4.40837833">
        <ele>619.0</ele>
        <time>2018-06-09T09:58:10.162Z</time>
      </trkpt>
      <trkpt lat="37.40388167" lon="-4.408495">
        <ele>618.0</ele>
        <time>2018-06-09T09:58:11.177Z</time>
      </trkpt>
      <trkpt lat="37.40388167" lon="-4.408495">
        <ele>618.0</ele>
        <time>2018-06-09T09:58:12.196Z</time>
      </trkpt>
      <trkpt lat="37.40393167" lon="-4.40861833">
        <ele>618.0</ele>
        <time>2018-06-09T09:58:13.167Z</time>
      </trkpt>
      <trkpt lat="37.40395667" lon="-4.40868167">
        <ele>618.0</ele>
        <time>2018-06-09T09:58:14.184Z</time>
      </trkpt>
      <trkpt lat="37.40395667" lon="-4.40868167">
        <ele>618.0</ele>
        <time>2018-06-09T09:58:15.163Z</time>
      </trkpt>
      <trkpt lat="37.40400833" lon="-4.40880833">
        <ele>617.0</ele>
        <time>2018-06-09T09:58:16.195Z</time>
      </trkpt>
      <trkpt lat="37.40400833" lon="-4.40880833">
        <ele>617.0</ele>
        <time>2018-06-09T09:58:17.173Z</time>
      </trkpt>
      <trkpt lat="37.40406333" lon="-4.40893167">
        <ele>617.0</ele>
        <time>2018-06-09T09:58:18.181Z</time>
      </trkpt>
      <trkpt lat="37.40406333" lon="-4.40893167">
        <ele>617.0</ele>
        <time>2018-06-09T09:58:19.158Z</time>
      </trkpt>
      <trkpt lat="37.40411333" lon="-4.409045">
        <ele>617.0</ele>
        <time>2018-06-09T09:58:20.174Z</time>
      </trkpt>
      <trkpt lat="37.40411333" lon="-4.409045">
        <ele>617.0</ele>
        <time>2018-06-09T09:58:21.196Z</time>
      </trkpt>
      <trkpt lat="37.40415667" lon="-4.40913667">
        <ele>616.0</ele>
        <time>2018-06-09T09:58:22.162Z</time>
      </trkpt>
      <trkpt lat="37.40415667" lon="-4.40913667">
        <ele>616.0</ele>
        <time>2018-06-09T09:58:23.179Z</time>
      </trkpt>
      <trkpt lat="37.404195" lon="-4.40921167">
        <ele>616.0</ele>
        <time>2018-06-09T09:58:24.184Z</time>
      </trkpt>
      <trkpt lat="37.404195" lon="-4.40921167">
        <ele>616.0</ele>
        <time>2018-06-09T09:58:25.162Z</time>
      </trkpt>
      <trkpt lat="37.40421333" lon="-4.40924833">
        <ele>616.0</ele>
        <time>2018-06-09T09:58:26.165Z</time>
      </trkpt>
      <trkpt lat="37.40421333" lon="-4.40924833">
        <ele>616.0</ele>
        <time>2018-06-09T09:58:27.181Z</time>
      </trkpt>
      <trkpt lat="37.40421667" lon="-4.40925333">
        <ele>616.0</ele>
        <time>2018-06-09T09:58:28.189Z</time>
      </trkpt>
      <trkpt lat="37.40421833" lon="-4.409255">
        <ele>616.0</ele>
        <time>2018-06-09T09:58:29.157Z</time>
      </trkpt>
      <trkpt lat="37.40421833" lon="-4.409255">
        <ele>616.0</ele>
        <time>2018-06-09T09:58:30.178Z</time>
      </trkpt>
      <trkpt lat="37.40426" lon="-4.40936333">
        <ele>614.0</ele>
        <time>2018-06-09T09:58:31.176Z</time>
      </trkpt>
      <trkpt lat="37.40426" lon="-4.40936333">
        <ele>614.0</ele>
        <time>2018-06-09T09:58:32.177Z</time>
      </trkpt>
      <trkpt lat="37.40428833" lon="-4.40942667">
        <ele>613.0</ele>
        <time>2018-06-09T09:58:33.178Z</time>
      </trkpt>
      <trkpt lat="37.40428833" lon="-4.40942667">
        <ele>613.0</ele>
        <time>2018-06-09T09:58:34.195Z</time>
      </trkpt>
      <trkpt lat="37.40432" lon="-4.409505">
        <ele>613.0</ele>
        <time>2018-06-09T09:58:35.162Z</time>
      </trkpt>
      <trkpt lat="37.40432" lon="-4.409505">
        <ele>613.0</ele>
        <time>2018-06-09T09:58:36.179Z</time>
      </trkpt>
      <trkpt lat="37.40435833" lon="-4.40959333">
        <ele>613.0</ele>
        <time>2018-06-09T09:58:37.176Z</time>
      </trkpt>
      <trkpt lat="37.40435833" lon="-4.40959333">
        <ele>613.0</ele>
        <time>2018-06-09T09:58:38.192Z</time>
      </trkpt>
      <trkpt lat="37.40439833" lon="-4.40969167">
        <ele>613.0</ele>
        <time>2018-06-09T09:58:39.169Z</time>
      </trkpt>
      <trkpt lat="37.40439833" lon="-4.40969167">
        <ele>613.0</ele>
        <time>2018-06-09T09:58:40.191Z</time>
      </trkpt>
      <trkpt lat="37.40444" lon="-4.40979667">
        <ele>613.0</ele>
        <time>2018-06-09T09:58:41.194Z</time>
      </trkpt>
      <trkpt lat="37.40444" lon="-4.40979667">
        <ele>613.0</ele>
        <time>2018-06-09T09:58:42.170Z</time>
      </trkpt>
      <trkpt lat="37.40448667" lon="-4.40990833">
        <ele>613.0</ele>
        <time>2018-06-09T09:58:43.176Z</time>
      </trkpt>
      <trkpt lat="37.40448667" lon="-4.40990833">
        <ele>613.0</ele>
        <time>2018-06-09T09:58:44.194Z</time>
      </trkpt>
      <trkpt lat="37.40453333" lon="-4.41002333">
        <ele>612.0</ele>
        <time>2018-06-09T09:58:45.196Z</time>
      </trkpt>
      <trkpt lat="37.40453333" lon="-4.41002333">
        <ele>612.0</ele>
        <time>2018-06-09T09:58:46.173Z</time>
      </trkpt>
      <trkpt lat="37.40458333" lon="-4.41014333">
        <ele>612.0</ele>
        <time>2018-06-09T09:58:47.164Z</time>
      </trkpt>
      <trkpt lat="37.40461" lon="-4.41020333">
        <ele>612.0</ele>
        <time>2018-06-09T09:58:48.173Z</time>
      </trkpt>
      <trkpt lat="37.40461" lon="-4.41020333">
        <ele>612.0</ele>
        <time>2018-06-09T09:58:49.190Z</time>
      </trkpt>
      <trkpt lat="37.40466167" lon="-4.41032833">
        <ele>612.0</ele>
        <time>2018-06-09T09:58:50.157Z</time>
      </trkpt>
      <trkpt lat="37.40466167" lon="-4.41032833">
        <ele>612.0</ele>
        <time>2018-06-09T09:58:51.174Z</time>
      </trkpt>
      <trkpt lat="37.404715" lon="-4.410455">
        <ele>611.0</ele>
        <time>2018-06-09T09:58:52.189Z</time>
      </trkpt>
      <trkpt lat="37.40474167" lon="-4.41052">
        <ele>611.0</ele>
        <time>2018-06-09T09:58:53.181Z</time>
      </trkpt>
      <trkpt lat="37.40474167" lon="-4.41052">
        <ele>611.0</ele>
        <time>2018-06-09T09:58:54.159Z</time>
      </trkpt>
      <trkpt lat="37.40479833" lon="-4.41065167">
        <ele>611.0</ele>
        <time>2018-06-09T09:58:55.188Z</time>
      </trkpt>
      <trkpt lat="37.40479833" lon="-4.41065167">
        <ele>611.0</ele>
        <time>2018-06-09T09:58:56.168Z</time>
      </trkpt>
      <trkpt lat="37.404855" lon="-4.41078667">
        <ele>610.0</ele>
        <time>2018-06-09T09:58:57.178Z</time>
      </trkpt>
      <trkpt lat="37.40488333" lon="-4.410855">
        <ele>610.0</ele>
        <time>2018-06-09T09:58:58.188Z</time>
      </trkpt>
      <trkpt lat="37.40488333" lon="-4.410855">
        <ele>610.0</ele>
        <time>2018-06-09T09:58:59.167Z</time>
      </trkpt>
      <trkpt lat="37.40494" lon="-4.41099167">
        <ele>610.0</ele>
        <time>2018-06-09T09:59:00.173Z</time>
      </trkpt>
      <trkpt lat="37.40494" lon="-4.41099167">
        <ele>610.0</ele>
        <time>2018-06-09T09:59:01.191Z</time>
      </trkpt>
      <trkpt lat="37.40499833" lon="-4.41112833">
        <ele>610.0</ele>
        <time>2018-06-09T09:59:02.158Z</time>
      </trkpt>
      <trkpt lat="37.40499833" lon="-4.41112833">
        <ele>610.0</ele>
        <time>2018-06-09T09:59:03.171Z</time>
      </trkpt>
      <trkpt lat="37.40505667" lon="-4.41127">
        <ele>610.0</ele>
        <time>2018-06-09T09:59:04.167Z</time>
      </trkpt>
      <trkpt lat="37.40505667" lon="-4.41127">
        <ele>610.0</ele>
        <time>2018-06-09T09:59:05.183Z</time>
      </trkpt>
      <trkpt lat="37.40511667" lon="-4.41141333">
        <ele>609.0</ele>
        <time>2018-06-09T09:59:06.189Z</time>
      </trkpt>
      <trkpt lat="37.40511667" lon="-4.41141333">
        <ele>609.0</ele>
        <time>2018-06-09T09:59:07.166Z</time>
      </trkpt>
      <trkpt lat="37.40518167" lon="-4.411555">
        <ele>609.0</ele>
        <time>2018-06-09T09:59:08.174Z</time>
      </trkpt>
      <trkpt lat="37.40518167" lon="-4.411555">
        <ele>609.0</ele>
        <time>2018-06-09T09:59:09.193Z</time>
      </trkpt>
      <trkpt lat="37.40524" lon="-4.41169833">
        <ele>609.0</ele>
        <time>2018-06-09T09:59:10.182Z</time>
      </trkpt>
      <trkpt lat="37.40524" lon="-4.41169833">
        <ele>609.0</ele>
        <time>2018-06-09T09:59:11.158Z</time>
      </trkpt>
      <trkpt lat="37.40529667" lon="-4.41184333">
        <ele>609.0</ele>
        <time>2018-06-09T09:59:12.178Z</time>
      </trkpt>
      <trkpt lat="37.40529667" lon="-4.41184333">
        <ele>609.0</ele>
        <time>2018-06-09T09:59:13.162Z</time>
      </trkpt>
      <trkpt lat="37.40536" lon="-4.41198">
        <ele>608.0</ele>
        <time>2018-06-09T09:59:14.169Z</time>
      </trkpt>
      <trkpt lat="37.40536" lon="-4.41198">
        <ele>608.0</ele>
        <time>2018-06-09T09:59:15.187Z</time>
      </trkpt>
      <trkpt lat="37.40542167" lon="-4.41212">
        <ele>608.0</ele>
        <time>2018-06-09T09:59:16.193Z</time>
      </trkpt>
      <trkpt lat="37.40545" lon="-4.41218833">
        <ele>608.0</ele>
        <time>2018-06-09T09:59:17.163Z</time>
      </trkpt>
      <trkpt lat="37.40545" lon="-4.41218833">
        <ele>608.0</ele>
        <time>2018-06-09T09:59:18.180Z</time>
      </trkpt>
      <trkpt lat="37.40551167" lon="-4.41232667">
        <ele>608.0</ele>
        <time>2018-06-09T09:59:19.186Z</time>
      </trkpt>
      <trkpt lat="37.40554167" lon="-4.412395">
        <ele>608.0</ele>
        <time>2018-06-09T09:59:20.177Z</time>
      </trkpt>
      <trkpt lat="37.40554167" lon="-4.412395">
        <ele>608.0</ele>
        <time>2018-06-09T09:59:21.194Z</time>
      </trkpt>
      <trkpt lat="37.4056" lon="-4.41253167">
        <ele>608.0</ele>
        <time>2018-06-09T09:59:22.169Z</time>
      </trkpt>
      <trkpt lat="37.4056" lon="-4.41253167">
        <ele>608.0</ele>
        <time>2018-06-09T09:59:23.186Z</time>
      </trkpt>
      <trkpt lat="37.40565833" lon="-4.41267">
        <ele>607.0</ele>
        <time>2018-06-09T09:59:24.174Z</time>
      </trkpt>
      <trkpt lat="37.40565833" lon="-4.41267">
        <ele>607.0</ele>
        <time>2018-06-09T09:59:25.191Z</time>
      </trkpt>
      <trkpt lat="37.40572167" lon="-4.41280833">
        <ele>607.0</ele>
        <time>2018-06-09T09:59:26.157Z</time>
      </trkpt>
      <trkpt lat="37.40575" lon="-4.41288">
        <ele>607.0</ele>
        <time>2018-06-09T09:59:27.175Z</time>
      </trkpt>
      <trkpt lat="37.40575" lon="-4.41288">
        <ele>607.0</ele>
        <time>2018-06-09T09:59:28.192Z</time>
      </trkpt>
      <trkpt lat="37.40581167" lon="-4.41302333">
        <ele>607.0</ele>
        <time>2018-06-09T09:59:29.185Z</time>
      </trkpt>
      <trkpt lat="37.40581167" lon="-4.41302333">
        <ele>607.0</ele>
        <time>2018-06-09T09:59:30.166Z</time>
      </trkpt>
      <trkpt lat="37.40586833" lon="-4.41317">
        <ele>607.0</ele>
        <time>2018-06-09T09:59:31.175Z</time>
      </trkpt>
      <trkpt lat="37.40586833" lon="-4.41317">
        <ele>607.0</ele>
        <time>2018-06-09T09:59:32.175Z</time>
      </trkpt>
      <trkpt lat="37.40592833" lon="-4.413315">
        <ele>606.0</ele>
        <time>2018-06-09T09:59:33.168Z</time>
      </trkpt>
      <trkpt lat="37.40596" lon="-4.41339">
        <ele>606.0</ele>
        <time>2018-06-09T09:59:34.187Z</time>
      </trkpt>
      <trkpt lat="37.40599" lon="-4.41346333">
        <ele>606.0</ele>
        <time>2018-06-09T09:59:35.169Z</time>
      </trkpt>
      <trkpt lat="37.40599" lon="-4.41346333">
        <ele>606.0</ele>
        <time>2018-06-09T09:59:36.187Z</time>
      </trkpt>
      <trkpt lat="37.40605167" lon="-4.41361167">
        <ele>606.0</ele>
        <time>2018-06-09T09:59:37.195Z</time>
      </trkpt>
      <trkpt lat="37.40605167" lon="-4.41361167">
        <ele>606.0</ele>
        <time>2018-06-09T09:59:38.170Z</time>
      </trkpt>
      <trkpt lat="37.40611167" lon="-4.41375667">
        <ele>606.0</ele>
        <time>2018-06-09T09:59:39.177Z</time>
      </trkpt>
      <trkpt lat="37.40611167" lon="-4.41375667">
        <ele>606.0</ele>
        <time>2018-06-09T09:59:40.195Z</time>
      </trkpt>
      <trkpt lat="37.40617167" lon="-4.413905">
        <ele>606.0</ele>
        <time>2018-06-09T09:59:41.175Z</time>
      </trkpt>
      <trkpt lat="37.40617167" lon="-4.413905">
        <ele>606.0</ele>
        <time>2018-06-09T09:59:42.192Z</time>
      </trkpt>
      <trkpt lat="37.40623333" lon="-4.41404833">
        <ele>605.0</ele>
        <time>2018-06-09T09:59:43.188Z</time>
      </trkpt>
      <trkpt lat="37.40626333" lon="-4.41411833">
        <ele>605.0</ele>
        <time>2018-06-09T09:59:44.168Z</time>
      </trkpt>
      <trkpt lat="37.40626333" lon="-4.41411833">
        <ele>605.0</ele>
        <time>2018-06-09T09:59:45.186Z</time>
      </trkpt>
      <trkpt lat="37.40633333" lon="-4.41426167">
        <ele>605.0</ele>
        <time>2018-06-09T09:59:46.168Z</time>
      </trkpt>
      <trkpt lat="37.40637167" lon="-4.41433167">
        <ele>605.0</ele>
        <time>2018-06-09T09:59:47.196Z</time>
      </trkpt>
      <trkpt lat="37.40637167" lon="-4.41433167">
        <ele>605.0</ele>
        <time>2018-06-09T09:59:48.183Z</time>
      </trkpt>
      <trkpt lat="37.40645667" lon="-4.41447">
        <ele>604.0</ele>
        <time>2018-06-09T09:59:49.191Z</time>
      </trkpt>
      <trkpt lat="37.40645667" lon="-4.41447">
        <ele>604.0</ele>
        <time>2018-06-09T09:59:50.168Z</time>
      </trkpt>
      <trkpt lat="37.40655167" lon="-4.41461">
        <ele>604.0</ele>
        <time>2018-06-09T09:59:51.162Z</time>
      </trkpt>
      <trkpt lat="37.40660167" lon="-4.41468333">
        <ele>604.0</ele>
        <time>2018-06-09T09:59:52.190Z</time>
      </trkpt>
      <trkpt lat="37.40665333" lon="-4.41475667">
        <ele>604.0</ele>
        <time>2018-06-09T09:59:53.174Z</time>
      </trkpt>
      <trkpt lat="37.40665333" lon="-4.41475667">
        <ele>604.0</ele>
        <time>2018-06-09T09:59:54.191Z</time>
      </trkpt>
      <trkpt lat="37.40675667" lon="-4.41491">
        <ele>604.0</ele>
        <time>2018-06-09T09:59:55.157Z</time>
      </trkpt>
      <trkpt lat="37.40681" lon="-4.41498833">
        <ele>603.0</ele>
        <time>2018-06-09T09:59:56.182Z</time>
      </trkpt>
      <trkpt lat="37.40681" lon="-4.41498833">
        <ele>603.0</ele>
        <time>2018-06-09T09:59:57.158Z</time>
      </trkpt>
      <trkpt lat="37.40692167" lon="-4.41514667">
        <ele>603.0</ele>
        <time>2018-06-09T09:59:58.167Z</time>
      </trkpt>
      <trkpt lat="37.40698" lon="-4.41522833">
        <ele>602.0</ele>
        <time>2018-06-09T09:59:59.189Z</time>
      </trkpt>
      <trkpt lat="37.40698" lon="-4.41522833">
        <ele>602.0</ele>
        <time>2018-06-09T10:00:00.195Z</time>
      </trkpt>
      <trkpt lat="37.40709333" lon="-4.41539667">
        <ele>602.0</ele>
        <time>2018-06-09T10:00:01.169Z</time>
      </trkpt>
      <trkpt lat="37.40715167" lon="-4.41548167">
        <ele>602.0</ele>
        <time>2018-06-09T10:00:02.167Z</time>
      </trkpt>
      <trkpt lat="37.40715167" lon="-4.41548167">
        <ele>602.0</ele>
        <time>2018-06-09T10:00:03.183Z</time>
      </trkpt>
      <trkpt lat="37.40727" lon="-4.41565833">
        <ele>602.0</ele>
        <time>2018-06-09T10:00:04.191Z</time>
      </trkpt>
      <trkpt lat="37.40727" lon="-4.41565833">
        <ele>602.0</ele>
        <time>2018-06-09T10:00:05.169Z</time>
      </trkpt>
      <trkpt lat="37.40738833" lon="-4.41583333">
        <ele>601.0</ele>
        <time>2018-06-09T10:00:06.181Z</time>
      </trkpt>
      <trkpt lat="37.40738833" lon="-4.41583333">
        <ele>601.0</ele>
        <time>2018-06-09T10:00:07.190Z</time>
      </trkpt>
      <trkpt lat="37.407505" lon="-4.416015">
        <ele>601.0</ele>
        <time>2018-06-09T10:00:08.178Z</time>
      </trkpt>
      <trkpt lat="37.407505" lon="-4.416015">
        <ele>601.0</ele>
        <time>2018-06-09T10:00:09.195Z</time>
      </trkpt>
      <trkpt lat="37.40762" lon="-4.41620167">
        <ele>600.0</ele>
        <time>2018-06-09T10:00:10.166Z</time>
      </trkpt>
      <trkpt lat="37.40762" lon="-4.41620167">
        <ele>600.0</ele>
        <time>2018-06-09T10:00:11.183Z</time>
      </trkpt>
      <trkpt lat="37.40773333" lon="-4.41639">
        <ele>600.0</ele>
        <time>2018-06-09T10:00:12.178Z</time>
      </trkpt>
      <trkpt lat="37.40773333" lon="-4.41639">
        <ele>600.0</ele>
        <time>2018-06-09T10:00:13.195Z</time>
      </trkpt>
      <trkpt lat="37.40784333" lon="-4.41658">
        <ele>599.0</ele>
        <time>2018-06-09T10:00:14.163Z</time>
      </trkpt>
      <trkpt lat="37.40784333" lon="-4.41658">
        <ele>599.0</ele>
        <time>2018-06-09T10:00:15.179Z</time>
      </trkpt>
      <trkpt lat="37.40795" lon="-4.41676833">
        <ele>599.0</ele>
        <time>2018-06-09T10:00:16.185Z</time>
      </trkpt>
      <trkpt lat="37.40800167" lon="-4.41686167">
        <ele>599.0</ele>
        <time>2018-06-09T10:00:17.188Z</time>
      </trkpt>
      <trkpt lat="37.40800167" lon="-4.41686167">
        <ele>599.0</ele>
        <time>2018-06-09T10:00:18.168Z</time>
      </trkpt>
      <trkpt lat="37.40810167" lon="-4.41704667">
        <ele>598.0</ele>
        <time>2018-06-09T10:00:19.175Z</time>
      </trkpt>
      <trkpt lat="37.40810167" lon="-4.41704667">
        <ele>598.0</ele>
        <time>2018-06-09T10:00:20.193Z</time>
      </trkpt>
      <trkpt lat="37.40819667" lon="-4.41722833">
        <ele>598.0</ele>
        <time>2018-06-09T10:00:21.196Z</time>
      </trkpt>
      <trkpt lat="37.40819667" lon="-4.41722833">
        <ele>598.0</ele>
        <time>2018-06-09T10:00:22.172Z</time>
      </trkpt>
      <trkpt lat="37.40829167" lon="-4.41741">
        <ele>597.0</ele>
        <time>2018-06-09T10:00:23.181Z</time>
      </trkpt>
      <trkpt lat="37.40829167" lon="-4.41741">
        <ele>597.0</ele>
        <time>2018-06-09T10:00:24.157Z</time>
      </trkpt>
      <trkpt lat="37.40838667" lon="-4.41759">
        <ele>597.0</ele>
        <time>2018-06-09T10:00:25.169Z</time>
      </trkpt>
      <trkpt lat="37.40838667" lon="-4.41759">
        <ele>597.0</ele>
        <time>2018-06-09T10:00:26.186Z</time>
      </trkpt>
      <trkpt lat="37.40848167" lon="-4.41777167">
        <ele>596.0</ele>
        <time>2018-06-09T10:00:27.182Z</time>
      </trkpt>
      <trkpt lat="37.40848167" lon="-4.41777167">
        <ele>596.0</ele>
        <time>2018-06-09T10:00:28.158Z</time>
      </trkpt>
      <trkpt lat="37.40857667" lon="-4.417955">
        <ele>595.0</ele>
        <time>2018-06-09T10:00:29.171Z</time>
      </trkpt>
      <trkpt lat="37.40857667" lon="-4.417955">
        <ele>595.0</ele>
        <time>2018-06-09T10:00:30.183Z</time>
      </trkpt>
      <trkpt lat="37.40867333" lon="-4.41814167">
        <ele>595.0</ele>
        <time>2018-06-09T10:00:31.174Z</time>
      </trkpt>
      <trkpt lat="37.40867333" lon="-4.41814167">
        <ele>595.0</ele>
        <time>2018-06-09T10:00:32.194Z</time>
      </trkpt>
      <trkpt lat="37.40877333" lon="-4.41833333">
        <ele>594.0</ele>
        <time>2018-06-09T10:00:33.181Z</time>
      </trkpt>
      <trkpt lat="37.40882333" lon="-4.41843">
        <ele>594.0</ele>
        <time>2018-06-09T10:00:34.159Z</time>
      </trkpt>
      <trkpt lat="37.40887333" lon="-4.41852833">
        <ele>594.0</ele>
        <time>2018-06-09T10:00:35.177Z</time>
      </trkpt>
      <trkpt lat="37.40887333" lon="-4.41852833">
        <ele>594.0</ele>
        <time>2018-06-09T10:00:36.195Z</time>
      </trkpt>
      <trkpt lat="37.40897333" lon="-4.41872333">
        <ele>593.0</ele>
        <time>2018-06-09T10:00:37.163Z</time>
      </trkpt>
      <trkpt lat="37.40897333" lon="-4.41872333">
        <ele>593.0</ele>
        <time>2018-06-09T10:00:38.185Z</time>
      </trkpt>
      <trkpt lat="37.409075" lon="-4.41892167">
        <ele>592.0</ele>
        <time>2018-06-09T10:00:39.164Z</time>
      </trkpt>
      <trkpt lat="37.409075" lon="-4.41892167">
        <ele>592.0</ele>
        <time>2018-06-09T10:00:40.181Z</time>
      </trkpt>
      <trkpt lat="37.40917833" lon="-4.41912333">
        <ele>592.0</ele>
        <time>2018-06-09T10:00:41.187Z</time>
      </trkpt>
      <trkpt lat="37.40917833" lon="-4.41912333">
        <ele>592.0</ele>
        <time>2018-06-09T10:00:42.168Z</time>
      </trkpt>
      <trkpt lat="37.40928333" lon="-4.419325">
        <ele>591.0</ele>
        <time>2018-06-09T10:00:43.181Z</time>
      </trkpt>
      <trkpt lat="37.40933667" lon="-4.419425">
        <ele>591.0</ele>
        <time>2018-06-09T10:00:44.195Z</time>
      </trkpt>
      <trkpt lat="37.40933667" lon="-4.419425">
        <ele>591.0</ele>
        <time>2018-06-09T10:00:45.173Z</time>
      </trkpt>
      <trkpt lat="37.40944167" lon="-4.41963">
        <ele>590.0</ele>
        <time>2018-06-09T10:00:46.180Z</time>
      </trkpt>
      <trkpt lat="37.40944167" lon="-4.41963">
        <ele>590.0</ele>
        <time>2018-06-09T10:00:47.176Z</time>
      </trkpt>
      <trkpt lat="37.40955167" lon="-4.41983667">
        <ele>589.0</ele>
        <time>2018-06-09T10:00:48.168Z</time>
      </trkpt>
      <trkpt lat="37.40960667" lon="-4.41994">
        <ele>589.0</ele>
        <time>2018-06-09T10:00:49.185Z</time>
      </trkpt>
      <trkpt lat="37.40965833" lon="-4.420045">
        <ele>589.0</ele>
        <time>2018-06-09T10:00:50.165Z</time>
      </trkpt>
      <trkpt lat="37.40965833" lon="-4.420045">
        <ele>589.0</ele>
        <time>2018-06-09T10:00:51.183Z</time>
      </trkpt>
      <trkpt lat="37.40976667" lon="-4.420255">
        <ele>588.0</ele>
        <time>2018-06-09T10:00:52.165Z</time>
      </trkpt>
      <trkpt lat="37.40976667" lon="-4.420255">
        <ele>588.0</ele>
        <time>2018-06-09T10:00:53.182Z</time>
      </trkpt>
      <trkpt lat="37.40987667" lon="-4.42046333">
        <ele>588.0</ele>
        <time>2018-06-09T10:00:54.189Z</time>
      </trkpt>
      <trkpt lat="37.40987667" lon="-4.42046333">
        <ele>588.0</ele>
        <time>2018-06-09T10:00:55.168Z</time>
      </trkpt>
      <trkpt lat="37.40998333" lon="-4.42067167">
        <ele>587.0</ele>
        <time>2018-06-09T10:00:56.175Z</time>
      </trkpt>
      <trkpt lat="37.40998333" lon="-4.42067167">
        <ele>587.0</ele>
        <time>2018-06-09T10:00:57.158Z</time>
      </trkpt>
      <trkpt lat="37.41008667" lon="-4.42087667">
        <ele>587.0</ele>
        <time>2018-06-09T10:00:58.178Z</time>
      </trkpt>
      <trkpt lat="37.41008667" lon="-4.42087667">
        <ele>587.0</ele>
        <time>2018-06-09T10:00:59.194Z</time>
      </trkpt>
      <trkpt lat="37.41018667" lon="-4.421075">
        <ele>586.0</ele>
        <time>2018-06-09T10:01:00.170Z</time>
      </trkpt>
      <trkpt lat="37.41023667" lon="-4.42117333">
        <ele>586.0</ele>
        <time>2018-06-09T10:01:01.187Z</time>
      </trkpt>
      <trkpt lat="37.41023667" lon="-4.42117333">
        <ele>586.0</ele>
        <time>2018-06-09T10:01:02.166Z</time>
      </trkpt>
      <trkpt lat="37.41033667" lon="-4.42136333">
        <ele>586.0</ele>
        <time>2018-06-09T10:01:03.174Z</time>
      </trkpt>
      <trkpt lat="37.41033667" lon="-4.42136333">
        <ele>586.0</ele>
        <time>2018-06-09T10:01:04.159Z</time>
      </trkpt>
      <trkpt lat="37.410435" lon="-4.42155">
        <ele>585.0</ele>
        <time>2018-06-09T10:01:05.188Z</time>
      </trkpt>
      <trkpt lat="37.410435" lon="-4.42155">
        <ele>585.0</ele>
        <time>2018-06-09T10:01:06.166Z</time>
      </trkpt>
      <trkpt lat="37.41053167" lon="-4.42173333">
        <ele>585.0</ele>
        <time>2018-06-09T10:01:07.177Z</time>
      </trkpt>
      <trkpt lat="37.41058" lon="-4.42182333">
        <ele>585.0</ele>
        <time>2018-06-09T10:01:08.162Z</time>
      </trkpt>
      <trkpt lat="37.41058" lon="-4.42182333">
        <ele>585.0</ele>
        <time>2018-06-09T10:01:09.179Z</time>
      </trkpt>
      <trkpt lat="37.41067167" lon="-4.42200667">
        <ele>584.0</ele>
        <time>2018-06-09T10:01:10.185Z</time>
      </trkpt>
      <trkpt lat="37.41067167" lon="-4.42200667">
        <ele>584.0</ele>
        <time>2018-06-09T10:01:11.196Z</time>
      </trkpt>
      <trkpt lat="37.41076333" lon="-4.422185">
        <ele>584.0</ele>
        <time>2018-06-09T10:01:12.163Z</time>
      </trkpt>
      <trkpt lat="37.41076333" lon="-4.422185">
        <ele>584.0</ele>
        <time>2018-06-09T10:01:13.178Z</time>
      </trkpt>
      <trkpt lat="37.41085333" lon="-4.42236333">
        <ele>583.0</ele>
        <time>2018-06-09T10:01:14.158Z</time>
      </trkpt>
      <trkpt lat="37.41085333" lon="-4.42236333">
        <ele>583.0</ele>
        <time>2018-06-09T10:01:15.177Z</time>
      </trkpt>
      <trkpt lat="37.41094333" lon="-4.42254">
        <ele>583.0</ele>
        <time>2018-06-09T10:01:16.184Z</time>
      </trkpt>
      <trkpt lat="37.41098833" lon="-4.42262833">
        <ele>583.0</ele>
        <time>2018-06-09T10:01:17.161Z</time>
      </trkpt>
      <trkpt lat="37.41098833" lon="-4.42262833">
        <ele>583.0</ele>
        <time>2018-06-09T10:01:18.177Z</time>
      </trkpt>
      <trkpt lat="37.41107833" lon="-4.422805">
        <ele>582.0</ele>
        <time>2018-06-09T10:01:19.183Z</time>
      </trkpt>
      <trkpt lat="37.411125" lon="-4.422895">
        <ele>582.0</ele>
        <time>2018-06-09T10:01:20.183Z</time>
      </trkpt>
      <trkpt lat="37.411125" lon="-4.422895">
        <ele>582.0</ele>
        <time>2018-06-09T10:01:21.170Z</time>
      </trkpt>
      <trkpt lat="37.41121667" lon="-4.42307333">
        <ele>581.0</ele>
        <time>2018-06-09T10:01:22.177Z</time>
      </trkpt>
      <trkpt lat="37.41126333" lon="-4.42316167">
        <ele>581.0</ele>
        <time>2018-06-09T10:01:23.195Z</time>
      </trkpt>
      <trkpt lat="37.41126333" lon="-4.42316167">
        <ele>581.0</ele>
        <time>2018-06-09T10:01:24.173Z</time>
      </trkpt>
      <trkpt lat="37.41135667" lon="-4.42334">
        <ele>580.0</ele>
        <time>2018-06-09T10:01:25.158Z</time>
      </trkpt>
      <trkpt lat="37.41135667" lon="-4.42334">
        <ele>580.0</ele>
        <time>2018-06-09T10:01:26.174Z</time>
      </trkpt>
      <trkpt lat="37.41145" lon="-4.42351833">
        <ele>579.0</ele>
        <time>2018-06-09T10:01:27.162Z</time>
      </trkpt>
      <trkpt lat="37.41145" lon="-4.42351833">
        <ele>579.0</ele>
        <time>2018-06-09T10:01:28.163Z</time>
      </trkpt>
      <trkpt lat="37.411545" lon="-4.4237">
        <ele>579.0</ele>
        <time>2018-06-09T10:01:29.177Z</time>
      </trkpt>
      <trkpt lat="37.411545" lon="-4.4237">
        <ele>579.0</ele>
        <time>2018-06-09T10:01:30.195Z</time>
      </trkpt>
      <trkpt lat="37.41164" lon="-4.423885">
        <ele>578.0</ele>
        <time>2018-06-09T10:01:31.167Z</time>
      </trkpt>
      <trkpt lat="37.41164" lon="-4.423885">
        <ele>578.0</ele>
        <time>2018-06-09T10:01:32.183Z</time>
      </trkpt>
      <trkpt lat="37.411735" lon="-4.42407167">
        <ele>578.0</ele>
        <time>2018-06-09T10:01:33.189Z</time>
      </trkpt>
      <trkpt lat="37.411735" lon="-4.42407167">
        <ele>578.0</ele>
        <time>2018-06-09T10:01:34.167Z</time>
      </trkpt>
      <trkpt lat="37.41183167" lon="-4.42426">
        <ele>578.0</ele>
        <time>2018-06-09T10:01:35.192Z</time>
      </trkpt>
      <trkpt lat="37.41183167" lon="-4.42426">
        <ele>578.0</ele>
        <time>2018-06-09T10:01:36.170Z</time>
      </trkpt>
      <trkpt lat="37.41193" lon="-4.42444833">
        <ele>577.0</ele>
        <time>2018-06-09T10:01:37.166Z</time>
      </trkpt>
      <trkpt lat="37.41193" lon="-4.42444833">
        <ele>577.0</ele>
        <time>2018-06-09T10:01:38.168Z</time>
      </trkpt>
      <trkpt lat="37.41202833" lon="-4.42464">
        <ele>577.0</ele>
        <time>2018-06-09T10:01:39.175Z</time>
      </trkpt>
      <trkpt lat="37.41207833" lon="-4.42473833">
        <ele>577.0</ele>
        <time>2018-06-09T10:01:40.159Z</time>
      </trkpt>
      <trkpt lat="37.41212667" lon="-4.424835">
        <ele>577.0</ele>
        <time>2018-06-09T10:01:41.165Z</time>
      </trkpt>
      <trkpt lat="37.41212667" lon="-4.424835">
        <ele>577.0</ele>
        <time>2018-06-09T10:01:42.171Z</time>
      </trkpt>
      <trkpt lat="37.41222667" lon="-4.42503167">
        <ele>577.0</ele>
        <time>2018-06-09T10:01:43.179Z</time>
      </trkpt>
      <trkpt lat="37.41222667" lon="-4.42503167">
        <ele>577.0</ele>
        <time>2018-06-09T10:01:44.195Z</time>
      </trkpt>
      <trkpt lat="37.412325" lon="-4.42522833">
        <ele>576.0</ele>
        <time>2018-06-09T10:01:45.172Z</time>
      </trkpt>
      <trkpt lat="37.412325" lon="-4.42522833">
        <ele>576.0</ele>
        <time>2018-06-09T10:01:46.189Z</time>
      </trkpt>
      <trkpt lat="37.41242833" lon="-4.42542333">
        <ele>575.0</ele>
        <time>2018-06-09T10:01:47.158Z</time>
      </trkpt>
      <trkpt lat="37.41242833" lon="-4.42542333">
        <ele>575.0</ele>
        <time>2018-06-09T10:01:48.173Z</time>
      </trkpt>
      <trkpt lat="37.41253333" lon="-4.42562333">
        <ele>575.0</ele>
        <time>2018-06-09T10:01:49.180Z</time>
      </trkpt>
      <trkpt lat="37.41253333" lon="-4.42562333">
        <ele>575.0</ele>
        <time>2018-06-09T10:01:50.158Z</time>
      </trkpt>
      <trkpt lat="37.41263833" lon="-4.42582333">
        <ele>574.0</ele>
        <time>2018-06-09T10:01:51.168Z</time>
      </trkpt>
      <trkpt lat="37.41263833" lon="-4.42582333">
        <ele>574.0</ele>
        <time>2018-06-09T10:01:52.185Z</time>
      </trkpt>
      <trkpt lat="37.41274333" lon="-4.42602667">
        <ele>573.0</ele>
        <time>2018-06-09T10:01:53.192Z</time>
      </trkpt>
      <trkpt lat="37.41274333" lon="-4.42602667">
        <ele>573.0</ele>
        <time>2018-06-09T10:01:54.169Z</time>
      </trkpt>
      <trkpt lat="37.41284667" lon="-4.42623">
        <ele>572.0</ele>
        <time>2018-06-09T10:01:55.176Z</time>
      </trkpt>
      <trkpt lat="37.41284667" lon="-4.42623">
        <ele>572.0</ele>
        <time>2018-06-09T10:01:56.193Z</time>
      </trkpt>
      <trkpt lat="37.41295333" lon="-4.42643167">
        <ele>572.0</ele>
        <time>2018-06-09T10:01:57.159Z</time>
      </trkpt>
      <trkpt lat="37.41295333" lon="-4.42643167">
        <ele>572.0</ele>
        <time>2018-06-09T10:01:58.186Z</time>
      </trkpt>
      <trkpt lat="37.41306" lon="-4.42663333">
        <ele>571.0</ele>
        <time>2018-06-09T10:01:59.167Z</time>
      </trkpt>
      <trkpt lat="37.41311167" lon="-4.42673333">
        <ele>570.0</ele>
        <time>2018-06-09T10:02:00.195Z</time>
      </trkpt>
      <trkpt lat="37.41311167" lon="-4.42673333">
        <ele>570.0</ele>
        <time>2018-06-09T10:02:01.176Z</time>
      </trkpt>
      <trkpt lat="37.413215" lon="-4.42693167">
        <ele>570.0</ele>
        <time>2018-06-09T10:02:02.182Z</time>
      </trkpt>
      <trkpt lat="37.41326667" lon="-4.42703">
        <ele>569.0</ele>
        <time>2018-06-09T10:02:03.184Z</time>
      </trkpt>
      <trkpt lat="37.41326667" lon="-4.42703">
        <ele>569.0</ele>
        <time>2018-06-09T10:02:04.196Z</time>
      </trkpt>
      <trkpt lat="37.41336833" lon="-4.42722833">
        <ele>568.0</ele>
        <time>2018-06-09T10:02:05.162Z</time>
      </trkpt>
      <trkpt lat="37.41336833" lon="-4.42722833">
        <ele>568.0</ele>
        <time>2018-06-09T10:02:06.179Z</time>
      </trkpt>
      <trkpt lat="37.41347167" lon="-4.42742833">
        <ele>567.0</ele>
        <time>2018-06-09T10:02:07.175Z</time>
      </trkpt>
      <trkpt lat="37.41347167" lon="-4.42742833">
        <ele>567.0</ele>
        <time>2018-06-09T10:02:08.192Z</time>
      </trkpt>
      <trkpt lat="37.41357833" lon="-4.42763">
        <ele>566.0</ele>
        <time>2018-06-09T10:02:09.170Z</time>
      </trkpt>
      <trkpt lat="37.41357833" lon="-4.42763">
        <ele>566.0</ele>
        <time>2018-06-09T10:02:10.188Z</time>
      </trkpt>
      <trkpt lat="37.413685" lon="-4.42783167">
        <ele>565.0</ele>
        <time>2018-06-09T10:02:11.194Z</time>
      </trkpt>
      <trkpt lat="37.413685" lon="-4.42783167">
        <ele>565.0</ele>
        <time>2018-06-09T10:02:12.170Z</time>
      </trkpt>
      <trkpt lat="37.41379333" lon="-4.42803667">
        <ele>564.0</ele>
        <time>2018-06-09T10:02:13.178Z</time>
      </trkpt>
      <trkpt lat="37.41379333" lon="-4.42803667">
        <ele>564.0</ele>
        <time>2018-06-09T10:02:14.195Z</time>
      </trkpt>
      <trkpt lat="37.4139" lon="-4.42824333">
        <ele>564.0</ele>
        <time>2018-06-09T10:02:15.165Z</time>
      </trkpt>
      <trkpt lat="37.4139" lon="-4.42824333">
        <ele>564.0</ele>
        <time>2018-06-09T10:02:16.181Z</time>
      </trkpt>
      <trkpt lat="37.41400667" lon="-4.42845167">
        <ele>563.0</ele>
        <time>2018-06-09T10:02:17.187Z</time>
      </trkpt>
      <trkpt lat="37.41400667" lon="-4.42845167">
        <ele>563.0</ele>
        <time>2018-06-09T10:02:18.168Z</time>
      </trkpt>
      <trkpt lat="37.41411167" lon="-4.42866">
        <ele>562.0</ele>
        <time>2018-06-09T10:02:19.187Z</time>
      </trkpt>
      <trkpt lat="37.41416333" lon="-4.42876833">
        <ele>562.0</ele>
        <time>2018-06-09T10:02:20.172Z</time>
      </trkpt>
      <trkpt lat="37.41416333" lon="-4.42876833">
        <ele>562.0</ele>
        <time>2018-06-09T10:02:21.189Z</time>
      </trkpt>
      <trkpt lat="37.41425167" lon="-4.42898833">
        <ele>562.0</ele>
        <time>2018-06-09T10:02:22.196Z</time>
      </trkpt>
      <trkpt lat="37.41429" lon="-4.42910333">
        <ele>562.0</ele>
        <time>2018-06-09T10:02:23.174Z</time>
      </trkpt>
      <trkpt lat="37.41429" lon="-4.42910333">
        <ele>562.0</ele>
        <time>2018-06-09T10:02:24.194Z</time>
      </trkpt>
      <trkpt lat="37.41435" lon="-4.42934">
        <ele>562.0</ele>
        <time>2018-06-09T10:02:25.181Z</time>
      </trkpt>
      <trkpt lat="37.41435" lon="-4.42934">
        <ele>562.0</ele>
        <time>2018-06-09T10:02:26.197Z</time>
      </trkpt>
      <trkpt lat="37.414385" lon="-4.429585">
        <ele>561.0</ele>
        <time>2018-06-09T10:02:27.164Z</time>
      </trkpt>
      <trkpt lat="37.414385" lon="-4.429585">
        <ele>561.0</ele>
        <time>2018-06-09T10:02:28.180Z</time>
      </trkpt>
      <trkpt lat="37.41439833" lon="-4.42983">
        <ele>561.0</ele>
        <time>2018-06-09T10:02:29.166Z</time>
      </trkpt>
      <trkpt lat="37.41439833" lon="-4.42983">
        <ele>561.0</ele>
        <time>2018-06-09T10:02:30.182Z</time>
      </trkpt>
      <trkpt lat="37.414385" lon="-4.43007333">
        <ele>560.0</ele>
        <time>2018-06-09T10:02:31.194Z</time>
      </trkpt>
      <trkpt lat="37.41437" lon="-4.43019333">
        <ele>559.0</ele>
        <time>2018-06-09T10:02:32.175Z</time>
      </trkpt>
      <trkpt lat="37.41437" lon="-4.43019333">
        <ele>559.0</ele>
        <time>2018-06-09T10:02:33.180Z</time>
      </trkpt>
      <trkpt lat="37.41432" lon="-4.43042667">
        <ele>559.0</ele>
        <time>2018-06-09T10:02:34.157Z</time>
      </trkpt>
      <trkpt lat="37.41432" lon="-4.43042667">
        <ele>559.0</ele>
        <time>2018-06-09T10:02:35.174Z</time>
      </trkpt>
      <trkpt lat="37.41424667" lon="-4.43064833">
        <ele>558.0</ele>
        <time>2018-06-09T10:02:36.157Z</time>
      </trkpt>
      <trkpt lat="37.41424667" lon="-4.43064833">
        <ele>558.0</ele>
        <time>2018-06-09T10:02:37.174Z</time>
      </trkpt>
      <trkpt lat="37.41416167" lon="-4.43086333">
        <ele>557.0</ele>
        <time>2018-06-09T10:02:38.189Z</time>
      </trkpt>
      <trkpt lat="37.41416167" lon="-4.43086333">
        <ele>557.0</ele>
        <time>2018-06-09T10:02:39.167Z</time>
      </trkpt>
      <trkpt lat="37.41406667" lon="-4.43107667">
        <ele>556.0</ele>
        <time>2018-06-09T10:02:40.173Z</time>
      </trkpt>
      <trkpt lat="37.41401833" lon="-4.43118333">
        <ele>556.0</ele>
        <time>2018-06-09T10:02:41.193Z</time>
      </trkpt>
      <trkpt lat="37.41401833" lon="-4.43118333">
        <ele>556.0</ele>
        <time>2018-06-09T10:02:42.170Z</time>
      </trkpt>
      <trkpt lat="37.41392333" lon="-4.43139">
        <ele>555.0</ele>
        <time>2018-06-09T10:02:43.168Z</time>
      </trkpt>
      <trkpt lat="37.41392333" lon="-4.43139">
        <ele>555.0</ele>
        <time>2018-06-09T10:02:44.184Z</time>
      </trkpt>
      <trkpt lat="37.41382667" lon="-4.431595">
        <ele>555.0</ele>
        <time>2018-06-09T10:02:45.191Z</time>
      </trkpt>
      <trkpt lat="37.41382667" lon="-4.431595">
        <ele>555.0</ele>
        <time>2018-06-09T10:02:46.170Z</time>
      </trkpt>
      <trkpt lat="37.413735" lon="-4.43180167">
        <ele>555.0</ele>
        <time>2018-06-09T10:02:47.160Z</time>
      </trkpt>
      <trkpt lat="37.413735" lon="-4.43180167">
        <ele>555.0</ele>
        <time>2018-06-09T10:02:48.176Z</time>
      </trkpt>
      <trkpt lat="37.41364333" lon="-4.43200833">
        <ele>555.0</ele>
        <time>2018-06-09T10:02:49.183Z</time>
      </trkpt>
      <trkpt lat="37.41364333" lon="-4.43200833">
        <ele>555.0</ele>
        <time>2018-06-09T10:02:50.159Z</time>
      </trkpt>
      <trkpt lat="37.41355" lon="-4.43221167">
        <ele>554.0</ele>
        <time>2018-06-09T10:02:51.168Z</time>
      </trkpt>
      <trkpt lat="37.41355" lon="-4.43221167">
        <ele>554.0</ele>
        <time>2018-06-09T10:02:52.185Z</time>
      </trkpt>
      <trkpt lat="37.413455" lon="-4.43241">
        <ele>553.0</ele>
        <time>2018-06-09T10:02:53.193Z</time>
      </trkpt>
      <trkpt lat="37.413455" lon="-4.43241">
        <ele>553.0</ele>
        <time>2018-06-09T10:02:54.171Z</time>
      </trkpt>
      <trkpt lat="37.41336333" lon="-4.43261">
        <ele>553.0</ele>
        <time>2018-06-09T10:02:55.172Z</time>
      </trkpt>
      <trkpt lat="37.41336333" lon="-4.43261">
        <ele>553.0</ele>
        <time>2018-06-09T10:02:56.188Z</time>
      </trkpt>
      <trkpt lat="37.413275" lon="-4.43281">
        <ele>552.0</ele>
        <time>2018-06-09T10:02:57.195Z</time>
      </trkpt>
      <trkpt lat="37.413275" lon="-4.43281">
        <ele>552.0</ele>
        <time>2018-06-09T10:02:58.191Z</time>
      </trkpt>
      <trkpt lat="37.413185" lon="-4.43300833">
        <ele>552.0</ele>
        <time>2018-06-09T10:02:59.158Z</time>
      </trkpt>
      <trkpt lat="37.41314" lon="-4.43310833">
        <ele>552.0</ele>
        <time>2018-06-09T10:03:00.195Z</time>
      </trkpt>
      <trkpt lat="37.41314" lon="-4.43310833">
        <ele>552.0</ele>
        <time>2018-06-09T10:03:01.172Z</time>
      </trkpt>
      <trkpt lat="37.41305333" lon="-4.4333">
        <ele>551.0</ele>
        <time>2018-06-09T10:03:02.170Z</time>
      </trkpt>
      <trkpt lat="37.41305333" lon="-4.4333">
        <ele>551.0</ele>
        <time>2018-06-09T10:03:03.187Z</time>
      </trkpt>
      <trkpt lat="37.41297833" lon="-4.43349833">
        <ele>550.0</ele>
        <time>2018-06-09T10:03:04.198Z</time>
      </trkpt>
      <trkpt lat="37.41295" lon="-4.4336">
        <ele>550.0</ele>
        <time>2018-06-09T10:03:05.171Z</time>
      </trkpt>
      <trkpt lat="37.41292667" lon="-4.433705">
        <ele>550.0</ele>
        <time>2018-06-09T10:03:06.181Z</time>
      </trkpt>
      <trkpt lat="37.41292667" lon="-4.433705">
        <ele>550.0</ele>
        <time>2018-06-09T10:03:07.158Z</time>
      </trkpt>
      <trkpt lat="37.41289333" lon="-4.43390833">
        <ele>550.0</ele>
        <time>2018-06-09T10:03:08.174Z</time>
      </trkpt>
      <trkpt lat="37.41289333" lon="-4.43390833">
        <ele>550.0</ele>
        <time>2018-06-09T10:03:09.190Z</time>
      </trkpt>
      <trkpt lat="37.41287333" lon="-4.43411167">
        <ele>549.0</ele>
        <time>2018-06-09T10:03:10.180Z</time>
      </trkpt>
      <trkpt lat="37.412865" lon="-4.43421333">
        <ele>549.0</ele>
        <time>2018-06-09T10:03:11.196Z</time>
      </trkpt>
      <trkpt lat="37.412865" lon="-4.43421333">
        <ele>549.0</ele>
        <time>2018-06-09T10:03:12.174Z</time>
      </trkpt>
      <trkpt lat="37.41285167" lon="-4.43441">
        <ele>549.0</ele>
        <time>2018-06-09T10:03:13.181Z</time>
      </trkpt>
      <trkpt lat="37.41285167" lon="-4.43450667">
        <ele>548.0</ele>
        <time>2018-06-09T10:03:14.159Z</time>
      </trkpt>
      <trkpt lat="37.41285167" lon="-4.43450667">
        <ele>548.0</ele>
        <time>2018-06-09T10:03:15.187Z</time>
      </trkpt>
      <trkpt lat="37.41286167" lon="-4.43470333">
        <ele>548.0</ele>
        <time>2018-06-09T10:03:16.196Z</time>
      </trkpt>
      <trkpt lat="37.41287167" lon="-4.43480167">
        <ele>548.0</ele>
        <time>2018-06-09T10:03:17.198Z</time>
      </trkpt>
      <trkpt lat="37.41287167" lon="-4.43480167">
        <ele>548.0</ele>
        <time>2018-06-09T10:03:18.160Z</time>
      </trkpt>
      <trkpt lat="37.41289667" lon="-4.434995">
        <ele>548.0</ele>
        <time>2018-06-09T10:03:19.169Z</time>
      </trkpt>
      <trkpt lat="37.412915" lon="-4.43509">
        <ele>548.0</ele>
        <time>2018-06-09T10:03:20.164Z</time>
      </trkpt>
      <trkpt lat="37.412915" lon="-4.43509">
        <ele>548.0</ele>
        <time>2018-06-09T10:03:21.181Z</time>
      </trkpt>
      <trkpt lat="37.41295833" lon="-4.43527">
        <ele>547.0</ele>
        <time>2018-06-09T10:03:22.187Z</time>
      </trkpt>
      <trkpt lat="37.41298167" lon="-4.43535833">
        <ele>547.0</ele>
        <time>2018-06-09T10:03:23.169Z</time>
      </trkpt>
      <trkpt lat="37.41298167" lon="-4.43535833">
        <ele>547.0</ele>
        <time>2018-06-09T10:03:24.186Z</time>
      </trkpt>
      <trkpt lat="37.41303333" lon="-4.43553167">
        <ele>547.0</ele>
        <time>2018-06-09T10:03:25.193Z</time>
      </trkpt>
      <trkpt lat="37.41303333" lon="-4.43553167">
        <ele>547.0</ele>
        <time>2018-06-09T10:03:26.170Z</time>
      </trkpt>
      <trkpt lat="37.41309167" lon="-4.43569667">
        <ele>547.0</ele>
        <time>2018-06-09T10:03:27.186Z</time>
      </trkpt>
      <trkpt lat="37.41309167" lon="-4.43569667">
        <ele>547.0</ele>
        <time>2018-06-09T10:03:28.176Z</time>
      </trkpt>
      <trkpt lat="37.41315833" lon="-4.43585333">
        <ele>546.0</ele>
        <time>2018-06-09T10:03:29.195Z</time>
      </trkpt>
      <trkpt lat="37.41315833" lon="-4.43585333">
        <ele>546.0</ele>
        <time>2018-06-09T10:03:30.172Z</time>
      </trkpt>
      <trkpt lat="37.413225" lon="-4.43600667">
        <ele>546.0</ele>
        <time>2018-06-09T10:03:31.175Z</time>
      </trkpt>
      <trkpt lat="37.413225" lon="-4.43600667">
        <ele>546.0</ele>
        <time>2018-06-09T10:03:32.194Z</time>
      </trkpt>
      <trkpt lat="37.41329167" lon="-4.43616333">
        <ele>545.0</ele>
        <time>2018-06-09T10:03:33.161Z</time>
      </trkpt>
      <trkpt lat="37.41329167" lon="-4.43616333">
        <ele>545.0</ele>
        <time>2018-06-09T10:03:34.180Z</time>
      </trkpt>
      <trkpt lat="37.41336" lon="-4.43632667">
        <ele>545.0</ele>
        <time>2018-06-09T10:03:35.169Z</time>
      </trkpt>
      <trkpt lat="37.41339667" lon="-4.43641333">
        <ele>544.0</ele>
        <time>2018-06-09T10:03:36.190Z</time>
      </trkpt>
      <trkpt lat="37.41339667" lon="-4.43641333">
        <ele>544.0</ele>
        <time>2018-06-09T10:03:37.167Z</time>
      </trkpt>
      <trkpt lat="37.41347333" lon="-4.43659333">
        <ele>544.0</ele>
        <time>2018-06-09T10:03:38.173Z</time>
      </trkpt>
      <trkpt lat="37.41347333" lon="-4.43659333">
        <ele>544.0</ele>
        <time>2018-06-09T10:03:39.190Z</time>
      </trkpt>
      <trkpt lat="37.413555" lon="-4.43678667">
        <ele>543.0</ele>
        <time>2018-06-09T10:03:40.189Z</time>
      </trkpt>
      <trkpt lat="37.413555" lon="-4.43678667">
        <ele>543.0</ele>
        <time>2018-06-09T10:03:41.167Z</time>
      </trkpt>
      <trkpt lat="37.41364333" lon="-4.43699167">
        <ele>542.0</ele>
        <time>2018-06-09T10:03:42.186Z</time>
      </trkpt>
      <trkpt lat="37.41364333" lon="-4.43699167">
        <ele>542.0</ele>
        <time>2018-06-09T10:03:43.165Z</time>
      </trkpt>
      <trkpt lat="37.41373667" lon="-4.43721">
        <ele>541.0</ele>
        <time>2018-06-09T10:03:44.172Z</time>
      </trkpt>
      <trkpt lat="37.41373667" lon="-4.43721">
        <ele>541.0</ele>
        <time>2018-06-09T10:03:45.190Z</time>
      </trkpt>
      <trkpt lat="37.413835" lon="-4.43743833">
        <ele>539.0</ele>
        <time>2018-06-09T10:03:46.188Z</time>
      </trkpt>
      <trkpt lat="37.413835" lon="-4.43743833">
        <ele>539.0</ele>
        <time>2018-06-09T10:03:47.161Z</time>
      </trkpt>
      <trkpt lat="37.41393167" lon="-4.43767333">
        <ele>538.0</ele>
        <time>2018-06-09T10:03:48.182Z</time>
      </trkpt>
      <trkpt lat="37.41393167" lon="-4.43767333">
        <ele>538.0</ele>
        <time>2018-06-09T10:03:49.159Z</time>
      </trkpt>
      <trkpt lat="37.41403" lon="-4.43791">
        <ele>536.0</ele>
        <time>2018-06-09T10:03:50.171Z</time>
      </trkpt>
      <trkpt lat="37.41403" lon="-4.43791">
        <ele>536.0</ele>
        <time>2018-06-09T10:03:51.191Z</time>
      </trkpt>
      <trkpt lat="37.41412667" lon="-4.43815833">
        <ele>536.0</ele>
        <time>2018-06-09T10:03:52.192Z</time>
      </trkpt>
      <trkpt lat="37.41412667" lon="-4.43815833">
        <ele>536.0</ele>
        <time>2018-06-09T10:03:53.169Z</time>
      </trkpt>
      <trkpt lat="37.4142" lon="-4.43841833">
        <ele>536.0</ele>
        <time>2018-06-09T10:03:54.175Z</time>
      </trkpt>
      <trkpt lat="37.4142" lon="-4.43841833">
        <ele>536.0</ele>
        <time>2018-06-09T10:03:55.186Z</time>
      </trkpt>
      <trkpt lat="37.41425" lon="-4.43868">
        <ele>536.0</ele>
        <time>2018-06-09T10:03:56.175Z</time>
      </trkpt>
      <trkpt lat="37.41425" lon="-4.43868">
        <ele>536.0</ele>
        <time>2018-06-09T10:03:57.191Z</time>
      </trkpt>
      <trkpt lat="37.414265" lon="-4.43894167">
        <ele>535.0</ele>
        <time>2018-06-09T10:03:58.158Z</time>
      </trkpt>
      <trkpt lat="37.414265" lon="-4.43894167">
        <ele>535.0</ele>
        <time>2018-06-09T10:03:59.175Z</time>
      </trkpt>
      <trkpt lat="37.414255" lon="-4.43919667">
        <ele>535.0</ele>
        <time>2018-06-09T10:04:00.182Z</time>
      </trkpt>
      <trkpt lat="37.414255" lon="-4.43919667">
        <ele>535.0</ele>
        <time>2018-06-09T10:04:01.160Z</time>
      </trkpt>
      <trkpt lat="37.41422333" lon="-4.43944333">
        <ele>534.0</ele>
        <time>2018-06-09T10:04:02.168Z</time>
      </trkpt>
      <trkpt lat="37.41422333" lon="-4.43944333">
        <ele>534.0</ele>
        <time>2018-06-09T10:04:03.187Z</time>
      </trkpt>
      <trkpt lat="37.41417833" lon="-4.43968333">
        <ele>533.0</ele>
        <time>2018-06-09T10:04:04.158Z</time>
      </trkpt>
      <trkpt lat="37.41417833" lon="-4.43968333">
        <ele>533.0</ele>
        <time>2018-06-09T10:04:05.174Z</time>
      </trkpt>
      <trkpt lat="37.414135" lon="-4.43991667">
        <ele>533.0</ele>
        <time>2018-06-09T10:04:06.181Z</time>
      </trkpt>
      <trkpt lat="37.414135" lon="-4.43991667">
        <ele>533.0</ele>
        <time>2018-06-09T10:04:07.157Z</time>
      </trkpt>
      <trkpt lat="37.41409" lon="-4.440145">
        <ele>532.0</ele>
        <time>2018-06-09T10:04:08.178Z</time>
      </trkpt>
      <trkpt lat="37.41409" lon="-4.440145">
        <ele>532.0</ele>
        <time>2018-06-09T10:04:09.195Z</time>
      </trkpt>
      <trkpt lat="37.41404167" lon="-4.44036833">
        <ele>532.0</ele>
        <time>2018-06-09T10:04:10.163Z</time>
      </trkpt>
      <trkpt lat="37.41402" lon="-4.44047833">
        <ele>531.0</ele>
        <time>2018-06-09T10:04:11.185Z</time>
      </trkpt>
      <trkpt lat="37.41402" lon="-4.44047833">
        <ele>531.0</ele>
        <time>2018-06-09T10:04:12.190Z</time>
      </trkpt>
      <trkpt lat="37.413975" lon="-4.44069667">
        <ele>531.0</ele>
        <time>2018-06-09T10:04:13.197Z</time>
      </trkpt>
      <trkpt lat="37.413975" lon="-4.44069667">
        <ele>531.0</ele>
        <time>2018-06-09T10:04:14.174Z</time>
      </trkpt>
      <trkpt lat="37.41393" lon="-4.44091333">
        <ele>530.0</ele>
        <time>2018-06-09T10:04:15.190Z</time>
      </trkpt>
      <trkpt lat="37.41393" lon="-4.44091333">
        <ele>530.0</ele>
        <time>2018-06-09T10:04:16.167Z</time>
      </trkpt>
      <trkpt lat="37.41388667" lon="-4.44112667">
        <ele>530.0</ele>
        <time>2018-06-09T10:04:17.195Z</time>
      </trkpt>
      <trkpt lat="37.41388667" lon="-4.44112667">
        <ele>530.0</ele>
        <time>2018-06-09T10:04:18.171Z</time>
      </trkpt>
      <trkpt lat="37.41384333" lon="-4.44133833">
        <ele>529.0</ele>
        <time>2018-06-09T10:04:19.178Z</time>
      </trkpt>
      <trkpt lat="37.41384333" lon="-4.44133833">
        <ele>529.0</ele>
        <time>2018-06-09T10:04:20.195Z</time>
      </trkpt>
      <trkpt lat="37.4138" lon="-4.44155">
        <ele>529.0</ele>
        <time>2018-06-09T10:04:21.185Z</time>
      </trkpt>
      <trkpt lat="37.4138" lon="-4.44155">
        <ele>529.0</ele>
        <time>2018-06-09T10:04:22.163Z</time>
      </trkpt>
      <trkpt lat="37.41375833" lon="-4.44176167">
        <ele>528.0</ele>
        <time>2018-06-09T10:04:23.171Z</time>
      </trkpt>
      <trkpt lat="37.41375833" lon="-4.44176167">
        <ele>528.0</ele>
        <time>2018-06-09T10:04:24.187Z</time>
      </trkpt>
      <trkpt lat="37.413715" lon="-4.44197167">
        <ele>528.0</ele>
        <time>2018-06-09T10:04:25.188Z</time>
      </trkpt>
      <trkpt lat="37.413715" lon="-4.44197167">
        <ele>528.0</ele>
        <time>2018-06-09T10:04:26.166Z</time>
      </trkpt>
      <trkpt lat="37.41367333" lon="-4.44218333">
        <ele>527.0</ele>
        <time>2018-06-09T10:04:27.164Z</time>
      </trkpt>
      <trkpt lat="37.41367333" lon="-4.44218333">
        <ele>527.0</ele>
        <time>2018-06-09T10:04:28.181Z</time>
      </trkpt>
      <trkpt lat="37.41363" lon="-4.44239167">
        <ele>527.0</ele>
        <time>2018-06-09T10:04:29.187Z</time>
      </trkpt>
      <trkpt lat="37.41363" lon="-4.44239167">
        <ele>527.0</ele>
        <time>2018-06-09T10:04:30.168Z</time>
      </trkpt>
      <trkpt lat="37.41358667" lon="-4.4426">
        <ele>526.0</ele>
        <time>2018-06-09T10:04:31.186Z</time>
      </trkpt>
      <trkpt lat="37.41358667" lon="-4.4426">
        <ele>526.0</ele>
        <time>2018-06-09T10:04:32.162Z</time>
      </trkpt>
      <trkpt lat="37.41354333" lon="-4.44280667">
        <ele>526.0</ele>
        <time>2018-06-09T10:04:33.172Z</time>
      </trkpt>
      <trkpt lat="37.41354333" lon="-4.44280667">
        <ele>526.0</ele>
        <time>2018-06-09T10:04:34.188Z</time>
      </trkpt>
      <trkpt lat="37.41350167" lon="-4.44301167">
        <ele>526.0</ele>
        <time>2018-06-09T10:04:35.165Z</time>
      </trkpt>
      <trkpt lat="37.41350167" lon="-4.44301167">
        <ele>526.0</ele>
        <time>2018-06-09T10:04:36.184Z</time>
      </trkpt>
      <trkpt lat="37.41346333" lon="-4.44322">
        <ele>525.0</ele>
        <time>2018-06-09T10:04:37.191Z</time>
      </trkpt>
      <trkpt lat="37.41346333" lon="-4.44322">
        <ele>525.0</ele>
        <time>2018-06-09T10:04:38.169Z</time>
      </trkpt>
      <trkpt lat="37.41342333" lon="-4.443425">
        <ele>525.0</ele>
        <time>2018-06-09T10:04:39.181Z</time>
      </trkpt>
      <trkpt lat="37.41340333" lon="-4.443525">
        <ele>525.0</ele>
        <time>2018-06-09T10:04:40.162Z</time>
      </trkpt>
      <trkpt lat="37.41340333" lon="-4.443525">
        <ele>525.0</ele>
        <time>2018-06-09T10:04:41.179Z</time>
      </trkpt>
      <trkpt lat="37.41336333" lon="-4.443725">
        <ele>524.0</ele>
        <time>2018-06-09T10:04:42.176Z</time>
      </trkpt>
      <trkpt lat="37.41336333" lon="-4.443725">
        <ele>524.0</ele>
        <time>2018-06-09T10:04:43.180Z</time>
      </trkpt>
      <trkpt lat="37.41332167" lon="-4.44392333">
        <ele>524.0</ele>
        <time>2018-06-09T10:04:44.187Z</time>
      </trkpt>
      <trkpt lat="37.41332167" lon="-4.44392333">
        <ele>524.0</ele>
        <time>2018-06-09T10:04:45.194Z</time>
      </trkpt>
      <trkpt lat="37.41328167" lon="-4.44412333">
        <ele>524.0</ele>
        <time>2018-06-09T10:04:46.168Z</time>
      </trkpt>
      <trkpt lat="37.41328167" lon="-4.44412333">
        <ele>524.0</ele>
        <time>2018-06-09T10:04:47.167Z</time>
      </trkpt>
      <trkpt lat="37.41324" lon="-4.444325">
        <ele>523.0</ele>
        <time>2018-06-09T10:04:48.180Z</time>
      </trkpt>
      <trkpt lat="37.41324" lon="-4.444325">
        <ele>523.0</ele>
        <time>2018-06-09T10:04:49.162Z</time>
      </trkpt>
      <trkpt lat="37.41319833" lon="-4.44452667">
        <ele>523.0</ele>
        <time>2018-06-09T10:04:50.170Z</time>
      </trkpt>
      <trkpt lat="37.41319833" lon="-4.44452667">
        <ele>523.0</ele>
        <time>2018-06-09T10:04:51.187Z</time>
      </trkpt>
      <trkpt lat="37.41315667" lon="-4.44473167">
        <ele>522.0</ele>
        <time>2018-06-09T10:04:52.170Z</time>
      </trkpt>
      <trkpt lat="37.41315667" lon="-4.44473167">
        <ele>522.0</ele>
        <time>2018-06-09T10:04:53.187Z</time>
      </trkpt>
      <trkpt lat="37.41311667" lon="-4.44494">
        <ele>521.0</ele>
        <time>2018-06-09T10:04:54.193Z</time>
      </trkpt>
      <trkpt lat="37.41311667" lon="-4.44494">
        <ele>521.0</ele>
        <time>2018-06-09T10:04:55.171Z</time>
      </trkpt>
      <trkpt lat="37.413075" lon="-4.44515167">
        <ele>521.0</ele>
        <time>2018-06-09T10:04:56.165Z</time>
      </trkpt>
      <trkpt lat="37.41305167" lon="-4.44525667">
        <ele>520.0</ele>
        <time>2018-06-09T10:04:57.182Z</time>
      </trkpt>
      <trkpt lat="37.41305167" lon="-4.44525667">
        <ele>520.0</ele>
        <time>2018-06-09T10:04:58.193Z</time>
      </trkpt>
      <trkpt lat="37.41301333" lon="-4.44546833">
        <ele>520.0</ele>
        <time>2018-06-09T10:04:59.159Z</time>
      </trkpt>
      <trkpt lat="37.41299333" lon="-4.44557667">
        <ele>519.0</ele>
        <time>2018-06-09T10:05:00.178Z</time>
      </trkpt>
      <trkpt lat="37.41299333" lon="-4.44557667">
        <ele>519.0</ele>
        <time>2018-06-09T10:05:01.194Z</time>
      </trkpt>
      <trkpt lat="37.41296" lon="-4.44579333">
        <ele>519.0</ele>
        <time>2018-06-09T10:05:02.161Z</time>
      </trkpt>
      <trkpt lat="37.41296" lon="-4.44579333">
        <ele>519.0</ele>
        <time>2018-06-09T10:05:03.170Z</time>
      </trkpt>
      <trkpt lat="37.41293333" lon="-4.44601">
        <ele>518.0</ele>
        <time>2018-06-09T10:05:04.178Z</time>
      </trkpt>
      <trkpt lat="37.41293333" lon="-4.44601">
        <ele>518.0</ele>
        <time>2018-06-09T10:05:05.194Z</time>
      </trkpt>
      <trkpt lat="37.41292" lon="-4.44623">
        <ele>517.0</ele>
        <time>2018-06-09T10:05:06.162Z</time>
      </trkpt>
      <trkpt lat="37.41292" lon="-4.44623">
        <ele>517.0</ele>
        <time>2018-06-09T10:05:07.179Z</time>
      </trkpt>
      <trkpt lat="37.41291333" lon="-4.44644833">
        <ele>517.0</ele>
        <time>2018-06-09T10:05:08.196Z</time>
      </trkpt>
      <trkpt lat="37.41291333" lon="-4.44644833">
        <ele>517.0</ele>
        <time>2018-06-09T10:05:09.173Z</time>
      </trkpt>
      <trkpt lat="37.412915" lon="-4.44666833">
        <ele>516.0</ele>
        <time>2018-06-09T10:05:10.158Z</time>
      </trkpt>
      <trkpt lat="37.41291833" lon="-4.44678">
        <ele>516.0</ele>
        <time>2018-06-09T10:05:11.177Z</time>
      </trkpt>
      <trkpt lat="37.41291833" lon="-4.44678">
        <ele>516.0</ele>
        <time>2018-06-09T10:05:12.193Z</time>
      </trkpt>
      <trkpt lat="37.41292333" lon="-4.447005">
        <ele>515.0</ele>
        <time>2018-06-09T10:05:13.160Z</time>
      </trkpt>
      <trkpt lat="37.41292667" lon="-4.44711833">
        <ele>515.0</ele>
        <time>2018-06-09T10:05:14.180Z</time>
      </trkpt>
      <trkpt lat="37.41292667" lon="-4.44711833">
        <ele>515.0</ele>
        <time>2018-06-09T10:05:15.196Z</time>
      </trkpt>
      <trkpt lat="37.41293333" lon="-4.44735167">
        <ele>514.0</ele>
        <time>2018-06-09T10:05:16.164Z</time>
      </trkpt>
      <trkpt lat="37.41293333" lon="-4.44735167">
        <ele>514.0</ele>
        <time>2018-06-09T10:05:17.181Z</time>
      </trkpt>
      <trkpt lat="37.41294" lon="-4.44759">
        <ele>513.0</ele>
        <time>2018-06-09T10:05:18.160Z</time>
      </trkpt>
      <trkpt lat="37.41294" lon="-4.44759">
        <ele>513.0</ele>
        <time>2018-06-09T10:05:19.176Z</time>
      </trkpt>
      <trkpt lat="37.41294667" lon="-4.44783">
        <ele>512.0</ele>
        <time>2018-06-09T10:05:20.185Z</time>
      </trkpt>
      <trkpt lat="37.41294667" lon="-4.44783">
        <ele>512.0</ele>
        <time>2018-06-09T10:05:21.161Z</time>
      </trkpt>
      <trkpt lat="37.412955" lon="-4.448075">
        <ele>512.0</ele>
        <time>2018-06-09T10:05:22.188Z</time>
      </trkpt>
      <trkpt lat="37.41295833" lon="-4.4482">
        <ele>511.0</ele>
        <time>2018-06-09T10:05:23.182Z</time>
      </trkpt>
      <trkpt lat="37.41295833" lon="-4.4482">
        <ele>511.0</ele>
        <time>2018-06-09T10:05:24.159Z</time>
      </trkpt>
      <trkpt lat="37.41296333" lon="-4.44845">
        <ele>510.0</ele>
        <time>2018-06-09T10:05:25.179Z</time>
      </trkpt>
      <trkpt lat="37.41296667" lon="-4.448575">
        <ele>510.0</ele>
        <time>2018-06-09T10:05:26.161Z</time>
      </trkpt>
      <trkpt lat="37.41296667" lon="-4.448575">
        <ele>510.0</ele>
        <time>2018-06-09T10:05:27.177Z</time>
      </trkpt>
      <trkpt lat="37.41297167" lon="-4.44882667">
        <ele>509.0</ele>
        <time>2018-06-09T10:05:28.184Z</time>
      </trkpt>
      <trkpt lat="37.41297167" lon="-4.44882667">
        <ele>509.0</ele>
        <time>2018-06-09T10:05:29.161Z</time>
      </trkpt>
      <trkpt lat="37.41297667" lon="-4.44908">
        <ele>508.0</ele>
        <time>2018-06-09T10:05:30.170Z</time>
      </trkpt>
      <trkpt lat="37.41297667" lon="-4.44908">
        <ele>508.0</ele>
        <time>2018-06-09T10:05:31.188Z</time>
      </trkpt>
      <trkpt lat="37.412985" lon="-4.449335">
        <ele>507.0</ele>
        <time>2018-06-09T10:05:32.195Z</time>
      </trkpt>
      <trkpt lat="37.41299" lon="-4.44946333">
        <ele>507.0</ele>
        <time>2018-06-09T10:05:33.178Z</time>
      </trkpt>
      <trkpt lat="37.41299" lon="-4.44946333">
        <ele>507.0</ele>
        <time>2018-06-09T10:05:34.195Z</time>
      </trkpt>
      <trkpt lat="37.41299667" lon="-4.44972">
        <ele>506.0</ele>
        <time>2018-06-09T10:05:35.162Z</time>
      </trkpt>
      <trkpt lat="37.41299667" lon="-4.44972">
        <ele>506.0</ele>
        <time>2018-06-09T10:05:36.178Z</time>
      </trkpt>
      <trkpt lat="37.41300333" lon="-4.44998">
        <ele>505.0</ele>
        <time>2018-06-09T10:05:37.187Z</time>
      </trkpt>
      <trkpt lat="37.41300667" lon="-4.45011">
        <ele>505.0</ele>
        <time>2018-06-09T10:05:38.164Z</time>
      </trkpt>
      <trkpt lat="37.41300667" lon="-4.45011">
        <ele>505.0</ele>
        <time>2018-06-09T10:05:39.183Z</time>
      </trkpt>
      <trkpt lat="37.41301167" lon="-4.45037333">
        <ele>504.0</ele>
        <time>2018-06-09T10:05:40.189Z</time>
      </trkpt>
      <trkpt lat="37.413015" lon="-4.450505">
        <ele>503.0</ele>
        <time>2018-06-09T10:05:41.174Z</time>
      </trkpt>
      <trkpt lat="37.413015" lon="-4.450505">
        <ele>503.0</ele>
        <time>2018-06-09T10:05:42.187Z</time>
      </trkpt>
      <trkpt lat="37.41302167" lon="-4.45076667">
        <ele>503.0</ele>
        <time>2018-06-09T10:05:43.168Z</time>
      </trkpt>
      <trkpt lat="37.413025" lon="-4.45089833">
        <ele>502.0</ele>
        <time>2018-06-09T10:05:44.184Z</time>
      </trkpt>
      <trkpt lat="37.413025" lon="-4.45089833">
        <ele>502.0</ele>
        <time>2018-06-09T10:05:45.196Z</time>
      </trkpt>
      <trkpt lat="37.41303167" lon="-4.45116333">
        <ele>502.0</ele>
        <time>2018-06-09T10:05:46.188Z</time>
      </trkpt>
      <trkpt lat="37.41303167" lon="-4.45116333">
        <ele>502.0</ele>
        <time>2018-06-09T10:05:47.171Z</time>
      </trkpt>
      <trkpt lat="37.41304167" lon="-4.45142667">
        <ele>501.0</ele>
        <time>2018-06-09T10:05:48.172Z</time>
      </trkpt>
      <trkpt lat="37.41304667" lon="-4.45155833">
        <ele>501.0</ele>
        <time>2018-06-09T10:05:49.190Z</time>
      </trkpt>
      <trkpt lat="37.41305167" lon="-4.45168833">
        <ele>500.0</ele>
        <time>2018-06-09T10:05:50.161Z</time>
      </trkpt>
      <trkpt lat="37.41305167" lon="-4.45168833">
        <ele>500.0</ele>
        <time>2018-06-09T10:05:51.177Z</time>
      </trkpt>
      <trkpt lat="37.41306167" lon="-4.45194333">
        <ele>500.0</ele>
        <time>2018-06-09T10:05:52.171Z</time>
      </trkpt>
      <trkpt lat="37.413065" lon="-4.45206833">
        <ele>499.0</ele>
        <time>2018-06-09T10:05:53.188Z</time>
      </trkpt>
      <trkpt lat="37.413065" lon="-4.45206833">
        <ele>499.0</ele>
        <time>2018-06-09T10:05:54.165Z</time>
      </trkpt>
      <trkpt lat="37.41307333" lon="-4.45231333">
        <ele>499.0</ele>
        <time>2018-06-09T10:05:55.172Z</time>
      </trkpt>
      <trkpt lat="37.41307333" lon="-4.45231333">
        <ele>499.0</ele>
        <time>2018-06-09T10:05:56.189Z</time>
      </trkpt>
      <trkpt lat="37.41307833" lon="-4.45255833">
        <ele>499.0</ele>
        <time>2018-06-09T10:05:57.177Z</time>
      </trkpt>
      <trkpt lat="37.41307833" lon="-4.45255833">
        <ele>499.0</ele>
        <time>2018-06-09T10:05:58.194Z</time>
      </trkpt>
      <trkpt lat="37.413085" lon="-4.45280333">
        <ele>498.0</ele>
        <time>2018-06-09T10:05:59.160Z</time>
      </trkpt>
      <trkpt lat="37.413085" lon="-4.45280333">
        <ele>498.0</ele>
        <time>2018-06-09T10:06:00.176Z</time>
      </trkpt>
      <trkpt lat="37.41309167" lon="-4.45304667">
        <ele>498.0</ele>
        <time>2018-06-09T10:06:01.183Z</time>
      </trkpt>
      <trkpt lat="37.41309167" lon="-4.45304667">
        <ele>498.0</ele>
        <time>2018-06-09T10:06:02.159Z</time>
      </trkpt>
      <trkpt lat="37.4131" lon="-4.453285">
        <ele>498.0</ele>
        <time>2018-06-09T10:06:03.170Z</time>
      </trkpt>
      <trkpt lat="37.4131" lon="-4.453285">
        <ele>498.0</ele>
        <time>2018-06-09T10:06:04.188Z</time>
      </trkpt>
      <trkpt lat="37.41310667" lon="-4.45351833">
        <ele>497.0</ele>
        <time>2018-06-09T10:06:05.195Z</time>
      </trkpt>
      <trkpt lat="37.41310667" lon="-4.45351833">
        <ele>497.0</ele>
        <time>2018-06-09T10:06:06.172Z</time>
      </trkpt>
      <trkpt lat="37.41311667" lon="-4.45374833">
        <ele>497.0</ele>
        <time>2018-06-09T10:06:07.176Z</time>
      </trkpt>
      <trkpt lat="37.41311667" lon="-4.45374833">
        <ele>497.0</ele>
        <time>2018-06-09T10:06:08.193Z</time>
      </trkpt>
      <trkpt lat="37.41312" lon="-4.45397333">
        <ele>497.0</ele>
        <time>2018-06-09T10:06:09.160Z</time>
      </trkpt>
      <trkpt lat="37.41312167" lon="-4.45408167">
        <ele>497.0</ele>
        <time>2018-06-09T10:06:10.181Z</time>
      </trkpt>
      <trkpt lat="37.41312333" lon="-4.45419">
        <ele>497.0</ele>
        <time>2018-06-09T10:06:11.158Z</time>
      </trkpt>
      <trkpt lat="37.41312333" lon="-4.45419">
        <ele>497.0</ele>
        <time>2018-06-09T10:06:12.174Z</time>
      </trkpt>
      <trkpt lat="37.413125" lon="-4.454405">
        <ele>496.0</ele>
        <time>2018-06-09T10:06:13.181Z</time>
      </trkpt>
      <trkpt lat="37.413125" lon="-4.454405">
        <ele>496.0</ele>
        <time>2018-06-09T10:06:14.158Z</time>
      </trkpt>
      <trkpt lat="37.41312833" lon="-4.45461667">
        <ele>496.0</ele>
        <time>2018-06-09T10:06:15.162Z</time>
      </trkpt>
      <trkpt lat="37.41312833" lon="-4.45461667">
        <ele>496.0</ele>
        <time>2018-06-09T10:06:16.179Z</time>
      </trkpt>
      <trkpt lat="37.41312333" lon="-4.454825">
        <ele>495.0</ele>
        <time>2018-06-09T10:06:17.196Z</time>
      </trkpt>
      <trkpt lat="37.41312333" lon="-4.454825">
        <ele>495.0</ele>
        <time>2018-06-09T10:06:18.173Z</time>
      </trkpt>
      <trkpt lat="37.41312" lon="-4.45503">
        <ele>495.0</ele>
        <time>2018-06-09T10:06:19.179Z</time>
      </trkpt>
      <trkpt lat="37.41312" lon="-4.45503">
        <ele>495.0</ele>
        <time>2018-06-09T10:06:20.196Z</time>
      </trkpt>
      <trkpt lat="37.413115" lon="-4.45523">
        <ele>495.0</ele>
        <time>2018-06-09T10:06:21.171Z</time>
      </trkpt>
      <trkpt lat="37.413115" lon="-4.45523">
        <ele>495.0</ele>
        <time>2018-06-09T10:06:22.187Z</time>
      </trkpt>
      <trkpt lat="37.41310833" lon="-4.45542833">
        <ele>494.0</ele>
        <time>2018-06-09T10:06:23.193Z</time>
      </trkpt>
      <trkpt lat="37.41310833" lon="-4.45542833">
        <ele>494.0</ele>
        <time>2018-06-09T10:06:24.171Z</time>
      </trkpt>
      <trkpt lat="37.41310333" lon="-4.45562333">
        <ele>494.0</ele>
        <time>2018-06-09T10:06:25.168Z</time>
      </trkpt>
      <trkpt lat="37.41310333" lon="-4.45562333">
        <ele>494.0</ele>
        <time>2018-06-09T10:06:26.184Z</time>
      </trkpt>
      <trkpt lat="37.41309333" lon="-4.45581833">
        <ele>494.0</ele>
        <time>2018-06-09T10:06:27.184Z</time>
      </trkpt>
      <trkpt lat="37.41309333" lon="-4.45581833">
        <ele>494.0</ele>
        <time>2018-06-09T10:06:28.162Z</time>
      </trkpt>
      <trkpt lat="37.41309" lon="-4.45601167">
        <ele>493.0</ele>
        <time>2018-06-09T10:06:29.169Z</time>
      </trkpt>
      <trkpt lat="37.41309" lon="-4.45601167">
        <ele>493.0</ele>
        <time>2018-06-09T10:06:30.181Z</time>
      </trkpt>
      <trkpt lat="37.413085" lon="-4.456205">
        <ele>493.0</ele>
        <time>2018-06-09T10:06:31.178Z</time>
      </trkpt>
      <trkpt lat="37.413085" lon="-4.456205">
        <ele>493.0</ele>
        <time>2018-06-09T10:06:32.194Z</time>
      </trkpt>
      <trkpt lat="37.41307833" lon="-4.45639667">
        <ele>492.0</ele>
        <time>2018-06-09T10:06:33.160Z</time>
      </trkpt>
      <trkpt lat="37.41307833" lon="-4.45639667">
        <ele>492.0</ele>
        <time>2018-06-09T10:06:34.176Z</time>
      </trkpt>
      <trkpt lat="37.41307333" lon="-4.456585">
        <ele>492.0</ele>
        <time>2018-06-09T10:06:35.169Z</time>
      </trkpt>
      <trkpt lat="37.41307333" lon="-4.456585">
        <ele>492.0</ele>
        <time>2018-06-09T10:06:36.189Z</time>
      </trkpt>
      <trkpt lat="37.41306833" lon="-4.45677">
        <ele>492.0</ele>
        <time>2018-06-09T10:06:37.177Z</time>
      </trkpt>
      <trkpt lat="37.41306833" lon="-4.45677">
        <ele>492.0</ele>
        <time>2018-06-09T10:06:38.194Z</time>
      </trkpt>
      <trkpt lat="37.41306333" lon="-4.45695333">
        <ele>492.0</ele>
        <time>2018-06-09T10:06:39.160Z</time>
      </trkpt>
      <trkpt lat="37.41306333" lon="-4.45695333">
        <ele>492.0</ele>
        <time>2018-06-09T10:06:40.176Z</time>
      </trkpt>
      <trkpt lat="37.41306167" lon="-4.457135">
        <ele>492.0</ele>
        <time>2018-06-09T10:06:41.183Z</time>
      </trkpt>
      <trkpt lat="37.41306167" lon="-4.457135">
        <ele>492.0</ele>
        <time>2018-06-09T10:06:42.160Z</time>
      </trkpt>
      <trkpt lat="37.41305667" lon="-4.45730833">
        <ele>491.0</ele>
        <time>2018-06-09T10:06:43.184Z</time>
      </trkpt>
      <trkpt lat="37.41305667" lon="-4.45730833">
        <ele>491.0</ele>
        <time>2018-06-09T10:06:44.167Z</time>
      </trkpt>
      <trkpt lat="37.413045" lon="-4.45749">
        <ele>492.0</ele>
        <time>2018-06-09T10:06:45.174Z</time>
      </trkpt>
      <trkpt lat="37.413045" lon="-4.45749">
        <ele>492.0</ele>
        <time>2018-06-09T10:06:46.192Z</time>
      </trkpt>
      <trkpt lat="37.41303667" lon="-4.457665">
        <ele>492.0</ele>
        <time>2018-06-09T10:06:47.161Z</time>
      </trkpt>
      <trkpt lat="37.413035" lon="-4.45775333">
        <ele>492.0</ele>
        <time>2018-06-09T10:06:48.166Z</time>
      </trkpt>
      <trkpt lat="37.413035" lon="-4.45775333">
        <ele>492.0</ele>
        <time>2018-06-09T10:06:49.183Z</time>
      </trkpt>
      <trkpt lat="37.41302833" lon="-4.45793">
        <ele>491.0</ele>
        <time>2018-06-09T10:06:50.189Z</time>
      </trkpt>
      <trkpt lat="37.41302833" lon="-4.45793">
        <ele>491.0</ele>
        <time>2018-06-09T10:06:51.168Z</time>
      </trkpt>
      <trkpt lat="37.413025" lon="-4.45811167">
        <ele>491.0</ele>
        <time>2018-06-09T10:06:52.188Z</time>
      </trkpt>
      <trkpt lat="37.41302" lon="-4.45820167">
        <ele>491.0</ele>
        <time>2018-06-09T10:06:53.166Z</time>
      </trkpt>
      <trkpt lat="37.41302" lon="-4.45820167">
        <ele>491.0</ele>
        <time>2018-06-09T10:06:54.181Z</time>
      </trkpt>
      <trkpt lat="37.41301333" lon="-4.458385">
        <ele>491.0</ele>
        <time>2018-06-09T10:06:55.178Z</time>
      </trkpt>
      <trkpt lat="37.41301333" lon="-4.458385">
        <ele>491.0</ele>
        <time>2018-06-09T10:06:56.195Z</time>
      </trkpt>
      <trkpt lat="37.41300833" lon="-4.45857">
        <ele>491.0</ele>
        <time>2018-06-09T10:06:57.157Z</time>
      </trkpt>
      <trkpt lat="37.413005" lon="-4.45866167">
        <ele>490.0</ele>
        <time>2018-06-09T10:06:58.178Z</time>
      </trkpt>
      <trkpt lat="37.41300167" lon="-4.458755">
        <ele>490.0</ele>
        <time>2018-06-09T10:06:59.194Z</time>
      </trkpt>
      <trkpt lat="37.41300167" lon="-4.458755">
        <ele>490.0</ele>
        <time>2018-06-09T10:07:00.172Z</time>
      </trkpt>
      <trkpt lat="37.412995" lon="-4.45894333">
        <ele>490.0</ele>
        <time>2018-06-09T10:07:01.188Z</time>
      </trkpt>
      <trkpt lat="37.412995" lon="-4.45894333">
        <ele>490.0</ele>
        <time>2018-06-09T10:07:02.183Z</time>
      </trkpt>
      <trkpt lat="37.41298833" lon="-4.45913167">
        <ele>490.0</ele>
        <time>2018-06-09T10:07:03.190Z</time>
      </trkpt>
      <trkpt lat="37.41298833" lon="-4.45913167">
        <ele>490.0</ele>
        <time>2018-06-09T10:07:04.169Z</time>
      </trkpt>
      <trkpt lat="37.41298167" lon="-4.45932">
        <ele>490.0</ele>
        <time>2018-06-09T10:07:05.189Z</time>
      </trkpt>
      <trkpt lat="37.41298167" lon="-4.45932">
        <ele>490.0</ele>
        <time>2018-06-09T10:07:06.194Z</time>
      </trkpt>
      <trkpt lat="37.41297333" lon="-4.45950667">
        <ele>490.0</ele>
        <time>2018-06-09T10:07:07.189Z</time>
      </trkpt>
      <trkpt lat="37.41297333" lon="-4.45950667">
        <ele>490.0</ele>
        <time>2018-06-09T10:07:08.173Z</time>
      </trkpt>
      <trkpt lat="37.41296667" lon="-4.45969333">
        <ele>489.0</ele>
        <time>2018-06-09T10:07:09.180Z</time>
      </trkpt>
      <trkpt lat="37.41296667" lon="-4.45969333">
        <ele>489.0</ele>
        <time>2018-06-09T10:07:10.158Z</time>
      </trkpt>
      <trkpt lat="37.41295833" lon="-4.45987833">
        <ele>489.0</ele>
        <time>2018-06-09T10:07:11.160Z</time>
      </trkpt>
      <trkpt lat="37.41295833" lon="-4.45987833">
        <ele>489.0</ele>
        <time>2018-06-09T10:07:12.177Z</time>
      </trkpt>
      <trkpt lat="37.41295333" lon="-4.46006167">
        <ele>489.0</ele>
        <time>2018-06-09T10:07:13.170Z</time>
      </trkpt>
      <trkpt lat="37.41295333" lon="-4.46006167">
        <ele>489.0</ele>
        <time>2018-06-09T10:07:14.186Z</time>
      </trkpt>
      <trkpt lat="37.41294833" lon="-4.46024">
        <ele>488.0</ele>
        <time>2018-06-09T10:07:15.193Z</time>
      </trkpt>
      <trkpt lat="37.41294833" lon="-4.46024">
        <ele>488.0</ele>
        <time>2018-06-09T10:07:16.170Z</time>
      </trkpt>
      <trkpt lat="37.412945" lon="-4.46041833">
        <ele>488.0</ele>
        <time>2018-06-09T10:07:17.178Z</time>
      </trkpt>
      <trkpt lat="37.412945" lon="-4.46041833">
        <ele>488.0</ele>
        <time>2018-06-09T10:07:18.195Z</time>
      </trkpt>
      <trkpt lat="37.41294167" lon="-4.46059833">
        <ele>488.0</ele>
        <time>2018-06-09T10:07:19.174Z</time>
      </trkpt>
      <trkpt lat="37.41294167" lon="-4.46059833">
        <ele>488.0</ele>
        <time>2018-06-09T10:07:20.191Z</time>
      </trkpt>
      <trkpt lat="37.41293667" lon="-4.46077833">
        <ele>488.0</ele>
        <time>2018-06-09T10:07:21.157Z</time>
      </trkpt>
      <trkpt lat="37.41293667" lon="-4.46077833">
        <ele>488.0</ele>
        <time>2018-06-09T10:07:22.173Z</time>
      </trkpt>
      <trkpt lat="37.41293167" lon="-4.46096">
        <ele>487.0</ele>
        <time>2018-06-09T10:07:23.174Z</time>
      </trkpt>
      <trkpt lat="37.41293167" lon="-4.46096">
        <ele>487.0</ele>
        <time>2018-06-09T10:07:24.190Z</time>
      </trkpt>
      <trkpt lat="37.41292667" lon="-4.46114167">
        <ele>487.0</ele>
        <time>2018-06-09T10:07:25.157Z</time>
      </trkpt>
      <trkpt lat="37.41292333" lon="-4.461235">
        <ele>488.0</ele>
        <time>2018-06-09T10:07:26.174Z</time>
      </trkpt>
      <trkpt lat="37.41292333" lon="-4.461235">
        <ele>488.0</ele>
        <time>2018-06-09T10:07:27.190Z</time>
      </trkpt>
      <trkpt lat="37.41291833" lon="-4.46142">
        <ele>488.0</ele>
        <time>2018-06-09T10:07:28.188Z</time>
      </trkpt>
      <trkpt lat="37.41291833" lon="-4.46142">
        <ele>488.0</ele>
        <time>2018-06-09T10:07:29.167Z</time>
      </trkpt>
      <trkpt lat="37.41291167" lon="-4.46160333">
        <ele>488.0</ele>
        <time>2018-06-09T10:07:30.175Z</time>
      </trkpt>
      <trkpt lat="37.41291167" lon="-4.46160333">
        <ele>488.0</ele>
        <time>2018-06-09T10:07:31.194Z</time>
      </trkpt>
      <trkpt lat="37.41290667" lon="-4.46179">
        <ele>487.0</ele>
        <time>2018-06-09T10:07:32.161Z</time>
      </trkpt>
      <trkpt lat="37.41290667" lon="-4.46179">
        <ele>487.0</ele>
        <time>2018-06-09T10:07:33.182Z</time>
      </trkpt>
      <trkpt lat="37.4129" lon="-4.46198">
        <ele>487.0</ele>
        <time>2018-06-09T10:07:34.188Z</time>
      </trkpt>
      <trkpt lat="37.4129" lon="-4.46198">
        <ele>487.0</ele>
        <time>2018-06-09T10:07:35.171Z</time>
      </trkpt>
      <trkpt lat="37.41289167" lon="-4.46217167">
        <ele>486.0</ele>
        <time>2018-06-09T10:07:36.174Z</time>
      </trkpt>
      <trkpt lat="37.41289167" lon="-4.46217167">
        <ele>486.0</ele>
        <time>2018-06-09T10:07:37.191Z</time>
      </trkpt>
      <trkpt lat="37.41288667" lon="-4.46236667">
        <ele>486.0</ele>
        <time>2018-06-09T10:07:38.157Z</time>
      </trkpt>
      <trkpt lat="37.41288667" lon="-4.46236667">
        <ele>486.0</ele>
        <time>2018-06-09T10:07:39.174Z</time>
      </trkpt>
      <trkpt lat="37.41288" lon="-4.462565">
        <ele>486.0</ele>
        <time>2018-06-09T10:07:40.181Z</time>
      </trkpt>
      <trkpt lat="37.41288" lon="-4.462565">
        <ele>486.0</ele>
        <time>2018-06-09T10:07:41.157Z</time>
      </trkpt>
      <trkpt lat="37.41287167" lon="-4.462765">
        <ele>485.0</ele>
        <time>2018-06-09T10:07:42.180Z</time>
      </trkpt>
      <trkpt lat="37.41287167" lon="-4.462765">
        <ele>485.0</ele>
        <time>2018-06-09T10:07:43.157Z</time>
      </trkpt>
      <trkpt lat="37.412865" lon="-4.46296667">
        <ele>485.0</ele>
        <time>2018-06-09T10:07:44.170Z</time>
      </trkpt>
      <trkpt lat="37.412865" lon="-4.46296667">
        <ele>485.0</ele>
        <time>2018-06-09T10:07:45.187Z</time>
      </trkpt>
      <trkpt lat="37.41285833" lon="-4.46316833">
        <ele>485.0</ele>
        <time>2018-06-09T10:07:46.193Z</time>
      </trkpt>
      <trkpt lat="37.41285833" lon="-4.46316833">
        <ele>485.0</ele>
        <time>2018-06-09T10:07:47.170Z</time>
      </trkpt>
      <trkpt lat="37.41285167" lon="-4.46337">
        <ele>484.0</ele>
        <time>2018-06-09T10:07:48.157Z</time>
      </trkpt>
      <trkpt lat="37.41284833" lon="-4.46347167">
        <ele>484.0</ele>
        <time>2018-06-09T10:07:49.178Z</time>
      </trkpt>
      <trkpt lat="37.41284833" lon="-4.46347167">
        <ele>484.0</ele>
        <time>2018-06-09T10:07:50.196Z</time>
      </trkpt>
      <trkpt lat="37.41284167" lon="-4.463675">
        <ele>484.0</ele>
        <time>2018-06-09T10:07:51.165Z</time>
      </trkpt>
      <trkpt lat="37.41283833" lon="-4.46377833">
        <ele>483.0</ele>
        <time>2018-06-09T10:07:52.183Z</time>
      </trkpt>
      <trkpt lat="37.41283833" lon="-4.46377833">
        <ele>483.0</ele>
        <time>2018-06-09T10:07:53.160Z</time>
      </trkpt>
      <trkpt lat="37.41283167" lon="-4.46398667">
        <ele>483.0</ele>
        <time>2018-06-09T10:07:54.170Z</time>
      </trkpt>
      <trkpt lat="37.41283167" lon="-4.46398667">
        <ele>483.0</ele>
        <time>2018-06-09T10:07:55.186Z</time>
      </trkpt>
      <trkpt lat="37.412825" lon="-4.46419833">
        <ele>482.0</ele>
        <time>2018-06-09T10:07:56.171Z</time>
      </trkpt>
      <trkpt lat="37.412825" lon="-4.46419833">
        <ele>482.0</ele>
        <time>2018-06-09T10:07:57.187Z</time>
      </trkpt>
      <trkpt lat="37.412815" lon="-4.46441167">
        <ele>482.0</ele>
        <time>2018-06-09T10:07:58.194Z</time>
      </trkpt>
      <trkpt lat="37.412815" lon="-4.46441167">
        <ele>482.0</ele>
        <time>2018-06-09T10:07:59.171Z</time>
      </trkpt>
      <trkpt lat="37.41281" lon="-4.46462333">
        <ele>482.0</ele>
        <time>2018-06-09T10:08:00.178Z</time>
      </trkpt>
      <trkpt lat="37.41281" lon="-4.46462333">
        <ele>482.0</ele>
        <time>2018-06-09T10:08:01.194Z</time>
      </trkpt>
      <trkpt lat="37.41280333" lon="-4.46483667">
        <ele>481.0</ele>
        <time>2018-06-09T10:08:02.160Z</time>
      </trkpt>
      <trkpt lat="37.41280333" lon="-4.46483667">
        <ele>481.0</ele>
        <time>2018-06-09T10:08:03.176Z</time>
      </trkpt>
      <trkpt lat="37.41279667" lon="-4.46505167">
        <ele>481.0</ele>
        <time>2018-06-09T10:08:04.180Z</time>
      </trkpt>
      <trkpt lat="37.41279667" lon="-4.46505167">
        <ele>481.0</ele>
        <time>2018-06-09T10:08:05.196Z</time>
      </trkpt>
      <trkpt lat="37.41279" lon="-4.46526333">
        <ele>480.0</ele>
        <time>2018-06-09T10:08:06.165Z</time>
      </trkpt>
      <trkpt lat="37.41278667" lon="-4.46537">
        <ele>480.0</ele>
        <time>2018-06-09T10:08:07.158Z</time>
      </trkpt>
      <trkpt lat="37.41278667" lon="-4.46537">
        <ele>480.0</ele>
        <time>2018-06-09T10:08:08.176Z</time>
      </trkpt>
      <trkpt lat="37.41277667" lon="-4.46558333">
        <ele>480.0</ele>
        <time>2018-06-09T10:08:09.183Z</time>
      </trkpt>
      <trkpt lat="37.41277667" lon="-4.46558333">
        <ele>480.0</ele>
        <time>2018-06-09T10:08:10.158Z</time>
      </trkpt>
      <trkpt lat="37.41276667" lon="-4.465795">
        <ele>479.0</ele>
        <time>2018-06-09T10:08:11.173Z</time>
      </trkpt>
      <trkpt lat="37.41276667" lon="-4.465795">
        <ele>479.0</ele>
        <time>2018-06-09T10:08:12.192Z</time>
      </trkpt>
      <trkpt lat="37.41276167" lon="-4.46601167">
        <ele>479.0</ele>
        <time>2018-06-09T10:08:13.178Z</time>
      </trkpt>
      <trkpt lat="37.41276167" lon="-4.46601167">
        <ele>479.0</ele>
        <time>2018-06-09T10:08:14.194Z</time>
      </trkpt>
      <trkpt lat="37.412755" lon="-4.46623">
        <ele>478.0</ele>
        <time>2018-06-09T10:08:15.160Z</time>
      </trkpt>
      <trkpt lat="37.412755" lon="-4.46623">
        <ele>478.0</ele>
        <time>2018-06-09T10:08:16.176Z</time>
      </trkpt>
      <trkpt lat="37.41274833" lon="-4.46645">
        <ele>478.0</ele>
        <time>2018-06-09T10:08:17.188Z</time>
      </trkpt>
      <trkpt lat="37.41274833" lon="-4.46645">
        <ele>478.0</ele>
        <time>2018-06-09T10:08:18.167Z</time>
      </trkpt>
      <trkpt lat="37.41274" lon="-4.466665">
        <ele>478.0</ele>
        <time>2018-06-09T10:08:19.174Z</time>
      </trkpt>
      <trkpt lat="37.41273833" lon="-4.466775">
        <ele>477.0</ele>
        <time>2018-06-09T10:08:20.181Z</time>
      </trkpt>
      <trkpt lat="37.41273833" lon="-4.466775">
        <ele>477.0</ele>
        <time>2018-06-09T10:08:21.158Z</time>
      </trkpt>
      <trkpt lat="37.41273333" lon="-4.46699167">
        <ele>477.0</ele>
        <time>2018-06-09T10:08:22.195Z</time>
      </trkpt>
      <trkpt lat="37.41273333" lon="-4.46699167">
        <ele>477.0</ele>
        <time>2018-06-09T10:08:23.172Z</time>
      </trkpt>
      <trkpt lat="37.41272333" lon="-4.46720667">
        <ele>476.0</ele>
        <time>2018-06-09T10:08:24.186Z</time>
      </trkpt>
      <trkpt lat="37.41272333" lon="-4.46720667">
        <ele>476.0</ele>
        <time>2018-06-09T10:08:25.164Z</time>
      </trkpt>
      <trkpt lat="37.41271333" lon="-4.46742167">
        <ele>476.0</ele>
        <time>2018-06-09T10:08:26.158Z</time>
      </trkpt>
      <trkpt lat="37.41271333" lon="-4.46742167">
        <ele>476.0</ele>
        <time>2018-06-09T10:08:27.175Z</time>
      </trkpt>
      <trkpt lat="37.41270667" lon="-4.46764">
        <ele>475.0</ele>
        <time>2018-06-09T10:08:28.182Z</time>
      </trkpt>
      <trkpt lat="37.41270667" lon="-4.46764">
        <ele>475.0</ele>
        <time>2018-06-09T10:08:29.160Z</time>
      </trkpt>
      <trkpt lat="37.4127" lon="-4.46786167">
        <ele>475.0</ele>
        <time>2018-06-09T10:08:30.194Z</time>
      </trkpt>
      <trkpt lat="37.4127" lon="-4.46786167">
        <ele>475.0</ele>
        <time>2018-06-09T10:08:31.171Z</time>
      </trkpt>
      <trkpt lat="37.412695" lon="-4.46808333">
        <ele>474.0</ele>
        <time>2018-06-09T10:08:32.196Z</time>
      </trkpt>
      <trkpt lat="37.412695" lon="-4.46808333">
        <ele>474.0</ele>
        <time>2018-06-09T10:08:33.159Z</time>
      </trkpt>
      <trkpt lat="37.41268833" lon="-4.468305">
        <ele>474.0</ele>
        <time>2018-06-09T10:08:34.179Z</time>
      </trkpt>
      <trkpt lat="37.412685" lon="-4.46841667">
        <ele>474.0</ele>
        <time>2018-06-09T10:08:35.169Z</time>
      </trkpt>
      <trkpt lat="37.412685" lon="-4.46841667">
        <ele>474.0</ele>
        <time>2018-06-09T10:08:36.185Z</time>
      </trkpt>
      <trkpt lat="37.41268" lon="-4.46864">
        <ele>474.0</ele>
        <time>2018-06-09T10:08:37.168Z</time>
      </trkpt>
      <trkpt lat="37.41268" lon="-4.46864">
        <ele>474.0</ele>
        <time>2018-06-09T10:08:38.160Z</time>
      </trkpt>
      <trkpt lat="37.41267167" lon="-4.468865">
        <ele>473.0</ele>
        <time>2018-06-09T10:08:39.166Z</time>
      </trkpt>
      <trkpt lat="37.41266833" lon="-4.468975">
        <ele>473.0</ele>
        <time>2018-06-09T10:08:40.198Z</time>
      </trkpt>
      <trkpt lat="37.41266833" lon="-4.468975">
        <ele>473.0</ele>
        <time>2018-06-09T10:08:41.161Z</time>
      </trkpt>
      <trkpt lat="37.41266" lon="-4.469195">
        <ele>473.0</ele>
        <time>2018-06-09T10:08:42.173Z</time>
      </trkpt>
      <trkpt lat="37.41266" lon="-4.469195">
        <ele>473.0</ele>
        <time>2018-06-09T10:08:43.190Z</time>
      </trkpt>
      <trkpt lat="37.41265333" lon="-4.46941333">
        <ele>473.0</ele>
        <time>2018-06-09T10:08:44.195Z</time>
      </trkpt>
      <trkpt lat="37.41265333" lon="-4.46941333">
        <ele>473.0</ele>
        <time>2018-06-09T10:08:45.184Z</time>
      </trkpt>
      <trkpt lat="37.41264667" lon="-4.46962833">
        <ele>473.0</ele>
        <time>2018-06-09T10:08:46.191Z</time>
      </trkpt>
      <trkpt lat="37.41264667" lon="-4.46962833">
        <ele>473.0</ele>
        <time>2018-06-09T10:08:47.171Z</time>
      </trkpt>
      <trkpt lat="37.41264" lon="-4.46984">
        <ele>472.0</ele>
        <time>2018-06-09T10:08:48.194Z</time>
      </trkpt>
      <trkpt lat="37.41264" lon="-4.46984">
        <ele>472.0</ele>
        <time>2018-06-09T10:08:49.173Z</time>
      </trkpt>
      <trkpt lat="37.41263333" lon="-4.470045">
        <ele>472.0</ele>
        <time>2018-06-09T10:08:50.179Z</time>
      </trkpt>
      <trkpt lat="37.41263" lon="-4.470145">
        <ele>472.0</ele>
        <time>2018-06-09T10:08:51.195Z</time>
      </trkpt>
      <trkpt lat="37.41263" lon="-4.470145">
        <ele>472.0</ele>
        <time>2018-06-09T10:08:52.174Z</time>
      </trkpt>
      <trkpt lat="37.41262667" lon="-4.47034833">
        <ele>472.0</ele>
        <time>2018-06-09T10:08:53.181Z</time>
      </trkpt>
      <trkpt lat="37.41262667" lon="-4.47034833">
        <ele>472.0</ele>
        <time>2018-06-09T10:08:54.158Z</time>
      </trkpt>
      <trkpt lat="37.41262167" lon="-4.47054833">
        <ele>472.0</ele>
        <time>2018-06-09T10:08:55.188Z</time>
      </trkpt>
      <trkpt lat="37.41262167" lon="-4.47054833">
        <ele>472.0</ele>
        <time>2018-06-09T10:08:56.165Z</time>
      </trkpt>
      <trkpt lat="37.41261333" lon="-4.47074833">
        <ele>472.0</ele>
        <time>2018-06-09T10:08:57.178Z</time>
      </trkpt>
      <trkpt lat="37.41261333" lon="-4.47074833">
        <ele>472.0</ele>
        <time>2018-06-09T10:08:58.160Z</time>
      </trkpt>
      <trkpt lat="37.41260667" lon="-4.47094833">
        <ele>471.0</ele>
        <time>2018-06-09T10:08:59.171Z</time>
      </trkpt>
      <trkpt lat="37.41260667" lon="-4.47094833">
        <ele>471.0</ele>
        <time>2018-06-09T10:09:00.182Z</time>
      </trkpt>
      <trkpt lat="37.41259833" lon="-4.471145">
        <ele>471.0</ele>
        <time>2018-06-09T10:09:01.178Z</time>
      </trkpt>
      <trkpt lat="37.41259833" lon="-4.471145">
        <ele>471.0</ele>
        <time>2018-06-09T10:09:02.196Z</time>
      </trkpt>
      <trkpt lat="37.41259" lon="-4.47133833">
        <ele>471.0</ele>
        <time>2018-06-09T10:09:03.169Z</time>
      </trkpt>
      <trkpt lat="37.41259" lon="-4.47133833">
        <ele>471.0</ele>
        <time>2018-06-09T10:09:04.187Z</time>
      </trkpt>
      <trkpt lat="37.412585" lon="-4.47153">
        <ele>471.0</ele>
        <time>2018-06-09T10:09:05.194Z</time>
      </trkpt>
      <trkpt lat="37.412585" lon="-4.47153">
        <ele>471.0</ele>
        <time>2018-06-09T10:09:06.159Z</time>
      </trkpt>
      <trkpt lat="37.41258" lon="-4.47172167">
        <ele>471.0</ele>
        <time>2018-06-09T10:09:07.178Z</time>
      </trkpt>
      <trkpt lat="37.41258" lon="-4.47172167">
        <ele>471.0</ele>
        <time>2018-06-09T10:09:08.166Z</time>
      </trkpt>
      <trkpt lat="37.41257833" lon="-4.47190833">
        <ele>471.0</ele>
        <time>2018-06-09T10:09:09.174Z</time>
      </trkpt>
      <trkpt lat="37.41257833" lon="-4.47190833">
        <ele>471.0</ele>
        <time>2018-06-09T10:09:10.193Z</time>
      </trkpt>
      <trkpt lat="37.41257167" lon="-4.472095">
        <ele>471.0</ele>
        <time>2018-06-09T10:09:11.159Z</time>
      </trkpt>
      <trkpt lat="37.41257167" lon="-4.472095">
        <ele>471.0</ele>
        <time>2018-06-09T10:09:12.175Z</time>
      </trkpt>
      <trkpt lat="37.412565" lon="-4.47227833">
        <ele>471.0</ele>
        <time>2018-06-09T10:09:13.181Z</time>
      </trkpt>
      <trkpt lat="37.412565" lon="-4.47227833">
        <ele>471.0</ele>
        <time>2018-06-09T10:09:14.157Z</time>
      </trkpt>
      <trkpt lat="37.41255833" lon="-4.472455">
        <ele>471.0</ele>
        <time>2018-06-09T10:09:15.186Z</time>
      </trkpt>
      <trkpt lat="37.41255833" lon="-4.472455">
        <ele>471.0</ele>
        <time>2018-06-09T10:09:16.162Z</time>
      </trkpt>
      <trkpt lat="37.41255" lon="-4.47263167">
        <ele>471.0</ele>
        <time>2018-06-09T10:09:17.175Z</time>
      </trkpt>
      <trkpt lat="37.41255" lon="-4.47263167">
        <ele>471.0</ele>
        <time>2018-06-09T10:09:18.193Z</time>
      </trkpt>
      <trkpt lat="37.41254333" lon="-4.472805">
        <ele>471.0</ele>
        <time>2018-06-09T10:09:19.158Z</time>
      </trkpt>
      <trkpt lat="37.41254333" lon="-4.47289">
        <ele>471.0</ele>
        <time>2018-06-09T10:09:20.177Z</time>
      </trkpt>
      <trkpt lat="37.41254333" lon="-4.47289">
        <ele>471.0</ele>
        <time>2018-06-09T10:09:21.194Z</time>
      </trkpt>
      <trkpt lat="37.41253667" lon="-4.47306167">
        <ele>471.0</ele>
        <time>2018-06-09T10:09:22.178Z</time>
      </trkpt>
      <trkpt lat="37.41253667" lon="-4.47306167">
        <ele>471.0</ele>
        <time>2018-06-09T10:09:23.194Z</time>
      </trkpt>
      <trkpt lat="37.41252667" lon="-4.47323167">
        <ele>471.0</ele>
        <time>2018-06-09T10:09:24.165Z</time>
      </trkpt>
      <trkpt lat="37.41252667" lon="-4.47323167">
        <ele>471.0</ele>
        <time>2018-06-09T10:09:25.182Z</time>
      </trkpt>
      <trkpt lat="37.41252" lon="-4.47339833">
        <ele>471.0</ele>
        <time>2018-06-09T10:09:26.174Z</time>
      </trkpt>
      <trkpt lat="37.41252" lon="-4.47339833">
        <ele>471.0</ele>
        <time>2018-06-09T10:09:27.194Z</time>
      </trkpt>
      <trkpt lat="37.41251667" lon="-4.47356167">
        <ele>471.0</ele>
        <time>2018-06-09T10:09:28.193Z</time>
      </trkpt>
      <trkpt lat="37.412515" lon="-4.47364167">
        <ele>471.0</ele>
        <time>2018-06-09T10:09:29.171Z</time>
      </trkpt>
      <trkpt lat="37.41251" lon="-4.47371833">
        <ele>471.0</ele>
        <time>2018-06-09T10:09:30.189Z</time>
      </trkpt>
      <trkpt lat="37.41251" lon="-4.47371833">
        <ele>471.0</ele>
        <time>2018-06-09T10:09:31.167Z</time>
      </trkpt>
      <trkpt lat="37.4125" lon="-4.47387167">
        <ele>470.0</ele>
        <time>2018-06-09T10:09:32.174Z</time>
      </trkpt>
      <trkpt lat="37.41249667" lon="-4.47394833">
        <ele>470.0</ele>
        <time>2018-06-09T10:09:33.169Z</time>
      </trkpt>
      <trkpt lat="37.41249667" lon="-4.47394833">
        <ele>470.0</ele>
        <time>2018-06-09T10:09:34.186Z</time>
      </trkpt>
      <trkpt lat="37.41248667" lon="-4.47409833">
        <ele>470.0</ele>
        <time>2018-06-09T10:09:35.192Z</time>
      </trkpt>
      <trkpt lat="37.41248667" lon="-4.47409833">
        <ele>470.0</ele>
        <time>2018-06-09T10:09:36.172Z</time>
      </trkpt>
      <trkpt lat="37.412475" lon="-4.474245">
        <ele>470.0</ele>
        <time>2018-06-09T10:09:37.183Z</time>
      </trkpt>
      <trkpt lat="37.412475" lon="-4.474245">
        <ele>470.0</ele>
        <time>2018-06-09T10:09:38.161Z</time>
      </trkpt>
      <trkpt lat="37.41247167" lon="-4.47438833">
        <ele>470.0</ele>
        <time>2018-06-09T10:09:39.170Z</time>
      </trkpt>
      <trkpt lat="37.41247167" lon="-4.47438833">
        <ele>470.0</ele>
        <time>2018-06-09T10:09:40.186Z</time>
      </trkpt>
      <trkpt lat="37.41247" lon="-4.47452">
        <ele>470.0</ele>
        <time>2018-06-09T10:09:41.193Z</time>
      </trkpt>
      <trkpt lat="37.41247" lon="-4.47452">
        <ele>470.0</ele>
        <time>2018-06-09T10:09:42.170Z</time>
      </trkpt>
      <trkpt lat="37.41246667" lon="-4.47464">
        <ele>470.0</ele>
        <time>2018-06-09T10:09:43.166Z</time>
      </trkpt>
      <trkpt lat="37.41246667" lon="-4.47464">
        <ele>470.0</ele>
        <time>2018-06-09T10:09:44.183Z</time>
      </trkpt>
      <trkpt lat="37.41245667" lon="-4.47475">
        <ele>470.0</ele>
        <time>2018-06-09T10:09:45.191Z</time>
      </trkpt>
      <trkpt lat="37.41245667" lon="-4.47475">
        <ele>470.0</ele>
        <time>2018-06-09T10:09:46.167Z</time>
      </trkpt>
      <trkpt lat="37.41245167" lon="-4.47482833">
        <ele>471.0</ele>
        <time>2018-06-09T10:09:47.169Z</time>
      </trkpt>
      <trkpt lat="37.41245167" lon="-4.47482833">
        <ele>471.0</ele>
        <time>2018-06-09T10:09:48.160Z</time>
      </trkpt>
      <trkpt lat="37.412455" lon="-4.47486667">
        <ele>472.0</ele>
        <time>2018-06-09T10:09:49.171Z</time>
      </trkpt>
      <trkpt lat="37.412455" lon="-4.47486667">
        <ele>472.0</ele>
        <time>2018-06-09T10:09:50.187Z</time>
      </trkpt>
      <trkpt lat="37.41245667" lon="-4.47487333">
        <ele>472.0</ele>
        <time>2018-06-09T10:09:51.181Z</time>
      </trkpt>
      <trkpt lat="37.41245667" lon="-4.47487333">
        <ele>472.0</ele>
        <time>2018-06-09T10:09:52.164Z</time>
      </trkpt>
      <trkpt lat="37.412455" lon="-4.47497">
        <ele>473.0</ele>
        <time>2018-06-09T10:09:53.186Z</time>
      </trkpt>
      <trkpt lat="37.412455" lon="-4.47497">
        <ele>473.0</ele>
        <time>2018-06-09T10:09:54.165Z</time>
      </trkpt>
      <trkpt lat="37.41245333" lon="-4.47506667">
        <ele>473.0</ele>
        <time>2018-06-09T10:09:55.172Z</time>
      </trkpt>
      <trkpt lat="37.41244833" lon="-4.47512">
        <ele>473.0</ele>
        <time>2018-06-09T10:09:56.195Z</time>
      </trkpt>
      <trkpt lat="37.41244833" lon="-4.47512">
        <ele>473.0</ele>
        <time>2018-06-09T10:09:57.172Z</time>
      </trkpt>
      <trkpt lat="37.41244667" lon="-4.47524">
        <ele>473.0</ele>
        <time>2018-06-09T10:09:58.179Z</time>
      </trkpt>
      <trkpt lat="37.41244667" lon="-4.475305">
        <ele>473.0</ele>
        <time>2018-06-09T10:09:59.195Z</time>
      </trkpt>
      <trkpt lat="37.41244667" lon="-4.475305">
        <ele>473.0</ele>
        <time>2018-06-09T10:10:00.173Z</time>
      </trkpt>
      <trkpt lat="37.41244667" lon="-4.47544833">
        <ele>474.0</ele>
        <time>2018-06-09T10:10:01.191Z</time>
      </trkpt>
      <trkpt lat="37.41244667" lon="-4.47544833">
        <ele>474.0</ele>
        <time>2018-06-09T10:10:02.168Z</time>
      </trkpt>
      <trkpt lat="37.41244333" lon="-4.47559167">
        <ele>474.0</ele>
        <time>2018-06-09T10:10:03.174Z</time>
      </trkpt>
      <trkpt lat="37.41244333" lon="-4.47559167">
        <ele>474.0</ele>
        <time>2018-06-09T10:10:04.191Z</time>
      </trkpt>
      <trkpt lat="37.41244" lon="-4.47573667">
        <ele>474.0</ele>
        <time>2018-06-09T10:10:05.160Z</time>
      </trkpt>
      <trkpt lat="37.41244" lon="-4.47573667">
        <ele>474.0</ele>
        <time>2018-06-09T10:10:06.160Z</time>
      </trkpt>
      <trkpt lat="37.412435" lon="-4.47588333">
        <ele>474.0</ele>
        <time>2018-06-09T10:10:07.170Z</time>
      </trkpt>
      <trkpt lat="37.412435" lon="-4.47588333">
        <ele>474.0</ele>
        <time>2018-06-09T10:10:08.188Z</time>
      </trkpt>
      <trkpt lat="37.41243333" lon="-4.476035">
        <ele>474.0</ele>
        <time>2018-06-09T10:10:09.173Z</time>
      </trkpt>
      <trkpt lat="37.41243333" lon="-4.476035">
        <ele>474.0</ele>
        <time>2018-06-09T10:10:10.190Z</time>
      </trkpt>
      <trkpt lat="37.41243167" lon="-4.47619333">
        <ele>474.0</ele>
        <time>2018-06-09T10:10:11.174Z</time>
      </trkpt>
      <trkpt lat="37.41243167" lon="-4.47619333">
        <ele>474.0</ele>
        <time>2018-06-09T10:10:12.172Z</time>
      </trkpt>
      <trkpt lat="37.41243833" lon="-4.476355">
        <ele>474.0</ele>
        <time>2018-06-09T10:10:13.178Z</time>
      </trkpt>
      <trkpt lat="37.41243833" lon="-4.476355">
        <ele>474.0</ele>
        <time>2018-06-09T10:10:14.196Z</time>
      </trkpt>
      <trkpt lat="37.41245333" lon="-4.47652167">
        <ele>473.0</ele>
        <time>2018-06-09T10:10:15.172Z</time>
      </trkpt>
      <trkpt lat="37.41245333" lon="-4.47652167">
        <ele>473.0</ele>
        <time>2018-06-09T10:10:16.188Z</time>
      </trkpt>
      <trkpt lat="37.41247333" lon="-4.47668667">
        <ele>473.0</ele>
        <time>2018-06-09T10:10:17.194Z</time>
      </trkpt>
      <trkpt lat="37.41247333" lon="-4.47668667">
        <ele>473.0</ele>
        <time>2018-06-09T10:10:18.171Z</time>
      </trkpt>
      <trkpt lat="37.412505" lon="-4.47684833">
        <ele>473.0</ele>
        <time>2018-06-09T10:10:19.173Z</time>
      </trkpt>
      <trkpt lat="37.412505" lon="-4.47684833">
        <ele>473.0</ele>
        <time>2018-06-09T10:10:20.189Z</time>
      </trkpt>
      <trkpt lat="37.41254333" lon="-4.47700667">
        <ele>472.0</ele>
        <time>2018-06-09T10:10:21.195Z</time>
      </trkpt>
      <trkpt lat="37.41254333" lon="-4.47700667">
        <ele>472.0</ele>
        <time>2018-06-09T10:10:22.189Z</time>
      </trkpt>
      <trkpt lat="37.41259333" lon="-4.47716833">
        <ele>472.0</ele>
        <time>2018-06-09T10:10:23.157Z</time>
      </trkpt>
      <trkpt lat="37.41259333" lon="-4.47716833">
        <ele>472.0</ele>
        <time>2018-06-09T10:10:24.173Z</time>
      </trkpt>
      <trkpt lat="37.41264667" lon="-4.477325">
        <ele>472.0</ele>
        <time>2018-06-09T10:10:25.181Z</time>
      </trkpt>
      <trkpt lat="37.412675" lon="-4.477405">
        <ele>471.0</ele>
        <time>2018-06-09T10:10:26.174Z</time>
      </trkpt>
      <trkpt lat="37.412675" lon="-4.477405">
        <ele>471.0</ele>
        <time>2018-06-09T10:10:27.190Z</time>
      </trkpt>
      <trkpt lat="37.41273333" lon="-4.47757">
        <ele>471.0</ele>
        <time>2018-06-09T10:10:28.157Z</time>
      </trkpt>
      <trkpt lat="37.41273333" lon="-4.47757">
        <ele>471.0</ele>
        <time>2018-06-09T10:10:29.174Z</time>
      </trkpt>
      <trkpt lat="37.412795" lon="-4.47774">
        <ele>470.0</ele>
        <time>2018-06-09T10:10:30.173Z</time>
      </trkpt>
      <trkpt lat="37.412795" lon="-4.47774">
        <ele>470.0</ele>
        <time>2018-06-09T10:10:31.191Z</time>
      </trkpt>
      <trkpt lat="37.41286167" lon="-4.47790667">
        <ele>470.0</ele>
        <time>2018-06-09T10:10:32.166Z</time>
      </trkpt>
      <trkpt lat="37.41286167" lon="-4.47790667">
        <ele>470.0</ele>
        <time>2018-06-09T10:10:33.187Z</time>
      </trkpt>
      <trkpt lat="37.41293" lon="-4.47807667">
        <ele>469.0</ele>
        <time>2018-06-09T10:10:34.194Z</time>
      </trkpt>
      <trkpt lat="37.41296333" lon="-4.47816167">
        <ele>469.0</ele>
        <time>2018-06-09T10:10:35.171Z</time>
      </trkpt>
      <trkpt lat="37.41296333" lon="-4.47816167">
        <ele>469.0</ele>
        <time>2018-06-09T10:10:36.188Z</time>
      </trkpt>
      <trkpt lat="37.41302667" lon="-4.478335">
        <ele>469.0</ele>
        <time>2018-06-09T10:10:37.176Z</time>
      </trkpt>
      <trkpt lat="37.41302667" lon="-4.478335">
        <ele>469.0</ele>
        <time>2018-06-09T10:10:38.195Z</time>
      </trkpt>
      <trkpt lat="37.41309167" lon="-4.47851167">
        <ele>468.0</ele>
        <time>2018-06-09T10:10:39.167Z</time>
      </trkpt>
      <trkpt lat="37.41309167" lon="-4.47851167">
        <ele>468.0</ele>
        <time>2018-06-09T10:10:40.184Z</time>
      </trkpt>
      <trkpt lat="37.41315667" lon="-4.47869">
        <ele>468.0</ele>
        <time>2018-06-09T10:10:41.186Z</time>
      </trkpt>
      <trkpt lat="37.41315667" lon="-4.47869">
        <ele>468.0</ele>
        <time>2018-06-09T10:10:42.163Z</time>
      </trkpt>
      <trkpt lat="37.41322833" lon="-4.47886667">
        <ele>468.0</ele>
        <time>2018-06-09T10:10:43.172Z</time>
      </trkpt>
      <trkpt lat="37.41322833" lon="-4.47886667">
        <ele>468.0</ele>
        <time>2018-06-09T10:10:44.189Z</time>
      </trkpt>
      <trkpt lat="37.413295" lon="-4.479035">
        <ele>468.0</ele>
        <time>2018-06-09T10:10:45.195Z</time>
      </trkpt>
      <trkpt lat="37.413295" lon="-4.479035">
        <ele>468.0</ele>
        <time>2018-06-09T10:10:46.171Z</time>
      </trkpt>
      <trkpt lat="37.41336333" lon="-4.47920667">
        <ele>467.0</ele>
        <time>2018-06-09T10:10:47.164Z</time>
      </trkpt>
      <trkpt lat="37.41336333" lon="-4.47920667">
        <ele>467.0</ele>
        <time>2018-06-09T10:10:48.186Z</time>
      </trkpt>
      <trkpt lat="37.41342833" lon="-4.47937333">
        <ele>467.0</ele>
        <time>2018-06-09T10:10:49.192Z</time>
      </trkpt>
      <trkpt lat="37.41342833" lon="-4.47937333">
        <ele>467.0</ele>
        <time>2018-06-09T10:10:50.170Z</time>
      </trkpt>
      <trkpt lat="37.41348833" lon="-4.47952333">
        <ele>466.0</ele>
        <time>2018-06-09T10:10:51.176Z</time>
      </trkpt>
      <trkpt lat="37.41348833" lon="-4.47952333">
        <ele>466.0</ele>
        <time>2018-06-09T10:10:52.178Z</time>
      </trkpt>
      <trkpt lat="37.41353667" lon="-4.47963833">
        <ele>466.0</ele>
        <time>2018-06-09T10:10:53.195Z</time>
      </trkpt>
      <trkpt lat="37.41353667" lon="-4.47963833">
        <ele>466.0</ele>
        <time>2018-06-09T10:10:54.172Z</time>
      </trkpt>
      <trkpt lat="37.413575" lon="-4.47974">
        <ele>466.0</ele>
        <time>2018-06-09T10:10:55.179Z</time>
      </trkpt>
      <trkpt lat="37.413575" lon="-4.47974">
        <ele>466.0</ele>
        <time>2018-06-09T10:10:56.196Z</time>
      </trkpt>
      <trkpt lat="37.41358667" lon="-4.47977333">
        <ele>466.0</ele>
        <time>2018-06-09T10:10:57.169Z</time>
      </trkpt>
      <trkpt lat="37.41358667" lon="-4.47977333">
        <ele>466.0</ele>
        <time>2018-06-09T10:10:58.186Z</time>
      </trkpt>
      <trkpt lat="37.41359" lon="-4.47977333">
        <ele>467.0</ele>
        <time>2018-06-09T10:10:59.157Z</time>
      </trkpt>
      <trkpt lat="37.41359" lon="-4.47977333">
        <ele>467.0</ele>
        <time>2018-06-09T10:11:00.174Z</time>
      </trkpt>
      <trkpt lat="37.41359" lon="-4.47977333">
        <ele>467.0</ele>
        <time>2018-06-09T10:11:01.157Z</time>
      </trkpt>
      <trkpt lat="37.41361" lon="-4.47981">
        <ele>469.0</ele>
        <time>2018-06-09T10:11:02.177Z</time>
      </trkpt>
      <trkpt lat="37.41362" lon="-4.47984333">
        <ele>469.0</ele>
        <time>2018-06-09T10:11:03.166Z</time>
      </trkpt>
      <trkpt lat="37.41362" lon="-4.47984333">
        <ele>469.0</ele>
        <time>2018-06-09T10:11:04.184Z</time>
      </trkpt>
      <trkpt lat="37.41365167" lon="-4.47992667">
        <ele>469.0</ele>
        <time>2018-06-09T10:11:05.163Z</time>
      </trkpt>
      <trkpt lat="37.41365167" lon="-4.47992667">
        <ele>469.0</ele>
        <time>2018-06-09T10:11:06.180Z</time>
      </trkpt>
      <trkpt lat="37.41368667" lon="-4.48003167">
        <ele>468.0</ele>
        <time>2018-06-09T10:11:07.187Z</time>
      </trkpt>
      <trkpt lat="37.41368667" lon="-4.48003167">
        <ele>468.0</ele>
        <time>2018-06-09T10:11:08.165Z</time>
      </trkpt>
      <trkpt lat="37.41373" lon="-4.480155">
        <ele>467.0</ele>
        <time>2018-06-09T10:11:09.173Z</time>
      </trkpt>
      <trkpt lat="37.41373" lon="-4.480155">
        <ele>467.0</ele>
        <time>2018-06-09T10:11:10.189Z</time>
      </trkpt>
      <trkpt lat="37.41378" lon="-4.48029333">
        <ele>467.0</ele>
        <time>2018-06-09T10:11:11.168Z</time>
      </trkpt>
      <trkpt lat="37.41378" lon="-4.48029333">
        <ele>467.0</ele>
        <time>2018-06-09T10:11:12.184Z</time>
      </trkpt>
      <trkpt lat="37.41383" lon="-4.48043833">
        <ele>466.0</ele>
        <time>2018-06-09T10:11:13.190Z</time>
      </trkpt>
      <trkpt lat="37.41383" lon="-4.48043833">
        <ele>466.0</ele>
        <time>2018-06-09T10:11:14.166Z</time>
      </trkpt>
      <trkpt lat="37.41388667" lon="-4.48059333">
        <ele>466.0</ele>
        <time>2018-06-09T10:11:15.173Z</time>
      </trkpt>
      <trkpt lat="37.41388667" lon="-4.48059333">
        <ele>466.0</ele>
        <time>2018-06-09T10:11:16.189Z</time>
      </trkpt>
      <trkpt lat="37.41394833" lon="-4.48075833">
        <ele>466.0</ele>
        <time>2018-06-09T10:11:17.196Z</time>
      </trkpt>
      <trkpt lat="37.41394833" lon="-4.48075833">
        <ele>466.0</ele>
        <time>2018-06-09T10:11:18.173Z</time>
      </trkpt>
      <trkpt lat="37.41401333" lon="-4.48093">
        <ele>465.0</ele>
        <time>2018-06-09T10:11:19.193Z</time>
      </trkpt>
      <trkpt lat="37.41401333" lon="-4.48093">
        <ele>465.0</ele>
        <time>2018-06-09T10:11:20.179Z</time>
      </trkpt>
      <trkpt lat="37.41408167" lon="-4.481105">
        <ele>464.0</ele>
        <time>2018-06-09T10:11:21.185Z</time>
      </trkpt>
      <trkpt lat="37.41408167" lon="-4.481105">
        <ele>464.0</ele>
        <time>2018-06-09T10:11:22.173Z</time>
      </trkpt>
      <trkpt lat="37.41415" lon="-4.481285">
        <ele>464.0</ele>
        <time>2018-06-09T10:11:23.180Z</time>
      </trkpt>
      <trkpt lat="37.41415" lon="-4.481285">
        <ele>464.0</ele>
        <time>2018-06-09T10:11:24.157Z</time>
      </trkpt>
      <trkpt lat="37.41421833" lon="-4.48147">
        <ele>463.0</ele>
        <time>2018-06-09T10:11:25.172Z</time>
      </trkpt>
      <trkpt lat="37.41421833" lon="-4.48147">
        <ele>463.0</ele>
        <time>2018-06-09T10:11:26.188Z</time>
      </trkpt>
      <trkpt lat="37.41428833" lon="-4.48166167">
        <ele>463.0</ele>
        <time>2018-06-09T10:11:27.194Z</time>
      </trkpt>
      <trkpt lat="37.41428833" lon="-4.48166167">
        <ele>463.0</ele>
        <time>2018-06-09T10:11:28.170Z</time>
      </trkpt>
      <trkpt lat="37.41436" lon="-4.48185">
        <ele>462.0</ele>
        <time>2018-06-09T10:11:29.173Z</time>
      </trkpt>
      <trkpt lat="37.41436" lon="-4.48185">
        <ele>462.0</ele>
        <time>2018-06-09T10:11:30.189Z</time>
      </trkpt>
      <trkpt lat="37.41443167" lon="-4.48203833">
        <ele>462.0</ele>
        <time>2018-06-09T10:11:31.181Z</time>
      </trkpt>
      <trkpt lat="37.41443167" lon="-4.48203833">
        <ele>462.0</ele>
        <time>2018-06-09T10:11:32.171Z</time>
      </trkpt>
      <trkpt lat="37.41450167" lon="-4.48222833">
        <ele>461.0</ele>
        <time>2018-06-09T10:11:33.178Z</time>
      </trkpt>
      <trkpt lat="37.41450167" lon="-4.48222833">
        <ele>461.0</ele>
        <time>2018-06-09T10:11:34.195Z</time>
      </trkpt>
      <trkpt lat="37.41457333" lon="-4.48242333">
        <ele>460.0</ele>
        <time>2018-06-09T10:11:35.167Z</time>
      </trkpt>
      <trkpt lat="37.41457333" lon="-4.48242333">
        <ele>460.0</ele>
        <time>2018-06-09T10:11:36.184Z</time>
      </trkpt>
      <trkpt lat="37.41464833" lon="-4.48262">
        <ele>460.0</ele>
        <time>2018-06-09T10:11:37.171Z</time>
      </trkpt>
      <trkpt lat="37.41464833" lon="-4.48262">
        <ele>460.0</ele>
        <time>2018-06-09T10:11:38.188Z</time>
      </trkpt>
      <trkpt lat="37.41471833" lon="-4.48281">
        <ele>459.0</ele>
        <time>2018-06-09T10:11:39.195Z</time>
      </trkpt>
      <trkpt lat="37.41471833" lon="-4.48281">
        <ele>459.0</ele>
        <time>2018-06-09T10:11:40.192Z</time>
      </trkpt>
      <trkpt lat="37.41478" lon="-4.482985">
        <ele>459.0</ele>
        <time>2018-06-09T10:11:41.186Z</time>
      </trkpt>
      <trkpt lat="37.41478" lon="-4.482985">
        <ele>459.0</ele>
        <time>2018-06-09T10:11:42.169Z</time>
      </trkpt>
      <trkpt lat="37.41484" lon="-4.48314333">
        <ele>458.0</ele>
        <time>2018-06-09T10:11:43.175Z</time>
      </trkpt>
      <trkpt lat="37.41484" lon="-4.48314333">
        <ele>458.0</ele>
        <time>2018-06-09T10:11:44.192Z</time>
      </trkpt>
      <trkpt lat="37.41489333" lon="-4.48328333">
        <ele>457.0</ele>
        <time>2018-06-09T10:11:45.181Z</time>
      </trkpt>
      <trkpt lat="37.41489333" lon="-4.48328333">
        <ele>457.0</ele>
        <time>2018-06-09T10:11:46.161Z</time>
      </trkpt>
      <trkpt lat="37.41494167" lon="-4.48341667">
        <ele>457.0</ele>
        <time>2018-06-09T10:11:47.160Z</time>
      </trkpt>
      <trkpt lat="37.41494167" lon="-4.48341667">
        <ele>457.0</ele>
        <time>2018-06-09T10:11:48.157Z</time>
      </trkpt>
      <trkpt lat="37.41499167" lon="-4.48354333">
        <ele>456.0</ele>
        <time>2018-06-09T10:11:49.164Z</time>
      </trkpt>
      <trkpt lat="37.41499167" lon="-4.48354333">
        <ele>456.0</ele>
        <time>2018-06-09T10:11:50.181Z</time>
      </trkpt>
      <trkpt lat="37.41504167" lon="-4.48367">
        <ele>456.0</ele>
        <time>2018-06-09T10:11:51.188Z</time>
      </trkpt>
      <trkpt lat="37.41504167" lon="-4.48367">
        <ele>456.0</ele>
        <time>2018-06-09T10:11:52.164Z</time>
      </trkpt>
      <trkpt lat="37.41509667" lon="-4.48378833">
        <ele>456.0</ele>
        <time>2018-06-09T10:11:53.192Z</time>
      </trkpt>
      <trkpt lat="37.41509667" lon="-4.48378833">
        <ele>456.0</ele>
        <time>2018-06-09T10:11:54.181Z</time>
      </trkpt>
      <trkpt lat="37.41517667" lon="-4.48388167">
        <ele>455.0</ele>
        <time>2018-06-09T10:11:55.188Z</time>
      </trkpt>
      <trkpt lat="37.41522667" lon="-4.483925">
        <ele>455.0</ele>
        <time>2018-06-09T10:11:56.162Z</time>
      </trkpt>
      <trkpt lat="37.41522667" lon="-4.483925">
        <ele>455.0</ele>
        <time>2018-06-09T10:11:57.179Z</time>
      </trkpt>
      <trkpt lat="37.41532167" lon="-4.484025">
        <ele>455.0</ele>
        <time>2018-06-09T10:11:58.161Z</time>
      </trkpt>
      <trkpt lat="37.41532167" lon="-4.484025">
        <ele>455.0</ele>
        <time>2018-06-09T10:11:59.178Z</time>
      </trkpt>
      <trkpt lat="37.415355" lon="-4.48416">
        <ele>455.0</ele>
        <time>2018-06-09T10:12:00.184Z</time>
      </trkpt>
      <trkpt lat="37.415355" lon="-4.48416">
        <ele>455.0</ele>
        <time>2018-06-09T10:12:01.196Z</time>
      </trkpt>
      <trkpt lat="37.41530833" lon="-4.484285">
        <ele>455.0</ele>
        <time>2018-06-09T10:12:02.162Z</time>
      </trkpt>
      <trkpt lat="37.41530833" lon="-4.484285">
        <ele>455.0</ele>
        <time>2018-06-09T10:12:03.179Z</time>
      </trkpt>
      <trkpt lat="37.41523167" lon="-4.484385">
        <ele>456.0</ele>
        <time>2018-06-09T10:12:04.185Z</time>
      </trkpt>
      <trkpt lat="37.41519667" lon="-4.48444333">
        <ele>456.0</ele>
        <time>2018-06-09T10:12:05.164Z</time>
      </trkpt>
      <trkpt lat="37.41519667" lon="-4.48444333">
        <ele>456.0</ele>
        <time>2018-06-09T10:12:06.180Z</time>
      </trkpt>
      <trkpt lat="37.41513833" lon="-4.48458">
        <ele>455.0</ele>
        <time>2018-06-09T10:12:07.179Z</time>
      </trkpt>
      <trkpt lat="37.41513833" lon="-4.48458">
        <ele>455.0</ele>
        <time>2018-06-09T10:12:08.191Z</time>
      </trkpt>
      <trkpt lat="37.415095" lon="-4.48473667">
        <ele>455.0</ele>
        <time>2018-06-09T10:12:09.157Z</time>
      </trkpt>
      <trkpt lat="37.41507167" lon="-4.48481667">
        <ele>455.0</ele>
        <time>2018-06-09T10:12:10.173Z</time>
      </trkpt>
      <trkpt lat="37.41507167" lon="-4.48481667">
        <ele>455.0</ele>
        <time>2018-06-09T10:12:11.191Z</time>
      </trkpt>
      <trkpt lat="37.41502667" lon="-4.48497667">
        <ele>456.0</ele>
        <time>2018-06-09T10:12:12.157Z</time>
      </trkpt>
      <trkpt lat="37.41502667" lon="-4.48497667">
        <ele>456.0</ele>
        <time>2018-06-09T10:12:13.173Z</time>
      </trkpt>
      <trkpt lat="37.41498333" lon="-4.48513833">
        <ele>456.0</ele>
        <time>2018-06-09T10:12:14.179Z</time>
      </trkpt>
      <trkpt lat="37.41498333" lon="-4.48513833">
        <ele>456.0</ele>
        <time>2018-06-09T10:12:15.196Z</time>
      </trkpt>
      <trkpt lat="37.414945" lon="-4.48530833">
        <ele>456.0</ele>
        <time>2018-06-09T10:12:16.165Z</time>
      </trkpt>
      <trkpt lat="37.414945" lon="-4.48530833">
        <ele>456.0</ele>
        <time>2018-06-09T10:12:17.181Z</time>
      </trkpt>
      <trkpt lat="37.41491167" lon="-4.48548333">
        <ele>456.0</ele>
        <time>2018-06-09T10:12:18.196Z</time>
      </trkpt>
      <trkpt lat="37.41491167" lon="-4.48548333">
        <ele>456.0</ele>
        <time>2018-06-09T10:12:19.174Z</time>
      </trkpt>
      <trkpt lat="37.41488" lon="-4.48565667">
        <ele>457.0</ele>
        <time>2018-06-09T10:12:20.170Z</time>
      </trkpt>
      <trkpt lat="37.41488" lon="-4.48565667">
        <ele>457.0</ele>
        <time>2018-06-09T10:12:21.186Z</time>
      </trkpt>
      <trkpt lat="37.41484333" lon="-4.48582333">
        <ele>458.0</ele>
        <time>2018-06-09T10:12:22.194Z</time>
      </trkpt>
      <trkpt lat="37.41484333" lon="-4.48582333">
        <ele>458.0</ele>
        <time>2018-06-09T10:12:23.171Z</time>
      </trkpt>
      <trkpt lat="37.414805" lon="-4.485985">
        <ele>458.0</ele>
        <time>2018-06-09T10:12:24.172Z</time>
      </trkpt>
      <trkpt lat="37.414805" lon="-4.485985">
        <ele>458.0</ele>
        <time>2018-06-09T10:12:25.167Z</time>
      </trkpt>
      <trkpt lat="37.414765" lon="-4.48614333">
        <ele>458.0</ele>
        <time>2018-06-09T10:12:26.170Z</time>
      </trkpt>
      <trkpt lat="37.414765" lon="-4.48614333">
        <ele>458.0</ele>
        <time>2018-06-09T10:12:27.187Z</time>
      </trkpt>
      <trkpt lat="37.414725" lon="-4.48630333">
        <ele>458.0</ele>
        <time>2018-06-09T10:12:28.160Z</time>
      </trkpt>
      <trkpt lat="37.41470167" lon="-4.48638167">
        <ele>458.0</ele>
        <time>2018-06-09T10:12:29.178Z</time>
      </trkpt>
      <trkpt lat="37.41470167" lon="-4.48638167">
        <ele>458.0</ele>
        <time>2018-06-09T10:12:30.157Z</time>
      </trkpt>
      <trkpt lat="37.41464833" lon="-4.48653333">
        <ele>458.0</ele>
        <time>2018-06-09T10:12:31.187Z</time>
      </trkpt>
      <trkpt lat="37.41464833" lon="-4.48653333">
        <ele>458.0</ele>
        <time>2018-06-09T10:12:32.164Z</time>
      </trkpt>
      <trkpt lat="37.414595" lon="-4.48668833">
        <ele>459.0</ele>
        <time>2018-06-09T10:12:33.170Z</time>
      </trkpt>
      <trkpt lat="37.41457" lon="-4.48676167">
        <ele>459.0</ele>
        <time>2018-06-09T10:12:34.187Z</time>
      </trkpt>
      <trkpt lat="37.41457" lon="-4.48676167">
        <ele>459.0</ele>
        <time>2018-06-09T10:12:35.167Z</time>
      </trkpt>
      <trkpt lat="37.414515" lon="-4.48690167">
        <ele>460.0</ele>
        <time>2018-06-09T10:12:36.173Z</time>
      </trkpt>
      <trkpt lat="37.414515" lon="-4.48690167">
        <ele>460.0</ele>
        <time>2018-06-09T10:12:37.161Z</time>
      </trkpt>
      <trkpt lat="37.41445667" lon="-4.48704333">
        <ele>460.0</ele>
        <time>2018-06-09T10:12:38.193Z</time>
      </trkpt>
      <trkpt lat="37.41445667" lon="-4.48704333">
        <ele>460.0</ele>
        <time>2018-06-09T10:12:39.182Z</time>
      </trkpt>
      <trkpt lat="37.41440333" lon="-4.48719333">
        <ele>460.0</ele>
        <time>2018-06-09T10:12:40.188Z</time>
      </trkpt>
      <trkpt lat="37.41437833" lon="-4.48726667">
        <ele>461.0</ele>
        <time>2018-06-09T10:12:41.185Z</time>
      </trkpt>
      <trkpt lat="37.41437833" lon="-4.48726667">
        <ele>461.0</ele>
        <time>2018-06-09T10:12:42.162Z</time>
      </trkpt>
      <trkpt lat="37.41432833" lon="-4.487415">
        <ele>460.0</ele>
        <time>2018-06-09T10:12:43.171Z</time>
      </trkpt>
      <trkpt lat="37.41432833" lon="-4.487415">
        <ele>460.0</ele>
        <time>2018-06-09T10:12:44.188Z</time>
      </trkpt>
      <trkpt lat="37.414275" lon="-4.487555">
        <ele>460.0</ele>
        <time>2018-06-09T10:12:45.159Z</time>
      </trkpt>
      <trkpt lat="37.414275" lon="-4.487555">
        <ele>460.0</ele>
        <time>2018-06-09T10:12:46.164Z</time>
      </trkpt>
      <trkpt lat="37.41422333" lon="-4.48769">
        <ele>460.0</ele>
        <time>2018-06-09T10:12:47.164Z</time>
      </trkpt>
      <trkpt lat="37.41422333" lon="-4.48769">
        <ele>460.0</ele>
        <time>2018-06-09T10:12:48.190Z</time>
      </trkpt>
      <trkpt lat="37.41417" lon="-4.48781667">
        <ele>460.0</ele>
        <time>2018-06-09T10:12:49.157Z</time>
      </trkpt>
      <trkpt lat="37.41413833" lon="-4.48788">
        <ele>460.0</ele>
        <time>2018-06-09T10:12:50.175Z</time>
      </trkpt>
      <trkpt lat="37.41413833" lon="-4.48788">
        <ele>460.0</ele>
        <time>2018-06-09T10:12:51.192Z</time>
      </trkpt>
      <trkpt lat="37.41408167" lon="-4.48800833">
        <ele>460.0</ele>
        <time>2018-06-09T10:12:52.181Z</time>
      </trkpt>
      <trkpt lat="37.41408167" lon="-4.48800833">
        <ele>460.0</ele>
        <time>2018-06-09T10:12:53.179Z</time>
      </trkpt>
      <trkpt lat="37.41403333" lon="-4.48814">
        <ele>460.0</ele>
        <time>2018-06-09T10:12:54.192Z</time>
      </trkpt>
      <trkpt lat="37.41403333" lon="-4.48814">
        <ele>460.0</ele>
        <time>2018-06-09T10:12:55.168Z</time>
      </trkpt>
      <trkpt lat="37.41398167" lon="-4.48827167">
        <ele>459.0</ele>
        <time>2018-06-09T10:12:56.163Z</time>
      </trkpt>
      <trkpt lat="37.41398167" lon="-4.48827167">
        <ele>459.0</ele>
        <time>2018-06-09T10:12:57.181Z</time>
      </trkpt>
      <trkpt lat="37.41393167" lon="-4.48840333">
        <ele>460.0</ele>
        <time>2018-06-09T10:12:58.189Z</time>
      </trkpt>
      <trkpt lat="37.413905" lon="-4.48847167">
        <ele>460.0</ele>
        <time>2018-06-09T10:12:59.172Z</time>
      </trkpt>
      <trkpt lat="37.413905" lon="-4.48847167">
        <ele>460.0</ele>
        <time>2018-06-09T10:13:00.191Z</time>
      </trkpt>
      <trkpt lat="37.41385167" lon="-4.48860833">
        <ele>459.0</ele>
        <time>2018-06-09T10:13:01.174Z</time>
      </trkpt>
      <trkpt lat="37.41385167" lon="-4.48860833">
        <ele>459.0</ele>
        <time>2018-06-09T10:13:02.191Z</time>
      </trkpt>
      <trkpt lat="37.41380167" lon="-4.48874667">
        <ele>459.0</ele>
        <time>2018-06-09T10:13:03.158Z</time>
      </trkpt>
      <trkpt lat="37.41380167" lon="-4.48874667">
        <ele>459.0</ele>
        <time>2018-06-09T10:13:04.174Z</time>
      </trkpt>
      <trkpt lat="37.41375667" lon="-4.48888833">
        <ele>460.0</ele>
        <time>2018-06-09T10:13:05.180Z</time>
      </trkpt>
      <trkpt lat="37.41375667" lon="-4.48888833">
        <ele>460.0</ele>
        <time>2018-06-09T10:13:06.158Z</time>
      </trkpt>
      <trkpt lat="37.41371" lon="-4.48902167">
        <ele>460.0</ele>
        <time>2018-06-09T10:13:07.162Z</time>
      </trkpt>
      <trkpt lat="37.41371" lon="-4.48902167">
        <ele>460.0</ele>
        <time>2018-06-09T10:13:08.185Z</time>
      </trkpt>
      <trkpt lat="37.413665" lon="-4.48915667">
        <ele>460.0</ele>
        <time>2018-06-09T10:13:09.192Z</time>
      </trkpt>
      <trkpt lat="37.41364167" lon="-4.48922">
        <ele>459.0</ele>
        <time>2018-06-09T10:13:10.170Z</time>
      </trkpt>
      <trkpt lat="37.41364167" lon="-4.48922">
        <ele>459.0</ele>
        <time>2018-06-09T10:13:11.187Z</time>
      </trkpt>
      <trkpt lat="37.41359167" lon="-4.48935333">
        <ele>458.0</ele>
        <time>2018-06-09T10:13:12.195Z</time>
      </trkpt>
      <trkpt lat="37.41359167" lon="-4.48935333">
        <ele>458.0</ele>
        <time>2018-06-09T10:13:13.171Z</time>
      </trkpt>
      <trkpt lat="37.41354" lon="-4.48948333">
        <ele>458.0</ele>
        <time>2018-06-09T10:13:14.178Z</time>
      </trkpt>
      <trkpt lat="37.41354" lon="-4.48948333">
        <ele>458.0</ele>
        <time>2018-06-09T10:13:15.194Z</time>
      </trkpt>
      <trkpt lat="37.41349" lon="-4.48962333">
        <ele>458.0</ele>
        <time>2018-06-09T10:13:16.171Z</time>
      </trkpt>
      <trkpt lat="37.413465" lon="-4.48969333">
        <ele>458.0</ele>
        <time>2018-06-09T10:13:17.161Z</time>
      </trkpt>
      <trkpt lat="37.413465" lon="-4.48969333">
        <ele>458.0</ele>
        <time>2018-06-09T10:13:18.177Z</time>
      </trkpt>
      <trkpt lat="37.413415" lon="-4.48983667">
        <ele>457.0</ele>
        <time>2018-06-09T10:13:19.185Z</time>
      </trkpt>
      <trkpt lat="37.41338833" lon="-4.48991167">
        <ele>457.0</ele>
        <time>2018-06-09T10:13:20.157Z</time>
      </trkpt>
      <trkpt lat="37.41338833" lon="-4.48991167">
        <ele>457.0</ele>
        <time>2018-06-09T10:13:21.174Z</time>
      </trkpt>
      <trkpt lat="37.41333667" lon="-4.490065">
        <ele>456.0</ele>
        <time>2018-06-09T10:13:22.189Z</time>
      </trkpt>
      <trkpt lat="37.41333667" lon="-4.490065">
        <ele>456.0</ele>
        <time>2018-06-09T10:13:23.166Z</time>
      </trkpt>
      <trkpt lat="37.41328167" lon="-4.49022167">
        <ele>456.0</ele>
        <time>2018-06-09T10:13:24.172Z</time>
      </trkpt>
      <trkpt lat="37.41328167" lon="-4.49022167">
        <ele>456.0</ele>
        <time>2018-06-09T10:13:25.183Z</time>
      </trkpt>
      <trkpt lat="37.413225" lon="-4.49038">
        <ele>455.0</ele>
        <time>2018-06-09T10:13:26.190Z</time>
      </trkpt>
      <trkpt lat="37.413225" lon="-4.49038">
        <ele>455.0</ele>
        <time>2018-06-09T10:13:27.167Z</time>
      </trkpt>
      <trkpt lat="37.41316167" lon="-4.49053833">
        <ele>454.0</ele>
        <time>2018-06-09T10:13:28.195Z</time>
      </trkpt>
      <trkpt lat="37.41316167" lon="-4.49053833">
        <ele>454.0</ele>
        <time>2018-06-09T10:13:29.175Z</time>
      </trkpt>
      <trkpt lat="37.41310167" lon="-4.49069833">
        <ele>454.0</ele>
        <time>2018-06-09T10:13:30.181Z</time>
      </trkpt>
      <trkpt lat="37.41310167" lon="-4.49069833">
        <ele>454.0</ele>
        <time>2018-06-09T10:13:31.157Z</time>
      </trkpt>
      <trkpt lat="37.41304167" lon="-4.49086167">
        <ele>453.0</ele>
        <time>2018-06-09T10:13:32.165Z</time>
      </trkpt>
      <trkpt lat="37.41304167" lon="-4.49086167">
        <ele>453.0</ele>
        <time>2018-06-09T10:13:33.181Z</time>
      </trkpt>
      <trkpt lat="37.41297833" lon="-4.49102333">
        <ele>453.0</ele>
        <time>2018-06-09T10:13:34.163Z</time>
      </trkpt>
      <trkpt lat="37.41297833" lon="-4.49102333">
        <ele>453.0</ele>
        <time>2018-06-09T10:13:35.181Z</time>
      </trkpt>
      <trkpt lat="37.412895" lon="-4.49116833">
        <ele>453.0</ele>
        <time>2018-06-09T10:13:36.188Z</time>
      </trkpt>
      <trkpt lat="37.41284167" lon="-4.49122167">
        <ele>452.0</ele>
        <time>2018-06-09T10:13:37.172Z</time>
      </trkpt>
      <trkpt lat="37.41284167" lon="-4.49122167">
        <ele>452.0</ele>
        <time>2018-06-09T10:13:38.191Z</time>
      </trkpt>
      <trkpt lat="37.41275" lon="-4.49134667">
        <ele>452.0</ele>
        <time>2018-06-09T10:13:39.163Z</time>
      </trkpt>
      <trkpt lat="37.41275" lon="-4.49134667">
        <ele>452.0</ele>
        <time>2018-06-09T10:13:40.181Z</time>
      </trkpt>
      <trkpt lat="37.41272667" lon="-4.4915">
        <ele>452.0</ele>
        <time>2018-06-09T10:13:41.188Z</time>
      </trkpt>
      <trkpt lat="37.41273667" lon="-4.49158667">
        <ele>454.0</ele>
        <time>2018-06-09T10:13:42.190Z</time>
      </trkpt>
      <trkpt lat="37.41273667" lon="-4.49158667">
        <ele>454.0</ele>
        <time>2018-06-09T10:13:43.167Z</time>
      </trkpt>
      <trkpt lat="37.41274" lon="-4.491745">
        <ele>454.0</ele>
        <time>2018-06-09T10:13:44.178Z</time>
      </trkpt>
      <trkpt lat="37.41274" lon="-4.491745">
        <ele>454.0</ele>
        <time>2018-06-09T10:13:45.194Z</time>
      </trkpt>
      <trkpt lat="37.412715" lon="-4.49189833">
        <ele>453.0</ele>
        <time>2018-06-09T10:13:46.165Z</time>
      </trkpt>
      <trkpt lat="37.412715" lon="-4.49189833">
        <ele>453.0</ele>
        <time>2018-06-09T10:13:47.168Z</time>
      </trkpt>
      <trkpt lat="37.41270667" lon="-4.492045">
        <ele>453.0</ele>
        <time>2018-06-09T10:13:48.157Z</time>
      </trkpt>
      <trkpt lat="37.412705" lon="-4.49210833">
        <ele>453.0</ele>
        <time>2018-06-09T10:13:49.179Z</time>
      </trkpt>
      <trkpt lat="37.412705" lon="-4.49210833">
        <ele>453.0</ele>
        <time>2018-06-09T10:13:50.196Z</time>
      </trkpt>
      <trkpt lat="37.4127" lon="-4.49221667">
        <ele>453.0</ele>
        <time>2018-06-09T10:13:51.170Z</time>
      </trkpt>
      <trkpt lat="37.4127" lon="-4.49221667">
        <ele>453.0</ele>
        <time>2018-06-09T10:13:52.187Z</time>
      </trkpt>
      <trkpt lat="37.412695" lon="-4.49229333">
        <ele>453.0</ele>
        <time>2018-06-09T10:13:53.163Z</time>
      </trkpt>
      <trkpt lat="37.412695" lon="-4.49229333">
        <ele>453.0</ele>
        <time>2018-06-09T10:13:54.180Z</time>
      </trkpt>
      <trkpt lat="37.41269167" lon="-4.49235167">
        <ele>452.0</ele>
        <time>2018-06-09T10:13:55.173Z</time>
      </trkpt>
      <trkpt lat="37.41269167" lon="-4.49235167">
        <ele>452.0</ele>
        <time>2018-06-09T10:13:56.173Z</time>
      </trkpt>
      <trkpt lat="37.41269333" lon="-4.49240833">
        <ele>454.0</ele>
        <time>2018-06-09T10:13:57.179Z</time>
      </trkpt>
      <trkpt lat="37.41268833" lon="-4.49244167">
        <ele>454.0</ele>
        <time>2018-06-09T10:13:58.159Z</time>
      </trkpt>
      <trkpt lat="37.41268833" lon="-4.49244167">
        <ele>454.0</ele>
        <time>2018-06-09T10:13:59.176Z</time>
      </trkpt>
      <trkpt lat="37.41264833" lon="-4.492495">
        <ele>455.0</ele>
        <time>2018-06-09T10:14:00.189Z</time>
      </trkpt>
      <trkpt lat="37.41261667" lon="-4.49250667">
        <ele>455.0</ele>
        <time>2018-06-09T10:14:01.168Z</time>
      </trkpt>
      <trkpt lat="37.41261667" lon="-4.49250667">
        <ele>455.0</ele>
        <time>2018-06-09T10:14:02.184Z</time>
      </trkpt>
      <trkpt lat="37.41253667" lon="-4.492515">
        <ele>455.0</ele>
        <time>2018-06-09T10:14:03.191Z</time>
      </trkpt>
      <trkpt lat="37.41249667" lon="-4.49252333">
        <ele>456.0</ele>
        <time>2018-06-09T10:14:04.174Z</time>
      </trkpt>
      <trkpt lat="37.41245333" lon="-4.49253333">
        <ele>456.0</ele>
        <time>2018-06-09T10:14:05.190Z</time>
      </trkpt>
      <trkpt lat="37.41245333" lon="-4.49253333">
        <ele>456.0</ele>
        <time>2018-06-09T10:14:06.168Z</time>
      </trkpt>
      <trkpt lat="37.41237833" lon="-4.492565">
        <ele>456.0</ele>
        <time>2018-06-09T10:14:07.163Z</time>
      </trkpt>
      <trkpt lat="37.41233833" lon="-4.49257833">
        <ele>457.0</ele>
        <time>2018-06-09T10:14:08.182Z</time>
      </trkpt>
      <trkpt lat="37.41233833" lon="-4.49257833">
        <ele>457.0</ele>
        <time>2018-06-09T10:14:09.160Z</time>
      </trkpt>
      <trkpt lat="37.41225167" lon="-4.49260667">
        <ele>457.0</ele>
        <time>2018-06-09T10:14:10.165Z</time>
      </trkpt>
      <trkpt lat="37.41225167" lon="-4.49260667">
        <ele>457.0</ele>
        <time>2018-06-09T10:14:11.181Z</time>
      </trkpt>
      <trkpt lat="37.412155" lon="-4.49261">
        <ele>458.0</ele>
        <time>2018-06-09T10:14:12.188Z</time>
      </trkpt>
      <trkpt lat="37.41210667" lon="-4.49260333">
        <ele>458.0</ele>
        <time>2018-06-09T10:14:13.169Z</time>
      </trkpt>
      <trkpt lat="37.41210667" lon="-4.49260333">
        <ele>458.0</ele>
        <time>2018-06-09T10:14:14.185Z</time>
      </trkpt>
      <trkpt lat="37.41201333" lon="-4.49256667">
        <ele>459.0</ele>
        <time>2018-06-09T10:14:15.164Z</time>
      </trkpt>
      <trkpt lat="37.41201333" lon="-4.49256667">
        <ele>459.0</ele>
        <time>2018-06-09T10:14:16.180Z</time>
      </trkpt>
      <trkpt lat="37.41193333" lon="-4.49253333">
        <ele>460.0</ele>
        <time>2018-06-09T10:14:17.186Z</time>
      </trkpt>
      <trkpt lat="37.41193333" lon="-4.49253333">
        <ele>460.0</ele>
        <time>2018-06-09T10:14:18.163Z</time>
      </trkpt>
      <trkpt lat="37.41186167" lon="-4.492545">
        <ele>460.0</ele>
        <time>2018-06-09T10:14:19.181Z</time>
      </trkpt>
      <trkpt lat="37.41186167" lon="-4.492545">
        <ele>460.0</ele>
        <time>2018-06-09T10:14:20.160Z</time>
      </trkpt>
      <trkpt lat="37.41179167" lon="-4.49259">
        <ele>460.0</ele>
        <time>2018-06-09T10:14:21.168Z</time>
      </trkpt>
      <trkpt lat="37.41179167" lon="-4.49259">
        <ele>460.0</ele>
        <time>2018-06-09T10:14:22.184Z</time>
      </trkpt>
      <trkpt lat="37.4117" lon="-4.49261833">
        <ele>460.0</ele>
        <time>2018-06-09T10:14:23.175Z</time>
      </trkpt>
      <trkpt lat="37.4117" lon="-4.49261833">
        <ele>460.0</ele>
        <time>2018-06-09T10:14:24.192Z</time>
      </trkpt>
      <trkpt lat="37.41159167" lon="-4.49259333">
        <ele>460.0</ele>
        <time>2018-06-09T10:14:25.170Z</time>
      </trkpt>
      <trkpt lat="37.41153833" lon="-4.49255667">
        <ele>460.0</ele>
        <time>2018-06-09T10:14:26.194Z</time>
      </trkpt>
      <trkpt lat="37.41153833" lon="-4.49255667">
        <ele>460.0</ele>
        <time>2018-06-09T10:14:27.170Z</time>
      </trkpt>
      <trkpt lat="37.41143" lon="-4.49246833">
        <ele>460.0</ele>
        <time>2018-06-09T10:14:28.176Z</time>
      </trkpt>
      <trkpt lat="37.41143" lon="-4.49246833">
        <ele>460.0</ele>
        <time>2018-06-09T10:14:29.193Z</time>
      </trkpt>
      <trkpt lat="37.41130667" lon="-4.49243667">
        <ele>461.0</ele>
        <time>2018-06-09T10:14:30.159Z</time>
      </trkpt>
      <trkpt lat="37.41124333" lon="-4.49242667">
        <ele>461.0</ele>
        <time>2018-06-09T10:14:31.165Z</time>
      </trkpt>
      <trkpt lat="37.41124333" lon="-4.49242667">
        <ele>461.0</ele>
        <time>2018-06-09T10:14:32.186Z</time>
      </trkpt>
      <trkpt lat="37.41111333" lon="-4.49240833">
        <ele>461.0</ele>
        <time>2018-06-09T10:14:33.192Z</time>
      </trkpt>
      <trkpt lat="37.41111333" lon="-4.49240833">
        <ele>461.0</ele>
        <time>2018-06-09T10:14:34.170Z</time>
      </trkpt>
      <trkpt lat="37.41099167" lon="-4.49239167">
        <ele>462.0</ele>
        <time>2018-06-09T10:14:35.177Z</time>
      </trkpt>
      <trkpt lat="37.41099167" lon="-4.49239167">
        <ele>462.0</ele>
        <time>2018-06-09T10:14:36.193Z</time>
      </trkpt>
      <trkpt lat="37.41088333" lon="-4.49237667">
        <ele>462.0</ele>
        <time>2018-06-09T10:14:37.173Z</time>
      </trkpt>
      <trkpt lat="37.41088333" lon="-4.49237667">
        <ele>462.0</ele>
        <time>2018-06-09T10:14:38.191Z</time>
      </trkpt>
      <trkpt lat="37.410815" lon="-4.492405">
        <ele>463.0</ele>
        <time>2018-06-09T10:14:39.163Z</time>
      </trkpt>
      <trkpt lat="37.410815" lon="-4.492405">
        <ele>463.0</ele>
        <time>2018-06-09T10:14:40.195Z</time>
      </trkpt>
      <trkpt lat="37.41079667" lon="-4.49250167">
        <ele>463.0</ele>
        <time>2018-06-09T10:14:41.163Z</time>
      </trkpt>
      <trkpt lat="37.41079667" lon="-4.49250167">
        <ele>463.0</ele>
        <time>2018-06-09T10:14:42.179Z</time>
      </trkpt>
      <trkpt lat="37.410795" lon="-4.492625">
        <ele>462.0</ele>
        <time>2018-06-09T10:14:43.173Z</time>
      </trkpt>
      <trkpt lat="37.410795" lon="-4.492625">
        <ele>462.0</ele>
        <time>2018-06-09T10:14:44.189Z</time>
      </trkpt>
      <trkpt lat="37.41078833" lon="-4.49274667">
        <ele>461.0</ele>
        <time>2018-06-09T10:14:45.169Z</time>
      </trkpt>
      <trkpt lat="37.41078833" lon="-4.49274667">
        <ele>461.0</ele>
        <time>2018-06-09T10:14:46.173Z</time>
      </trkpt>
      <trkpt lat="37.41082" lon="-4.49283667">
        <ele>460.0</ele>
        <time>2018-06-09T10:14:47.169Z</time>
      </trkpt>
      <trkpt lat="37.41082" lon="-4.49283667">
        <ele>460.0</ele>
        <time>2018-06-09T10:14:48.172Z</time>
      </trkpt>
      <trkpt lat="37.41089333" lon="-4.49283333">
        <ele>459.0</ele>
        <time>2018-06-09T10:14:49.179Z</time>
      </trkpt>
      <trkpt lat="37.41091667" lon="-4.49282833">
        <ele>459.0</ele>
        <time>2018-06-09T10:14:50.178Z</time>
      </trkpt>
      <trkpt lat="37.41091667" lon="-4.49282833">
        <ele>459.0</ele>
        <time>2018-06-09T10:14:51.195Z</time>
      </trkpt>
      <trkpt lat="37.41093" lon="-4.49282833">
        <ele>459.0</ele>
        <time>2018-06-09T10:14:52.169Z</time>
      </trkpt>
      <trkpt lat="37.41093" lon="-4.49282833">
        <ele>459.0</ele>
        <time>2018-06-09T10:14:53.186Z</time>
      </trkpt>
      <trkpt lat="37.41092333" lon="-4.49283167">
        <ele>460.0</ele>
        <time>2018-06-09T10:14:54.270Z</time>
      </trkpt>
      <trkpt lat="37.41092" lon="-4.492835">
        <ele>460.0</ele>
        <time>2018-06-09T10:14:55.173Z</time>
      </trkpt>
    </trkseg>
  </trk>
</gpx>
